<?xml version='1.0' encoding='UTF-8'?><gpx version="1.1" creator="JPX - https://github.com/jenetics/jpx" xmlns="http://www.topografix.com/GPX/1/1"><trk><trkseg><trkpt lat="38.0440146" lon="12.8194482"><ele>108.0</ele><time>2026-05-06T07:32:23.629Z</time></trkpt><trkpt lat="38.0439482" lon="12.8195107"><ele>108.00000000000001</ele><time>2026-05-06T07:32:25.668Z</time></trkpt><trkpt lat="38.0438701" lon="12.8195458"><ele>108.00000000000001</ele><time>2026-05-06T07:32:27.582Z</time></trkpt><trkpt lat="38.0438813" lon="12.8196562"><ele>108.0</ele><time>2026-05-06T07:32:29.908Z</time></trkpt><trkpt lat="38.0439245" lon="12.8195348"><ele>108.0</ele><time>2026-05-06T07:32:33.613Z</time></trkpt><trkpt lat="38.0439234" lon="12.8194067"><ele>109.60000000000001</ele><time>2026-05-06T07:32:35.574Z</time></trkpt><trkpt lat="38.0439354" lon="12.8191996"><ele>111.20000000000002</ele><time>2026-05-06T07:32:37.564Z</time></trkpt><trkpt lat="38.0439364" lon="12.81907"><ele>112.8</ele><time>2026-05-06T07:32:38.565Z</time></trkpt><trkpt lat="38.0439304" lon="12.8189587"><ele>114.4</ele><time>2026-05-06T07:32:39.566Z</time></trkpt><trkpt lat="38.0439232" lon="12.8188503"><ele>116.0</ele><time>2026-05-06T07:32:40.566Z</time></trkpt><trkpt lat="38.0439148" lon="12.8187342"><ele>116.0</ele><time>2026-05-06T07:32:41.566Z</time></trkpt><trkpt lat="38.0439067" lon="12.8186185"><ele>116.0</ele><time>2026-05-06T07:32:42.566Z</time></trkpt><trkpt lat="38.0438983" lon="12.8185028"><ele>116.0</ele><time>2026-05-06T07:32:43.566Z</time></trkpt><trkpt lat="38.0438917" lon="12.8183833"><ele>116.0</ele><time>2026-05-06T07:32:44.568Z</time></trkpt><trkpt lat="38.0438817" lon="12.8182633"><ele>116.0</ele><time>2026-05-06T07:32:45.564Z</time></trkpt><trkpt lat="38.043875" lon="12.81815"><ele>116.99999999999999</ele><time>2026-05-06T07:32:46.565Z</time></trkpt><trkpt lat="38.04387" lon="12.8180433"><ele>118.0</ele><time>2026-05-06T07:32:47.564Z</time></trkpt><trkpt lat="38.0438717" lon="12.8179383"><ele>119.0</ele><time>2026-05-06T07:32:48.565Z</time></trkpt><trkpt lat="38.0438833" lon="12.8178317"><ele>120.0</ele><time>2026-05-06T07:32:49.564Z</time></trkpt><trkpt lat="38.04391" lon="12.8177533"><ele>120.99999999999999</ele><time>2026-05-06T07:32:50.565Z</time></trkpt><trkpt lat="38.044025" lon="12.817675"><ele>122.0</ele><time>2026-05-06T07:32:52.564Z</time></trkpt><trkpt lat="38.0440967" lon="12.817665"><ele>123.42857142857142</ele><time>2026-05-06T07:32:53.564Z</time></trkpt><trkpt lat="38.04417" lon="12.81766"><ele>124.85714285714286</ele><time>2026-05-06T07:32:54.564Z</time></trkpt><trkpt lat="38.0442383" lon="12.81764"><ele>126.28571428571428</ele><time>2026-05-06T07:32:55.571Z</time></trkpt><trkpt lat="38.044295" lon="12.817595"><ele>127.71428571428571</ele><time>2026-05-06T07:32:56.565Z</time></trkpt><trkpt lat="38.0443333" lon="12.817525"><ele>129.14285714285714</ele><time>2026-05-06T07:32:57.563Z</time></trkpt><trkpt lat="38.0443483" lon="12.817435"><ele>130.57142857142856</ele><time>2026-05-06T07:32:58.563Z</time></trkpt><trkpt lat="38.0443467" lon="12.8173333"><ele>132.0</ele><time>2026-05-06T07:32:59.564Z</time></trkpt><trkpt lat="38.044325" lon="12.8172117"><ele>132.79999999999998</ele><time>2026-05-06T07:33:00.563Z</time></trkpt><trkpt lat="38.044305" lon="12.81709"><ele>133.6</ele><time>2026-05-06T07:33:01.565Z</time></trkpt><trkpt lat="38.0442883" lon="12.81696"><ele>134.39999999999998</ele><time>2026-05-06T07:33:02.564Z</time></trkpt><trkpt lat="38.0442717" lon="12.8168333"><ele>135.2</ele><time>2026-05-06T07:33:03.564Z</time></trkpt><trkpt lat="38.0442517" lon="12.8167067"><ele>136.0</ele><time>2026-05-06T07:33:04.564Z</time></trkpt><trkpt lat="38.0442333" lon="12.8165767"><ele>135.2</ele><time>2026-05-06T07:33:05.564Z</time></trkpt><trkpt lat="38.0442133" lon="12.8164467"><ele>134.39999999999998</ele><time>2026-05-06T07:33:06.565Z</time></trkpt><trkpt lat="38.0441883" lon="12.8163217"><ele>133.6</ele><time>2026-05-06T07:33:07.565Z</time></trkpt><trkpt lat="38.0441667" lon="12.8162017"><ele>132.79999999999998</ele><time>2026-05-06T07:33:08.564Z</time></trkpt><trkpt lat="38.044135" lon="12.8161017"><ele>132.0</ele><time>2026-05-06T07:33:09.564Z</time></trkpt><trkpt lat="38.0440967" lon="12.8160133"><ele>133.33333333333334</ele><time>2026-05-06T07:33:10.565Z</time></trkpt><trkpt lat="38.0440483" lon="12.8159367"><ele>134.66666666666666</ele><time>2026-05-06T07:33:11.564Z</time></trkpt><trkpt lat="38.0439933" lon="12.81586"><ele>136.0</ele><time>2026-05-06T07:33:12.563Z</time></trkpt><trkpt lat="38.0439383" lon="12.815785"><ele>137.33333333333331</ele><time>2026-05-06T07:33:13.564Z</time></trkpt><trkpt lat="38.0438833" lon="12.8157033"><ele>138.66666666666666</ele><time>2026-05-06T07:33:14.564Z</time></trkpt><trkpt lat="38.0438267" lon="12.8156183"><ele>140.0</ele><time>2026-05-06T07:33:15.563Z</time></trkpt><trkpt lat="38.0437683" lon="12.815535"><ele>140.0</ele><time>2026-05-06T07:33:16.564Z</time></trkpt><trkpt lat="38.0437067" lon="12.8154517"><ele>140.0</ele><time>2026-05-06T07:33:17.564Z</time></trkpt><trkpt lat="38.0436433" lon="12.81537"><ele>140.0</ele><time>2026-05-06T07:33:18.565Z</time></trkpt><trkpt lat="38.0435833" lon="12.81529"><ele>140.0</ele><time>2026-05-06T07:33:19.565Z</time></trkpt><trkpt lat="38.0435217" lon="12.8152133"><ele>140.0</ele><time>2026-05-06T07:33:20.565Z</time></trkpt><trkpt lat="38.0434583" lon="12.8151417"><ele>140.0</ele><time>2026-05-06T07:33:21.565Z</time></trkpt><trkpt lat="38.0433883" lon="12.815075"><ele>141.4</ele><time>2026-05-06T07:33:22.566Z</time></trkpt><trkpt lat="38.0433167" lon="12.815005"><ele>142.8</ele><time>2026-05-06T07:33:23.565Z</time></trkpt><trkpt lat="38.0432417" lon="12.81493"><ele>144.2</ele><time>2026-05-06T07:33:24.565Z</time></trkpt><trkpt lat="38.04316" lon="12.81485"><ele>145.6</ele><time>2026-05-06T07:33:25.566Z</time></trkpt><trkpt lat="38.043075" lon="12.8147717"><ele>147.0</ele><time>2026-05-06T07:33:26.564Z</time></trkpt><trkpt lat="38.0429933" lon="12.814685"><ele>147.0</ele><time>2026-05-06T07:33:27.566Z</time></trkpt><trkpt lat="38.0429317" lon="12.8145833"><ele>147.0</ele><time>2026-05-06T07:33:28.566Z</time></trkpt><trkpt lat="38.0428833" lon="12.8144683"><ele>147.0</ele><time>2026-05-06T07:33:29.563Z</time></trkpt><trkpt lat="38.0428383" lon="12.8143433"><ele>147.0</ele><time>2026-05-06T07:33:30.564Z</time></trkpt><trkpt lat="38.042795" lon="12.814215"><ele>147.0</ele><time>2026-05-06T07:33:31.563Z</time></trkpt><trkpt lat="38.042765" lon="12.8140883"><ele>149.2</ele><time>2026-05-06T07:33:32.564Z</time></trkpt><trkpt lat="38.0427217" lon="12.8138967"><ele>151.39999999999998</ele><time>2026-05-06T07:33:34.565Z</time></trkpt><trkpt lat="38.04269" lon="12.8137967"><ele>153.60000000000002</ele><time>2026-05-06T07:33:35.565Z</time></trkpt><trkpt lat="38.042645" lon="12.8137017"><ele>155.8</ele><time>2026-05-06T07:33:36.565Z</time></trkpt><trkpt lat="38.0425783" lon="12.813615"><ele>158.0</ele><time>2026-05-06T07:33:37.564Z</time></trkpt><trkpt lat="38.0424967" lon="12.813545"><ele>160.0</ele><time>2026-05-06T07:33:38.565Z</time></trkpt><trkpt lat="38.0424017" lon="12.8134817"><ele>162.0</ele><time>2026-05-06T07:33:39.566Z</time></trkpt><trkpt lat="38.0423" lon="12.8134267"><ele>164.0</ele><time>2026-05-06T07:33:40.565Z</time></trkpt><trkpt lat="38.042185" lon="12.8133733"><ele>166.0</ele><time>2026-05-06T07:33:41.565Z</time></trkpt><trkpt lat="38.0420667" lon="12.8133217"><ele>166.0</ele><time>2026-05-06T07:33:42.564Z</time></trkpt><trkpt lat="38.04195" lon="12.8132583"><ele>166.0</ele><time>2026-05-06T07:33:43.566Z</time></trkpt><trkpt lat="38.0418433" lon="12.8131817"><ele>166.0</ele><time>2026-05-06T07:33:44.566Z</time></trkpt><trkpt lat="38.0417717" lon="12.8130883"><ele>166.0</ele><time>2026-05-06T07:33:45.565Z</time></trkpt><trkpt lat="38.041705" lon="12.81298"><ele>166.0</ele><time>2026-05-06T07:33:46.564Z</time></trkpt><trkpt lat="38.0416367" lon="12.812865"><ele>166.0</ele><time>2026-05-06T07:33:47.565Z</time></trkpt><trkpt lat="38.0415633" lon="12.8127483"><ele>166.0</ele><time>2026-05-06T07:33:48.565Z</time></trkpt><trkpt lat="38.0414833" lon="12.8126333"><ele>166.0</ele><time>2026-05-06T07:33:49.565Z</time></trkpt><trkpt lat="38.0414033" lon="12.812515"><ele>165.8</ele><time>2026-05-06T07:33:50.565Z</time></trkpt><trkpt lat="38.0413383" lon="12.8123917"><ele>165.60000000000002</ele><time>2026-05-06T07:33:51.565Z</time></trkpt><trkpt lat="38.0412967" lon="12.8122783"><ele>165.4</ele><time>2026-05-06T07:33:52.564Z</time></trkpt><trkpt lat="38.041255" lon="12.8121567"><ele>165.2</ele><time>2026-05-06T07:33:53.564Z</time></trkpt><trkpt lat="38.0412117" lon="12.8120233"><ele>165.0</ele><time>2026-05-06T07:33:54.566Z</time></trkpt><trkpt lat="38.041175" lon="12.8119"><ele>165.0</ele><time>2026-05-06T07:33:55.566Z</time></trkpt><trkpt lat="38.0411633" lon="12.8118"><ele>165.0</ele><time>2026-05-06T07:33:56.565Z</time></trkpt><trkpt lat="38.041225" lon="12.8116983"><ele>165.0</ele><time>2026-05-06T07:33:58.563Z</time></trkpt><trkpt lat="38.0413067" lon="12.811705"><ele>165.0</ele><time>2026-05-06T07:34:00.564Z</time></trkpt><trkpt lat="38.041365" lon="12.81177"><ele>165.0</ele><time>2026-05-06T07:34:01.564Z</time></trkpt><trkpt lat="38.0414333" lon="12.8118617"><ele>165.0</ele><time>2026-05-06T07:34:02.564Z</time></trkpt><trkpt lat="38.0415083" lon="12.81195"><ele>165.0</ele><time>2026-05-06T07:34:03.564Z</time></trkpt><trkpt lat="38.0416117" lon="12.8120267"><ele>165.0</ele><time>2026-05-06T07:34:04.564Z</time></trkpt><trkpt lat="38.0417267" lon="12.8121017"><ele>165.0</ele><time>2026-05-06T07:34:05.564Z</time></trkpt><trkpt lat="38.04183" lon="12.8121617"><ele>165.0</ele><time>2026-05-06T07:34:06.563Z</time></trkpt><trkpt lat="38.041925" lon="12.8121967"><ele>167.8</ele><time>2026-05-06T07:34:07.564Z</time></trkpt><trkpt lat="38.0420017" lon="12.812215"><ele>170.6</ele><time>2026-05-06T07:34:08.564Z</time></trkpt><trkpt lat="38.0420733" lon="12.8122"><ele>173.39999999999998</ele><time>2026-05-06T07:34:09.564Z</time></trkpt><trkpt lat="38.0421517" lon="12.812095"><ele>176.2</ele><time>2026-05-06T07:34:11.566Z</time></trkpt><trkpt lat="38.0421133" lon="12.8119633"><ele>179.0</ele><time>2026-05-06T07:34:13.565Z</time></trkpt><trkpt lat="38.0420533" lon="12.811905"><ele>179.0</ele><time>2026-05-06T07:34:14.564Z</time></trkpt><trkpt lat="38.0419717" lon="12.8118617"><ele>179.0</ele><time>2026-05-06T07:34:15.562Z</time></trkpt><trkpt lat="38.04189" lon="12.8118133"><ele>179.0</ele><time>2026-05-06T07:34:16.564Z</time></trkpt><trkpt lat="38.04182" lon="12.81175"><ele>179.0</ele><time>2026-05-06T07:34:17.563Z</time></trkpt><trkpt lat="38.0417683" lon="12.8116633"><ele>179.0</ele><time>2026-05-06T07:34:18.564Z</time></trkpt><trkpt lat="38.0417283" lon="12.81156"><ele>179.0</ele><time>2026-05-06T07:34:19.565Z</time></trkpt><trkpt lat="38.0416933" lon="12.8114533"><ele>177.39999999999998</ele><time>2026-05-06T07:34:20.564Z</time></trkpt><trkpt lat="38.0416617" lon="12.8113483"><ele>175.8</ele><time>2026-05-06T07:34:21.564Z</time></trkpt><trkpt lat="38.0416367" lon="12.811235"><ele>174.2</ele><time>2026-05-06T07:34:22.563Z</time></trkpt><trkpt lat="38.04163" lon="12.811115"><ele>172.60000000000002</ele><time>2026-05-06T07:34:23.564Z</time></trkpt><trkpt lat="38.0416383" lon="12.810995"><ele>171.0</ele><time>2026-05-06T07:34:24.564Z</time></trkpt><trkpt lat="38.0416467" lon="12.810875"><ele>176.83333333333334</ele><time>2026-05-06T07:34:25.565Z</time></trkpt><trkpt lat="38.041655" lon="12.8107683"><ele>182.66666666666669</ele><time>2026-05-06T07:34:26.565Z</time></trkpt><trkpt lat="38.0416633" lon="12.8106817"><ele>188.5</ele><time>2026-05-06T07:34:27.564Z</time></trkpt><trkpt lat="38.0416717" lon="12.8106017"><ele>194.33333333333334</ele><time>2026-05-06T07:34:28.564Z</time></trkpt><trkpt lat="38.0416817" lon="12.8105083"><ele>200.16666666666669</ele><time>2026-05-06T07:34:29.564Z</time></trkpt><trkpt lat="38.041695" lon="12.8104067"><ele>206.0</ele><time>2026-05-06T07:34:30.563Z</time></trkpt><trkpt lat="38.04171" lon="12.8102933"><ele>206.0</ele><time>2026-05-06T07:34:31.566Z</time></trkpt><trkpt lat="38.0417283" lon="12.81017"><ele>206.0</ele><time>2026-05-06T07:34:32.565Z</time></trkpt><trkpt lat="38.0417483" lon="12.8100417"><ele>206.0</ele><time>2026-05-06T07:34:33.565Z</time></trkpt><trkpt lat="38.0417667" lon="12.8099067"><ele>206.0</ele><time>2026-05-06T07:34:34.566Z</time></trkpt><trkpt lat="38.0417867" lon="12.80977"><ele>206.0</ele><time>2026-05-06T07:34:35.566Z</time></trkpt><trkpt lat="38.0418083" lon="12.809625"><ele>207.0</ele><time>2026-05-06T07:34:36.565Z</time></trkpt><trkpt lat="38.0418283" lon="12.8094733"><ele>208.0</ele><time>2026-05-06T07:34:37.565Z</time></trkpt><trkpt lat="38.04185" lon="12.80932"><ele>209.0</ele><time>2026-05-06T07:34:38.565Z</time></trkpt><trkpt lat="38.0418733" lon="12.80917"><ele>210.0</ele><time>2026-05-06T07:34:39.564Z</time></trkpt><trkpt lat="38.0418983" lon="12.8090183"><ele>211.25</ele><time>2026-05-06T07:34:40.565Z</time></trkpt><trkpt lat="38.0419233" lon="12.808865"><ele>212.5</ele><time>2026-05-06T07:34:41.565Z</time></trkpt><trkpt lat="38.0419483" lon="12.8087167"><ele>213.75</ele><time>2026-05-06T07:34:42.565Z</time></trkpt><trkpt lat="38.0419733" lon="12.8085633"><ele>215.0</ele><time>2026-05-06T07:34:43.565Z</time></trkpt><trkpt lat="38.042005" lon="12.8084117"><ele>216.5</ele><time>2026-05-06T07:34:44.565Z</time></trkpt><trkpt lat="38.042045" lon="12.8082567"><ele>218.0</ele><time>2026-05-06T07:34:45.563Z</time></trkpt><trkpt lat="38.0420883" lon="12.8081083"><ele>219.5</ele><time>2026-05-06T07:34:46.564Z</time></trkpt><trkpt lat="38.0421333" lon="12.80796"><ele>221.0</ele><time>2026-05-06T07:34:47.563Z</time></trkpt><trkpt lat="38.0421783" lon="12.8078083"><ele>221.75</ele><time>2026-05-06T07:34:48.563Z</time></trkpt><trkpt lat="38.0422233" lon="12.8076567"><ele>222.5</ele><time>2026-05-06T07:34:49.566Z</time></trkpt><trkpt lat="38.04227" lon="12.8075033"><ele>223.25</ele><time>2026-05-06T07:34:50.564Z</time></trkpt><trkpt lat="38.0423233" lon="12.80735"><ele>224.0</ele><time>2026-05-06T07:34:51.565Z</time></trkpt><trkpt lat="38.04238" lon="12.8072067"><ele>224.0</ele><time>2026-05-06T07:34:52.565Z</time></trkpt><trkpt lat="38.04244" lon="12.8070617"><ele>224.0</ele><time>2026-05-06T07:34:53.565Z</time></trkpt><trkpt lat="38.0425017" lon="12.8069167"><ele>224.0</ele><time>2026-05-06T07:34:54.566Z</time></trkpt><trkpt lat="38.0425683" lon="12.8067733"><ele>224.0</ele><time>2026-05-06T07:34:55.565Z</time></trkpt><trkpt lat="38.04264" lon="12.80663"><ele>228.5</ele><time>2026-05-06T07:34:56.566Z</time></trkpt><trkpt lat="38.0427183" lon="12.8064867"><ele>233.0</ele><time>2026-05-06T07:34:57.565Z</time></trkpt><trkpt lat="38.0427967" lon="12.8063417"><ele>237.5</ele><time>2026-05-06T07:34:58.566Z</time></trkpt><trkpt lat="38.0428683" lon="12.8061917"><ele>242.0</ele><time>2026-05-06T07:34:59.565Z</time></trkpt><trkpt lat="38.04292" lon="12.8060317"><ele>242.5</ele><time>2026-05-06T07:35:00.565Z</time></trkpt><trkpt lat="38.04295" lon="12.8058633"><ele>243.0</ele><time>2026-05-06T07:35:01.565Z</time></trkpt><trkpt lat="38.0429783" lon="12.8056933"><ele>243.5</ele><time>2026-05-06T07:35:02.566Z</time></trkpt><trkpt lat="38.04301" lon="12.80552"><ele>244.0</ele><time>2026-05-06T07:35:03.565Z</time></trkpt><trkpt lat="38.0430433" lon="12.805345"><ele>244.0</ele><time>2026-05-06T07:35:04.565Z</time></trkpt><trkpt lat="38.04308" lon="12.8051717"><ele>244.0</ele><time>2026-05-06T07:35:05.564Z</time></trkpt><trkpt lat="38.043125" lon="12.8050233"><ele>244.0</ele><time>2026-05-06T07:35:06.565Z</time></trkpt><trkpt lat="38.0431617" lon="12.804895"><ele>244.0</ele><time>2026-05-06T07:35:07.564Z</time></trkpt><trkpt lat="38.043175" lon="12.8047767"><ele>245.6</ele><time>2026-05-06T07:35:08.566Z</time></trkpt><trkpt lat="38.043165" lon="12.804665"><ele>247.2</ele><time>2026-05-06T07:35:09.565Z</time></trkpt><trkpt lat="38.0431333" lon="12.80455"><ele>248.79999999999998</ele><time>2026-05-06T07:35:10.564Z</time></trkpt><trkpt lat="38.043089" lon="12.8044289"><ele>250.39999999999998</ele><time>2026-05-06T07:35:11.565Z</time></trkpt><trkpt lat="38.0430387" lon="12.8042996"><ele>252.0</ele><time>2026-05-06T07:35:12.564Z</time></trkpt><trkpt lat="38.0429901" lon="12.8041594"><ele>253.5</ele><time>2026-05-06T07:35:13.566Z</time></trkpt><trkpt lat="38.0429548" lon="12.8040122"><ele>255.0</ele><time>2026-05-06T07:35:14.565Z</time></trkpt><trkpt lat="38.0429389" lon="12.8038584"><ele>256.5</ele><time>2026-05-06T07:35:15.565Z</time></trkpt><trkpt lat="38.0429418" lon="12.8036996"><ele>258.0</ele><time>2026-05-06T07:35:16.563Z</time></trkpt><trkpt lat="38.0429536" lon="12.8035354"><ele>259.25</ele><time>2026-05-06T07:35:17.565Z</time></trkpt><trkpt lat="38.0429667" lon="12.8033665"><ele>260.5</ele><time>2026-05-06T07:35:18.565Z</time></trkpt><trkpt lat="38.0429802" lon="12.8031947"><ele>261.75</ele><time>2026-05-06T07:35:19.566Z</time></trkpt><trkpt lat="38.04299" lon="12.8030236"><ele>263.0</ele><time>2026-05-06T07:35:20.564Z</time></trkpt><trkpt lat="38.042997" lon="12.8028631"><ele>263.0</ele><time>2026-05-06T07:35:21.565Z</time></trkpt><trkpt lat="38.0430034" lon="12.8027235"><ele>263.0</ele><time>2026-05-06T07:35:22.564Z</time></trkpt><trkpt lat="38.0430093" lon="12.8026054"><ele>263.0</ele><time>2026-05-06T07:35:23.566Z</time></trkpt><trkpt lat="38.0430134" lon="12.8025126"><ele>263.0</ele><time>2026-05-06T07:35:24.565Z</time></trkpt><trkpt lat="38.0430208" lon="12.8023939"><ele>263.0</ele><time>2026-05-06T07:35:26.566Z</time></trkpt><trkpt lat="38.0430366" lon="12.802314"><ele>263.0</ele><time>2026-05-06T07:35:28.564Z</time></trkpt><trkpt lat="38.0430456" lon="12.8022242"><ele>264.4</ele><time>2026-05-06T07:35:30.565Z</time></trkpt><trkpt lat="38.0429886" lon="12.8020935"><ele>265.8</ele><time>2026-05-06T07:35:32.563Z</time></trkpt><trkpt lat="38.0429312" lon="12.8020349"><ele>267.2</ele><time>2026-05-06T07:35:33.566Z</time></trkpt><trkpt lat="38.0428563" lon="12.801986"><ele>268.6</ele><time>2026-05-06T07:35:34.564Z</time></trkpt><trkpt lat="38.0427599" lon="12.80195"><ele>270.0</ele><time>2026-05-06T07:35:35.563Z</time></trkpt><trkpt lat="38.0426483" lon="12.801919"><ele>270.0</ele><time>2026-05-06T07:35:36.564Z</time></trkpt><trkpt lat="38.0425334" lon="12.8018781"><ele>270.0</ele><time>2026-05-06T07:35:37.564Z</time></trkpt><trkpt lat="38.0424181" lon="12.8018245"><ele>270.0</ele><time>2026-05-06T07:35:38.565Z</time></trkpt><trkpt lat="38.0423048" lon="12.8017628"><ele>270.0</ele><time>2026-05-06T07:35:39.564Z</time></trkpt><trkpt lat="38.0421878" lon="12.8016955"><ele>271.0</ele><time>2026-05-06T07:35:40.564Z</time></trkpt><trkpt lat="38.0420652" lon="12.8016226"><ele>272.0</ele><time>2026-05-06T07:35:41.565Z</time></trkpt><trkpt lat="38.041941" lon="12.8015467"><ele>273.0</ele><time>2026-05-06T07:35:42.564Z</time></trkpt><trkpt lat="38.0418167" lon="12.8014665"><ele>274.0</ele><time>2026-05-06T07:35:43.564Z</time></trkpt><trkpt lat="38.0416954" lon="12.8013874"><ele>273.25</ele><time>2026-05-06T07:35:44.564Z</time></trkpt><trkpt lat="38.0415822" lon="12.8013124"><ele>272.5</ele><time>2026-05-06T07:35:45.564Z</time></trkpt><trkpt lat="38.0414719" lon="12.8012402"><ele>271.75</ele><time>2026-05-06T07:35:46.564Z</time></trkpt><trkpt lat="38.0413667" lon="12.8011713"><ele>271.0</ele><time>2026-05-06T07:35:47.565Z</time></trkpt><trkpt lat="38.0412587" lon="12.8011055"><ele>271.0</ele><time>2026-05-06T07:35:48.564Z</time></trkpt><trkpt lat="38.041147" lon="12.8010333"><ele>271.0</ele><time>2026-05-06T07:35:49.564Z</time></trkpt><trkpt lat="38.0410327" lon="12.8009561"><ele>271.0</ele><time>2026-05-06T07:35:50.564Z</time></trkpt><trkpt lat="38.0409139" lon="12.8008762"><ele>271.0</ele><time>2026-05-06T07:35:51.564Z</time></trkpt><trkpt lat="38.0407903" lon="12.8007961"><ele>273.0</ele><time>2026-05-06T07:35:52.563Z</time></trkpt><trkpt lat="38.0406629" lon="12.8007152"><ele>275.0</ele><time>2026-05-06T07:35:53.563Z</time></trkpt><trkpt lat="38.0405339" lon="12.8006325"><ele>277.0</ele><time>2026-05-06T07:35:54.563Z</time></trkpt><trkpt lat="38.0404055" lon="12.8005479"><ele>279.0</ele><time>2026-05-06T07:35:55.563Z</time></trkpt><trkpt lat="38.0402774" lon="12.800458"><ele>279.0</ele><time>2026-05-06T07:35:56.565Z</time></trkpt><trkpt lat="38.0401477" lon="12.8003714"><ele>279.0</ele><time>2026-05-06T07:35:57.564Z</time></trkpt><trkpt lat="38.0400182" lon="12.8002896"><ele>279.0</ele><time>2026-05-06T07:35:58.563Z</time></trkpt><trkpt lat="38.0398933" lon="12.80021"><ele>279.0</ele><time>2026-05-06T07:35:59.563Z</time></trkpt><trkpt lat="38.0397717" lon="12.8001267"><ele>281.59999999999997</ele><time>2026-05-06T07:36:00.564Z</time></trkpt><trkpt lat="38.0396617" lon="12.8000533"><ele>284.2</ele><time>2026-05-06T07:36:01.564Z</time></trkpt><trkpt lat="38.039565" lon="12.7999883"><ele>286.79999999999995</ele><time>2026-05-06T07:36:02.564Z</time></trkpt><trkpt lat="38.0394783" lon="12.79993"><ele>289.4</ele><time>2026-05-06T07:36:03.565Z</time></trkpt><trkpt lat="38.0393983" lon="12.799875"><ele>292.0</ele><time>2026-05-06T07:36:04.563Z</time></trkpt><trkpt lat="38.0393217" lon="12.799815"><ele>292.0</ele><time>2026-05-06T07:36:05.568Z</time></trkpt><trkpt lat="38.0392533" lon="12.799735"><ele>292.0</ele><time>2026-05-06T07:36:06.564Z</time></trkpt><trkpt lat="38.0391883" lon="12.7996417"><ele>292.0</ele><time>2026-05-06T07:36:07.565Z</time></trkpt><trkpt lat="38.03912" lon="12.79954"><ele>292.0</ele><time>2026-05-06T07:36:08.565Z</time></trkpt><trkpt lat="38.0390467" lon="12.7994283"><ele>292.0</ele><time>2026-05-06T07:36:09.564Z</time></trkpt><trkpt lat="38.0389667" lon="12.7993167"><ele>291.5</ele><time>2026-05-06T07:36:10.564Z</time></trkpt><trkpt lat="38.0388867" lon="12.7991983"><ele>291.0</ele><time>2026-05-06T07:36:11.564Z</time></trkpt><trkpt lat="38.038805" lon="12.7990767"><ele>290.5</ele><time>2026-05-06T07:36:12.564Z</time></trkpt><trkpt lat="38.0387183" lon="12.7989533"><ele>290.0</ele><time>2026-05-06T07:36:13.565Z</time></trkpt><trkpt lat="38.0386333" lon="12.7988267"><ele>290.0</ele><time>2026-05-06T07:36:14.564Z</time></trkpt><trkpt lat="38.0385483" lon="12.7986983"><ele>290.0</ele><time>2026-05-06T07:36:15.564Z</time></trkpt><trkpt lat="38.0384633" lon="12.7985667"><ele>290.0</ele><time>2026-05-06T07:36:16.564Z</time></trkpt><trkpt lat="38.0383783" lon="12.79843"><ele>290.0</ele><time>2026-05-06T07:36:17.564Z</time></trkpt><trkpt lat="38.0382917" lon="12.7982933"><ele>288.75</ele><time>2026-05-06T07:36:18.564Z</time></trkpt><trkpt lat="38.038205" lon="12.7981567"><ele>287.5</ele><time>2026-05-06T07:36:19.564Z</time></trkpt><trkpt lat="38.03812" lon="12.7980217"><ele>286.25</ele><time>2026-05-06T07:36:20.565Z</time></trkpt><trkpt lat="38.0380483" lon="12.7978883"><ele>285.0</ele><time>2026-05-06T07:36:21.564Z</time></trkpt><trkpt lat="38.037985" lon="12.7977667"><ele>285.6</ele><time>2026-05-06T07:36:22.565Z</time></trkpt><trkpt lat="38.0379233" lon="12.7976517"><ele>286.2</ele><time>2026-05-06T07:36:23.563Z</time></trkpt><trkpt lat="38.0378683" lon="12.7975467"><ele>286.8</ele><time>2026-05-06T07:36:24.564Z</time></trkpt><trkpt lat="38.03782" lon="12.7974583"><ele>287.4</ele><time>2026-05-06T07:36:25.566Z</time></trkpt><trkpt lat="38.0377833" lon="12.7973933"><ele>288.0</ele><time>2026-05-06T07:36:26.564Z</time></trkpt><trkpt lat="38.03772" lon="12.7972733"><ele>288.0</ele><time>2026-05-06T07:36:28.564Z</time></trkpt><trkpt lat="38.03768" lon="12.7971983"><ele>288.0</ele><time>2026-05-06T07:36:29.564Z</time></trkpt><trkpt lat="38.037635" lon="12.7971117"><ele>288.0</ele><time>2026-05-06T07:36:30.564Z</time></trkpt><trkpt lat="38.0375817" lon="12.7970167"><ele>288.0</ele><time>2026-05-06T07:36:31.563Z</time></trkpt><trkpt lat="38.0375217" lon="12.7969083"><ele>288.0</ele><time>2026-05-06T07:36:32.563Z</time></trkpt><trkpt lat="38.0374633" lon="12.796795"><ele>288.0</ele><time>2026-05-06T07:36:33.564Z</time></trkpt><trkpt lat="38.0374067" lon="12.796695"><ele>288.0</ele><time>2026-05-06T07:36:34.563Z</time></trkpt><trkpt lat="38.0373483" lon="12.7966"><ele>288.0</ele><time>2026-05-06T07:36:35.564Z</time></trkpt><trkpt lat="38.0373" lon="12.7965117"><ele>288.0</ele><time>2026-05-06T07:36:36.563Z</time></trkpt><trkpt lat="38.03726" lon="12.7964"><ele>288.0</ele><time>2026-05-06T07:36:38.565Z</time></trkpt><trkpt lat="38.0372883" lon="12.7962933"><ele>288.0</ele><time>2026-05-06T07:36:41.565Z</time></trkpt><trkpt lat="38.03739" lon="12.7962933"><ele>288.0</ele><time>2026-05-06T07:36:44.564Z</time></trkpt><trkpt lat="38.0374983" lon="12.7963333"><ele>288.0</ele><time>2026-05-06T07:36:46.564Z</time></trkpt><trkpt lat="38.0376117" lon="12.7963567"><ele>288.0</ele><time>2026-05-06T07:36:48.562Z</time></trkpt><trkpt lat="38.0377417" lon="12.796375"><ele>288.8333333333333</ele><time>2026-05-06T07:36:50.564Z</time></trkpt><trkpt lat="38.037815" lon="12.7964017"><ele>289.6666666666667</ele><time>2026-05-06T07:36:51.563Z</time></trkpt><trkpt lat="38.0378883" lon="12.79644"><ele>290.5</ele><time>2026-05-06T07:36:52.565Z</time></trkpt><trkpt lat="38.03796" lon="12.7964783"><ele>291.33333333333337</ele><time>2026-05-06T07:36:53.565Z</time></trkpt><trkpt lat="38.0380317" lon="12.796505"><ele>292.1666666666667</ele><time>2026-05-06T07:36:54.563Z</time></trkpt><trkpt lat="38.0381083" lon="12.79653"><ele>293.0</ele><time>2026-05-06T07:36:55.563Z</time></trkpt><trkpt lat="38.0381867" lon="12.7965533"><ele>293.0</ele><time>2026-05-06T07:36:56.564Z</time></trkpt><trkpt lat="38.0382617" lon="12.79657"><ele>293.0</ele><time>2026-05-06T07:36:57.564Z</time></trkpt><trkpt lat="38.03834" lon="12.7965883"><ele>293.0</ele><time>2026-05-06T07:36:58.563Z</time></trkpt><trkpt lat="38.038415" lon="12.796605"><ele>293.0</ele><time>2026-05-06T07:36:59.564Z</time></trkpt><trkpt lat="38.0384917" lon="12.796625"><ele>293.0</ele><time>2026-05-06T07:37:00.563Z</time></trkpt><trkpt lat="38.0385717" lon="12.7966483"><ele>293.0</ele><time>2026-05-06T07:37:01.564Z</time></trkpt><trkpt lat="38.03865" lon="12.79667"><ele>294.83333333333337</ele><time>2026-05-06T07:37:02.564Z</time></trkpt><trkpt lat="38.0387267" lon="12.79669"><ele>296.6666666666667</ele><time>2026-05-06T07:37:03.565Z</time></trkpt><trkpt lat="38.038805" lon="12.7967183"><ele>298.5</ele><time>2026-05-06T07:37:04.567Z</time></trkpt><trkpt lat="38.0388783" lon="12.79675"><ele>300.3333333333333</ele><time>2026-05-06T07:37:05.565Z</time></trkpt><trkpt lat="38.0389533" lon="12.79678"><ele>302.16666666666663</ele><time>2026-05-06T07:37:06.565Z</time></trkpt><trkpt lat="38.0390317" lon="12.7968067"><ele>304.0</ele><time>2026-05-06T07:37:07.567Z</time></trkpt><trkpt lat="38.0391167" lon="12.7968267"><ele>304.66666666666663</ele><time>2026-05-06T07:37:08.566Z</time></trkpt><trkpt lat="38.039205" lon="12.7968417"><ele>305.3333333333333</ele><time>2026-05-06T07:37:09.566Z</time></trkpt><trkpt lat="38.0392917" lon="12.79685"><ele>306.0</ele><time>2026-05-06T07:37:10.565Z</time></trkpt><trkpt lat="38.039365" lon="12.7968717"><ele>306.6666666666667</ele><time>2026-05-06T07:37:11.565Z</time></trkpt><trkpt lat="38.0394433" lon="12.7969033"><ele>307.33333333333337</ele><time>2026-05-06T07:37:12.565Z</time></trkpt><trkpt lat="38.0395283" lon="12.796925"><ele>308.0</ele><time>2026-05-06T07:37:13.565Z</time></trkpt><trkpt lat="38.03961" lon="12.7969483"><ele>308.0</ele><time>2026-05-06T07:37:14.566Z</time></trkpt><trkpt lat="38.03969" lon="12.7969683"><ele>308.0</ele><time>2026-05-06T07:37:15.564Z</time></trkpt><trkpt lat="38.0397733" lon="12.7969917"><ele>308.0</ele><time>2026-05-06T07:37:16.565Z</time></trkpt><trkpt lat="38.039855" lon="12.7970133"><ele>308.0</ele><time>2026-05-06T07:37:17.565Z</time></trkpt><trkpt lat="38.03994" lon="12.7970317"><ele>308.0</ele><time>2026-05-06T07:37:18.565Z</time></trkpt><trkpt lat="38.040025" lon="12.7970467"><ele>308.0</ele><time>2026-05-06T07:37:19.566Z</time></trkpt><trkpt lat="38.0401083" lon="12.7970667"><ele>309.1666666666667</ele><time>2026-05-06T07:37:20.565Z</time></trkpt><trkpt lat="38.0401933" lon="12.7970917"><ele>310.33333333333337</ele><time>2026-05-06T07:37:21.565Z</time></trkpt><trkpt lat="38.04028" lon="12.79711"><ele>311.5</ele><time>2026-05-06T07:37:22.565Z</time></trkpt><trkpt lat="38.0403633" lon="12.7971333"><ele>312.6666666666667</ele><time>2026-05-06T07:37:23.564Z</time></trkpt><trkpt lat="38.0404433" lon="12.7971683"><ele>313.8333333333333</ele><time>2026-05-06T07:37:24.565Z</time></trkpt><trkpt lat="38.0405267" lon="12.797205"><ele>315.0</ele><time>2026-05-06T07:37:25.565Z</time></trkpt><trkpt lat="38.040615" lon="12.79723"><ele>315.0</ele><time>2026-05-06T07:37:26.565Z</time></trkpt><trkpt lat="38.0407083" lon="12.79725"><ele>315.0</ele><time>2026-05-06T07:37:27.564Z</time></trkpt><trkpt lat="38.0408017" lon="12.7972717"><ele>315.0</ele><time>2026-05-06T07:37:28.565Z</time></trkpt><trkpt lat="38.040895" lon="12.797305"><ele>315.0</ele><time>2026-05-06T07:37:29.563Z</time></trkpt><trkpt lat="38.04099" lon="12.797345"><ele>315.0</ele><time>2026-05-06T07:37:30.564Z</time></trkpt><trkpt lat="38.0410833" lon="12.7973883"><ele>316.6</ele><time>2026-05-06T07:37:31.565Z</time></trkpt><trkpt lat="38.0411817" lon="12.7974167"><ele>318.2</ele><time>2026-05-06T07:37:32.565Z</time></trkpt><trkpt lat="38.0412817" lon="12.7974367"><ele>319.79999999999995</ele><time>2026-05-06T07:37:33.565Z</time></trkpt><trkpt lat="38.041385" lon="12.7974483"><ele>321.4</ele><time>2026-05-06T07:37:34.565Z</time></trkpt><trkpt lat="38.041485" lon="12.79746"><ele>323.0</ele><time>2026-05-06T07:37:35.564Z</time></trkpt><trkpt lat="38.041585" lon="12.79747"><ele>324.79999999999995</ele><time>2026-05-06T07:37:36.564Z</time></trkpt><trkpt lat="38.0416867" lon="12.79748"><ele>326.6</ele><time>2026-05-06T07:37:37.564Z</time></trkpt><trkpt lat="38.0417917" lon="12.79748"><ele>328.4</ele><time>2026-05-06T07:37:38.565Z</time></trkpt><trkpt lat="38.0418983" lon="12.7974683"><ele>330.20000000000005</ele><time>2026-05-06T07:37:39.565Z</time></trkpt><trkpt lat="38.0419983" lon="12.79745"><ele>332.0</ele><time>2026-05-06T07:37:40.563Z</time></trkpt><trkpt lat="38.042085" lon="12.7974317"><ele>332.0</ele><time>2026-05-06T07:37:41.566Z</time></trkpt><trkpt lat="38.0421717" lon="12.7974083"><ele>332.0</ele><time>2026-05-06T07:37:42.564Z</time></trkpt><trkpt lat="38.04226" lon="12.7973817"><ele>332.0</ele><time>2026-05-06T07:37:43.566Z</time></trkpt><trkpt lat="38.04235" lon="12.7973517"><ele>332.0</ele><time>2026-05-06T07:37:44.564Z</time></trkpt><trkpt lat="38.0424283" lon="12.797325"><ele>332.0</ele><time>2026-05-06T07:37:45.564Z</time></trkpt><trkpt lat="38.0425017" lon="12.7972967"><ele>332.0</ele><time>2026-05-06T07:37:46.565Z</time></trkpt><trkpt lat="38.0425783" lon="12.7972717"><ele>331.7142857142857</ele><time>2026-05-06T07:37:47.564Z</time></trkpt><trkpt lat="38.0426583" lon="12.7972467"><ele>331.42857142857144</ele><time>2026-05-06T07:37:48.565Z</time></trkpt><trkpt lat="38.04273" lon="12.79722"><ele>331.14285714285717</ele><time>2026-05-06T07:37:49.564Z</time></trkpt><trkpt lat="38.042795" lon="12.7971983"><ele>330.8571428571429</ele><time>2026-05-06T07:37:50.565Z</time></trkpt><trkpt lat="38.0428583" lon="12.7971733"><ele>330.57142857142856</ele><time>2026-05-06T07:37:51.564Z</time></trkpt><trkpt lat="38.0429267" lon="12.79715"><ele>330.28571428571433</ele><time>2026-05-06T07:37:52.564Z</time></trkpt><trkpt lat="38.0430083" lon="12.7971233"><ele>330.0</ele><time>2026-05-06T07:37:53.565Z</time></trkpt><trkpt lat="38.0430983" lon="12.797095"><ele>330.0</ele><time>2026-05-06T07:37:54.563Z</time></trkpt><trkpt lat="38.0431967" lon="12.7970667"><ele>330.0</ele><time>2026-05-06T07:37:55.565Z</time></trkpt><trkpt lat="38.0432983" lon="12.797045"><ele>330.0</ele><time>2026-05-06T07:37:56.565Z</time></trkpt><trkpt lat="38.043405" lon="12.79702"><ele>330.0</ele><time>2026-05-06T07:37:57.564Z</time></trkpt><trkpt lat="38.04351" lon="12.7969817"><ele>330.0</ele><time>2026-05-06T07:37:58.564Z</time></trkpt><trkpt lat="38.0436133" lon="12.7969317"><ele>329.5</ele><time>2026-05-06T07:37:59.564Z</time></trkpt><trkpt lat="38.0437183" lon="12.7968783"><ele>329.0</ele><time>2026-05-06T07:38:00.564Z</time></trkpt><trkpt lat="38.0438267" lon="12.79683"><ele>328.5</ele><time>2026-05-06T07:38:01.564Z</time></trkpt><trkpt lat="38.0439367" lon="12.7967917"><ele>328.0</ele><time>2026-05-06T07:38:02.566Z</time></trkpt><trkpt lat="38.0440483" lon="12.7967617"><ele>330.59999999999997</ele><time>2026-05-06T07:38:03.565Z</time></trkpt><trkpt lat="38.0441617" lon="12.7967383"><ele>333.2</ele><time>2026-05-06T07:38:04.564Z</time></trkpt><trkpt lat="38.0442733" lon="12.7967267"><ele>335.8</ele><time>2026-05-06T07:38:05.565Z</time></trkpt><trkpt lat="38.0443817" lon="12.79672"><ele>338.4</ele><time>2026-05-06T07:38:06.565Z</time></trkpt><trkpt lat="38.044495" lon="12.79672"><ele>341.0</ele><time>2026-05-06T07:38:07.565Z</time></trkpt><trkpt lat="38.04462" lon="12.7967233"><ele>341.0</ele><time>2026-05-06T07:38:08.565Z</time></trkpt><trkpt lat="38.0447467" lon="12.7967233"><ele>341.0</ele><time>2026-05-06T07:38:09.564Z</time></trkpt><trkpt lat="38.0448567" lon="12.79671"><ele>341.0</ele><time>2026-05-06T07:38:10.564Z</time></trkpt><trkpt lat="38.0449667" lon="12.796695"><ele>341.0</ele><time>2026-05-06T07:38:11.563Z</time></trkpt><trkpt lat="38.0450883" lon="12.7967117"><ele>342.4</ele><time>2026-05-06T07:38:12.564Z</time></trkpt><trkpt lat="38.0452167" lon="12.7967383"><ele>343.8</ele><time>2026-05-06T07:38:13.565Z</time></trkpt><trkpt lat="38.0453417" lon="12.7967517"><ele>345.2</ele><time>2026-05-06T07:38:14.565Z</time></trkpt><trkpt lat="38.0454433" lon="12.79676"><ele>346.59999999999997</ele><time>2026-05-06T07:38:15.565Z</time></trkpt><trkpt lat="38.0455317" lon="12.7967817"><ele>348.0</ele><time>2026-05-06T07:38:16.564Z</time></trkpt><trkpt lat="38.0456233" lon="12.7968083"><ele>348.1666666666667</ele><time>2026-05-06T07:38:17.565Z</time></trkpt><trkpt lat="38.0457167" lon="12.7968383"><ele>348.3333333333333</ele><time>2026-05-06T07:38:18.565Z</time></trkpt><trkpt lat="38.0457983" lon="12.79687"><ele>348.5</ele><time>2026-05-06T07:38:19.565Z</time></trkpt><trkpt lat="38.0458733" lon="12.7968983"><ele>348.66666666666663</ele><time>2026-05-06T07:38:20.565Z</time></trkpt><trkpt lat="38.0459567" lon="12.7969183"><ele>348.8333333333333</ele><time>2026-05-06T07:38:21.564Z</time></trkpt><trkpt lat="38.046045" lon="12.7969317"><ele>349.0</ele><time>2026-05-06T07:38:22.565Z</time></trkpt><trkpt lat="38.0461367" lon="12.796935"><ele>349.0</ele><time>2026-05-06T07:38:23.565Z</time></trkpt><trkpt lat="38.0462333" lon="12.7969333"><ele>349.0</ele><time>2026-05-06T07:38:24.565Z</time></trkpt><trkpt lat="38.0463283" lon="12.7969367"><ele>349.0</ele><time>2026-05-06T07:38:25.565Z</time></trkpt><trkpt lat="38.0464217" lon="12.796945"><ele>349.0</ele><time>2026-05-06T07:38:26.566Z</time></trkpt><trkpt lat="38.046515" lon="12.7969567"><ele>349.0</ele><time>2026-05-06T07:38:27.564Z</time></trkpt><trkpt lat="38.0466083" lon="12.7969583"><ele>350.6</ele><time>2026-05-06T07:38:28.565Z</time></trkpt><trkpt lat="38.0467033" lon="12.79695"><ele>352.2</ele><time>2026-05-06T07:38:29.564Z</time></trkpt><trkpt lat="38.0467983" lon="12.796925"><ele>353.8</ele><time>2026-05-06T07:38:30.565Z</time></trkpt><trkpt lat="38.0468867" lon="12.7968783"><ele>355.40000000000003</ele><time>2026-05-06T07:38:31.565Z</time></trkpt><trkpt lat="38.0469683" lon="12.7968167"><ele>357.0</ele><time>2026-05-06T07:38:32.564Z</time></trkpt><trkpt lat="38.0470467" lon="12.7967517"><ele>359.0</ele><time>2026-05-06T07:38:33.564Z</time></trkpt><trkpt lat="38.0471267" lon="12.796685"><ele>361.0</ele><time>2026-05-06T07:38:34.563Z</time></trkpt><trkpt lat="38.0472033" lon="12.7966133"><ele>363.0</ele><time>2026-05-06T07:38:35.565Z</time></trkpt><trkpt lat="38.0472783" lon="12.79654"><ele>365.0</ele><time>2026-05-06T07:38:36.564Z</time></trkpt><trkpt lat="38.0473533" lon="12.796465"><ele>367.0</ele><time>2026-05-06T07:38:37.566Z</time></trkpt><trkpt lat="38.0474383" lon="12.7963967"><ele>368.6</ele><time>2026-05-06T07:38:38.564Z</time></trkpt><trkpt lat="38.04753" lon="12.7963383"><ele>370.20000000000005</ele><time>2026-05-06T07:38:39.565Z</time></trkpt><trkpt lat="38.0476283" lon="12.7962883"><ele>371.8</ele><time>2026-05-06T07:38:40.564Z</time></trkpt><trkpt lat="38.04773" lon="12.7962467"><ele>373.4</ele><time>2026-05-06T07:38:41.565Z</time></trkpt><trkpt lat="38.0478267" lon="12.7962167"><ele>375.0</ele><time>2026-05-06T07:38:42.565Z</time></trkpt><trkpt lat="38.0479233" lon="12.7962083"><ele>375.0</ele><time>2026-05-06T07:38:43.563Z</time></trkpt><trkpt lat="38.0480233" lon="12.796225"><ele>375.0</ele><time>2026-05-06T07:38:44.565Z</time></trkpt><trkpt lat="38.0481183" lon="12.79626"><ele>375.0</ele><time>2026-05-06T07:38:45.564Z</time></trkpt><trkpt lat="38.048215" lon="12.79629"><ele>375.0</ele><time>2026-05-06T07:38:46.564Z</time></trkpt><trkpt lat="38.048315" lon="12.7962967"><ele>375.0</ele><time>2026-05-06T07:38:47.565Z</time></trkpt><trkpt lat="38.048415" lon="12.7963083"><ele>376.8</ele><time>2026-05-06T07:38:48.565Z</time></trkpt><trkpt lat="38.0485033" lon="12.796345"><ele>378.6</ele><time>2026-05-06T07:38:49.564Z</time></trkpt><trkpt lat="38.0485817" lon="12.7964033"><ele>380.4</ele><time>2026-05-06T07:38:50.565Z</time></trkpt><trkpt lat="38.0486667" lon="12.7964583"><ele>382.2</ele><time>2026-05-06T07:38:51.563Z</time></trkpt><trkpt lat="38.048755" lon="12.7965117"><ele>384.0</ele><time>2026-05-06T07:38:52.565Z</time></trkpt><trkpt lat="38.048835" lon="12.7965717"><ele>384.0</ele><time>2026-05-06T07:38:53.565Z</time></trkpt><trkpt lat="38.0489183" lon="12.7966233"><ele>384.0</ele><time>2026-05-06T07:38:54.567Z</time></trkpt><trkpt lat="38.0490033" lon="12.7966783"><ele>384.0</ele><time>2026-05-06T07:38:55.564Z</time></trkpt><trkpt lat="38.0490867" lon="12.7967367"><ele>384.0</ele><time>2026-05-06T07:38:56.564Z</time></trkpt><trkpt lat="38.0491733" lon="12.796795"><ele>384.0</ele><time>2026-05-06T07:38:57.563Z</time></trkpt><trkpt lat="38.0492633" lon="12.7968467"><ele>385.4</ele><time>2026-05-06T07:38:58.563Z</time></trkpt><trkpt lat="38.04935" lon="12.79689"><ele>386.79999999999995</ele><time>2026-05-06T07:38:59.564Z</time></trkpt><trkpt lat="38.0494383" lon="12.7969283"><ele>388.20000000000005</ele><time>2026-05-06T07:39:00.564Z</time></trkpt><trkpt lat="38.049525" lon="12.7969783"><ele>389.6</ele><time>2026-05-06T07:39:01.565Z</time></trkpt><trkpt lat="38.049615" lon="12.7970267"><ele>391.0</ele><time>2026-05-06T07:39:02.564Z</time></trkpt><trkpt lat="38.0497033" lon="12.79707"><ele>391.0</ele><time>2026-05-06T07:39:03.565Z</time></trkpt><trkpt lat="38.0497883" lon="12.7971183"><ele>391.0</ele><time>2026-05-06T07:39:04.565Z</time></trkpt><trkpt lat="38.049875" lon="12.7971733"><ele>391.0</ele><time>2026-05-06T07:39:05.564Z</time></trkpt><trkpt lat="38.0499717" lon="12.7972333"><ele>391.0</ele><time>2026-05-06T07:39:06.564Z</time></trkpt><trkpt lat="38.05007" lon="12.7972933"><ele>391.0</ele><time>2026-05-06T07:39:07.563Z</time></trkpt><trkpt lat="38.0501633" lon="12.7973467"><ele>392.50000000000006</ele><time>2026-05-06T07:39:08.565Z</time></trkpt><trkpt lat="38.050235" lon="12.7974"><ele>394.0</ele><time>2026-05-06T07:39:09.565Z</time></trkpt><trkpt lat="38.0502983" lon="12.79745"><ele>395.5</ele><time>2026-05-06T07:39:10.565Z</time></trkpt><trkpt lat="38.05036" lon="12.7975033"><ele>397.0</ele><time>2026-05-06T07:39:11.565Z</time></trkpt><trkpt lat="38.0504183" lon="12.7975683"><ele>398.50000000000006</ele><time>2026-05-06T07:39:12.564Z</time></trkpt><trkpt lat="38.0504783" lon="12.7976333"><ele>400.0</ele><time>2026-05-06T07:39:13.563Z</time></trkpt><trkpt lat="38.05053" lon="12.7977067"><ele>400.00000000000006</ele><time>2026-05-06T07:39:14.565Z</time></trkpt><trkpt lat="38.050575" lon="12.797795"><ele>400.0</ele><time>2026-05-06T07:39:15.564Z</time></trkpt><trkpt lat="38.0506191" lon="12.7978834"><ele>400.0</ele><time>2026-05-06T07:39:16.563Z</time></trkpt><trkpt lat="38.0506576" lon="12.7979786"><ele>400.0</ele><time>2026-05-06T07:39:17.563Z</time></trkpt><trkpt lat="38.0506843" lon="12.7980803"><ele>400.00000000000006</ele><time>2026-05-06T07:39:18.564Z</time></trkpt><trkpt lat="38.0507035" lon="12.7981859"><ele>400.0</ele><time>2026-05-06T07:39:19.565Z</time></trkpt><trkpt lat="38.0507165" lon="12.7982862"><ele>400.00000000000006</ele><time>2026-05-06T07:39:20.564Z</time></trkpt><trkpt lat="38.0507268" lon="12.7983889"><ele>400.0</ele><time>2026-05-06T07:39:21.563Z</time></trkpt><trkpt lat="38.0507319" lon="12.798497"><ele>400.0</ele><time>2026-05-06T07:39:22.565Z</time></trkpt><trkpt lat="38.0507337" lon="12.7986064"><ele>400.0</ele><time>2026-05-06T07:39:23.565Z</time></trkpt><trkpt lat="38.0507267" lon="12.7987206"><ele>400.00000000000006</ele><time>2026-05-06T07:39:24.565Z</time></trkpt><trkpt lat="38.0507172" lon="12.7988334"><ele>400.0</ele><time>2026-05-06T07:39:25.565Z</time></trkpt><trkpt lat="38.050703" lon="12.7989456"><ele>400.1666666666667</ele><time>2026-05-06T07:39:26.564Z</time></trkpt><trkpt lat="38.0506887" lon="12.7990578"><ele>400.33333333333337</ele><time>2026-05-06T07:39:27.565Z</time></trkpt><trkpt lat="38.0506772" lon="12.7991697"><ele>400.5</ele><time>2026-05-06T07:39:28.564Z</time></trkpt><trkpt lat="38.0506669" lon="12.7992803"><ele>400.66666666666663</ele><time>2026-05-06T07:39:29.564Z</time></trkpt><trkpt lat="38.0506535" lon="12.7993909"><ele>400.8333333333333</ele><time>2026-05-06T07:39:30.563Z</time></trkpt><trkpt lat="38.0506341" lon="12.7995046"><ele>401.0</ele><time>2026-05-06T07:39:31.565Z</time></trkpt><trkpt lat="38.0506156" lon="12.7996217"><ele>402.20000000000005</ele><time>2026-05-06T07:39:32.565Z</time></trkpt><trkpt lat="38.0505961" lon="12.7997406"><ele>403.40000000000003</ele><time>2026-05-06T07:39:33.563Z</time></trkpt><trkpt lat="38.050566" lon="12.7998622"><ele>404.6</ele><time>2026-05-06T07:39:34.564Z</time></trkpt><trkpt lat="38.0505281" lon="12.7999868"><ele>405.8</ele><time>2026-05-06T07:39:35.565Z</time></trkpt><trkpt lat="38.0504868" lon="12.8001147"><ele>407.0</ele><time>2026-05-06T07:39:36.565Z</time></trkpt><trkpt lat="38.0504438" lon="12.8002475"><ele>408.8</ele><time>2026-05-06T07:39:37.564Z</time></trkpt><trkpt lat="38.0504032" lon="12.8003802"><ele>410.6</ele><time>2026-05-06T07:39:38.565Z</time></trkpt><trkpt lat="38.0503662" lon="12.8005056"><ele>412.40000000000003</ele><time>2026-05-06T07:39:39.564Z</time></trkpt><trkpt lat="38.0503359" lon="12.8006094"><ele>414.20000000000005</ele><time>2026-05-06T07:39:40.563Z</time></trkpt><trkpt lat="38.0503162" lon="12.8006991"><ele>416.0</ele><time>2026-05-06T07:39:41.563Z</time></trkpt><trkpt lat="38.0503094" lon="12.8007911"><ele>415.99999999999994</ele><time>2026-05-06T07:39:42.564Z</time></trkpt><trkpt lat="38.0503194" lon="12.8008872"><ele>416.0</ele><time>2026-05-06T07:39:43.565Z</time></trkpt><trkpt lat="38.050348" lon="12.8009778"><ele>416.0</ele><time>2026-05-06T07:39:44.564Z</time></trkpt><trkpt lat="38.0503963" lon="12.8010578"><ele>416.0</ele><time>2026-05-06T07:39:45.564Z</time></trkpt><trkpt lat="38.0504578" lon="12.8011247"><ele>415.99999999999994</ele><time>2026-05-06T07:39:46.564Z</time></trkpt><trkpt lat="38.0505307" lon="12.8011788"><ele>416.0</ele><time>2026-05-06T07:39:47.564Z</time></trkpt><trkpt lat="38.0506065" lon="12.8012268"><ele>417.66666666666663</ele><time>2026-05-06T07:39:48.565Z</time></trkpt><trkpt lat="38.050684" lon="12.8012549"><ele>419.3333333333333</ele><time>2026-05-06T07:39:49.567Z</time></trkpt><trkpt lat="38.0507637" lon="12.8012676"><ele>421.0</ele><time>2026-05-06T07:39:50.565Z</time></trkpt><trkpt lat="38.0508521" lon="12.8012479"><ele>422.66666666666663</ele><time>2026-05-06T07:39:51.563Z</time></trkpt><trkpt lat="38.0509407" lon="12.8012076"><ele>424.3333333333333</ele><time>2026-05-06T07:39:52.564Z</time></trkpt><trkpt lat="38.0510221" lon="12.8011348"><ele>426.0</ele><time>2026-05-06T07:39:53.565Z</time></trkpt><trkpt lat="38.0510957" lon="12.8010618"><ele>428.8333333333333</ele><time>2026-05-06T07:39:54.565Z</time></trkpt><trkpt lat="38.0511654" lon="12.8009913"><ele>431.66666666666663</ele><time>2026-05-06T07:39:55.565Z</time></trkpt><trkpt lat="38.0512334" lon="12.8009207"><ele>434.5</ele><time>2026-05-06T07:39:56.565Z</time></trkpt><trkpt lat="38.0513001" lon="12.8008431"><ele>437.3333333333333</ele><time>2026-05-06T07:39:57.564Z</time></trkpt><trkpt lat="38.0513625" lon="12.8007553"><ele>440.16666666666663</ele><time>2026-05-06T07:39:58.565Z</time></trkpt><trkpt lat="38.0514191" lon="12.8006687"><ele>443.0</ele><time>2026-05-06T07:39:59.565Z</time></trkpt><trkpt lat="38.0514776" lon="12.8005822"><ele>442.99999999999994</ele><time>2026-05-06T07:40:00.563Z</time></trkpt><trkpt lat="38.0515406" lon="12.8005049"><ele>443.0</ele><time>2026-05-06T07:40:01.564Z</time></trkpt><trkpt lat="38.0516045" lon="12.8004333"><ele>443.0</ele><time>2026-05-06T07:40:02.564Z</time></trkpt><trkpt lat="38.0516702" lon="12.8003666"><ele>443.0</ele><time>2026-05-06T07:40:03.564Z</time></trkpt><trkpt lat="38.0517385" lon="12.8002922"><ele>442.99999999999994</ele><time>2026-05-06T07:40:04.565Z</time></trkpt><trkpt lat="38.0518077" lon="12.8002177"><ele>443.0</ele><time>2026-05-06T07:40:05.564Z</time></trkpt><trkpt lat="38.0518799" lon="12.8001392"><ele>444.2</ele><time>2026-05-06T07:40:06.564Z</time></trkpt><trkpt lat="38.0519547" lon="12.8000552"><ele>445.4</ele><time>2026-05-06T07:40:07.563Z</time></trkpt><trkpt lat="38.0520304" lon="12.7999676"><ele>446.59999999999997</ele><time>2026-05-06T07:40:08.564Z</time></trkpt><trkpt lat="38.0521042" lon="12.7998767"><ele>447.79999999999995</ele><time>2026-05-06T07:40:09.565Z</time></trkpt><trkpt lat="38.052175" lon="12.7997874"><ele>449.0</ele><time>2026-05-06T07:40:10.564Z</time></trkpt><trkpt lat="38.0522448" lon="12.7997028"><ele>449.0</ele><time>2026-05-06T07:40:11.564Z</time></trkpt><trkpt lat="38.0523126" lon="12.7996188"><ele>449.0</ele><time>2026-05-06T07:40:12.563Z</time></trkpt><trkpt lat="38.0523808" lon="12.7995323"><ele>449.0</ele><time>2026-05-06T07:40:13.564Z</time></trkpt><trkpt lat="38.0524497" lon="12.7994429"><ele>449.0</ele><time>2026-05-06T07:40:14.564Z</time></trkpt><trkpt lat="38.0525152" lon="12.7993526"><ele>449.0</ele><time>2026-05-06T07:40:15.565Z</time></trkpt><trkpt lat="38.0525771" lon="12.7992609"><ele>451.6</ele><time>2026-05-06T07:40:16.564Z</time></trkpt><trkpt lat="38.0526376" lon="12.79917"><ele>454.2</ele><time>2026-05-06T07:40:17.564Z</time></trkpt><trkpt lat="38.0526897" lon="12.7990915"><ele>456.80000000000007</ele><time>2026-05-06T07:40:18.564Z</time></trkpt><trkpt lat="38.0527326" lon="12.7990295"><ele>459.40000000000003</ele><time>2026-05-06T07:40:19.564Z</time></trkpt><trkpt lat="38.0528038" lon="12.7989419"><ele>462.0</ele><time>2026-05-06T07:40:21.564Z</time></trkpt><trkpt lat="38.0528885" lon="12.7988411"><ele>462.0</ele><time>2026-05-06T07:40:23.565Z</time></trkpt><trkpt lat="38.0529382" lon="12.7987847"><ele>462.0</ele><time>2026-05-06T07:40:24.564Z</time></trkpt><trkpt lat="38.0529952" lon="12.7987281"><ele>462.0</ele><time>2026-05-06T07:40:25.564Z</time></trkpt><trkpt lat="38.0530571" lon="12.7986796"><ele>462.0</ele><time>2026-05-06T07:40:26.566Z</time></trkpt><trkpt lat="38.0531238" lon="12.7986446"><ele>462.0</ele><time>2026-05-06T07:40:27.564Z</time></trkpt><trkpt lat="38.0531925" lon="12.7986174"><ele>462.0</ele><time>2026-05-06T07:40:28.564Z</time></trkpt><trkpt lat="38.0532636" lon="12.7985962"><ele>462.0</ele><time>2026-05-06T07:40:29.563Z</time></trkpt><trkpt lat="38.0533419" lon="12.798582"><ele>465.5</ele><time>2026-05-06T07:40:30.564Z</time></trkpt><trkpt lat="38.0534232" lon="12.7985678"><ele>469.0</ele><time>2026-05-06T07:40:31.565Z</time></trkpt><trkpt lat="38.053508" lon="12.7985608"><ele>472.5</ele><time>2026-05-06T07:40:32.565Z</time></trkpt><trkpt lat="38.0535941" lon="12.7985672"><ele>476.0</ele><time>2026-05-06T07:40:33.563Z</time></trkpt><trkpt lat="38.0536803" lon="12.7985839"><ele>479.5</ele><time>2026-05-06T07:40:34.564Z</time></trkpt><trkpt lat="38.0537649" lon="12.7986095"><ele>483.0</ele><time>2026-05-06T07:40:35.564Z</time></trkpt><trkpt lat="38.053851" lon="12.7986368"><ele>483.0</ele><time>2026-05-06T07:40:36.565Z</time></trkpt><trkpt lat="38.0539377" lon="12.7986572"><ele>483.0</ele><time>2026-05-06T07:40:37.564Z</time></trkpt><trkpt lat="38.0540213" lon="12.7986628"><ele>483.0</ele><time>2026-05-06T07:40:38.564Z</time></trkpt><trkpt lat="38.0541012" lon="12.7986407"><ele>483.0</ele><time>2026-05-06T07:40:39.565Z</time></trkpt><trkpt lat="38.0541789" lon="12.7986179"><ele>483.0</ele><time>2026-05-06T07:40:40.564Z</time></trkpt><trkpt lat="38.0542551" lon="12.7985734"><ele>483.0</ele><time>2026-05-06T07:40:41.564Z</time></trkpt><trkpt lat="38.0543326" lon="12.7985193"><ele>483.0</ele><time>2026-05-06T07:40:42.564Z</time></trkpt><trkpt lat="38.05441" lon="12.7984589"><ele>482.99999999999994</ele><time>2026-05-06T07:40:43.564Z</time></trkpt><trkpt lat="38.0544908" lon="12.7983999"><ele>482.99999999999994</ele><time>2026-05-06T07:40:44.565Z</time></trkpt><trkpt lat="38.0545742" lon="12.7983443"><ele>483.0</ele><time>2026-05-06T07:40:45.563Z</time></trkpt><trkpt lat="38.0546617" lon="12.7982934"><ele>483.0</ele><time>2026-05-06T07:40:46.565Z</time></trkpt><trkpt lat="38.0547499" lon="12.7982405"><ele>483.0</ele><time>2026-05-06T07:40:47.564Z</time></trkpt><trkpt lat="38.0548371" lon="12.7981857"><ele>483.0</ele><time>2026-05-06T07:40:48.563Z</time></trkpt><trkpt lat="38.0549189" lon="12.7981346"><ele>483.0</ele><time>2026-05-06T07:40:49.564Z</time></trkpt><trkpt lat="38.0549915" lon="12.7980957"><ele>483.0</ele><time>2026-05-06T07:40:50.565Z</time></trkpt><trkpt lat="38.0550628" lon="12.7980614"><ele>483.0</ele><time>2026-05-06T07:40:51.565Z</time></trkpt><trkpt lat="38.055135" lon="12.7980312"><ele>483.0</ele><time>2026-05-06T07:40:52.565Z</time></trkpt><trkpt lat="38.0552123" lon="12.7980049"><ele>484.1666666666667</ele><time>2026-05-06T07:40:53.565Z</time></trkpt><trkpt lat="38.0552959" lon="12.7979833"><ele>485.33333333333337</ele><time>2026-05-06T07:40:54.563Z</time></trkpt><trkpt lat="38.0553795" lon="12.7979635"><ele>486.5</ele><time>2026-05-06T07:40:55.565Z</time></trkpt><trkpt lat="38.0554646" lon="12.7979423"><ele>487.6666666666667</ele><time>2026-05-06T07:40:56.565Z</time></trkpt><trkpt lat="38.0555514" lon="12.797922"><ele>488.83333333333337</ele><time>2026-05-06T07:40:57.564Z</time></trkpt><trkpt lat="38.0556388" lon="12.7979014"><ele>490.0</ele><time>2026-05-06T07:40:58.563Z</time></trkpt><trkpt lat="38.0557296" lon="12.7978842"><ele>490.8</ele><time>2026-05-06T07:40:59.563Z</time></trkpt><trkpt lat="38.055823" lon="12.7978681"><ele>491.6</ele><time>2026-05-06T07:41:00.564Z</time></trkpt><trkpt lat="38.0559172" lon="12.7978558"><ele>492.4</ele><time>2026-05-06T07:41:01.564Z</time></trkpt><trkpt lat="38.0560061" lon="12.7978429"><ele>493.2</ele><time>2026-05-06T07:41:02.565Z</time></trkpt><trkpt lat="38.0560978" lon="12.7978292"><ele>494.0</ele><time>2026-05-06T07:41:03.564Z</time></trkpt><trkpt lat="38.0561893" lon="12.7978187"><ele>494.0</ele><time>2026-05-06T07:41:04.564Z</time></trkpt><trkpt lat="38.0562785" lon="12.7978132"><ele>494.0</ele><time>2026-05-06T07:41:05.564Z</time></trkpt><trkpt lat="38.0563655" lon="12.7978127"><ele>494.0</ele><time>2026-05-06T07:41:06.563Z</time></trkpt><trkpt lat="38.056456" lon="12.7978202"><ele>494.0</ele><time>2026-05-06T07:41:07.564Z</time></trkpt><trkpt lat="38.0565477" lon="12.797834"><ele>494.0</ele><time>2026-05-06T07:41:08.565Z</time></trkpt><trkpt lat="38.0566405" lon="12.7978458"><ele>495.16666666666663</ele><time>2026-05-06T07:41:09.564Z</time></trkpt><trkpt lat="38.0567319" lon="12.7978537"><ele>496.3333333333333</ele><time>2026-05-06T07:41:10.564Z</time></trkpt><trkpt lat="38.05682" lon="12.7978632"><ele>497.5</ele><time>2026-05-06T07:41:11.565Z</time></trkpt><trkpt lat="38.0569042" lon="12.7978831"><ele>498.66666666666663</ele><time>2026-05-06T07:41:12.563Z</time></trkpt><trkpt lat="38.0569912" lon="12.7979103"><ele>499.8333333333333</ele><time>2026-05-06T07:41:13.563Z</time></trkpt><trkpt lat="38.0570812" lon="12.7979272"><ele>501.0</ele><time>2026-05-06T07:41:14.565Z</time></trkpt><trkpt lat="38.0571717" lon="12.797932"><ele>501.0</ele><time>2026-05-06T07:41:15.564Z</time></trkpt><trkpt lat="38.057256" lon="12.7979247"><ele>501.0</ele><time>2026-05-06T07:41:16.563Z</time></trkpt><trkpt lat="38.0573412" lon="12.7979068"><ele>501.0</ele><time>2026-05-06T07:41:17.566Z</time></trkpt><trkpt lat="38.0574227" lon="12.7978817"><ele>501.0</ele><time>2026-05-06T07:41:18.564Z</time></trkpt><trkpt lat="38.0575019" lon="12.7978596"><ele>501.0</ele><time>2026-05-06T07:41:19.564Z</time></trkpt><trkpt lat="38.0575806" lon="12.7978408"><ele>501.0</ele><time>2026-05-06T07:41:20.566Z</time></trkpt><trkpt lat="38.0576558" lon="12.797821"><ele>498.6666666666667</ele><time>2026-05-06T07:41:21.565Z</time></trkpt><trkpt lat="38.0577309" lon="12.7978087"><ele>496.33333333333337</ele><time>2026-05-06T07:41:22.565Z</time></trkpt><trkpt lat="38.057812" lon="12.7978054"><ele>494.0</ele><time>2026-05-06T07:41:23.565Z</time></trkpt><trkpt lat="38.0578978" lon="12.7977981"><ele>491.6666666666667</ele><time>2026-05-06T07:41:24.563Z</time></trkpt><trkpt lat="38.0579865" lon="12.7977784"><ele>489.33333333333337</ele><time>2026-05-06T07:41:25.564Z</time></trkpt><trkpt lat="38.0580738" lon="12.7977542"><ele>487.0</ele><time>2026-05-06T07:41:26.563Z</time></trkpt><trkpt lat="38.0581605" lon="12.7977231"><ele>487.00000000000006</ele><time>2026-05-06T07:41:27.564Z</time></trkpt><trkpt lat="38.0582421" lon="12.797689"><ele>487.0</ele><time>2026-05-06T07:41:28.564Z</time></trkpt><trkpt lat="38.0583208" lon="12.797648"><ele>487.0</ele><time>2026-05-06T07:41:29.564Z</time></trkpt><trkpt lat="38.0584" lon="12.79761"><ele>487.0</ele><time>2026-05-06T07:41:30.564Z</time></trkpt><trkpt lat="38.0584777" lon="12.7975735"><ele>487.00000000000006</ele><time>2026-05-06T07:41:31.564Z</time></trkpt><trkpt lat="38.0585549" lon="12.7975374"><ele>487.0</ele><time>2026-05-06T07:41:32.565Z</time></trkpt><trkpt lat="38.0586347" lon="12.7974964"><ele>495.6666666666667</ele><time>2026-05-06T07:41:33.564Z</time></trkpt><trkpt lat="38.058714" lon="12.7974553"><ele>504.33333333333337</ele><time>2026-05-06T07:41:34.563Z</time></trkpt><trkpt lat="38.0587913" lon="12.7974158"><ele>513.0</ele><time>2026-05-06T07:41:35.565Z</time></trkpt><trkpt lat="38.0588637" lon="12.7973699"><ele>521.6666666666666</ele><time>2026-05-06T07:41:36.563Z</time></trkpt><trkpt lat="38.0589355" lon="12.7973198"><ele>530.3333333333333</ele><time>2026-05-06T07:41:37.564Z</time></trkpt><trkpt lat="38.059012" lon="12.7972755"><ele>539.0</ele><time>2026-05-06T07:41:38.565Z</time></trkpt><trkpt lat="38.0590927" lon="12.7972325"><ele>538.5</ele><time>2026-05-06T07:41:39.564Z</time></trkpt><trkpt lat="38.0591766" lon="12.7971903"><ele>538.0</ele><time>2026-05-06T07:41:40.565Z</time></trkpt><trkpt lat="38.0592645" lon="12.7971476"><ele>537.5</ele><time>2026-05-06T07:41:41.565Z</time></trkpt><trkpt lat="38.0593504" lon="12.7971112"><ele>537.0</ele><time>2026-05-06T07:41:42.564Z</time></trkpt><trkpt lat="38.0594314" lon="12.7970722"><ele>536.5</ele><time>2026-05-06T07:41:43.563Z</time></trkpt><trkpt lat="38.0595088" lon="12.7970306"><ele>536.0</ele><time>2026-05-06T07:41:44.564Z</time></trkpt><trkpt lat="38.0595832" lon="12.7969858"><ele>536.0</ele><time>2026-05-06T07:41:45.563Z</time></trkpt><trkpt lat="38.0596581" lon="12.796939"><ele>536.0</ele><time>2026-05-06T07:41:46.563Z</time></trkpt><trkpt lat="38.0597326" lon="12.7968941"><ele>536.0</ele><time>2026-05-06T07:41:47.563Z</time></trkpt><trkpt lat="38.0598095" lon="12.7968573"><ele>536.0</ele><time>2026-05-06T07:41:48.564Z</time></trkpt><trkpt lat="38.0598873" lon="12.7968191"><ele>536.0</ele><time>2026-05-06T07:41:49.563Z</time></trkpt><trkpt lat="38.0599688" lon="12.7967806"><ele>536.0</ele><time>2026-05-06T07:41:50.565Z</time></trkpt><trkpt lat="38.0600475" lon="12.7967379"><ele>538.8333333333333</ele><time>2026-05-06T07:41:51.563Z</time></trkpt><trkpt lat="38.0601225" lon="12.7966935"><ele>541.6666666666666</ele><time>2026-05-06T07:41:52.564Z</time></trkpt><trkpt lat="38.0601985" lon="12.7966512"><ele>544.5</ele><time>2026-05-06T07:41:53.563Z</time></trkpt><trkpt lat="38.0602776" lon="12.7966124"><ele>547.3333333333334</ele><time>2026-05-06T07:41:54.564Z</time></trkpt><trkpt lat="38.060355" lon="12.7965748"><ele>550.1666666666667</ele><time>2026-05-06T07:41:55.563Z</time></trkpt><trkpt lat="38.0604279" lon="12.7965402"><ele>553.0</ele><time>2026-05-06T07:41:56.564Z</time></trkpt><trkpt lat="38.0604931" lon="12.7965149"><ele>553.0</ele><time>2026-05-06T07:41:57.565Z</time></trkpt><trkpt lat="38.0605793" lon="12.7964818"><ele>553.0</ele><time>2026-05-06T07:41:59.564Z</time></trkpt><trkpt lat="38.0606405" lon="12.7964535"><ele>553.0</ele><time>2026-05-06T07:42:01.565Z</time></trkpt><trkpt lat="38.060699" lon="12.7963906"><ele>553.0</ele><time>2026-05-06T07:42:04.565Z</time></trkpt><trkpt lat="38.0608182" lon="12.7963217"><ele>553.0</ele><time>2026-05-06T07:42:25.564Z</time></trkpt><trkpt lat="38.0608836" lon="12.7962907"><ele>553.0</ele><time>2026-05-06T07:42:27.565Z</time></trkpt><trkpt lat="38.0609353" lon="12.7962131"><ele>551.3333333333334</ele><time>2026-05-06T07:43:43.564Z</time></trkpt><trkpt lat="38.0609601" lon="12.7961383"><ele>549.6666666666667</ele><time>2026-05-06T07:43:44.565Z</time></trkpt><trkpt lat="38.0609882" lon="12.7960378"><ele>548.0</ele><time>2026-05-06T07:43:46.565Z</time></trkpt><trkpt lat="38.0610567" lon="12.7959535"><ele>546.3333333333334</ele><time>2026-05-06T07:43:48.564Z</time></trkpt><trkpt lat="38.0611016" lon="12.7958858"><ele>544.6666666666666</ele><time>2026-05-06T07:43:49.565Z</time></trkpt><trkpt lat="38.0611485" lon="12.7958124"><ele>543.0</ele><time>2026-05-06T07:43:50.565Z</time></trkpt><trkpt lat="38.0611919" lon="12.7957324"><ele>547.8333333333334</ele><time>2026-05-06T07:43:51.563Z</time></trkpt><trkpt lat="38.0612267" lon="12.7956383"><ele>552.6666666666666</ele><time>2026-05-06T07:43:52.564Z</time></trkpt><trkpt lat="38.0612533" lon="12.7955433"><ele>557.5</ele><time>2026-05-06T07:43:53.564Z</time></trkpt><trkpt lat="38.0612733" lon="12.7954467"><ele>562.3333333333333</ele><time>2026-05-06T07:43:54.564Z</time></trkpt><trkpt lat="38.0612833" lon="12.7953433"><ele>567.1666666666666</ele><time>2026-05-06T07:43:55.565Z</time></trkpt><trkpt lat="38.0612917" lon="12.795225"><ele>572.0</ele><time>2026-05-06T07:43:56.564Z</time></trkpt><trkpt lat="38.0612967" lon="12.7951"><ele>574.2</ele><time>2026-05-06T07:43:57.563Z</time></trkpt><trkpt lat="38.0612933" lon="12.7949683"><ele>576.4000000000001</ele><time>2026-05-06T07:43:58.564Z</time></trkpt><trkpt lat="38.06127" lon="12.794835"><ele>578.5999999999999</ele><time>2026-05-06T07:43:59.565Z</time></trkpt><trkpt lat="38.0612317" lon="12.7947083"><ele>580.8</ele><time>2026-05-06T07:44:00.564Z</time></trkpt><trkpt lat="38.0611833" lon="12.79458"><ele>583.0</ele><time>2026-05-06T07:44:01.564Z</time></trkpt><trkpt lat="38.0611383" lon="12.79444"><ele>583.0</ele><time>2026-05-06T07:44:02.564Z</time></trkpt><trkpt lat="38.0610933" lon="12.7943033"><ele>583.0</ele><time>2026-05-06T07:44:03.564Z</time></trkpt><trkpt lat="38.0610617" lon="12.7941783"><ele>583.0</ele><time>2026-05-06T07:44:04.563Z</time></trkpt><trkpt lat="38.0610317" lon="12.794055"><ele>583.0</ele><time>2026-05-06T07:44:05.565Z</time></trkpt><trkpt lat="38.0610017" lon="12.7939383"><ele>583.0</ele><time>2026-05-06T07:44:06.563Z</time></trkpt><trkpt lat="38.06098" lon="12.7938183"><ele>583.0</ele><time>2026-05-06T07:44:07.564Z</time></trkpt><trkpt lat="38.06097" lon="12.793695"><ele>583.0</ele><time>2026-05-06T07:44:08.564Z</time></trkpt><trkpt lat="38.0609817" lon="12.7935667"><ele>583.0</ele><time>2026-05-06T07:44:09.564Z</time></trkpt><trkpt lat="38.0610167" lon="12.7934367"><ele>583.0</ele><time>2026-05-06T07:44:10.564Z</time></trkpt><trkpt lat="38.0610667" lon="12.79331"><ele>583.0</ele><time>2026-05-06T07:44:11.564Z</time></trkpt><trkpt lat="38.061125" lon="12.7931833"><ele>582.75</ele><time>2026-05-06T07:44:12.564Z</time></trkpt><trkpt lat="38.06119" lon="12.793065"><ele>582.5</ele><time>2026-05-06T07:44:13.564Z</time></trkpt><trkpt lat="38.0612667" lon="12.79296"><ele>582.25</ele><time>2026-05-06T07:44:14.566Z</time></trkpt><trkpt lat="38.061355" lon="12.792875"><ele>582.0</ele><time>2026-05-06T07:44:15.563Z</time></trkpt><trkpt lat="38.0614533" lon="12.7927983"><ele>582.0</ele><time>2026-05-06T07:44:16.564Z</time></trkpt><trkpt lat="38.0615633" lon="12.7927317"><ele>582.0</ele><time>2026-05-06T07:44:17.564Z</time></trkpt><trkpt lat="38.0616767" lon="12.792665"><ele>582.0</ele><time>2026-05-06T07:44:18.564Z</time></trkpt><trkpt lat="38.0617967" lon="12.792595"><ele>582.0</ele><time>2026-05-06T07:44:19.564Z</time></trkpt><trkpt lat="38.0619183" lon="12.7925183"><ele>584.5</ele><time>2026-05-06T07:44:20.563Z</time></trkpt><trkpt lat="38.0620417" lon="12.79244"><ele>587.0</ele><time>2026-05-06T07:44:21.564Z</time></trkpt><trkpt lat="38.0621667" lon="12.7923583"><ele>589.5</ele><time>2026-05-06T07:44:22.564Z</time></trkpt><trkpt lat="38.0622983" lon="12.79228"><ele>592.0</ele><time>2026-05-06T07:44:23.565Z</time></trkpt><trkpt lat="38.0624283" lon="12.792205"><ele>591.5</ele><time>2026-05-06T07:44:24.563Z</time></trkpt><trkpt lat="38.0625467" lon="12.7921383"><ele>591.0</ele><time>2026-05-06T07:44:25.564Z</time></trkpt><trkpt lat="38.0626583" lon="12.7920817"><ele>590.5</ele><time>2026-05-06T07:44:26.563Z</time></trkpt><trkpt lat="38.0627667" lon="12.792025"><ele>590.0</ele><time>2026-05-06T07:44:27.564Z</time></trkpt><trkpt lat="38.0628667" lon="12.79197"><ele>590.0</ele><time>2026-05-06T07:44:28.564Z</time></trkpt><trkpt lat="38.0629583" lon="12.7919183"><ele>590.0</ele><time>2026-05-06T07:44:29.564Z</time></trkpt><trkpt lat="38.0630417" lon="12.7918783"><ele>590.0</ele><time>2026-05-06T07:44:30.564Z</time></trkpt><trkpt lat="38.0631117" lon="12.79184"><ele>590.0</ele><time>2026-05-06T07:44:31.565Z</time></trkpt><trkpt lat="38.0631717" lon="12.7918067"><ele>590.0</ele><time>2026-05-06T07:44:32.565Z</time></trkpt><trkpt lat="38.0632533" lon="12.7917667"><ele>590.0</ele><time>2026-05-06T07:44:34.563Z</time></trkpt><trkpt lat="38.0633133" lon="12.7917333"><ele>590.2</ele><time>2026-05-06T07:44:37.567Z</time></trkpt><trkpt lat="38.0634256" lon="12.7916905"><ele>590.4</ele><time>2026-05-06T07:45:14.564Z</time></trkpt><trkpt lat="38.0635162" lon="12.7916424"><ele>590.6</ele><time>2026-05-06T07:45:15.565Z</time></trkpt><trkpt lat="38.0635887" lon="12.7916005"><ele>590.8</ele><time>2026-05-06T07:45:16.565Z</time></trkpt><trkpt lat="38.0636599" lon="12.7915595"><ele>591.0</ele><time>2026-05-06T07:45:17.563Z</time></trkpt><trkpt lat="38.0637373" lon="12.7915151"><ele>591.0</ele><time>2026-05-06T07:45:18.563Z</time></trkpt><trkpt lat="38.0638198" lon="12.791466"><ele>591.0</ele><time>2026-05-06T07:45:19.564Z</time></trkpt><trkpt lat="38.0639072" lon="12.7914123"><ele>591.0</ele><time>2026-05-06T07:45:20.563Z</time></trkpt><trkpt lat="38.0640001" lon="12.7913575"><ele>591.0</ele><time>2026-05-06T07:45:21.564Z</time></trkpt><trkpt lat="38.0640981" lon="12.7913"><ele>591.0</ele><time>2026-05-06T07:45:22.564Z</time></trkpt><trkpt lat="38.0641983" lon="12.7912433"><ele>591.0</ele><time>2026-05-06T07:45:23.564Z</time></trkpt><trkpt lat="38.064295" lon="12.7911817"><ele>591.0</ele><time>2026-05-06T07:45:24.565Z</time></trkpt><trkpt lat="38.0643967" lon="12.7911183"><ele>591.0</ele><time>2026-05-06T07:45:25.562Z</time></trkpt><trkpt lat="38.0644983" lon="12.791055"><ele>591.0</ele><time>2026-05-06T07:45:26.565Z</time></trkpt><trkpt lat="38.0646017" lon="12.79099"><ele>592.2</ele><time>2026-05-06T07:45:27.563Z</time></trkpt><trkpt lat="38.0647033" lon="12.7909283"><ele>593.4000000000001</ele><time>2026-05-06T07:45:28.563Z</time></trkpt><trkpt lat="38.0648017" lon="12.7908733"><ele>594.6</ele><time>2026-05-06T07:45:29.564Z</time></trkpt><trkpt lat="38.0648883" lon="12.79082"><ele>595.8000000000001</ele><time>2026-05-06T07:45:30.564Z</time></trkpt><trkpt lat="38.06498" lon="12.7907683"><ele>597.0</ele><time>2026-05-06T07:45:31.564Z</time></trkpt><trkpt lat="38.0650783" lon="12.7907083"><ele>597.0</ele><time>2026-05-06T07:45:32.565Z</time></trkpt><trkpt lat="38.0651817" lon="12.7906483"><ele>597.0</ele><time>2026-05-06T07:45:33.564Z</time></trkpt><trkpt lat="38.065285" lon="12.79059"><ele>597.0</ele><time>2026-05-06T07:45:34.563Z</time></trkpt><trkpt lat="38.06539" lon="12.7905317"><ele>597.0</ele><time>2026-05-06T07:45:35.565Z</time></trkpt><trkpt lat="38.0654967" lon="12.7904717"><ele>597.0</ele><time>2026-05-06T07:45:36.566Z</time></trkpt><trkpt lat="38.0656033" lon="12.7904083"><ele>597.0</ele><time>2026-05-06T07:45:37.566Z</time></trkpt><trkpt lat="38.0657117" lon="12.7903433"><ele>597.0</ele><time>2026-05-06T07:45:38.565Z</time></trkpt><trkpt lat="38.0658233" lon="12.7902833"><ele>597.0</ele><time>2026-05-06T07:45:39.564Z</time></trkpt><trkpt lat="38.0659433" lon="12.79022"><ele>600.0</ele><time>2026-05-06T07:45:40.565Z</time></trkpt><trkpt lat="38.06606" lon="12.7901433"><ele>603.0</ele><time>2026-05-06T07:45:41.564Z</time></trkpt><trkpt lat="38.0661667" lon="12.7900483"><ele>606.0</ele><time>2026-05-06T07:45:42.563Z</time></trkpt><trkpt lat="38.066255" lon="12.7899233"><ele>609.0</ele><time>2026-05-06T07:45:43.565Z</time></trkpt><trkpt lat="38.06633" lon="12.7897833"><ele>609.0</ele><time>2026-05-06T07:45:44.565Z</time></trkpt><trkpt lat="38.066395" lon="12.7896317"><ele>609.0</ele><time>2026-05-06T07:45:45.566Z</time></trkpt><trkpt lat="38.0664467" lon="12.7894717"><ele>609.0</ele><time>2026-05-06T07:45:46.565Z</time></trkpt><trkpt lat="38.0664817" lon="12.7893017"><ele>609.0</ele><time>2026-05-06T07:45:47.566Z</time></trkpt><trkpt lat="38.066505" lon="12.78913"><ele>610.5</ele><time>2026-05-06T07:45:48.565Z</time></trkpt><trkpt lat="38.0665233" lon="12.7889717"><ele>612.0</ele><time>2026-05-06T07:45:49.564Z</time></trkpt><trkpt lat="38.0665367" lon="12.7888233"><ele>613.5</ele><time>2026-05-06T07:45:50.565Z</time></trkpt><trkpt lat="38.0665483" lon="12.7886833"><ele>615.0</ele><time>2026-05-06T07:45:51.565Z</time></trkpt><trkpt lat="38.0665617" lon="12.7885467"><ele>615.0</ele><time>2026-05-06T07:45:52.566Z</time></trkpt><trkpt lat="38.0665733" lon="12.7884133"><ele>615.0</ele><time>2026-05-06T07:45:53.565Z</time></trkpt><trkpt lat="38.0665833" lon="12.788275"><ele>615.0</ele><time>2026-05-06T07:45:54.565Z</time></trkpt><trkpt lat="38.0665883" lon="12.788135"><ele>615.0</ele><time>2026-05-06T07:45:55.565Z</time></trkpt><trkpt lat="38.0665733" lon="12.787995"><ele>615.0</ele><time>2026-05-06T07:45:56.565Z</time></trkpt><trkpt lat="38.0665333" lon="12.7878583"><ele>615.0</ele><time>2026-05-06T07:45:57.565Z</time></trkpt><trkpt lat="38.0664833" lon="12.7877267"><ele>615.0</ele><time>2026-05-06T07:45:58.565Z</time></trkpt><trkpt lat="38.0664233" lon="12.7875983"><ele>615.0</ele><time>2026-05-06T07:45:59.564Z</time></trkpt><trkpt lat="38.0663617" lon="12.7874717"><ele>615.0</ele><time>2026-05-06T07:46:00.563Z</time></trkpt><trkpt lat="38.0662967" lon="12.7873517"><ele>614.2</ele><time>2026-05-06T07:46:01.564Z</time></trkpt><trkpt lat="38.066235" lon="12.7872367"><ele>613.4</ele><time>2026-05-06T07:46:02.565Z</time></trkpt><trkpt lat="38.066175" lon="12.7871367"><ele>612.6</ele><time>2026-05-06T07:46:03.563Z</time></trkpt><trkpt lat="38.0661217" lon="12.7870467"><ele>611.8</ele><time>2026-05-06T07:46:04.564Z</time></trkpt><trkpt lat="38.0660767" lon="12.786965"><ele>611.0</ele><time>2026-05-06T07:46:05.564Z</time></trkpt><trkpt lat="38.0660383" lon="12.7868767"><ele>609.0</ele><time>2026-05-06T07:46:06.565Z</time></trkpt><trkpt lat="38.0660133" lon="12.7867783"><ele>607.0</ele><time>2026-05-06T07:46:07.564Z</time></trkpt><trkpt lat="38.0660083" lon="12.7866667"><ele>605.0</ele><time>2026-05-06T07:46:08.564Z</time></trkpt><trkpt lat="38.06602" lon="12.78655"><ele>603.0</ele><time>2026-05-06T07:46:09.564Z</time></trkpt><trkpt lat="38.066045" lon="12.7864367"><ele>601.0</ele><time>2026-05-06T07:46:10.564Z</time></trkpt><trkpt lat="38.0660767" lon="12.786315"><ele>601.0</ele><time>2026-05-06T07:46:11.564Z</time></trkpt><trkpt lat="38.066115" lon="12.7861883"><ele>601.0</ele><time>2026-05-06T07:46:12.564Z</time></trkpt><trkpt lat="38.0661533" lon="12.78606"><ele>601.0</ele><time>2026-05-06T07:46:13.564Z</time></trkpt><trkpt lat="38.0661933" lon="12.7859367"><ele>601.0</ele><time>2026-05-06T07:46:14.565Z</time></trkpt><trkpt lat="38.066235" lon="12.7858133"><ele>601.0</ele><time>2026-05-06T07:46:15.565Z</time></trkpt><trkpt lat="38.0662717" lon="12.7856883"><ele>600.25</ele><time>2026-05-06T07:46:16.565Z</time></trkpt><trkpt lat="38.0663117" lon="12.7855567"><ele>599.5</ele><time>2026-05-06T07:46:17.564Z</time></trkpt><trkpt lat="38.066355" lon="12.78542"><ele>598.75</ele><time>2026-05-06T07:46:18.563Z</time></trkpt><trkpt lat="38.0663967" lon="12.7852783"><ele>598.0</ele><time>2026-05-06T07:46:19.565Z</time></trkpt><trkpt lat="38.0664383" lon="12.7851283"><ele>600.25</ele><time>2026-05-06T07:46:20.564Z</time></trkpt><trkpt lat="38.06648" lon="12.7849767"><ele>602.5</ele><time>2026-05-06T07:46:21.564Z</time></trkpt><trkpt lat="38.06652" lon="12.7848283"><ele>604.75</ele><time>2026-05-06T07:46:22.565Z</time></trkpt><trkpt lat="38.0665617" lon="12.7846817"><ele>607.0</ele><time>2026-05-06T07:46:23.565Z</time></trkpt><trkpt lat="38.0666033" lon="12.78454"><ele>602.2</ele><time>2026-05-06T07:46:24.564Z</time></trkpt><trkpt lat="38.0666467" lon="12.7844067"><ele>597.4000000000001</ele><time>2026-05-06T07:46:25.565Z</time></trkpt><trkpt lat="38.0666917" lon="12.7842817"><ele>592.5999999999999</ele><time>2026-05-06T07:46:26.566Z</time></trkpt><trkpt lat="38.0667483" lon="12.7841617"><ele>587.8</ele><time>2026-05-06T07:46:27.565Z</time></trkpt><trkpt lat="38.066815" lon="12.7840483"><ele>583.0</ele><time>2026-05-06T07:46:28.566Z</time></trkpt><trkpt lat="38.0668917" lon="12.783935"><ele>583.0</ele><time>2026-05-06T07:46:29.565Z</time></trkpt><trkpt lat="38.0669783" lon="12.783825"><ele>583.0</ele><time>2026-05-06T07:46:30.564Z</time></trkpt><trkpt lat="38.0670717" lon="12.7837117"><ele>583.0</ele><time>2026-05-06T07:46:31.564Z</time></trkpt><trkpt lat="38.067165" lon="12.7836033"><ele>583.0</ele><time>2026-05-06T07:46:32.564Z</time></trkpt><trkpt lat="38.0672517" lon="12.78349"><ele>585.0</ele><time>2026-05-06T07:46:33.564Z</time></trkpt><trkpt lat="38.067325" lon="12.7833767"><ele>587.0</ele><time>2026-05-06T07:46:34.564Z</time></trkpt><trkpt lat="38.0673833" lon="12.783265"><ele>589.0</ele><time>2026-05-06T07:46:35.565Z</time></trkpt><trkpt lat="38.0674183" lon="12.78315"><ele>591.0</ele><time>2026-05-06T07:46:36.565Z</time></trkpt><trkpt lat="38.0674283" lon="12.7830283"><ele>593.0</ele><time>2026-05-06T07:46:37.563Z</time></trkpt><trkpt lat="38.06742" lon="12.7829083"><ele>593.0</ele><time>2026-05-06T07:46:38.565Z</time></trkpt><trkpt lat="38.0673917" lon="12.78279"><ele>593.0</ele><time>2026-05-06T07:46:39.566Z</time></trkpt><trkpt lat="38.0673533" lon="12.782675"><ele>593.0</ele><time>2026-05-06T07:46:40.565Z</time></trkpt><trkpt lat="38.06731" lon="12.7825783"><ele>593.0</ele><time>2026-05-06T07:46:41.565Z</time></trkpt><trkpt lat="38.0672617" lon="12.7824883"><ele>593.0</ele><time>2026-05-06T07:46:42.565Z</time></trkpt><trkpt lat="38.067205" lon="12.7823933"><ele>592.6</ele><time>2026-05-06T07:46:43.564Z</time></trkpt><trkpt lat="38.06714" lon="12.7822883"><ele>592.1999999999999</ele><time>2026-05-06T07:46:44.565Z</time></trkpt><trkpt lat="38.0670783" lon="12.7821767"><ele>591.8</ele><time>2026-05-06T07:46:45.564Z</time></trkpt><trkpt lat="38.06702" lon="12.7820633"><ele>591.4</ele><time>2026-05-06T07:46:46.564Z</time></trkpt><trkpt lat="38.066965" lon="12.7819483"><ele>591.0</ele><time>2026-05-06T07:46:47.564Z</time></trkpt><trkpt lat="38.0669083" lon="12.7818317"><ele>586.0</ele><time>2026-05-06T07:46:48.565Z</time></trkpt><trkpt lat="38.0668517" lon="12.78172"><ele>581.0</ele><time>2026-05-06T07:46:49.564Z</time></trkpt><trkpt lat="38.0667967" lon="12.7816083"><ele>576.0</ele><time>2026-05-06T07:46:50.565Z</time></trkpt><trkpt lat="38.066745" lon="12.7814883"><ele>571.0</ele><time>2026-05-06T07:46:51.564Z</time></trkpt><trkpt lat="38.0667" lon="12.7813633"><ele>566.0</ele><time>2026-05-06T07:46:52.565Z</time></trkpt><trkpt lat="38.0666567" lon="12.7812367"><ele>566.0</ele><time>2026-05-06T07:46:53.565Z</time></trkpt><trkpt lat="38.0666133" lon="12.7811083"><ele>566.0</ele><time>2026-05-06T07:46:54.564Z</time></trkpt><trkpt lat="38.0665683" lon="12.7809767"><ele>566.0</ele><time>2026-05-06T07:46:55.566Z</time></trkpt><trkpt lat="38.0665233" lon="12.7808367"><ele>566.0</ele><time>2026-05-06T07:46:56.565Z</time></trkpt><trkpt lat="38.066485" lon="12.7806917"><ele>568.0</ele><time>2026-05-06T07:46:57.565Z</time></trkpt><trkpt lat="38.0664517" lon="12.78054"><ele>570.0</ele><time>2026-05-06T07:46:58.564Z</time></trkpt><trkpt lat="38.06642" lon="12.7803833"><ele>572.0</ele><time>2026-05-06T07:46:59.565Z</time></trkpt><trkpt lat="38.0663883" lon="12.7802233"><ele>574.0</ele><time>2026-05-06T07:47:00.564Z</time></trkpt><trkpt lat="38.06636" lon="12.7800667"><ele>574.0</ele><time>2026-05-06T07:47:01.565Z</time></trkpt><trkpt lat="38.0663333" lon="12.7799117"><ele>574.0</ele><time>2026-05-06T07:47:02.565Z</time></trkpt><trkpt lat="38.0663083" lon="12.7797583"><ele>574.0</ele><time>2026-05-06T07:47:03.565Z</time></trkpt><trkpt lat="38.06629" lon="12.7796067"><ele>574.0</ele><time>2026-05-06T07:47:04.564Z</time></trkpt><trkpt lat="38.0662733" lon="12.7794533"><ele>569.0</ele><time>2026-05-06T07:47:05.566Z</time></trkpt><trkpt lat="38.066255" lon="12.779305"><ele>564.0</ele><time>2026-05-06T07:47:06.565Z</time></trkpt><trkpt lat="38.0662367" lon="12.7791567"><ele>559.0</ele><time>2026-05-06T07:47:07.565Z</time></trkpt><trkpt lat="38.0662217" lon="12.77901"><ele>554.0</ele><time>2026-05-06T07:47:08.564Z</time></trkpt><trkpt lat="38.066215" lon="12.7788667"><ele>554.0</ele><time>2026-05-06T07:47:09.565Z</time></trkpt><trkpt lat="38.0662233" lon="12.7787267"><ele>554.0</ele><time>2026-05-06T07:47:10.566Z</time></trkpt><trkpt lat="38.0662533" lon="12.7785933"><ele>554.0</ele><time>2026-05-06T07:47:11.566Z</time></trkpt><trkpt lat="38.0662917" lon="12.7784617"><ele>554.0</ele><time>2026-05-06T07:47:12.565Z</time></trkpt><trkpt lat="38.0663433" lon="12.7783383"><ele>554.0</ele><time>2026-05-06T07:47:13.565Z</time></trkpt><trkpt lat="38.066405" lon="12.7782233"><ele>554.0</ele><time>2026-05-06T07:47:14.565Z</time></trkpt><trkpt lat="38.0664733" lon="12.77811"><ele>554.0</ele><time>2026-05-06T07:47:15.565Z</time></trkpt><trkpt lat="38.0665433" lon="12.7779967"><ele>554.0</ele><time>2026-05-06T07:47:16.564Z</time></trkpt><trkpt lat="38.0666117" lon="12.7778817"><ele>554.0</ele><time>2026-05-06T07:47:17.565Z</time></trkpt><trkpt lat="38.0666783" lon="12.7777633"><ele>547.5</ele><time>2026-05-06T07:47:18.565Z</time></trkpt><trkpt lat="38.066745" lon="12.777645"><ele>541.0</ele><time>2026-05-06T07:47:19.565Z</time></trkpt><trkpt lat="38.0668133" lon="12.7775283"><ele>534.5</ele><time>2026-05-06T07:47:20.565Z</time></trkpt><trkpt lat="38.0668833" lon="12.7774133"><ele>528.0</ele><time>2026-05-06T07:47:21.566Z</time></trkpt><trkpt lat="38.066955" lon="12.7773017"><ele>528.0</ele><time>2026-05-06T07:47:22.566Z</time></trkpt><trkpt lat="38.0670267" lon="12.7771867"><ele>528.0</ele><time>2026-05-06T07:47:23.566Z</time></trkpt><trkpt lat="38.0670983" lon="12.7770733"><ele>528.0</ele><time>2026-05-06T07:47:24.566Z</time></trkpt><trkpt lat="38.06717" lon="12.7769583"><ele>528.0</ele><time>2026-05-06T07:47:25.567Z</time></trkpt><trkpt lat="38.0672433" lon="12.7768433"><ele>533.75</ele><time>2026-05-06T07:47:26.566Z</time></trkpt><trkpt lat="38.067315" lon="12.7767267"><ele>539.5</ele><time>2026-05-06T07:47:27.565Z</time></trkpt><trkpt lat="38.0673833" lon="12.7766033"><ele>545.25</ele><time>2026-05-06T07:47:28.566Z</time></trkpt><trkpt lat="38.0674533" lon="12.7764817"><ele>551.0</ele><time>2026-05-06T07:47:29.565Z</time></trkpt><trkpt lat="38.0675317" lon="12.7763567"><ele>544.5</ele><time>2026-05-06T07:47:30.566Z</time></trkpt><trkpt lat="38.06761" lon="12.77623"><ele>538.0</ele><time>2026-05-06T07:47:31.565Z</time></trkpt><trkpt lat="38.06769" lon="12.7760983"><ele>531.5</ele><time>2026-05-06T07:47:32.565Z</time></trkpt><trkpt lat="38.0677717" lon="12.7759617"><ele>525.0</ele><time>2026-05-06T07:47:33.564Z</time></trkpt><trkpt lat="38.0678533" lon="12.7758217"><ele>525.0</ele><time>2026-05-06T07:47:34.565Z</time></trkpt><trkpt lat="38.06794" lon="12.7756833"><ele>525.0</ele><time>2026-05-06T07:47:35.565Z</time></trkpt><trkpt lat="38.0680267" lon="12.77555"><ele>525.0</ele><time>2026-05-06T07:47:36.564Z</time></trkpt><trkpt lat="38.0681083" lon="12.7754217"><ele>525.0</ele><time>2026-05-06T07:47:37.564Z</time></trkpt><trkpt lat="38.068185" lon="12.7753017"><ele>530.75</ele><time>2026-05-06T07:47:38.565Z</time></trkpt><trkpt lat="38.0682633" lon="12.7751817"><ele>536.5</ele><time>2026-05-06T07:47:39.564Z</time></trkpt><trkpt lat="38.0683383" lon="12.7750583"><ele>542.25</ele><time>2026-05-06T07:47:40.563Z</time></trkpt><trkpt lat="38.0684117" lon="12.77494"><ele>548.0</ele><time>2026-05-06T07:47:41.565Z</time></trkpt><trkpt lat="38.0684817" lon="12.774825"><ele>541.5</ele><time>2026-05-06T07:47:42.564Z</time></trkpt><trkpt lat="38.068555" lon="12.7747083"><ele>535.0</ele><time>2026-05-06T07:47:43.564Z</time></trkpt><trkpt lat="38.0686267" lon="12.7745883"><ele>528.5</ele><time>2026-05-06T07:47:44.565Z</time></trkpt><trkpt lat="38.0686983" lon="12.7744667"><ele>522.0</ele><time>2026-05-06T07:47:45.565Z</time></trkpt><trkpt lat="38.0687717" lon="12.7743483"><ele>522.0</ele><time>2026-05-06T07:47:46.565Z</time></trkpt><trkpt lat="38.0688383" lon="12.7742383"><ele>522.0</ele><time>2026-05-06T07:47:47.564Z</time></trkpt><trkpt lat="38.0688983" lon="12.77414"><ele>522.0</ele><time>2026-05-06T07:47:48.564Z</time></trkpt><trkpt lat="38.0689567" lon="12.774045"><ele>522.0</ele><time>2026-05-06T07:47:49.568Z</time></trkpt><trkpt lat="38.069015" lon="12.7739467"><ele>522.0</ele><time>2026-05-06T07:47:50.565Z</time></trkpt><trkpt lat="38.0690733" lon="12.7738483"><ele>516.6666666666666</ele><time>2026-05-06T07:47:51.565Z</time></trkpt><trkpt lat="38.0691233" lon="12.7737583"><ele>511.33333333333337</ele><time>2026-05-06T07:47:52.565Z</time></trkpt><trkpt lat="38.069175" lon="12.77368"><ele>506.0</ele><time>2026-05-06T07:47:53.567Z</time></trkpt><trkpt lat="38.0692283" lon="12.7736017"><ele>500.6666666666667</ele><time>2026-05-06T07:47:54.566Z</time></trkpt><trkpt lat="38.0692817" lon="12.773515"><ele>495.33333333333337</ele><time>2026-05-06T07:47:55.563Z</time></trkpt><trkpt lat="38.0693383" lon="12.7734283"><ele>490.0</ele><time>2026-05-06T07:47:56.565Z</time></trkpt><trkpt lat="38.0693883" lon="12.77335"><ele>490.00000000000006</ele><time>2026-05-06T07:47:57.565Z</time></trkpt><trkpt lat="38.0694317" lon="12.7732767"><ele>490.0</ele><time>2026-05-06T07:47:58.564Z</time></trkpt><trkpt lat="38.0694733" lon="12.7731983"><ele>490.0</ele><time>2026-05-06T07:47:59.564Z</time></trkpt><trkpt lat="38.0695183" lon="12.7731183"><ele>490.0</ele><time>2026-05-06T07:48:00.564Z</time></trkpt><trkpt lat="38.0695633" lon="12.77304"><ele>490.00000000000006</ele><time>2026-05-06T07:48:01.564Z</time></trkpt><trkpt lat="38.0696117" lon="12.7729617"><ele>490.0</ele><time>2026-05-06T07:48:02.564Z</time></trkpt><trkpt lat="38.06966" lon="12.77288"><ele>490.0</ele><time>2026-05-06T07:48:03.564Z</time></trkpt><trkpt lat="38.0697117" lon="12.7727967"><ele>490.0</ele><time>2026-05-06T07:48:04.565Z</time></trkpt><trkpt lat="38.069765" lon="12.7727083"><ele>490.0</ele><time>2026-05-06T07:48:05.565Z</time></trkpt><trkpt lat="38.0698183" lon="12.7726183"><ele>490.0</ele><time>2026-05-06T07:48:06.565Z</time></trkpt><trkpt lat="38.0698767" lon="12.7725233"><ele>490.0</ele><time>2026-05-06T07:48:07.565Z</time></trkpt><trkpt lat="38.0699383" lon="12.7724233"><ele>488.8</ele><time>2026-05-06T07:48:08.567Z</time></trkpt><trkpt lat="38.0700017" lon="12.7723167"><ele>487.6</ele><time>2026-05-06T07:48:09.565Z</time></trkpt><trkpt lat="38.0700667" lon="12.772205"><ele>486.4</ele><time>2026-05-06T07:48:10.565Z</time></trkpt><trkpt lat="38.0701333" lon="12.77209"><ele>485.2</ele><time>2026-05-06T07:48:11.566Z</time></trkpt><trkpt lat="38.0702" lon="12.7719717"><ele>484.0</ele><time>2026-05-06T07:48:12.565Z</time></trkpt><trkpt lat="38.070265" lon="12.7718517"><ele>484.0</ele><time>2026-05-06T07:48:13.566Z</time></trkpt><trkpt lat="38.0703267" lon="12.7717317"><ele>484.0</ele><time>2026-05-06T07:48:14.565Z</time></trkpt><trkpt lat="38.0703833" lon="12.7716233"><ele>484.0</ele><time>2026-05-06T07:48:15.563Z</time></trkpt><trkpt lat="38.0704383" lon="12.7715133"><ele>484.0</ele><time>2026-05-06T07:48:16.564Z</time></trkpt><trkpt lat="38.0704933" lon="12.7713983"><ele>484.0</ele><time>2026-05-06T07:48:17.563Z</time></trkpt><trkpt lat="38.07055" lon="12.7712833"><ele>484.0</ele><time>2026-05-06T07:48:18.565Z</time></trkpt><trkpt lat="38.070615" lon="12.7711733"><ele>484.0</ele><time>2026-05-06T07:48:19.564Z</time></trkpt><trkpt lat="38.070685" lon="12.77107"><ele>484.0</ele><time>2026-05-06T07:48:20.565Z</time></trkpt><trkpt lat="38.0707533" lon="12.7709617"><ele>484.0</ele><time>2026-05-06T07:48:21.565Z</time></trkpt><trkpt lat="38.0708167" lon="12.7708467"><ele>484.0</ele><time>2026-05-06T07:48:22.564Z</time></trkpt><trkpt lat="38.0708783" lon="12.77073"><ele>476.0</ele><time>2026-05-06T07:48:23.564Z</time></trkpt><trkpt lat="38.07094" lon="12.7706117"><ele>468.0</ele><time>2026-05-06T07:48:24.565Z</time></trkpt><trkpt lat="38.0710017" lon="12.7704917"><ele>460.0</ele><time>2026-05-06T07:48:25.564Z</time></trkpt><trkpt lat="38.0710617" lon="12.77037"><ele>452.0</ele><time>2026-05-06T07:48:26.565Z</time></trkpt><trkpt lat="38.07112" lon="12.7702433"><ele>456.25</ele><time>2026-05-06T07:48:27.565Z</time></trkpt><trkpt lat="38.0711717" lon="12.7701117"><ele>460.5</ele><time>2026-05-06T07:48:28.564Z</time></trkpt><trkpt lat="38.0712167" lon="12.769975"><ele>464.75</ele><time>2026-05-06T07:48:29.565Z</time></trkpt><trkpt lat="38.0712583" lon="12.7698333"><ele>469.0</ele><time>2026-05-06T07:48:30.564Z</time></trkpt><trkpt lat="38.0712917" lon="12.769685"><ele>469.0</ele><time>2026-05-06T07:48:31.564Z</time></trkpt><trkpt lat="38.0713167" lon="12.76953"><ele>469.0</ele><time>2026-05-06T07:48:32.564Z</time></trkpt><trkpt lat="38.0713367" lon="12.7693683"><ele>469.0</ele><time>2026-05-06T07:48:33.565Z</time></trkpt><trkpt lat="38.0713483" lon="12.7692033"><ele>469.0</ele><time>2026-05-06T07:48:34.565Z</time></trkpt><trkpt lat="38.0713583" lon="12.7690383"><ele>469.25</ele><time>2026-05-06T07:48:35.564Z</time></trkpt><trkpt lat="38.0713683" lon="12.7688683"><ele>469.5</ele><time>2026-05-06T07:48:36.564Z</time></trkpt><trkpt lat="38.07138" lon="12.768695"><ele>469.75</ele><time>2026-05-06T07:48:37.564Z</time></trkpt><trkpt lat="38.0713917" lon="12.768525"><ele>470.0</ele><time>2026-05-06T07:48:38.565Z</time></trkpt><trkpt lat="38.0714033" lon="12.7683583"><ele>465.5</ele><time>2026-05-06T07:48:39.565Z</time></trkpt><trkpt lat="38.0714167" lon="12.76819"><ele>461.0</ele><time>2026-05-06T07:48:40.564Z</time></trkpt><trkpt lat="38.0714317" lon="12.768025"><ele>456.5</ele><time>2026-05-06T07:48:41.565Z</time></trkpt><trkpt lat="38.0714467" lon="12.7678617"><ele>452.0</ele><time>2026-05-06T07:48:42.566Z</time></trkpt><trkpt lat="38.0714583" lon="12.7677"><ele>451.5</ele><time>2026-05-06T07:48:43.566Z</time></trkpt><trkpt lat="38.07147" lon="12.7675383"><ele>451.0</ele><time>2026-05-06T07:48:44.566Z</time></trkpt><trkpt lat="38.0714817" lon="12.7673783"><ele>450.5</ele><time>2026-05-06T07:48:45.564Z</time></trkpt><trkpt lat="38.0714983" lon="12.7672217"><ele>450.0</ele><time>2026-05-06T07:48:46.565Z</time></trkpt><trkpt lat="38.0715217" lon="12.7670683"><ele>450.0</ele><time>2026-05-06T07:48:47.564Z</time></trkpt><trkpt lat="38.07155" lon="12.766915"><ele>450.0</ele><time>2026-05-06T07:48:48.567Z</time></trkpt><trkpt lat="38.0715767" lon="12.7667617"><ele>450.0</ele><time>2026-05-06T07:48:49.565Z</time></trkpt><trkpt lat="38.0716" lon="12.7666067"><ele>450.0</ele><time>2026-05-06T07:48:50.565Z</time></trkpt><trkpt lat="38.07162" lon="12.7664517"><ele>441.75</ele><time>2026-05-06T07:48:51.563Z</time></trkpt><trkpt lat="38.071645" lon="12.7662983"><ele>433.5</ele><time>2026-05-06T07:48:52.565Z</time></trkpt><trkpt lat="38.07167" lon="12.7661433"><ele>425.25</ele><time>2026-05-06T07:48:53.565Z</time></trkpt><trkpt lat="38.0716967" lon="12.7659883"><ele>417.0</ele><time>2026-05-06T07:48:54.565Z</time></trkpt><trkpt lat="38.0717267" lon="12.7658233"><ele>417.0</ele><time>2026-05-06T07:48:55.565Z</time></trkpt><trkpt lat="38.071755" lon="12.7656483"><ele>417.0</ele><time>2026-05-06T07:48:56.565Z</time></trkpt><trkpt lat="38.0717833" lon="12.7654633"><ele>417.0</ele><time>2026-05-06T07:48:57.563Z</time></trkpt><trkpt lat="38.07181" lon="12.7652683"><ele>417.0</ele><time>2026-05-06T07:48:58.566Z</time></trkpt><trkpt lat="38.07184" lon="12.7650667"><ele>417.0</ele><time>2026-05-06T07:48:59.565Z</time></trkpt><trkpt lat="38.07187" lon="12.7648583"><ele>417.0</ele><time>2026-05-06T07:49:00.566Z</time></trkpt><trkpt lat="38.0718983" lon="12.764645"><ele>417.0</ele><time>2026-05-06T07:49:01.563Z</time></trkpt><trkpt lat="38.0719217" lon="12.7644233"><ele>419.0</ele><time>2026-05-06T07:49:02.564Z</time></trkpt><trkpt lat="38.071945" lon="12.7641983"><ele>421.0</ele><time>2026-05-06T07:49:03.564Z</time></trkpt><trkpt lat="38.0719617" lon="12.7639717"><ele>423.0</ele><time>2026-05-06T07:49:04.564Z</time></trkpt><trkpt lat="38.0719733" lon="12.7637467"><ele>421.33333333333337</ele><time>2026-05-06T07:49:05.564Z</time></trkpt><trkpt lat="38.07198" lon="12.7635267"><ele>419.6666666666667</ele><time>2026-05-06T07:49:06.565Z</time></trkpt><trkpt lat="38.07198" lon="12.7633117"><ele>418.0</ele><time>2026-05-06T07:49:07.567Z</time></trkpt><trkpt lat="38.0719733" lon="12.7631"><ele>418.0</ele><time>2026-05-06T07:49:08.564Z</time></trkpt><trkpt lat="38.07196" lon="12.762895"><ele>418.0</ele><time>2026-05-06T07:49:09.564Z</time></trkpt><trkpt lat="38.0719433" lon="12.7626933"><ele>418.0</ele><time>2026-05-06T07:49:10.565Z</time></trkpt><trkpt lat="38.0719217" lon="12.7624933"><ele>415.75</ele><time>2026-05-06T07:49:11.565Z</time></trkpt><trkpt lat="38.0718967" lon="12.7623033"><ele>413.5</ele><time>2026-05-06T07:49:12.564Z</time></trkpt><trkpt lat="38.0718717" lon="12.7621267"><ele>411.25</ele><time>2026-05-06T07:49:13.565Z</time></trkpt><trkpt lat="38.071845" lon="12.7619617"><ele>409.0</ele><time>2026-05-06T07:49:14.565Z</time></trkpt><trkpt lat="38.071815" lon="12.7617967"><ele>405.75</ele><time>2026-05-06T07:49:15.565Z</time></trkpt><trkpt lat="38.07178" lon="12.761635"><ele>402.5</ele><time>2026-05-06T07:49:16.565Z</time></trkpt><trkpt lat="38.0717417" lon="12.7614783"><ele>399.25</ele><time>2026-05-06T07:49:17.566Z</time></trkpt><trkpt lat="38.0717017" lon="12.7613217"><ele>396.0</ele><time>2026-05-06T07:49:18.565Z</time></trkpt><trkpt lat="38.0716633" lon="12.7611617"><ele>390.5</ele><time>2026-05-06T07:49:19.566Z</time></trkpt><trkpt lat="38.0716233" lon="12.7610017"><ele>385.0</ele><time>2026-05-06T07:49:20.566Z</time></trkpt><trkpt lat="38.071585" lon="12.76084"><ele>379.5</ele><time>2026-05-06T07:49:21.564Z</time></trkpt><trkpt lat="38.0715467" lon="12.76068"><ele>374.0</ele><time>2026-05-06T07:49:22.566Z</time></trkpt><trkpt lat="38.0715067" lon="12.760515"><ele>382.25</ele><time>2026-05-06T07:49:23.566Z</time></trkpt><trkpt lat="38.0714667" lon="12.7603467"><ele>390.5</ele><time>2026-05-06T07:49:24.568Z</time></trkpt><trkpt lat="38.0714283" lon="12.76018"><ele>398.75</ele><time>2026-05-06T07:49:25.563Z</time></trkpt><trkpt lat="38.0713933" lon="12.760015"><ele>407.0</ele><time>2026-05-06T07:49:26.564Z</time></trkpt><trkpt lat="38.0713583" lon="12.75986"><ele>407.0</ele><time>2026-05-06T07:49:27.564Z</time></trkpt><trkpt lat="38.0713217" lon="12.7597167"><ele>407.0</ele><time>2026-05-06T07:49:28.564Z</time></trkpt><trkpt lat="38.0712883" lon="12.759575"><ele>407.0</ele><time>2026-05-06T07:49:29.565Z</time></trkpt><trkpt lat="38.07125" lon="12.7594333"><ele>407.0</ele><time>2026-05-06T07:49:30.565Z</time></trkpt><trkpt lat="38.071215" lon="12.7592917"><ele>403.75</ele><time>2026-05-06T07:49:31.566Z</time></trkpt><trkpt lat="38.07118" lon="12.75915"><ele>400.5</ele><time>2026-05-06T07:49:32.565Z</time></trkpt><trkpt lat="38.0711517" lon="12.759005"><ele>397.25</ele><time>2026-05-06T07:49:33.564Z</time></trkpt><trkpt lat="38.0711233" lon="12.75886"><ele>394.0</ele><time>2026-05-06T07:49:34.564Z</time></trkpt><trkpt lat="38.0711" lon="12.7587133"><ele>394.0</ele><time>2026-05-06T07:49:35.565Z</time></trkpt><trkpt lat="38.071085" lon="12.758565"><ele>394.0</ele><time>2026-05-06T07:49:36.564Z</time></trkpt><trkpt lat="38.07108" lon="12.7584167"><ele>394.0</ele><time>2026-05-06T07:49:37.565Z</time></trkpt><trkpt lat="38.0710917" lon="12.7582667"><ele>394.0</ele><time>2026-05-06T07:49:38.565Z</time></trkpt><trkpt lat="38.0711083" lon="12.7581167"><ele>392.0</ele><time>2026-05-06T07:49:39.563Z</time></trkpt><trkpt lat="38.0711317" lon="12.7579683"><ele>390.0</ele><time>2026-05-06T07:49:40.564Z</time></trkpt><trkpt lat="38.07116" lon="12.7578217"><ele>388.0</ele><time>2026-05-06T07:49:41.564Z</time></trkpt><trkpt lat="38.0711917" lon="12.7576767"><ele>386.0</ele><time>2026-05-06T07:49:42.564Z</time></trkpt><trkpt lat="38.0712267" lon="12.7575333"><ele>386.0</ele><time>2026-05-06T07:49:43.563Z</time></trkpt><trkpt lat="38.0712683" lon="12.7573883"><ele>386.0</ele><time>2026-05-06T07:49:44.565Z</time></trkpt><trkpt lat="38.0713167" lon="12.7572467"><ele>386.0</ele><time>2026-05-06T07:49:45.568Z</time></trkpt><trkpt lat="38.0713683" lon="12.757105"><ele>386.0</ele><time>2026-05-06T07:49:46.564Z</time></trkpt><trkpt lat="38.0714183" lon="12.7569617"><ele>387.25</ele><time>2026-05-06T07:49:47.564Z</time></trkpt><trkpt lat="38.0714683" lon="12.756815"><ele>388.5</ele><time>2026-05-06T07:49:48.564Z</time></trkpt><trkpt lat="38.071515" lon="12.7566667"><ele>389.75</ele><time>2026-05-06T07:49:49.564Z</time></trkpt><trkpt lat="38.0715667" lon="12.75652"><ele>391.0</ele><time>2026-05-06T07:49:50.564Z</time></trkpt><trkpt lat="38.07162" lon="12.756375"><ele>381.0</ele><time>2026-05-06T07:49:51.564Z</time></trkpt><trkpt lat="38.0716733" lon="12.7562283"><ele>371.0</ele><time>2026-05-06T07:49:52.563Z</time></trkpt><trkpt lat="38.0717217" lon="12.7560817"><ele>361.0</ele><time>2026-05-06T07:49:53.564Z</time></trkpt><trkpt lat="38.07177" lon="12.7559333"><ele>351.0</ele><time>2026-05-06T07:49:54.564Z</time></trkpt><trkpt lat="38.0718183" lon="12.755785"><ele>351.0</ele><time>2026-05-06T07:49:55.564Z</time></trkpt><trkpt lat="38.0718633" lon="12.7556367"><ele>351.0</ele><time>2026-05-06T07:49:56.564Z</time></trkpt><trkpt lat="38.0719083" lon="12.755475"><ele>351.0</ele><time>2026-05-06T07:49:57.563Z</time></trkpt><trkpt lat="38.07194" lon="12.7553"><ele>351.0</ele><time>2026-05-06T07:49:58.564Z</time></trkpt><trkpt lat="38.0719567" lon="12.75512"><ele>351.5</ele><time>2026-05-06T07:49:59.563Z</time></trkpt><trkpt lat="38.0719633" lon="12.7549433"><ele>352.0</ele><time>2026-05-06T07:50:00.564Z</time></trkpt><trkpt lat="38.07197" lon="12.75477"><ele>352.5</ele><time>2026-05-06T07:50:01.564Z</time></trkpt><trkpt lat="38.0719867" lon="12.7546"><ele>353.0</ele><time>2026-05-06T07:50:02.564Z</time></trkpt><trkpt lat="38.072025" lon="12.754435"><ele>351.25</ele><time>2026-05-06T07:50:03.565Z</time></trkpt><trkpt lat="38.0720783" lon="12.7542767"><ele>349.5</ele><time>2026-05-06T07:50:04.563Z</time></trkpt><trkpt lat="38.07215" lon="12.7541333"><ele>347.75</ele><time>2026-05-06T07:50:05.565Z</time></trkpt><trkpt lat="38.0722367" lon="12.754005"><ele>346.0</ele><time>2026-05-06T07:50:06.565Z</time></trkpt><trkpt lat="38.0723317" lon="12.7538883"><ele>346.0</ele><time>2026-05-06T07:50:07.564Z</time></trkpt><trkpt lat="38.0724317" lon="12.7537783"><ele>346.0</ele><time>2026-05-06T07:50:08.565Z</time></trkpt><trkpt lat="38.0725383" lon="12.7536733"><ele>346.0</ele><time>2026-05-06T07:50:09.564Z</time></trkpt><trkpt lat="38.0726467" lon="12.7535733"><ele>346.0</ele><time>2026-05-06T07:50:10.563Z</time></trkpt><trkpt lat="38.0727567" lon="12.753475"><ele>342.75</ele><time>2026-05-06T07:50:11.564Z</time></trkpt><trkpt lat="38.0728667" lon="12.7533733"><ele>339.5</ele><time>2026-05-06T07:50:12.564Z</time></trkpt><trkpt lat="38.0729767" lon="12.7532633"><ele>336.25</ele><time>2026-05-06T07:50:13.563Z</time></trkpt><trkpt lat="38.0730833" lon="12.7531383"><ele>333.0</ele><time>2026-05-06T07:50:14.565Z</time></trkpt><trkpt lat="38.0731783" lon="12.752995"><ele>333.0</ele><time>2026-05-06T07:50:15.565Z</time></trkpt><trkpt lat="38.0732683" lon="12.7528383"><ele>333.0</ele><time>2026-05-06T07:50:16.564Z</time></trkpt><trkpt lat="38.073345" lon="12.75267"><ele>333.0</ele><time>2026-05-06T07:50:17.566Z</time></trkpt><trkpt lat="38.07341" lon="12.75249"><ele>331.3333333333333</ele><time>2026-05-06T07:50:18.564Z</time></trkpt><trkpt lat="38.0734567" lon="12.7522983"><ele>329.66666666666663</ele><time>2026-05-06T07:50:19.564Z</time></trkpt><trkpt lat="38.0734817" lon="12.7521017"><ele>328.0</ele><time>2026-05-06T07:50:20.564Z</time></trkpt><trkpt lat="38.0734983" lon="12.7519033"><ele>329.3333333333333</ele><time>2026-05-06T07:50:21.563Z</time></trkpt><trkpt lat="38.0735167" lon="12.7517033"><ele>330.6666666666667</ele><time>2026-05-06T07:50:22.565Z</time></trkpt><trkpt lat="38.0735383" lon="12.7515033"><ele>332.0</ele><time>2026-05-06T07:50:23.564Z</time></trkpt><trkpt lat="38.0735567" lon="12.7513"><ele>332.0</ele><time>2026-05-06T07:50:24.564Z</time></trkpt><trkpt lat="38.0735767" lon="12.7510967"><ele>332.0</ele><time>2026-05-06T07:50:25.563Z</time></trkpt><trkpt lat="38.073595" lon="12.7508917"><ele>332.0</ele><time>2026-05-06T07:50:26.565Z</time></trkpt><trkpt lat="38.073615" lon="12.7506883"><ele>331.33333333333337</ele><time>2026-05-06T07:50:27.564Z</time></trkpt><trkpt lat="38.0736317" lon="12.75048"><ele>330.6666666666667</ele><time>2026-05-06T07:50:28.563Z</time></trkpt><trkpt lat="38.0736483" lon="12.750275"><ele>330.0</ele><time>2026-05-06T07:50:29.564Z</time></trkpt><trkpt lat="38.0736683" lon="12.7500733"><ele>330.0</ele><time>2026-05-06T07:50:30.563Z</time></trkpt><trkpt lat="38.0736917" lon="12.7498883"><ele>330.0</ele><time>2026-05-06T07:50:31.564Z</time></trkpt><trkpt lat="38.073715" lon="12.749715"><ele>330.0</ele><time>2026-05-06T07:50:32.565Z</time></trkpt><trkpt lat="38.0737483" lon="12.7495433"><ele>330.0</ele><time>2026-05-06T07:50:33.564Z</time></trkpt><trkpt lat="38.0737833" lon="12.7493733"><ele>330.0</ele><time>2026-05-06T07:50:34.565Z</time></trkpt><trkpt lat="38.0738183" lon="12.7492"><ele>330.0</ele><time>2026-05-06T07:50:35.564Z</time></trkpt><trkpt lat="38.073855" lon="12.7490283"><ele>330.0</ele><time>2026-05-06T07:50:36.564Z</time></trkpt><trkpt lat="38.0738933" lon="12.7488567"><ele>330.0</ele><time>2026-05-06T07:50:37.564Z</time></trkpt><trkpt lat="38.07393" lon="12.7486867"><ele>331.5</ele><time>2026-05-06T07:50:38.565Z</time></trkpt><trkpt lat="38.0739667" lon="12.74852"><ele>333.0</ele><time>2026-05-06T07:50:39.564Z</time></trkpt><trkpt lat="38.0740017" lon="12.74835"><ele>334.5</ele><time>2026-05-06T07:50:40.564Z</time></trkpt><trkpt lat="38.0740383" lon="12.7481833"><ele>336.0</ele><time>2026-05-06T07:50:41.649Z</time></trkpt><trkpt lat="38.074075" lon="12.7480183"><ele>325.25</ele><time>2026-05-06T07:50:42.568Z</time></trkpt><trkpt lat="38.0741133" lon="12.747855"><ele>314.5</ele><time>2026-05-06T07:50:43.564Z</time></trkpt><trkpt lat="38.074145" lon="12.7477033"><ele>303.75</ele><time>2026-05-06T07:50:44.566Z</time></trkpt><trkpt lat="38.0741683" lon="12.7475667"><ele>293.0</ele><time>2026-05-06T07:50:45.564Z</time></trkpt><trkpt lat="38.07419" lon="12.7474417"><ele>293.0</ele><time>2026-05-06T07:50:46.564Z</time></trkpt><trkpt lat="38.0742067" lon="12.74732"><ele>293.0</ele><time>2026-05-06T07:50:47.564Z</time></trkpt><trkpt lat="38.07423" lon="12.74721"><ele>293.0</ele><time>2026-05-06T07:50:48.564Z</time></trkpt><trkpt lat="38.07425" lon="12.7471133"><ele>293.0</ele><time>2026-05-06T07:50:49.564Z</time></trkpt><trkpt lat="38.0742733" lon="12.74702"><ele>293.0</ele><time>2026-05-06T07:50:50.564Z</time></trkpt><trkpt lat="38.0742917" lon="12.746935"><ele>293.0</ele><time>2026-05-06T07:50:51.564Z</time></trkpt><trkpt lat="38.07432" lon="12.7468617"><ele>293.0</ele><time>2026-05-06T07:50:52.564Z</time></trkpt><trkpt lat="38.0743833" lon="12.746765"><ele>293.0</ele><time>2026-05-06T07:50:54.565Z</time></trkpt><trkpt lat="38.0744433" lon="12.7466983"><ele>293.0</ele><time>2026-05-06T07:50:56.565Z</time></trkpt><trkpt lat="38.0745" lon="12.74665"><ele>293.0</ele><time>2026-05-06T07:50:58.564Z</time></trkpt><trkpt lat="38.0745633" lon="12.7466833"><ele>293.0</ele><time>2026-05-06T07:51:01.564Z</time></trkpt><trkpt lat="38.0746017" lon="12.7468067"><ele>293.0</ele><time>2026-05-06T07:51:03.564Z</time></trkpt><trkpt lat="38.0746183" lon="12.74689"><ele>293.0</ele><time>2026-05-06T07:51:04.565Z</time></trkpt><trkpt lat="38.0746383" lon="12.7469917"><ele>293.0</ele><time>2026-05-06T07:51:05.566Z</time></trkpt><trkpt lat="38.0746583" lon="12.747115"><ele>293.0</ele><time>2026-05-06T07:51:06.567Z</time></trkpt><trkpt lat="38.0746783" lon="12.7472517"><ele>293.0</ele><time>2026-05-06T07:51:07.565Z</time></trkpt><trkpt lat="38.0747017" lon="12.7474017"><ele>293.0</ele><time>2026-05-06T07:51:08.565Z</time></trkpt><trkpt lat="38.0747267" lon="12.7475567"><ele>292.25</ele><time>2026-05-06T07:51:09.563Z</time></trkpt><trkpt lat="38.07475" lon="12.74772"><ele>291.5</ele><time>2026-05-06T07:51:10.567Z</time></trkpt><trkpt lat="38.074775" lon="12.747895"><ele>290.75</ele><time>2026-05-06T07:51:11.566Z</time></trkpt><trkpt lat="38.0748033" lon="12.7480717"><ele>290.0</ele><time>2026-05-06T07:51:12.565Z</time></trkpt><trkpt lat="38.0748333" lon="12.748255"><ele>290.0</ele><time>2026-05-06T07:51:13.566Z</time></trkpt><trkpt lat="38.07486" lon="12.7484517"><ele>290.0</ele><time>2026-05-06T07:51:14.565Z</time></trkpt><trkpt lat="38.0748883" lon="12.7486533"><ele>290.0</ele><time>2026-05-06T07:51:15.563Z</time></trkpt><trkpt lat="38.0749183" lon="12.7488583"><ele>284.0</ele><time>2026-05-06T07:51:16.567Z</time></trkpt><trkpt lat="38.07495" lon="12.7490683"><ele>278.0</ele><time>2026-05-06T07:51:17.566Z</time></trkpt><trkpt lat="38.07498" lon="12.749285"><ele>272.0</ele><time>2026-05-06T07:51:18.565Z</time></trkpt><trkpt lat="38.0750033" lon="12.7494933"><ele>270.0</ele><time>2026-05-06T07:51:19.566Z</time></trkpt><trkpt lat="38.0750217" lon="12.7496967"><ele>268.0</ele><time>2026-05-06T07:51:20.565Z</time></trkpt><trkpt lat="38.0750417" lon="12.749895"><ele>266.0</ele><time>2026-05-06T07:51:21.565Z</time></trkpt><trkpt lat="38.0750617" lon="12.75009"><ele>263.33333333333337</ele><time>2026-05-06T07:51:22.565Z</time></trkpt><trkpt lat="38.0750833" lon="12.7502833"><ele>260.6666666666667</ele><time>2026-05-06T07:51:23.566Z</time></trkpt><trkpt lat="38.0751067" lon="12.7504783"><ele>258.0</ele><time>2026-05-06T07:51:24.565Z</time></trkpt><trkpt lat="38.075135" lon="12.7506783"><ele>258.0</ele><time>2026-05-06T07:51:25.565Z</time></trkpt><trkpt lat="38.0751667" lon="12.750875"><ele>258.0</ele><time>2026-05-06T07:51:26.566Z</time></trkpt><trkpt lat="38.0752067" lon="12.7510717"><ele>258.0</ele><time>2026-05-06T07:51:27.565Z</time></trkpt><trkpt lat="38.0752533" lon="12.7512767"><ele>256.3333333333333</ele><time>2026-05-06T07:51:28.565Z</time></trkpt><trkpt lat="38.0753" lon="12.7514867"><ele>254.66666666666666</ele><time>2026-05-06T07:51:29.565Z</time></trkpt><trkpt lat="38.075345" lon="12.7517"><ele>253.0</ele><time>2026-05-06T07:51:30.565Z</time></trkpt><trkpt lat="38.0753917" lon="12.7519117"><ele>252.33333333333331</ele><time>2026-05-06T07:51:31.565Z</time></trkpt><trkpt lat="38.0754383" lon="12.7521217"><ele>251.66666666666669</ele><time>2026-05-06T07:51:32.566Z</time></trkpt><trkpt lat="38.0754867" lon="12.7523333"><ele>251.0</ele><time>2026-05-06T07:51:33.564Z</time></trkpt><trkpt lat="38.0755317" lon="12.7525433"><ele>252.33333333333334</ele><time>2026-05-06T07:51:34.565Z</time></trkpt><trkpt lat="38.0755783" lon="12.752755"><ele>253.66666666666669</ele><time>2026-05-06T07:51:35.566Z</time></trkpt><trkpt lat="38.075625" lon="12.7529633"><ele>255.0</ele><time>2026-05-06T07:51:36.565Z</time></trkpt><trkpt lat="38.0756733" lon="12.75317"><ele>255.0</ele><time>2026-05-06T07:51:37.564Z</time></trkpt><trkpt lat="38.07572" lon="12.7533733"><ele>255.0</ele><time>2026-05-06T07:51:38.566Z</time></trkpt><trkpt lat="38.07577" lon="12.753575"><ele>255.0</ele><time>2026-05-06T07:51:39.565Z</time></trkpt><trkpt lat="38.075825" lon="12.7537733"><ele>248.66666666666669</ele><time>2026-05-06T07:51:40.564Z</time></trkpt><trkpt lat="38.0758833" lon="12.7539667"><ele>242.33333333333334</ele><time>2026-05-06T07:51:41.565Z</time></trkpt><trkpt lat="38.0759533" lon="12.7541517"><ele>236.0</ele><time>2026-05-06T07:51:42.564Z</time></trkpt><trkpt lat="38.0760283" lon="12.7543317"><ele>235.33333333333334</ele><time>2026-05-06T07:51:43.563Z</time></trkpt><trkpt lat="38.0761083" lon="12.7545067"><ele>234.66666666666669</ele><time>2026-05-06T07:51:44.564Z</time></trkpt><trkpt lat="38.0761933" lon="12.7546767"><ele>234.0</ele><time>2026-05-06T07:51:45.564Z</time></trkpt><trkpt lat="38.076285" lon="12.7548417"><ele>234.0</ele><time>2026-05-06T07:51:46.564Z</time></trkpt><trkpt lat="38.0763817" lon="12.755"><ele>234.0</ele><time>2026-05-06T07:51:47.564Z</time></trkpt><trkpt lat="38.0764817" lon="12.7551517"><ele>234.0</ele><time>2026-05-06T07:51:48.563Z</time></trkpt><trkpt lat="38.07659" lon="12.7552967"><ele>228.33333333333331</ele><time>2026-05-06T07:51:49.564Z</time></trkpt><trkpt lat="38.0767033" lon="12.7554317"><ele>222.66666666666666</ele><time>2026-05-06T07:51:50.565Z</time></trkpt><trkpt lat="38.0768233" lon="12.7555617"><ele>217.0</ele><time>2026-05-06T07:51:51.563Z</time></trkpt><trkpt lat="38.0769467" lon="12.75569"><ele>217.0</ele><time>2026-05-06T07:51:52.57Z</time></trkpt><trkpt lat="38.0770783" lon="12.755815"><ele>217.0</ele><time>2026-05-06T07:51:53.564Z</time></trkpt><trkpt lat="38.0772183" lon="12.75593"><ele>217.0</ele><time>2026-05-06T07:51:54.565Z</time></trkpt><trkpt lat="38.0773667" lon="12.7560417"><ele>212.33333333333331</ele><time>2026-05-06T07:51:55.563Z</time></trkpt><trkpt lat="38.07752" lon="12.7561483"><ele>207.66666666666669</ele><time>2026-05-06T07:51:56.565Z</time></trkpt><trkpt lat="38.0776817" lon="12.756245"><ele>203.0</ele><time>2026-05-06T07:51:57.563Z</time></trkpt><trkpt lat="38.0778533" lon="12.756325"><ele>203.0</ele><time>2026-05-06T07:51:58.565Z</time></trkpt><trkpt lat="38.0780267" lon="12.7564"><ele>203.0</ele><time>2026-05-06T07:51:59.565Z</time></trkpt><trkpt lat="38.0781967" lon="12.7564667"><ele>203.0</ele><time>2026-05-06T07:52:00.564Z</time></trkpt><trkpt lat="38.0783683" lon="12.7565133"><ele>201.0</ele><time>2026-05-06T07:52:01.563Z</time></trkpt><trkpt lat="38.0785383" lon="12.7565467"><ele>199.0</ele><time>2026-05-06T07:52:02.564Z</time></trkpt><trkpt lat="38.078705" lon="12.7565733"><ele>197.0</ele><time>2026-05-06T07:52:03.565Z</time></trkpt><trkpt lat="38.0788683" lon="12.756595"><ele>197.0</ele><time>2026-05-06T07:52:04.564Z</time></trkpt><trkpt lat="38.079035" lon="12.7566033"><ele>197.0</ele><time>2026-05-06T07:52:05.564Z</time></trkpt><trkpt lat="38.0792" lon="12.7565983"><ele>197.0</ele><time>2026-05-06T07:52:06.564Z</time></trkpt><trkpt lat="38.0793667" lon="12.7565733"><ele>198.33333333333334</ele><time>2026-05-06T07:52:07.564Z</time></trkpt><trkpt lat="38.0795333" lon="12.756535"><ele>199.66666666666669</ele><time>2026-05-06T07:52:08.565Z</time></trkpt><trkpt lat="38.0797033" lon="12.75649"><ele>201.0</ele><time>2026-05-06T07:52:09.565Z</time></trkpt><trkpt lat="38.079875" lon="12.75644"><ele>205.0</ele><time>2026-05-06T07:52:10.564Z</time></trkpt><trkpt lat="38.0800517" lon="12.75639"><ele>209.0</ele><time>2026-05-06T07:52:11.565Z</time></trkpt><trkpt lat="38.0805717" lon="12.7563"><ele>209.0</ele><time>2026-05-06T07:52:14.566Z</time></trkpt><trkpt lat="38.0807483" lon="12.7562333"><ele>209.0</ele><time>2026-05-06T07:52:15.564Z</time></trkpt><trkpt lat="38.08095" lon="12.7561817"><ele>209.0</ele><time>2026-05-06T07:52:16.565Z</time></trkpt><trkpt lat="38.081155" lon="12.756125"><ele>211.33333333333334</ele><time>2026-05-06T07:52:17.566Z</time></trkpt><trkpt lat="38.0813617" lon="12.756065"><ele>213.66666666666669</ele><time>2026-05-06T07:52:18.565Z</time></trkpt><trkpt lat="38.08157" lon="12.75601"><ele>216.0</ele><time>2026-05-06T07:52:19.566Z</time></trkpt><trkpt lat="38.0817817" lon="12.7559533"><ele>208.0</ele><time>2026-05-06T07:52:20.564Z</time></trkpt><trkpt lat="38.081995" lon="12.7558933"><ele>200.0</ele><time>2026-05-06T07:52:21.565Z</time></trkpt><trkpt lat="38.0822117" lon="12.7558333"><ele>192.0</ele><time>2026-05-06T07:52:22.565Z</time></trkpt><trkpt lat="38.0824333" lon="12.7557733"><ele>192.0</ele><time>2026-05-06T07:52:23.566Z</time></trkpt><trkpt lat="38.0826483" lon="12.7557117"><ele>192.0</ele><time>2026-05-06T07:52:24.566Z</time></trkpt><trkpt lat="38.0828617" lon="12.7556483"><ele>192.0</ele><time>2026-05-06T07:52:25.566Z</time></trkpt><trkpt lat="38.08306" lon="12.7555867"><ele>192.0</ele><time>2026-05-06T07:52:26.566Z</time></trkpt><trkpt lat="38.0832483" lon="12.7555283"><ele>192.0</ele><time>2026-05-06T07:52:27.565Z</time></trkpt><trkpt lat="38.08343" lon="12.7554683"><ele>192.0</ele><time>2026-05-06T07:52:28.565Z</time></trkpt><trkpt lat="38.083605" lon="12.7554067"><ele>193.0</ele><time>2026-05-06T07:52:29.563Z</time></trkpt><trkpt lat="38.083775" lon="12.75535"><ele>194.0</ele><time>2026-05-06T07:52:30.564Z</time></trkpt><trkpt lat="38.083935" lon="12.7552933"><ele>195.0</ele><time>2026-05-06T07:52:31.564Z</time></trkpt><trkpt lat="38.0840883" lon="12.75524"><ele>189.0</ele><time>2026-05-06T07:52:32.566Z</time></trkpt><trkpt lat="38.0842367" lon="12.755185"><ele>183.0</ele><time>2026-05-06T07:52:33.564Z</time></trkpt><trkpt lat="38.0843867" lon="12.75513"><ele>177.0</ele><time>2026-05-06T07:52:34.566Z</time></trkpt><trkpt lat="38.0845383" lon="12.755075"><ele>177.0</ele><time>2026-05-06T07:52:35.564Z</time></trkpt><trkpt lat="38.0846917" lon="12.75502"><ele>177.0</ele><time>2026-05-06T07:52:36.563Z</time></trkpt><trkpt lat="38.0848483" lon="12.7549617"><ele>177.0</ele><time>2026-05-06T07:52:37.564Z</time></trkpt><trkpt lat="38.085005" lon="12.7549033"><ele>177.66666666666666</ele><time>2026-05-06T07:52:38.564Z</time></trkpt><trkpt lat="38.0851667" lon="12.75485"><ele>178.33333333333331</ele><time>2026-05-06T07:52:39.564Z</time></trkpt><trkpt lat="38.08533" lon="12.754795"><ele>179.0</ele><time>2026-05-06T07:52:40.563Z</time></trkpt><trkpt lat="38.0854983" lon="12.7547383"><ele>179.0</ele><time>2026-05-06T07:52:41.563Z</time></trkpt><trkpt lat="38.0856683" lon="12.75468"><ele>179.0</ele><time>2026-05-06T07:52:42.564Z</time></trkpt><trkpt lat="38.08584" lon="12.7546183"><ele>179.0</ele><time>2026-05-06T07:52:43.565Z</time></trkpt><trkpt lat="38.0860167" lon="12.7545583"><ele>180.66666666666666</ele><time>2026-05-06T07:52:44.565Z</time></trkpt><trkpt lat="38.0861967" lon="12.754495"><ele>182.33333333333334</ele><time>2026-05-06T07:52:45.564Z</time></trkpt><trkpt lat="38.0863717" lon="12.7544267"><ele>184.0</ele><time>2026-05-06T07:52:46.564Z</time></trkpt><trkpt lat="38.0865383" lon="12.7543567"><ele>182.0</ele><time>2026-05-06T07:52:47.565Z</time></trkpt><trkpt lat="38.0866933" lon="12.7542833"><ele>180.0</ele><time>2026-05-06T07:52:48.563Z</time></trkpt><trkpt lat="38.0868333" lon="12.754215"><ele>178.0</ele><time>2026-05-06T07:52:49.563Z</time></trkpt><trkpt lat="38.086955" lon="12.7541517"><ele>176.0</ele><time>2026-05-06T07:52:50.563Z</time></trkpt><trkpt lat="38.08706" lon="12.7540967"><ele>176.0</ele><time>2026-05-06T07:52:51.564Z</time></trkpt><trkpt lat="38.0871533" lon="12.7540433"><ele>176.0</ele><time>2026-05-06T07:52:52.563Z</time></trkpt><trkpt lat="38.0872433" lon="12.7539867"><ele>176.0</ele><time>2026-05-06T07:52:53.565Z</time></trkpt><trkpt lat="38.0873283" lon="12.7539333"><ele>176.0</ele><time>2026-05-06T07:52:54.564Z</time></trkpt><trkpt lat="38.0874067" lon="12.7538817"><ele>176.0</ele><time>2026-05-06T07:52:55.565Z</time></trkpt><trkpt lat="38.0874833" lon="12.7538283"><ele>177.66666666666666</ele><time>2026-05-06T07:52:56.564Z</time></trkpt><trkpt lat="38.0875533" lon="12.7537733"><ele>179.33333333333331</ele><time>2026-05-06T07:52:57.563Z</time></trkpt><trkpt lat="38.0876183" lon="12.753715"><ele>181.0</ele><time>2026-05-06T07:52:58.564Z</time></trkpt><trkpt lat="38.0876883" lon="12.7536517"><ele>182.66666666666666</ele><time>2026-05-06T07:52:59.564Z</time></trkpt><trkpt lat="38.0877667" lon="12.7535833"><ele>184.33333333333334</ele><time>2026-05-06T07:53:00.564Z</time></trkpt><trkpt lat="38.08785" lon="12.7535167"><ele>186.0</ele><time>2026-05-06T07:53:01.564Z</time></trkpt><trkpt lat="38.087935" lon="12.75345"><ele>184.60000000000002</ele><time>2026-05-06T07:53:02.564Z</time></trkpt><trkpt lat="38.0880183" lon="12.7533833"><ele>183.2</ele><time>2026-05-06T07:53:03.564Z</time></trkpt><trkpt lat="38.0881" lon="12.753315"><ele>181.8</ele><time>2026-05-06T07:53:04.564Z</time></trkpt><trkpt lat="38.0881917" lon="12.753245"><ele>180.39999999999998</ele><time>2026-05-06T07:53:05.565Z</time></trkpt><trkpt lat="38.08829" lon="12.7531733"><ele>179.0</ele><time>2026-05-06T07:53:06.565Z</time></trkpt><trkpt lat="38.0883917" lon="12.753095"><ele>179.0</ele><time>2026-05-06T07:53:07.563Z</time></trkpt><trkpt lat="38.0884883" lon="12.7530117"><ele>179.0</ele><time>2026-05-06T07:53:08.565Z</time></trkpt><trkpt lat="38.0885783" lon="12.752925"><ele>179.0</ele><time>2026-05-06T07:53:09.563Z</time></trkpt><trkpt lat="38.0886683" lon="12.7528333"><ele>179.0</ele><time>2026-05-06T07:53:10.564Z</time></trkpt><trkpt lat="38.0887667" lon="12.7527367"><ele>176.75</ele><time>2026-05-06T07:53:11.562Z</time></trkpt><trkpt lat="38.08887" lon="12.7526367"><ele>174.5</ele><time>2026-05-06T07:53:12.563Z</time></trkpt><trkpt lat="38.0889783" lon="12.752535"><ele>172.25</ele><time>2026-05-06T07:53:13.563Z</time></trkpt><trkpt lat="38.0890883" lon="12.7524317"><ele>170.0</ele><time>2026-05-06T07:53:14.565Z</time></trkpt><trkpt lat="38.0892017" lon="12.752325"><ele>170.0</ele><time>2026-05-06T07:53:15.563Z</time></trkpt><trkpt lat="38.0893167" lon="12.752215"><ele>170.0</ele><time>2026-05-06T07:53:16.564Z</time></trkpt><trkpt lat="38.0894317" lon="12.7521067"><ele>170.0</ele><time>2026-05-06T07:53:17.564Z</time></trkpt><trkpt lat="38.08955" lon="12.7520083"><ele>170.0</ele><time>2026-05-06T07:53:18.564Z</time></trkpt><trkpt lat="38.0896733" lon="12.7519133"><ele>166.5</ele><time>2026-05-06T07:53:19.564Z</time></trkpt><trkpt lat="38.0898" lon="12.7518167"><ele>163.0</ele><time>2026-05-06T07:53:20.565Z</time></trkpt><trkpt lat="38.0899233" lon="12.7517083"><ele>159.5</ele><time>2026-05-06T07:53:21.563Z</time></trkpt><trkpt lat="38.0900433" lon="12.7515967"><ele>156.0</ele><time>2026-05-06T07:53:22.564Z</time></trkpt><trkpt lat="38.09016" lon="12.75148"><ele>156.0</ele><time>2026-05-06T07:53:23.564Z</time></trkpt><trkpt lat="38.09027" lon="12.75136"><ele>156.0</ele><time>2026-05-06T07:53:24.564Z</time></trkpt><trkpt lat="38.0903767" lon="12.7512283"><ele>156.0</ele><time>2026-05-06T07:53:25.564Z</time></trkpt><trkpt lat="38.0904783" lon="12.7510833"><ele>156.0</ele><time>2026-05-06T07:53:26.564Z</time></trkpt><trkpt lat="38.090575" lon="12.7509283"><ele>155.33333333333334</ele><time>2026-05-06T07:53:27.564Z</time></trkpt><trkpt lat="38.0906617" lon="12.75076"><ele>154.66666666666669</ele><time>2026-05-06T07:53:28.563Z</time></trkpt><trkpt lat="38.0907417" lon="12.7505817"><ele>154.0</ele><time>2026-05-06T07:53:29.564Z</time></trkpt><trkpt lat="38.090815" lon="12.7503933"><ele>149.66666666666669</ele><time>2026-05-06T07:53:30.564Z</time></trkpt><trkpt lat="38.0908883" lon="12.75019"><ele>145.33333333333334</ele><time>2026-05-06T07:53:31.563Z</time></trkpt><trkpt lat="38.0909617" lon="12.7499717"><ele>141.0</ele><time>2026-05-06T07:53:32.564Z</time></trkpt><trkpt lat="38.0910383" lon="12.7497483"><ele>141.0</ele><time>2026-05-06T07:53:33.565Z</time></trkpt><trkpt lat="38.091115" lon="12.7495283"><ele>141.0</ele><time>2026-05-06T07:53:34.564Z</time></trkpt><trkpt lat="38.0911883" lon="12.7493133"><ele>141.0</ele><time>2026-05-06T07:53:35.564Z</time></trkpt><trkpt lat="38.0912567" lon="12.7491117"><ele>139.0</ele><time>2026-05-06T07:53:36.564Z</time></trkpt><trkpt lat="38.09132" lon="12.7489317"><ele>137.0</ele><time>2026-05-06T07:53:37.565Z</time></trkpt><trkpt lat="38.0913783" lon="12.7487683"><ele>135.0</ele><time>2026-05-06T07:53:38.565Z</time></trkpt><trkpt lat="38.0914367" lon="12.74861"><ele>133.0</ele><time>2026-05-06T07:53:39.564Z</time></trkpt><trkpt lat="38.0914967" lon="12.7484567"><ele>133.5</ele><time>2026-05-06T07:53:40.564Z</time></trkpt><trkpt lat="38.0915567" lon="12.7483067"><ele>134.0</ele><time>2026-05-06T07:53:41.564Z</time></trkpt><trkpt lat="38.0916217" lon="12.74816"><ele>134.5</ele><time>2026-05-06T07:53:42.563Z</time></trkpt><trkpt lat="38.0916833" lon="12.748025"><ele>135.0</ele><time>2026-05-06T07:53:43.565Z</time></trkpt><trkpt lat="38.09174" lon="12.7479067"><ele>135.0</ele><time>2026-05-06T07:53:44.567Z</time></trkpt><trkpt lat="38.0917883" lon="12.74781"><ele>135.0</ele><time>2026-05-06T07:53:45.565Z</time></trkpt><trkpt lat="38.09183" lon="12.7477233"><ele>135.0</ele><time>2026-05-06T07:53:46.565Z</time></trkpt><trkpt lat="38.0918717" lon="12.74764"><ele>135.0</ele><time>2026-05-06T07:53:47.564Z</time></trkpt><trkpt lat="38.0919117" lon="12.747555"><ele>135.0</ele><time>2026-05-06T07:53:48.564Z</time></trkpt><trkpt lat="38.09195" lon="12.7474717"><ele>135.0</ele><time>2026-05-06T07:53:49.566Z</time></trkpt><trkpt lat="38.0919833" lon="12.747395"><ele>133.5</ele><time>2026-05-06T07:53:50.567Z</time></trkpt><trkpt lat="38.09204" lon="12.74727"><ele>132.0</ele><time>2026-05-06T07:53:52.563Z</time></trkpt><trkpt lat="38.0920817" lon="12.7472"><ele>130.5</ele><time>2026-05-06T07:53:54.565Z</time></trkpt><trkpt lat="38.092115" lon="12.7471117"><ele>129.0</ele><time>2026-05-06T07:53:58.563Z</time></trkpt><trkpt lat="38.0921383" lon="12.7470183"><ele>127.5</ele><time>2026-05-06T07:54:02.564Z</time></trkpt><trkpt lat="38.0920883" lon="12.7469583"><ele>126.0</ele><time>2026-05-06T07:54:04.563Z</time></trkpt><trkpt lat="38.0920117" lon="12.7469133"><ele>126.0</ele><time>2026-05-06T07:54:06.565Z</time></trkpt><trkpt lat="38.0919483" lon="12.7468883"><ele>126.0</ele><time>2026-05-06T07:54:08.565Z</time></trkpt><trkpt lat="38.0918783" lon="12.74693"><ele>126.0</ele><time>2026-05-06T07:54:10.563Z</time></trkpt><trkpt lat="38.09183" lon="12.746985"><ele>126.0</ele><time>2026-05-06T07:54:11.564Z</time></trkpt><trkpt lat="38.0917767" lon="12.7470417"><ele>126.0</ele><time>2026-05-06T07:54:12.563Z</time></trkpt><trkpt lat="38.0917133" lon="12.74711"><ele>126.0</ele><time>2026-05-06T07:54:13.564Z</time></trkpt><trkpt lat="38.0916467" lon="12.747195"><ele>126.4</ele><time>2026-05-06T07:54:14.563Z</time></trkpt><trkpt lat="38.0915717" lon="12.7472767"><ele>126.8</ele><time>2026-05-06T07:54:15.564Z</time></trkpt><trkpt lat="38.09149" lon="12.74736"><ele>127.20000000000002</ele><time>2026-05-06T07:54:16.567Z</time></trkpt><trkpt lat="38.091405" lon="12.747435"><ele>127.60000000000001</ele><time>2026-05-06T07:54:17.563Z</time></trkpt><trkpt lat="38.0913233" lon="12.7475117"><ele>128.0</ele><time>2026-05-06T07:54:18.564Z</time></trkpt><trkpt lat="38.09125" lon="12.74758"><ele>127.99999999999999</ele><time>2026-05-06T07:54:19.562Z</time></trkpt><trkpt lat="38.0911883" lon="12.7476383"><ele>128.0</ele><time>2026-05-06T07:54:20.564Z</time></trkpt><trkpt lat="38.09109" lon="12.7476833"><ele>128.0</ele><time>2026-05-06T07:54:22.563Z</time></trkpt><trkpt lat="38.091" lon="12.747645"><ele>128.0</ele><time>2026-05-06T07:54:24.563Z</time></trkpt><trkpt lat="38.090935" lon="12.74754"><ele>127.99999999999999</ele><time>2026-05-06T07:54:26.564Z</time></trkpt><trkpt lat="38.090935" lon="12.7474567"><ele>128.0</ele><time>2026-05-06T07:54:27.563Z</time></trkpt><trkpt lat="38.0909417" lon="12.7473617"><ele>127.99999999999999</ele><time>2026-05-06T07:54:28.564Z</time></trkpt><trkpt lat="38.0909467" lon="12.7472517"><ele>128.0</ele><time>2026-05-06T07:54:29.564Z</time></trkpt><trkpt lat="38.090955" lon="12.7471417"><ele>128.0</ele><time>2026-05-06T07:54:30.564Z</time></trkpt><trkpt lat="38.0909683" lon="12.74704"><ele>128.0</ele><time>2026-05-06T07:54:31.564Z</time></trkpt><trkpt lat="38.090985" lon="12.7469383"><ele>127.99999999999999</ele><time>2026-05-06T07:54:32.565Z</time></trkpt><trkpt lat="38.0909933" lon="12.7468333"><ele>128.0</ele><time>2026-05-06T07:54:33.562Z</time></trkpt><trkpt lat="38.0909983" lon="12.746715"><ele>127.2</ele><time>2026-05-06T07:54:34.564Z</time></trkpt><trkpt lat="38.091" lon="12.7465917"><ele>126.4</ele><time>2026-05-06T07:54:35.564Z</time></trkpt><trkpt lat="38.091" lon="12.7464667"><ele>125.60000000000001</ele><time>2026-05-06T07:54:36.563Z</time></trkpt><trkpt lat="38.090995" lon="12.7463533"><ele>124.80000000000001</ele><time>2026-05-06T07:54:37.564Z</time></trkpt><trkpt lat="38.0909833" lon="12.746245"><ele>124.0</ele><time>2026-05-06T07:54:38.564Z</time></trkpt><trkpt lat="38.09097" lon="12.7461333"><ele>123.4</ele><time>2026-05-06T07:54:39.565Z</time></trkpt><trkpt lat="38.0909567" lon="12.7460167"><ele>122.80000000000001</ele><time>2026-05-06T07:54:40.564Z</time></trkpt><trkpt lat="38.0909633" lon="12.7459017"><ele>122.19999999999999</ele><time>2026-05-06T07:54:41.565Z</time></trkpt><trkpt lat="38.0909833" lon="12.7457817"><ele>121.6</ele><time>2026-05-06T07:54:42.564Z</time></trkpt><trkpt lat="38.0910133" lon="12.7456583"><ele>121.0</ele><time>2026-05-06T07:54:43.564Z</time></trkpt><trkpt lat="38.0910417" lon="12.74554"><ele>121.0</ele><time>2026-05-06T07:54:44.564Z</time></trkpt><trkpt lat="38.0910733" lon="12.7454333"><ele>121.0</ele><time>2026-05-06T07:54:45.565Z</time></trkpt><trkpt lat="38.0911117" lon="12.74533"><ele>121.0</ele><time>2026-05-06T07:54:46.563Z</time></trkpt><trkpt lat="38.0911533" lon="12.74522"><ele>121.0</ele><time>2026-05-06T07:54:47.562Z</time></trkpt><trkpt lat="38.0911867" lon="12.7450983"><ele>121.0</ele><time>2026-05-06T07:54:48.565Z</time></trkpt><trkpt lat="38.0912117" lon="12.7449683"><ele>120.6</ele><time>2026-05-06T07:54:49.562Z</time></trkpt><trkpt lat="38.0912233" lon="12.74484"><ele>120.19999999999999</ele><time>2026-05-06T07:54:50.565Z</time></trkpt><trkpt lat="38.0912317" lon="12.7447183"><ele>119.80000000000001</ele><time>2026-05-06T07:54:51.564Z</time></trkpt><trkpt lat="38.09124" lon="12.7446033"><ele>119.4</ele><time>2026-05-06T07:54:52.562Z</time></trkpt><trkpt lat="38.0912483" lon="12.7444867"><ele>119.0</ele><time>2026-05-06T07:54:53.563Z</time></trkpt><trkpt lat="38.0912583" lon="12.744365"><ele>118.4</ele><time>2026-05-06T07:54:54.563Z</time></trkpt><trkpt lat="38.0912717" lon="12.74424"><ele>117.80000000000001</ele><time>2026-05-06T07:54:55.564Z</time></trkpt><trkpt lat="38.0912817" lon="12.7441133"><ele>117.19999999999999</ele><time>2026-05-06T07:54:56.565Z</time></trkpt><trkpt lat="38.0912833" lon="12.7439867"><ele>116.6</ele><time>2026-05-06T07:54:57.564Z</time></trkpt><trkpt lat="38.0912817" lon="12.74386"><ele>116.0</ele><time>2026-05-06T07:54:58.565Z</time></trkpt><trkpt lat="38.0912833" lon="12.74374"><ele>116.0</ele><time>2026-05-06T07:54:59.565Z</time></trkpt><trkpt lat="38.0912967" lon="12.7436317"><ele>116.0</ele><time>2026-05-06T07:55:00.564Z</time></trkpt><trkpt lat="38.091325" lon="12.7435183"><ele>116.0</ele><time>2026-05-06T07:55:01.563Z</time></trkpt><trkpt lat="38.0913617" lon="12.7434083"><ele>116.0</ele><time>2026-05-06T07:55:02.565Z</time></trkpt><trkpt lat="38.0913967" lon="12.7433033"><ele>116.0</ele><time>2026-05-06T07:55:03.563Z</time></trkpt><trkpt lat="38.0914217" lon="12.7431967"><ele>115.4</ele><time>2026-05-06T07:55:04.566Z</time></trkpt><trkpt lat="38.0914333" lon="12.7430883"><ele>114.8</ele><time>2026-05-06T07:55:05.563Z</time></trkpt><trkpt lat="38.09143" lon="12.74298"><ele>114.20000000000002</ele><time>2026-05-06T07:55:06.565Z</time></trkpt><trkpt lat="38.0914267" lon="12.7428633"><ele>113.60000000000001</ele><time>2026-05-06T07:55:07.565Z</time></trkpt><trkpt lat="38.091435" lon="12.742745"><ele>113.0</ele><time>2026-05-06T07:55:08.565Z</time></trkpt><trkpt lat="38.0914517" lon="12.7426283"><ele>112.83333333333333</ele><time>2026-05-06T07:55:09.564Z</time></trkpt><trkpt lat="38.0914567" lon="12.7425167"><ele>112.66666666666666</ele><time>2026-05-06T07:55:10.565Z</time></trkpt><trkpt lat="38.091455" lon="12.7424117"><ele>112.5</ele><time>2026-05-06T07:55:11.564Z</time></trkpt><trkpt lat="38.0914583" lon="12.7423167"><ele>112.33333333333334</ele><time>2026-05-06T07:55:12.564Z</time></trkpt><trkpt lat="38.091475" lon="12.742235"><ele>112.16666666666667</ele><time>2026-05-06T07:55:13.565Z</time></trkpt><trkpt lat="38.0915267" lon="12.7421183"><ele>112.0</ele><time>2026-05-06T07:55:15.567Z</time></trkpt><trkpt lat="38.0915717" lon="12.74197"><ele>111.83333333333334</ele><time>2026-05-06T07:55:17.564Z</time></trkpt><trkpt lat="38.0915867" lon="12.7418783"><ele>111.66666666666667</ele><time>2026-05-06T07:55:18.565Z</time></trkpt><trkpt lat="38.0915933" lon="12.7417767"><ele>111.5</ele><time>2026-05-06T07:55:19.564Z</time></trkpt><trkpt lat="38.091595" lon="12.7416667"><ele>111.33333333333334</ele><time>2026-05-06T07:55:20.564Z</time></trkpt><trkpt lat="38.0915967" lon="12.7415533"><ele>111.16666666666667</ele><time>2026-05-06T07:55:21.565Z</time></trkpt><trkpt lat="38.0916067" lon="12.74145"><ele>111.0</ele><time>2026-05-06T07:55:22.564Z</time></trkpt><trkpt lat="38.0916183" lon="12.7413483"><ele>110.14285714285714</ele><time>2026-05-06T07:55:23.566Z</time></trkpt><trkpt lat="38.0916317" lon="12.74125"><ele>109.28571428571429</ele><time>2026-05-06T07:55:24.564Z</time></trkpt><trkpt lat="38.0916433" lon="12.7411567"><ele>108.42857142857143</ele><time>2026-05-06T07:55:25.563Z</time></trkpt><trkpt lat="38.0916517" lon="12.7410667"><ele>107.57142857142857</ele><time>2026-05-06T07:55:26.565Z</time></trkpt><trkpt lat="38.09165" lon="12.7409817"><ele>106.71428571428572</ele><time>2026-05-06T07:55:27.564Z</time></trkpt><trkpt lat="38.0916417" lon="12.7409"><ele>105.85714285714286</ele><time>2026-05-06T07:55:28.564Z</time></trkpt><trkpt lat="38.0916417" lon="12.7408183"><ele>105.0</ele><time>2026-05-06T07:55:29.565Z</time></trkpt><trkpt lat="38.09165" lon="12.7407367"><ele>104.5</ele><time>2026-05-06T07:55:30.564Z</time></trkpt><trkpt lat="38.0916817" lon="12.7405833"><ele>104.0</ele><time>2026-05-06T07:55:32.564Z</time></trkpt><trkpt lat="38.0916983" lon="12.7404933"><ele>103.5</ele><time>2026-05-06T07:55:33.564Z</time></trkpt><trkpt lat="38.09172" lon="12.7404"><ele>103.0</ele><time>2026-05-06T07:55:34.565Z</time></trkpt><trkpt lat="38.091745" lon="12.740305"><ele>102.5</ele><time>2026-05-06T07:55:35.565Z</time></trkpt><trkpt lat="38.09178" lon="12.7402067"><ele>102.0</ele><time>2026-05-06T07:55:36.563Z</time></trkpt><trkpt lat="38.091815" lon="12.7401033"><ele>101.66666666666667</ele><time>2026-05-06T07:55:37.565Z</time></trkpt><trkpt lat="38.091845" lon="12.74"><ele>101.33333333333334</ele><time>2026-05-06T07:55:38.564Z</time></trkpt><trkpt lat="38.0918733" lon="12.739905"><ele>101.0</ele><time>2026-05-06T07:55:39.564Z</time></trkpt><trkpt lat="38.0919117" lon="12.739815"><ele>100.66666666666667</ele><time>2026-05-06T07:55:40.565Z</time></trkpt><trkpt lat="38.0919567" lon="12.7397267"><ele>100.33333333333334</ele><time>2026-05-06T07:55:41.564Z</time></trkpt><trkpt lat="38.0920067" lon="12.73963"><ele>100.0</ele><time>2026-05-06T07:55:42.566Z</time></trkpt><trkpt lat="38.0920567" lon="12.7395433"><ele>100.00000000000001</ele><time>2026-05-06T07:55:43.565Z</time></trkpt><trkpt lat="38.092115" lon="12.73947"><ele>100.0</ele><time>2026-05-06T07:55:44.565Z</time></trkpt><trkpt lat="38.0921783" lon="12.73941"><ele>100.0</ele><time>2026-05-06T07:55:45.563Z</time></trkpt><trkpt lat="38.0922433" lon="12.73935"><ele>100.0</ele><time>2026-05-06T07:55:46.564Z</time></trkpt><trkpt lat="38.0923" lon="12.7392833"><ele>100.00000000000001</ele><time>2026-05-06T07:55:47.564Z</time></trkpt><trkpt lat="38.0923533" lon="12.7392217"><ele>100.0</ele><time>2026-05-06T07:55:48.563Z</time></trkpt><trkpt lat="38.0924317" lon="12.7391333"><ele>99.33333333333334</ele><time>2026-05-06T07:55:50.565Z</time></trkpt><trkpt lat="38.0924933" lon="12.7390633"><ele>98.66666666666667</ele><time>2026-05-06T07:55:53.566Z</time></trkpt><trkpt lat="38.0925833" lon="12.7391"><ele>98.0</ele><time>2026-05-06T07:55:56.564Z</time></trkpt><trkpt lat="38.0926733" lon="12.7391733"><ele>97.33333333333334</ele><time>2026-05-06T07:55:58.564Z</time></trkpt><trkpt lat="38.0927233" lon="12.7392267"><ele>96.66666666666667</ele><time>2026-05-06T07:55:59.567Z</time></trkpt><trkpt lat="38.092775" lon="12.7392867"><ele>96.0</ele><time>2026-05-06T07:56:00.564Z</time></trkpt><trkpt lat="38.0928333" lon="12.7393483"><ele>96.33333333333333</ele><time>2026-05-06T07:56:01.565Z</time></trkpt><trkpt lat="38.09289" lon="12.73942"><ele>96.66666666666666</ele><time>2026-05-06T07:56:02.564Z</time></trkpt><trkpt lat="38.0929433" lon="12.7394967"><ele>97.0</ele><time>2026-05-06T07:56:03.564Z</time></trkpt><trkpt lat="38.093" lon="12.7395767"><ele>97.33333333333333</ele><time>2026-05-06T07:56:04.565Z</time></trkpt><trkpt lat="38.0930633" lon="12.739655"><ele>97.66666666666666</ele><time>2026-05-06T07:56:05.564Z</time></trkpt><trkpt lat="38.0931217" lon="12.7397283"><ele>98.0</ele><time>2026-05-06T07:56:06.564Z</time></trkpt><trkpt lat="38.0931667" lon="12.739795"><ele>98.0</ele><time>2026-05-06T07:56:07.564Z</time></trkpt><trkpt lat="38.0932517" lon="12.7398817"><ele>98.0</ele><time>2026-05-06T07:56:09.564Z</time></trkpt><trkpt lat="38.0933333" lon="12.73983"><ele>98.0</ele><time>2026-05-06T07:56:11.565Z</time></trkpt><trkpt lat="38.0934333" lon="12.7397317"><ele>98.0</ele><time>2026-05-06T07:56:13.564Z</time></trkpt><trkpt lat="38.0934967" lon="12.7396817"><ele>98.0</ele><time>2026-05-06T07:56:14.564Z</time></trkpt><trkpt lat="38.09357" lon="12.73964"><ele>97.99999999999999</ele><time>2026-05-06T07:56:15.563Z</time></trkpt><trkpt lat="38.0936517" lon="12.7396083"><ele>98.0</ele><time>2026-05-06T07:56:16.564Z</time></trkpt><trkpt lat="38.0937417" lon="12.7395767"><ele>98.0</ele><time>2026-05-06T07:56:17.564Z</time></trkpt><trkpt lat="38.0938317" lon="12.7395433"><ele>98.0</ele><time>2026-05-06T07:56:18.564Z</time></trkpt><trkpt lat="38.0939133" lon="12.739505"><ele>97.99999999999999</ele><time>2026-05-06T07:56:19.564Z</time></trkpt><trkpt lat="38.093985" lon="12.739465"><ele>98.0</ele><time>2026-05-06T07:56:20.563Z</time></trkpt><trkpt lat="38.09405" lon="12.7394283"><ele>97.16666666666666</ele><time>2026-05-06T07:56:21.565Z</time></trkpt><trkpt lat="38.094115" lon="12.7393833"><ele>96.33333333333333</ele><time>2026-05-06T07:56:22.565Z</time></trkpt><trkpt lat="38.0941833" lon="12.7393267"><ele>95.5</ele><time>2026-05-06T07:56:23.564Z</time></trkpt><trkpt lat="38.09426" lon="12.7392717"><ele>94.66666666666666</ele><time>2026-05-06T07:56:24.564Z</time></trkpt><trkpt lat="38.0943383" lon="12.7392217"><ele>93.83333333333333</ele><time>2026-05-06T07:56:25.564Z</time></trkpt><trkpt lat="38.09442" lon="12.7391667"><ele>93.0</ele><time>2026-05-06T07:56:26.565Z</time></trkpt><trkpt lat="38.094505" lon="12.739125"><ele>93.0</ele><time>2026-05-06T07:56:27.565Z</time></trkpt><trkpt lat="38.0945817" lon="12.73908"><ele>93.0</ele><time>2026-05-06T07:56:28.563Z</time></trkpt><trkpt lat="38.0946567" lon="12.739025"><ele>93.0</ele><time>2026-05-06T07:56:29.565Z</time></trkpt><trkpt lat="38.0947267" lon="12.7389583"><ele>93.0</ele><time>2026-05-06T07:56:30.564Z</time></trkpt><trkpt lat="38.09479" lon="12.7388783"><ele>93.0</ele><time>2026-05-06T07:56:31.565Z</time></trkpt><trkpt lat="38.09485" lon="12.738795"><ele>93.0</ele><time>2026-05-06T07:56:32.565Z</time></trkpt><trkpt lat="38.094915" lon="12.73872"><ele>92.5</ele><time>2026-05-06T07:56:33.564Z</time></trkpt><trkpt lat="38.094985" lon="12.738655"><ele>92.0</ele><time>2026-05-06T07:56:34.566Z</time></trkpt><trkpt lat="38.0950583" lon="12.7385933"><ele>91.5</ele><time>2026-05-06T07:56:35.564Z</time></trkpt><trkpt lat="38.0951233" lon="12.7385383"><ele>91.0</ele><time>2026-05-06T07:56:36.564Z</time></trkpt><trkpt lat="38.0951883" lon="12.7384767"><ele>90.5</ele><time>2026-05-06T07:56:37.564Z</time></trkpt><trkpt lat="38.09525" lon="12.7384117"><ele>90.0</ele><time>2026-05-06T07:56:38.564Z</time></trkpt><trkpt lat="38.09531" lon="12.73834"><ele>89.6</ele><time>2026-05-06T07:56:39.564Z</time></trkpt><trkpt lat="38.0953667" lon="12.73826"><ele>89.2</ele><time>2026-05-06T07:56:40.564Z</time></trkpt><trkpt lat="38.095425" lon="12.7381783"><ele>88.80000000000001</ele><time>2026-05-06T07:56:41.565Z</time></trkpt><trkpt lat="38.0954867" lon="12.7380867"><ele>88.4</ele><time>2026-05-06T07:56:42.563Z</time></trkpt><trkpt lat="38.0955533" lon="12.7379917"><ele>88.0</ele><time>2026-05-06T07:56:43.565Z</time></trkpt><trkpt lat="38.0956183" lon="12.7379017"><ele>88.0</ele><time>2026-05-06T07:56:44.564Z</time></trkpt><trkpt lat="38.0956783" lon="12.737815"><ele>88.0</ele><time>2026-05-06T07:56:45.564Z</time></trkpt><trkpt lat="38.095735" lon="12.7377317"><ele>88.0</ele><time>2026-05-06T07:56:46.569Z</time></trkpt><trkpt lat="38.0957967" lon="12.7376483"><ele>88.0</ele><time>2026-05-06T07:56:47.565Z</time></trkpt><trkpt lat="38.0958567" lon="12.7375567"><ele>88.0</ele><time>2026-05-06T07:56:48.565Z</time></trkpt><trkpt lat="38.0959167" lon="12.7374533"><ele>87.2</ele><time>2026-05-06T07:56:49.564Z</time></trkpt><trkpt lat="38.095975" lon="12.737345"><ele>86.4</ele><time>2026-05-06T07:56:50.563Z</time></trkpt><trkpt lat="38.0960367" lon="12.7372267"><ele>85.60000000000001</ele><time>2026-05-06T07:56:51.563Z</time></trkpt><trkpt lat="38.09609" lon="12.7371083"><ele>84.80000000000001</ele><time>2026-05-06T07:56:52.564Z</time></trkpt><trkpt lat="38.0961383" lon="12.7369983"><ele>84.0</ele><time>2026-05-06T07:56:53.564Z</time></trkpt><trkpt lat="38.096185" lon="12.7368983"><ele>83.80000000000001</ele><time>2026-05-06T07:56:54.564Z</time></trkpt><trkpt lat="38.0962467" lon="12.7368033"><ele>83.60000000000001</ele><time>2026-05-06T07:56:55.565Z</time></trkpt><trkpt lat="38.0963187" lon="12.7367061"><ele>83.4</ele><time>2026-05-06T07:56:56.565Z</time></trkpt><trkpt lat="38.0963952" lon="12.7366135"><ele>83.2</ele><time>2026-05-06T07:56:57.564Z</time></trkpt><trkpt lat="38.0964703" lon="12.7365221"><ele>83.0</ele><time>2026-05-06T07:56:58.564Z</time></trkpt><trkpt lat="38.0965504" lon="12.7364352"><ele>82.2</ele><time>2026-05-06T07:56:59.564Z</time></trkpt><trkpt lat="38.096636" lon="12.7363524"><ele>81.4</ele><time>2026-05-06T07:57:00.563Z</time></trkpt><trkpt lat="38.096719" lon="12.7362699"><ele>80.60000000000001</ele><time>2026-05-06T07:57:01.563Z</time></trkpt><trkpt lat="38.0967957" lon="12.7361945"><ele>79.80000000000001</ele><time>2026-05-06T07:57:02.565Z</time></trkpt><trkpt lat="38.0968711" lon="12.7361299"><ele>79.0</ele><time>2026-05-06T07:57:03.564Z</time></trkpt><trkpt lat="38.0969574" lon="12.7360742"><ele>79.0</ele><time>2026-05-06T07:57:04.565Z</time></trkpt><trkpt lat="38.0970509" lon="12.7360156"><ele>79.0</ele><time>2026-05-06T07:57:05.564Z</time></trkpt><trkpt lat="38.0971398" lon="12.735959"><ele>79.0</ele><time>2026-05-06T07:57:06.565Z</time></trkpt><trkpt lat="38.0972222" lon="12.7359157"><ele>79.0</ele><time>2026-05-06T07:57:07.564Z</time></trkpt><trkpt lat="38.0973016" lon="12.7358743"><ele>79.0</ele><time>2026-05-06T07:57:08.564Z</time></trkpt><trkpt lat="38.0973789" lon="12.7358186"><ele>78.2</ele><time>2026-05-06T07:57:09.565Z</time></trkpt><trkpt lat="38.0974543" lon="12.7357611"><ele>77.4</ele><time>2026-05-06T07:57:10.565Z</time></trkpt><trkpt lat="38.0975236" lon="12.7357056"><ele>76.6</ele><time>2026-05-06T07:57:11.564Z</time></trkpt><trkpt lat="38.0975952" lon="12.7356452"><ele>75.8</ele><time>2026-05-06T07:57:12.565Z</time></trkpt><trkpt lat="38.0976701" lon="12.7355711"><ele>75.0</ele><time>2026-05-06T07:57:13.564Z</time></trkpt><trkpt lat="38.0977475" lon="12.7354907"><ele>75.0</ele><time>2026-05-06T07:57:14.564Z</time></trkpt><trkpt lat="38.0978323" lon="12.7354169"><ele>75.0</ele><time>2026-05-06T07:57:15.564Z</time></trkpt><trkpt lat="38.0979243" lon="12.735353"><ele>75.0</ele><time>2026-05-06T07:57:16.564Z</time></trkpt><trkpt lat="38.0980171" lon="12.7353014"><ele>75.0</ele><time>2026-05-06T07:57:17.563Z</time></trkpt><trkpt lat="38.0981081" lon="12.7352635"><ele>75.0</ele><time>2026-05-06T07:57:18.566Z</time></trkpt><trkpt lat="38.0982011" lon="12.7352391"><ele>74.4</ele><time>2026-05-06T07:57:19.564Z</time></trkpt><trkpt lat="38.0982964" lon="12.7352148"><ele>73.8</ele><time>2026-05-06T07:57:20.565Z</time></trkpt><trkpt lat="38.0983897" lon="12.7351762"><ele>73.2</ele><time>2026-05-06T07:57:21.565Z</time></trkpt><trkpt lat="38.098478" lon="12.735106"><ele>72.6</ele><time>2026-05-06T07:57:22.565Z</time></trkpt><trkpt lat="38.0985568" lon="12.7350304"><ele>72.0</ele><time>2026-05-06T07:57:23.564Z</time></trkpt><trkpt lat="38.0986144" lon="12.7349474"><ele>72.0</ele><time>2026-05-06T07:57:24.565Z</time></trkpt><trkpt lat="38.0986529" lon="12.7348591"><ele>72.0</ele><time>2026-05-06T07:57:25.563Z</time></trkpt><trkpt lat="38.0986866" lon="12.7347602"><ele>72.0</ele><time>2026-05-06T07:57:26.565Z</time></trkpt><trkpt lat="38.09872" lon="12.7346502"><ele>72.0</ele><time>2026-05-06T07:57:27.565Z</time></trkpt><trkpt lat="38.0987635" lon="12.7345384"><ele>72.0</ele><time>2026-05-06T07:57:28.564Z</time></trkpt><trkpt lat="38.0988106" lon="12.7344239"><ele>71.4</ele><time>2026-05-06T07:57:29.565Z</time></trkpt><trkpt lat="38.0988624" lon="12.7343072"><ele>70.80000000000001</ele><time>2026-05-06T07:57:30.565Z</time></trkpt><trkpt lat="38.0989085" lon="12.7341882"><ele>70.2</ele><time>2026-05-06T07:57:31.563Z</time></trkpt><trkpt lat="38.0989342" lon="12.7340737"><ele>69.60000000000001</ele><time>2026-05-06T07:57:32.566Z</time></trkpt><trkpt lat="38.0989358" lon="12.7339632"><ele>69.0</ele><time>2026-05-06T07:57:33.565Z</time></trkpt><trkpt lat="38.0989144" lon="12.7338491"><ele>69.0</ele><time>2026-05-06T07:57:34.563Z</time></trkpt><trkpt lat="38.0988724" lon="12.7337209"><ele>69.0</ele><time>2026-05-06T07:57:35.564Z</time></trkpt><trkpt lat="38.0988102" lon="12.7335776"><ele>69.0</ele><time>2026-05-06T07:57:36.564Z</time></trkpt><trkpt lat="38.0987507" lon="12.7334457"><ele>69.0</ele><time>2026-05-06T07:57:37.565Z</time></trkpt><trkpt lat="38.0987019" lon="12.7333273"><ele>69.0</ele><time>2026-05-06T07:57:38.565Z</time></trkpt><trkpt lat="38.0986587" lon="12.733213"><ele>69.0</ele><time>2026-05-06T07:57:39.565Z</time></trkpt><trkpt lat="38.0986115" lon="12.7330912"><ele>69.0</ele><time>2026-05-06T07:57:40.564Z</time></trkpt><trkpt lat="38.0985572" lon="12.7329616"><ele>69.0</ele><time>2026-05-06T07:57:41.565Z</time></trkpt><trkpt lat="38.0985003" lon="12.7328328"><ele>69.0</ele><time>2026-05-06T07:57:42.564Z</time></trkpt><trkpt lat="38.0984447" lon="12.7327176"><ele>69.0</ele><time>2026-05-06T07:57:43.565Z</time></trkpt><trkpt lat="38.0983976" lon="12.7326171"><ele>69.0</ele><time>2026-05-06T07:57:44.565Z</time></trkpt><trkpt lat="38.09836" lon="12.7325322"><ele>69.0</ele><time>2026-05-06T07:57:45.566Z</time></trkpt><trkpt lat="38.0983208" lon="12.7324591"><ele>69.0</ele><time>2026-05-06T07:57:46.564Z</time></trkpt><trkpt lat="38.0982749" lon="12.7323906"><ele>69.0</ele><time>2026-05-06T07:57:47.567Z</time></trkpt><trkpt lat="38.0982327" lon="12.732322"><ele>69.0</ele><time>2026-05-06T07:57:48.564Z</time></trkpt><trkpt lat="38.0982218" lon="12.7321854"><ele>69.0</ele><time>2026-05-06T07:57:50.566Z</time></trkpt><trkpt lat="38.0982777" lon="12.7320782"><ele>69.0</ele><time>2026-05-06T07:57:52.563Z</time></trkpt><trkpt lat="38.0983904" lon="12.7319778"><ele>69.0</ele><time>2026-05-06T07:57:54.565Z</time></trkpt><trkpt lat="38.0984626" lon="12.7319171"><ele>69.0</ele><time>2026-05-06T07:57:55.564Z</time></trkpt><trkpt lat="38.098545" lon="12.7318551"><ele>69.0</ele><time>2026-05-06T07:57:56.565Z</time></trkpt><trkpt lat="38.0986327" lon="12.7317992"><ele>68.0</ele><time>2026-05-06T07:57:57.564Z</time></trkpt><trkpt lat="38.0987196" lon="12.7317393"><ele>67.0</ele><time>2026-05-06T07:57:58.565Z</time></trkpt><trkpt lat="38.0988023" lon="12.7316632"><ele>66.0</ele><time>2026-05-06T07:57:59.564Z</time></trkpt><trkpt lat="38.0988832" lon="12.7315827"><ele>65.0</ele><time>2026-05-06T07:58:00.564Z</time></trkpt><trkpt lat="38.0989579" lon="12.7315109"><ele>64.0</ele><time>2026-05-06T07:58:01.564Z</time></trkpt><trkpt lat="38.0990235" lon="12.7314367"><ele>63.99999999999999</ele><time>2026-05-06T07:58:02.569Z</time></trkpt><trkpt lat="38.0990834" lon="12.7313418"><ele>64.0</ele><time>2026-05-06T07:58:03.564Z</time></trkpt><trkpt lat="38.0991326" lon="12.7312388"><ele>64.0</ele><time>2026-05-06T07:58:04.564Z</time></trkpt><trkpt lat="38.0991646" lon="12.7311422"><ele>64.0</ele><time>2026-05-06T07:58:05.565Z</time></trkpt><trkpt lat="38.0991897" lon="12.7310406"><ele>63.99999999999999</ele><time>2026-05-06T07:58:06.565Z</time></trkpt><trkpt lat="38.0992296" lon="12.7309357"><ele>64.0</ele><time>2026-05-06T07:58:07.563Z</time></trkpt><trkpt lat="38.0992849" lon="12.7308278"><ele>63.6</ele><time>2026-05-06T07:58:08.563Z</time></trkpt><trkpt lat="38.0993564" lon="12.7307144"><ele>63.2</ele><time>2026-05-06T07:58:09.564Z</time></trkpt><trkpt lat="38.0994241" lon="12.7306183"><ele>62.800000000000004</ele><time>2026-05-06T07:58:10.565Z</time></trkpt><trkpt lat="38.0994869" lon="12.7305475"><ele>62.400000000000006</ele><time>2026-05-06T07:58:11.564Z</time></trkpt><trkpt lat="38.0995537" lon="12.7304882"><ele>62.0</ele><time>2026-05-06T07:58:12.564Z</time></trkpt><trkpt lat="38.0996246" lon="12.7304241"><ele>62.00000000000001</ele><time>2026-05-06T07:58:13.563Z</time></trkpt><trkpt lat="38.0996969" lon="12.7303485"><ele>62.0</ele><time>2026-05-06T07:58:14.565Z</time></trkpt><trkpt lat="38.0997687" lon="12.730264"><ele>62.0</ele><time>2026-05-06T07:58:15.565Z</time></trkpt><trkpt lat="38.0998343" lon="12.7301833"><ele>62.0</ele><time>2026-05-06T07:58:16.564Z</time></trkpt><trkpt lat="38.0998992" lon="12.730117"><ele>62.00000000000001</ele><time>2026-05-06T07:58:17.563Z</time></trkpt><trkpt lat="38.0999662" lon="12.7300614"><ele>62.0</ele><time>2026-05-06T07:58:18.564Z</time></trkpt><trkpt lat="38.1000374" lon="12.7300076"><ele>61.833333333333336</ele><time>2026-05-06T07:58:19.563Z</time></trkpt><trkpt lat="38.1001092" lon="12.7299534"><ele>61.66666666666667</ele><time>2026-05-06T07:58:20.564Z</time></trkpt><trkpt lat="38.1001791" lon="12.7299047"><ele>61.5</ele><time>2026-05-06T07:58:21.564Z</time></trkpt><trkpt lat="38.1002411" lon="12.7298544"><ele>61.33333333333333</ele><time>2026-05-06T07:58:22.563Z</time></trkpt><trkpt lat="38.1003009" lon="12.7297879"><ele>61.166666666666664</ele><time>2026-05-06T07:58:23.564Z</time></trkpt><trkpt lat="38.1003593" lon="12.7297077"><ele>61.0</ele><time>2026-05-06T07:58:24.565Z</time></trkpt><trkpt lat="38.1004137" lon="12.7296196"><ele>61.0</ele><time>2026-05-06T07:58:25.564Z</time></trkpt><trkpt lat="38.1004654" lon="12.7295353"><ele>60.99999999999999</ele><time>2026-05-06T07:58:26.565Z</time></trkpt><trkpt lat="38.1005198" lon="12.7294486"><ele>60.99999999999999</ele><time>2026-05-06T07:58:27.564Z</time></trkpt><trkpt lat="38.1005751" lon="12.7293555"><ele>61.0</ele><time>2026-05-06T07:58:28.563Z</time></trkpt><trkpt lat="38.1006306" lon="12.7292587"><ele>61.0</ele><time>2026-05-06T07:58:29.564Z</time></trkpt><trkpt lat="38.1006893" lon="12.7291574"><ele>60.5</ele><time>2026-05-06T07:58:30.563Z</time></trkpt><trkpt lat="38.100748" lon="12.7290402"><ele>60.0</ele><time>2026-05-06T07:58:31.564Z</time></trkpt><trkpt lat="38.1008094" lon="12.7288806"><ele>59.5</ele><time>2026-05-06T07:58:32.564Z</time></trkpt><trkpt lat="38.1008783" lon="12.7286583"><ele>59.0</ele><time>2026-05-06T07:58:33.564Z</time></trkpt><trkpt lat="38.1009583" lon="12.7284317"><ele>57.66666666666667</ele><time>2026-05-06T07:58:34.565Z</time></trkpt><trkpt lat="38.1010483" lon="12.7281783"><ele>56.33333333333333</ele><time>2026-05-06T07:58:35.564Z</time></trkpt><trkpt lat="38.10113" lon="12.727925"><ele>55.0</ele><time>2026-05-06T07:58:36.564Z</time></trkpt><trkpt lat="38.1012117" lon="12.727695"><ele>55.0</ele><time>2026-05-06T07:58:37.564Z</time></trkpt><trkpt lat="38.10131" lon="12.7274683"><ele>55.0</ele><time>2026-05-06T07:58:38.565Z</time></trkpt><trkpt lat="38.101425" lon="12.727265"><ele>55.0</ele><time>2026-05-06T07:58:39.564Z</time></trkpt><trkpt lat="38.10156" lon="12.72707"><ele>53.33333333333333</ele><time>2026-05-06T07:58:40.566Z</time></trkpt><trkpt lat="38.1017067" lon="12.726855"><ele>51.66666666666667</ele><time>2026-05-06T07:58:41.564Z</time></trkpt><trkpt lat="38.101835" lon="12.7266683"><ele>50.0</ele><time>2026-05-06T07:58:42.564Z</time></trkpt><trkpt lat="38.1019383" lon="12.7265083"><ele>50.0</ele><time>2026-05-06T07:58:43.564Z</time></trkpt><trkpt lat="38.10204" lon="12.72635"><ele>50.0</ele><time>2026-05-06T07:58:44.566Z</time></trkpt><trkpt lat="38.1021567" lon="12.7261767"><ele>50.0</ele><time>2026-05-06T07:58:45.565Z</time></trkpt><trkpt lat="38.1022817" lon="12.726"><ele>50.333333333333336</ele><time>2026-05-06T07:58:46.565Z</time></trkpt><trkpt lat="38.102395" lon="12.72583"><ele>50.66666666666667</ele><time>2026-05-06T07:58:47.565Z</time></trkpt><trkpt lat="38.102495" lon="12.72568"><ele>51.0</ele><time>2026-05-06T07:58:48.563Z</time></trkpt><trkpt lat="38.1026017" lon="12.7255267"><ele>50.33333333333333</ele><time>2026-05-06T07:58:49.564Z</time></trkpt><trkpt lat="38.102705" lon="12.72537"><ele>49.666666666666664</ele><time>2026-05-06T07:58:50.564Z</time></trkpt><trkpt lat="38.10281" lon="12.725215"><ele>49.0</ele><time>2026-05-06T07:58:51.564Z</time></trkpt><trkpt lat="38.1029283" lon="12.7250533"><ele>47.666666666666664</ele><time>2026-05-06T07:58:52.565Z</time></trkpt><trkpt lat="38.1030583" lon="12.7248817"><ele>46.33333333333333</ele><time>2026-05-06T07:58:53.565Z</time></trkpt><trkpt lat="38.1031917" lon="12.7247"><ele>45.0</ele><time>2026-05-06T07:58:54.565Z</time></trkpt><trkpt lat="38.1033167" lon="12.7245217"><ele>44.25</ele><time>2026-05-06T07:58:55.566Z</time></trkpt><trkpt lat="38.1034267" lon="12.7243683"><ele>43.5</ele><time>2026-05-06T07:58:56.566Z</time></trkpt><trkpt lat="38.1035217" lon="12.7242417"><ele>42.75</ele><time>2026-05-06T07:58:57.569Z</time></trkpt><trkpt lat="38.1036" lon="12.7241483"><ele>42.0</ele><time>2026-05-06T07:58:58.564Z</time></trkpt><trkpt lat="38.1036817" lon="12.72408"><ele>42.0</ele><time>2026-05-06T07:58:59.564Z</time></trkpt><trkpt lat="38.1037817" lon="12.7240317"><ele>42.0</ele><time>2026-05-06T07:59:00.564Z</time></trkpt><trkpt lat="38.1038833" lon="12.724"><ele>42.0</ele><time>2026-05-06T07:59:01.564Z</time></trkpt><trkpt lat="38.1039633" lon="12.7239817"><ele>42.0</ele><time>2026-05-06T07:59:02.565Z</time></trkpt><trkpt lat="38.1040467" lon="12.72396"><ele>42.0</ele><time>2026-05-06T07:59:03.563Z</time></trkpt><trkpt lat="38.10414" lon="12.7239317"><ele>41.5</ele><time>2026-05-06T07:59:04.564Z</time></trkpt><trkpt lat="38.104255" lon="12.7238983"><ele>41.0</ele><time>2026-05-06T07:59:05.564Z</time></trkpt><trkpt lat="38.1043867" lon="12.7238483"><ele>40.5</ele><time>2026-05-06T07:59:06.564Z</time></trkpt><trkpt lat="38.1045233" lon="12.723775"><ele>40.0</ele><time>2026-05-06T07:59:07.564Z</time></trkpt><trkpt lat="38.1046517" lon="12.723695"><ele>40.0</ele><time>2026-05-06T07:59:08.565Z</time></trkpt><trkpt lat="38.1047733" lon="12.7236233"><ele>40.0</ele><time>2026-05-06T07:59:09.564Z</time></trkpt><trkpt lat="38.104895" lon="12.7235533"><ele>40.0</ele><time>2026-05-06T07:59:10.564Z</time></trkpt><trkpt lat="38.1050217" lon="12.7234867"><ele>40.0</ele><time>2026-05-06T07:59:11.565Z</time></trkpt><trkpt lat="38.10515" lon="12.7234217"><ele>39.25</ele><time>2026-05-06T07:59:12.565Z</time></trkpt><trkpt lat="38.1052733" lon="12.7233433"><ele>38.5</ele><time>2026-05-06T07:59:13.564Z</time></trkpt><trkpt lat="38.10539" lon="12.7232483"><ele>37.75</ele><time>2026-05-06T07:59:14.565Z</time></trkpt><trkpt lat="38.105505" lon="12.7231433"><ele>37.0</ele><time>2026-05-06T07:59:15.563Z</time></trkpt><trkpt lat="38.1056217" lon="12.7230383"><ele>37.0</ele><time>2026-05-06T07:59:16.564Z</time></trkpt><trkpt lat="38.1057367" lon="12.72293"><ele>37.0</ele><time>2026-05-06T07:59:17.564Z</time></trkpt><trkpt lat="38.105845" lon="12.7228183"><ele>37.0</ele><time>2026-05-06T07:59:18.564Z</time></trkpt><trkpt lat="38.1059483" lon="12.7227083"><ele>37.0</ele><time>2026-05-06T07:59:19.565Z</time></trkpt><trkpt lat="38.1060467" lon="12.7225983"><ele>36.25</ele><time>2026-05-06T07:59:20.566Z</time></trkpt><trkpt lat="38.1061367" lon="12.7224867"><ele>35.5</ele><time>2026-05-06T07:59:21.564Z</time></trkpt><trkpt lat="38.1062233" lon="12.7223817"><ele>34.75</ele><time>2026-05-06T07:59:22.564Z</time></trkpt><trkpt lat="38.1063117" lon="12.7222733"><ele>34.0</ele><time>2026-05-06T07:59:23.565Z</time></trkpt><trkpt lat="38.1064033" lon="12.7221517"><ele>34.0</ele><time>2026-05-06T07:59:24.565Z</time></trkpt><trkpt lat="38.1064867" lon="12.7220367"><ele>34.0</ele><time>2026-05-06T07:59:25.565Z</time></trkpt><trkpt lat="38.1065583" lon="12.7219317"><ele>34.0</ele><time>2026-05-06T07:59:26.564Z</time></trkpt><trkpt lat="38.106635" lon="12.72182"><ele>34.0</ele><time>2026-05-06T07:59:27.564Z</time></trkpt><trkpt lat="38.1067117" lon="12.7216933"><ele>33.75</ele><time>2026-05-06T07:59:28.564Z</time></trkpt><trkpt lat="38.1067883" lon="12.721545"><ele>33.5</ele><time>2026-05-06T07:59:29.564Z</time></trkpt><trkpt lat="38.1068617" lon="12.7213983"><ele>33.25</ele><time>2026-05-06T07:59:30.565Z</time></trkpt><trkpt lat="38.1069217" lon="12.721265"><ele>33.0</ele><time>2026-05-06T07:59:31.563Z</time></trkpt><trkpt lat="38.1069767" lon="12.721125"><ele>32.5</ele><time>2026-05-06T07:59:32.564Z</time></trkpt><trkpt lat="38.107025" lon="12.7209767"><ele>32.0</ele><time>2026-05-06T07:59:33.565Z</time></trkpt><trkpt lat="38.10707" lon="12.7208317"><ele>31.5</ele><time>2026-05-06T07:59:34.565Z</time></trkpt><trkpt lat="38.1071067" lon="12.720695"><ele>31.0</ele><time>2026-05-06T07:59:35.565Z</time></trkpt><trkpt lat="38.1071317" lon="12.72057"><ele>31.0</ele><time>2026-05-06T07:59:36.563Z</time></trkpt><trkpt lat="38.107145" lon="12.7204417"><ele>31.0</ele><time>2026-05-06T07:59:37.565Z</time></trkpt><trkpt lat="38.10716" lon="12.7203017"><ele>31.0</ele><time>2026-05-06T07:59:38.565Z</time></trkpt><trkpt lat="38.1071817" lon="12.7201783"><ele>31.0</ele><time>2026-05-06T07:59:39.565Z</time></trkpt><trkpt lat="38.107205" lon="12.7200717"><ele>31.0</ele><time>2026-05-06T07:59:40.565Z</time></trkpt><trkpt lat="38.107215" lon="12.7199867"><ele>30.666666666666668</ele><time>2026-05-06T07:59:41.566Z</time></trkpt><trkpt lat="38.1072283" lon="12.71986"><ele>30.333333333333336</ele><time>2026-05-06T07:59:43.564Z</time></trkpt><trkpt lat="38.1072367" lon="12.7197783"><ele>30.0</ele><time>2026-05-06T07:59:45.564Z</time></trkpt><trkpt lat="38.1072783" lon="12.7196717"><ele>29.666666666666664</ele><time>2026-05-06T07:59:53.563Z</time></trkpt><trkpt lat="38.1073417" lon="12.7196083"><ele>29.333333333333332</ele><time>2026-05-06T07:59:55.564Z</time></trkpt><trkpt lat="38.1072717" lon="12.7196617"><ele>29.0</ele><time>2026-05-06T08:00:18.564Z</time></trkpt><trkpt lat="38.107165" lon="12.7196033"><ele>28.999999999999996</ele><time>2026-05-06T08:00:20.565Z</time></trkpt><trkpt lat="38.1071133" lon="12.719535"><ele>29.0</ele><time>2026-05-06T08:00:21.567Z</time></trkpt><trkpt lat="38.1070583" lon="12.7194583"><ele>29.0</ele><time>2026-05-06T08:00:22.563Z</time></trkpt><trkpt lat="38.107" lon="12.7193783"><ele>29.0</ele><time>2026-05-06T08:00:23.564Z</time></trkpt><trkpt lat="38.10694" lon="12.719295"><ele>28.999999999999996</ele><time>2026-05-06T08:00:24.563Z</time></trkpt><trkpt lat="38.1068783" lon="12.7192133"><ele>29.0</ele><time>2026-05-06T08:00:25.564Z</time></trkpt><trkpt lat="38.1068183" lon="12.7191283"><ele>29.0</ele><time>2026-05-06T08:00:26.565Z</time></trkpt><trkpt lat="38.106755" lon="12.7190467"><ele>29.0</ele><time>2026-05-06T08:00:27.564Z</time></trkpt><trkpt lat="38.1066883" lon="12.7189617"><ele>29.0</ele><time>2026-05-06T08:00:28.565Z</time></trkpt><trkpt lat="38.10662" lon="12.71887"><ele>29.0</ele><time>2026-05-06T08:00:29.565Z</time></trkpt><trkpt lat="38.106545" lon="12.718775"><ele>29.0</ele><time>2026-05-06T08:00:30.565Z</time></trkpt><trkpt lat="38.1064683" lon="12.718675"><ele>29.0</ele><time>2026-05-06T08:00:31.565Z</time></trkpt><trkpt lat="38.1063883" lon="12.71857"><ele>29.0</ele><time>2026-05-06T08:00:32.564Z</time></trkpt><trkpt lat="38.106305" lon="12.7184617"><ele>29.0</ele><time>2026-05-06T08:00:33.565Z</time></trkpt><trkpt lat="38.10622" lon="12.718345"><ele>29.0</ele><time>2026-05-06T08:00:34.564Z</time></trkpt><trkpt lat="38.1061317" lon="12.7182267"><ele>29.0</ele><time>2026-05-06T08:00:35.565Z</time></trkpt><trkpt lat="38.1060417" lon="12.7181033"><ele>29.0</ele><time>2026-05-06T08:00:36.567Z</time></trkpt><trkpt lat="38.10595" lon="12.7179783"><ele>29.0</ele><time>2026-05-06T08:00:37.564Z</time></trkpt><trkpt lat="38.1058567" lon="12.7178433"><ele>29.0</ele><time>2026-05-06T08:00:38.565Z</time></trkpt><trkpt lat="38.10576" lon="12.7177117"><ele>28.5</ele><time>2026-05-06T08:00:39.564Z</time></trkpt><trkpt lat="38.10566" lon="12.71758"><ele>28.0</ele><time>2026-05-06T08:00:40.565Z</time></trkpt><trkpt lat="38.1055583" lon="12.71745"><ele>27.5</ele><time>2026-05-06T08:00:41.565Z</time></trkpt><trkpt lat="38.1054533" lon="12.7173233"><ele>27.0</ele><time>2026-05-06T08:00:42.564Z</time></trkpt><trkpt lat="38.1053517" lon="12.7171933"><ele>27.0</ele><time>2026-05-06T08:00:43.565Z</time></trkpt><trkpt lat="38.1052483" lon="12.7170617"><ele>27.0</ele><time>2026-05-06T08:00:44.564Z</time></trkpt><trkpt lat="38.1051433" lon="12.71693"><ele>27.0</ele><time>2026-05-06T08:00:45.564Z</time></trkpt><trkpt lat="38.105035" lon="12.7168"><ele>27.0</ele><time>2026-05-06T08:00:46.565Z</time></trkpt><trkpt lat="38.10493" lon="12.71667"><ele>27.75</ele><time>2026-05-06T08:00:47.566Z</time></trkpt><trkpt lat="38.104835" lon="12.7165383"><ele>28.5</ele><time>2026-05-06T08:00:48.565Z</time></trkpt><trkpt lat="38.1047667" lon="12.7164067"><ele>29.25</ele><time>2026-05-06T08:00:49.564Z</time></trkpt><trkpt lat="38.1047233" lon="12.71627"><ele>30.0</ele><time>2026-05-06T08:00:50.565Z</time></trkpt><trkpt lat="38.1046983" lon="12.716135"><ele>29.833333333333332</ele><time>2026-05-06T08:00:51.564Z</time></trkpt><trkpt lat="38.10468" lon="12.7160167"><ele>29.666666666666664</ele><time>2026-05-06T08:00:52.565Z</time></trkpt><trkpt lat="38.1046683" lon="12.7159167"><ele>29.5</ele><time>2026-05-06T08:00:53.564Z</time></trkpt><trkpt lat="38.1046583" lon="12.7158267"><ele>29.333333333333332</ele><time>2026-05-06T08:00:54.564Z</time></trkpt><trkpt lat="38.1046483" lon="12.71574"><ele>29.166666666666664</ele><time>2026-05-06T08:00:55.565Z</time></trkpt><trkpt lat="38.1046417" lon="12.715655"><ele>29.0</ele><time>2026-05-06T08:00:56.565Z</time></trkpt><trkpt lat="38.1046317" lon="12.7155667"><ele>28.999999999999996</ele><time>2026-05-06T08:00:57.563Z</time></trkpt><trkpt lat="38.104625" lon="12.715475"><ele>29.0</ele><time>2026-05-06T08:00:58.564Z</time></trkpt><trkpt lat="38.10462" lon="12.7153833"><ele>29.0</ele><time>2026-05-06T08:00:59.564Z</time></trkpt><trkpt lat="38.1046183" lon="12.7152867"><ele>29.0</ele><time>2026-05-06T08:01:00.564Z</time></trkpt><trkpt lat="38.1046183" lon="12.7151883"><ele>28.999999999999996</ele><time>2026-05-06T08:01:01.565Z</time></trkpt><trkpt lat="38.104615" lon="12.7150883"><ele>29.0</ele><time>2026-05-06T08:01:02.565Z</time></trkpt><trkpt lat="38.1046083" lon="12.7149833"><ele>29.0</ele><time>2026-05-06T08:01:03.564Z</time></trkpt><trkpt lat="38.1046017" lon="12.714875"><ele>29.0</ele><time>2026-05-06T08:01:04.564Z</time></trkpt><trkpt lat="38.1045933" lon="12.71476"><ele>29.0</ele><time>2026-05-06T08:01:05.564Z</time></trkpt><trkpt lat="38.104585" lon="12.7146433"><ele>29.0</ele><time>2026-05-06T08:01:06.565Z</time></trkpt><trkpt lat="38.1045767" lon="12.7145233"><ele>29.0</ele><time>2026-05-06T08:01:07.567Z</time></trkpt><trkpt lat="38.1045667" lon="12.7143983"><ele>28.799999999999997</ele><time>2026-05-06T08:01:08.564Z</time></trkpt><trkpt lat="38.1045567" lon="12.7142683"><ele>28.599999999999998</ele><time>2026-05-06T08:01:09.563Z</time></trkpt><trkpt lat="38.1045467" lon="12.714135"><ele>28.4</ele><time>2026-05-06T08:01:10.564Z</time></trkpt><trkpt lat="38.104535" lon="12.7139983"><ele>28.2</ele><time>2026-05-06T08:01:11.564Z</time></trkpt><trkpt lat="38.1045217" lon="12.713855"><ele>28.0</ele><time>2026-05-06T08:01:12.564Z</time></trkpt><trkpt lat="38.10451" lon="12.7137083"><ele>27.75</ele><time>2026-05-06T08:01:13.564Z</time></trkpt><trkpt lat="38.1045" lon="12.713555"><ele>27.5</ele><time>2026-05-06T08:01:14.564Z</time></trkpt><trkpt lat="38.1044867" lon="12.7134017"><ele>27.25</ele><time>2026-05-06T08:01:15.564Z</time></trkpt><trkpt lat="38.1044767" lon="12.713245"><ele>27.0</ele><time>2026-05-06T08:01:16.563Z</time></trkpt><trkpt lat="38.1044633" lon="12.7130817"><ele>27.0</ele><time>2026-05-06T08:01:17.564Z</time></trkpt><trkpt lat="38.104445" lon="12.7129167"><ele>27.0</ele><time>2026-05-06T08:01:18.564Z</time></trkpt><trkpt lat="38.10442" lon="12.7127533"><ele>27.0</ele><time>2026-05-06T08:01:19.565Z</time></trkpt><trkpt lat="38.1043983" lon="12.712585"><ele>27.0</ele><time>2026-05-06T08:01:20.565Z</time></trkpt><trkpt lat="38.1043767" lon="12.7124167"><ele>26.75</ele><time>2026-05-06T08:01:21.563Z</time></trkpt><trkpt lat="38.1043567" lon="12.7122467"><ele>26.5</ele><time>2026-05-06T08:01:22.565Z</time></trkpt><trkpt lat="38.10434" lon="12.712085"><ele>26.25</ele><time>2026-05-06T08:01:23.564Z</time></trkpt><trkpt lat="38.10432" lon="12.7119233"><ele>26.0</ele><time>2026-05-06T08:01:24.564Z</time></trkpt><trkpt lat="38.1042983" lon="12.7117567"><ele>26.0</ele><time>2026-05-06T08:01:25.563Z</time></trkpt><trkpt lat="38.1042767" lon="12.71159"><ele>26.0</ele><time>2026-05-06T08:01:26.564Z</time></trkpt><trkpt lat="38.1042567" lon="12.7114233"><ele>26.0</ele><time>2026-05-06T08:01:27.564Z</time></trkpt><trkpt lat="38.1042317" lon="12.7112667"><ele>26.0</ele><time>2026-05-06T08:01:28.564Z</time></trkpt><trkpt lat="38.1042" lon="12.71112"><ele>26.0</ele><time>2026-05-06T08:01:29.566Z</time></trkpt><trkpt lat="38.1041617" lon="12.710985"><ele>26.0</ele><time>2026-05-06T08:01:30.563Z</time></trkpt><trkpt lat="38.1041117" lon="12.7108617"><ele>26.0</ele><time>2026-05-06T08:01:31.566Z</time></trkpt><trkpt lat="38.1040617" lon="12.7107467"><ele>26.0</ele><time>2026-05-06T08:01:32.564Z</time></trkpt><trkpt lat="38.1040067" lon="12.7106367"><ele>26.0</ele><time>2026-05-06T08:01:33.563Z</time></trkpt><trkpt lat="38.1039517" lon="12.7105233"><ele>26.4</ele><time>2026-05-06T08:01:34.563Z</time></trkpt><trkpt lat="38.1038967" lon="12.7104083"><ele>26.8</ele><time>2026-05-06T08:01:35.565Z</time></trkpt><trkpt lat="38.1038417" lon="12.7102883"><ele>27.199999999999996</ele><time>2026-05-06T08:01:36.564Z</time></trkpt><trkpt lat="38.103785" lon="12.7101717"><ele>27.599999999999998</ele><time>2026-05-06T08:01:37.564Z</time></trkpt><trkpt lat="38.10373" lon="12.710065"><ele>28.0</ele><time>2026-05-06T08:01:38.565Z</time></trkpt><trkpt lat="38.1036733" lon="12.7099683"><ele>28.000000000000004</ele><time>2026-05-06T08:01:39.563Z</time></trkpt><trkpt lat="38.1036217" lon="12.7098767"><ele>28.0</ele><time>2026-05-06T08:01:40.563Z</time></trkpt><trkpt lat="38.1035783" lon="12.70977"><ele>28.0</ele><time>2026-05-06T08:01:41.565Z</time></trkpt><trkpt lat="38.1035517" lon="12.70966"><ele>28.0</ele><time>2026-05-06T08:01:42.565Z</time></trkpt><trkpt lat="38.1035417" lon="12.7095483"><ele>28.000000000000004</ele><time>2026-05-06T08:01:43.564Z</time></trkpt><trkpt lat="38.1035433" lon="12.7094383"><ele>28.0</ele><time>2026-05-06T08:01:44.565Z</time></trkpt><trkpt lat="38.103535" lon="12.70932"><ele>28.0</ele><time>2026-05-06T08:01:45.566Z</time></trkpt><trkpt lat="38.103525" lon="12.7092"><ele>27.999999999999996</ele><time>2026-05-06T08:01:46.564Z</time></trkpt><trkpt lat="38.10352" lon="12.709075"><ele>27.999999999999996</ele><time>2026-05-06T08:01:47.565Z</time></trkpt><trkpt lat="38.103515" lon="12.7089417"><ele>28.0</ele><time>2026-05-06T08:01:48.566Z</time></trkpt><trkpt lat="38.1035083" lon="12.7088017"><ele>28.0</ele><time>2026-05-06T08:01:49.564Z</time></trkpt><trkpt lat="38.103495" lon="12.70866"><ele>27.75</ele><time>2026-05-06T08:01:50.564Z</time></trkpt><trkpt lat="38.1034833" lon="12.708515"><ele>27.5</ele><time>2026-05-06T08:01:51.564Z</time></trkpt><trkpt lat="38.1034717" lon="12.7083633"><ele>27.25</ele><time>2026-05-06T08:01:52.565Z</time></trkpt><trkpt lat="38.10346" lon="12.7082183"><ele>27.0</ele><time>2026-05-06T08:01:53.563Z</time></trkpt><trkpt lat="38.10344" lon="12.70808"><ele>27.0</ele><time>2026-05-06T08:01:54.564Z</time></trkpt><trkpt lat="38.1034167" lon="12.7079583"><ele>27.000000000000004</ele><time>2026-05-06T08:01:55.565Z</time></trkpt><trkpt lat="38.10339" lon="12.7078533"><ele>27.000000000000004</ele><time>2026-05-06T08:01:56.564Z</time></trkpt><trkpt lat="38.1033833" lon="12.7077483"><ele>27.0</ele><time>2026-05-06T08:01:57.564Z</time></trkpt><trkpt lat="38.1033933" lon="12.7076517"><ele>27.0</ele><time>2026-05-06T08:01:58.563Z</time></trkpt><trkpt lat="38.1034383" lon="12.7075217"><ele>27.0</ele><time>2026-05-06T08:02:00.564Z</time></trkpt><trkpt lat="38.1035083" lon="12.707425"><ele>27.000000000000004</ele><time>2026-05-06T08:02:02.564Z</time></trkpt><trkpt lat="38.1036" lon="12.7073633"><ele>27.000000000000004</ele><time>2026-05-06T08:02:04.564Z</time></trkpt><trkpt lat="38.1036933" lon="12.7073033"><ele>27.0</ele><time>2026-05-06T08:02:06.563Z</time></trkpt><trkpt lat="38.1037867" lon="12.70723"><ele>27.0</ele><time>2026-05-06T08:02:08.564Z</time></trkpt><trkpt lat="38.103875" lon="12.7071533"><ele>27.0</ele><time>2026-05-06T08:02:10.564Z</time></trkpt><trkpt lat="38.1039567" lon="12.70707"><ele>27.000000000000004</ele><time>2026-05-06T08:02:12.564Z</time></trkpt><trkpt lat="38.10404" lon="12.7070017"><ele>27.000000000000004</ele><time>2026-05-06T08:02:14.564Z</time></trkpt><trkpt lat="38.1041267" lon="12.70695"><ele>27.0</ele><time>2026-05-06T08:02:16.564Z</time></trkpt><trkpt lat="38.1042133" lon="12.7068933"><ele>27.0</ele><time>2026-05-06T08:02:18.564Z</time></trkpt><trkpt lat="38.1043133" lon="12.7068283"><ele>25.6</ele><time>2026-05-06T08:02:20.564Z</time></trkpt><trkpt lat="38.1044217" lon="12.7067583"><ele>24.200000000000003</ele><time>2026-05-06T08:02:22.565Z</time></trkpt><trkpt lat="38.1044783" lon="12.7067217"><ele>22.8</ele><time>2026-05-06T08:02:23.565Z</time></trkpt><trkpt lat="38.1045917" lon="12.7066517"><ele>21.4</ele><time>2026-05-06T08:02:25.565Z</time></trkpt><trkpt lat="38.104705" lon="12.7065967"><ele>20.0</ele><time>2026-05-06T08:02:27.564Z</time></trkpt><trkpt lat="38.1048133" lon="12.7065633"><ele>19.0</ele><time>2026-05-06T08:02:29.565Z</time></trkpt><trkpt lat="38.1049167" lon="12.7065383"><ele>18.0</ele><time>2026-05-06T08:02:31.565Z</time></trkpt><trkpt lat="38.1050217" lon="12.7065217"><ele>17.0</ele><time>2026-05-06T08:02:33.564Z</time></trkpt><trkpt lat="38.1051217" lon="12.7065083"><ele>16.0</ele><time>2026-05-06T08:02:35.565Z</time></trkpt><trkpt lat="38.1052133" lon="12.7064883"><ele>15.0</ele><time>2026-05-06T08:02:37.565Z</time></trkpt><trkpt lat="38.1053067" lon="12.706475"><ele>15.0</ele><time>2026-05-06T08:02:39.564Z</time></trkpt><trkpt lat="38.105425" lon="12.7064683"><ele>15.0</ele><time>2026-05-06T08:02:41.565Z</time></trkpt><trkpt lat="38.105505" lon="12.706465"><ele>15.0</ele><time>2026-05-06T08:02:42.564Z</time></trkpt><trkpt lat="38.1055917" lon="12.706445"><ele>15.0</ele><time>2026-05-06T08:02:43.564Z</time></trkpt><trkpt lat="38.1056767" lon="12.7063933"><ele>15.0</ele><time>2026-05-06T08:02:44.565Z</time></trkpt><trkpt lat="38.105755" lon="12.7063067"><ele>14.25</ele><time>2026-05-06T08:02:45.566Z</time></trkpt><trkpt lat="38.1058317" lon="12.7062033"><ele>13.5</ele><time>2026-05-06T08:02:46.564Z</time></trkpt><trkpt lat="38.1059133" lon="12.70609"><ele>12.75</ele><time>2026-05-06T08:02:47.565Z</time></trkpt><trkpt lat="38.1060017" lon="12.7059667"><ele>12.0</ele><time>2026-05-06T08:02:48.564Z</time></trkpt><trkpt lat="38.1060983" lon="12.7058433"><ele>11.5</ele><time>2026-05-06T08:02:49.563Z</time></trkpt><trkpt lat="38.1061983" lon="12.7057267"><ele>11.0</ele><time>2026-05-06T08:02:50.563Z</time></trkpt><trkpt lat="38.1062833" lon="12.7056017"><ele>10.5</ele><time>2026-05-06T08:02:51.563Z</time></trkpt><trkpt lat="38.1063417" lon="12.7054633"><ele>10.0</ele><time>2026-05-06T08:02:52.564Z</time></trkpt><trkpt lat="38.1063833" lon="12.7052983"><ele>9.666666666666668</ele><time>2026-05-06T08:02:53.564Z</time></trkpt><trkpt lat="38.1064017" lon="12.7051117"><ele>9.333333333333334</ele><time>2026-05-06T08:02:54.564Z</time></trkpt><trkpt lat="38.106405" lon="12.704915"><ele>9.0</ele><time>2026-05-06T08:02:55.564Z</time></trkpt><trkpt lat="38.1064017" lon="12.704725"><ele>9.0</ele><time>2026-05-06T08:02:56.564Z</time></trkpt><trkpt lat="38.1063783" lon="12.7045533"><ele>9.0</ele><time>2026-05-06T08:02:57.564Z</time></trkpt><trkpt lat="38.1063317" lon="12.704385"><ele>9.0</ele><time>2026-05-06T08:02:58.564Z</time></trkpt><trkpt lat="38.106275" lon="12.70423"><ele>9.0</ele><time>2026-05-06T08:02:59.564Z</time></trkpt><trkpt lat="38.1062283" lon="12.704085"><ele>8.6</ele><time>2026-05-06T08:03:00.565Z</time></trkpt><trkpt lat="38.1061933" lon="12.7039467"><ele>8.2</ele><time>2026-05-06T08:03:01.564Z</time></trkpt><trkpt lat="38.1061617" lon="12.7038217"><ele>7.799999999999999</ele><time>2026-05-06T08:03:02.565Z</time></trkpt><trkpt lat="38.1061267" lon="12.7037117"><ele>7.3999999999999995</ele><time>2026-05-06T08:03:03.564Z</time></trkpt><trkpt lat="38.1060933" lon="12.703605"><ele>7.0</ele><time>2026-05-06T08:03:04.57Z</time></trkpt><trkpt lat="38.1060633" lon="12.7034983"><ele>6.8</ele><time>2026-05-06T08:03:05.564Z</time></trkpt><trkpt lat="38.1060217" lon="12.7033883"><ele>6.6</ele><time>2026-05-06T08:03:06.564Z</time></trkpt><trkpt lat="38.10598" lon="12.7032717"><ele>6.3999999999999995</ele><time>2026-05-06T08:03:07.564Z</time></trkpt><trkpt lat="38.1059383" lon="12.7031483"><ele>6.199999999999999</ele><time>2026-05-06T08:03:08.564Z</time></trkpt><trkpt lat="38.1058983" lon="12.7030183"><ele>6.0</ele><time>2026-05-06T08:03:09.565Z</time></trkpt><trkpt lat="38.1058583" lon="12.7028917"><ele>6.0</ele><time>2026-05-06T08:03:10.565Z</time></trkpt><trkpt lat="38.10582" lon="12.702775"><ele>6.0</ele><time>2026-05-06T08:03:11.564Z</time></trkpt><trkpt lat="38.1057917" lon="12.702665"><ele>6.0</ele><time>2026-05-06T08:03:12.563Z</time></trkpt><trkpt lat="38.1057633" lon="12.702565"><ele>6.0</ele><time>2026-05-06T08:03:13.563Z</time></trkpt><trkpt lat="38.10574" lon="12.70246"><ele>6.0</ele><time>2026-05-06T08:03:14.564Z</time></trkpt><trkpt lat="38.105715" lon="12.702355"><ele>6.0</ele><time>2026-05-06T08:03:15.564Z</time></trkpt><trkpt lat="38.1056833" lon="12.7022483"><ele>6.0</ele><time>2026-05-06T08:03:16.564Z</time></trkpt><trkpt lat="38.1056483" lon="12.702135"><ele>6.0</ele><time>2026-05-06T08:03:17.564Z</time></trkpt><trkpt lat="38.1056133" lon="12.702015"><ele>6.0</ele><time>2026-05-06T08:03:18.564Z</time></trkpt><trkpt lat="38.1055733" lon="12.7018933"><ele>6.0</ele><time>2026-05-06T08:03:19.566Z</time></trkpt><trkpt lat="38.10554" lon="12.7017667"><ele>6.0</ele><time>2026-05-06T08:03:20.566Z</time></trkpt><trkpt lat="38.1055033" lon="12.7016367"><ele>6.25</ele><time>2026-05-06T08:03:21.564Z</time></trkpt><trkpt lat="38.105465" lon="12.7015033"><ele>6.5</ele><time>2026-05-06T08:03:22.566Z</time></trkpt><trkpt lat="38.1054233" lon="12.70137"><ele>6.75</ele><time>2026-05-06T08:03:23.565Z</time></trkpt><trkpt lat="38.1053767" lon="12.7012367"><ele>7.0</ele><time>2026-05-06T08:03:24.566Z</time></trkpt><trkpt lat="38.1053367" lon="12.7010967"><ele>6.8</ele><time>2026-05-06T08:03:25.565Z</time></trkpt><trkpt lat="38.10529" lon="12.700955"><ele>6.6</ele><time>2026-05-06T08:03:26.565Z</time></trkpt><trkpt lat="38.10524" lon="12.7008283"><ele>6.3999999999999995</ele><time>2026-05-06T08:03:27.565Z</time></trkpt><trkpt lat="38.10518" lon="12.7007183"><ele>6.199999999999999</ele><time>2026-05-06T08:03:28.566Z</time></trkpt><trkpt lat="38.105115" lon="12.7006133"><ele>6.0</ele><time>2026-05-06T08:03:29.566Z</time></trkpt><trkpt lat="38.1050517" lon="12.7004667"><ele>6.0</ele><time>2026-05-06T08:03:30.565Z</time></trkpt><trkpt lat="38.1049967" lon="12.7003317"><ele>6.0</ele><time>2026-05-06T08:03:31.564Z</time></trkpt><trkpt lat="38.1049517" lon="12.7002017"><ele>6.0</ele><time>2026-05-06T08:03:32.564Z</time></trkpt><trkpt lat="38.1049167" lon="12.70003"><ele>6.0</ele><time>2026-05-06T08:03:33.564Z</time></trkpt><trkpt lat="38.1048817" lon="12.6998667"><ele>6.4</ele><time>2026-05-06T08:03:34.563Z</time></trkpt><trkpt lat="38.1048517" lon="12.699735"><ele>6.8</ele><time>2026-05-06T08:03:35.564Z</time></trkpt><trkpt lat="38.104825" lon="12.6996333"><ele>7.200000000000001</ele><time>2026-05-06T08:03:36.563Z</time></trkpt><trkpt lat="38.1048017" lon="12.6995483"><ele>7.6000000000000005</ele><time>2026-05-06T08:03:37.564Z</time></trkpt><trkpt lat="38.10476" lon="12.6993967"><ele>8.0</ele><time>2026-05-06T08:03:39.563Z</time></trkpt><trkpt lat="38.104735" lon="12.69931"><ele>8.333333333333332</ele><time>2026-05-06T08:03:40.564Z</time></trkpt><trkpt lat="38.104715" lon="12.6992117"><ele>8.666666666666666</ele><time>2026-05-06T08:03:41.564Z</time></trkpt><trkpt lat="38.1046967" lon="12.699105"><ele>9.0</ele><time>2026-05-06T08:03:42.563Z</time></trkpt><trkpt lat="38.1046817" lon="12.69899"><ele>9.333333333333334</ele><time>2026-05-06T08:03:43.563Z</time></trkpt><trkpt lat="38.104665" lon="12.6988767"><ele>9.666666666666668</ele><time>2026-05-06T08:03:44.565Z</time></trkpt><trkpt lat="38.1046517" lon="12.6987633"><ele>10.0</ele><time>2026-05-06T08:03:45.564Z</time></trkpt><trkpt lat="38.1046433" lon="12.6986517"><ele>10.6</ele><time>2026-05-06T08:03:46.564Z</time></trkpt><trkpt lat="38.104645" lon="12.6985417"><ele>11.2</ele><time>2026-05-06T08:03:47.564Z</time></trkpt><trkpt lat="38.1046483" lon="12.6984467"><ele>11.8</ele><time>2026-05-06T08:03:48.563Z</time></trkpt><trkpt lat="38.1046517" lon="12.6983667"><ele>12.4</ele><time>2026-05-06T08:03:49.565Z</time></trkpt><trkpt lat="38.1046667" lon="12.69822"><ele>13.0</ele><time>2026-05-06T08:03:51.564Z</time></trkpt><trkpt lat="38.104705" lon="12.6980817"><ele>12.999999999999998</ele><time>2026-05-06T08:03:53.564Z</time></trkpt><trkpt lat="38.1047483" lon="12.6979283"><ele>13.0</ele><time>2026-05-06T08:03:55.564Z</time></trkpt><trkpt lat="38.1047733" lon="12.697845"><ele>13.0</ele><time>2026-05-06T08:03:56.565Z</time></trkpt><trkpt lat="38.1048017" lon="12.6977617"><ele>13.0</ele><time>2026-05-06T08:03:57.563Z</time></trkpt><trkpt lat="38.1048333" lon="12.697685"><ele>12.999999999999998</ele><time>2026-05-06T08:03:58.564Z</time></trkpt><trkpt lat="38.1048717" lon="12.697615"><ele>13.0</ele><time>2026-05-06T08:03:59.564Z</time></trkpt><trkpt lat="38.104915" lon="12.697545"><ele>12.333333333333332</ele><time>2026-05-06T08:04:00.564Z</time></trkpt><trkpt lat="38.1049583" lon="12.69747"><ele>11.666666666666666</ele><time>2026-05-06T08:04:01.564Z</time></trkpt><trkpt lat="38.1049967" lon="12.697385"><ele>11.0</ele><time>2026-05-06T08:04:02.564Z</time></trkpt><trkpt lat="38.1050233" lon="12.6972933"><ele>10.333333333333332</ele><time>2026-05-06T08:04:03.563Z</time></trkpt><trkpt lat="38.1050433" lon="12.697195"><ele>9.666666666666666</ele><time>2026-05-06T08:04:04.562Z</time></trkpt><trkpt lat="38.10506" lon="12.6970967"><ele>9.0</ele><time>2026-05-06T08:04:05.564Z</time></trkpt><trkpt lat="38.10507" lon="12.6969967"><ele>9.0</ele><time>2026-05-06T08:04:06.564Z</time></trkpt><trkpt lat="38.1050683" lon="12.6968917"><ele>9.0</ele><time>2026-05-06T08:04:07.564Z</time></trkpt><trkpt lat="38.1050567" lon="12.6967883"><ele>9.0</ele><time>2026-05-06T08:04:08.565Z</time></trkpt><trkpt lat="38.105045" lon="12.6966833"><ele>9.0</ele><time>2026-05-06T08:04:09.564Z</time></trkpt><trkpt lat="38.105035" lon="12.696575"><ele>9.0</ele><time>2026-05-06T08:04:10.565Z</time></trkpt><trkpt lat="38.1050267" lon="12.6964667"><ele>9.0</ele><time>2026-05-06T08:04:11.565Z</time></trkpt><trkpt lat="38.1050283" lon="12.69636"><ele>9.0</ele><time>2026-05-06T08:04:12.564Z</time></trkpt><trkpt lat="38.10504" lon="12.6962683"><ele>9.0</ele><time>2026-05-06T08:04:13.564Z</time></trkpt><trkpt lat="38.10506" lon="12.6961917"><ele>9.0</ele><time>2026-05-06T08:04:14.564Z</time></trkpt><trkpt lat="38.1051133" lon="12.696075"><ele>9.0</ele><time>2026-05-06T08:04:16.563Z</time></trkpt><trkpt lat="38.10516" lon="12.6959867"><ele>9.0</ele><time>2026-05-06T08:04:18.565Z</time></trkpt><trkpt lat="38.105195" lon="12.6958933"><ele>9.0</ele><time>2026-05-06T08:04:20.565Z</time></trkpt><trkpt lat="38.10521" lon="12.695795"><ele>9.2</ele><time>2026-05-06T08:04:22.565Z</time></trkpt><trkpt lat="38.1052017" lon="12.6956867"><ele>9.4</ele><time>2026-05-06T08:04:24.565Z</time></trkpt><trkpt lat="38.105155" lon="12.69557"><ele>9.6</ele><time>2026-05-06T08:04:26.565Z</time></trkpt><trkpt lat="38.1050717" lon="12.69546"><ele>9.8</ele><time>2026-05-06T08:04:28.564Z</time></trkpt><trkpt lat="38.1050133" lon="12.6953283"><ele>10.0</ele><time>2026-05-06T08:04:30.563Z</time></trkpt><trkpt lat="38.1050133" lon="12.695195"><ele>10.166666666666668</ele><time>2026-05-06T08:04:32.565Z</time></trkpt><trkpt lat="38.105065" lon="12.6950983"><ele>10.333333333333334</ele><time>2026-05-06T08:04:34.563Z</time></trkpt><trkpt lat="38.105155" lon="12.694995"><ele>10.5</ele><time>2026-05-06T08:04:36.564Z</time></trkpt><trkpt lat="38.1051883" lon="12.6949217"><ele>10.666666666666666</ele><time>2026-05-06T08:04:37.565Z</time></trkpt><trkpt lat="38.1052183" lon="12.6948217"><ele>10.833333333333332</ele><time>2026-05-06T08:04:38.565Z</time></trkpt><trkpt lat="38.1052383" lon="12.6947183"><ele>11.0</ele><time>2026-05-06T08:04:39.565Z</time></trkpt><trkpt lat="38.1052483" lon="12.6946267"><ele>11.0</ele><time>2026-05-06T08:04:40.564Z</time></trkpt><trkpt lat="38.10526" lon="12.6945433"><ele>11.0</ele><time>2026-05-06T08:04:41.563Z</time></trkpt><trkpt lat="38.1052617" lon="12.6944583"><ele>11.0</ele><time>2026-05-06T08:04:42.564Z</time></trkpt><trkpt lat="38.105255" lon="12.6943667"><ele>11.0</ele><time>2026-05-06T08:04:43.565Z</time></trkpt><trkpt lat="38.10524" lon="12.6942833"><ele>11.0</ele><time>2026-05-06T08:04:44.565Z</time></trkpt><trkpt lat="38.1052267" lon="12.6941383"><ele>11.0</ele><time>2026-05-06T08:04:46.563Z</time></trkpt><trkpt lat="38.1052567" lon="12.69402"><ele>11.0</ele><time>2026-05-06T08:04:48.564Z</time></trkpt><trkpt lat="38.1053083" lon="12.693915"><ele>11.0</ele><time>2026-05-06T08:04:50.564Z</time></trkpt><trkpt lat="38.1053417" lon="12.6937967"><ele>11.0</ele><time>2026-05-06T08:04:52.563Z</time></trkpt><trkpt lat="38.105345" lon="12.693645"><ele>11.0</ele><time>2026-05-06T08:04:54.563Z</time></trkpt><trkpt lat="38.1053233" lon="12.69349"><ele>11.0</ele><time>2026-05-06T08:04:56.565Z</time></trkpt><trkpt lat="38.1052833" lon="12.6933483"><ele>10.833333333333332</ele><time>2026-05-06T08:04:58.565Z</time></trkpt><trkpt lat="38.1052183" lon="12.69322"><ele>10.666666666666666</ele><time>2026-05-06T08:05:00.564Z</time></trkpt><trkpt lat="38.10518" lon="12.693155"><ele>10.5</ele><time>2026-05-06T08:05:01.564Z</time></trkpt><trkpt lat="38.105145" lon="12.6930867"><ele>10.333333333333334</ele><time>2026-05-06T08:05:02.564Z</time></trkpt><trkpt lat="38.1051017" lon="12.6929467"><ele>10.166666666666668</ele><time>2026-05-06T08:05:04.565Z</time></trkpt><trkpt lat="38.1050867" lon="12.6928667"><ele>10.0</ele><time>2026-05-06T08:05:05.562Z</time></trkpt><trkpt lat="38.1050683" lon="12.6927867"><ele>9.833333333333334</ele><time>2026-05-06T08:05:06.562Z</time></trkpt><trkpt lat="38.1050483" lon="12.692705"><ele>9.666666666666668</ele><time>2026-05-06T08:05:07.563Z</time></trkpt><trkpt lat="38.10503" lon="12.69262"><ele>9.5</ele><time>2026-05-06T08:05:08.564Z</time></trkpt><trkpt lat="38.1050117" lon="12.6925383"><ele>9.333333333333334</ele><time>2026-05-06T08:05:09.564Z</time></trkpt><trkpt lat="38.1049833" lon="12.6923983"><ele>9.166666666666666</ele><time>2026-05-06T08:05:11.564Z</time></trkpt><trkpt lat="38.1049967" lon="12.69229"><ele>9.0</ele><time>2026-05-06T08:05:13.563Z</time></trkpt><trkpt lat="38.1050517" lon="12.6922433"><ele>9.0</ele><time>2026-05-06T08:05:15.564Z</time></trkpt><trkpt lat="38.1051233" lon="12.692245"><ele>9.0</ele><time>2026-05-06T08:05:17.565Z</time></trkpt><trkpt lat="38.105185" lon="12.6922067"><ele>9.0</ele><time>2026-05-06T08:05:20.565Z</time></trkpt></trkseg><trkseg><trkpt lat="38.1050202" lon="12.6922821"><ele>9.0</ele><time>2026-05-06T08:30:39.565Z</time></trkpt><trkpt lat="38.1049793" lon="12.6923684"><ele>9.0</ele><time>2026-05-06T08:30:40.564Z</time></trkpt><trkpt lat="38.1049779" lon="12.6924656"><ele>9.0</ele><time>2026-05-06T08:30:41.566Z</time></trkpt><trkpt lat="38.1049957" lon="12.6925832"><ele>9.0</ele><time>2026-05-06T08:30:42.564Z</time></trkpt><trkpt lat="38.1050238" lon="12.6927045"><ele>9.0</ele><time>2026-05-06T08:30:43.563Z</time></trkpt><trkpt lat="38.1050579" lon="12.692826"><ele>9.2</ele><time>2026-05-06T08:30:44.566Z</time></trkpt><trkpt lat="38.1050902" lon="12.6929431"><ele>9.4</ele><time>2026-05-06T08:30:45.564Z</time></trkpt><trkpt lat="38.1051236" lon="12.6930582"><ele>9.6</ele><time>2026-05-06T08:30:46.564Z</time></trkpt><trkpt lat="38.1051753" lon="12.6931705"><ele>9.8</ele><time>2026-05-06T08:30:47.565Z</time></trkpt><trkpt lat="38.1052333" lon="12.6932857"><ele>10.0</ele><time>2026-05-06T08:30:48.565Z</time></trkpt><trkpt lat="38.1052853" lon="12.6934104"><ele>10.0</ele><time>2026-05-06T08:30:49.564Z</time></trkpt><trkpt lat="38.1053221" lon="12.6935393"><ele>10.0</ele><time>2026-05-06T08:30:50.565Z</time></trkpt><trkpt lat="38.1053359" lon="12.6936716"><ele>10.0</ele><time>2026-05-06T08:30:51.565Z</time></trkpt><trkpt lat="38.1053313" lon="12.6937938"><ele>10.0</ele><time>2026-05-06T08:30:52.564Z</time></trkpt><trkpt lat="38.1053062" lon="12.6939076"><ele>10.0</ele><time>2026-05-06T08:30:53.565Z</time></trkpt><trkpt lat="38.1052656" lon="12.6940211"><ele>10.2</ele><time>2026-05-06T08:30:54.564Z</time></trkpt><trkpt lat="38.1052309" lon="12.6941371"><ele>10.4</ele><time>2026-05-06T08:30:55.563Z</time></trkpt><trkpt lat="38.1052226" lon="12.6942576"><ele>10.600000000000001</ele><time>2026-05-06T08:30:56.565Z</time></trkpt><trkpt lat="38.105238" lon="12.6943882"><ele>10.8</ele><time>2026-05-06T08:30:57.563Z</time></trkpt><trkpt lat="38.1052508" lon="12.6945395"><ele>11.0</ele><time>2026-05-06T08:30:58.566Z</time></trkpt><trkpt lat="38.105248" lon="12.6947071"><ele>11.0</ele><time>2026-05-06T08:30:59.565Z</time></trkpt><trkpt lat="38.1052345" lon="12.6948671"><ele>11.0</ele><time>2026-05-06T08:31:00.565Z</time></trkpt><trkpt lat="38.1052173" lon="12.6949931"><ele>11.0</ele><time>2026-05-06T08:31:01.566Z</time></trkpt><trkpt lat="38.1051939" lon="12.6950811"><ele>11.0</ele><time>2026-05-06T08:31:02.565Z</time></trkpt><trkpt lat="38.1050963" lon="12.6951832"><ele>11.0</ele><time>2026-05-06T08:31:04.565Z</time></trkpt><trkpt lat="38.105025" lon="12.6952367"><ele>10.833333333333332</ele><time>2026-05-06T08:31:05.564Z</time></trkpt><trkpt lat="38.1049867" lon="12.69538"><ele>10.666666666666666</ele><time>2026-05-06T08:31:07.565Z</time></trkpt><trkpt lat="38.1050083" lon="12.6954617"><ele>10.5</ele><time>2026-05-06T08:31:08.566Z</time></trkpt><trkpt lat="38.1050517" lon="12.6955283"><ele>10.333333333333334</ele><time>2026-05-06T08:31:09.564Z</time></trkpt><trkpt lat="38.10512" lon="12.69561"><ele>10.166666666666668</ele><time>2026-05-06T08:31:11.565Z</time></trkpt><trkpt lat="38.1051733" lon="12.69556"><ele>10.0</ele><time>2026-05-06T08:31:15.564Z</time></trkpt><trkpt lat="38.105115" lon="12.6955217"><ele>10.0</ele><time>2026-05-06T08:31:17.564Z</time></trkpt><trkpt lat="38.1050433" lon="12.69544"><ele>10.0</ele><time>2026-05-06T08:31:19.564Z</time></trkpt><trkpt lat="38.1050067" lon="12.6953317"><ele>10.0</ele><time>2026-05-06T08:31:21.565Z</time></trkpt><trkpt lat="38.1050117" lon="12.6952433"><ele>10.0</ele><time>2026-05-06T08:31:23.565Z</time></trkpt><trkpt lat="38.1050633" lon="12.6951683"><ele>10.0</ele><time>2026-05-06T08:31:26.565Z</time></trkpt><trkpt lat="38.1051683" lon="12.6951217"><ele>10.0</ele><time>2026-05-06T08:31:35.564Z</time></trkpt><trkpt lat="38.105215" lon="12.6949967"><ele>10.0</ele><time>2026-05-06T08:31:38.565Z</time></trkpt><trkpt lat="38.10525" lon="12.6949017"><ele>10.0</ele><time>2026-05-06T08:31:40.565Z</time></trkpt><trkpt lat="38.1051867" lon="12.6950017"><ele>10.0</ele><time>2026-05-06T08:31:47.564Z</time></trkpt><trkpt lat="38.10513" lon="12.6951217"><ele>10.0</ele><time>2026-05-06T08:31:49.563Z</time></trkpt><trkpt lat="38.1050333" lon="12.6951883"><ele>10.0</ele><time>2026-05-06T08:31:51.564Z</time></trkpt><trkpt lat="38.10498" lon="12.6953283"><ele>10.0</ele><time>2026-05-06T08:31:53.565Z</time></trkpt><trkpt lat="38.10499" lon="12.6954167"><ele>10.0</ele><time>2026-05-06T08:31:54.565Z</time></trkpt><trkpt lat="38.1050283" lon="12.6954983"><ele>10.0</ele><time>2026-05-06T08:31:55.564Z</time></trkpt><trkpt lat="38.1050867" lon="12.6955767"><ele>10.0</ele><time>2026-05-06T08:31:56.565Z</time></trkpt><trkpt lat="38.1051333" lon="12.695655"><ele>10.0</ele><time>2026-05-06T08:31:57.564Z</time></trkpt><trkpt lat="38.1051667" lon="12.6957433"><ele>10.0</ele><time>2026-05-06T08:31:58.566Z</time></trkpt><trkpt lat="38.1051783" lon="12.69584"><ele>10.0</ele><time>2026-05-06T08:31:59.565Z</time></trkpt><trkpt lat="38.105175" lon="12.6959333"><ele>10.0</ele><time>2026-05-06T08:32:00.565Z</time></trkpt><trkpt lat="38.1051483" lon="12.696015"><ele>10.0</ele><time>2026-05-06T08:32:01.565Z</time></trkpt><trkpt lat="38.1051017" lon="12.6960883"><ele>10.0</ele><time>2026-05-06T08:32:02.566Z</time></trkpt><trkpt lat="38.1050567" lon="12.6961583"><ele>10.0</ele><time>2026-05-06T08:32:03.564Z</time></trkpt><trkpt lat="38.105025" lon="12.6962317"><ele>10.0</ele><time>2026-05-06T08:32:04.564Z</time></trkpt><trkpt lat="38.1050083" lon="12.6963133"><ele>10.0</ele><time>2026-05-06T08:32:05.563Z</time></trkpt><trkpt lat="38.105005" lon="12.6964067"><ele>9.8</ele><time>2026-05-06T08:32:06.564Z</time></trkpt><trkpt lat="38.1050083" lon="12.69651"><ele>9.6</ele><time>2026-05-06T08:32:07.565Z</time></trkpt><trkpt lat="38.105015" lon="12.696625"><ele>9.4</ele><time>2026-05-06T08:32:08.564Z</time></trkpt><trkpt lat="38.105025" lon="12.6967483"><ele>9.2</ele><time>2026-05-06T08:32:09.565Z</time></trkpt><trkpt lat="38.1050367" lon="12.6968783"><ele>9.0</ele><time>2026-05-06T08:32:10.566Z</time></trkpt><trkpt lat="38.105045" lon="12.6970117"><ele>9.0</ele><time>2026-05-06T08:32:11.565Z</time></trkpt><trkpt lat="38.10504" lon="12.6971433"><ele>9.0</ele><time>2026-05-06T08:32:12.565Z</time></trkpt><trkpt lat="38.1050183" lon="12.6972767"><ele>9.0</ele><time>2026-05-06T08:32:13.563Z</time></trkpt><trkpt lat="38.1049817" lon="12.697405"><ele>9.0</ele><time>2026-05-06T08:32:14.565Z</time></trkpt><trkpt lat="38.1049283" lon="12.69753"><ele>9.0</ele><time>2026-05-06T08:32:15.565Z</time></trkpt><trkpt lat="38.1048617" lon="12.697645"><ele>9.8</ele><time>2026-05-06T08:32:16.565Z</time></trkpt><trkpt lat="38.1048017" lon="12.6977633"><ele>10.600000000000001</ele><time>2026-05-06T08:32:17.565Z</time></trkpt><trkpt lat="38.1047533" lon="12.6978933"><ele>11.4</ele><time>2026-05-06T08:32:18.565Z</time></trkpt><trkpt lat="38.104715" lon="12.6980267"><ele>12.200000000000001</ele><time>2026-05-06T08:32:19.564Z</time></trkpt><trkpt lat="38.1046817" lon="12.69815"><ele>13.0</ele><time>2026-05-06T08:32:20.564Z</time></trkpt><trkpt lat="38.1046583" lon="12.69827"><ele>13.0</ele><time>2026-05-06T08:32:21.563Z</time></trkpt><trkpt lat="38.1046483" lon="12.6984017"><ele>13.0</ele><time>2026-05-06T08:32:22.563Z</time></trkpt><trkpt lat="38.1046433" lon="12.6985433"><ele>13.0</ele><time>2026-05-06T08:32:23.563Z</time></trkpt><trkpt lat="38.1046433" lon="12.6987017"><ele>13.0</ele><time>2026-05-06T08:32:24.566Z</time></trkpt><trkpt lat="38.1046483" lon="12.6988617"><ele>12.25</ele><time>2026-05-06T08:32:25.564Z</time></trkpt><trkpt lat="38.1046633" lon="12.6990183"><ele>11.5</ele><time>2026-05-06T08:32:26.566Z</time></trkpt><trkpt lat="38.1046817" lon="12.6991717"><ele>10.75</ele><time>2026-05-06T08:32:27.564Z</time></trkpt><trkpt lat="38.1047083" lon="12.6993233"><ele>10.0</ele><time>2026-05-06T08:32:28.565Z</time></trkpt><trkpt lat="38.1047367" lon="12.6994717"><ele>9.6</ele><time>2026-05-06T08:32:29.563Z</time></trkpt><trkpt lat="38.1047733" lon="12.6996183"><ele>9.2</ele><time>2026-05-06T08:32:30.565Z</time></trkpt><trkpt lat="38.1048117" lon="12.6997583"><ele>8.8</ele><time>2026-05-06T08:32:31.565Z</time></trkpt><trkpt lat="38.104845" lon="12.6998867"><ele>8.4</ele><time>2026-05-06T08:32:32.564Z</time></trkpt><trkpt lat="38.1048733" lon="12.7000133"><ele>8.0</ele><time>2026-05-06T08:32:33.564Z</time></trkpt><trkpt lat="38.1048967" lon="12.70014"><ele>7.6000000000000005</ele><time>2026-05-06T08:32:34.565Z</time></trkpt><trkpt lat="38.1049283" lon="12.7002667"><ele>7.200000000000001</ele><time>2026-05-06T08:32:35.565Z</time></trkpt><trkpt lat="38.1049767" lon="12.7003867"><ele>6.8</ele><time>2026-05-06T08:32:36.564Z</time></trkpt><trkpt lat="38.10503" lon="12.7005033"><ele>6.4</ele><time>2026-05-06T08:32:37.565Z</time></trkpt><trkpt lat="38.1050867" lon="12.7006233"><ele>6.0</ele><time>2026-05-06T08:32:38.564Z</time></trkpt><trkpt lat="38.105145" lon="12.7007433"><ele>6.0</ele><time>2026-05-06T08:32:39.564Z</time></trkpt><trkpt lat="38.1052" lon="12.7008683"><ele>6.0</ele><time>2026-05-06T08:32:40.565Z</time></trkpt><trkpt lat="38.1052467" lon="12.7009967"><ele>6.0</ele><time>2026-05-06T08:32:41.563Z</time></trkpt><trkpt lat="38.105295" lon="12.7011217"><ele>6.0</ele><time>2026-05-06T08:32:42.565Z</time></trkpt><trkpt lat="38.1053467" lon="12.70124"><ele>6.0</ele><time>2026-05-06T08:32:43.564Z</time></trkpt><trkpt lat="38.1053983" lon="12.701365"><ele>6.0</ele><time>2026-05-06T08:32:44.564Z</time></trkpt><trkpt lat="38.1054383" lon="12.7014917"><ele>6.0</ele><time>2026-05-06T08:32:45.565Z</time></trkpt><trkpt lat="38.10547" lon="12.70162"><ele>6.0</ele><time>2026-05-06T08:32:46.565Z</time></trkpt><trkpt lat="38.1055067" lon="12.70175"><ele>6.0</ele><time>2026-05-06T08:32:47.564Z</time></trkpt><trkpt lat="38.1055467" lon="12.7018833"><ele>6.0</ele><time>2026-05-06T08:32:48.566Z</time></trkpt><trkpt lat="38.1055883" lon="12.702015"><ele>6.0</ele><time>2026-05-06T08:32:49.563Z</time></trkpt><trkpt lat="38.1056283" lon="12.7021467"><ele>6.0</ele><time>2026-05-06T08:32:50.565Z</time></trkpt><trkpt lat="38.10567" lon="12.7022783"><ele>6.0</ele><time>2026-05-06T08:32:51.565Z</time></trkpt><trkpt lat="38.1057067" lon="12.702415"><ele>6.0</ele><time>2026-05-06T08:32:52.565Z</time></trkpt><trkpt lat="38.1057417" lon="12.7025533"><ele>6.0</ele><time>2026-05-06T08:32:53.565Z</time></trkpt><trkpt lat="38.1057733" lon="12.70269"><ele>6.0</ele><time>2026-05-06T08:32:54.564Z</time></trkpt><trkpt lat="38.1058117" lon="12.7028233"><ele>6.0</ele><time>2026-05-06T08:32:55.565Z</time></trkpt><trkpt lat="38.1058567" lon="12.7029533"><ele>6.0</ele><time>2026-05-06T08:32:56.565Z</time></trkpt><trkpt lat="38.1059017" lon="12.703085"><ele>6.0</ele><time>2026-05-06T08:32:57.565Z</time></trkpt><trkpt lat="38.1059467" lon="12.7032167"><ele>6.0</ele><time>2026-05-06T08:32:58.565Z</time></trkpt><trkpt lat="38.1059917" lon="12.70335"><ele>6.0</ele><time>2026-05-06T08:32:59.565Z</time></trkpt><trkpt lat="38.1060383" lon="12.7034833"><ele>6.0</ele><time>2026-05-06T08:33:00.564Z</time></trkpt><trkpt lat="38.1060817" lon="12.7036183"><ele>6.0</ele><time>2026-05-06T08:33:01.565Z</time></trkpt><trkpt lat="38.10612" lon="12.703755"><ele>6.199999999999999</ele><time>2026-05-06T08:33:02.566Z</time></trkpt><trkpt lat="38.106155" lon="12.7038833"><ele>6.3999999999999995</ele><time>2026-05-06T08:33:03.564Z</time></trkpt><trkpt lat="38.10619" lon="12.7040033"><ele>6.6</ele><time>2026-05-06T08:33:04.565Z</time></trkpt><trkpt lat="38.1062317" lon="12.704125"><ele>6.8</ele><time>2026-05-06T08:33:05.565Z</time></trkpt><trkpt lat="38.1062783" lon="12.7042483"><ele>7.0</ele><time>2026-05-06T08:33:06.565Z</time></trkpt><trkpt lat="38.106325" lon="12.70437"><ele>7.333333333333334</ele><time>2026-05-06T08:33:07.565Z</time></trkpt><trkpt lat="38.10637" lon="12.7044933"><ele>7.666666666666667</ele><time>2026-05-06T08:33:08.565Z</time></trkpt><trkpt lat="38.1064017" lon="12.70461"><ele>8.0</ele><time>2026-05-06T08:33:09.565Z</time></trkpt><trkpt lat="38.1064217" lon="12.70472"><ele>8.333333333333334</ele><time>2026-05-06T08:33:10.563Z</time></trkpt><trkpt lat="38.1064383" lon="12.70482"><ele>8.666666666666666</ele><time>2026-05-06T08:33:11.565Z</time></trkpt><trkpt lat="38.106455" lon="12.7049117"><ele>9.0</ele><time>2026-05-06T08:33:12.565Z</time></trkpt><trkpt lat="38.10647" lon="12.7049967"><ele>9.0</ele><time>2026-05-06T08:33:13.565Z</time></trkpt><trkpt lat="38.106485" lon="12.705075"><ele>9.0</ele><time>2026-05-06T08:33:14.565Z</time></trkpt><trkpt lat="38.10651" lon="12.7052017"><ele>9.0</ele><time>2026-05-06T08:33:16.565Z</time></trkpt><trkpt lat="38.1065383" lon="12.7052867"><ele>9.0</ele><time>2026-05-06T08:33:19.565Z</time></trkpt><trkpt lat="38.1065633" lon="12.7053783"><ele>9.0</ele><time>2026-05-06T08:33:41.565Z</time></trkpt><trkpt lat="38.1066033" lon="12.7054883"><ele>9.0</ele><time>2026-05-06T08:33:43.565Z</time></trkpt><trkpt lat="38.10666" lon="12.7056267"><ele>8.833333333333334</ele><time>2026-05-06T08:33:45.565Z</time></trkpt><trkpt lat="38.1067267" lon="12.705775"><ele>8.666666666666666</ele><time>2026-05-06T08:33:47.566Z</time></trkpt><trkpt lat="38.106755" lon="12.7058517"><ele>8.5</ele><time>2026-05-06T08:33:48.567Z</time></trkpt><trkpt lat="38.1067867" lon="12.7059333"><ele>8.333333333333332</ele><time>2026-05-06T08:33:49.564Z</time></trkpt><trkpt lat="38.106825" lon="12.7060183"><ele>8.166666666666666</ele><time>2026-05-06T08:33:50.567Z</time></trkpt><trkpt lat="38.106865" lon="12.7061083"><ele>8.0</ele><time>2026-05-06T08:33:51.565Z</time></trkpt><trkpt lat="38.1069083" lon="12.7062"><ele>7.999999999999999</ele><time>2026-05-06T08:33:52.564Z</time></trkpt><trkpt lat="38.10695" lon="12.7062967"><ele>8.0</ele><time>2026-05-06T08:33:53.564Z</time></trkpt><trkpt lat="38.1069883" lon="12.7063983"><ele>8.0</ele><time>2026-05-06T08:33:54.565Z</time></trkpt><trkpt lat="38.1070217" lon="12.7065033"><ele>8.0</ele><time>2026-05-06T08:33:55.564Z</time></trkpt><trkpt lat="38.10705" lon="12.706605"><ele>7.999999999999999</ele><time>2026-05-06T08:33:56.565Z</time></trkpt><trkpt lat="38.10707" lon="12.70671"><ele>8.0</ele><time>2026-05-06T08:33:57.565Z</time></trkpt><trkpt lat="38.1070817" lon="12.7068217"><ele>8.333333333333332</ele><time>2026-05-06T08:33:58.564Z</time></trkpt><trkpt lat="38.1070933" lon="12.7069283"><ele>8.666666666666666</ele><time>2026-05-06T08:33:59.565Z</time></trkpt><trkpt lat="38.1071133" lon="12.707025"><ele>9.0</ele><time>2026-05-06T08:34:00.564Z</time></trkpt><trkpt lat="38.107145" lon="12.7071167"><ele>9.333333333333334</ele><time>2026-05-06T08:34:01.566Z</time></trkpt><trkpt lat="38.107185" lon="12.70721"><ele>9.666666666666668</ele><time>2026-05-06T08:34:02.565Z</time></trkpt><trkpt lat="38.107225" lon="12.7073"><ele>10.0</ele><time>2026-05-06T08:34:03.565Z</time></trkpt><trkpt lat="38.10726" lon="12.7073817"><ele>10.0</ele><time>2026-05-06T08:34:04.565Z</time></trkpt><trkpt lat="38.1072917" lon="12.707455"><ele>10.0</ele><time>2026-05-06T08:34:05.564Z</time></trkpt><trkpt lat="38.107345" lon="12.70758"><ele>10.0</ele><time>2026-05-06T08:34:07.564Z</time></trkpt><trkpt lat="38.1073883" lon="12.7076867"><ele>10.0</ele><time>2026-05-06T08:34:09.565Z</time></trkpt><trkpt lat="38.10744" lon="12.7077883"><ele>10.0</ele><time>2026-05-06T08:34:11.565Z</time></trkpt><trkpt lat="38.1075083" lon="12.7078867"><ele>9.4</ele><time>2026-05-06T08:34:13.565Z</time></trkpt><trkpt lat="38.1075867" lon="12.7080017"><ele>8.8</ele><time>2026-05-06T08:34:15.565Z</time></trkpt><trkpt lat="38.1076517" lon="12.7081317"><ele>8.2</ele><time>2026-05-06T08:34:17.566Z</time></trkpt><trkpt lat="38.1077183" lon="12.7082617"><ele>7.6</ele><time>2026-05-06T08:34:19.564Z</time></trkpt><trkpt lat="38.1077517" lon="12.7083333"><ele>7.0</ele><time>2026-05-06T08:34:20.566Z</time></trkpt><trkpt lat="38.1077883" lon="12.7084117"><ele>7.000000000000001</ele><time>2026-05-06T08:34:21.565Z</time></trkpt><trkpt lat="38.10783" lon="12.70849"><ele>7.0</ele><time>2026-05-06T08:34:22.563Z</time></trkpt><trkpt lat="38.1078717" lon="12.7085717"><ele>7.0</ele><time>2026-05-06T08:34:23.564Z</time></trkpt><trkpt lat="38.1079117" lon="12.708655"><ele>7.0</ele><time>2026-05-06T08:34:24.564Z</time></trkpt><trkpt lat="38.10795" lon="12.7087467"><ele>7.000000000000001</ele><time>2026-05-06T08:34:25.564Z</time></trkpt><trkpt lat="38.1079867" lon="12.708845"><ele>7.0</ele><time>2026-05-06T08:34:26.566Z</time></trkpt><trkpt lat="38.1080233" lon="12.7089433"><ele>7.000000000000001</ele><time>2026-05-06T08:34:27.564Z</time></trkpt><trkpt lat="38.1080583" lon="12.7090417"><ele>7.0</ele><time>2026-05-06T08:34:28.565Z</time></trkpt><trkpt lat="38.1080867" lon="12.709145"><ele>7.0</ele><time>2026-05-06T08:34:29.564Z</time></trkpt><trkpt lat="38.1081133" lon="12.7092483"><ele>7.0</ele><time>2026-05-06T08:34:30.564Z</time></trkpt><trkpt lat="38.1081383" lon="12.709355"><ele>7.000000000000001</ele><time>2026-05-06T08:34:31.565Z</time></trkpt><trkpt lat="38.1081667" lon="12.7094617"><ele>7.0</ele><time>2026-05-06T08:34:32.566Z</time></trkpt><trkpt lat="38.1081983" lon="12.7095683"><ele>7.199999999999999</ele><time>2026-05-06T08:34:33.564Z</time></trkpt><trkpt lat="38.1082317" lon="12.709675"><ele>7.3999999999999995</ele><time>2026-05-06T08:34:34.564Z</time></trkpt><trkpt lat="38.1082617" lon="12.7097817"><ele>7.6000000000000005</ele><time>2026-05-06T08:34:35.564Z</time></trkpt><trkpt lat="38.1082917" lon="12.7098883"><ele>7.800000000000001</ele><time>2026-05-06T08:34:36.565Z</time></trkpt><trkpt lat="38.1083283" lon="12.7099933"><ele>8.0</ele><time>2026-05-06T08:34:37.564Z</time></trkpt><trkpt lat="38.10837" lon="12.7100983"><ele>8.0</ele><time>2026-05-06T08:34:38.565Z</time></trkpt><trkpt lat="38.1084133" lon="12.7102033"><ele>8.0</ele><time>2026-05-06T08:34:39.564Z</time></trkpt><trkpt lat="38.1084567" lon="12.7103133"><ele>8.0</ele><time>2026-05-06T08:34:40.565Z</time></trkpt><trkpt lat="38.108495" lon="12.7104233"><ele>8.0</ele><time>2026-05-06T08:34:41.565Z</time></trkpt><trkpt lat="38.108535" lon="12.7105317"><ele>8.0</ele><time>2026-05-06T08:34:42.565Z</time></trkpt><trkpt lat="38.1085717" lon="12.7106433"><ele>8.0</ele><time>2026-05-06T08:34:43.565Z</time></trkpt><trkpt lat="38.1086017" lon="12.7107567"><ele>8.0</ele><time>2026-05-06T08:34:44.565Z</time></trkpt><trkpt lat="38.10862" lon="12.7108733"><ele>8.0</ele><time>2026-05-06T08:34:45.565Z</time></trkpt><trkpt lat="38.1086317" lon="12.71099"><ele>8.0</ele><time>2026-05-06T08:34:46.565Z</time></trkpt><trkpt lat="38.1086467" lon="12.711105"><ele>8.0</ele><time>2026-05-06T08:34:47.565Z</time></trkpt><trkpt lat="38.1086667" lon="12.7112083"><ele>7.7142857142857135</ele><time>2026-05-06T08:34:48.565Z</time></trkpt><trkpt lat="38.108685" lon="12.711295"><ele>7.428571428571428</ele><time>2026-05-06T08:34:49.565Z</time></trkpt><trkpt lat="38.1087067" lon="12.7113733"><ele>7.142857142857142</ele><time>2026-05-06T08:34:50.566Z</time></trkpt><trkpt lat="38.1087383" lon="12.7114467"><ele>6.857142857142857</ele><time>2026-05-06T08:34:51.564Z</time></trkpt><trkpt lat="38.10878" lon="12.7115133"><ele>6.571428571428571</ele><time>2026-05-06T08:34:52.565Z</time></trkpt><trkpt lat="38.1088183" lon="12.7115833"><ele>6.285714285714285</ele><time>2026-05-06T08:34:53.565Z</time></trkpt><trkpt lat="38.108825" lon="12.7116667"><ele>6.0</ele><time>2026-05-06T08:34:54.566Z</time></trkpt><trkpt lat="38.1088067" lon="12.7117617"><ele>6.0</ele><time>2026-05-06T08:34:55.565Z</time></trkpt><trkpt lat="38.1087783" lon="12.711865"><ele>6.0</ele><time>2026-05-06T08:34:56.565Z</time></trkpt><trkpt lat="38.1087667" lon="12.7119733"><ele>6.0</ele><time>2026-05-06T08:34:57.565Z</time></trkpt><trkpt lat="38.1087733" lon="12.7120783"><ele>6.0</ele><time>2026-05-06T08:34:58.564Z</time></trkpt><trkpt lat="38.10881" lon="12.7121783"><ele>6.0</ele><time>2026-05-06T08:34:59.565Z</time></trkpt><trkpt lat="38.108865" lon="12.71227"><ele>6.0</ele><time>2026-05-06T08:35:00.565Z</time></trkpt><trkpt lat="38.1089317" lon="12.71236"><ele>6.4</ele><time>2026-05-06T08:35:01.564Z</time></trkpt><trkpt lat="38.1090067" lon="12.712445"><ele>6.8</ele><time>2026-05-06T08:35:02.566Z</time></trkpt><trkpt lat="38.109085" lon="12.71252"><ele>7.200000000000001</ele><time>2026-05-06T08:35:03.565Z</time></trkpt><trkpt lat="38.1091683" lon="12.7125917"><ele>7.6000000000000005</ele><time>2026-05-06T08:35:04.565Z</time></trkpt><trkpt lat="38.1092433" lon="12.71267"><ele>8.0</ele><time>2026-05-06T08:35:05.565Z</time></trkpt><trkpt lat="38.1093033" lon="12.7127583"><ele>8.333333333333332</ele><time>2026-05-06T08:35:06.565Z</time></trkpt><trkpt lat="38.1093483" lon="12.7128517"><ele>8.666666666666666</ele><time>2026-05-06T08:35:07.565Z</time></trkpt><trkpt lat="38.109395" lon="12.7129433"><ele>9.0</ele><time>2026-05-06T08:35:08.565Z</time></trkpt><trkpt lat="38.109445" lon="12.7130367"><ele>9.333333333333334</ele><time>2026-05-06T08:35:09.565Z</time></trkpt><trkpt lat="38.1095033" lon="12.713125"><ele>9.666666666666668</ele><time>2026-05-06T08:35:10.565Z</time></trkpt><trkpt lat="38.1095683" lon="12.7132017"><ele>10.0</ele><time>2026-05-06T08:35:11.565Z</time></trkpt><trkpt lat="38.10964" lon="12.7132683"><ele>10.0</ele><time>2026-05-06T08:35:12.564Z</time></trkpt><trkpt lat="38.10971" lon="12.7133383"><ele>10.0</ele><time>2026-05-06T08:35:13.565Z</time></trkpt><trkpt lat="38.1097683" lon="12.7134083"><ele>10.0</ele><time>2026-05-06T08:35:14.566Z</time></trkpt><trkpt lat="38.1098183" lon="12.7134933"><ele>10.0</ele><time>2026-05-06T08:35:15.564Z</time></trkpt><trkpt lat="38.1098633" lon="12.71357"><ele>10.0</ele><time>2026-05-06T08:35:16.564Z</time></trkpt><trkpt lat="38.10992" lon="12.7136383"><ele>10.0</ele><time>2026-05-06T08:35:17.565Z</time></trkpt><trkpt lat="38.1099817" lon="12.7137067"><ele>10.0</ele><time>2026-05-06T08:35:18.564Z</time></trkpt><trkpt lat="38.1100317" lon="12.713775"><ele>10.0</ele><time>2026-05-06T08:35:19.565Z</time></trkpt><trkpt lat="38.1100783" lon="12.71384"><ele>10.0</ele><time>2026-05-06T08:35:20.566Z</time></trkpt><trkpt lat="38.110175" lon="12.7139433"><ele>10.0</ele><time>2026-05-06T08:35:22.565Z</time></trkpt><trkpt lat="38.1102183" lon="12.7140083"><ele>10.0</ele><time>2026-05-06T08:35:23.567Z</time></trkpt><trkpt lat="38.11025" lon="12.7140833"><ele>10.0</ele><time>2026-05-06T08:35:24.564Z</time></trkpt><trkpt lat="38.1102783" lon="12.71417"><ele>10.0</ele><time>2026-05-06T08:35:25.564Z</time></trkpt><trkpt lat="38.1103083" lon="12.7142483"><ele>10.0</ele><time>2026-05-06T08:35:26.565Z</time></trkpt><trkpt lat="38.110395" lon="12.714365"><ele>10.0</ele><time>2026-05-06T08:35:28.565Z</time></trkpt><trkpt lat="38.110455" lon="12.7144217"><ele>10.0</ele><time>2026-05-06T08:35:29.565Z</time></trkpt><trkpt lat="38.1105133" lon="12.7144933"><ele>10.0</ele><time>2026-05-06T08:35:30.565Z</time></trkpt><trkpt lat="38.1105667" lon="12.714575"><ele>10.0</ele><time>2026-05-06T08:35:31.564Z</time></trkpt><trkpt lat="38.1106167" lon="12.7146667"><ele>10.0</ele><time>2026-05-06T08:35:32.564Z</time></trkpt><trkpt lat="38.1106617" lon="12.7147617"><ele>10.0</ele><time>2026-05-06T08:35:33.563Z</time></trkpt><trkpt lat="38.1107133" lon="12.7148417"><ele>10.0</ele><time>2026-05-06T08:35:34.567Z</time></trkpt><trkpt lat="38.11078" lon="12.7149017"><ele>10.0</ele><time>2026-05-06T08:35:35.563Z</time></trkpt><trkpt lat="38.1108517" lon="12.7149617"><ele>10.0</ele><time>2026-05-06T08:35:36.563Z</time></trkpt><trkpt lat="38.11092" lon="12.715035"><ele>10.0</ele><time>2026-05-06T08:35:37.564Z</time></trkpt><trkpt lat="38.1109883" lon="12.7151083"><ele>10.0</ele><time>2026-05-06T08:35:38.564Z</time></trkpt><trkpt lat="38.1110517" lon="12.71519"><ele>10.0</ele><time>2026-05-06T08:35:39.565Z</time></trkpt><trkpt lat="38.1111117" lon="12.7152783"><ele>10.0</ele><time>2026-05-06T08:35:40.565Z</time></trkpt><trkpt lat="38.1111783" lon="12.7153567"><ele>10.0</ele><time>2026-05-06T08:35:41.564Z</time></trkpt><trkpt lat="38.11124" lon="12.71543"><ele>10.0</ele><time>2026-05-06T08:35:42.563Z</time></trkpt><trkpt lat="38.1112767" lon="12.7155083"><ele>10.0</ele><time>2026-05-06T08:35:43.564Z</time></trkpt><trkpt lat="38.1113083" lon="12.71558"><ele>10.0</ele><time>2026-05-06T08:35:44.564Z</time></trkpt><trkpt lat="38.11135" lon="12.7156533"><ele>10.0</ele><time>2026-05-06T08:35:45.563Z</time></trkpt><trkpt lat="38.1114" lon="12.715735"><ele>10.0</ele><time>2026-05-06T08:35:46.563Z</time></trkpt><trkpt lat="38.1114517" lon="12.7158167"><ele>10.0</ele><time>2026-05-06T08:35:47.564Z</time></trkpt><trkpt lat="38.111505" lon="12.7159"><ele>10.0</ele><time>2026-05-06T08:35:48.565Z</time></trkpt><trkpt lat="38.1115617" lon="12.7159783"><ele>10.0</ele><time>2026-05-06T08:35:49.565Z</time></trkpt><trkpt lat="38.111625" lon="12.71605"><ele>10.0</ele><time>2026-05-06T08:35:50.564Z</time></trkpt><trkpt lat="38.11169" lon="12.7161183"><ele>10.0</ele><time>2026-05-06T08:35:51.565Z</time></trkpt><trkpt lat="38.1117567" lon="12.7161883"><ele>10.0</ele><time>2026-05-06T08:35:52.565Z</time></trkpt><trkpt lat="38.1118133" lon="12.71627"><ele>10.0</ele><time>2026-05-06T08:35:53.566Z</time></trkpt><trkpt lat="38.1118667" lon="12.71635"><ele>10.0</ele><time>2026-05-06T08:35:54.564Z</time></trkpt><trkpt lat="38.1119183" lon="12.7164217"><ele>10.0</ele><time>2026-05-06T08:35:55.563Z</time></trkpt><trkpt lat="38.11198" lon="12.7164933"><ele>10.0</ele><time>2026-05-06T08:35:56.564Z</time></trkpt><trkpt lat="38.11205" lon="12.7165533"><ele>10.0</ele><time>2026-05-06T08:35:57.563Z</time></trkpt><trkpt lat="38.1121317" lon="12.7166017"><ele>10.0</ele><time>2026-05-06T08:35:58.564Z</time></trkpt><trkpt lat="38.1122233" lon="12.7166367"><ele>10.0</ele><time>2026-05-06T08:35:59.564Z</time></trkpt><trkpt lat="38.11232" lon="12.71666"><ele>10.0</ele><time>2026-05-06T08:36:00.563Z</time></trkpt><trkpt lat="38.1124217" lon="12.7166717"><ele>9.6</ele><time>2026-05-06T08:36:01.563Z</time></trkpt><trkpt lat="38.112525" lon="12.7166733"><ele>9.2</ele><time>2026-05-06T08:36:02.564Z</time></trkpt><trkpt lat="38.112625" lon="12.716695"><ele>8.8</ele><time>2026-05-06T08:36:03.564Z</time></trkpt><trkpt lat="38.1127283" lon="12.716725"><ele>8.4</ele><time>2026-05-06T08:36:04.564Z</time></trkpt><trkpt lat="38.1128333" lon="12.71673"><ele>8.0</ele><time>2026-05-06T08:36:05.563Z</time></trkpt><trkpt lat="38.11294" lon="12.71672"><ele>8.0</ele><time>2026-05-06T08:36:06.564Z</time></trkpt><trkpt lat="38.11305" lon="12.716715"><ele>8.0</ele><time>2026-05-06T08:36:07.563Z</time></trkpt><trkpt lat="38.1131617" lon="12.7167"><ele>8.0</ele><time>2026-05-06T08:36:08.564Z</time></trkpt><trkpt lat="38.1132683" lon="12.716675"><ele>8.0</ele><time>2026-05-06T08:36:09.564Z</time></trkpt><trkpt lat="38.113365" lon="12.716655"><ele>8.0</ele><time>2026-05-06T08:36:10.565Z</time></trkpt><trkpt lat="38.1134567" lon="12.71665"><ele>7.999999999999999</ele><time>2026-05-06T08:36:11.564Z</time></trkpt><trkpt lat="38.1135383" lon="12.7166617"><ele>8.0</ele><time>2026-05-06T08:36:12.563Z</time></trkpt><trkpt lat="38.113615" lon="12.7166917"><ele>8.0</ele><time>2026-05-06T08:36:13.563Z</time></trkpt><trkpt lat="38.11368" lon="12.7167367"><ele>8.0</ele><time>2026-05-06T08:36:14.567Z</time></trkpt><trkpt lat="38.1137283" lon="12.7168017"><ele>7.999999999999999</ele><time>2026-05-06T08:36:15.564Z</time></trkpt><trkpt lat="38.1137617" lon="12.7168867"><ele>8.0</ele><time>2026-05-06T08:36:16.564Z</time></trkpt><trkpt lat="38.1137783" lon="12.716985"><ele>7.999999999999999</ele><time>2026-05-06T08:36:17.564Z</time></trkpt><trkpt lat="38.1137783" lon="12.7170917"><ele>8.0</ele><time>2026-05-06T08:36:18.565Z</time></trkpt><trkpt lat="38.1137767" lon="12.7172017"><ele>8.0</ele><time>2026-05-06T08:36:19.564Z</time></trkpt><trkpt lat="38.1137833" lon="12.7173067"><ele>8.0</ele><time>2026-05-06T08:36:20.563Z</time></trkpt><trkpt lat="38.1138017" lon="12.717415"><ele>7.999999999999999</ele><time>2026-05-06T08:36:21.563Z</time></trkpt><trkpt lat="38.113835" lon="12.717525"><ele>8.0</ele><time>2026-05-06T08:36:22.564Z</time></trkpt><trkpt lat="38.1138767" lon="12.7176333"><ele>8.4</ele><time>2026-05-06T08:36:23.564Z</time></trkpt><trkpt lat="38.1139217" lon="12.71775"><ele>8.8</ele><time>2026-05-06T08:36:24.564Z</time></trkpt><trkpt lat="38.11396" lon="12.71788"><ele>9.2</ele><time>2026-05-06T08:36:25.563Z</time></trkpt><trkpt lat="38.1139783" lon="12.7180217"><ele>9.6</ele><time>2026-05-06T08:36:26.564Z</time></trkpt><trkpt lat="38.113975" lon="12.718165"><ele>10.0</ele><time>2026-05-06T08:36:27.565Z</time></trkpt><trkpt lat="38.1139667" lon="12.71829"><ele>10.0</ele><time>2026-05-06T08:36:28.563Z</time></trkpt><trkpt lat="38.1139733" lon="12.7184067"><ele>10.0</ele><time>2026-05-06T08:36:29.563Z</time></trkpt><trkpt lat="38.113995" lon="12.7185283"><ele>10.0</ele><time>2026-05-06T08:36:30.563Z</time></trkpt><trkpt lat="38.11403" lon="12.7186567"><ele>10.0</ele><time>2026-05-06T08:36:31.564Z</time></trkpt><trkpt lat="38.1140617" lon="12.7187867"><ele>10.0</ele><time>2026-05-06T08:36:32.564Z</time></trkpt><trkpt lat="38.11409" lon="12.7189233"><ele>9.8</ele><time>2026-05-06T08:36:33.564Z</time></trkpt><trkpt lat="38.114115" lon="12.7190667"><ele>9.6</ele><time>2026-05-06T08:36:34.565Z</time></trkpt><trkpt lat="38.11413" lon="12.71919"><ele>9.4</ele><time>2026-05-06T08:36:35.564Z</time></trkpt><trkpt lat="38.114145" lon="12.7193017"><ele>9.2</ele><time>2026-05-06T08:36:36.563Z</time></trkpt><trkpt lat="38.114175" lon="12.71941"><ele>9.0</ele><time>2026-05-06T08:36:37.564Z</time></trkpt><trkpt lat="38.1142133" lon="12.719515"><ele>9.0</ele><time>2026-05-06T08:36:38.563Z</time></trkpt><trkpt lat="38.11424" lon="12.7196117"><ele>9.0</ele><time>2026-05-06T08:36:39.564Z</time></trkpt><trkpt lat="38.1142483" lon="12.719705"><ele>9.0</ele><time>2026-05-06T08:36:40.564Z</time></trkpt><trkpt lat="38.1142467" lon="12.7197983"><ele>9.0</ele><time>2026-05-06T08:36:41.562Z</time></trkpt><trkpt lat="38.1142217" lon="12.71988"><ele>9.0</ele><time>2026-05-06T08:36:42.564Z</time></trkpt><trkpt lat="38.114165" lon="12.71996"><ele>9.0</ele><time>2026-05-06T08:36:43.563Z</time></trkpt><trkpt lat="38.1140833" lon="12.72005"><ele>9.166666666666666</ele><time>2026-05-06T08:36:44.564Z</time></trkpt><trkpt lat="38.1140117" lon="12.720125"><ele>9.333333333333334</ele><time>2026-05-06T08:36:45.564Z</time></trkpt><trkpt lat="38.1139483" lon="12.7201917"><ele>9.5</ele><time>2026-05-06T08:36:46.563Z</time></trkpt><trkpt lat="38.1138967" lon="12.7202567"><ele>9.666666666666668</ele><time>2026-05-06T08:36:47.564Z</time></trkpt><trkpt lat="38.113845" lon="12.7203267"><ele>9.833333333333334</ele><time>2026-05-06T08:36:48.565Z</time></trkpt><trkpt lat="38.1137883" lon="12.7203983"><ele>10.0</ele><time>2026-05-06T08:36:49.564Z</time></trkpt><trkpt lat="38.1137283" lon="12.72048"><ele>10.6</ele><time>2026-05-06T08:36:50.565Z</time></trkpt><trkpt lat="38.1136583" lon="12.7205633"><ele>11.2</ele><time>2026-05-06T08:36:51.563Z</time></trkpt><trkpt lat="38.1135767" lon="12.7206583"><ele>11.8</ele><time>2026-05-06T08:36:52.564Z</time></trkpt><trkpt lat="38.113495" lon="12.7207583"><ele>12.4</ele><time>2026-05-06T08:36:53.564Z</time></trkpt><trkpt lat="38.113415" lon="12.7208583"><ele>13.0</ele><time>2026-05-06T08:36:54.565Z</time></trkpt><trkpt lat="38.11333" lon="12.7209617"><ele>12.75</ele><time>2026-05-06T08:36:55.564Z</time></trkpt><trkpt lat="38.1132433" lon="12.7210667"><ele>12.5</ele><time>2026-05-06T08:36:56.564Z</time></trkpt><trkpt lat="38.1131517" lon="12.721175"><ele>12.25</ele><time>2026-05-06T08:36:57.564Z</time></trkpt><trkpt lat="38.1130617" lon="12.721285"><ele>12.0</ele><time>2026-05-06T08:36:58.564Z</time></trkpt><trkpt lat="38.11297" lon="12.7214"><ele>12.5</ele><time>2026-05-06T08:36:59.564Z</time></trkpt><trkpt lat="38.1128733" lon="12.7215183"><ele>13.0</ele><time>2026-05-06T08:37:00.564Z</time></trkpt><trkpt lat="38.1127767" lon="12.7216367"><ele>13.5</ele><time>2026-05-06T08:37:01.564Z</time></trkpt><trkpt lat="38.1126767" lon="12.721755"><ele>14.0</ele><time>2026-05-06T08:37:02.565Z</time></trkpt><trkpt lat="38.1125767" lon="12.7218767"><ele>14.5</ele><time>2026-05-06T08:37:03.564Z</time></trkpt><trkpt lat="38.1124767" lon="12.722"><ele>15.0</ele><time>2026-05-06T08:37:04.564Z</time></trkpt><trkpt lat="38.112375" lon="12.722125"><ele>15.5</ele><time>2026-05-06T08:37:05.564Z</time></trkpt><trkpt lat="38.1122767" lon="12.7222433"><ele>16.0</ele><time>2026-05-06T08:37:06.564Z</time></trkpt><trkpt lat="38.1121833" lon="12.7223533"><ele>16.5</ele><time>2026-05-06T08:37:07.564Z</time></trkpt><trkpt lat="38.112095" lon="12.7224583"><ele>17.0</ele><time>2026-05-06T08:37:08.564Z</time></trkpt><trkpt lat="38.1120067" lon="12.7225633"><ele>17.5</ele><time>2026-05-06T08:37:09.566Z</time></trkpt><trkpt lat="38.1119167" lon="12.72267"><ele>18.0</ele><time>2026-05-06T08:37:10.563Z</time></trkpt><trkpt lat="38.1118267" lon="12.7227783"><ele>18.0</ele><time>2026-05-06T08:37:11.564Z</time></trkpt><trkpt lat="38.1117383" lon="12.7228883"><ele>18.0</ele><time>2026-05-06T08:37:12.564Z</time></trkpt><trkpt lat="38.11165" lon="12.7229983"><ele>18.0</ele><time>2026-05-06T08:37:13.565Z</time></trkpt><trkpt lat="38.1115633" lon="12.7231067"><ele>18.0</ele><time>2026-05-06T08:37:14.563Z</time></trkpt><trkpt lat="38.111485" lon="12.7232033"><ele>19.0</ele><time>2026-05-06T08:37:15.563Z</time></trkpt><trkpt lat="38.1114117" lon="12.7232883"><ele>20.0</ele><time>2026-05-06T08:37:16.564Z</time></trkpt><trkpt lat="38.1113467" lon="12.72337"><ele>21.0</ele><time>2026-05-06T08:37:17.565Z</time></trkpt><trkpt lat="38.111275" lon="12.7234517"><ele>22.0</ele><time>2026-05-06T08:37:18.563Z</time></trkpt><trkpt lat="38.111205" lon="12.723535"><ele>23.0</ele><time>2026-05-06T08:37:19.565Z</time></trkpt><trkpt lat="38.111135" lon="12.72362"><ele>23.0</ele><time>2026-05-06T08:37:20.565Z</time></trkpt><trkpt lat="38.1110633" lon="12.7237067"><ele>23.0</ele><time>2026-05-06T08:37:21.564Z</time></trkpt><trkpt lat="38.1109933" lon="12.7237967"><ele>23.0</ele><time>2026-05-06T08:37:22.563Z</time></trkpt><trkpt lat="38.1109233" lon="12.7238867"><ele>23.0</ele><time>2026-05-06T08:37:23.564Z</time></trkpt><trkpt lat="38.11085" lon="12.7239767"><ele>23.0</ele><time>2026-05-06T08:37:24.564Z</time></trkpt><trkpt lat="38.11078" lon="12.7240583"><ele>23.666666666666668</ele><time>2026-05-06T08:37:25.562Z</time></trkpt><trkpt lat="38.11072" lon="12.7241317"><ele>24.333333333333336</ele><time>2026-05-06T08:37:26.564Z</time></trkpt><trkpt lat="38.1106633" lon="12.7241983"><ele>25.0</ele><time>2026-05-06T08:37:27.564Z</time></trkpt><trkpt lat="38.1106117" lon="12.7242567"><ele>25.666666666666668</ele><time>2026-05-06T08:37:28.563Z</time></trkpt><trkpt lat="38.1105667" lon="12.7243133"><ele>26.333333333333332</ele><time>2026-05-06T08:37:29.562Z</time></trkpt><trkpt lat="38.1104917" lon="12.7243983"><ele>27.0</ele><time>2026-05-06T08:37:31.564Z</time></trkpt><trkpt lat="38.110425" lon="12.7244783"><ele>27.0</ele><time>2026-05-06T08:37:33.563Z</time></trkpt><trkpt lat="38.1103583" lon="12.72457"><ele>27.000000000000004</ele><time>2026-05-06T08:37:35.564Z</time></trkpt><trkpt lat="38.1102883" lon="12.7246467"><ele>27.000000000000004</ele><time>2026-05-06T08:37:37.564Z</time></trkpt><trkpt lat="38.1102" lon="12.7247483"><ele>27.0</ele><time>2026-05-06T08:37:39.563Z</time></trkpt><trkpt lat="38.11015" lon="12.7248117"><ele>27.0</ele><time>2026-05-06T08:37:40.563Z</time></trkpt><trkpt lat="38.11009" lon="12.7248833"><ele>27.0</ele><time>2026-05-06T08:37:41.564Z</time></trkpt><trkpt lat="38.1100267" lon="12.7249617"><ele>27.000000000000004</ele><time>2026-05-06T08:37:42.563Z</time></trkpt><trkpt lat="38.1099583" lon="12.72505"><ele>27.000000000000004</ele><time>2026-05-06T08:37:43.563Z</time></trkpt><trkpt lat="38.1098833" lon="12.7251433"><ele>27.0</ele><time>2026-05-06T08:37:44.564Z</time></trkpt><trkpt lat="38.109805" lon="12.72524"><ele>27.0</ele><time>2026-05-06T08:37:45.564Z</time></trkpt><trkpt lat="38.1097267" lon="12.72534"><ele>28.0</ele><time>2026-05-06T08:37:46.565Z</time></trkpt><trkpt lat="38.1096467" lon="12.725445"><ele>29.0</ele><time>2026-05-06T08:37:47.564Z</time></trkpt><trkpt lat="38.109565" lon="12.7255517"><ele>30.0</ele><time>2026-05-06T08:37:48.563Z</time></trkpt><trkpt lat="38.1094783" lon="12.7256617"><ele>31.0</ele><time>2026-05-06T08:37:49.563Z</time></trkpt><trkpt lat="38.1093883" lon="12.7257717"><ele>31.0</ele><time>2026-05-06T08:37:50.564Z</time></trkpt><trkpt lat="38.1092933" lon="12.7258833"><ele>31.0</ele><time>2026-05-06T08:37:51.563Z</time></trkpt><trkpt lat="38.109195" lon="12.726"><ele>31.0</ele><time>2026-05-06T08:37:52.565Z</time></trkpt><trkpt lat="38.1090967" lon="12.7261217"><ele>31.0</ele><time>2026-05-06T08:37:53.564Z</time></trkpt><trkpt lat="38.1089967" lon="12.726245"><ele>31.75</ele><time>2026-05-06T08:37:54.564Z</time></trkpt><trkpt lat="38.108895" lon="12.72637"><ele>32.5</ele><time>2026-05-06T08:37:55.563Z</time></trkpt><trkpt lat="38.1087883" lon="12.7264967"><ele>33.25</ele><time>2026-05-06T08:37:56.564Z</time></trkpt><trkpt lat="38.108685" lon="12.7266217"><ele>34.0</ele><time>2026-05-06T08:37:57.564Z</time></trkpt><trkpt lat="38.10858" lon="12.7267467"><ele>34.0</ele><time>2026-05-06T08:37:58.564Z</time></trkpt><trkpt lat="38.1084733" lon="12.7268717"><ele>34.0</ele><time>2026-05-06T08:37:59.563Z</time></trkpt><trkpt lat="38.1083667" lon="12.7270033"><ele>34.0</ele><time>2026-05-06T08:38:00.565Z</time></trkpt><trkpt lat="38.1082583" lon="12.7271367"><ele>34.0</ele><time>2026-05-06T08:38:01.563Z</time></trkpt><trkpt lat="38.1081467" lon="12.7272717"><ele>34.75</ele><time>2026-05-06T08:38:02.565Z</time></trkpt><trkpt lat="38.108045" lon="12.7274"><ele>35.5</ele><time>2026-05-06T08:38:03.564Z</time></trkpt><trkpt lat="38.10795" lon="12.7275167"><ele>36.25</ele><time>2026-05-06T08:38:04.563Z</time></trkpt><trkpt lat="38.1078617" lon="12.7276267"><ele>37.0</ele><time>2026-05-06T08:38:05.563Z</time></trkpt><trkpt lat="38.10778" lon="12.7277283"><ele>37.5</ele><time>2026-05-06T08:38:06.564Z</time></trkpt><trkpt lat="38.1077017" lon="12.7278267"><ele>38.0</ele><time>2026-05-06T08:38:07.565Z</time></trkpt><trkpt lat="38.1076217" lon="12.7279267"><ele>38.5</ele><time>2026-05-06T08:38:08.564Z</time></trkpt><trkpt lat="38.107535" lon="12.7280383"><ele>39.0</ele><time>2026-05-06T08:38:09.564Z</time></trkpt><trkpt lat="38.1074433" lon="12.7281583"><ele>39.75</ele><time>2026-05-06T08:38:10.565Z</time></trkpt><trkpt lat="38.107345" lon="12.7282783"><ele>40.5</ele><time>2026-05-06T08:38:11.564Z</time></trkpt><trkpt lat="38.1072417" lon="12.728395"><ele>41.25</ele><time>2026-05-06T08:38:12.563Z</time></trkpt><trkpt lat="38.107135" lon="12.7285183"><ele>42.0</ele><time>2026-05-06T08:38:13.563Z</time></trkpt><trkpt lat="38.1070317" lon="12.7286417"><ele>42.5</ele><time>2026-05-06T08:38:14.565Z</time></trkpt><trkpt lat="38.1069233" lon="12.728765"><ele>43.0</ele><time>2026-05-06T08:38:15.562Z</time></trkpt><trkpt lat="38.1068133" lon="12.7288867"><ele>43.5</ele><time>2026-05-06T08:38:16.563Z</time></trkpt><trkpt lat="38.106705" lon="12.7290117"><ele>44.0</ele><time>2026-05-06T08:38:17.563Z</time></trkpt><trkpt lat="38.106595" lon="12.72914"><ele>44.33333333333333</ele><time>2026-05-06T08:38:18.564Z</time></trkpt><trkpt lat="38.106485" lon="12.7292683"><ele>44.666666666666664</ele><time>2026-05-06T08:38:19.563Z</time></trkpt><trkpt lat="38.1063767" lon="12.7294"><ele>45.0</ele><time>2026-05-06T08:38:20.563Z</time></trkpt><trkpt lat="38.106265" lon="12.729535"><ele>45.0</ele><time>2026-05-06T08:38:21.563Z</time></trkpt><trkpt lat="38.106155" lon="12.72967"><ele>45.0</ele><time>2026-05-06T08:38:22.564Z</time></trkpt><trkpt lat="38.106045" lon="12.729805"><ele>45.0</ele><time>2026-05-06T08:38:23.564Z</time></trkpt><trkpt lat="38.105935" lon="12.72994"><ele>45.0</ele><time>2026-05-06T08:38:24.564Z</time></trkpt><trkpt lat="38.1058233" lon="12.7300767"><ele>45.0</ele><time>2026-05-06T08:38:25.564Z</time></trkpt><trkpt lat="38.1057117" lon="12.730215"><ele>45.0</ele><time>2026-05-06T08:38:26.565Z</time></trkpt><trkpt lat="38.1055967" lon="12.7303517"><ele>46.0</ele><time>2026-05-06T08:38:27.563Z</time></trkpt><trkpt lat="38.1054833" lon="12.73049"><ele>47.0</ele><time>2026-05-06T08:38:28.564Z</time></trkpt><trkpt lat="38.1053683" lon="12.73063"><ele>48.0</ele><time>2026-05-06T08:38:29.563Z</time></trkpt><trkpt lat="38.1052533" lon="12.7307667"><ele>48.0</ele><time>2026-05-06T08:38:30.564Z</time></trkpt><trkpt lat="38.1051467" lon="12.7308983"><ele>48.0</ele><time>2026-05-06T08:38:31.564Z</time></trkpt><trkpt lat="38.1050467" lon="12.7310217"><ele>48.0</ele><time>2026-05-06T08:38:32.564Z</time></trkpt><trkpt lat="38.1049517" lon="12.7311383"><ele>48.0</ele><time>2026-05-06T08:38:33.563Z</time></trkpt><trkpt lat="38.1048567" lon="12.7312533"><ele>49.25</ele><time>2026-05-06T08:38:34.564Z</time></trkpt><trkpt lat="38.10476" lon="12.731365"><ele>50.5</ele><time>2026-05-06T08:38:35.564Z</time></trkpt><trkpt lat="38.1046633" lon="12.731475"><ele>51.75</ele><time>2026-05-06T08:38:36.563Z</time></trkpt><trkpt lat="38.1045667" lon="12.7315833"><ele>53.0</ele><time>2026-05-06T08:38:37.563Z</time></trkpt><trkpt lat="38.104475" lon="12.731695"><ele>53.0</ele><time>2026-05-06T08:38:38.563Z</time></trkpt><trkpt lat="38.10439" lon="12.7318017"><ele>53.0</ele><time>2026-05-06T08:38:39.564Z</time></trkpt><trkpt lat="38.1043117" lon="12.731895"><ele>53.0</ele><time>2026-05-06T08:38:40.564Z</time></trkpt><trkpt lat="38.1042483" lon="12.731975"><ele>53.0</ele><time>2026-05-06T08:38:41.564Z</time></trkpt><trkpt lat="38.1041933" lon="12.7320483"><ele>53.0</ele><time>2026-05-06T08:38:42.564Z</time></trkpt><trkpt lat="38.1041383" lon="12.7321183"><ele>53.16666666666667</ele><time>2026-05-06T08:38:43.564Z</time></trkpt><trkpt lat="38.1040817" lon="12.7321883"><ele>53.333333333333336</ele><time>2026-05-06T08:38:44.564Z</time></trkpt><trkpt lat="38.10402" lon="12.7322617"><ele>53.5</ele><time>2026-05-06T08:38:45.563Z</time></trkpt><trkpt lat="38.1039533" lon="12.7323383"><ele>53.66666666666667</ele><time>2026-05-06T08:38:46.563Z</time></trkpt><trkpt lat="38.1038833" lon="12.73242"><ele>53.833333333333336</ele><time>2026-05-06T08:38:47.565Z</time></trkpt><trkpt lat="38.1038117" lon="12.7325083"><ele>54.0</ele><time>2026-05-06T08:38:48.564Z</time></trkpt><trkpt lat="38.1037383" lon="12.7326017"><ele>54.5</ele><time>2026-05-06T08:38:49.564Z</time></trkpt><trkpt lat="38.1036633" lon="12.7326983"><ele>55.0</ele><time>2026-05-06T08:38:50.563Z</time></trkpt><trkpt lat="38.1035867" lon="12.7328"><ele>55.5</ele><time>2026-05-06T08:38:51.563Z</time></trkpt><trkpt lat="38.1035033" lon="12.7329017"><ele>56.0</ele><time>2026-05-06T08:38:52.563Z</time></trkpt><trkpt lat="38.1034167" lon="12.7330083"><ele>56.25</ele><time>2026-05-06T08:38:53.564Z</time></trkpt><trkpt lat="38.1033283" lon="12.7331167"><ele>56.5</ele><time>2026-05-06T08:38:54.563Z</time></trkpt><trkpt lat="38.1032367" lon="12.7332283"><ele>56.75</ele><time>2026-05-06T08:38:55.564Z</time></trkpt><trkpt lat="38.1031433" lon="12.73334"><ele>57.0</ele><time>2026-05-06T08:38:56.564Z</time></trkpt><trkpt lat="38.1030483" lon="12.7334533"><ele>58.25</ele><time>2026-05-06T08:38:57.562Z</time></trkpt><trkpt lat="38.1029533" lon="12.7335733"><ele>59.5</ele><time>2026-05-06T08:38:58.563Z</time></trkpt><trkpt lat="38.1028567" lon="12.73369"><ele>60.75</ele><time>2026-05-06T08:38:59.564Z</time></trkpt><trkpt lat="38.1027583" lon="12.7338067"><ele>62.0</ele><time>2026-05-06T08:39:00.563Z</time></trkpt><trkpt lat="38.1026583" lon="12.7339217"><ele>62.0</ele><time>2026-05-06T08:39:01.564Z</time></trkpt><trkpt lat="38.1025567" lon="12.734035"><ele>62.0</ele><time>2026-05-06T08:39:02.564Z</time></trkpt><trkpt lat="38.1024567" lon="12.7341467"><ele>62.0</ele><time>2026-05-06T08:39:03.565Z</time></trkpt><trkpt lat="38.10236" lon="12.73425"><ele>62.0</ele><time>2026-05-06T08:39:04.564Z</time></trkpt><trkpt lat="38.1022667" lon="12.7343467"><ele>63.0</ele><time>2026-05-06T08:39:05.564Z</time></trkpt><trkpt lat="38.1021817" lon="12.7344467"><ele>64.0</ele><time>2026-05-06T08:39:06.564Z</time></trkpt><trkpt lat="38.102095" lon="12.7345483"><ele>65.0</ele><time>2026-05-06T08:39:07.564Z</time></trkpt><trkpt lat="38.1020067" lon="12.734655"><ele>66.0</ele><time>2026-05-06T08:39:08.564Z</time></trkpt><trkpt lat="38.1019183" lon="12.7347583"><ele>66.0</ele><time>2026-05-06T08:39:09.564Z</time></trkpt><trkpt lat="38.101835" lon="12.73486"><ele>66.0</ele><time>2026-05-06T08:39:10.564Z</time></trkpt><trkpt lat="38.10176" lon="12.7349567"><ele>66.0</ele><time>2026-05-06T08:39:11.564Z</time></trkpt><trkpt lat="38.10169" lon="12.735045"><ele>66.0</ele><time>2026-05-06T08:39:12.562Z</time></trkpt><trkpt lat="38.1016233" lon="12.7351283"><ele>66.0</ele><time>2026-05-06T08:39:13.563Z</time></trkpt><trkpt lat="38.1015617" lon="12.7352017"><ele>66.57142857142857</ele><time>2026-05-06T08:39:14.563Z</time></trkpt><trkpt lat="38.1015067" lon="12.73527"><ele>67.14285714285714</ele><time>2026-05-06T08:39:15.562Z</time></trkpt><trkpt lat="38.1014617" lon="12.73533"><ele>67.71428571428572</ele><time>2026-05-06T08:39:16.565Z</time></trkpt><trkpt lat="38.101415" lon="12.7353867"><ele>68.28571428571428</ele><time>2026-05-06T08:39:17.562Z</time></trkpt><trkpt lat="38.10136" lon="12.7354483"><ele>68.85714285714286</ele><time>2026-05-06T08:39:18.564Z</time></trkpt><trkpt lat="38.101305" lon="12.7355183"><ele>69.42857142857143</ele><time>2026-05-06T08:39:19.564Z</time></trkpt><trkpt lat="38.1012417" lon="12.7355917"><ele>70.0</ele><time>2026-05-06T08:39:20.565Z</time></trkpt><trkpt lat="38.101175" lon="12.7356733"><ele>70.0</ele><time>2026-05-06T08:39:21.564Z</time></trkpt><trkpt lat="38.101105" lon="12.7357633"><ele>70.0</ele><time>2026-05-06T08:39:22.564Z</time></trkpt><trkpt lat="38.1010283" lon="12.7358583"><ele>70.0</ele><time>2026-05-06T08:39:23.564Z</time></trkpt><trkpt lat="38.1009467" lon="12.7359533"><ele>70.0</ele><time>2026-05-06T08:39:24.564Z</time></trkpt><trkpt lat="38.100865" lon="12.7360517"><ele>70.0</ele><time>2026-05-06T08:39:25.563Z</time></trkpt><trkpt lat="38.10078" lon="12.7361517"><ele>70.6</ele><time>2026-05-06T08:39:26.565Z</time></trkpt><trkpt lat="38.1006967" lon="12.7362533"><ele>71.2</ele><time>2026-05-06T08:39:27.563Z</time></trkpt><trkpt lat="38.1006217" lon="12.736345"><ele>71.8</ele><time>2026-05-06T08:39:28.564Z</time></trkpt><trkpt lat="38.10055" lon="12.7364333"><ele>72.4</ele><time>2026-05-06T08:39:29.563Z</time></trkpt><trkpt lat="38.1004717" lon="12.7365267"><ele>73.0</ele><time>2026-05-06T08:39:30.565Z</time></trkpt><trkpt lat="38.1003933" lon="12.73662"><ele>73.0</ele><time>2026-05-06T08:39:31.564Z</time></trkpt><trkpt lat="38.1003233" lon="12.7367083"><ele>73.0</ele><time>2026-05-06T08:39:32.564Z</time></trkpt><trkpt lat="38.1002567" lon="12.7367883"><ele>73.0</ele><time>2026-05-06T08:39:33.564Z</time></trkpt><trkpt lat="38.100195" lon="12.7368667"><ele>73.0</ele><time>2026-05-06T08:39:34.563Z</time></trkpt><trkpt lat="38.1001317" lon="12.736945"><ele>73.0</ele><time>2026-05-06T08:39:35.564Z</time></trkpt><trkpt lat="38.1000633" lon="12.7370283"><ele>73.0</ele><time>2026-05-06T08:39:36.563Z</time></trkpt><trkpt lat="38.0999933" lon="12.737115"><ele>73.0</ele><time>2026-05-06T08:39:37.563Z</time></trkpt><trkpt lat="38.0999183" lon="12.7372067"><ele>73.0</ele><time>2026-05-06T08:39:38.565Z</time></trkpt><trkpt lat="38.099845" lon="12.7373017"><ele>73.0</ele><time>2026-05-06T08:39:39.564Z</time></trkpt><trkpt lat="38.0997667" lon="12.7374"><ele>73.0</ele><time>2026-05-06T08:39:40.563Z</time></trkpt><trkpt lat="38.0996867" lon="12.7375017"><ele>73.75</ele><time>2026-05-06T08:39:41.564Z</time></trkpt><trkpt lat="38.0996017" lon="12.737605"><ele>74.5</ele><time>2026-05-06T08:39:42.563Z</time></trkpt><trkpt lat="38.0995167" lon="12.73771"><ele>75.25</ele><time>2026-05-06T08:39:43.562Z</time></trkpt><trkpt lat="38.0994333" lon="12.7378183"><ele>76.0</ele><time>2026-05-06T08:39:44.565Z</time></trkpt><trkpt lat="38.09935" lon="12.7379183"><ele>76.2</ele><time>2026-05-06T08:39:45.563Z</time></trkpt><trkpt lat="38.0992683" lon="12.7380017"><ele>76.39999999999999</ele><time>2026-05-06T08:39:46.564Z</time></trkpt><trkpt lat="38.0991917" lon="12.7380817"><ele>76.6</ele><time>2026-05-06T08:39:47.563Z</time></trkpt><trkpt lat="38.0991133" lon="12.73817"><ele>76.8</ele><time>2026-05-06T08:39:48.562Z</time></trkpt><trkpt lat="38.0990367" lon="12.738265"><ele>77.0</ele><time>2026-05-06T08:39:49.564Z</time></trkpt><trkpt lat="38.0989583" lon="12.7383633"><ele>77.5</ele><time>2026-05-06T08:39:50.563Z</time></trkpt><trkpt lat="38.0988783" lon="12.7384617"><ele>78.0</ele><time>2026-05-06T08:39:51.565Z</time></trkpt><trkpt lat="38.0987933" lon="12.7385583"><ele>78.5</ele><time>2026-05-06T08:39:52.564Z</time></trkpt><trkpt lat="38.0987083" lon="12.7386567"><ele>79.0</ele><time>2026-05-06T08:39:53.563Z</time></trkpt><trkpt lat="38.0986267" lon="12.738755"><ele>79.4</ele><time>2026-05-06T08:39:54.564Z</time></trkpt><trkpt lat="38.0985483" lon="12.7388517"><ele>79.80000000000001</ele><time>2026-05-06T08:39:55.564Z</time></trkpt><trkpt lat="38.0984767" lon="12.7389417"><ele>80.19999999999999</ele><time>2026-05-06T08:39:56.565Z</time></trkpt><trkpt lat="38.0984083" lon="12.7390267"><ele>80.6</ele><time>2026-05-06T08:39:57.564Z</time></trkpt><trkpt lat="38.0983383" lon="12.7391183"><ele>81.0</ele><time>2026-05-06T08:39:58.564Z</time></trkpt><trkpt lat="38.0982633" lon="12.739215"><ele>81.8</ele><time>2026-05-06T08:39:59.564Z</time></trkpt><trkpt lat="38.098185" lon="12.7393117"><ele>82.6</ele><time>2026-05-06T08:40:00.563Z</time></trkpt><trkpt lat="38.0981017" lon="12.7394067"><ele>83.4</ele><time>2026-05-06T08:40:01.563Z</time></trkpt><trkpt lat="38.0980183" lon="12.739505"><ele>84.2</ele><time>2026-05-06T08:40:02.563Z</time></trkpt><trkpt lat="38.097935" lon="12.739605"><ele>85.0</ele><time>2026-05-06T08:40:03.563Z</time></trkpt><trkpt lat="38.0978483" lon="12.739705"><ele>85.25</ele><time>2026-05-06T08:40:04.563Z</time></trkpt><trkpt lat="38.097765" lon="12.7398067"><ele>85.5</ele><time>2026-05-06T08:40:05.563Z</time></trkpt><trkpt lat="38.0976817" lon="12.73991"><ele>85.75</ele><time>2026-05-06T08:40:06.562Z</time></trkpt><trkpt lat="38.0975983" lon="12.7400117"><ele>86.0</ele><time>2026-05-06T08:40:07.562Z</time></trkpt><trkpt lat="38.097515" lon="12.7401133"><ele>86.5</ele><time>2026-05-06T08:40:08.564Z</time></trkpt><trkpt lat="38.09743" lon="12.7402183"><ele>87.0</ele><time>2026-05-06T08:40:09.564Z</time></trkpt><trkpt lat="38.097345" lon="12.7403217"><ele>87.5</ele><time>2026-05-06T08:40:10.564Z</time></trkpt><trkpt lat="38.0972567" lon="12.7404233"><ele>88.0</ele><time>2026-05-06T08:40:11.564Z</time></trkpt><trkpt lat="38.09717" lon="12.7405267"><ele>89.0</ele><time>2026-05-06T08:40:12.564Z</time></trkpt><trkpt lat="38.0970817" lon="12.7406317"><ele>90.0</ele><time>2026-05-06T08:40:13.564Z</time></trkpt><trkpt lat="38.0969917" lon="12.7407433"><ele>91.0</ele><time>2026-05-06T08:40:14.564Z</time></trkpt><trkpt lat="38.0969" lon="12.740855"><ele>92.0</ele><time>2026-05-06T08:40:15.563Z</time></trkpt><trkpt lat="38.0968067" lon="12.7409717"><ele>92.0</ele><time>2026-05-06T08:40:16.563Z</time></trkpt><trkpt lat="38.0967133" lon="12.74109"><ele>92.0</ele><time>2026-05-06T08:40:17.565Z</time></trkpt><trkpt lat="38.0966183" lon="12.7412083"><ele>92.0</ele><time>2026-05-06T08:40:18.564Z</time></trkpt><trkpt lat="38.0965183" lon="12.7413283"><ele>92.0</ele><time>2026-05-06T08:40:19.563Z</time></trkpt><trkpt lat="38.0964167" lon="12.74145"><ele>93.0</ele><time>2026-05-06T08:40:20.565Z</time></trkpt><trkpt lat="38.0963133" lon="12.7415717"><ele>94.0</ele><time>2026-05-06T08:40:21.564Z</time></trkpt><trkpt lat="38.0962067" lon="12.7416967"><ele>95.0</ele><time>2026-05-06T08:40:22.564Z</time></trkpt><trkpt lat="38.0961017" lon="12.741825"><ele>96.0</ele><time>2026-05-06T08:40:23.564Z</time></trkpt><trkpt lat="38.095995" lon="12.74195"><ele>96.5</ele><time>2026-05-06T08:40:24.565Z</time></trkpt><trkpt lat="38.095885" lon="12.742075"><ele>97.0</ele><time>2026-05-06T08:40:25.564Z</time></trkpt><trkpt lat="38.09578" lon="12.7422017"><ele>97.5</ele><time>2026-05-06T08:40:26.565Z</time></trkpt><trkpt lat="38.095675" lon="12.7423283"><ele>98.0</ele><time>2026-05-06T08:40:27.564Z</time></trkpt><trkpt lat="38.09557" lon="12.7424533"><ele>98.5</ele><time>2026-05-06T08:40:28.564Z</time></trkpt><trkpt lat="38.0954683" lon="12.74258"><ele>99.0</ele><time>2026-05-06T08:40:29.563Z</time></trkpt><trkpt lat="38.0953717" lon="12.7426967"><ele>99.5</ele><time>2026-05-06T08:40:30.563Z</time></trkpt><trkpt lat="38.0952833" lon="12.7428033"><ele>100.0</ele><time>2026-05-06T08:40:31.564Z</time></trkpt><trkpt lat="38.0951933" lon="12.7429067"><ele>100.75</ele><time>2026-05-06T08:40:32.564Z</time></trkpt><trkpt lat="38.0951017" lon="12.7430117"><ele>101.5</ele><time>2026-05-06T08:40:33.564Z</time></trkpt><trkpt lat="38.0950117" lon="12.74312"><ele>102.25</ele><time>2026-05-06T08:40:34.564Z</time></trkpt><trkpt lat="38.0949217" lon="12.7432283"><ele>103.0</ele><time>2026-05-06T08:40:35.563Z</time></trkpt><trkpt lat="38.0948333" lon="12.7433367"><ele>103.5</ele><time>2026-05-06T08:40:36.564Z</time></trkpt><trkpt lat="38.0947433" lon="12.7434417"><ele>104.0</ele><time>2026-05-06T08:40:37.562Z</time></trkpt><trkpt lat="38.0946533" lon="12.7435483"><ele>104.5</ele><time>2026-05-06T08:40:38.565Z</time></trkpt><trkpt lat="38.0945633" lon="12.7436533"><ele>105.0</ele><time>2026-05-06T08:40:39.562Z</time></trkpt><trkpt lat="38.094475" lon="12.7437567"><ele>105.25</ele><time>2026-05-06T08:40:40.564Z</time></trkpt><trkpt lat="38.0943867" lon="12.7438583"><ele>105.5</ele><time>2026-05-06T08:40:41.562Z</time></trkpt><trkpt lat="38.0942933" lon="12.7439667"><ele>105.75</ele><time>2026-05-06T08:40:42.564Z</time></trkpt><trkpt lat="38.094195" lon="12.7440767"><ele>106.0</ele><time>2026-05-06T08:40:43.563Z</time></trkpt><trkpt lat="38.0940983" lon="12.744205"><ele>107.0</ele><time>2026-05-06T08:40:44.565Z</time></trkpt><trkpt lat="38.0939983" lon="12.7443433"><ele>108.0</ele><time>2026-05-06T08:40:45.563Z</time></trkpt><trkpt lat="38.0938833" lon="12.7444883"><ele>109.0</ele><time>2026-05-06T08:40:46.564Z</time></trkpt><trkpt lat="38.0937483" lon="12.7446483"><ele>110.0</ele><time>2026-05-06T08:40:47.565Z</time></trkpt><trkpt lat="38.0936017" lon="12.744805"><ele>111.0</ele><time>2026-05-06T08:40:48.563Z</time></trkpt><trkpt lat="38.0934583" lon="12.7449517"><ele>112.0</ele><time>2026-05-06T08:40:49.564Z</time></trkpt><trkpt lat="38.093325" lon="12.7450933"><ele>113.66666666666667</ele><time>2026-05-06T08:40:50.565Z</time></trkpt><trkpt lat="38.0932033" lon="12.7452333"><ele>115.33333333333334</ele><time>2026-05-06T08:40:51.564Z</time></trkpt><trkpt lat="38.0930867" lon="12.7453717"><ele>117.0</ele><time>2026-05-06T08:40:52.563Z</time></trkpt><trkpt lat="38.092975" lon="12.74551"><ele>117.0</ele><time>2026-05-06T08:40:53.564Z</time></trkpt><trkpt lat="38.092875" lon="12.745645"><ele>117.0</ele><time>2026-05-06T08:40:54.564Z</time></trkpt><trkpt lat="38.0927867" lon="12.7457733"><ele>117.0</ele><time>2026-05-06T08:40:55.564Z</time></trkpt><trkpt lat="38.0927083" lon="12.7458983"><ele>117.0</ele><time>2026-05-06T08:40:56.564Z</time></trkpt><trkpt lat="38.0926317" lon="12.7460233"><ele>118.0</ele><time>2026-05-06T08:40:57.564Z</time></trkpt><trkpt lat="38.0925567" lon="12.74616"><ele>119.0</ele><time>2026-05-06T08:40:58.563Z</time></trkpt><trkpt lat="38.0924833" lon="12.746305"><ele>120.0</ele><time>2026-05-06T08:40:59.563Z</time></trkpt><trkpt lat="38.0924083" lon="12.746455"><ele>121.0</ele><time>2026-05-06T08:41:00.563Z</time></trkpt><trkpt lat="38.0923383" lon="12.74661"><ele>121.0</ele><time>2026-05-06T08:41:01.563Z</time></trkpt><trkpt lat="38.09227" lon="12.7467517"><ele>121.0</ele><time>2026-05-06T08:41:02.565Z</time></trkpt><trkpt lat="38.09221" lon="12.7468767"><ele>121.0</ele><time>2026-05-06T08:41:03.563Z</time></trkpt><trkpt lat="38.0921567" lon="12.7469883"><ele>121.0</ele><time>2026-05-06T08:41:04.564Z</time></trkpt><trkpt lat="38.0921083" lon="12.747085"><ele>121.0</ele><time>2026-05-06T08:41:05.564Z</time></trkpt><trkpt lat="38.0920633" lon="12.7471717"><ele>122.0</ele><time>2026-05-06T08:41:06.564Z</time></trkpt><trkpt lat="38.09202" lon="12.747265"><ele>123.0</ele><time>2026-05-06T08:41:07.563Z</time></trkpt><trkpt lat="38.0919733" lon="12.7473617"><ele>124.0</ele><time>2026-05-06T08:41:08.564Z</time></trkpt><trkpt lat="38.0919217" lon="12.7474667"><ele>125.0</ele><time>2026-05-06T08:41:09.564Z</time></trkpt><trkpt lat="38.0918717" lon="12.7475733"><ele>126.0</ele><time>2026-05-06T08:41:10.563Z</time></trkpt><trkpt lat="38.0918233" lon="12.7476833"><ele>126.4</ele><time>2026-05-06T08:41:11.563Z</time></trkpt><trkpt lat="38.09177" lon="12.7477883"><ele>126.8</ele><time>2026-05-06T08:41:12.564Z</time></trkpt><trkpt lat="38.0917167" lon="12.7478917"><ele>127.20000000000002</ele><time>2026-05-06T08:41:13.563Z</time></trkpt><trkpt lat="38.091665" lon="12.7479983"><ele>127.60000000000001</ele><time>2026-05-06T08:41:14.564Z</time></trkpt><trkpt lat="38.0916083" lon="12.74811"><ele>128.0</ele><time>2026-05-06T08:41:15.563Z</time></trkpt><trkpt lat="38.0915517" lon="12.748225"><ele>128.0</ele><time>2026-05-06T08:41:16.567Z</time></trkpt><trkpt lat="38.091495" lon="12.7483467"><ele>128.0</ele><time>2026-05-06T08:41:17.564Z</time></trkpt><trkpt lat="38.0914383" lon="12.7484717"><ele>128.0</ele><time>2026-05-06T08:41:18.565Z</time></trkpt><trkpt lat="38.0913817" lon="12.7486033"><ele>128.0</ele><time>2026-05-06T08:41:19.564Z</time></trkpt><trkpt lat="38.0913283" lon="12.7487383"><ele>129.25</ele><time>2026-05-06T08:41:20.563Z</time></trkpt><trkpt lat="38.0912733" lon="12.7488833"><ele>130.5</ele><time>2026-05-06T08:41:21.564Z</time></trkpt><trkpt lat="38.0912167" lon="12.7490333"><ele>131.75</ele><time>2026-05-06T08:41:22.563Z</time></trkpt><trkpt lat="38.09116" lon="12.749195"><ele>133.0</ele><time>2026-05-06T08:41:23.564Z</time></trkpt><trkpt lat="38.0911017" lon="12.7493633"><ele>135.66666666666669</ele><time>2026-05-06T08:41:24.564Z</time></trkpt><trkpt lat="38.0910417" lon="12.74954"><ele>138.33333333333334</ele><time>2026-05-06T08:41:25.563Z</time></trkpt><trkpt lat="38.0909783" lon="12.7497233"><ele>141.0</ele><time>2026-05-06T08:41:26.565Z</time></trkpt><trkpt lat="38.0909117" lon="12.7499217"><ele>141.0</ele><time>2026-05-06T08:41:27.564Z</time></trkpt><trkpt lat="38.0908433" lon="12.75013"><ele>141.0</ele><time>2026-05-06T08:41:28.564Z</time></trkpt><trkpt lat="38.0907717" lon="12.7503367"><ele>141.0</ele><time>2026-05-06T08:41:29.566Z</time></trkpt><trkpt lat="38.0906983" lon="12.7505383"><ele>141.0</ele><time>2026-05-06T08:41:30.564Z</time></trkpt><trkpt lat="38.0906233" lon="12.7507167"><ele>141.0</ele><time>2026-05-06T08:41:31.563Z</time></trkpt><trkpt lat="38.0905483" lon="12.7508717"><ele>141.0</ele><time>2026-05-06T08:41:32.565Z</time></trkpt><trkpt lat="38.0904783" lon="12.750995"><ele>141.0</ele><time>2026-05-06T08:41:33.564Z</time></trkpt><trkpt lat="38.0904233" lon="12.7510883"><ele>143.5</ele><time>2026-05-06T08:41:34.563Z</time></trkpt><trkpt lat="38.0903817" lon="12.751155"><ele>146.0</ele><time>2026-05-06T08:41:35.563Z</time></trkpt><trkpt lat="38.0903" lon="12.7512733"><ele>148.5</ele><time>2026-05-06T08:41:37.564Z</time></trkpt><trkpt lat="38.090245" lon="12.7513533"><ele>151.0</ele><time>2026-05-06T08:41:39.563Z</time></trkpt><trkpt lat="38.09018" lon="12.7514333"><ele>153.5</ele><time>2026-05-06T08:41:42.562Z</time></trkpt><trkpt lat="38.090105" lon="12.7514483"><ele>156.0</ele><time>2026-05-06T08:41:46.564Z</time></trkpt><trkpt lat="38.0900433" lon="12.751515"><ele>156.0</ele><time>2026-05-06T08:41:49.564Z</time></trkpt><trkpt lat="38.08997" lon="12.75159"><ele>156.0</ele><time>2026-05-06T08:42:24.563Z</time></trkpt><trkpt lat="38.0898733" lon="12.7516917"><ele>156.0</ele><time>2026-05-06T08:42:26.564Z</time></trkpt><trkpt lat="38.0898" lon="12.7517617"><ele>156.0</ele><time>2026-05-06T08:42:27.563Z</time></trkpt><trkpt lat="38.0896983" lon="12.7518567"><ele>156.0</ele><time>2026-05-06T08:42:28.564Z</time></trkpt><trkpt lat="38.0895867" lon="12.7519583"><ele>159.5</ele><time>2026-05-06T08:42:29.563Z</time></trkpt><trkpt lat="38.0894733" lon="12.7520617"><ele>163.0</ele><time>2026-05-06T08:42:30.564Z</time></trkpt><trkpt lat="38.0893633" lon="12.7521683"><ele>166.5</ele><time>2026-05-06T08:42:31.565Z</time></trkpt><trkpt lat="38.0892567" lon="12.7522717"><ele>170.0</ele><time>2026-05-06T08:42:32.566Z</time></trkpt><trkpt lat="38.0891467" lon="12.7523767"><ele>172.25</ele><time>2026-05-06T08:42:33.563Z</time></trkpt><trkpt lat="38.0890317" lon="12.7524867"><ele>174.5</ele><time>2026-05-06T08:42:34.565Z</time></trkpt><trkpt lat="38.0889133" lon="12.7525983"><ele>176.75</ele><time>2026-05-06T08:42:35.564Z</time></trkpt><trkpt lat="38.088795" lon="12.7527083"><ele>179.0</ele><time>2026-05-06T08:42:36.564Z</time></trkpt><trkpt lat="38.0886817" lon="12.7528183"><ele>179.0</ele><time>2026-05-06T08:42:37.564Z</time></trkpt><trkpt lat="38.0885667" lon="12.7529283"><ele>179.0</ele><time>2026-05-06T08:42:38.565Z</time></trkpt><trkpt lat="38.08845" lon="12.7530383"><ele>179.0</ele><time>2026-05-06T08:42:39.563Z</time></trkpt><trkpt lat="38.0883283" lon="12.7531467"><ele>179.0</ele><time>2026-05-06T08:42:40.562Z</time></trkpt><trkpt lat="38.0882067" lon="12.7532517"><ele>180.75</ele><time>2026-05-06T08:42:41.564Z</time></trkpt><trkpt lat="38.0880867" lon="12.7533533"><ele>182.5</ele><time>2026-05-06T08:42:42.563Z</time></trkpt><trkpt lat="38.0879683" lon="12.75345"><ele>184.25</ele><time>2026-05-06T08:42:43.564Z</time></trkpt><trkpt lat="38.0878483" lon="12.7535433"><ele>186.0</ele><time>2026-05-06T08:42:44.564Z</time></trkpt><trkpt lat="38.087725" lon="12.7536333"><ele>186.0</ele><time>2026-05-06T08:42:45.563Z</time></trkpt><trkpt lat="38.0875967" lon="12.75372"><ele>186.0</ele><time>2026-05-06T08:42:46.563Z</time></trkpt><trkpt lat="38.087465" lon="12.7538067"><ele>186.0</ele><time>2026-05-06T08:42:47.564Z</time></trkpt><trkpt lat="38.0873317" lon="12.7538933"><ele>186.0</ele><time>2026-05-06T08:42:48.563Z</time></trkpt><trkpt lat="38.0871933" lon="12.7539767"><ele>182.66666666666666</ele><time>2026-05-06T08:42:49.564Z</time></trkpt><trkpt lat="38.08705" lon="12.75406"><ele>179.33333333333331</ele><time>2026-05-06T08:42:50.563Z</time></trkpt><trkpt lat="38.086905" lon="12.7541383"><ele>176.0</ele><time>2026-05-06T08:42:51.564Z</time></trkpt><trkpt lat="38.0867567" lon="12.754215"><ele>176.0</ele><time>2026-05-06T08:42:52.564Z</time></trkpt><trkpt lat="38.0866067" lon="12.7542867"><ele>176.0</ele><time>2026-05-06T08:42:53.563Z</time></trkpt><trkpt lat="38.0864533" lon="12.754355"><ele>176.0</ele><time>2026-05-06T08:42:54.564Z</time></trkpt><trkpt lat="38.0862983" lon="12.75442"><ele>178.66666666666666</ele><time>2026-05-06T08:42:55.563Z</time></trkpt><trkpt lat="38.0861433" lon="12.75448"><ele>181.33333333333334</ele><time>2026-05-06T08:42:56.563Z</time></trkpt><trkpt lat="38.085985" lon="12.7545367"><ele>184.0</ele><time>2026-05-06T08:42:57.564Z</time></trkpt><trkpt lat="38.0858233" lon="12.7545917"><ele>182.33333333333334</ele><time>2026-05-06T08:42:58.564Z</time></trkpt><trkpt lat="38.08566" lon="12.7546467"><ele>180.66666666666666</ele><time>2026-05-06T08:42:59.562Z</time></trkpt><trkpt lat="38.085495" lon="12.7546983"><ele>179.0</ele><time>2026-05-06T08:43:00.564Z</time></trkpt><trkpt lat="38.0853283" lon="12.7547533"><ele>179.0</ele><time>2026-05-06T08:43:01.564Z</time></trkpt><trkpt lat="38.08516" lon="12.7548117"><ele>179.0</ele><time>2026-05-06T08:43:02.564Z</time></trkpt><trkpt lat="38.0849883" lon="12.75487"><ele>179.0</ele><time>2026-05-06T08:43:03.564Z</time></trkpt><trkpt lat="38.084815" lon="12.7549267"><ele>178.33333333333331</ele><time>2026-05-06T08:43:04.565Z</time></trkpt><trkpt lat="38.0846417" lon="12.7549833"><ele>177.66666666666666</ele><time>2026-05-06T08:43:05.563Z</time></trkpt><trkpt lat="38.084475" lon="12.75504"><ele>177.0</ele><time>2026-05-06T08:43:06.563Z</time></trkpt><trkpt lat="38.0843183" lon="12.755095"><ele>177.0</ele><time>2026-05-06T08:43:07.563Z</time></trkpt><trkpt lat="38.08417" lon="12.7551433"><ele>177.0</ele><time>2026-05-06T08:43:08.564Z</time></trkpt><trkpt lat="38.0840317" lon="12.7551817"><ele>177.0</ele><time>2026-05-06T08:43:09.563Z</time></trkpt><trkpt lat="38.0839" lon="12.755205"><ele>177.0</ele><time>2026-05-06T08:43:10.563Z</time></trkpt><trkpt lat="38.08377" lon="12.7552117"><ele>177.5</ele><time>2026-05-06T08:43:11.564Z</time></trkpt><trkpt lat="38.0836367" lon="12.7552017"><ele>178.0</ele><time>2026-05-06T08:43:12.563Z</time></trkpt><trkpt lat="38.0835" lon="12.75519"><ele>178.5</ele><time>2026-05-06T08:43:13.564Z</time></trkpt><trkpt lat="38.0833617" lon="12.7551933"><ele>179.0</ele><time>2026-05-06T08:43:14.564Z</time></trkpt><trkpt lat="38.0832233" lon="12.75522"><ele>182.25</ele><time>2026-05-06T08:43:15.564Z</time></trkpt><trkpt lat="38.083085" lon="12.7552617"><ele>185.5</ele><time>2026-05-06T08:43:16.563Z</time></trkpt><trkpt lat="38.0829433" lon="12.7553133"><ele>188.75</ele><time>2026-05-06T08:43:17.564Z</time></trkpt><trkpt lat="38.0828033" lon="12.75537"><ele>192.0</ele><time>2026-05-06T08:43:18.563Z</time></trkpt><trkpt lat="38.0826583" lon="12.7554283"><ele>192.0</ele><time>2026-05-06T08:43:19.564Z</time></trkpt><trkpt lat="38.08251" lon="12.7554867"><ele>192.0</ele><time>2026-05-06T08:43:20.564Z</time></trkpt><trkpt lat="38.0823583" lon="12.7555517"><ele>192.0</ele><time>2026-05-06T08:43:21.564Z</time></trkpt><trkpt lat="38.08221" lon="12.75561"><ele>191.25</ele><time>2026-05-06T08:43:22.565Z</time></trkpt><trkpt lat="38.0820683" lon="12.7556667"><ele>190.5</ele><time>2026-05-06T08:43:23.564Z</time></trkpt><trkpt lat="38.08194" lon="12.7557183"><ele>189.75</ele><time>2026-05-06T08:43:24.563Z</time></trkpt><trkpt lat="38.0818317" lon="12.7557583"><ele>189.0</ele><time>2026-05-06T08:43:25.563Z</time></trkpt><trkpt lat="38.0817367" lon="12.755775"><ele>189.0</ele><time>2026-05-06T08:43:26.565Z</time></trkpt><trkpt lat="38.081655" lon="12.7557617"><ele>189.0</ele><time>2026-05-06T08:43:27.563Z</time></trkpt><trkpt lat="38.08158" lon="12.755715"><ele>189.0</ele><time>2026-05-06T08:43:28.564Z</time></trkpt><trkpt lat="38.0815283" lon="12.75561"><ele>189.0</ele><time>2026-05-06T08:43:29.564Z</time></trkpt><trkpt lat="38.0814817" lon="12.755475"><ele>189.0</ele><time>2026-05-06T08:43:30.564Z</time></trkpt><trkpt lat="38.0814417" lon="12.7553233"><ele>188.0</ele><time>2026-05-06T08:43:31.563Z</time></trkpt><trkpt lat="38.0814" lon="12.7551583"><ele>187.0</ele><time>2026-05-06T08:43:32.564Z</time></trkpt><trkpt lat="38.0813583" lon="12.7549917"><ele>186.0</ele><time>2026-05-06T08:43:33.564Z</time></trkpt><trkpt lat="38.081335" lon="12.75484"><ele>185.0</ele><time>2026-05-06T08:43:34.564Z</time></trkpt><trkpt lat="38.081345" lon="12.75471"><ele>185.0</ele><time>2026-05-06T08:43:35.563Z</time></trkpt><trkpt lat="38.0814" lon="12.7545983"><ele>185.0</ele><time>2026-05-06T08:43:36.564Z</time></trkpt><trkpt lat="38.0814783" lon="12.7544983"><ele>185.0</ele><time>2026-05-06T08:43:37.564Z</time></trkpt><trkpt lat="38.081575" lon="12.7544033"><ele>185.0</ele><time>2026-05-06T08:43:38.564Z</time></trkpt><trkpt lat="38.0816817" lon="12.7543067"><ele>186.75</ele><time>2026-05-06T08:43:39.564Z</time></trkpt><trkpt lat="38.081795" lon="12.7542017"><ele>188.5</ele><time>2026-05-06T08:43:40.562Z</time></trkpt><trkpt lat="38.081915" lon="12.7540933"><ele>190.25</ele><time>2026-05-06T08:43:41.564Z</time></trkpt><trkpt lat="38.0820367" lon="12.75398"><ele>192.0</ele><time>2026-05-06T08:43:42.568Z</time></trkpt><trkpt lat="38.082165" lon="12.753865"><ele>192.0</ele><time>2026-05-06T08:43:43.564Z</time></trkpt><trkpt lat="38.0822983" lon="12.75375"><ele>192.0</ele><time>2026-05-06T08:43:44.564Z</time></trkpt><trkpt lat="38.0824333" lon="12.7536367"><ele>192.0</ele><time>2026-05-06T08:43:45.564Z</time></trkpt><trkpt lat="38.0825667" lon="12.753525"><ele>193.6</ele><time>2026-05-06T08:43:46.564Z</time></trkpt><trkpt lat="38.082685" lon="12.7534283"><ele>195.2</ele><time>2026-05-06T08:43:47.563Z</time></trkpt><trkpt lat="38.0827783" lon="12.7533467"><ele>196.8</ele><time>2026-05-06T08:43:48.564Z</time></trkpt><trkpt lat="38.0828383" lon="12.7532733"><ele>198.4</ele><time>2026-05-06T08:43:49.563Z</time></trkpt><trkpt lat="38.0828717" lon="12.7531933"><ele>200.0</ele><time>2026-05-06T08:43:50.563Z</time></trkpt><trkpt lat="38.0827933" lon="12.753115"><ele>200.0</ele><time>2026-05-06T08:43:52.564Z</time></trkpt><trkpt lat="38.0827217" lon="12.7531183"><ele>200.0</ele><time>2026-05-06T08:43:53.562Z</time></trkpt><trkpt lat="38.0826417" lon="12.753155"><ele>200.0</ele><time>2026-05-06T08:43:54.564Z</time></trkpt><trkpt lat="38.0825483" lon="12.753215"><ele>200.0</ele><time>2026-05-06T08:43:55.563Z</time></trkpt><trkpt lat="38.08245" lon="12.7532683"><ele>200.0</ele><time>2026-05-06T08:43:56.564Z</time></trkpt><trkpt lat="38.08234" lon="12.75332"><ele>204.5</ele><time>2026-05-06T08:43:57.565Z</time></trkpt><trkpt lat="38.0822283" lon="12.75337"><ele>209.0</ele><time>2026-05-06T08:43:58.563Z</time></trkpt><trkpt lat="38.0821067" lon="12.7534167"><ele>213.5</ele><time>2026-05-06T08:43:59.563Z</time></trkpt><trkpt lat="38.0819817" lon="12.7534633"><ele>218.0</ele><time>2026-05-06T08:44:00.564Z</time></trkpt><trkpt lat="38.08185" lon="12.7535133"><ele>214.5</ele><time>2026-05-06T08:44:01.564Z</time></trkpt><trkpt lat="38.081715" lon="12.753565"><ele>211.0</ele><time>2026-05-06T08:44:02.564Z</time></trkpt><trkpt lat="38.0815717" lon="12.7536183"><ele>207.5</ele><time>2026-05-06T08:44:03.563Z</time></trkpt><trkpt lat="38.0814267" lon="12.753675"><ele>204.0</ele><time>2026-05-06T08:44:04.565Z</time></trkpt><trkpt lat="38.0812783" lon="12.7537333"><ele>204.0</ele><time>2026-05-06T08:44:05.564Z</time></trkpt><trkpt lat="38.08113" lon="12.75379"><ele>204.0</ele><time>2026-05-06T08:44:06.563Z</time></trkpt><trkpt lat="38.08098" lon="12.75385"><ele>204.0</ele><time>2026-05-06T08:44:07.564Z</time></trkpt><trkpt lat="38.0808283" lon="12.7539117"><ele>208.0</ele><time>2026-05-06T08:44:08.564Z</time></trkpt><trkpt lat="38.0806767" lon="12.7539733"><ele>212.0</ele><time>2026-05-06T08:44:09.564Z</time></trkpt><trkpt lat="38.0805217" lon="12.754035"><ele>216.0</ele><time>2026-05-06T08:44:10.564Z</time></trkpt><trkpt lat="38.0803667" lon="12.7540967"><ele>216.0</ele><time>2026-05-06T08:44:11.564Z</time></trkpt><trkpt lat="38.0802083" lon="12.7541567"><ele>216.0</ele><time>2026-05-06T08:44:12.564Z</time></trkpt><trkpt lat="38.0800467" lon="12.75422"><ele>216.0</ele><time>2026-05-06T08:44:13.564Z</time></trkpt><trkpt lat="38.079885" lon="12.7542833"><ele>218.0</ele><time>2026-05-06T08:44:14.564Z</time></trkpt><trkpt lat="38.07972" lon="12.7543483"><ele>220.0</ele><time>2026-05-06T08:44:15.564Z</time></trkpt><trkpt lat="38.07956" lon="12.75441"><ele>222.0</ele><time>2026-05-06T08:44:16.564Z</time></trkpt><trkpt lat="38.0794067" lon="12.7544617"><ele>222.0</ele><time>2026-05-06T08:44:17.564Z</time></trkpt><trkpt lat="38.0792633" lon="12.7544867"><ele>222.0</ele><time>2026-05-06T08:44:18.564Z</time></trkpt><trkpt lat="38.0791267" lon="12.7544767"><ele>222.0</ele><time>2026-05-06T08:44:19.564Z</time></trkpt><trkpt lat="38.0789917" lon="12.7544333"><ele>222.0</ele><time>2026-05-06T08:44:20.564Z</time></trkpt><trkpt lat="38.0788533" lon="12.7543617"><ele>222.0</ele><time>2026-05-06T08:44:21.564Z</time></trkpt><trkpt lat="38.078715" lon="12.7542817"><ele>222.0</ele><time>2026-05-06T08:44:22.563Z</time></trkpt><trkpt lat="38.0785733" lon="12.7542"><ele>222.0</ele><time>2026-05-06T08:44:23.564Z</time></trkpt><trkpt lat="38.07843" lon="12.75412"><ele>222.0</ele><time>2026-05-06T08:44:24.564Z</time></trkpt><trkpt lat="38.0782783" lon="12.7540417"><ele>222.0</ele><time>2026-05-06T08:44:25.565Z</time></trkpt><trkpt lat="38.078125" lon="12.7539617"><ele>222.0</ele><time>2026-05-06T08:44:26.565Z</time></trkpt><trkpt lat="38.0779733" lon="12.7538817"><ele>222.0</ele><time>2026-05-06T08:44:27.564Z</time></trkpt><trkpt lat="38.07782" lon="12.7538"><ele>222.0</ele><time>2026-05-06T08:44:28.564Z</time></trkpt><trkpt lat="38.077665" lon="12.7537267"><ele>222.0</ele><time>2026-05-06T08:44:29.563Z</time></trkpt><trkpt lat="38.077515" lon="12.7536517"><ele>222.66666666666669</ele><time>2026-05-06T08:44:30.563Z</time></trkpt><trkpt lat="38.07737" lon="12.7535783"><ele>223.33333333333334</ele><time>2026-05-06T08:44:31.563Z</time></trkpt><trkpt lat="38.07723" lon="12.7535083"><ele>224.0</ele><time>2026-05-06T08:44:32.564Z</time></trkpt><trkpt lat="38.0770917" lon="12.7534433"><ele>227.0</ele><time>2026-05-06T08:44:33.564Z</time></trkpt><trkpt lat="38.07696" lon="12.7533717"><ele>230.0</ele><time>2026-05-06T08:44:34.563Z</time></trkpt><trkpt lat="38.0768317" lon="12.7532867"><ele>233.0</ele><time>2026-05-06T08:44:35.564Z</time></trkpt><trkpt lat="38.0767017" lon="12.75318"><ele>236.0</ele><time>2026-05-06T08:44:36.564Z</time></trkpt><trkpt lat="38.0765733" lon="12.7530583"><ele>236.66666666666669</ele><time>2026-05-06T08:44:37.564Z</time></trkpt><trkpt lat="38.0764417" lon="12.7529333"><ele>237.33333333333331</ele><time>2026-05-06T08:44:38.564Z</time></trkpt><trkpt lat="38.076305" lon="12.7528083"><ele>238.0</ele><time>2026-05-06T08:44:39.563Z</time></trkpt><trkpt lat="38.07617" lon="12.7526817"><ele>240.66666666666666</ele><time>2026-05-06T08:44:40.563Z</time></trkpt><trkpt lat="38.0760383" lon="12.75255"><ele>243.33333333333331</ele><time>2026-05-06T08:44:41.563Z</time></trkpt><trkpt lat="38.075915" lon="12.7524083"><ele>246.0</ele><time>2026-05-06T08:44:42.564Z</time></trkpt><trkpt lat="38.0758033" lon="12.7522533"><ele>247.66666666666669</ele><time>2026-05-06T08:44:43.562Z</time></trkpt><trkpt lat="38.075705" lon="12.752085"><ele>249.33333333333334</ele><time>2026-05-06T08:44:44.564Z</time></trkpt><trkpt lat="38.0756233" lon="12.7519017"><ele>251.0</ele><time>2026-05-06T08:44:45.564Z</time></trkpt><trkpt lat="38.0755517" lon="12.7517133"><ele>251.66666666666669</ele><time>2026-05-06T08:44:46.564Z</time></trkpt><trkpt lat="38.0754867" lon="12.7515217"><ele>252.33333333333331</ele><time>2026-05-06T08:44:47.563Z</time></trkpt><trkpt lat="38.075425" lon="12.751325"><ele>253.0</ele><time>2026-05-06T08:44:48.566Z</time></trkpt><trkpt lat="38.0753667" lon="12.7511267"><ele>254.66666666666666</ele><time>2026-05-06T08:44:49.563Z</time></trkpt><trkpt lat="38.0753133" lon="12.7509267"><ele>256.3333333333333</ele><time>2026-05-06T08:44:50.564Z</time></trkpt><trkpt lat="38.0752667" lon="12.750725"><ele>258.0</ele><time>2026-05-06T08:44:51.564Z</time></trkpt><trkpt lat="38.075225" lon="12.75052"><ele>258.0</ele><time>2026-05-06T08:44:52.564Z</time></trkpt><trkpt lat="38.0751883" lon="12.7503133"><ele>258.0</ele><time>2026-05-06T08:44:53.564Z</time></trkpt><trkpt lat="38.0751533" lon="12.7501067"><ele>258.0</ele><time>2026-05-06T08:44:54.564Z</time></trkpt><trkpt lat="38.0751217" lon="12.7499017"><ele>260.6666666666667</ele><time>2026-05-06T08:44:55.564Z</time></trkpt><trkpt lat="38.07509" lon="12.7497"><ele>263.33333333333337</ele><time>2026-05-06T08:44:56.564Z</time></trkpt><trkpt lat="38.0750583" lon="12.749495"><ele>266.0</ele><time>2026-05-06T08:44:57.564Z</time></trkpt><trkpt lat="38.0750283" lon="12.7492883"><ele>268.0</ele><time>2026-05-06T08:44:58.563Z</time></trkpt><trkpt lat="38.075" lon="12.7490817"><ele>270.0</ele><time>2026-05-06T08:44:59.564Z</time></trkpt><trkpt lat="38.0749733" lon="12.7488717"><ele>272.0</ele><time>2026-05-06T08:45:00.563Z</time></trkpt><trkpt lat="38.074945" lon="12.7486617"><ele>278.0</ele><time>2026-05-06T08:45:01.565Z</time></trkpt><trkpt lat="38.0749183" lon="12.7484517"><ele>284.0</ele><time>2026-05-06T08:45:02.563Z</time></trkpt><trkpt lat="38.0748883" lon="12.74824"><ele>290.0</ele><time>2026-05-06T08:45:03.563Z</time></trkpt><trkpt lat="38.0748583" lon="12.748025"><ele>290.0</ele><time>2026-05-06T08:45:04.563Z</time></trkpt><trkpt lat="38.0748267" lon="12.74781"><ele>290.0</ele><time>2026-05-06T08:45:05.565Z</time></trkpt><trkpt lat="38.0747967" lon="12.7475933"><ele>290.0</ele><time>2026-05-06T08:45:06.563Z</time></trkpt><trkpt lat="38.0747683" lon="12.7473733"><ele>290.33333333333337</ele><time>2026-05-06T08:45:07.564Z</time></trkpt><trkpt lat="38.0747367" lon="12.7471533"><ele>290.6666666666667</ele><time>2026-05-06T08:45:08.565Z</time></trkpt><trkpt lat="38.0747067" lon="12.74693"><ele>291.0</ele><time>2026-05-06T08:45:09.564Z</time></trkpt><trkpt lat="38.0746767" lon="12.7467067"><ele>291.0</ele><time>2026-05-06T08:45:10.564Z</time></trkpt><trkpt lat="38.0746467" lon="12.7464933"><ele>291.0</ele><time>2026-05-06T08:45:11.564Z</time></trkpt><trkpt lat="38.07462" lon="12.746295"><ele>291.0</ele><time>2026-05-06T08:45:12.564Z</time></trkpt><trkpt lat="38.074595" lon="12.7461033"><ele>292.0</ele><time>2026-05-06T08:45:13.566Z</time></trkpt><trkpt lat="38.0745683" lon="12.7459167"><ele>293.0</ele><time>2026-05-06T08:45:14.564Z</time></trkpt><trkpt lat="38.0745417" lon="12.7457283"><ele>294.0</ele><time>2026-05-06T08:45:15.563Z</time></trkpt><trkpt lat="38.074515" lon="12.7455383"><ele>294.0</ele><time>2026-05-06T08:45:16.564Z</time></trkpt><trkpt lat="38.0744883" lon="12.74535"><ele>294.0</ele><time>2026-05-06T08:45:17.564Z</time></trkpt><trkpt lat="38.0744617" lon="12.7451583"><ele>294.0</ele><time>2026-05-06T08:45:18.564Z</time></trkpt><trkpt lat="38.074435" lon="12.7449667"><ele>294.3333333333333</ele><time>2026-05-06T08:45:19.564Z</time></trkpt><trkpt lat="38.07441" lon="12.74477"><ele>294.66666666666663</ele><time>2026-05-06T08:45:20.565Z</time></trkpt><trkpt lat="38.0743867" lon="12.7445717"><ele>295.0</ele><time>2026-05-06T08:45:21.563Z</time></trkpt><trkpt lat="38.0743683" lon="12.74437"><ele>295.66666666666663</ele><time>2026-05-06T08:45:22.563Z</time></trkpt><trkpt lat="38.0743533" lon="12.7441667"><ele>296.3333333333333</ele><time>2026-05-06T08:45:23.563Z</time></trkpt><trkpt lat="38.07435" lon="12.7439617"><ele>297.0</ele><time>2026-05-06T08:45:24.565Z</time></trkpt><trkpt lat="38.07435" lon="12.7437533"><ele>298.3333333333333</ele><time>2026-05-06T08:45:25.564Z</time></trkpt><trkpt lat="38.0743533" lon="12.7435417"><ele>299.66666666666663</ele><time>2026-05-06T08:45:26.566Z</time></trkpt><trkpt lat="38.0743617" lon="12.743325"><ele>301.0</ele><time>2026-05-06T08:45:27.563Z</time></trkpt><trkpt lat="38.074375" lon="12.7431067"><ele>301.0</ele><time>2026-05-06T08:45:28.563Z</time></trkpt><trkpt lat="38.0743983" lon="12.7428833"><ele>301.0</ele><time>2026-05-06T08:45:29.564Z</time></trkpt><trkpt lat="38.07443" lon="12.7426583"><ele>301.0</ele><time>2026-05-06T08:45:30.564Z</time></trkpt><trkpt lat="38.074465" lon="12.74243"><ele>301.66666666666663</ele><time>2026-05-06T08:45:31.564Z</time></trkpt><trkpt lat="38.0745033" lon="12.7421967"><ele>302.3333333333333</ele><time>2026-05-06T08:45:32.564Z</time></trkpt><trkpt lat="38.07454" lon="12.741965"><ele>303.0</ele><time>2026-05-06T08:45:33.563Z</time></trkpt><trkpt lat="38.074575" lon="12.741745"><ele>303.6666666666667</ele><time>2026-05-06T08:45:34.564Z</time></trkpt><trkpt lat="38.0746083" lon="12.7415333"><ele>304.33333333333337</ele><time>2026-05-06T08:45:35.565Z</time></trkpt><trkpt lat="38.0746417" lon="12.7413317"><ele>305.0</ele><time>2026-05-06T08:45:36.564Z</time></trkpt><trkpt lat="38.074675" lon="12.7411367"><ele>306.33333333333337</ele><time>2026-05-06T08:45:37.564Z</time></trkpt><trkpt lat="38.0747067" lon="12.74095"><ele>307.6666666666667</ele><time>2026-05-06T08:45:38.564Z</time></trkpt><trkpt lat="38.07474" lon="12.7407583"><ele>309.0</ele><time>2026-05-06T08:45:39.564Z</time></trkpt><trkpt lat="38.0747733" lon="12.7405633"><ele>309.0</ele><time>2026-05-06T08:45:40.565Z</time></trkpt><trkpt lat="38.0748067" lon="12.7403633"><ele>309.0</ele><time>2026-05-06T08:45:41.563Z</time></trkpt><trkpt lat="38.07484" lon="12.7401567"><ele>309.0</ele><time>2026-05-06T08:45:42.563Z</time></trkpt><trkpt lat="38.0748729" lon="12.7399438"><ele>309.0</ele><time>2026-05-06T08:45:43.564Z</time></trkpt><trkpt lat="38.0749076" lon="12.7397256"><ele>309.0</ele><time>2026-05-06T08:45:44.564Z</time></trkpt><trkpt lat="38.0749438" lon="12.7395052"><ele>309.0</ele><time>2026-05-06T08:45:45.564Z</time></trkpt><trkpt lat="38.0749806" lon="12.739279"><ele>306.0</ele><time>2026-05-06T08:45:46.564Z</time></trkpt><trkpt lat="38.0750175" lon="12.7390473"><ele>303.0</ele><time>2026-05-06T08:45:47.564Z</time></trkpt><trkpt lat="38.0750544" lon="12.7388125"><ele>300.0</ele><time>2026-05-06T08:45:48.565Z</time></trkpt><trkpt lat="38.0750925" lon="12.7385764"><ele>300.0</ele><time>2026-05-06T08:45:49.563Z</time></trkpt><trkpt lat="38.0751309" lon="12.7383393"><ele>300.0</ele><time>2026-05-06T08:45:50.564Z</time></trkpt><trkpt lat="38.0751715" lon="12.7381047"><ele>300.0</ele><time>2026-05-06T08:45:51.563Z</time></trkpt><trkpt lat="38.0752111" lon="12.7378782"><ele>299.3333333333333</ele><time>2026-05-06T08:45:52.564Z</time></trkpt><trkpt lat="38.0752496" lon="12.737654"><ele>298.66666666666663</ele><time>2026-05-06T08:45:53.564Z</time></trkpt><trkpt lat="38.0752836" lon="12.7374255"><ele>298.0</ele><time>2026-05-06T08:45:54.564Z</time></trkpt><trkpt lat="38.0753176" lon="12.7371937"><ele>298.0</ele><time>2026-05-06T08:45:55.564Z</time></trkpt><trkpt lat="38.0753568" lon="12.7369573"><ele>298.0</ele><time>2026-05-06T08:45:56.565Z</time></trkpt><trkpt lat="38.0753987" lon="12.7367178"><ele>298.0</ele><time>2026-05-06T08:45:57.564Z</time></trkpt><trkpt lat="38.0754386" lon="12.7364743"><ele>298.0</ele><time>2026-05-06T08:45:58.565Z</time></trkpt><trkpt lat="38.0754778" lon="12.7362285"><ele>298.0</ele><time>2026-05-06T08:45:59.564Z</time></trkpt><trkpt lat="38.0755186" lon="12.7359812"><ele>298.0</ele><time>2026-05-06T08:46:00.564Z</time></trkpt><trkpt lat="38.0755603" lon="12.7357296"><ele>297.3333333333333</ele><time>2026-05-06T08:46:01.564Z</time></trkpt><trkpt lat="38.0756008" lon="12.7354791"><ele>296.6666666666667</ele><time>2026-05-06T08:46:02.564Z</time></trkpt><trkpt lat="38.0756398" lon="12.7352291"><ele>296.0</ele><time>2026-05-06T08:46:03.564Z</time></trkpt><trkpt lat="38.0756782" lon="12.7349834"><ele>295.33333333333337</ele><time>2026-05-06T08:46:04.564Z</time></trkpt><trkpt lat="38.0757138" lon="12.7347501"><ele>294.6666666666667</ele><time>2026-05-06T08:46:05.564Z</time></trkpt><trkpt lat="38.0757509" lon="12.7345241"><ele>294.0</ele><time>2026-05-06T08:46:06.564Z</time></trkpt><trkpt lat="38.0757887" lon="12.7343001"><ele>292.6666666666667</ele><time>2026-05-06T08:46:07.565Z</time></trkpt><trkpt lat="38.0758288" lon="12.7340744"><ele>291.33333333333337</ele><time>2026-05-06T08:46:08.565Z</time></trkpt><trkpt lat="38.0758671" lon="12.7338443"><ele>290.0</ele><time>2026-05-06T08:46:09.565Z</time></trkpt><trkpt lat="38.0759066" lon="12.7336114"><ele>290.33333333333337</ele><time>2026-05-06T08:46:10.563Z</time></trkpt><trkpt lat="38.0759454" lon="12.7333751"><ele>290.6666666666667</ele><time>2026-05-06T08:46:11.563Z</time></trkpt><trkpt lat="38.0759829" lon="12.7331374"><ele>291.0</ele><time>2026-05-06T08:46:12.564Z</time></trkpt><trkpt lat="38.0760186" lon="12.7329008"><ele>291.0</ele><time>2026-05-06T08:46:13.562Z</time></trkpt><trkpt lat="38.076054" lon="12.7326697"><ele>291.0</ele><time>2026-05-06T08:46:14.564Z</time></trkpt><trkpt lat="38.0760916" lon="12.7324494"><ele>291.0</ele><time>2026-05-06T08:46:15.564Z</time></trkpt><trkpt lat="38.0761283" lon="12.7322323"><ele>291.0</ele><time>2026-05-06T08:46:16.564Z</time></trkpt><trkpt lat="38.076167" lon="12.732016"><ele>291.0</ele><time>2026-05-06T08:46:17.564Z</time></trkpt><trkpt lat="38.076209" lon="12.7317982"><ele>291.0</ele><time>2026-05-06T08:46:18.564Z</time></trkpt><trkpt lat="38.0762527" lon="12.7315817"><ele>290.6666666666667</ele><time>2026-05-06T08:46:19.564Z</time></trkpt><trkpt lat="38.0762963" lon="12.7313659"><ele>290.33333333333337</ele><time>2026-05-06T08:46:20.565Z</time></trkpt><trkpt lat="38.0763409" lon="12.7311483"><ele>290.0</ele><time>2026-05-06T08:46:21.565Z</time></trkpt><trkpt lat="38.0763902" lon="12.7309313"><ele>290.6666666666667</ele><time>2026-05-06T08:46:22.564Z</time></trkpt><trkpt lat="38.0764488" lon="12.7307174"><ele>291.3333333333333</ele><time>2026-05-06T08:46:23.563Z</time></trkpt><trkpt lat="38.0765152" lon="12.7305071"><ele>292.0</ele><time>2026-05-06T08:46:24.564Z</time></trkpt><trkpt lat="38.0765854" lon="12.7302946"><ele>291.3333333333333</ele><time>2026-05-06T08:46:25.564Z</time></trkpt><trkpt lat="38.076655" lon="12.7300766"><ele>290.6666666666667</ele><time>2026-05-06T08:46:26.564Z</time></trkpt><trkpt lat="38.0767267" lon="12.729853"><ele>290.0</ele><time>2026-05-06T08:46:27.564Z</time></trkpt><trkpt lat="38.0768018" lon="12.7296266"><ele>290.0</ele><time>2026-05-06T08:46:28.564Z</time></trkpt><trkpt lat="38.0768808" lon="12.7293951"><ele>290.0</ele><time>2026-05-06T08:46:29.565Z</time></trkpt><trkpt lat="38.0769609" lon="12.7291603"><ele>290.0</ele><time>2026-05-06T08:46:30.563Z</time></trkpt><trkpt lat="38.0770423" lon="12.7289209"><ele>290.33333333333337</ele><time>2026-05-06T08:46:31.564Z</time></trkpt><trkpt lat="38.0771231" lon="12.728684"><ele>290.6666666666667</ele><time>2026-05-06T08:46:32.564Z</time></trkpt><trkpt lat="38.0772014" lon="12.7284564"><ele>291.0</ele><time>2026-05-06T08:46:33.564Z</time></trkpt><trkpt lat="38.0772752" lon="12.7282393"><ele>291.3333333333333</ele><time>2026-05-06T08:46:34.564Z</time></trkpt><trkpt lat="38.0773467" lon="12.728027"><ele>291.66666666666663</ele><time>2026-05-06T08:46:35.564Z</time></trkpt><trkpt lat="38.0774195" lon="12.7278154"><ele>292.0</ele><time>2026-05-06T08:46:36.564Z</time></trkpt><trkpt lat="38.0774938" lon="12.7276014"><ele>290.66666666666663</ele><time>2026-05-06T08:46:37.564Z</time></trkpt><trkpt lat="38.0775688" lon="12.7273861"><ele>289.3333333333333</ele><time>2026-05-06T08:46:38.563Z</time></trkpt><trkpt lat="38.0776485" lon="12.7271681"><ele>288.0</ele><time>2026-05-06T08:46:39.563Z</time></trkpt><trkpt lat="38.0777273" lon="12.7269473"><ele>288.0</ele><time>2026-05-06T08:46:40.564Z</time></trkpt><trkpt lat="38.0778076" lon="12.7267219"><ele>288.0</ele><time>2026-05-06T08:46:41.564Z</time></trkpt><trkpt lat="38.0778848" lon="12.7264958"><ele>288.0</ele><time>2026-05-06T08:46:42.564Z</time></trkpt><trkpt lat="38.0779587" lon="12.7262761"><ele>288.0</ele><time>2026-05-06T08:46:43.563Z</time></trkpt><trkpt lat="38.0780271" lon="12.7260652"><ele>288.0</ele><time>2026-05-06T08:46:44.564Z</time></trkpt><trkpt lat="38.0780924" lon="12.7258597"><ele>288.0</ele><time>2026-05-06T08:46:45.563Z</time></trkpt><trkpt lat="38.0781516" lon="12.7256645"><ele>287.5</ele><time>2026-05-06T08:46:46.568Z</time></trkpt><trkpt lat="38.0782056" lon="12.7254902"><ele>287.0</ele><time>2026-05-06T08:46:47.563Z</time></trkpt><trkpt lat="38.0782556" lon="12.7253278"><ele>286.5</ele><time>2026-05-06T08:46:48.564Z</time></trkpt><trkpt lat="38.0783025" lon="12.725172"><ele>286.0</ele><time>2026-05-06T08:46:49.563Z</time></trkpt><trkpt lat="38.0783449" lon="12.7250208"><ele>285.75</ele><time>2026-05-06T08:46:50.564Z</time></trkpt><trkpt lat="38.0783818" lon="12.7248691"><ele>285.5</ele><time>2026-05-06T08:46:51.564Z</time></trkpt><trkpt lat="38.0784123" lon="12.7247162"><ele>285.25</ele><time>2026-05-06T08:46:52.564Z</time></trkpt><trkpt lat="38.0784367" lon="12.7245579"><ele>285.0</ele><time>2026-05-06T08:46:53.564Z</time></trkpt><trkpt lat="38.0784558" lon="12.7243931"><ele>285.0</ele><time>2026-05-06T08:46:54.564Z</time></trkpt><trkpt lat="38.0784695" lon="12.7242275"><ele>285.0</ele><time>2026-05-06T08:46:55.562Z</time></trkpt><trkpt lat="38.0784823" lon="12.7240635"><ele>285.0</ele><time>2026-05-06T08:46:56.564Z</time></trkpt><trkpt lat="38.0784924" lon="12.723901"><ele>285.0</ele><time>2026-05-06T08:46:57.564Z</time></trkpt><trkpt lat="38.0785051" lon="12.7237424"><ele>285.0</ele><time>2026-05-06T08:46:58.565Z</time></trkpt><trkpt lat="38.0785171" lon="12.7235907"><ele>285.0</ele><time>2026-05-06T08:46:59.564Z</time></trkpt><trkpt lat="38.078527" lon="12.7234382"><ele>285.0</ele><time>2026-05-06T08:47:00.564Z</time></trkpt><trkpt lat="38.0785311" lon="12.7232864"><ele>285.0</ele><time>2026-05-06T08:47:01.563Z</time></trkpt><trkpt lat="38.0785329" lon="12.7231375"><ele>284.25</ele><time>2026-05-06T08:47:02.565Z</time></trkpt><trkpt lat="38.0785356" lon="12.7229912"><ele>283.5</ele><time>2026-05-06T08:47:03.564Z</time></trkpt><trkpt lat="38.078537" lon="12.7228436"><ele>282.75</ele><time>2026-05-06T08:47:04.563Z</time></trkpt><trkpt lat="38.0785386" lon="12.7226901"><ele>282.0</ele><time>2026-05-06T08:47:05.564Z</time></trkpt><trkpt lat="38.0785421" lon="12.7225281"><ele>281.0</ele><time>2026-05-06T08:47:06.564Z</time></trkpt><trkpt lat="38.0785443" lon="12.7223608"><ele>280.0</ele><time>2026-05-06T08:47:07.564Z</time></trkpt><trkpt lat="38.0785456" lon="12.7221892"><ele>279.0</ele><time>2026-05-06T08:47:08.564Z</time></trkpt><trkpt lat="38.0785517" lon="12.7220113"><ele>278.0</ele><time>2026-05-06T08:47:09.563Z</time></trkpt><trkpt lat="38.0785632" lon="12.7218322"><ele>277.5</ele><time>2026-05-06T08:47:10.564Z</time></trkpt><trkpt lat="38.0785851" lon="12.7216537"><ele>277.0</ele><time>2026-05-06T08:47:11.563Z</time></trkpt><trkpt lat="38.0786221" lon="12.7214853"><ele>276.5</ele><time>2026-05-06T08:47:12.564Z</time></trkpt><trkpt lat="38.0786784" lon="12.721325"><ele>276.0</ele><time>2026-05-06T08:47:13.563Z</time></trkpt><trkpt lat="38.0787464" lon="12.7211698"><ele>276.25</ele><time>2026-05-06T08:47:14.564Z</time></trkpt><trkpt lat="38.078821" lon="12.721017"><ele>276.5</ele><time>2026-05-06T08:47:15.564Z</time></trkpt><trkpt lat="38.0788983" lon="12.7208588"><ele>276.75</ele><time>2026-05-06T08:47:16.564Z</time></trkpt><trkpt lat="38.0789753" lon="12.7206967"><ele>277.0</ele><time>2026-05-06T08:47:17.564Z</time></trkpt><trkpt lat="38.0790511" lon="12.7205329"><ele>275.5</ele><time>2026-05-06T08:47:18.563Z</time></trkpt><trkpt lat="38.0791216" lon="12.7203663"><ele>274.0</ele><time>2026-05-06T08:47:19.565Z</time></trkpt><trkpt lat="38.079185" lon="12.7201967"><ele>272.5</ele><time>2026-05-06T08:47:20.564Z</time></trkpt><trkpt lat="38.079235" lon="12.72002"><ele>271.0</ele><time>2026-05-06T08:47:21.563Z</time></trkpt><trkpt lat="38.0792733" lon="12.719835"><ele>270.5</ele><time>2026-05-06T08:47:22.564Z</time></trkpt><trkpt lat="38.0793017" lon="12.71965"><ele>270.0</ele><time>2026-05-06T08:47:23.564Z</time></trkpt><trkpt lat="38.0793267" lon="12.7194667"><ele>269.5</ele><time>2026-05-06T08:47:24.564Z</time></trkpt><trkpt lat="38.0793483" lon="12.7192833"><ele>269.0</ele><time>2026-05-06T08:47:25.564Z</time></trkpt><trkpt lat="38.07937" lon="12.7190983"><ele>269.0</ele><time>2026-05-06T08:47:26.565Z</time></trkpt><trkpt lat="38.0793917" lon="12.71891"><ele>269.0</ele><time>2026-05-06T08:47:27.564Z</time></trkpt><trkpt lat="38.079415" lon="12.7187217"><ele>269.0</ele><time>2026-05-06T08:47:28.563Z</time></trkpt><trkpt lat="38.079435" lon="12.7185333"><ele>269.0</ele><time>2026-05-06T08:47:29.565Z</time></trkpt><trkpt lat="38.079455" lon="12.7183517"><ele>269.25</ele><time>2026-05-06T08:47:30.565Z</time></trkpt><trkpt lat="38.0794783" lon="12.718185"><ele>269.5</ele><time>2026-05-06T08:47:31.564Z</time></trkpt><trkpt lat="38.0795083" lon="12.7180233"><ele>269.75</ele><time>2026-05-06T08:47:32.564Z</time></trkpt><trkpt lat="38.07955" lon="12.7178683"><ele>270.0</ele><time>2026-05-06T08:47:33.564Z</time></trkpt><trkpt lat="38.0796017" lon="12.717715"><ele>270.5</ele><time>2026-05-06T08:47:34.565Z</time></trkpt><trkpt lat="38.0796617" lon="12.717565"><ele>271.0</ele><time>2026-05-06T08:47:35.564Z</time></trkpt><trkpt lat="38.0797283" lon="12.717425"><ele>271.5</ele><time>2026-05-06T08:47:36.563Z</time></trkpt><trkpt lat="38.0798033" lon="12.7172983"><ele>272.0</ele><time>2026-05-06T08:47:37.564Z</time></trkpt><trkpt lat="38.07988" lon="12.717175"><ele>271.25</ele><time>2026-05-06T08:47:38.564Z</time></trkpt><trkpt lat="38.0799567" lon="12.71705"><ele>270.5</ele><time>2026-05-06T08:47:39.563Z</time></trkpt><trkpt lat="38.080035" lon="12.7169217"><ele>269.75</ele><time>2026-05-06T08:47:40.565Z</time></trkpt><trkpt lat="38.0801117" lon="12.71679"><ele>269.0</ele><time>2026-05-06T08:47:41.563Z</time></trkpt><trkpt lat="38.0801867" lon="12.716655"><ele>269.0</ele><time>2026-05-06T08:47:42.564Z</time></trkpt><trkpt lat="38.0802567" lon="12.7165183"><ele>269.0</ele><time>2026-05-06T08:47:43.564Z</time></trkpt><trkpt lat="38.08032" lon="12.7163817"><ele>269.0</ele><time>2026-05-06T08:47:44.564Z</time></trkpt><trkpt lat="38.0803767" lon="12.7162467"><ele>269.0</ele><time>2026-05-06T08:47:45.564Z</time></trkpt><trkpt lat="38.0804283" lon="12.716115"><ele>269.4</ele><time>2026-05-06T08:47:46.563Z</time></trkpt><trkpt lat="38.0804767" lon="12.7159867"><ele>269.79999999999995</ele><time>2026-05-06T08:47:47.565Z</time></trkpt><trkpt lat="38.0805183" lon="12.7158633"><ele>270.20000000000005</ele><time>2026-05-06T08:47:48.564Z</time></trkpt><trkpt lat="38.080555" lon="12.7157367"><ele>270.6</ele><time>2026-05-06T08:47:49.564Z</time></trkpt><trkpt lat="38.0805833" lon="12.7156067"><ele>271.0</ele><time>2026-05-06T08:47:50.564Z</time></trkpt><trkpt lat="38.0806017" lon="12.7154733"><ele>271.0</ele><time>2026-05-06T08:47:51.564Z</time></trkpt><trkpt lat="38.080605" lon="12.71535"><ele>271.0</ele><time>2026-05-06T08:47:52.565Z</time></trkpt><trkpt lat="38.0805967" lon="12.71523"><ele>271.0</ele><time>2026-05-06T08:47:53.564Z</time></trkpt><trkpt lat="38.0805867" lon="12.7151217"><ele>271.0</ele><time>2026-05-06T08:47:54.563Z</time></trkpt><trkpt lat="38.080575" lon="12.7150317"><ele>271.0</ele><time>2026-05-06T08:47:55.563Z</time></trkpt><trkpt lat="38.0805533" lon="12.71493"><ele>271.0</ele><time>2026-05-06T08:47:57.562Z</time></trkpt><trkpt lat="38.080515" lon="12.71482"><ele>270.66666666666663</ele><time>2026-05-06T08:48:47.564Z</time></trkpt><trkpt lat="38.0804867" lon="12.7146983"><ele>270.3333333333333</ele><time>2026-05-06T08:48:49.563Z</time></trkpt><trkpt lat="38.080445" lon="12.7145533"><ele>270.0</ele><time>2026-05-06T08:48:51.564Z</time></trkpt><trkpt lat="38.0804217" lon="12.7144667"><ele>269.6666666666667</ele><time>2026-05-06T08:48:52.564Z</time></trkpt><trkpt lat="38.0803983" lon="12.71438"><ele>269.33333333333337</ele><time>2026-05-06T08:48:53.563Z</time></trkpt><trkpt lat="38.080375" lon="12.7143"><ele>269.0</ele><time>2026-05-06T08:48:54.563Z</time></trkpt><trkpt lat="38.0803517" lon="12.7142183"><ele>268.7142857142857</ele><time>2026-05-06T08:48:55.563Z</time></trkpt><trkpt lat="38.080325" lon="12.7141333"><ele>268.42857142857144</ele><time>2026-05-06T08:48:56.564Z</time></trkpt><trkpt lat="38.080295" lon="12.7140417"><ele>268.14285714285717</ele><time>2026-05-06T08:48:57.563Z</time></trkpt><trkpt lat="38.0802667" lon="12.71395"><ele>267.8571428571429</ele><time>2026-05-06T08:48:58.564Z</time></trkpt><trkpt lat="38.0802433" lon="12.71386"><ele>267.57142857142856</ele><time>2026-05-06T08:48:59.563Z</time></trkpt><trkpt lat="38.08022" lon="12.7137767"><ele>267.28571428571433</ele><time>2026-05-06T08:49:00.564Z</time></trkpt><trkpt lat="38.0801983" lon="12.7136983"><ele>267.0</ele><time>2026-05-06T08:49:01.563Z</time></trkpt><trkpt lat="38.0801567" lon="12.713545"><ele>266.6</ele><time>2026-05-06T08:49:03.564Z</time></trkpt><trkpt lat="38.080135" lon="12.713465"><ele>266.2</ele><time>2026-05-06T08:49:04.564Z</time></trkpt><trkpt lat="38.0800967" lon="12.7133217"><ele>265.8</ele><time>2026-05-06T08:49:06.562Z</time></trkpt><trkpt lat="38.0800567" lon="12.7131733"><ele>265.4</ele><time>2026-05-06T08:49:08.564Z</time></trkpt><trkpt lat="38.0800317" lon="12.7130883"><ele>265.0</ele><time>2026-05-06T08:49:09.563Z</time></trkpt><trkpt lat="38.080005" lon="12.713"><ele>264.99999999999994</ele><time>2026-05-06T08:49:10.564Z</time></trkpt><trkpt lat="38.079985" lon="12.7129167"><ele>265.0</ele><time>2026-05-06T08:49:11.564Z</time></trkpt><trkpt lat="38.079965" lon="12.7128367"><ele>265.0</ele><time>2026-05-06T08:49:12.564Z</time></trkpt><trkpt lat="38.0799483" lon="12.7127583"><ele>265.0</ele><time>2026-05-06T08:49:13.564Z</time></trkpt><trkpt lat="38.079925" lon="12.71267"><ele>265.0</ele><time>2026-05-06T08:49:14.565Z</time></trkpt><trkpt lat="38.0798967" lon="12.712575"><ele>264.99999999999994</ele><time>2026-05-06T08:49:15.564Z</time></trkpt><trkpt lat="38.0798667" lon="12.7124783"><ele>265.0</ele><time>2026-05-06T08:49:16.564Z</time></trkpt><trkpt lat="38.07984" lon="12.7123783"><ele>265.0</ele><time>2026-05-06T08:49:17.565Z</time></trkpt><trkpt lat="38.0798133" lon="12.712285"><ele>265.0</ele><time>2026-05-06T08:49:18.563Z</time></trkpt><trkpt lat="38.0797917" lon="12.71219"><ele>265.0</ele><time>2026-05-06T08:49:19.564Z</time></trkpt><trkpt lat="38.0797717" lon="12.7120933"><ele>265.0</ele><time>2026-05-06T08:49:20.566Z</time></trkpt><trkpt lat="38.0797533" lon="12.7119883"><ele>265.0</ele><time>2026-05-06T08:49:21.565Z</time></trkpt><trkpt lat="38.0797367" lon="12.71188"><ele>265.0</ele><time>2026-05-06T08:49:22.565Z</time></trkpt><trkpt lat="38.0797217" lon="12.7117733"><ele>265.0</ele><time>2026-05-06T08:49:23.564Z</time></trkpt><trkpt lat="38.0797117" lon="12.711665"><ele>265.0</ele><time>2026-05-06T08:49:24.564Z</time></trkpt><trkpt lat="38.0797067" lon="12.71156"><ele>265.0</ele><time>2026-05-06T08:49:25.562Z</time></trkpt><trkpt lat="38.07971" lon="12.7114617"><ele>265.0</ele><time>2026-05-06T08:49:26.564Z</time></trkpt><trkpt lat="38.0797167" lon="12.7113733"><ele>265.0</ele><time>2026-05-06T08:49:27.564Z</time></trkpt><trkpt lat="38.0797217" lon="12.711285"><ele>265.0</ele><time>2026-05-06T08:49:28.565Z</time></trkpt><trkpt lat="38.079725" lon="12.7111933"><ele>265.0</ele><time>2026-05-06T08:49:29.564Z</time></trkpt><trkpt lat="38.0797283" lon="12.7110967"><ele>265.0</ele><time>2026-05-06T08:49:30.563Z</time></trkpt><trkpt lat="38.0797333" lon="12.7109883"><ele>265.0</ele><time>2026-05-06T08:49:31.565Z</time></trkpt><trkpt lat="38.0797383" lon="12.7108667"><ele>265.0</ele><time>2026-05-06T08:49:32.565Z</time></trkpt><trkpt lat="38.0797467" lon="12.710735"><ele>265.0</ele><time>2026-05-06T08:49:33.563Z</time></trkpt><trkpt lat="38.079755" lon="12.71059"><ele>264.75</ele><time>2026-05-06T08:49:34.565Z</time></trkpt><trkpt lat="38.0797683" lon="12.710435"><ele>264.5</ele><time>2026-05-06T08:49:35.564Z</time></trkpt><trkpt lat="38.0797817" lon="12.7102667"><ele>264.25</ele><time>2026-05-06T08:49:36.564Z</time></trkpt><trkpt lat="38.0797917" lon="12.7100733"><ele>264.0</ele><time>2026-05-06T08:49:37.566Z</time></trkpt><trkpt lat="38.0798" lon="12.7098583"><ele>264.0</ele><time>2026-05-06T08:49:38.564Z</time></trkpt><trkpt lat="38.0798167" lon="12.7096167"><ele>264.0</ele><time>2026-05-06T08:49:39.564Z</time></trkpt><trkpt lat="38.0798383" lon="12.7093533"><ele>264.0</ele><time>2026-05-06T08:49:40.564Z</time></trkpt><trkpt lat="38.079865" lon="12.7090817"><ele>265.0</ele><time>2026-05-06T08:49:41.566Z</time></trkpt><trkpt lat="38.0799017" lon="12.7088167"><ele>266.0</ele><time>2026-05-06T08:49:42.563Z</time></trkpt><trkpt lat="38.079945" lon="12.7085683"><ele>267.0</ele><time>2026-05-06T08:49:43.563Z</time></trkpt><trkpt lat="38.0799933" lon="12.70833"><ele>267.0</ele><time>2026-05-06T08:49:44.565Z</time></trkpt><trkpt lat="38.080045" lon="12.7080967"><ele>267.0</ele><time>2026-05-06T08:49:45.563Z</time></trkpt><trkpt lat="38.080095" lon="12.7078717"><ele>267.0</ele><time>2026-05-06T08:49:46.564Z</time></trkpt><trkpt lat="38.080135" lon="12.7076533"><ele>267.6666666666667</ele><time>2026-05-06T08:49:47.565Z</time></trkpt><trkpt lat="38.0801583" lon="12.7074383"><ele>268.33333333333337</ele><time>2026-05-06T08:49:48.565Z</time></trkpt><trkpt lat="38.0801633" lon="12.7072233"><ele>269.0</ele><time>2026-05-06T08:49:49.564Z</time></trkpt><trkpt lat="38.0801533" lon="12.707005"><ele>268.6666666666667</ele><time>2026-05-06T08:49:50.566Z</time></trkpt><trkpt lat="38.0801267" lon="12.7067817"><ele>268.3333333333333</ele><time>2026-05-06T08:49:51.564Z</time></trkpt><trkpt lat="38.080095" lon="12.7065583"><ele>268.0</ele><time>2026-05-06T08:49:52.564Z</time></trkpt><trkpt lat="38.08006" lon="12.7063317"><ele>268.0</ele><time>2026-05-06T08:49:53.564Z</time></trkpt><trkpt lat="38.0800217" lon="12.7060983"><ele>268.0</ele><time>2026-05-06T08:49:54.564Z</time></trkpt><trkpt lat="38.079985" lon="12.7058567"><ele>268.0</ele><time>2026-05-06T08:49:55.565Z</time></trkpt><trkpt lat="38.0799467" lon="12.7056133"><ele>268.66666666666663</ele><time>2026-05-06T08:49:56.564Z</time></trkpt><trkpt lat="38.0799083" lon="12.7053667"><ele>269.3333333333333</ele><time>2026-05-06T08:49:57.564Z</time></trkpt><trkpt lat="38.07987" lon="12.7051183"><ele>270.0</ele><time>2026-05-06T08:49:58.564Z</time></trkpt><trkpt lat="38.079835" lon="12.70487"><ele>270.3333333333333</ele><time>2026-05-06T08:49:59.563Z</time></trkpt><trkpt lat="38.0797967" lon="12.704625"><ele>270.66666666666663</ele><time>2026-05-06T08:50:00.564Z</time></trkpt><trkpt lat="38.0797617" lon="12.7043917"><ele>271.0</ele><time>2026-05-06T08:50:01.564Z</time></trkpt><trkpt lat="38.0797283" lon="12.70417"><ele>270.3333333333333</ele><time>2026-05-06T08:50:02.563Z</time></trkpt><trkpt lat="38.0796967" lon="12.70396"><ele>269.6666666666667</ele><time>2026-05-06T08:50:03.564Z</time></trkpt><trkpt lat="38.0796667" lon="12.7037517"><ele>269.0</ele><time>2026-05-06T08:50:04.565Z</time></trkpt><trkpt lat="38.0796367" lon="12.703545"><ele>269.0</ele><time>2026-05-06T08:50:05.564Z</time></trkpt><trkpt lat="38.0796017" lon="12.70334"><ele>269.0</ele><time>2026-05-06T08:50:06.564Z</time></trkpt><trkpt lat="38.07956" lon="12.7031333"><ele>269.0</ele><time>2026-05-06T08:50:07.564Z</time></trkpt><trkpt lat="38.0795133" lon="12.702925"><ele>268.0</ele><time>2026-05-06T08:50:08.563Z</time></trkpt><trkpt lat="38.0794633" lon="12.7027133"><ele>267.0</ele><time>2026-05-06T08:50:09.563Z</time></trkpt><trkpt lat="38.0794067" lon="12.7025033"><ele>266.0</ele><time>2026-05-06T08:50:10.565Z</time></trkpt><trkpt lat="38.0793517" lon="12.70229"><ele>266.0</ele><time>2026-05-06T08:50:11.563Z</time></trkpt><trkpt lat="38.0792967" lon="12.7020767"><ele>266.0</ele><time>2026-05-06T08:50:12.564Z</time></trkpt><trkpt lat="38.0792417" lon="12.7018633"><ele>266.0</ele><time>2026-05-06T08:50:13.564Z</time></trkpt><trkpt lat="38.079185" lon="12.7016517"><ele>266.0</ele><time>2026-05-06T08:50:14.566Z</time></trkpt><trkpt lat="38.079125" lon="12.7014417"><ele>266.0</ele><time>2026-05-06T08:50:15.564Z</time></trkpt><trkpt lat="38.079065" lon="12.7012367"><ele>266.0</ele><time>2026-05-06T08:50:16.565Z</time></trkpt><trkpt lat="38.079005" lon="12.7010367"><ele>266.0</ele><time>2026-05-06T08:50:17.564Z</time></trkpt><trkpt lat="38.0789483" lon="12.700845"><ele>266.0</ele><time>2026-05-06T08:50:18.564Z</time></trkpt><trkpt lat="38.078895" lon="12.7006583"><ele>266.0</ele><time>2026-05-06T08:50:19.564Z</time></trkpt><trkpt lat="38.0788483" lon="12.7004717"><ele>266.0</ele><time>2026-05-06T08:50:20.563Z</time></trkpt><trkpt lat="38.0788033" lon="12.70028"><ele>266.0</ele><time>2026-05-06T08:50:21.565Z</time></trkpt><trkpt lat="38.078755" lon="12.700085"><ele>266.0</ele><time>2026-05-06T08:50:22.563Z</time></trkpt><trkpt lat="38.0787017" lon="12.69989"><ele>266.33333333333337</ele><time>2026-05-06T08:50:23.564Z</time></trkpt><trkpt lat="38.0786367" lon="12.6997"><ele>266.6666666666667</ele><time>2026-05-06T08:50:24.564Z</time></trkpt><trkpt lat="38.0785583" lon="12.6995217"><ele>267.0</ele><time>2026-05-06T08:50:25.563Z</time></trkpt><trkpt lat="38.0784617" lon="12.6993583"><ele>267.0</ele><time>2026-05-06T08:50:26.565Z</time></trkpt><trkpt lat="38.0783533" lon="12.699205"><ele>267.0</ele><time>2026-05-06T08:50:27.564Z</time></trkpt><trkpt lat="38.0782383" lon="12.6990617"><ele>267.0</ele><time>2026-05-06T08:50:28.565Z</time></trkpt><trkpt lat="38.0781283" lon="12.6989283"><ele>267.5</ele><time>2026-05-06T08:50:29.564Z</time></trkpt><trkpt lat="38.0780217" lon="12.6987983"><ele>268.0</ele><time>2026-05-06T08:50:30.565Z</time></trkpt><trkpt lat="38.077915" lon="12.6986683"><ele>268.5</ele><time>2026-05-06T08:50:31.563Z</time></trkpt><trkpt lat="38.0778067" lon="12.6985333"><ele>269.0</ele><time>2026-05-06T08:50:32.565Z</time></trkpt><trkpt lat="38.077695" lon="12.6983983"><ele>269.5</ele><time>2026-05-06T08:50:33.564Z</time></trkpt><trkpt lat="38.0775833" lon="12.698265"><ele>270.0</ele><time>2026-05-06T08:50:34.563Z</time></trkpt><trkpt lat="38.0774767" lon="12.6981367"><ele>270.5</ele><time>2026-05-06T08:50:35.564Z</time></trkpt><trkpt lat="38.0773733" lon="12.69801"><ele>271.0</ele><time>2026-05-06T08:50:36.563Z</time></trkpt><trkpt lat="38.077275" lon="12.6978817"><ele>269.75</ele><time>2026-05-06T08:50:37.564Z</time></trkpt><trkpt lat="38.077185" lon="12.6977467"><ele>268.5</ele><time>2026-05-06T08:50:38.565Z</time></trkpt><trkpt lat="38.0771033" lon="12.6976067"><ele>267.25</ele><time>2026-05-06T08:50:39.564Z</time></trkpt><trkpt lat="38.07703" lon="12.6974617"><ele>266.0</ele><time>2026-05-06T08:50:40.564Z</time></trkpt><trkpt lat="38.0769633" lon="12.697305"><ele>266.0</ele><time>2026-05-06T08:50:41.564Z</time></trkpt><trkpt lat="38.0769033" lon="12.69714"><ele>266.0</ele><time>2026-05-06T08:50:42.565Z</time></trkpt><trkpt lat="38.0768583" lon="12.6969617"><ele>266.0</ele><time>2026-05-06T08:50:43.564Z</time></trkpt><trkpt lat="38.07682" lon="12.6967717"><ele>266.0</ele><time>2026-05-06T08:50:44.565Z</time></trkpt><trkpt lat="38.0767917" lon="12.6965783"><ele>264.75</ele><time>2026-05-06T08:50:45.564Z</time></trkpt><trkpt lat="38.0767667" lon="12.6963883"><ele>263.5</ele><time>2026-05-06T08:50:46.563Z</time></trkpt><trkpt lat="38.07674" lon="12.696205"><ele>262.25</ele><time>2026-05-06T08:50:47.564Z</time></trkpt><trkpt lat="38.0767133" lon="12.696035"><ele>261.0</ele><time>2026-05-06T08:50:48.564Z</time></trkpt><trkpt lat="38.07669" lon="12.6958817"><ele>261.2</ele><time>2026-05-06T08:50:49.564Z</time></trkpt><trkpt lat="38.0766683" lon="12.69574"><ele>261.40000000000003</ele><time>2026-05-06T08:50:50.565Z</time></trkpt><trkpt lat="38.0766467" lon="12.6956083"><ele>261.6</ele><time>2026-05-06T08:50:51.563Z</time></trkpt><trkpt lat="38.0766283" lon="12.6954917"><ele>261.8</ele><time>2026-05-06T08:50:52.564Z</time></trkpt><trkpt lat="38.07661" lon="12.6953933"><ele>262.0</ele><time>2026-05-06T08:50:53.564Z</time></trkpt><trkpt lat="38.0765583" lon="12.695265"><ele>261.16666666666663</ele><time>2026-05-06T08:50:55.564Z</time></trkpt><trkpt lat="38.07649" lon="12.6951933"><ele>260.3333333333333</ele><time>2026-05-06T08:50:57.564Z</time></trkpt><trkpt lat="38.0764283" lon="12.6951367"><ele>259.5</ele><time>2026-05-06T08:51:00.564Z</time></trkpt><trkpt lat="38.0763833" lon="12.6950483"><ele>258.6666666666667</ele><time>2026-05-06T08:51:03.563Z</time></trkpt><trkpt lat="38.0763433" lon="12.69498"><ele>257.83333333333337</ele><time>2026-05-06T08:51:05.563Z</time></trkpt><trkpt lat="38.0762733" lon="12.6949567"><ele>257.0</ele><time>2026-05-06T08:51:07.564Z</time></trkpt><trkpt lat="38.0762333" lon="12.6950433"><ele>257.0</ele><time>2026-05-06T08:51:10.565Z</time></trkpt><trkpt lat="38.0762417" lon="12.6951283"><ele>257.0</ele><time>2026-05-06T08:51:19.564Z</time></trkpt><trkpt lat="38.076305" lon="12.6951917"><ele>257.0</ele><time>2026-05-06T08:51:21.565Z</time></trkpt><trkpt lat="38.076365" lon="12.6951583"><ele>257.0</ele><time>2026-05-06T08:51:23.564Z</time></trkpt><trkpt lat="38.0763517" lon="12.6950767"><ele>257.0</ele><time>2026-05-06T08:51:25.564Z</time></trkpt><trkpt lat="38.0763533" lon="12.6949883"><ele>257.0</ele><time>2026-05-06T08:51:27.564Z</time></trkpt><trkpt lat="38.0763633" lon="12.69512"><ele>257.0</ele><time>2026-05-06T08:53:19.565Z</time></trkpt><trkpt lat="38.07629" lon="12.6951717"><ele>257.0</ele><time>2026-05-06T08:53:30.563Z</time></trkpt></trkseg><trkseg><trkpt lat="38.0764278" lon="12.695227"><ele>257.4</ele><time>2026-05-06T09:16:59.566Z</time></trkpt><trkpt lat="38.0765091" lon="12.6952793"><ele>257.79999999999995</ele><time>2026-05-06T09:17:00.564Z</time></trkpt><trkpt lat="38.0765618" lon="12.695347"><ele>258.2</ele><time>2026-05-06T09:17:01.565Z</time></trkpt><trkpt lat="38.0766017" lon="12.6954357"><ele>258.59999999999997</ele><time>2026-05-06T09:17:02.565Z</time></trkpt><trkpt lat="38.0766311" lon="12.6955538"><ele>259.0</ele><time>2026-05-06T09:17:03.565Z</time></trkpt><trkpt lat="38.0766414" lon="12.6957081"><ele>259.0</ele><time>2026-05-06T09:17:04.565Z</time></trkpt><trkpt lat="38.0766531" lon="12.6958783"><ele>259.0</ele><time>2026-05-06T09:17:05.565Z</time></trkpt><trkpt lat="38.076674" lon="12.6960441"><ele>259.0</ele><time>2026-05-06T09:17:06.565Z</time></trkpt><trkpt lat="38.0766944" lon="12.6961986"><ele>259.0</ele><time>2026-05-06T09:17:07.565Z</time></trkpt><trkpt lat="38.0767152" lon="12.6963432"><ele>259.5</ele><time>2026-05-06T09:17:08.565Z</time></trkpt><trkpt lat="38.0767368" lon="12.6964911"><ele>260.0</ele><time>2026-05-06T09:17:09.565Z</time></trkpt><trkpt lat="38.0767554" lon="12.6966443"><ele>260.5</ele><time>2026-05-06T09:17:10.564Z</time></trkpt><trkpt lat="38.0767767" lon="12.6967995"><ele>261.0</ele><time>2026-05-06T09:17:11.565Z</time></trkpt><trkpt lat="38.0768029" lon="12.6969579"><ele>262.25</ele><time>2026-05-06T09:17:12.564Z</time></trkpt><trkpt lat="38.0768395" lon="12.6971169"><ele>263.5</ele><time>2026-05-06T09:17:13.564Z</time></trkpt><trkpt lat="38.0768831" lon="12.6972609"><ele>264.75</ele><time>2026-05-06T09:17:14.565Z</time></trkpt><trkpt lat="38.0769335" lon="12.6973919"><ele>266.0</ele><time>2026-05-06T09:17:15.564Z</time></trkpt><trkpt lat="38.0769915" lon="12.69752"><ele>266.0</ele><time>2026-05-06T09:17:16.564Z</time></trkpt><trkpt lat="38.0770531" lon="12.6976382"><ele>266.0</ele><time>2026-05-06T09:17:17.566Z</time></trkpt><trkpt lat="38.0771152" lon="12.6977442"><ele>266.0</ele><time>2026-05-06T09:17:18.565Z</time></trkpt><trkpt lat="38.07718" lon="12.697842"><ele>266.0</ele><time>2026-05-06T09:17:19.565Z</time></trkpt><trkpt lat="38.0772494" lon="12.6979388"><ele>266.0</ele><time>2026-05-06T09:17:20.567Z</time></trkpt><trkpt lat="38.0773197" lon="12.6980351"><ele>265.83333333333337</ele><time>2026-05-06T09:17:21.565Z</time></trkpt><trkpt lat="38.0773842" lon="12.6981318"><ele>265.6666666666667</ele><time>2026-05-06T09:17:22.566Z</time></trkpt><trkpt lat="38.0774328" lon="12.6982323"><ele>265.5</ele><time>2026-05-06T09:17:23.566Z</time></trkpt><trkpt lat="38.0774615" lon="12.6983372"><ele>265.3333333333333</ele><time>2026-05-06T09:17:24.566Z</time></trkpt><trkpt lat="38.0774633" lon="12.6984373"><ele>265.16666666666663</ele><time>2026-05-06T09:17:25.565Z</time></trkpt><trkpt lat="38.0774275" lon="12.6985235"><ele>265.0</ele><time>2026-05-06T09:17:26.565Z</time></trkpt><trkpt lat="38.0773615" lon="12.6985847"><ele>266.2</ele><time>2026-05-06T09:17:27.564Z</time></trkpt><trkpt lat="38.0772805" lon="12.6986224"><ele>267.4</ele><time>2026-05-06T09:17:28.566Z</time></trkpt><trkpt lat="38.0771783" lon="12.6986266"><ele>268.6</ele><time>2026-05-06T09:17:29.566Z</time></trkpt><trkpt lat="38.0770671" lon="12.6986082"><ele>269.8</ele><time>2026-05-06T09:17:30.567Z</time></trkpt><trkpt lat="38.0769532" lon="12.6985848"><ele>271.0</ele><time>2026-05-06T09:17:31.564Z</time></trkpt><trkpt lat="38.0768387" lon="12.6985667"><ele>271.0</ele><time>2026-05-06T09:17:32.566Z</time></trkpt><trkpt lat="38.0767239" lon="12.6985519"><ele>271.0</ele><time>2026-05-06T09:17:33.565Z</time></trkpt><trkpt lat="38.0766065" lon="12.698535"><ele>271.0</ele><time>2026-05-06T09:17:34.564Z</time></trkpt><trkpt lat="38.0764849" lon="12.6985182"><ele>271.0</ele><time>2026-05-06T09:17:35.566Z</time></trkpt><trkpt lat="38.0763613" lon="12.6985"><ele>272.75</ele><time>2026-05-06T09:17:36.566Z</time></trkpt><trkpt lat="38.0762346" lon="12.6984753"><ele>274.5</ele><time>2026-05-06T09:17:37.565Z</time></trkpt><trkpt lat="38.0761046" lon="12.6984395"><ele>276.25</ele><time>2026-05-06T09:17:38.565Z</time></trkpt><trkpt lat="38.0759758" lon="12.6983913"><ele>278.0</ele><time>2026-05-06T09:17:39.565Z</time></trkpt><trkpt lat="38.0758512" lon="12.6983298"><ele>281.25</ele><time>2026-05-06T09:17:40.565Z</time></trkpt><trkpt lat="38.0757309" lon="12.6982564"><ele>284.5</ele><time>2026-05-06T09:17:41.566Z</time></trkpt><trkpt lat="38.0756186" lon="12.6981757"><ele>287.75</ele><time>2026-05-06T09:17:42.564Z</time></trkpt><trkpt lat="38.0755135" lon="12.6980861"><ele>291.0</ele><time>2026-05-06T09:17:43.564Z</time></trkpt><trkpt lat="38.0754151" lon="12.6979854"><ele>291.0</ele><time>2026-05-06T09:17:44.564Z</time></trkpt><trkpt lat="38.0753247" lon="12.6978736"><ele>291.0</ele><time>2026-05-06T09:17:45.564Z</time></trkpt><trkpt lat="38.0752388" lon="12.6977555"><ele>291.0</ele><time>2026-05-06T09:17:46.564Z</time></trkpt><trkpt lat="38.075157" lon="12.697633"><ele>291.0</ele><time>2026-05-06T09:17:47.567Z</time></trkpt><trkpt lat="38.0750746" lon="12.6975055"><ele>289.5</ele><time>2026-05-06T09:17:48.565Z</time></trkpt><trkpt lat="38.0749912" lon="12.6973769"><ele>288.0</ele><time>2026-05-06T09:17:49.565Z</time></trkpt><trkpt lat="38.0749064" lon="12.6972496"><ele>286.5</ele><time>2026-05-06T09:17:50.566Z</time></trkpt><trkpt lat="38.0748211" lon="12.6971227"><ele>285.0</ele><time>2026-05-06T09:17:51.565Z</time></trkpt><trkpt lat="38.0747373" lon="12.6969969"><ele>287.25</ele><time>2026-05-06T09:17:52.565Z</time></trkpt><trkpt lat="38.0746514" lon="12.6968704"><ele>289.5</ele><time>2026-05-06T09:17:53.565Z</time></trkpt><trkpt lat="38.0745659" lon="12.6967437"><ele>291.75</ele><time>2026-05-06T09:17:54.564Z</time></trkpt><trkpt lat="38.074481" lon="12.6966128"><ele>294.0</ele><time>2026-05-06T09:17:55.565Z</time></trkpt><trkpt lat="38.0743965" lon="12.6964778"><ele>294.0</ele><time>2026-05-06T09:17:56.565Z</time></trkpt><trkpt lat="38.0743101" lon="12.6963439"><ele>294.0</ele><time>2026-05-06T09:17:57.565Z</time></trkpt><trkpt lat="38.0742147" lon="12.6962179"><ele>294.0</ele><time>2026-05-06T09:17:58.563Z</time></trkpt><trkpt lat="38.0741114" lon="12.6961048"><ele>294.0</ele><time>2026-05-06T09:17:59.565Z</time></trkpt><trkpt lat="38.0740003" lon="12.6960042"><ele>293.25</ele><time>2026-05-06T09:18:00.564Z</time></trkpt><trkpt lat="38.0738837" lon="12.6959144"><ele>292.5</ele><time>2026-05-06T09:18:01.566Z</time></trkpt><trkpt lat="38.0737634" lon="12.6958362"><ele>291.75</ele><time>2026-05-06T09:18:02.566Z</time></trkpt><trkpt lat="38.073641" lon="12.6957681"><ele>291.0</ele><time>2026-05-06T09:18:03.564Z</time></trkpt><trkpt lat="38.0735159" lon="12.6957109"><ele>291.0</ele><time>2026-05-06T09:18:04.566Z</time></trkpt><trkpt lat="38.0733903" lon="12.695666"><ele>291.0</ele><time>2026-05-06T09:18:05.565Z</time></trkpt><trkpt lat="38.0732636" lon="12.6956389"><ele>291.0</ele><time>2026-05-06T09:18:06.565Z</time></trkpt><trkpt lat="38.0731366" lon="12.6956292"><ele>291.0</ele><time>2026-05-06T09:18:07.566Z</time></trkpt><trkpt lat="38.0730072" lon="12.695626"><ele>293.75</ele><time>2026-05-06T09:18:08.565Z</time></trkpt><trkpt lat="38.072877" lon="12.6956181"><ele>296.5</ele><time>2026-05-06T09:18:09.565Z</time></trkpt><trkpt lat="38.0727455" lon="12.6955931"><ele>299.25</ele><time>2026-05-06T09:18:10.565Z</time></trkpt><trkpt lat="38.0726149" lon="12.695548"><ele>302.0</ele><time>2026-05-06T09:18:11.565Z</time></trkpt><trkpt lat="38.0724836" lon="12.6954933"><ele>305.25</ele><time>2026-05-06T09:18:12.565Z</time></trkpt><trkpt lat="38.0723546" lon="12.6954338"><ele>308.5</ele><time>2026-05-06T09:18:13.565Z</time></trkpt><trkpt lat="38.0722262" lon="12.6953757"><ele>311.75</ele><time>2026-05-06T09:18:14.565Z</time></trkpt><trkpt lat="38.0720992" lon="12.6953186"><ele>315.0</ele><time>2026-05-06T09:18:15.566Z</time></trkpt><trkpt lat="38.0719716" lon="12.6952622"><ele>313.75</ele><time>2026-05-06T09:18:16.564Z</time></trkpt><trkpt lat="38.0718459" lon="12.6952071"><ele>312.5</ele><time>2026-05-06T09:18:17.566Z</time></trkpt><trkpt lat="38.0717198" lon="12.6951508"><ele>311.25</ele><time>2026-05-06T09:18:18.565Z</time></trkpt><trkpt lat="38.0715947" lon="12.6950958"><ele>310.0</ele><time>2026-05-06T09:18:19.565Z</time></trkpt><trkpt lat="38.0714782" lon="12.6950432"><ele>310.0</ele><time>2026-05-06T09:18:20.564Z</time></trkpt><trkpt lat="38.0713655" lon="12.6949933"><ele>310.0</ele><time>2026-05-06T09:18:21.564Z</time></trkpt><trkpt lat="38.0712526" lon="12.6949434"><ele>310.0</ele><time>2026-05-06T09:18:22.564Z</time></trkpt><trkpt lat="38.0711367" lon="12.6948931"><ele>310.0</ele><time>2026-05-06T09:18:23.565Z</time></trkpt><trkpt lat="38.0710172" lon="12.6948431"><ele>310.0</ele><time>2026-05-06T09:18:24.564Z</time></trkpt><trkpt lat="38.0708966" lon="12.6947925"><ele>310.0</ele><time>2026-05-06T09:18:25.565Z</time></trkpt><trkpt lat="38.0707736" lon="12.6947392"><ele>310.0</ele><time>2026-05-06T09:18:26.565Z</time></trkpt><trkpt lat="38.0706489" lon="12.6946855"><ele>310.0</ele><time>2026-05-06T09:18:27.566Z</time></trkpt><trkpt lat="38.070522" lon="12.6946396"><ele>313.25</ele><time>2026-05-06T09:18:28.564Z</time></trkpt><trkpt lat="38.0703907" lon="12.6946069"><ele>316.5</ele><time>2026-05-06T09:18:29.564Z</time></trkpt><trkpt lat="38.0702571" lon="12.6945812"><ele>319.75</ele><time>2026-05-06T09:18:30.564Z</time></trkpt><trkpt lat="38.0701205" lon="12.694561"><ele>323.0</ele><time>2026-05-06T09:18:31.569Z</time></trkpt><trkpt lat="38.0699827" lon="12.6945399"><ele>322.0</ele><time>2026-05-06T09:18:32.565Z</time></trkpt><trkpt lat="38.0698442" lon="12.6945197"><ele>321.0</ele><time>2026-05-06T09:18:33.565Z</time></trkpt><trkpt lat="38.0697058" lon="12.6945016"><ele>320.0</ele><time>2026-05-06T09:18:34.565Z</time></trkpt><trkpt lat="38.0695687" lon="12.694486"><ele>319.0</ele><time>2026-05-06T09:18:35.563Z</time></trkpt><trkpt lat="38.0694305" lon="12.694484"><ele>319.0</ele><time>2026-05-06T09:18:36.563Z</time></trkpt><trkpt lat="38.0692935" lon="12.6945015"><ele>319.0</ele><time>2026-05-06T09:18:37.564Z</time></trkpt><trkpt lat="38.0691583" lon="12.6945463"><ele>319.0</ele><time>2026-05-06T09:18:38.564Z</time></trkpt><trkpt lat="38.0690267" lon="12.6946128"><ele>319.0</ele><time>2026-05-06T09:18:39.564Z</time></trkpt><trkpt lat="38.0688948" lon="12.6946936"><ele>316.3333333333333</ele><time>2026-05-06T09:18:40.564Z</time></trkpt><trkpt lat="38.0687603" lon="12.6947816"><ele>313.6666666666667</ele><time>2026-05-06T09:18:41.564Z</time></trkpt><trkpt lat="38.0686205" lon="12.6948715"><ele>311.0</ele><time>2026-05-06T09:18:42.563Z</time></trkpt><trkpt lat="38.0684779" lon="12.6949556"><ele>311.0</ele><time>2026-05-06T09:18:43.564Z</time></trkpt><trkpt lat="38.0683298" lon="12.6950305"><ele>311.0</ele><time>2026-05-06T09:18:44.565Z</time></trkpt><trkpt lat="38.0681782" lon="12.6950941"><ele>311.0</ele><time>2026-05-06T09:18:45.563Z</time></trkpt><trkpt lat="38.0680228" lon="12.695149"><ele>309.6666666666667</ele><time>2026-05-06T09:18:46.562Z</time></trkpt><trkpt lat="38.0678617" lon="12.6952014"><ele>308.3333333333333</ele><time>2026-05-06T09:18:47.564Z</time></trkpt><trkpt lat="38.0676984" lon="12.6952575"><ele>307.0</ele><time>2026-05-06T09:18:48.563Z</time></trkpt><trkpt lat="38.0675343" lon="12.6953128"><ele>311.3333333333333</ele><time>2026-05-06T09:18:49.562Z</time></trkpt><trkpt lat="38.0673651" lon="12.6953688"><ele>315.6666666666667</ele><time>2026-05-06T09:18:50.563Z</time></trkpt><trkpt lat="38.067196" lon="12.695426"><ele>320.0</ele><time>2026-05-06T09:18:51.564Z</time></trkpt><trkpt lat="38.0670244" lon="12.6954823"><ele>320.0</ele><time>2026-05-06T09:18:52.563Z</time></trkpt><trkpt lat="38.0668513" lon="12.6955401"><ele>320.0</ele><time>2026-05-06T09:18:53.563Z</time></trkpt><trkpt lat="38.0666816" lon="12.6955971"><ele>320.0</ele><time>2026-05-06T09:18:54.564Z</time></trkpt><trkpt lat="38.0665106" lon="12.6956526"><ele>322.33333333333337</ele><time>2026-05-06T09:18:55.564Z</time></trkpt><trkpt lat="38.0663447" lon="12.6957076"><ele>324.6666666666667</ele><time>2026-05-06T09:18:56.564Z</time></trkpt><trkpt lat="38.0661826" lon="12.6957653"><ele>327.0</ele><time>2026-05-06T09:18:57.565Z</time></trkpt><trkpt lat="38.0660216" lon="12.6958222"><ele>327.0</ele><time>2026-05-06T09:18:58.564Z</time></trkpt><trkpt lat="38.0658661" lon="12.6958741"><ele>327.0</ele><time>2026-05-06T09:18:59.564Z</time></trkpt><trkpt lat="38.0657187" lon="12.6959226"><ele>327.0</ele><time>2026-05-06T09:19:00.564Z</time></trkpt><trkpt lat="38.0655784" lon="12.695966"><ele>326.25</ele><time>2026-05-06T09:19:01.564Z</time></trkpt><trkpt lat="38.0654407" lon="12.6960089"><ele>325.5</ele><time>2026-05-06T09:19:02.564Z</time></trkpt><trkpt lat="38.0653043" lon="12.6960539"><ele>324.75</ele><time>2026-05-06T09:19:03.564Z</time></trkpt><trkpt lat="38.0651679" lon="12.6961001"><ele>324.0</ele><time>2026-05-06T09:19:04.563Z</time></trkpt><trkpt lat="38.0650317" lon="12.6961454"><ele>326.5</ele><time>2026-05-06T09:19:05.563Z</time></trkpt><trkpt lat="38.0648979" lon="12.6961903"><ele>329.0</ele><time>2026-05-06T09:19:06.563Z</time></trkpt><trkpt lat="38.0647633" lon="12.6962353"><ele>331.5</ele><time>2026-05-06T09:19:07.563Z</time></trkpt><trkpt lat="38.0646284" lon="12.6962831"><ele>334.0</ele><time>2026-05-06T09:19:08.564Z</time></trkpt><trkpt lat="38.0644946" lon="12.6963422"><ele>334.0</ele><time>2026-05-06T09:19:09.568Z</time></trkpt><trkpt lat="38.064362" lon="12.696416"><ele>334.0</ele><time>2026-05-06T09:19:10.563Z</time></trkpt><trkpt lat="38.0642328" lon="12.6965098"><ele>334.0</ele><time>2026-05-06T09:19:11.563Z</time></trkpt><trkpt lat="38.0641077" lon="12.6966199"><ele>334.0</ele><time>2026-05-06T09:19:12.563Z</time></trkpt><trkpt lat="38.063986" lon="12.6967425"><ele>333.66666666666663</ele><time>2026-05-06T09:19:13.566Z</time></trkpt><trkpt lat="38.0638638" lon="12.6968689"><ele>333.3333333333333</ele><time>2026-05-06T09:19:14.564Z</time></trkpt><trkpt lat="38.0637434" lon="12.6969963"><ele>333.0</ele><time>2026-05-06T09:19:15.563Z</time></trkpt><trkpt lat="38.0636265" lon="12.6971218"><ele>332.5</ele><time>2026-05-06T09:19:16.564Z</time></trkpt><trkpt lat="38.0635184" lon="12.6972429"><ele>332.0</ele><time>2026-05-06T09:19:17.566Z</time></trkpt><trkpt lat="38.063421" lon="12.6973641"><ele>331.5</ele><time>2026-05-06T09:19:18.564Z</time></trkpt><trkpt lat="38.0633299" lon="12.6974957"><ele>331.0</ele><time>2026-05-06T09:19:19.563Z</time></trkpt><trkpt lat="38.0632479" lon="12.6976381"><ele>333.5</ele><time>2026-05-06T09:19:20.564Z</time></trkpt><trkpt lat="38.0631775" lon="12.6977981"><ele>336.0</ele><time>2026-05-06T09:19:21.562Z</time></trkpt><trkpt lat="38.0631148" lon="12.6979683"><ele>338.5</ele><time>2026-05-06T09:19:22.563Z</time></trkpt><trkpt lat="38.0630559" lon="12.6981453"><ele>341.0</ele><time>2026-05-06T09:19:23.563Z</time></trkpt><trkpt lat="38.0629938" lon="12.6983206"><ele>341.0</ele><time>2026-05-06T09:19:24.564Z</time></trkpt><trkpt lat="38.0629262" lon="12.6984929"><ele>341.0</ele><time>2026-05-06T09:19:25.564Z</time></trkpt><trkpt lat="38.0628514" lon="12.6986548"><ele>341.0</ele><time>2026-05-06T09:19:26.564Z</time></trkpt><trkpt lat="38.0627728" lon="12.698813"><ele>341.0</ele><time>2026-05-06T09:19:27.563Z</time></trkpt><trkpt lat="38.0626951" lon="12.6989707"><ele>344.5</ele><time>2026-05-06T09:19:28.563Z</time></trkpt><trkpt lat="38.0626168" lon="12.6991276"><ele>348.0</ele><time>2026-05-06T09:19:29.564Z</time></trkpt><trkpt lat="38.062536" lon="12.6992855"><ele>351.5</ele><time>2026-05-06T09:19:30.564Z</time></trkpt><trkpt lat="38.0624558" lon="12.6994413"><ele>355.0</ele><time>2026-05-06T09:19:31.564Z</time></trkpt><trkpt lat="38.0623757" lon="12.6995965"><ele>356.0</ele><time>2026-05-06T09:19:32.564Z</time></trkpt><trkpt lat="38.0622943" lon="12.6997527"><ele>357.0</ele><time>2026-05-06T09:19:33.564Z</time></trkpt><trkpt lat="38.0622124" lon="12.6999105"><ele>358.0</ele><time>2026-05-06T09:19:34.564Z</time></trkpt><trkpt lat="38.0621363" lon="12.7000677"><ele>359.0</ele><time>2026-05-06T09:19:35.564Z</time></trkpt><trkpt lat="38.0620715" lon="12.7002298"><ele>360.25</ele><time>2026-05-06T09:19:36.564Z</time></trkpt><trkpt lat="38.0620259" lon="12.7003976"><ele>361.5</ele><time>2026-05-06T09:19:37.564Z</time></trkpt><trkpt lat="38.0620019" lon="12.7005731"><ele>362.75</ele><time>2026-05-06T09:19:38.564Z</time></trkpt><trkpt lat="38.0619925" lon="12.7007504"><ele>364.0</ele><time>2026-05-06T09:19:39.564Z</time></trkpt><trkpt lat="38.0619952" lon="12.7009265"><ele>364.25</ele><time>2026-05-06T09:19:40.564Z</time></trkpt><trkpt lat="38.0620089" lon="12.7011031"><ele>364.5</ele><time>2026-05-06T09:19:41.563Z</time></trkpt><trkpt lat="38.0620381" lon="12.7012773"><ele>364.75</ele><time>2026-05-06T09:19:42.563Z</time></trkpt><trkpt lat="38.0620843" lon="12.7014494"><ele>365.0</ele><time>2026-05-06T09:19:43.562Z</time></trkpt><trkpt lat="38.0621404" lon="12.7016201"><ele>365.0</ele><time>2026-05-06T09:19:44.564Z</time></trkpt><trkpt lat="38.0622007" lon="12.7017896"><ele>365.0</ele><time>2026-05-06T09:19:45.564Z</time></trkpt><trkpt lat="38.06226" lon="12.7019583"><ele>365.0</ele><time>2026-05-06T09:19:46.563Z</time></trkpt><trkpt lat="38.0623194" lon="12.7021234"><ele>365.0</ele><time>2026-05-06T09:19:47.564Z</time></trkpt><trkpt lat="38.0623784" lon="12.7022826"><ele>364.75</ele><time>2026-05-06T09:19:48.564Z</time></trkpt><trkpt lat="38.0624325" lon="12.7024317"><ele>364.5</ele><time>2026-05-06T09:19:49.564Z</time></trkpt><trkpt lat="38.0624799" lon="12.7025721"><ele>364.25</ele><time>2026-05-06T09:19:50.564Z</time></trkpt><trkpt lat="38.0625243" lon="12.7027056"><ele>364.0</ele><time>2026-05-06T09:19:51.564Z</time></trkpt><trkpt lat="38.0625647" lon="12.7028334"><ele>365.6</ele><time>2026-05-06T09:19:52.563Z</time></trkpt><trkpt lat="38.0625979" lon="12.7029578"><ele>367.2</ele><time>2026-05-06T09:19:53.565Z</time></trkpt><trkpt lat="38.0626202" lon="12.7030818"><ele>368.8</ele><time>2026-05-06T09:19:54.564Z</time></trkpt><trkpt lat="38.0626311" lon="12.7032013"><ele>370.40000000000003</ele><time>2026-05-06T09:19:55.563Z</time></trkpt><trkpt lat="38.062632" lon="12.7033199"><ele>372.0</ele><time>2026-05-06T09:19:56.563Z</time></trkpt><trkpt lat="38.0626302" lon="12.7034462"><ele>372.0</ele><time>2026-05-06T09:19:57.564Z</time></trkpt><trkpt lat="38.0626379" lon="12.7035735"><ele>372.0</ele><time>2026-05-06T09:19:58.564Z</time></trkpt><trkpt lat="38.0626524" lon="12.7037015"><ele>372.0</ele><time>2026-05-06T09:19:59.563Z</time></trkpt><trkpt lat="38.0626804" lon="12.7038258"><ele>372.0</ele><time>2026-05-06T09:20:00.564Z</time></trkpt><trkpt lat="38.0627315" lon="12.703939"><ele>372.0</ele><time>2026-05-06T09:20:01.563Z</time></trkpt><trkpt lat="38.0628028" lon="12.7040373"><ele>373.0</ele><time>2026-05-06T09:20:02.564Z</time></trkpt><trkpt lat="38.0628985" lon="12.7041128"><ele>374.0</ele><time>2026-05-06T09:20:03.564Z</time></trkpt><trkpt lat="38.0630086" lon="12.7041644"><ele>375.0</ele><time>2026-05-06T09:20:04.563Z</time></trkpt><trkpt lat="38.0631244" lon="12.7042"><ele>376.0</ele><time>2026-05-06T09:20:05.564Z</time></trkpt><trkpt lat="38.0632466" lon="12.7042257"><ele>377.0</ele><time>2026-05-06T09:20:06.563Z</time></trkpt><trkpt lat="38.0633713" lon="12.7042403"><ele>378.0</ele><time>2026-05-06T09:20:07.564Z</time></trkpt><trkpt lat="38.0634973" lon="12.7042363"><ele>379.0</ele><time>2026-05-06T09:20:08.564Z</time></trkpt><trkpt lat="38.0636253" lon="12.7042108"><ele>380.0</ele><time>2026-05-06T09:20:09.564Z</time></trkpt><trkpt lat="38.0637513" lon="12.7041633"><ele>380.0</ele><time>2026-05-06T09:20:10.566Z</time></trkpt><trkpt lat="38.0638763" lon="12.7040974"><ele>380.0</ele><time>2026-05-06T09:20:11.563Z</time></trkpt><trkpt lat="38.0639983" lon="12.7040163"><ele>380.0</ele><time>2026-05-06T09:20:12.564Z</time></trkpt><trkpt lat="38.0641195" lon="12.7039277"><ele>380.0</ele><time>2026-05-06T09:20:13.563Z</time></trkpt><trkpt lat="38.0642439" lon="12.7038384"><ele>381.5</ele><time>2026-05-06T09:20:14.564Z</time></trkpt><trkpt lat="38.0643706" lon="12.7037514"><ele>383.0</ele><time>2026-05-06T09:20:15.563Z</time></trkpt><trkpt lat="38.0645004" lon="12.7036665"><ele>384.5</ele><time>2026-05-06T09:20:16.564Z</time></trkpt><trkpt lat="38.0646325" lon="12.7035897"><ele>386.0</ele><time>2026-05-06T09:20:17.564Z</time></trkpt><trkpt lat="38.0647673" lon="12.7035206"><ele>386.0</ele><time>2026-05-06T09:20:18.564Z</time></trkpt><trkpt lat="38.0649028" lon="12.703463"><ele>386.0</ele><time>2026-05-06T09:20:19.563Z</time></trkpt><trkpt lat="38.065041" lon="12.7034179"><ele>386.0</ele><time>2026-05-06T09:20:20.564Z</time></trkpt><trkpt lat="38.0651783" lon="12.7033852"><ele>386.0</ele><time>2026-05-06T09:20:21.564Z</time></trkpt><trkpt lat="38.0653125" lon="12.7033672"><ele>387.75</ele><time>2026-05-06T09:20:22.563Z</time></trkpt><trkpt lat="38.0654371" lon="12.7033643"><ele>389.5</ele><time>2026-05-06T09:20:23.566Z</time></trkpt><trkpt lat="38.0655603" lon="12.7033746"><ele>391.25</ele><time>2026-05-06T09:20:24.564Z</time></trkpt><trkpt lat="38.0656848" lon="12.7033963"><ele>393.0</ele><time>2026-05-06T09:20:25.564Z</time></trkpt><trkpt lat="38.0658129" lon="12.7034286"><ele>394.25</ele><time>2026-05-06T09:20:26.563Z</time></trkpt><trkpt lat="38.0659414" lon="12.7034745"><ele>395.5</ele><time>2026-05-06T09:20:27.564Z</time></trkpt><trkpt lat="38.0660714" lon="12.7035326"><ele>396.75</ele><time>2026-05-06T09:20:28.563Z</time></trkpt><trkpt lat="38.0662018" lon="12.7035978"><ele>398.0</ele><time>2026-05-06T09:20:29.564Z</time></trkpt><trkpt lat="38.0663319" lon="12.7036728"><ele>400.0</ele><time>2026-05-06T09:20:30.563Z</time></trkpt><trkpt lat="38.0664615" lon="12.7037552"><ele>402.0</ele><time>2026-05-06T09:20:31.564Z</time></trkpt><trkpt lat="38.0665886" lon="12.7038451"><ele>404.0</ele><time>2026-05-06T09:20:32.564Z</time></trkpt><trkpt lat="38.0667135" lon="12.7039443"><ele>406.0</ele><time>2026-05-06T09:20:33.564Z</time></trkpt><trkpt lat="38.0668341" lon="12.7040543"><ele>406.0</ele><time>2026-05-06T09:20:34.564Z</time></trkpt><trkpt lat="38.0669484" lon="12.7041754"><ele>406.0</ele><time>2026-05-06T09:20:35.565Z</time></trkpt><trkpt lat="38.0670553" lon="12.7043085"><ele>406.0</ele><time>2026-05-06T09:20:36.564Z</time></trkpt><trkpt lat="38.0671552" lon="12.704452"><ele>406.0</ele><time>2026-05-06T09:20:37.563Z</time></trkpt><trkpt lat="38.0672498" lon="12.704604"><ele>407.0</ele><time>2026-05-06T09:20:38.565Z</time></trkpt><trkpt lat="38.0673412" lon="12.7047607"><ele>408.0</ele><time>2026-05-06T09:20:39.563Z</time></trkpt><trkpt lat="38.0674338" lon="12.7049166"><ele>409.0</ele><time>2026-05-06T09:20:40.564Z</time></trkpt><trkpt lat="38.0675256" lon="12.7050734"><ele>409.0</ele><time>2026-05-06T09:20:41.562Z</time></trkpt><trkpt lat="38.0676143" lon="12.7052334"><ele>409.0</ele><time>2026-05-06T09:20:42.563Z</time></trkpt><trkpt lat="38.0676912" lon="12.7053958"><ele>409.0</ele><time>2026-05-06T09:20:43.563Z</time></trkpt><trkpt lat="38.0677495" lon="12.705562"><ele>409.0</ele><time>2026-05-06T09:20:44.564Z</time></trkpt><trkpt lat="38.0677852" lon="12.7057306"><ele>412.25</ele><time>2026-05-06T09:20:45.564Z</time></trkpt><trkpt lat="38.0677978" lon="12.7059007"><ele>415.5</ele><time>2026-05-06T09:20:46.563Z</time></trkpt><trkpt lat="38.0677888" lon="12.7060695"><ele>418.75</ele><time>2026-05-06T09:20:47.564Z</time></trkpt><trkpt lat="38.0677656" lon="12.7062381"><ele>422.0</ele><time>2026-05-06T09:20:48.564Z</time></trkpt><trkpt lat="38.0677319" lon="12.7064079"><ele>423.5</ele><time>2026-05-06T09:20:49.564Z</time></trkpt><trkpt lat="38.0676871" lon="12.7065756"><ele>425.0</ele><time>2026-05-06T09:20:50.564Z</time></trkpt><trkpt lat="38.0676331" lon="12.7067437"><ele>426.5</ele><time>2026-05-06T09:20:51.564Z</time></trkpt><trkpt lat="38.0675768" lon="12.7069133"><ele>428.0</ele><time>2026-05-06T09:20:52.562Z</time></trkpt><trkpt lat="38.0675184" lon="12.7070878"><ele>428.3333333333333</ele><time>2026-05-06T09:20:53.565Z</time></trkpt><trkpt lat="38.0674636" lon="12.7072647"><ele>428.66666666666663</ele><time>2026-05-06T09:20:54.563Z</time></trkpt><trkpt lat="38.0674114" lon="12.7074461"><ele>429.0</ele><time>2026-05-06T09:20:55.564Z</time></trkpt><trkpt lat="38.0673672" lon="12.7076314"><ele>433.66666666666663</ele><time>2026-05-06T09:20:56.565Z</time></trkpt><trkpt lat="38.0673292" lon="12.7078198"><ele>438.3333333333333</ele><time>2026-05-06T09:20:57.564Z</time></trkpt><trkpt lat="38.067303" lon="12.7080126"><ele>443.0</ele><time>2026-05-06T09:20:58.564Z</time></trkpt><trkpt lat="38.0672938" lon="12.7082078"><ele>443.0</ele><time>2026-05-06T09:20:59.565Z</time></trkpt><trkpt lat="38.0672991" lon="12.708403"><ele>443.0</ele><time>2026-05-06T09:21:00.563Z</time></trkpt><trkpt lat="38.0673149" lon="12.7085956"><ele>443.0</ele><time>2026-05-06T09:21:01.564Z</time></trkpt><trkpt lat="38.0673259" lon="12.7087872"><ele>444.25</ele><time>2026-05-06T09:21:02.564Z</time></trkpt><trkpt lat="38.067324" lon="12.7089772"><ele>445.5</ele><time>2026-05-06T09:21:03.564Z</time></trkpt><trkpt lat="38.0673024" lon="12.7091555"><ele>446.75</ele><time>2026-05-06T09:21:04.563Z</time></trkpt><trkpt lat="38.0672619" lon="12.7093159"><ele>448.0</ele><time>2026-05-06T09:21:05.566Z</time></trkpt><trkpt lat="38.0672038" lon="12.7094598"><ele>449.5</ele><time>2026-05-06T09:21:06.563Z</time></trkpt><trkpt lat="38.0671276" lon="12.7095864"><ele>451.0</ele><time>2026-05-06T09:21:07.564Z</time></trkpt><trkpt lat="38.0670337" lon="12.7096841"><ele>452.5</ele><time>2026-05-06T09:21:08.563Z</time></trkpt><trkpt lat="38.0669236" lon="12.7097492"><ele>454.0</ele><time>2026-05-06T09:21:09.564Z</time></trkpt><trkpt lat="38.0668019" lon="12.7097951"><ele>454.0</ele><time>2026-05-06T09:21:10.565Z</time></trkpt><trkpt lat="38.0666742" lon="12.7098247"><ele>454.0</ele><time>2026-05-06T09:21:11.564Z</time></trkpt><trkpt lat="38.0665434" lon="12.7098284"><ele>454.0</ele><time>2026-05-06T09:21:12.564Z</time></trkpt><trkpt lat="38.0664152" lon="12.7098005"><ele>454.0</ele><time>2026-05-06T09:21:13.564Z</time></trkpt><trkpt lat="38.0662948" lon="12.7097441"><ele>456.0</ele><time>2026-05-06T09:21:14.564Z</time></trkpt><trkpt lat="38.066178" lon="12.7096772"><ele>458.0</ele><time>2026-05-06T09:21:15.564Z</time></trkpt><trkpt lat="38.0660616" lon="12.7096148"><ele>460.0</ele><time>2026-05-06T09:21:16.564Z</time></trkpt><trkpt lat="38.065941" lon="12.7095656"><ele>462.0</ele><time>2026-05-06T09:21:17.564Z</time></trkpt><trkpt lat="38.0658176" lon="12.7095358"><ele>463.75</ele><time>2026-05-06T09:21:18.564Z</time></trkpt><trkpt lat="38.0656897" lon="12.7095211"><ele>465.5</ele><time>2026-05-06T09:21:19.564Z</time></trkpt><trkpt lat="38.0655555" lon="12.7095229"><ele>467.25</ele><time>2026-05-06T09:21:20.564Z</time></trkpt><trkpt lat="38.0654197" lon="12.709537"><ele>469.0</ele><time>2026-05-06T09:21:21.563Z</time></trkpt><trkpt lat="38.065281" lon="12.7095561"><ele>469.0</ele><time>2026-05-06T09:21:22.564Z</time></trkpt><trkpt lat="38.0651406" lon="12.7095782"><ele>469.0</ele><time>2026-05-06T09:21:23.562Z</time></trkpt><trkpt lat="38.0649975" lon="12.7096008"><ele>469.0</ele><time>2026-05-06T09:21:24.563Z</time></trkpt><trkpt lat="38.064851" lon="12.7096222"><ele>469.0</ele><time>2026-05-06T09:21:25.564Z</time></trkpt><trkpt lat="38.0647012" lon="12.7096426"><ele>470.33333333333337</ele><time>2026-05-06T09:21:26.564Z</time></trkpt><trkpt lat="38.064548" lon="12.709662"><ele>471.66666666666663</ele><time>2026-05-06T09:21:27.564Z</time></trkpt><trkpt lat="38.0643954" lon="12.7096807"><ele>473.0</ele><time>2026-05-06T09:21:28.564Z</time></trkpt><trkpt lat="38.0642407" lon="12.7097003"><ele>473.66666666666663</ele><time>2026-05-06T09:21:29.565Z</time></trkpt><trkpt lat="38.064084" lon="12.7097204"><ele>474.33333333333337</ele><time>2026-05-06T09:21:30.564Z</time></trkpt><trkpt lat="38.06393" lon="12.7097462"><ele>475.0</ele><time>2026-05-06T09:21:31.564Z</time></trkpt><trkpt lat="38.0637853" lon="12.7097816"><ele>475.0</ele><time>2026-05-06T09:21:32.564Z</time></trkpt><trkpt lat="38.0636551" lon="12.7098354"><ele>475.0</ele><time>2026-05-06T09:21:33.564Z</time></trkpt><trkpt lat="38.0635396" lon="12.7099124"><ele>475.0</ele><time>2026-05-06T09:21:34.563Z</time></trkpt><trkpt lat="38.0634408" lon="12.7100145"><ele>475.0</ele><time>2026-05-06T09:21:35.563Z</time></trkpt><trkpt lat="38.0633592" lon="12.7101391"><ele>475.5</ele><time>2026-05-06T09:21:36.564Z</time></trkpt><trkpt lat="38.0632939" lon="12.7102794"><ele>476.0</ele><time>2026-05-06T09:21:37.564Z</time></trkpt><trkpt lat="38.063247" lon="12.7104344"><ele>476.5</ele><time>2026-05-06T09:21:38.563Z</time></trkpt><trkpt lat="38.0632205" lon="12.7106003"><ele>477.0</ele><time>2026-05-06T09:21:39.564Z</time></trkpt><trkpt lat="38.0632112" lon="12.710773"><ele>477.0</ele><time>2026-05-06T09:21:40.564Z</time></trkpt><trkpt lat="38.063218" lon="12.7109518"><ele>477.0</ele><time>2026-05-06T09:21:41.563Z</time></trkpt><trkpt lat="38.0632344" lon="12.7111356"><ele>477.0</ele><time>2026-05-06T09:21:42.564Z</time></trkpt><trkpt lat="38.0632555" lon="12.7113231"><ele>477.0</ele><time>2026-05-06T09:21:43.565Z</time></trkpt><trkpt lat="38.0632734" lon="12.7115124"><ele>479.33333333333337</ele><time>2026-05-06T09:21:44.565Z</time></trkpt><trkpt lat="38.063293" lon="12.7117042"><ele>481.6666666666667</ele><time>2026-05-06T09:21:45.565Z</time></trkpt><trkpt lat="38.0633161" lon="12.7118961"><ele>484.0</ele><time>2026-05-06T09:21:46.562Z</time></trkpt><trkpt lat="38.0633442" lon="12.7120851"><ele>485.5</ele><time>2026-05-06T09:21:47.565Z</time></trkpt><trkpt lat="38.0633693" lon="12.7122703"><ele>487.0</ele><time>2026-05-06T09:21:48.563Z</time></trkpt><trkpt lat="38.0633839" lon="12.712451"><ele>488.5</ele><time>2026-05-06T09:21:49.564Z</time></trkpt><trkpt lat="38.0633889" lon="12.7126255"><ele>490.0</ele><time>2026-05-06T09:21:50.565Z</time></trkpt><trkpt lat="38.0633856" lon="12.7127984"><ele>492.25</ele><time>2026-05-06T09:21:51.564Z</time></trkpt><trkpt lat="38.0633793" lon="12.7129712"><ele>494.5</ele><time>2026-05-06T09:21:52.563Z</time></trkpt><trkpt lat="38.0633698" lon="12.7131382"><ele>496.75</ele><time>2026-05-06T09:21:53.564Z</time></trkpt><trkpt lat="38.0633523" lon="12.7132954"><ele>499.0</ele><time>2026-05-06T09:21:54.565Z</time></trkpt><trkpt lat="38.0633192" lon="12.7134467"><ele>501.0</ele><time>2026-05-06T09:21:55.565Z</time></trkpt><trkpt lat="38.0632683" lon="12.7135876"><ele>503.0</ele><time>2026-05-06T09:21:56.564Z</time></trkpt><trkpt lat="38.0631952" lon="12.7137124"><ele>505.0</ele><time>2026-05-06T09:21:57.564Z</time></trkpt><trkpt lat="38.0631012" lon="12.7138154"><ele>507.0</ele><time>2026-05-06T09:21:58.564Z</time></trkpt><trkpt lat="38.0629921" lon="12.7139019"><ele>507.0</ele><time>2026-05-06T09:21:59.564Z</time></trkpt><trkpt lat="38.0628724" lon="12.7139759"><ele>507.0</ele><time>2026-05-06T09:22:00.565Z</time></trkpt><trkpt lat="38.0627485" lon="12.7140438"><ele>507.0</ele><time>2026-05-06T09:22:01.563Z</time></trkpt><trkpt lat="38.0626206" lon="12.714108"><ele>507.0</ele><time>2026-05-06T09:22:02.564Z</time></trkpt><trkpt lat="38.0624886" lon="12.7141706"><ele>506.75</ele><time>2026-05-06T09:22:03.564Z</time></trkpt><trkpt lat="38.0623556" lon="12.714235"><ele>506.5</ele><time>2026-05-06T09:22:04.563Z</time></trkpt><trkpt lat="38.0622178" lon="12.7142996"><ele>506.25</ele><time>2026-05-06T09:22:05.564Z</time></trkpt><trkpt lat="38.0620808" lon="12.7143633"><ele>506.0</ele><time>2026-05-06T09:22:06.563Z</time></trkpt><trkpt lat="38.061954" lon="12.7144227"><ele>508.0</ele><time>2026-05-06T09:22:07.564Z</time></trkpt><trkpt lat="38.061834" lon="12.7144787"><ele>510.0</ele><time>2026-05-06T09:22:08.564Z</time></trkpt><trkpt lat="38.0617187" lon="12.7145337"><ele>512.0</ele><time>2026-05-06T09:22:09.563Z</time></trkpt><trkpt lat="38.0616015" lon="12.7145872"><ele>514.0</ele><time>2026-05-06T09:22:10.563Z</time></trkpt><trkpt lat="38.0614805" lon="12.7146436"><ele>514.75</ele><time>2026-05-06T09:22:11.564Z</time></trkpt><trkpt lat="38.0613531" lon="12.7147004"><ele>515.5</ele><time>2026-05-06T09:22:12.563Z</time></trkpt><trkpt lat="38.0612231" lon="12.7147585"><ele>516.25</ele><time>2026-05-06T09:22:13.564Z</time></trkpt><trkpt lat="38.0610924" lon="12.7148183"><ele>517.0</ele><time>2026-05-06T09:22:14.565Z</time></trkpt><trkpt lat="38.0609594" lon="12.7148785"><ele>517.0</ele><time>2026-05-06T09:22:15.564Z</time></trkpt><trkpt lat="38.0608244" lon="12.7149418"><ele>517.0</ele><time>2026-05-06T09:22:16.563Z</time></trkpt><trkpt lat="38.0606861" lon="12.7150038"><ele>517.0</ele><time>2026-05-06T09:22:17.564Z</time></trkpt><trkpt lat="38.0605459" lon="12.715067"><ele>517.0</ele><time>2026-05-06T09:22:18.564Z</time></trkpt><trkpt lat="38.0604055" lon="12.7151291"><ele>518.0</ele><time>2026-05-06T09:22:19.564Z</time></trkpt><trkpt lat="38.0602667" lon="12.7151901"><ele>519.0</ele><time>2026-05-06T09:22:20.565Z</time></trkpt><trkpt lat="38.0601297" lon="12.7152489"><ele>520.0</ele><time>2026-05-06T09:22:21.564Z</time></trkpt><trkpt lat="38.0599934" lon="12.7153072"><ele>521.0</ele><time>2026-05-06T09:22:22.563Z</time></trkpt><trkpt lat="38.0598584" lon="12.7153681"><ele>523.25</ele><time>2026-05-06T09:22:23.564Z</time></trkpt><trkpt lat="38.0597307" lon="12.7154409"><ele>525.5</ele><time>2026-05-06T09:22:24.564Z</time></trkpt><trkpt lat="38.0596118" lon="12.7155269"><ele>527.75</ele><time>2026-05-06T09:22:25.563Z</time></trkpt><trkpt lat="38.0595001" lon="12.715625"><ele>530.0</ele><time>2026-05-06T09:22:26.564Z</time></trkpt><trkpt lat="38.0593936" lon="12.7157292"><ele>530.0</ele><time>2026-05-06T09:22:27.563Z</time></trkpt><trkpt lat="38.0592906" lon="12.7158408"><ele>530.0</ele><time>2026-05-06T09:22:28.563Z</time></trkpt><trkpt lat="38.0591908" lon="12.7159604"><ele>530.0</ele><time>2026-05-06T09:22:29.564Z</time></trkpt><trkpt lat="38.0590944" lon="12.7160885"><ele>530.0</ele><time>2026-05-06T09:22:30.562Z</time></trkpt><trkpt lat="38.0590069" lon="12.7162239"><ele>530.0</ele><time>2026-05-06T09:22:31.564Z</time></trkpt><trkpt lat="38.0589323" lon="12.716371"><ele>530.0</ele><time>2026-05-06T09:22:32.565Z</time></trkpt><trkpt lat="38.0588735" lon="12.7165287"><ele>530.0</ele><time>2026-05-06T09:22:33.563Z</time></trkpt><trkpt lat="38.0588259" lon="12.7166953"><ele>530.0</ele><time>2026-05-06T09:22:34.564Z</time></trkpt><trkpt lat="38.0587923" lon="12.7168696"><ele>531.25</ele><time>2026-05-06T09:22:35.564Z</time></trkpt><trkpt lat="38.0587653" lon="12.7170513"><ele>532.5</ele><time>2026-05-06T09:22:36.564Z</time></trkpt><trkpt lat="38.058744" lon="12.7172369"><ele>533.75</ele><time>2026-05-06T09:22:37.565Z</time></trkpt><trkpt lat="38.0587257" lon="12.7174242"><ele>535.0</ele><time>2026-05-06T09:22:38.565Z</time></trkpt><trkpt lat="38.0587079" lon="12.7176114"><ele>535.75</ele><time>2026-05-06T09:22:39.564Z</time></trkpt><trkpt lat="38.0586899" lon="12.7177997"><ele>536.5</ele><time>2026-05-06T09:22:40.563Z</time></trkpt><trkpt lat="38.0586705" lon="12.7179869"><ele>537.25</ele><time>2026-05-06T09:22:41.564Z</time></trkpt><trkpt lat="38.0586507" lon="12.7181712"><ele>538.0</ele><time>2026-05-06T09:22:42.563Z</time></trkpt><trkpt lat="38.0586318" lon="12.7183597"><ele>538.0</ele><time>2026-05-06T09:22:43.564Z</time></trkpt><trkpt lat="38.0586104" lon="12.7185471"><ele>538.0</ele><time>2026-05-06T09:22:44.564Z</time></trkpt><trkpt lat="38.0585889" lon="12.7187366"><ele>538.0</ele><time>2026-05-06T09:22:45.564Z</time></trkpt><trkpt lat="38.0585677" lon="12.7189253"><ele>540.0</ele><time>2026-05-06T09:22:46.563Z</time></trkpt><trkpt lat="38.0585472" lon="12.7191164"><ele>542.0</ele><time>2026-05-06T09:22:47.564Z</time></trkpt><trkpt lat="38.0585255" lon="12.719308"><ele>544.0</ele><time>2026-05-06T09:22:48.563Z</time></trkpt><trkpt lat="38.0585042" lon="12.7195012"><ele>545.3333333333334</ele><time>2026-05-06T09:22:49.565Z</time></trkpt><trkpt lat="38.058484" lon="12.7196931"><ele>546.6666666666666</ele><time>2026-05-06T09:22:50.564Z</time></trkpt><trkpt lat="38.0584628" lon="12.719882"><ele>548.0</ele><time>2026-05-06T09:22:51.564Z</time></trkpt><trkpt lat="38.0584425" lon="12.7200715"><ele>549.75</ele><time>2026-05-06T09:22:52.564Z</time></trkpt><trkpt lat="38.0584224" lon="12.7202585"><ele>551.5</ele><time>2026-05-06T09:22:53.563Z</time></trkpt><trkpt lat="38.0584012" lon="12.7204394"><ele>553.25</ele><time>2026-05-06T09:22:54.565Z</time></trkpt><trkpt lat="38.058378" lon="12.7206162"><ele>555.0</ele><time>2026-05-06T09:22:55.563Z</time></trkpt><trkpt lat="38.0583542" lon="12.7207897"><ele>555.0</ele><time>2026-05-06T09:22:56.563Z</time></trkpt><trkpt lat="38.0583307" lon="12.7209566"><ele>555.0</ele><time>2026-05-06T09:22:57.565Z</time></trkpt><trkpt lat="38.0583046" lon="12.721112"><ele>555.0</ele><time>2026-05-06T09:22:58.564Z</time></trkpt><trkpt lat="38.058268" lon="12.7212592"><ele>555.0</ele><time>2026-05-06T09:22:59.565Z</time></trkpt><trkpt lat="38.058223" lon="12.7214021"><ele>556.4</ele><time>2026-05-06T09:23:00.565Z</time></trkpt><trkpt lat="38.0581737" lon="12.7215374"><ele>557.8</ele><time>2026-05-06T09:23:01.565Z</time></trkpt><trkpt lat="38.0581275" lon="12.7216572"><ele>559.2</ele><time>2026-05-06T09:23:02.564Z</time></trkpt><trkpt lat="38.0580877" lon="12.7217666"><ele>560.6</ele><time>2026-05-06T09:23:03.565Z</time></trkpt><trkpt lat="38.0580484" lon="12.7218709"><ele>562.0</ele><time>2026-05-06T09:23:04.564Z</time></trkpt><trkpt lat="38.0580099" lon="12.7219764"><ele>563.8000000000001</ele><time>2026-05-06T09:23:05.565Z</time></trkpt><trkpt lat="38.0579694" lon="12.7220877"><ele>565.6</ele><time>2026-05-06T09:23:06.565Z</time></trkpt><trkpt lat="38.0579235" lon="12.7221996"><ele>567.4000000000001</ele><time>2026-05-06T09:23:07.565Z</time></trkpt><trkpt lat="38.0578673" lon="12.7223086"><ele>569.2</ele><time>2026-05-06T09:23:08.565Z</time></trkpt><trkpt lat="38.057801" lon="12.7224095"><ele>571.0</ele><time>2026-05-06T09:23:09.565Z</time></trkpt><trkpt lat="38.0577332" lon="12.7224964"><ele>571.0</ele><time>2026-05-06T09:23:10.565Z</time></trkpt><trkpt lat="38.0576715" lon="12.7225661"><ele>571.0</ele><time>2026-05-06T09:23:11.565Z</time></trkpt><trkpt lat="38.0576194" lon="12.7226189"><ele>571.0</ele><time>2026-05-06T09:23:12.565Z</time></trkpt><trkpt lat="38.0575461" lon="12.7226799"><ele>571.0</ele><time>2026-05-06T09:23:14.564Z</time></trkpt><trkpt lat="38.0574826" lon="12.7227371"><ele>571.0</ele><time>2026-05-06T09:23:16.564Z</time></trkpt><trkpt lat="38.0574124" lon="12.7228078"><ele>571.0</ele><time>2026-05-06T09:23:18.565Z</time></trkpt><trkpt lat="38.0573335" lon="12.7228883"><ele>571.0</ele><time>2026-05-06T09:23:20.566Z</time></trkpt><trkpt lat="38.0572681" lon="12.7229631"><ele>571.0</ele><time>2026-05-06T09:23:22.565Z</time></trkpt><trkpt lat="38.0572058" lon="12.7230553"><ele>571.0</ele><time>2026-05-06T09:23:24.564Z</time></trkpt><trkpt lat="38.0571242" lon="12.7231843"><ele>571.0</ele><time>2026-05-06T09:23:26.566Z</time></trkpt><trkpt lat="38.057079" lon="12.7232656"><ele>571.0</ele><time>2026-05-06T09:23:27.565Z</time></trkpt><trkpt lat="38.057031" lon="12.7233587"><ele>571.0</ele><time>2026-05-06T09:23:28.565Z</time></trkpt><trkpt lat="38.0569811" lon="12.7234625"><ele>571.0</ele><time>2026-05-06T09:23:29.565Z</time></trkpt><trkpt lat="38.0569267" lon="12.7235789"><ele>571.0</ele><time>2026-05-06T09:23:30.565Z</time></trkpt><trkpt lat="38.0568711" lon="12.7237058"><ele>571.0</ele><time>2026-05-06T09:23:31.565Z</time></trkpt><trkpt lat="38.0568141" lon="12.723844"><ele>571.0</ele><time>2026-05-06T09:23:32.565Z</time></trkpt><trkpt lat="38.0567604" lon="12.7239895"><ele>572.0</ele><time>2026-05-06T09:23:33.565Z</time></trkpt><trkpt lat="38.0567159" lon="12.7241471"><ele>573.0</ele><time>2026-05-06T09:23:34.564Z</time></trkpt><trkpt lat="38.0566764" lon="12.7243128"><ele>574.0</ele><time>2026-05-06T09:23:35.564Z</time></trkpt><trkpt lat="38.0566386" lon="12.7244862"><ele>575.0</ele><time>2026-05-06T09:23:36.564Z</time></trkpt><trkpt lat="38.0566011" lon="12.7246637"><ele>576.25</ele><time>2026-05-06T09:23:37.566Z</time></trkpt><trkpt lat="38.0565657" lon="12.7248426"><ele>577.5</ele><time>2026-05-06T09:23:38.565Z</time></trkpt><trkpt lat="38.0565303" lon="12.7250202"><ele>578.75</ele><time>2026-05-06T09:23:39.565Z</time></trkpt><trkpt lat="38.056494" lon="12.7251984"><ele>580.0</ele><time>2026-05-06T09:23:40.565Z</time></trkpt><trkpt lat="38.0564604" lon="12.7253794"><ele>581.25</ele><time>2026-05-06T09:23:41.565Z</time></trkpt><trkpt lat="38.0564341" lon="12.7255614"><ele>582.5</ele><time>2026-05-06T09:23:42.564Z</time></trkpt><trkpt lat="38.0564169" lon="12.7257462"><ele>583.75</ele><time>2026-05-06T09:23:43.565Z</time></trkpt><trkpt lat="38.0564085" lon="12.7259315"><ele>585.0</ele><time>2026-05-06T09:23:44.565Z</time></trkpt><trkpt lat="38.05641" lon="12.7261154"><ele>585.25</ele><time>2026-05-06T09:23:45.565Z</time></trkpt><trkpt lat="38.0564203" lon="12.7262987"><ele>585.5</ele><time>2026-05-06T09:23:46.565Z</time></trkpt><trkpt lat="38.05644" lon="12.7264833"><ele>585.75</ele><time>2026-05-06T09:23:47.566Z</time></trkpt><trkpt lat="38.0564672" lon="12.7266681"><ele>586.0</ele><time>2026-05-06T09:23:48.565Z</time></trkpt><trkpt lat="38.0564992" lon="12.7268531"><ele>584.3333333333334</ele><time>2026-05-06T09:23:49.566Z</time></trkpt><trkpt lat="38.0565357" lon="12.7270397"><ele>582.6666666666666</ele><time>2026-05-06T09:23:50.566Z</time></trkpt><trkpt lat="38.0565761" lon="12.7272305"><ele>581.0</ele><time>2026-05-06T09:23:51.565Z</time></trkpt><trkpt lat="38.056614" lon="12.7274226"><ele>583.6666666666666</ele><time>2026-05-06T09:23:52.564Z</time></trkpt><trkpt lat="38.056652" lon="12.7276175"><ele>586.3333333333334</ele><time>2026-05-06T09:23:53.566Z</time></trkpt><trkpt lat="38.0566932" lon="12.7278142"><ele>589.0</ele><time>2026-05-06T09:23:54.567Z</time></trkpt><trkpt lat="38.0567325" lon="12.7280113"><ele>591.0</ele><time>2026-05-06T09:23:55.565Z</time></trkpt><trkpt lat="38.0567709" lon="12.728211"><ele>593.0</ele><time>2026-05-06T09:23:56.565Z</time></trkpt><trkpt lat="38.0567981" lon="12.7284139"><ele>595.0</ele><time>2026-05-06T09:23:57.565Z</time></trkpt><trkpt lat="38.0568019" lon="12.7286187"><ele>597.0</ele><time>2026-05-06T09:23:58.565Z</time></trkpt><trkpt lat="38.0567751" lon="12.728814"><ele>599.0</ele><time>2026-05-06T09:23:59.568Z</time></trkpt><trkpt lat="38.056719" lon="12.7289878"><ele>601.0</ele><time>2026-05-06T09:24:00.565Z</time></trkpt><trkpt lat="38.0566377" lon="12.7291402"><ele>603.0</ele><time>2026-05-06T09:24:01.566Z</time></trkpt><trkpt lat="38.0565344" lon="12.7292767"><ele>601.0</ele><time>2026-05-06T09:24:02.565Z</time></trkpt><trkpt lat="38.0564164" lon="12.7294057"><ele>599.0</ele><time>2026-05-06T09:24:03.565Z</time></trkpt><trkpt lat="38.0562944" lon="12.7295359"><ele>597.0</ele><time>2026-05-06T09:24:04.565Z</time></trkpt><trkpt lat="38.0561743" lon="12.7296767"><ele>597.0</ele><time>2026-05-06T09:24:05.564Z</time></trkpt><trkpt lat="38.0560636" lon="12.7298315"><ele>597.0</ele><time>2026-05-06T09:24:06.565Z</time></trkpt><trkpt lat="38.0559611" lon="12.7299953"><ele>597.0</ele><time>2026-05-06T09:24:07.564Z</time></trkpt><trkpt lat="38.0558645" lon="12.7301684"><ele>593.3333333333334</ele><time>2026-05-06T09:24:08.566Z</time></trkpt><trkpt lat="38.0557716" lon="12.7303484"><ele>589.6666666666667</ele><time>2026-05-06T09:24:09.565Z</time></trkpt><trkpt lat="38.0556802" lon="12.7305295"><ele>586.0</ele><time>2026-05-06T09:24:10.565Z</time></trkpt><trkpt lat="38.0555902" lon="12.7307105"><ele>586.0</ele><time>2026-05-06T09:24:11.565Z</time></trkpt><trkpt lat="38.0555033" lon="12.7308923"><ele>586.0</ele><time>2026-05-06T09:24:12.565Z</time></trkpt><trkpt lat="38.0554225" lon="12.7310741"><ele>586.0</ele><time>2026-05-06T09:24:13.565Z</time></trkpt><trkpt lat="38.0553523" lon="12.7312598"><ele>589.0</ele><time>2026-05-06T09:24:14.566Z</time></trkpt><trkpt lat="38.0552961" lon="12.7314522"><ele>592.0</ele><time>2026-05-06T09:24:15.565Z</time></trkpt><trkpt lat="38.0552523" lon="12.7316488"><ele>595.0</ele><time>2026-05-06T09:24:16.565Z</time></trkpt><trkpt lat="38.0552212" lon="12.7318462"><ele>596.75</ele><time>2026-05-06T09:24:17.564Z</time></trkpt><trkpt lat="38.0552043" lon="12.7320434"><ele>598.5</ele><time>2026-05-06T09:24:18.565Z</time></trkpt><trkpt lat="38.0552002" lon="12.7322335"><ele>600.25</ele><time>2026-05-06T09:24:19.565Z</time></trkpt><trkpt lat="38.05521" lon="12.7324096"><ele>602.0</ele><time>2026-05-06T09:24:20.565Z</time></trkpt><trkpt lat="38.0552334" lon="12.7325742"><ele>603.25</ele><time>2026-05-06T09:24:21.564Z</time></trkpt><trkpt lat="38.0552718" lon="12.7327306"><ele>604.5</ele><time>2026-05-06T09:24:22.564Z</time></trkpt><trkpt lat="38.0553253" lon="12.7328843"><ele>605.75</ele><time>2026-05-06T09:24:23.565Z</time></trkpt><trkpt lat="38.0553949" lon="12.7330299"><ele>607.0</ele><time>2026-05-06T09:24:24.565Z</time></trkpt><trkpt lat="38.0554786" lon="12.7331653"><ele>607.0</ele><time>2026-05-06T09:24:25.565Z</time></trkpt><trkpt lat="38.0555743" lon="12.7332914"><ele>607.0</ele><time>2026-05-06T09:24:26.565Z</time></trkpt><trkpt lat="38.0556797" lon="12.7334105"><ele>607.0</ele><time>2026-05-06T09:24:27.565Z</time></trkpt><trkpt lat="38.0557917" lon="12.7335185"><ele>607.0</ele><time>2026-05-06T09:24:28.564Z</time></trkpt><trkpt lat="38.0559112" lon="12.7336203"><ele>608.75</ele><time>2026-05-06T09:24:29.565Z</time></trkpt><trkpt lat="38.0560363" lon="12.7337152"><ele>610.5</ele><time>2026-05-06T09:24:30.564Z</time></trkpt><trkpt lat="38.0561697" lon="12.7337938"><ele>612.25</ele><time>2026-05-06T09:24:31.565Z</time></trkpt><trkpt lat="38.0563084" lon="12.7338518"><ele>614.0</ele><time>2026-05-06T09:24:32.564Z</time></trkpt><trkpt lat="38.0564544" lon="12.7338852"><ele>614.0</ele><time>2026-05-06T09:24:33.565Z</time></trkpt><trkpt lat="38.0566024" lon="12.7338938"><ele>614.0</ele><time>2026-05-06T09:24:34.565Z</time></trkpt><trkpt lat="38.0567523" lon="12.7338822"><ele>614.0</ele><time>2026-05-06T09:24:35.565Z</time></trkpt><trkpt lat="38.056901" lon="12.7338561"><ele>614.0</ele><time>2026-05-06T09:24:36.564Z</time></trkpt><trkpt lat="38.0570496" lon="12.7338133"><ele>617.6666666666666</ele><time>2026-05-06T09:24:37.565Z</time></trkpt><trkpt lat="38.0572005" lon="12.7337658"><ele>621.3333333333334</ele><time>2026-05-06T09:24:38.565Z</time></trkpt><trkpt lat="38.0573511" lon="12.7337216"><ele>625.0</ele><time>2026-05-06T09:24:39.564Z</time></trkpt><trkpt lat="38.0575026" lon="12.7336759"><ele>626.6666666666667</ele><time>2026-05-06T09:24:40.565Z</time></trkpt><trkpt lat="38.0576545" lon="12.7336306"><ele>628.3333333333334</ele><time>2026-05-06T09:24:41.566Z</time></trkpt><trkpt lat="38.0578064" lon="12.7335875"><ele>630.0</ele><time>2026-05-06T09:24:42.565Z</time></trkpt><trkpt lat="38.0579553" lon="12.7335435"><ele>630.0</ele><time>2026-05-06T09:24:43.565Z</time></trkpt><trkpt lat="38.0580947" lon="12.7335042"><ele>630.0</ele><time>2026-05-06T09:24:44.566Z</time></trkpt><trkpt lat="38.0582247" lon="12.7334717"><ele>630.0</ele><time>2026-05-06T09:24:45.564Z</time></trkpt><trkpt lat="38.0583491" lon="12.7334523"><ele>630.0</ele><time>2026-05-06T09:24:46.565Z</time></trkpt><trkpt lat="38.0584709" lon="12.7334512"><ele>630.75</ele><time>2026-05-06T09:24:47.565Z</time></trkpt><trkpt lat="38.0585897" lon="12.7334772"><ele>631.5</ele><time>2026-05-06T09:24:48.566Z</time></trkpt><trkpt lat="38.0587057" lon="12.7335241"><ele>632.25</ele><time>2026-05-06T09:24:49.564Z</time></trkpt><trkpt lat="38.0588145" lon="12.7335885"><ele>633.0</ele><time>2026-05-06T09:24:50.565Z</time></trkpt><trkpt lat="38.0589129" lon="12.7336701"><ele>634.25</ele><time>2026-05-06T09:24:51.565Z</time></trkpt><trkpt lat="38.0589999" lon="12.7337689"><ele>635.5</ele><time>2026-05-06T09:24:52.565Z</time></trkpt><trkpt lat="38.0590754" lon="12.7338815"><ele>636.75</ele><time>2026-05-06T09:24:53.566Z</time></trkpt><trkpt lat="38.0591346" lon="12.7340018"><ele>638.0</ele><time>2026-05-06T09:24:54.565Z</time></trkpt><trkpt lat="38.0591818" lon="12.7341317"><ele>639.0</ele><time>2026-05-06T09:24:55.565Z</time></trkpt><trkpt lat="38.0592267" lon="12.7342678"><ele>640.0</ele><time>2026-05-06T09:24:56.566Z</time></trkpt><trkpt lat="38.0592703" lon="12.7344086"><ele>641.0</ele><time>2026-05-06T09:24:57.564Z</time></trkpt><trkpt lat="38.0593165" lon="12.7345564"><ele>642.0</ele><time>2026-05-06T09:24:58.565Z</time></trkpt><trkpt lat="38.0593665" lon="12.7347071"><ele>643.0</ele><time>2026-05-06T09:24:59.565Z</time></trkpt><trkpt lat="38.0594167" lon="12.7348591"><ele>644.0</ele><time>2026-05-06T09:25:00.565Z</time></trkpt><trkpt lat="38.0594627" lon="12.7350075"><ele>645.0</ele><time>2026-05-06T09:25:01.565Z</time></trkpt><trkpt lat="38.0595045" lon="12.7351421"><ele>646.0</ele><time>2026-05-06T09:25:02.565Z</time></trkpt><trkpt lat="38.059544" lon="12.735266"><ele>647.0</ele><time>2026-05-06T09:25:03.564Z</time></trkpt><trkpt lat="38.0595867" lon="12.7353862"><ele>648.0</ele><time>2026-05-06T09:25:04.566Z</time></trkpt><trkpt lat="38.0596303" lon="12.7355056"><ele>649.0</ele><time>2026-05-06T09:25:05.565Z</time></trkpt><trkpt lat="38.0596778" lon="12.7356265"><ele>650.0</ele><time>2026-05-06T09:25:06.564Z</time></trkpt><trkpt lat="38.0597323" lon="12.7357468"><ele>651.0</ele><time>2026-05-06T09:25:07.566Z</time></trkpt><trkpt lat="38.059797" lon="12.7358635"><ele>651.0</ele><time>2026-05-06T09:25:08.566Z</time></trkpt><trkpt lat="38.0598662" lon="12.7359781"><ele>651.0</ele><time>2026-05-06T09:25:09.564Z</time></trkpt><trkpt lat="38.0599351" lon="12.7360875"><ele>651.0</ele><time>2026-05-06T09:25:10.565Z</time></trkpt><trkpt lat="38.0600008" lon="12.7361865"><ele>651.0</ele><time>2026-05-06T09:25:11.566Z</time></trkpt><trkpt lat="38.060064" lon="12.7362751"><ele>651.0</ele><time>2026-05-06T09:25:12.565Z</time></trkpt><trkpt lat="38.0601258" lon="12.7363595"><ele>652.3333333333334</ele><time>2026-05-06T09:25:13.568Z</time></trkpt><trkpt lat="38.0601884" lon="12.7364391"><ele>653.6666666666666</ele><time>2026-05-06T09:25:14.566Z</time></trkpt><trkpt lat="38.0602478" lon="12.736518"><ele>655.0</ele><time>2026-05-06T09:25:15.564Z</time></trkpt><trkpt lat="38.060296" lon="12.7366036"><ele>656.3333333333333</ele><time>2026-05-06T09:25:16.565Z</time></trkpt><trkpt lat="38.0603446" lon="12.7366965"><ele>657.6666666666666</ele><time>2026-05-06T09:25:17.565Z</time></trkpt><trkpt lat="38.0603998" lon="12.7367861"><ele>659.0</ele><time>2026-05-06T09:25:18.565Z</time></trkpt><trkpt lat="38.060462" lon="12.7368589"><ele>660.1666666666666</ele><time>2026-05-06T09:25:19.565Z</time></trkpt><trkpt lat="38.0605299" lon="12.7369257"><ele>661.3333333333333</ele><time>2026-05-06T09:25:20.565Z</time></trkpt><trkpt lat="38.0605932" lon="12.7369978"><ele>662.5</ele><time>2026-05-06T09:25:21.564Z</time></trkpt><trkpt lat="38.0606509" lon="12.7370739"><ele>663.6666666666666</ele><time>2026-05-06T09:25:22.565Z</time></trkpt><trkpt lat="38.0607048" lon="12.7371515"><ele>664.8333333333334</ele><time>2026-05-06T09:25:23.565Z</time></trkpt><trkpt lat="38.0607636" lon="12.7372274"><ele>666.0</ele><time>2026-05-06T09:25:24.566Z</time></trkpt><trkpt lat="38.060822" lon="12.7373079"><ele>666.0</ele><time>2026-05-06T09:25:25.564Z</time></trkpt><trkpt lat="38.0608716" lon="12.7373968"><ele>666.0</ele><time>2026-05-06T09:25:26.564Z</time></trkpt><trkpt lat="38.0609107" lon="12.7374958"><ele>666.0</ele><time>2026-05-06T09:25:27.569Z</time></trkpt><trkpt lat="38.0609484" lon="12.7375951"><ele>666.0</ele><time>2026-05-06T09:25:28.565Z</time></trkpt><trkpt lat="38.0609974" lon="12.7376897"><ele>666.0</ele><time>2026-05-06T09:25:29.566Z</time></trkpt><trkpt lat="38.0610524" lon="12.7377801"><ele>666.0</ele><time>2026-05-06T09:25:30.564Z</time></trkpt><trkpt lat="38.0611068" lon="12.7378717"><ele>667.1666666666666</ele><time>2026-05-06T09:25:31.563Z</time></trkpt><trkpt lat="38.0611589" lon="12.7379678"><ele>668.3333333333334</ele><time>2026-05-06T09:25:32.564Z</time></trkpt><trkpt lat="38.0611955" lon="12.7380634"><ele>669.5</ele><time>2026-05-06T09:25:33.564Z</time></trkpt><trkpt lat="38.0612124" lon="12.7381611"><ele>670.6666666666667</ele><time>2026-05-06T09:25:34.565Z</time></trkpt><trkpt lat="38.0611978" lon="12.7382643"><ele>671.8333333333334</ele><time>2026-05-06T09:25:35.565Z</time></trkpt><trkpt lat="38.0611583" lon="12.7383949"><ele>673.0</ele><time>2026-05-06T09:25:36.564Z</time></trkpt><trkpt lat="38.0611282" lon="12.7385347"><ele>674.5999999999999</ele><time>2026-05-06T09:25:37.565Z</time></trkpt><trkpt lat="38.0611181" lon="12.7386691"><ele>676.1999999999999</ele><time>2026-05-06T09:25:38.565Z</time></trkpt><trkpt lat="38.0611372" lon="12.7388022"><ele>677.8</ele><time>2026-05-06T09:25:39.564Z</time></trkpt><trkpt lat="38.0611699" lon="12.7389424"><ele>679.4</ele><time>2026-05-06T09:25:40.564Z</time></trkpt><trkpt lat="38.0612075" lon="12.7390848"><ele>681.0</ele><time>2026-05-06T09:25:41.565Z</time></trkpt><trkpt lat="38.0612481" lon="12.7392213"><ele>681.0</ele><time>2026-05-06T09:25:42.563Z</time></trkpt><trkpt lat="38.0612913" lon="12.7393436"><ele>681.0</ele><time>2026-05-06T09:25:43.565Z</time></trkpt><trkpt lat="38.0613238" lon="12.7394517"><ele>681.0</ele><time>2026-05-06T09:25:44.566Z</time></trkpt><trkpt lat="38.0613405" lon="12.7395484"><ele>681.0</ele><time>2026-05-06T09:25:45.565Z</time></trkpt><trkpt lat="38.0613425" lon="12.739644"><ele>681.0</ele><time>2026-05-06T09:25:46.565Z</time></trkpt><trkpt lat="38.0613316" lon="12.739738"><ele>681.0</ele><time>2026-05-06T09:25:47.565Z</time></trkpt><trkpt lat="38.0613183" lon="12.7398323"><ele>682.6666666666666</ele><time>2026-05-06T09:25:48.565Z</time></trkpt><trkpt lat="38.0613042" lon="12.7399283"><ele>684.3333333333334</ele><time>2026-05-06T09:25:49.565Z</time></trkpt><trkpt lat="38.0612886" lon="12.7400245"><ele>686.0</ele><time>2026-05-06T09:25:50.566Z</time></trkpt><trkpt lat="38.0612713" lon="12.7401221"><ele>687.6666666666667</ele><time>2026-05-06T09:25:51.564Z</time></trkpt><trkpt lat="38.0612532" lon="12.7402242"><ele>689.3333333333334</ele><time>2026-05-06T09:25:52.564Z</time></trkpt><trkpt lat="38.0612416" lon="12.7403292"><ele>691.0</ele><time>2026-05-06T09:25:53.564Z</time></trkpt><trkpt lat="38.0612325" lon="12.7404291"><ele>692.5</ele><time>2026-05-06T09:25:54.564Z</time></trkpt><trkpt lat="38.0612201" lon="12.7405271"><ele>694.0</ele><time>2026-05-06T09:25:55.565Z</time></trkpt><trkpt lat="38.061207" lon="12.7406262"><ele>695.5</ele><time>2026-05-06T09:25:56.564Z</time></trkpt><trkpt lat="38.0612019" lon="12.7407272"><ele>697.0</ele><time>2026-05-06T09:25:57.564Z</time></trkpt><trkpt lat="38.0612112" lon="12.7408253"><ele>698.5</ele><time>2026-05-06T09:25:58.564Z</time></trkpt><trkpt lat="38.0612531" lon="12.740911"><ele>700.0</ele><time>2026-05-06T09:25:59.565Z</time></trkpt><trkpt lat="38.0613176" lon="12.7409953"><ele>700.4</ele><time>2026-05-06T09:26:00.564Z</time></trkpt><trkpt lat="38.0613862" lon="12.7410788"><ele>700.8</ele><time>2026-05-06T09:26:01.564Z</time></trkpt><trkpt lat="38.0614598" lon="12.7411448"><ele>701.2</ele><time>2026-05-06T09:26:02.564Z</time></trkpt><trkpt lat="38.061546" lon="12.7411998"><ele>701.6</ele><time>2026-05-06T09:26:03.564Z</time></trkpt><trkpt lat="38.0616261" lon="12.7412619"><ele>702.0</ele><time>2026-05-06T09:26:04.564Z</time></trkpt><trkpt lat="38.0616819" lon="12.7413582"><ele>702.0</ele><time>2026-05-06T09:26:05.565Z</time></trkpt><trkpt lat="38.0617322" lon="12.7414819"><ele>702.0</ele><time>2026-05-06T09:26:06.564Z</time></trkpt><trkpt lat="38.0617947" lon="12.741618"><ele>702.0</ele><time>2026-05-06T09:26:07.564Z</time></trkpt><trkpt lat="38.0618738" lon="12.7417514"><ele>702.0</ele><time>2026-05-06T09:26:08.565Z</time></trkpt><trkpt lat="38.0619646" lon="12.7418769"><ele>703.0</ele><time>2026-05-06T09:26:09.564Z</time></trkpt><trkpt lat="38.0620635" lon="12.7419929"><ele>704.0</ele><time>2026-05-06T09:26:10.564Z</time></trkpt><trkpt lat="38.0621566" lon="12.7421087"><ele>705.0</ele><time>2026-05-06T09:26:11.565Z</time></trkpt><trkpt lat="38.0622291" lon="12.7422391"><ele>706.0</ele><time>2026-05-06T09:26:12.564Z</time></trkpt><trkpt lat="38.0622756" lon="12.7423935"><ele>706.0</ele><time>2026-05-06T09:26:13.563Z</time></trkpt><trkpt lat="38.0623076" lon="12.7425736"><ele>706.0</ele><time>2026-05-06T09:26:14.564Z</time></trkpt><trkpt lat="38.062356" lon="12.7427552"><ele>706.0</ele><time>2026-05-06T09:26:15.565Z</time></trkpt><trkpt lat="38.0624316" lon="12.7429463"><ele>704.0</ele><time>2026-05-06T09:26:16.565Z</time></trkpt><trkpt lat="38.0625157" lon="12.7431496"><ele>702.0</ele><time>2026-05-06T09:26:17.565Z</time></trkpt><trkpt lat="38.0625831" lon="12.7433531"><ele>700.0</ele><time>2026-05-06T09:26:18.565Z</time></trkpt><trkpt lat="38.0626236" lon="12.7435358"><ele>701.0</ele><time>2026-05-06T09:26:19.565Z</time></trkpt><trkpt lat="38.062643" lon="12.7437111"><ele>702.0</ele><time>2026-05-06T09:26:20.565Z</time></trkpt><trkpt lat="38.0626622" lon="12.7438989"><ele>703.0</ele><time>2026-05-06T09:26:21.565Z</time></trkpt><trkpt lat="38.0626973" lon="12.7441004"><ele>703.0</ele><time>2026-05-06T09:26:22.564Z</time></trkpt><trkpt lat="38.0627424" lon="12.7442967"><ele>703.0</ele><time>2026-05-06T09:26:23.565Z</time></trkpt><trkpt lat="38.0627826" lon="12.7444419"><ele>703.0</ele><time>2026-05-06T09:26:24.565Z</time></trkpt><trkpt lat="38.0628221" lon="12.7445421"><ele>703.0</ele><time>2026-05-06T09:26:25.565Z</time></trkpt><trkpt lat="38.0628639" lon="12.7446215"><ele>703.0</ele><time>2026-05-06T09:26:26.565Z</time></trkpt><trkpt lat="38.0629042" lon="12.7446909"><ele>703.8</ele><time>2026-05-06T09:26:27.564Z</time></trkpt><trkpt lat="38.0629648" lon="12.7448136"><ele>704.5999999999999</ele><time>2026-05-06T09:26:29.565Z</time></trkpt><trkpt lat="38.0630204" lon="12.7449175"><ele>705.4000000000001</ele><time>2026-05-06T09:26:31.566Z</time></trkpt><trkpt lat="38.0630741" lon="12.7450092"><ele>706.2</ele><time>2026-05-06T09:26:33.565Z</time></trkpt><trkpt lat="38.063125" lon="12.745081"><ele>707.0</ele><time>2026-05-06T09:26:35.564Z</time></trkpt><trkpt lat="38.0631729" lon="12.7451561"><ele>708.0</ele><time>2026-05-06T09:26:37.567Z</time></trkpt><trkpt lat="38.0632104" lon="12.7452445"><ele>709.0</ele><time>2026-05-06T09:26:39.566Z</time></trkpt><trkpt lat="38.0632517" lon="12.745325"><ele>710.0</ele><time>2026-05-06T09:26:41.565Z</time></trkpt><trkpt lat="38.0632933" lon="12.7454117"><ele>711.0</ele><time>2026-05-06T09:26:43.565Z</time></trkpt><trkpt lat="38.0633267" lon="12.7455233"><ele>712.0</ele><time>2026-05-06T09:26:45.564Z</time></trkpt><trkpt lat="38.0633733" lon="12.74564"><ele>713.0</ele><time>2026-05-06T09:26:47.563Z</time></trkpt><trkpt lat="38.0634183" lon="12.7457583"><ele>710.3333333333333</ele><time>2026-05-06T09:26:49.565Z</time></trkpt><trkpt lat="38.0634667" lon="12.7458983"><ele>707.6666666666666</ele><time>2026-05-06T09:26:51.564Z</time></trkpt><trkpt lat="38.0634967" lon="12.7459817"><ele>705.0</ele><time>2026-05-06T09:26:52.565Z</time></trkpt><trkpt lat="38.0635283" lon="12.7460667"><ele>702.3333333333334</ele><time>2026-05-06T09:26:53.567Z</time></trkpt><trkpt lat="38.0635567" lon="12.7461583"><ele>699.6666666666667</ele><time>2026-05-06T09:26:54.565Z</time></trkpt><trkpt lat="38.0635783" lon="12.7462567"><ele>697.0</ele><time>2026-05-06T09:26:55.565Z</time></trkpt><trkpt lat="38.0636017" lon="12.746365"><ele>696.4000000000001</ele><time>2026-05-06T09:26:56.565Z</time></trkpt><trkpt lat="38.063625" lon="12.746475"><ele>695.8000000000001</ele><time>2026-05-06T09:26:57.565Z</time></trkpt><trkpt lat="38.06364" lon="12.7465883"><ele>695.2</ele><time>2026-05-06T09:26:58.565Z</time></trkpt><trkpt lat="38.0636583" lon="12.746705"><ele>694.6</ele><time>2026-05-06T09:26:59.565Z</time></trkpt><trkpt lat="38.0636917" lon="12.746815"><ele>694.0</ele><time>2026-05-06T09:27:00.564Z</time></trkpt><trkpt lat="38.063735" lon="12.7469117"><ele>694.0</ele><time>2026-05-06T09:27:01.565Z</time></trkpt><trkpt lat="38.06378" lon="12.7470017"><ele>694.0</ele><time>2026-05-06T09:27:02.565Z</time></trkpt><trkpt lat="38.0638233" lon="12.747095"><ele>694.0</ele><time>2026-05-06T09:27:03.564Z</time></trkpt><trkpt lat="38.0638617" lon="12.7471883"><ele>694.0</ele><time>2026-05-06T09:27:04.564Z</time></trkpt><trkpt lat="38.0638983" lon="12.747275"><ele>694.0</ele><time>2026-05-06T09:27:05.565Z</time></trkpt><trkpt lat="38.0639283" lon="12.7473533"><ele>694.0</ele><time>2026-05-06T09:27:06.564Z</time></trkpt><trkpt lat="38.06396" lon="12.747515"><ele>694.0</ele><time>2026-05-06T09:27:08.565Z</time></trkpt><trkpt lat="38.063965" lon="12.7476083"><ele>694.0</ele><time>2026-05-06T09:27:09.565Z</time></trkpt><trkpt lat="38.063965" lon="12.7477117"><ele>694.0</ele><time>2026-05-06T09:27:10.565Z</time></trkpt><trkpt lat="38.0639683" lon="12.747825"><ele>694.0</ele><time>2026-05-06T09:27:11.57Z</time></trkpt><trkpt lat="38.063975" lon="12.7479483"><ele>694.0</ele><time>2026-05-06T09:27:12.565Z</time></trkpt><trkpt lat="38.0639783" lon="12.74808"><ele>694.0</ele><time>2026-05-06T09:27:13.565Z</time></trkpt><trkpt lat="38.06398" lon="12.7482083"><ele>694.5</ele><time>2026-05-06T09:27:14.565Z</time></trkpt><trkpt lat="38.0639867" lon="12.7483183"><ele>695.0</ele><time>2026-05-06T09:27:15.564Z</time></trkpt><trkpt lat="38.0640017" lon="12.7484067"><ele>695.5</ele><time>2026-05-06T09:27:16.565Z</time></trkpt><trkpt lat="38.0640283" lon="12.748485"><ele>696.0</ele><time>2026-05-06T09:27:17.563Z</time></trkpt><trkpt lat="38.064085" lon="12.748555"><ele>696.5</ele><time>2026-05-06T09:27:18.564Z</time></trkpt><trkpt lat="38.064175" lon="12.748625"><ele>697.0</ele><time>2026-05-06T09:27:19.565Z</time></trkpt><trkpt lat="38.0642567" lon="12.7487067"><ele>695.0</ele><time>2026-05-06T09:27:20.565Z</time></trkpt><trkpt lat="38.0643333" lon="12.74881"><ele>693.0</ele><time>2026-05-06T09:27:21.565Z</time></trkpt><trkpt lat="38.064405" lon="12.7489267"><ele>691.0</ele><time>2026-05-06T09:27:22.564Z</time></trkpt><trkpt lat="38.0644633" lon="12.74905"><ele>689.0</ele><time>2026-05-06T09:27:23.565Z</time></trkpt><trkpt lat="38.0645083" lon="12.7491867"><ele>689.0</ele><time>2026-05-06T09:27:24.565Z</time></trkpt><trkpt lat="38.0645483" lon="12.749335"><ele>689.0</ele><time>2026-05-06T09:27:25.566Z</time></trkpt><trkpt lat="38.0645867" lon="12.74949"><ele>689.0</ele><time>2026-05-06T09:27:26.565Z</time></trkpt><trkpt lat="38.06462" lon="12.74965"><ele>689.0</ele><time>2026-05-06T09:27:27.564Z</time></trkpt><trkpt lat="38.0646417" lon="12.7498"><ele>690.0</ele><time>2026-05-06T09:27:28.565Z</time></trkpt><trkpt lat="38.0646483" lon="12.7499217"><ele>691.0</ele><time>2026-05-06T09:27:29.564Z</time></trkpt><trkpt lat="38.0646417" lon="12.7500267"><ele>692.0</ele><time>2026-05-06T09:27:30.565Z</time></trkpt><trkpt lat="38.0646083" lon="12.7501183"><ele>693.0</ele><time>2026-05-06T09:27:31.564Z</time></trkpt><trkpt lat="38.0645417" lon="12.75021"><ele>694.0</ele><time>2026-05-06T09:27:32.564Z</time></trkpt><trkpt lat="38.0644717" lon="12.7503167"><ele>694.4000000000001</ele><time>2026-05-06T09:27:33.564Z</time></trkpt><trkpt lat="38.0644117" lon="12.7504383"><ele>694.8</ele><time>2026-05-06T09:27:34.565Z</time></trkpt><trkpt lat="38.0643667" lon="12.7505567"><ele>695.2</ele><time>2026-05-06T09:27:35.564Z</time></trkpt><trkpt lat="38.06433" lon="12.750645"><ele>695.5999999999999</ele><time>2026-05-06T09:27:36.565Z</time></trkpt><trkpt lat="38.0642433" lon="12.7506917"><ele>696.0</ele><time>2026-05-06T09:27:38.566Z</time></trkpt><trkpt lat="38.064185" lon="12.7506267"><ele>696.0</ele><time>2026-05-06T09:27:39.564Z</time></trkpt><trkpt lat="38.0641217" lon="12.750545"><ele>696.0</ele><time>2026-05-06T09:27:40.563Z</time></trkpt><trkpt lat="38.0640517" lon="12.7504683"><ele>696.0</ele><time>2026-05-06T09:27:41.566Z</time></trkpt><trkpt lat="38.06398" lon="12.7504083"><ele>696.0</ele><time>2026-05-06T09:27:42.564Z</time></trkpt><trkpt lat="38.06387" lon="12.7504367"><ele>696.0</ele><time>2026-05-06T09:27:44.565Z</time></trkpt><trkpt lat="38.0638283" lon="12.7505267"><ele>699.5999999999999</ele><time>2026-05-06T09:27:45.565Z</time></trkpt><trkpt lat="38.063795" lon="12.7506333"><ele>703.2</ele><time>2026-05-06T09:27:46.564Z</time></trkpt><trkpt lat="38.0637767" lon="12.750775"><ele>706.8</ele><time>2026-05-06T09:27:47.565Z</time></trkpt><trkpt lat="38.0637667" lon="12.750905"><ele>710.4000000000001</ele><time>2026-05-06T09:27:48.563Z</time></trkpt><trkpt lat="38.063755" lon="12.7510133"><ele>714.0</ele><time>2026-05-06T09:27:49.567Z</time></trkpt><trkpt lat="38.063705" lon="12.7510883"><ele>714.0</ele><time>2026-05-06T09:27:51.568Z</time></trkpt><trkpt lat="38.0636033" lon="12.7510167"><ele>714.0</ele><time>2026-05-06T09:27:53.567Z</time></trkpt><trkpt lat="38.06353" lon="12.750945"><ele>714.0</ele><time>2026-05-06T09:27:54.566Z</time></trkpt><trkpt lat="38.063465" lon="12.7508717"><ele>714.0</ele><time>2026-05-06T09:27:55.567Z</time></trkpt><trkpt lat="38.0634183" lon="12.750795"><ele>714.0</ele><time>2026-05-06T09:27:56.567Z</time></trkpt><trkpt lat="38.0633867" lon="12.7507117"><ele>714.0</ele><time>2026-05-06T09:27:57.566Z</time></trkpt><trkpt lat="38.0633633" lon="12.7506233"><ele>714.0</ele><time>2026-05-06T09:27:58.566Z</time></trkpt><trkpt lat="38.0633367" lon="12.7505333"><ele>714.0</ele><time>2026-05-06T09:27:59.564Z</time></trkpt><trkpt lat="38.0633" lon="12.75045"><ele>714.0</ele><time>2026-05-06T09:28:00.565Z</time></trkpt><trkpt lat="38.06325" lon="12.7503633"><ele>714.0</ele><time>2026-05-06T09:28:01.564Z</time></trkpt><trkpt lat="38.0632033" lon="12.750265"><ele>714.0</ele><time>2026-05-06T09:28:02.564Z</time></trkpt><trkpt lat="38.0631617" lon="12.7501583"><ele>714.0</ele><time>2026-05-06T09:28:03.567Z</time></trkpt><trkpt lat="38.0631183" lon="12.75006"><ele>715.1428571428571</ele><time>2026-05-06T09:28:04.565Z</time></trkpt><trkpt lat="38.0630717" lon="12.7499817"><ele>716.2857142857142</ele><time>2026-05-06T09:28:05.565Z</time></trkpt><trkpt lat="38.0630183" lon="12.7499167"><ele>717.4285714285714</ele><time>2026-05-06T09:28:06.564Z</time></trkpt><trkpt lat="38.0629567" lon="12.7498617"><ele>718.5714285714286</ele><time>2026-05-06T09:28:07.564Z</time></trkpt><trkpt lat="38.0628917" lon="12.74982"><ele>719.7142857142857</ele><time>2026-05-06T09:28:08.565Z</time></trkpt><trkpt lat="38.0628233" lon="12.74979"><ele>720.8571428571429</ele><time>2026-05-06T09:28:09.564Z</time></trkpt><trkpt lat="38.0627583" lon="12.7497683"><ele>722.0</ele><time>2026-05-06T09:28:10.564Z</time></trkpt><trkpt lat="38.0626633" lon="12.7496983"><ele>722.0</ele><time>2026-05-06T09:28:12.565Z</time></trkpt><trkpt lat="38.0626017" lon="12.749555"><ele>722.0</ele><time>2026-05-06T09:28:14.566Z</time></trkpt><trkpt lat="38.0625767" lon="12.7494633"><ele>722.0</ele><time>2026-05-06T09:28:15.565Z</time></trkpt><trkpt lat="38.062555" lon="12.7493633"><ele>722.0</ele><time>2026-05-06T09:28:16.564Z</time></trkpt><trkpt lat="38.06253" lon="12.74926"><ele>722.0</ele><time>2026-05-06T09:28:17.565Z</time></trkpt><trkpt lat="38.0624933" lon="12.7491483"><ele>722.8333333333333</ele><time>2026-05-06T09:28:18.564Z</time></trkpt><trkpt lat="38.0624517" lon="12.74904"><ele>723.6666666666666</ele><time>2026-05-06T09:28:19.565Z</time></trkpt><trkpt lat="38.0624117" lon="12.7489383"><ele>724.5</ele><time>2026-05-06T09:28:20.565Z</time></trkpt><trkpt lat="38.062375" lon="12.7488483"><ele>725.3333333333334</ele><time>2026-05-06T09:28:21.565Z</time></trkpt><trkpt lat="38.0623333" lon="12.7487783"><ele>726.1666666666667</ele><time>2026-05-06T09:28:22.564Z</time></trkpt><trkpt lat="38.0622533" lon="12.7487267"><ele>727.0</ele><time>2026-05-06T09:28:24.565Z</time></trkpt><trkpt lat="38.0621817" lon="12.74881"><ele>727.0</ele><time>2026-05-06T09:28:26.566Z</time></trkpt><trkpt lat="38.0621817" lon="12.7488983"><ele>727.0</ele><time>2026-05-06T09:28:27.564Z</time></trkpt><trkpt lat="38.0622033" lon="12.7490133"><ele>727.0</ele><time>2026-05-06T09:28:28.565Z</time></trkpt><trkpt lat="38.06224" lon="12.7491483"><ele>727.0</ele><time>2026-05-06T09:28:29.565Z</time></trkpt><trkpt lat="38.062275" lon="12.7492883"><ele>727.0</ele><time>2026-05-06T09:28:30.564Z</time></trkpt><trkpt lat="38.062305" lon="12.7494133"><ele>726.1666666666667</ele><time>2026-05-06T09:28:31.565Z</time></trkpt><trkpt lat="38.0623317" lon="12.7495167"><ele>725.3333333333334</ele><time>2026-05-06T09:28:32.565Z</time></trkpt><trkpt lat="38.0623667" lon="12.7496167"><ele>724.5</ele><time>2026-05-06T09:28:33.563Z</time></trkpt><trkpt lat="38.0624017" lon="12.7497183"><ele>723.6666666666666</ele><time>2026-05-06T09:28:34.564Z</time></trkpt><trkpt lat="38.0624383" lon="12.749825"><ele>722.8333333333333</ele><time>2026-05-06T09:28:35.564Z</time></trkpt><trkpt lat="38.0624767" lon="12.7499367"><ele>722.0</ele><time>2026-05-06T09:28:36.563Z</time></trkpt><trkpt lat="38.06252" lon="12.7500533"><ele>722.0</ele><time>2026-05-06T09:28:37.564Z</time></trkpt><trkpt lat="38.0625667" lon="12.75017"><ele>722.0</ele><time>2026-05-06T09:28:38.564Z</time></trkpt><trkpt lat="38.0626133" lon="12.7502833"><ele>722.0</ele><time>2026-05-06T09:28:39.565Z</time></trkpt><trkpt lat="38.0626483" lon="12.7503883"><ele>722.0</ele><time>2026-05-06T09:28:40.564Z</time></trkpt><trkpt lat="38.0626667" lon="12.750485"><ele>722.0</ele><time>2026-05-06T09:28:41.565Z</time></trkpt><trkpt lat="38.062665" lon="12.7505683"><ele>722.0</ele><time>2026-05-06T09:28:42.564Z</time></trkpt><trkpt lat="38.0626383" lon="12.7506467"><ele>723.0</ele><time>2026-05-06T09:28:43.564Z</time></trkpt><trkpt lat="38.0626117" lon="12.7507283"><ele>724.0</ele><time>2026-05-06T09:28:44.565Z</time></trkpt><trkpt lat="38.0625917" lon="12.7508167"><ele>725.0</ele><time>2026-05-06T09:28:45.564Z</time></trkpt><trkpt lat="38.0625817" lon="12.75091"><ele>726.0</ele><time>2026-05-06T09:28:46.563Z</time></trkpt><trkpt lat="38.0625833" lon="12.7510033"><ele>727.0</ele><time>2026-05-06T09:28:47.565Z</time></trkpt><trkpt lat="38.0625967" lon="12.751085"><ele>728.0</ele><time>2026-05-06T09:28:48.565Z</time></trkpt><trkpt lat="38.0626333" lon="12.7512383"><ele>729.2</ele><time>2026-05-06T09:28:50.568Z</time></trkpt><trkpt lat="38.0626633" lon="12.7513283"><ele>730.4</ele><time>2026-05-06T09:28:51.565Z</time></trkpt><trkpt lat="38.0627017" lon="12.7514317"><ele>731.6</ele><time>2026-05-06T09:28:52.564Z</time></trkpt><trkpt lat="38.0627533" lon="12.75154"><ele>732.8000000000001</ele><time>2026-05-06T09:28:53.566Z</time></trkpt><trkpt lat="38.0628033" lon="12.7516483"><ele>734.0</ele><time>2026-05-06T09:28:54.565Z</time></trkpt><trkpt lat="38.062835" lon="12.7517567"><ele>736.0</ele><time>2026-05-06T09:28:55.565Z</time></trkpt><trkpt lat="38.062855" lon="12.7518783"><ele>738.0</ele><time>2026-05-06T09:28:56.566Z</time></trkpt><trkpt lat="38.062875" lon="12.7520233"><ele>740.0</ele><time>2026-05-06T09:28:57.565Z</time></trkpt><trkpt lat="38.062895" lon="12.7521683"><ele>742.0</ele><time>2026-05-06T09:28:58.565Z</time></trkpt><trkpt lat="38.0629" lon="12.7522967"><ele>744.0</ele><time>2026-05-06T09:28:59.564Z</time></trkpt><trkpt lat="38.06289" lon="12.7524167"><ele>744.0</ele><time>2026-05-06T09:29:00.565Z</time></trkpt><trkpt lat="38.062885" lon="12.7525317"><ele>744.0</ele><time>2026-05-06T09:29:01.565Z</time></trkpt><trkpt lat="38.0629017" lon="12.75263"><ele>744.0</ele><time>2026-05-06T09:29:02.565Z</time></trkpt><trkpt lat="38.06294" lon="12.7527367"><ele>744.0</ele><time>2026-05-06T09:29:03.563Z</time></trkpt><trkpt lat="38.0630017" lon="12.752845"><ele>744.0</ele><time>2026-05-06T09:29:04.563Z</time></trkpt><trkpt lat="38.06308" lon="12.752945"><ele>742.4000000000001</ele><time>2026-05-06T09:29:05.564Z</time></trkpt><trkpt lat="38.0631733" lon="12.7530333"><ele>740.8</ele><time>2026-05-06T09:29:06.565Z</time></trkpt><trkpt lat="38.0632683" lon="12.753125"><ele>739.2</ele><time>2026-05-06T09:29:07.565Z</time></trkpt><trkpt lat="38.0633383" lon="12.7532167"><ele>737.5999999999999</ele><time>2026-05-06T09:29:08.564Z</time></trkpt><trkpt lat="38.0633817" lon="12.753295"><ele>736.0</ele><time>2026-05-06T09:29:09.565Z</time></trkpt><trkpt lat="38.0634233" lon="12.7533867"><ele>736.0</ele><time>2026-05-06T09:29:11.564Z</time></trkpt><trkpt lat="38.06335" lon="12.753505"><ele>736.0</ele><time>2026-05-06T09:29:38.564Z</time></trkpt><trkpt lat="38.0632783" lon="12.75364"><ele>736.0</ele><time>2026-05-06T09:29:40.564Z</time></trkpt><trkpt lat="38.063255" lon="12.7537183"><ele>736.0</ele><time>2026-05-06T09:29:41.565Z</time></trkpt><trkpt lat="38.0632183" lon="12.7538033"><ele>736.0</ele><time>2026-05-06T09:29:42.565Z</time></trkpt><trkpt lat="38.0631783" lon="12.7538817"><ele>740.75</ele><time>2026-05-06T09:29:43.566Z</time></trkpt><trkpt lat="38.0630783" lon="12.7539533"><ele>745.5</ele><time>2026-05-06T09:29:45.563Z</time></trkpt><trkpt lat="38.06299" lon="12.7539133"><ele>750.25</ele><time>2026-05-06T09:29:47.565Z</time></trkpt><trkpt lat="38.062935" lon="12.7537083"><ele>755.0</ele><time>2026-05-06T09:29:49.566Z</time></trkpt><trkpt lat="38.0629117" lon="12.7536"><ele>755.0</ele><time>2026-05-06T09:29:50.566Z</time></trkpt><trkpt lat="38.06286" lon="12.7535017"><ele>755.0</ele><time>2026-05-06T09:29:52.564Z</time></trkpt><trkpt lat="38.062795" lon="12.75353"><ele>755.0</ele><time>2026-05-06T09:29:54.564Z</time></trkpt><trkpt lat="38.0627325" lon="12.7536762"><ele>755.0</ele><time>2026-05-06T09:29:56.565Z</time></trkpt><trkpt lat="38.0626865" lon="12.7537702"><ele>755.0</ele><time>2026-05-06T09:29:57.564Z</time></trkpt><trkpt lat="38.0626273" lon="12.7538707"><ele>755.0</ele><time>2026-05-06T09:29:58.566Z</time></trkpt><trkpt lat="38.0625724" lon="12.7539756"><ele>755.0</ele><time>2026-05-06T09:29:59.565Z</time></trkpt><trkpt lat="38.062538" lon="12.7540834"><ele>755.0</ele><time>2026-05-06T09:30:00.564Z</time></trkpt><trkpt lat="38.0625315" lon="12.7541788"><ele>755.0</ele><time>2026-05-06T09:30:01.565Z</time></trkpt><trkpt lat="38.0625315" lon="12.7542599"><ele>755.0</ele><time>2026-05-06T09:30:02.565Z</time></trkpt><trkpt lat="38.0625082" lon="12.754354"><ele>755.0</ele><time>2026-05-06T09:30:04.564Z</time></trkpt><trkpt lat="38.0624212" lon="12.7542848"><ele>757.6666666666666</ele><time>2026-05-06T09:30:06.565Z</time></trkpt><trkpt lat="38.0623872" lon="12.7542081"><ele>760.3333333333333</ele><time>2026-05-06T09:30:07.565Z</time></trkpt><trkpt lat="38.0623593" lon="12.7541264"><ele>763.0</ele><time>2026-05-06T09:30:08.565Z</time></trkpt><trkpt lat="38.0622981" lon="12.7540457"><ele>765.6666666666666</ele><time>2026-05-06T09:30:10.565Z</time></trkpt><trkpt lat="38.062238" lon="12.7541596"><ele>768.3333333333334</ele><time>2026-05-06T09:30:13.564Z</time></trkpt><trkpt lat="38.062236" lon="12.7542439"><ele>771.0</ele><time>2026-05-06T09:30:14.565Z</time></trkpt><trkpt lat="38.0622307" lon="12.7543257"><ele>771.0</ele><time>2026-05-06T09:30:15.564Z</time></trkpt><trkpt lat="38.062212" lon="12.7544028"><ele>771.0</ele><time>2026-05-06T09:30:16.564Z</time></trkpt><trkpt lat="38.0621714" lon="12.7545446"><ele>771.0</ele><time>2026-05-06T09:30:18.566Z</time></trkpt><trkpt lat="38.0621037" lon="12.754583"><ele>771.0</ele><time>2026-05-06T09:30:20.564Z</time></trkpt><trkpt lat="38.0620224" lon="12.7545088"><ele>771.0</ele><time>2026-05-06T09:30:22.564Z</time></trkpt><trkpt lat="38.0619722" lon="12.7544328"><ele>771.0</ele><time>2026-05-06T09:30:23.565Z</time></trkpt><trkpt lat="38.0619154" lon="12.7543646"><ele>771.0</ele><time>2026-05-06T09:30:24.564Z</time></trkpt><trkpt lat="38.0618473" lon="12.7543166"><ele>771.0</ele><time>2026-05-06T09:30:25.566Z</time></trkpt><trkpt lat="38.0617753" lon="12.7542947"><ele>771.0</ele><time>2026-05-06T09:30:26.566Z</time></trkpt><trkpt lat="38.0617041" lon="12.7542923"><ele>771.0</ele><time>2026-05-06T09:30:27.564Z</time></trkpt><trkpt lat="38.0616398" lon="12.7543052"><ele>771.0</ele><time>2026-05-06T09:30:28.563Z</time></trkpt><trkpt lat="38.0615871" lon="12.7543979"><ele>771.0</ele><time>2026-05-06T09:30:30.565Z</time></trkpt><trkpt lat="38.0616287" lon="12.7545352"><ele>772.1666666666666</ele><time>2026-05-06T09:30:32.565Z</time></trkpt><trkpt lat="38.0616726" lon="12.7546061"><ele>773.3333333333333</ele><time>2026-05-06T09:30:33.564Z</time></trkpt><trkpt lat="38.0617203" lon="12.7546824"><ele>774.5</ele><time>2026-05-06T09:30:34.565Z</time></trkpt><trkpt lat="38.0617668" lon="12.7547707"><ele>775.6666666666666</ele><time>2026-05-06T09:30:35.565Z</time></trkpt><trkpt lat="38.0618021" lon="12.7548639"><ele>776.8333333333333</ele><time>2026-05-06T09:30:36.563Z</time></trkpt><trkpt lat="38.0618194" lon="12.7549597"><ele>778.0</ele><time>2026-05-06T09:30:37.565Z</time></trkpt><trkpt lat="38.0618204" lon="12.7550642"><ele>777.9999999999999</ele><time>2026-05-06T09:30:38.565Z</time></trkpt><trkpt lat="38.0618114" lon="12.7551775"><ele>778.0</ele><time>2026-05-06T09:30:39.566Z</time></trkpt><trkpt lat="38.0617974" lon="12.7552865"><ele>778.0</ele><time>2026-05-06T09:30:40.564Z</time></trkpt><trkpt lat="38.061769" lon="12.7553817"><ele>778.0</ele><time>2026-05-06T09:30:41.564Z</time></trkpt><trkpt lat="38.0617251" lon="12.7554702"><ele>777.9999999999999</ele><time>2026-05-06T09:30:42.567Z</time></trkpt><trkpt lat="38.061671" lon="12.7555606"><ele>778.0</ele><time>2026-05-06T09:30:43.564Z</time></trkpt><trkpt lat="38.0616184" lon="12.7556523"><ele>780.3333333333333</ele><time>2026-05-06T09:30:44.565Z</time></trkpt><trkpt lat="38.0615665" lon="12.7557463"><ele>782.6666666666666</ele><time>2026-05-06T09:30:45.563Z</time></trkpt><trkpt lat="38.0615172" lon="12.7558409"><ele>785.0</ele><time>2026-05-06T09:30:46.565Z</time></trkpt><trkpt lat="38.0614762" lon="12.7559316"><ele>787.3333333333333</ele><time>2026-05-06T09:30:47.563Z</time></trkpt><trkpt lat="38.0614432" lon="12.7560121"><ele>789.6666666666666</ele><time>2026-05-06T09:30:48.566Z</time></trkpt><trkpt lat="38.0613652" lon="12.7560807"><ele>792.0</ele><time>2026-05-06T09:30:50.565Z</time></trkpt><trkpt lat="38.0612997" lon="12.7560792"><ele>792.0</ele><time>2026-05-06T09:30:51.564Z</time></trkpt><trkpt lat="38.0612236" lon="12.7560762"><ele>792.0</ele><time>2026-05-06T09:30:52.563Z</time></trkpt><trkpt lat="38.0611482" lon="12.7560673"><ele>792.0</ele><time>2026-05-06T09:30:53.564Z</time></trkpt><trkpt lat="38.0610733" lon="12.7560467"><ele>792.0</ele><time>2026-05-06T09:30:54.564Z</time></trkpt><trkpt lat="38.0609965" lon="12.7560266"><ele>792.0</ele><time>2026-05-06T09:30:55.564Z</time></trkpt><trkpt lat="38.0609267" lon="12.7560237"><ele>792.0</ele><time>2026-05-06T09:30:56.565Z</time></trkpt><trkpt lat="38.0608182" lon="12.756057"><ele>793.4000000000001</ele><time>2026-05-06T09:30:58.566Z</time></trkpt><trkpt lat="38.0607085" lon="12.7561207"><ele>794.8000000000001</ele><time>2026-05-06T09:31:00.565Z</time></trkpt><trkpt lat="38.0606486" lon="12.7561582"><ele>796.2</ele><time>2026-05-06T09:31:01.566Z</time></trkpt><trkpt lat="38.0605422" lon="12.756215"><ele>797.6</ele><time>2026-05-06T09:31:03.565Z</time></trkpt><trkpt lat="38.060468" lon="12.7562468"><ele>799.0</ele><time>2026-05-06T09:31:05.565Z</time></trkpt><trkpt lat="38.0604349" lon="12.7563326"><ele>799.0</ele><time>2026-05-06T09:31:09.564Z</time></trkpt><trkpt lat="38.0604858" lon="12.7564347"><ele>799.0</ele><time>2026-05-06T09:31:12.564Z</time></trkpt><trkpt lat="38.0605454" lon="12.7565055"><ele>799.0</ele><time>2026-05-06T09:31:14.565Z</time></trkpt><trkpt lat="38.0606261" lon="12.7565784"><ele>799.0</ele><time>2026-05-06T09:31:16.564Z</time></trkpt><trkpt lat="38.0607165" lon="12.756678"><ele>799.0</ele><time>2026-05-06T09:31:18.566Z</time></trkpt><trkpt lat="38.060766" lon="12.7567302"><ele>799.1666666666666</ele><time>2026-05-06T09:31:19.564Z</time></trkpt><trkpt lat="38.0608219" lon="12.7567836"><ele>799.3333333333333</ele><time>2026-05-06T09:31:20.565Z</time></trkpt><trkpt lat="38.0608835" lon="12.7568424"><ele>799.5</ele><time>2026-05-06T09:31:21.564Z</time></trkpt><trkpt lat="38.0609476" lon="12.756915"><ele>799.6666666666667</ele><time>2026-05-06T09:31:22.564Z</time></trkpt><trkpt lat="38.0610115" lon="12.7569989"><ele>799.8333333333334</ele><time>2026-05-06T09:31:23.565Z</time></trkpt><trkpt lat="38.0610723" lon="12.7570865"><ele>800.0</ele><time>2026-05-06T09:31:24.563Z</time></trkpt><trkpt lat="38.0611364" lon="12.7571767"><ele>803.4</ele><time>2026-05-06T09:31:25.564Z</time></trkpt><trkpt lat="38.06121" lon="12.7572647"><ele>806.8</ele><time>2026-05-06T09:31:26.567Z</time></trkpt><trkpt lat="38.0612832" lon="12.7573499"><ele>810.2</ele><time>2026-05-06T09:31:27.565Z</time></trkpt><trkpt lat="38.061351" lon="12.7574387"><ele>813.6</ele><time>2026-05-06T09:31:28.565Z</time></trkpt><trkpt lat="38.0614017" lon="12.7575394"><ele>817.0</ele><time>2026-05-06T09:31:29.565Z</time></trkpt><trkpt lat="38.061441" lon="12.7576505"><ele>818.4000000000001</ele><time>2026-05-06T09:31:30.564Z</time></trkpt><trkpt lat="38.061484" lon="12.7577591"><ele>819.8000000000001</ele><time>2026-05-06T09:31:31.565Z</time></trkpt><trkpt lat="38.0615348" lon="12.7578646"><ele>821.2</ele><time>2026-05-06T09:31:32.565Z</time></trkpt><trkpt lat="38.0615885" lon="12.7579694"><ele>822.6</ele><time>2026-05-06T09:31:33.567Z</time></trkpt><trkpt lat="38.0616435" lon="12.7580728"><ele>824.0</ele><time>2026-05-06T09:31:34.565Z</time></trkpt><trkpt lat="38.0616984" lon="12.7581745"><ele>824.0</ele><time>2026-05-06T09:31:35.565Z</time></trkpt><trkpt lat="38.0617575" lon="12.7582701"><ele>824.0</ele><time>2026-05-06T09:31:36.565Z</time></trkpt><trkpt lat="38.0618182" lon="12.7583674"><ele>824.0</ele><time>2026-05-06T09:31:37.565Z</time></trkpt><trkpt lat="38.0618783" lon="12.7584671"><ele>824.0</ele><time>2026-05-06T09:31:38.566Z</time></trkpt><trkpt lat="38.0619383" lon="12.7585634"><ele>824.0</ele><time>2026-05-06T09:31:39.565Z</time></trkpt><trkpt lat="38.0620041" lon="12.7586629"><ele>827.8000000000001</ele><time>2026-05-06T09:31:40.565Z</time></trkpt><trkpt lat="38.0620757" lon="12.7587658"><ele>831.6</ele><time>2026-05-06T09:31:41.565Z</time></trkpt><trkpt lat="38.0621523" lon="12.7588651"><ele>835.4</ele><time>2026-05-06T09:31:42.564Z</time></trkpt><trkpt lat="38.0622299" lon="12.7589615"><ele>839.2</ele><time>2026-05-06T09:31:43.564Z</time></trkpt><trkpt lat="38.062304" lon="12.7590679"><ele>843.0</ele><time>2026-05-06T09:31:44.565Z</time></trkpt><trkpt lat="38.062373" lon="12.7591824"><ele>843.0</ele><time>2026-05-06T09:31:45.564Z</time></trkpt><trkpt lat="38.0624353" lon="12.7593023"><ele>843.0</ele><time>2026-05-06T09:31:46.563Z</time></trkpt><trkpt lat="38.0624883" lon="12.7594271"><ele>843.0</ele><time>2026-05-06T09:31:47.564Z</time></trkpt><trkpt lat="38.0625394" lon="12.7595516"><ele>843.0</ele><time>2026-05-06T09:31:48.565Z</time></trkpt><trkpt lat="38.0626026" lon="12.7596728"><ele>844.0</ele><time>2026-05-06T09:31:49.564Z</time></trkpt><trkpt lat="38.0626789" lon="12.7597848"><ele>845.0</ele><time>2026-05-06T09:31:50.565Z</time></trkpt><trkpt lat="38.0627676" lon="12.7598812"><ele>846.0</ele><time>2026-05-06T09:31:51.563Z</time></trkpt><trkpt lat="38.0628469" lon="12.759969"><ele>847.0</ele><time>2026-05-06T09:31:52.564Z</time></trkpt><trkpt lat="38.0629002" lon="12.7600494"><ele>848.0</ele><time>2026-05-06T09:31:53.565Z</time></trkpt><trkpt lat="38.0629346" lon="12.7601373"><ele>849.3333333333334</ele><time>2026-05-06T09:31:54.564Z</time></trkpt><trkpt lat="38.0629548" lon="12.7602383"><ele>850.6666666666667</ele><time>2026-05-06T09:31:55.564Z</time></trkpt><trkpt lat="38.0629737" lon="12.7603442"><ele>852.0</ele><time>2026-05-06T09:31:56.565Z</time></trkpt><trkpt lat="38.0629906" lon="12.7604532"><ele>853.3333333333333</ele><time>2026-05-06T09:31:57.564Z</time></trkpt><trkpt lat="38.063001" lon="12.7605664"><ele>854.6666666666666</ele><time>2026-05-06T09:31:58.564Z</time></trkpt><trkpt lat="38.0630142" lon="12.760677"><ele>856.0</ele><time>2026-05-06T09:31:59.564Z</time></trkpt><trkpt lat="38.0630329" lon="12.7607771"><ele>855.9999999999999</ele><time>2026-05-06T09:32:00.565Z</time></trkpt><trkpt lat="38.0630591" lon="12.7608616"><ele>856.0</ele><time>2026-05-06T09:32:01.565Z</time></trkpt><trkpt lat="38.0630866" lon="12.7609409"><ele>856.0</ele><time>2026-05-06T09:32:02.565Z</time></trkpt><trkpt lat="38.0630863" lon="12.7610812"><ele>856.0</ele><time>2026-05-06T09:32:04.564Z</time></trkpt><trkpt lat="38.0630016" lon="12.7611764"><ele>855.9999999999999</ele><time>2026-05-06T09:32:06.564Z</time></trkpt><trkpt lat="38.0629221" lon="12.7612118"><ele>856.0</ele><time>2026-05-06T09:32:07.565Z</time></trkpt><trkpt lat="38.0628357" lon="12.7612524"><ele>854.5999999999999</ele><time>2026-05-06T09:32:08.565Z</time></trkpt><trkpt lat="38.0627514" lon="12.7612992"><ele>853.1999999999999</ele><time>2026-05-06T09:32:09.566Z</time></trkpt><trkpt lat="38.0626652" lon="12.7613514"><ele>851.8</ele><time>2026-05-06T09:32:10.564Z</time></trkpt><trkpt lat="38.0625759" lon="12.7613991"><ele>850.4000000000001</ele><time>2026-05-06T09:32:11.564Z</time></trkpt><trkpt lat="38.0624801" lon="12.7614383"><ele>849.0</ele><time>2026-05-06T09:32:12.564Z</time></trkpt><trkpt lat="38.0623826" lon="12.7614716"><ele>854.4000000000001</ele><time>2026-05-06T09:32:13.565Z</time></trkpt><trkpt lat="38.0622891" lon="12.7615045"><ele>859.8</ele><time>2026-05-06T09:32:14.565Z</time></trkpt><trkpt lat="38.0621985" lon="12.7615419"><ele>865.1999999999999</ele><time>2026-05-06T09:32:15.565Z</time></trkpt><trkpt lat="38.06211" lon="12.7615832"><ele>870.5999999999999</ele><time>2026-05-06T09:32:16.565Z</time></trkpt><trkpt lat="38.0620248" lon="12.7616259"><ele>876.0</ele><time>2026-05-06T09:32:17.563Z</time></trkpt><trkpt lat="38.0619441" lon="12.7616732"><ele>876.0</ele><time>2026-05-06T09:32:18.564Z</time></trkpt><trkpt lat="38.0618741" lon="12.7617358"><ele>876.0</ele><time>2026-05-06T09:32:19.564Z</time></trkpt><trkpt lat="38.061818" lon="12.7618168"><ele>876.0</ele><time>2026-05-06T09:32:20.566Z</time></trkpt><trkpt lat="38.0617805" lon="12.7619161"><ele>876.0</ele><time>2026-05-06T09:32:21.563Z</time></trkpt><trkpt lat="38.0617493" lon="12.7620231"><ele>876.0</ele><time>2026-05-06T09:32:22.564Z</time></trkpt><trkpt lat="38.0617288" lon="12.762137"><ele>876.0</ele><time>2026-05-06T09:32:23.565Z</time></trkpt><trkpt lat="38.061724" lon="12.7622543"><ele>876.0</ele><time>2026-05-06T09:32:24.566Z</time></trkpt><trkpt lat="38.0617299" lon="12.762366"><ele>876.0</ele><time>2026-05-06T09:32:25.564Z</time></trkpt><trkpt lat="38.0617412" lon="12.7624621"><ele>876.0</ele><time>2026-05-06T09:32:26.566Z</time></trkpt><trkpt lat="38.0617565" lon="12.7625404"><ele>876.0</ele><time>2026-05-06T09:32:27.564Z</time></trkpt><trkpt lat="38.0617932" lon="12.7626652"><ele>876.0</ele><time>2026-05-06T09:32:29.564Z</time></trkpt><trkpt lat="38.0618157" lon="12.7627537"><ele>876.0</ele><time>2026-05-06T09:32:31.565Z</time></trkpt><trkpt lat="38.0617394" lon="12.7627726"><ele>879.5999999999999</ele><time>2026-05-06T09:32:34.563Z</time></trkpt><trkpt lat="38.0616263" lon="12.7627082"><ele>883.1999999999999</ele><time>2026-05-06T09:32:36.564Z</time></trkpt><trkpt lat="38.0615302" lon="12.762655"><ele>886.8000000000001</ele><time>2026-05-06T09:32:38.565Z</time></trkpt><trkpt lat="38.0614389" lon="12.7626215"><ele>890.4000000000001</ele><time>2026-05-06T09:32:40.565Z</time></trkpt><trkpt lat="38.0613481" lon="12.7625945"><ele>894.0</ele><time>2026-05-06T09:32:42.565Z</time></trkpt><trkpt lat="38.0612506" lon="12.7625615"><ele>894.0</ele><time>2026-05-06T09:32:44.565Z</time></trkpt><trkpt lat="38.0611455" lon="12.7625259"><ele>894.0</ele><time>2026-05-06T09:32:46.564Z</time></trkpt><trkpt lat="38.0610321" lon="12.7624829"><ele>894.0</ele><time>2026-05-06T09:32:48.564Z</time></trkpt><trkpt lat="38.0609301" lon="12.7624096"><ele>894.0</ele><time>2026-05-06T09:32:50.565Z</time></trkpt><trkpt lat="38.0608463" lon="12.762306"><ele>897.4000000000001</ele><time>2026-05-06T09:32:52.565Z</time></trkpt><trkpt lat="38.0607481" lon="12.7622673"><ele>900.8000000000001</ele><time>2026-05-06T09:32:54.565Z</time></trkpt><trkpt lat="38.0606478" lon="12.7623624"><ele>904.1999999999999</ele><time>2026-05-06T09:32:56.565Z</time></trkpt><trkpt lat="38.0606016" lon="12.7624425"><ele>907.5999999999999</ele><time>2026-05-06T09:32:57.564Z</time></trkpt><trkpt lat="38.0605656" lon="12.7625421"><ele>911.0</ele><time>2026-05-06T09:32:58.564Z</time></trkpt><trkpt lat="38.0605332" lon="12.762635"><ele>911.0000000000001</ele><time>2026-05-06T09:32:59.566Z</time></trkpt><trkpt lat="38.0604947" lon="12.7627"><ele>911.0</ele><time>2026-05-06T09:33:00.564Z</time></trkpt><trkpt lat="38.060401" lon="12.7627057"><ele>911.0</ele><time>2026-05-06T09:33:02.565Z</time></trkpt><trkpt lat="38.0603217" lon="12.7625731"><ele>911.0</ele><time>2026-05-06T09:33:04.563Z</time></trkpt><trkpt lat="38.0602998" lon="12.7624807"><ele>911.0000000000001</ele><time>2026-05-06T09:33:05.565Z</time></trkpt><trkpt lat="38.0602932" lon="12.7623864"><ele>911.0</ele><time>2026-05-06T09:33:06.565Z</time></trkpt><trkpt lat="38.0603114" lon="12.7623008"><ele>911.0000000000001</ele><time>2026-05-06T09:33:07.564Z</time></trkpt><trkpt lat="38.0603426" lon="12.7621703"><ele>911.0</ele><time>2026-05-06T09:33:09.565Z</time></trkpt><trkpt lat="38.0602984" lon="12.7620929"><ele>911.0</ele><time>2026-05-06T09:33:11.565Z</time></trkpt><trkpt lat="38.0601989" lon="12.7621588"><ele>911.0</ele><time>2026-05-06T09:33:13.564Z</time></trkpt><trkpt lat="38.0601399" lon="12.7622159"><ele>911.0000000000001</ele><time>2026-05-06T09:33:14.564Z</time></trkpt><trkpt lat="38.0600801" lon="12.7622815"><ele>911.0</ele><time>2026-05-06T09:33:15.564Z</time></trkpt><trkpt lat="38.0600237" lon="12.7623498"><ele>911.0000000000001</ele><time>2026-05-06T09:33:16.564Z</time></trkpt><trkpt lat="38.0599691" lon="12.7624112"><ele>911.0</ele><time>2026-05-06T09:33:17.564Z</time></trkpt><trkpt lat="38.0599085" lon="12.7624608"><ele>911.0</ele><time>2026-05-06T09:33:18.564Z</time></trkpt><trkpt lat="38.0598437" lon="12.762508"><ele>911.0</ele><time>2026-05-06T09:33:19.565Z</time></trkpt><trkpt lat="38.0597713" lon="12.7625595"><ele>911.0000000000001</ele><time>2026-05-06T09:33:20.565Z</time></trkpt><trkpt lat="38.0596898" lon="12.762629"><ele>911.0</ele><time>2026-05-06T09:33:21.564Z</time></trkpt><trkpt lat="38.059603" lon="12.7627209"><ele>912.1999999999999</ele><time>2026-05-06T09:33:22.564Z</time></trkpt><trkpt lat="38.0595148" lon="12.7628239"><ele>913.3999999999999</ele><time>2026-05-06T09:33:23.565Z</time></trkpt><trkpt lat="38.0594363" lon="12.7629324"><ele>914.6</ele><time>2026-05-06T09:33:24.564Z</time></trkpt><trkpt lat="38.0593821" lon="12.763043"><ele>915.8</ele><time>2026-05-06T09:33:25.567Z</time></trkpt><trkpt lat="38.0593563" lon="12.763162"><ele>917.0</ele><time>2026-05-06T09:33:26.563Z</time></trkpt><trkpt lat="38.0593536" lon="12.7633025"><ele>917.0</ele><time>2026-05-06T09:33:27.564Z</time></trkpt><trkpt lat="38.0593541" lon="12.7634629"><ele>917.0</ele><time>2026-05-06T09:33:28.564Z</time></trkpt><trkpt lat="38.0593331" lon="12.7636269"><ele>917.0</ele><time>2026-05-06T09:33:29.564Z</time></trkpt><trkpt lat="38.0592943" lon="12.7637763"><ele>917.0</ele><time>2026-05-06T09:33:30.564Z</time></trkpt><trkpt lat="38.0592601" lon="12.763923"><ele>917.5000000000001</ele><time>2026-05-06T09:33:31.565Z</time></trkpt><trkpt lat="38.0592433" lon="12.7640674"><ele>918.0</ele><time>2026-05-06T09:33:32.565Z</time></trkpt><trkpt lat="38.0592273" lon="12.7641856"><ele>918.5</ele><time>2026-05-06T09:33:33.564Z</time></trkpt><trkpt lat="38.0592003" lon="12.7642727"><ele>919.0</ele><time>2026-05-06T09:33:34.565Z</time></trkpt><trkpt lat="38.0591567" lon="12.7643327"><ele>919.5000000000001</ele><time>2026-05-06T09:33:35.565Z</time></trkpt><trkpt lat="38.0590901" lon="12.7643877"><ele>920.0</ele><time>2026-05-06T09:33:36.565Z</time></trkpt><trkpt lat="38.0590145" lon="12.7644516"><ele>920.0000000000001</ele><time>2026-05-06T09:33:37.566Z</time></trkpt><trkpt lat="38.0589427" lon="12.7645213"><ele>920.0</ele><time>2026-05-06T09:33:38.565Z</time></trkpt><trkpt lat="38.0588806" lon="12.7645982"><ele>920.0</ele><time>2026-05-06T09:33:39.564Z</time></trkpt><trkpt lat="38.0588316" lon="12.7646846"><ele>920.0</ele><time>2026-05-06T09:33:40.565Z</time></trkpt><trkpt lat="38.0587918" lon="12.7647815"><ele>920.0000000000001</ele><time>2026-05-06T09:33:41.563Z</time></trkpt><trkpt lat="38.0587676" lon="12.7648882"><ele>920.0</ele><time>2026-05-06T09:33:42.563Z</time></trkpt><trkpt lat="38.0587697" lon="12.7650005"><ele>920.0000000000001</ele><time>2026-05-06T09:33:43.565Z</time></trkpt><trkpt lat="38.0587924" lon="12.7651117"><ele>920.0</ele><time>2026-05-06T09:33:44.564Z</time></trkpt><trkpt lat="38.0588274" lon="12.7652151"><ele>920.0</ele><time>2026-05-06T09:33:45.564Z</time></trkpt><trkpt lat="38.0588761" lon="12.7653026"><ele>920.0</ele><time>2026-05-06T09:33:46.564Z</time></trkpt><trkpt lat="38.0589302" lon="12.7653702"><ele>920.0000000000001</ele><time>2026-05-06T09:33:47.564Z</time></trkpt><trkpt lat="38.0589737" lon="12.7654363"><ele>920.0</ele><time>2026-05-06T09:33:48.564Z</time></trkpt><trkpt lat="38.0589891" lon="12.7655843"><ele>920.0</ele><time>2026-05-06T09:33:50.564Z</time></trkpt><trkpt lat="38.0589663" lon="12.7656721"><ele>920.0</ele><time>2026-05-06T09:33:51.564Z</time></trkpt><trkpt lat="38.0589355" lon="12.7657783"><ele>920.0</ele><time>2026-05-06T09:33:52.563Z</time></trkpt><trkpt lat="38.0589064" lon="12.7658961"><ele>920.0</ele><time>2026-05-06T09:33:53.565Z</time></trkpt><trkpt lat="38.0588901" lon="12.7660219"><ele>920.0</ele><time>2026-05-06T09:33:54.565Z</time></trkpt><trkpt lat="38.0588843" lon="12.7661552"><ele>919.8</ele><time>2026-05-06T09:33:55.564Z</time></trkpt><trkpt lat="38.05888" lon="12.7662869"><ele>919.6</ele><time>2026-05-06T09:33:56.564Z</time></trkpt><trkpt lat="38.0588707" lon="12.7664096"><ele>919.4000000000001</ele><time>2026-05-06T09:33:57.563Z</time></trkpt><trkpt lat="38.0588582" lon="12.7665198"><ele>919.2</ele><time>2026-05-06T09:33:58.565Z</time></trkpt><trkpt lat="38.0588297" lon="12.7666222"><ele>919.0</ele><time>2026-05-06T09:33:59.57Z</time></trkpt><trkpt lat="38.0587934" lon="12.7667202"><ele>919.0</ele><time>2026-05-06T09:34:00.564Z</time></trkpt><trkpt lat="38.0587628" lon="12.7668236"><ele>919.0000000000001</ele><time>2026-05-06T09:34:01.565Z</time></trkpt><trkpt lat="38.0587518" lon="12.7669414"><ele>919.0000000000001</ele><time>2026-05-06T09:34:02.564Z</time></trkpt><trkpt lat="38.058749" lon="12.7670628"><ele>919.0</ele><time>2026-05-06T09:34:03.565Z</time></trkpt><trkpt lat="38.058733" lon="12.7671739"><ele>919.0</ele><time>2026-05-06T09:34:04.564Z</time></trkpt><trkpt lat="38.0586985" lon="12.7672872"><ele>919.2</ele><time>2026-05-06T09:34:05.565Z</time></trkpt><trkpt lat="38.0586409" lon="12.767396"><ele>919.4000000000001</ele><time>2026-05-06T09:34:06.565Z</time></trkpt><trkpt lat="38.058562" lon="12.7674862"><ele>919.6</ele><time>2026-05-06T09:34:07.565Z</time></trkpt><trkpt lat="38.0584632" lon="12.7675644"><ele>919.8</ele><time>2026-05-06T09:34:08.565Z</time></trkpt><trkpt lat="38.0583605" lon="12.7676376"><ele>920.0</ele><time>2026-05-06T09:34:09.565Z</time></trkpt><trkpt lat="38.058273" lon="12.7677009"><ele>918.3333333333334</ele><time>2026-05-06T09:34:10.564Z</time></trkpt><trkpt lat="38.0582052" lon="12.7677587"><ele>916.6666666666667</ele><time>2026-05-06T09:34:11.564Z</time></trkpt><trkpt lat="38.0581515" lon="12.7678177"><ele>915.0</ele><time>2026-05-06T09:34:12.564Z</time></trkpt><trkpt lat="38.0581072" lon="12.7678828"><ele>913.3333333333333</ele><time>2026-05-06T09:34:13.564Z</time></trkpt><trkpt lat="38.0580715" lon="12.7679515"><ele>911.6666666666666</ele><time>2026-05-06T09:34:14.564Z</time></trkpt><trkpt lat="38.0580255" lon="12.7680913"><ele>910.0</ele><time>2026-05-06T09:34:16.565Z</time></trkpt><trkpt lat="38.0580548" lon="12.7682461"><ele>909.9999999999999</ele><time>2026-05-06T09:34:18.57Z</time></trkpt><trkpt lat="38.0580915" lon="12.7683346"><ele>910.0</ele><time>2026-05-06T09:34:19.565Z</time></trkpt><trkpt lat="38.0581199" lon="12.7684307"><ele>910.0</ele><time>2026-05-06T09:34:20.565Z</time></trkpt><trkpt lat="38.0581436" lon="12.7685389"><ele>910.0</ele><time>2026-05-06T09:34:21.563Z</time></trkpt><trkpt lat="38.058168" lon="12.7686535"><ele>909.9999999999999</ele><time>2026-05-06T09:34:22.563Z</time></trkpt><trkpt lat="38.0581989" lon="12.7687626"><ele>910.0</ele><time>2026-05-06T09:34:23.565Z</time></trkpt><trkpt lat="38.0582314" lon="12.7688552"><ele>910.4999999999999</ele><time>2026-05-06T09:34:24.565Z</time></trkpt><trkpt lat="38.0582635" lon="12.7689319"><ele>911.0</ele><time>2026-05-06T09:34:25.563Z</time></trkpt><trkpt lat="38.0582961" lon="12.7690006"><ele>911.5</ele><time>2026-05-06T09:34:26.564Z</time></trkpt><trkpt lat="38.0583381" lon="12.7691016"><ele>912.0</ele><time>2026-05-06T09:34:28.566Z</time></trkpt><trkpt lat="38.0583793" lon="12.7692028"><ele>912.4999999999999</ele><time>2026-05-06T09:34:31.563Z</time></trkpt><trkpt lat="38.058415" lon="12.7693137"><ele>913.0</ele><time>2026-05-06T09:34:34.563Z</time></trkpt><trkpt lat="38.0584492" lon="12.7694028"><ele>912.9999999999999</ele><time>2026-05-06T09:34:37.565Z</time></trkpt><trkpt lat="38.0584943" lon="12.7695279"><ele>913.0</ele><time>2026-05-06T09:34:58.564Z</time></trkpt><trkpt lat="38.05851" lon="12.7696067"><ele>913.0</ele><time>2026-05-06T09:35:00.564Z</time></trkpt><trkpt lat="38.0584933" lon="12.76969"><ele>913.0</ele><time>2026-05-06T09:42:34.563Z</time></trkpt><trkpt lat="38.058395" lon="12.7697333"><ele>912.9999999999999</ele><time>2026-05-06T09:42:36.564Z</time></trkpt><trkpt lat="38.058315" lon="12.7697667"><ele>913.0</ele><time>2026-05-06T09:42:37.562Z</time></trkpt><trkpt lat="38.0582267" lon="12.7698083"><ele>912.0</ele><time>2026-05-06T09:42:38.565Z</time></trkpt><trkpt lat="38.0581333" lon="12.7698417"><ele>911.0</ele><time>2026-05-06T09:42:39.564Z</time></trkpt><trkpt lat="38.058045" lon="12.76985"><ele>910.0</ele><time>2026-05-06T09:42:40.564Z</time></trkpt><trkpt lat="38.057955" lon="12.7698333"><ele>909.0</ele><time>2026-05-06T09:42:41.564Z</time></trkpt><trkpt lat="38.0578433" lon="12.7698067"><ele>908.0</ele><time>2026-05-06T09:42:42.565Z</time></trkpt><trkpt lat="38.0577267" lon="12.7697833"><ele>908.0</ele><time>2026-05-06T09:42:43.564Z</time></trkpt><trkpt lat="38.0576117" lon="12.76976"><ele>908.0</ele><time>2026-05-06T09:42:44.565Z</time></trkpt><trkpt lat="38.057495" lon="12.76972"><ele>908.0</ele><time>2026-05-06T09:42:45.565Z</time></trkpt><trkpt lat="38.057375" lon="12.7696583"><ele>908.0</ele><time>2026-05-06T09:42:46.563Z</time></trkpt><trkpt lat="38.057245" lon="12.769585"><ele>907.25</ele><time>2026-05-06T09:42:47.565Z</time></trkpt><trkpt lat="38.0571133" lon="12.7695167"><ele>906.5</ele><time>2026-05-06T09:42:48.563Z</time></trkpt><trkpt lat="38.0569917" lon="12.76946"><ele>905.75</ele><time>2026-05-06T09:42:49.563Z</time></trkpt><trkpt lat="38.0568833" lon="12.76941"><ele>905.0</ele><time>2026-05-06T09:42:50.563Z</time></trkpt><trkpt lat="38.0567767" lon="12.769365"><ele>902.75</ele><time>2026-05-06T09:42:51.564Z</time></trkpt><trkpt lat="38.0566667" lon="12.7693383"><ele>900.5</ele><time>2026-05-06T09:42:52.565Z</time></trkpt><trkpt lat="38.05655" lon="12.7693267"><ele>898.25</ele><time>2026-05-06T09:42:53.565Z</time></trkpt><trkpt lat="38.05644" lon="12.769325"><ele>896.0</ele><time>2026-05-06T09:42:54.564Z</time></trkpt><trkpt lat="38.0563233" lon="12.7693267"><ele>896.25</ele><time>2026-05-06T09:42:55.564Z</time></trkpt><trkpt lat="38.0562039" lon="12.7693349"><ele>896.5</ele><time>2026-05-06T09:42:56.566Z</time></trkpt><trkpt lat="38.0560799" lon="12.7693474"><ele>896.75</ele><time>2026-05-06T09:42:57.565Z</time></trkpt><trkpt lat="38.0559611" lon="12.7693673"><ele>897.0</ele><time>2026-05-06T09:42:58.565Z</time></trkpt><trkpt lat="38.0558448" lon="12.7694019"><ele>894.6</ele><time>2026-05-06T09:42:59.565Z</time></trkpt><trkpt lat="38.0557412" lon="12.7694428"><ele>892.2</ele><time>2026-05-06T09:43:00.565Z</time></trkpt><trkpt lat="38.0556534" lon="12.7694807"><ele>889.8</ele><time>2026-05-06T09:43:01.565Z</time></trkpt><trkpt lat="38.0555791" lon="12.7695185"><ele>887.4</ele><time>2026-05-06T09:43:02.565Z</time></trkpt><trkpt lat="38.0555172" lon="12.7695566"><ele>885.0</ele><time>2026-05-06T09:43:03.566Z</time></trkpt><trkpt lat="38.0554165" lon="12.7696415"><ele>885.0</ele><time>2026-05-06T09:43:05.564Z</time></trkpt><trkpt lat="38.0553201" lon="12.7697094"><ele>885.0</ele><time>2026-05-06T09:43:07.566Z</time></trkpt><trkpt lat="38.0552296" lon="12.7697591"><ele>885.0</ele><time>2026-05-06T09:43:09.565Z</time></trkpt><trkpt lat="38.0551671" lon="12.7697927"><ele>885.0</ele><time>2026-05-06T09:43:11.564Z</time></trkpt><trkpt lat="38.055065" lon="12.7698317"><ele>885.0</ele><time>2026-05-06T09:49:50.566Z</time></trkpt><trkpt lat="38.0549567" lon="12.769895"><ele>881.6</ele><time>2026-05-06T09:49:52.565Z</time></trkpt><trkpt lat="38.0548983" lon="12.7699317"><ele>878.2</ele><time>2026-05-06T09:49:53.565Z</time></trkpt><trkpt lat="38.0548383" lon="12.7699633"><ele>874.8</ele><time>2026-05-06T09:49:54.566Z</time></trkpt><trkpt lat="38.0547217" lon="12.7700133"><ele>871.4</ele><time>2026-05-06T09:49:56.566Z</time></trkpt><trkpt lat="38.05461" lon="12.7700517"><ele>868.0</ele><time>2026-05-06T09:49:58.564Z</time></trkpt><trkpt lat="38.0544867" lon="12.7700867"><ele>868.0</ele><time>2026-05-06T09:50:00.564Z</time></trkpt><trkpt lat="38.0544183" lon="12.770115"><ele>868.0</ele><time>2026-05-06T09:50:01.566Z</time></trkpt><trkpt lat="38.05435" lon="12.7701467"><ele>868.0</ele><time>2026-05-06T09:50:02.565Z</time></trkpt><trkpt lat="38.0542867" lon="12.7701767"><ele>868.0</ele><time>2026-05-06T09:50:03.565Z</time></trkpt><trkpt lat="38.0542267" lon="12.770205"><ele>868.0</ele><time>2026-05-06T09:50:04.565Z</time></trkpt><trkpt lat="38.05416" lon="12.77023"><ele>868.0</ele><time>2026-05-06T09:50:05.565Z</time></trkpt><trkpt lat="38.0540917" lon="12.7702567"><ele>868.0</ele><time>2026-05-06T09:50:06.564Z</time></trkpt><trkpt lat="38.0540233" lon="12.7702833"><ele>869.3333333333333</ele><time>2026-05-06T09:50:07.565Z</time></trkpt><trkpt lat="38.053955" lon="12.7703133"><ele>870.6666666666666</ele><time>2026-05-06T09:50:08.566Z</time></trkpt><trkpt lat="38.053885" lon="12.77034"><ele>872.0</ele><time>2026-05-06T09:50:09.565Z</time></trkpt><trkpt lat="38.05382" lon="12.770365"><ele>873.3333333333333</ele><time>2026-05-06T09:50:10.564Z</time></trkpt><trkpt lat="38.053745" lon="12.7703867"><ele>874.6666666666666</ele><time>2026-05-06T09:50:11.565Z</time></trkpt><trkpt lat="38.0536667" lon="12.770405"><ele>876.0</ele><time>2026-05-06T09:50:12.566Z</time></trkpt><trkpt lat="38.0535817" lon="12.7704317"><ele>876.0</ele><time>2026-05-06T09:50:13.563Z</time></trkpt><trkpt lat="38.053495" lon="12.7704483"><ele>876.0</ele><time>2026-05-06T09:50:14.565Z</time></trkpt><trkpt lat="38.0534183" lon="12.77046"><ele>876.0</ele><time>2026-05-06T09:50:15.565Z</time></trkpt><trkpt lat="38.05334" lon="12.7704733"><ele>876.0</ele><time>2026-05-06T09:50:16.565Z</time></trkpt><trkpt lat="38.053255" lon="12.7704833"><ele>876.0</ele><time>2026-05-06T09:50:17.566Z</time></trkpt><trkpt lat="38.0531783" lon="12.7704983"><ele>876.0</ele><time>2026-05-06T09:50:18.564Z</time></trkpt><trkpt lat="38.0530983" lon="12.7705117"><ele>873.4</ele><time>2026-05-06T09:50:19.565Z</time></trkpt><trkpt lat="38.0530117" lon="12.770525"><ele>870.8</ele><time>2026-05-06T09:50:20.565Z</time></trkpt><trkpt lat="38.0529183" lon="12.7705483"><ele>868.1999999999999</ele><time>2026-05-06T09:50:21.565Z</time></trkpt><trkpt lat="38.0528267" lon="12.7705783"><ele>865.5999999999999</ele><time>2026-05-06T09:50:22.565Z</time></trkpt><trkpt lat="38.0527433" lon="12.7706"><ele>863.0</ele><time>2026-05-06T09:50:23.566Z</time></trkpt><trkpt lat="38.0526517" lon="12.770625"><ele>863.0</ele><time>2026-05-06T09:50:24.565Z</time></trkpt><trkpt lat="38.0525533" lon="12.7706483"><ele>863.0</ele><time>2026-05-06T09:50:25.565Z</time></trkpt><trkpt lat="38.0524583" lon="12.77067"><ele>863.0</ele><time>2026-05-06T09:50:26.565Z</time></trkpt><trkpt lat="38.05237" lon="12.7706967"><ele>863.0</ele><time>2026-05-06T09:50:27.565Z</time></trkpt><trkpt lat="38.0522733" lon="12.77073"><ele>863.0</ele><time>2026-05-06T09:50:28.565Z</time></trkpt><trkpt lat="38.0521717" lon="12.7707633"><ele>860.0</ele><time>2026-05-06T09:50:29.564Z</time></trkpt><trkpt lat="38.0520633" lon="12.770795"><ele>857.0</ele><time>2026-05-06T09:50:30.564Z</time></trkpt><trkpt lat="38.0519583" lon="12.7708233"><ele>854.0</ele><time>2026-05-06T09:50:31.564Z</time></trkpt><trkpt lat="38.05186" lon="12.77085"><ele>851.0</ele><time>2026-05-06T09:50:32.564Z</time></trkpt><trkpt lat="38.05177" lon="12.7708733"><ele>848.0</ele><time>2026-05-06T09:50:33.565Z</time></trkpt><trkpt lat="38.051685" lon="12.7709017"><ele>847.6666666666667</ele><time>2026-05-06T09:50:34.564Z</time></trkpt><trkpt lat="38.0516067" lon="12.7709317"><ele>847.3333333333334</ele><time>2026-05-06T09:50:35.564Z</time></trkpt><trkpt lat="38.0515283" lon="12.7709567"><ele>847.0</ele><time>2026-05-06T09:50:36.566Z</time></trkpt><trkpt lat="38.0514467" lon="12.77099"><ele>846.6666666666667</ele><time>2026-05-06T09:50:37.566Z</time></trkpt><trkpt lat="38.0513617" lon="12.7710317"><ele>846.3333333333334</ele><time>2026-05-06T09:50:38.566Z</time></trkpt><trkpt lat="38.0512733" lon="12.771075"><ele>846.0</ele><time>2026-05-06T09:50:39.563Z</time></trkpt><trkpt lat="38.0511867" lon="12.7711183"><ele>846.0</ele><time>2026-05-06T09:50:40.563Z</time></trkpt><trkpt lat="38.051105" lon="12.77116"><ele>846.0</ele><time>2026-05-06T09:50:41.565Z</time></trkpt><trkpt lat="38.0510267" lon="12.7712"><ele>846.0</ele><time>2026-05-06T09:50:42.565Z</time></trkpt><trkpt lat="38.0509483" lon="12.7712433"><ele>846.0</ele><time>2026-05-06T09:50:43.565Z</time></trkpt><trkpt lat="38.0508733" lon="12.7712883"><ele>846.0</ele><time>2026-05-06T09:50:44.565Z</time></trkpt><trkpt lat="38.0508033" lon="12.7713383"><ele>846.0</ele><time>2026-05-06T09:50:45.565Z</time></trkpt><trkpt lat="38.0507283" lon="12.77138"><ele>843.0</ele><time>2026-05-06T09:50:46.565Z</time></trkpt><trkpt lat="38.0506533" lon="12.77142"><ele>840.0</ele><time>2026-05-06T09:50:47.565Z</time></trkpt><trkpt lat="38.0505817" lon="12.7714683"><ele>837.0</ele><time>2026-05-06T09:50:48.563Z</time></trkpt><trkpt lat="38.0505083" lon="12.7715167"><ele>834.0</ele><time>2026-05-06T09:50:49.565Z</time></trkpt><trkpt lat="38.0504317" lon="12.7715633"><ele>831.0</ele><time>2026-05-06T09:50:50.566Z</time></trkpt><trkpt lat="38.0503533" lon="12.7716067"><ele>828.0</ele><time>2026-05-06T09:50:51.565Z</time></trkpt><trkpt lat="38.0502733" lon="12.7716433"><ele>828.0</ele><time>2026-05-06T09:50:52.564Z</time></trkpt><trkpt lat="38.0501983" lon="12.771685"><ele>828.0</ele><time>2026-05-06T09:50:53.564Z</time></trkpt><trkpt lat="38.050125" lon="12.771725"><ele>828.0</ele><time>2026-05-06T09:50:54.565Z</time></trkpt><trkpt lat="38.050055" lon="12.7717667"><ele>828.0</ele><time>2026-05-06T09:50:55.565Z</time></trkpt><trkpt lat="38.049985" lon="12.7718117"><ele>828.0</ele><time>2026-05-06T09:50:56.565Z</time></trkpt><trkpt lat="38.0499183" lon="12.77185"><ele>828.0</ele><time>2026-05-06T09:50:57.565Z</time></trkpt><trkpt lat="38.0498517" lon="12.771885"><ele>826.6666666666666</ele><time>2026-05-06T09:50:58.565Z</time></trkpt><trkpt lat="38.0497883" lon="12.77192"><ele>825.3333333333333</ele><time>2026-05-06T09:50:59.565Z</time></trkpt><trkpt lat="38.0497217" lon="12.7719567"><ele>824.0</ele><time>2026-05-06T09:51:00.564Z</time></trkpt><trkpt lat="38.0496583" lon="12.7719883"><ele>822.6666666666666</ele><time>2026-05-06T09:51:01.564Z</time></trkpt><trkpt lat="38.04955" lon="12.77204"><ele>821.3333333333333</ele><time>2026-05-06T09:51:03.564Z</time></trkpt><trkpt lat="38.0494767" lon="12.7720717"><ele>820.0</ele><time>2026-05-06T09:51:05.564Z</time></trkpt><trkpt lat="38.0494" lon="12.77211"><ele>820.0</ele><time>2026-05-06T09:51:08.564Z</time></trkpt><trkpt lat="38.0493217" lon="12.7721617"><ele>820.0</ele><time>2026-05-06T09:51:10.565Z</time></trkpt><trkpt lat="38.0492333" lon="12.7722317"><ele>820.0</ele><time>2026-05-06T09:51:12.568Z</time></trkpt><trkpt lat="38.04915" lon="12.77232"><ele>820.0</ele><time>2026-05-06T09:51:14.565Z</time></trkpt><trkpt lat="38.0490583" lon="12.772415"><ele>820.0</ele><time>2026-05-06T09:51:16.566Z</time></trkpt><trkpt lat="38.04895" lon="12.7724967"><ele>816.4</ele><time>2026-05-06T09:51:18.565Z</time></trkpt><trkpt lat="38.04885" lon="12.77257"><ele>812.8</ele><time>2026-05-06T09:51:20.565Z</time></trkpt><trkpt lat="38.0487683" lon="12.7726183"><ele>809.2</ele><time>2026-05-06T09:51:22.564Z</time></trkpt><trkpt lat="38.04868" lon="12.7726733"><ele>805.6</ele><time>2026-05-06T09:51:24.565Z</time></trkpt><trkpt lat="38.0486" lon="12.7727283"><ele>802.0</ele><time>2026-05-06T09:51:26.565Z</time></trkpt><trkpt lat="38.04853" lon="12.7728"><ele>801.9999999999999</ele><time>2026-05-06T09:51:28.565Z</time></trkpt><trkpt lat="38.0484717" lon="12.77289"><ele>802.0</ele><time>2026-05-06T09:51:30.565Z</time></trkpt><trkpt lat="38.048425" lon="12.772975"><ele>802.0</ele><time>2026-05-06T09:51:32.565Z</time></trkpt><trkpt lat="38.0483667" lon="12.77306"><ele>802.0</ele><time>2026-05-06T09:51:34.565Z</time></trkpt><trkpt lat="38.0483117" lon="12.7731467"><ele>801.9999999999999</ele><time>2026-05-06T09:51:36.564Z</time></trkpt><trkpt lat="38.048265" lon="12.7732283"><ele>802.0</ele><time>2026-05-06T09:51:38.564Z</time></trkpt><trkpt lat="38.04824" lon="12.7733017"><ele>795.4999999999999</ele><time>2026-05-06T09:51:41.565Z</time></trkpt><trkpt lat="38.048145" lon="12.77338"><ele>789.0</ele><time>2026-05-06T09:54:24.565Z</time></trkpt><trkpt lat="38.04809" lon="12.773445"><ele>782.5</ele><time>2026-05-06T09:54:27.565Z</time></trkpt><trkpt lat="38.04804" lon="12.773395"><ele>776.0</ele><time>2026-05-06T09:54:30.564Z</time></trkpt><trkpt lat="38.04803" lon="12.7733067"><ele>769.5</ele><time>2026-05-06T09:54:32.564Z</time></trkpt><trkpt lat="38.0480333" lon="12.7731717"><ele>763.0</ele><time>2026-05-06T09:54:34.565Z</time></trkpt><trkpt lat="38.0480317" lon="12.7730183"><ele>763.0</ele><time>2026-05-06T09:54:36.565Z</time></trkpt><trkpt lat="38.0480267" lon="12.772925"><ele>763.0</ele><time>2026-05-06T09:54:37.565Z</time></trkpt><trkpt lat="38.0480283" lon="12.772825"><ele>763.0</ele><time>2026-05-06T09:54:38.565Z</time></trkpt><trkpt lat="38.0480317" lon="12.7727317"><ele>763.0</ele><time>2026-05-06T09:54:39.563Z</time></trkpt><trkpt lat="38.0480383" lon="12.77264"><ele>763.0</ele><time>2026-05-06T09:54:40.563Z</time></trkpt><trkpt lat="38.0480483" lon="12.7725567"><ele>763.0</ele><time>2026-05-06T09:54:41.564Z</time></trkpt><trkpt lat="38.04806" lon="12.772475"><ele>763.0</ele><time>2026-05-06T09:54:42.564Z</time></trkpt><trkpt lat="38.0480733" lon="12.7723933"><ele>760.5999999999999</ele><time>2026-05-06T09:54:43.565Z</time></trkpt><trkpt lat="38.0480933" lon="12.772315"><ele>758.1999999999999</ele><time>2026-05-06T09:54:44.566Z</time></trkpt><trkpt lat="38.0481317" lon="12.7721667"><ele>755.8</ele><time>2026-05-06T09:54:46.564Z</time></trkpt><trkpt lat="38.0481683" lon="12.772015"><ele>753.4</ele><time>2026-05-06T09:54:48.563Z</time></trkpt><trkpt lat="38.048215" lon="12.7718733"><ele>751.0</ele><time>2026-05-06T09:54:50.565Z</time></trkpt><trkpt lat="38.04825" lon="12.7717667"><ele>751.0</ele><time>2026-05-06T09:54:52.564Z</time></trkpt><trkpt lat="38.0482533" lon="12.77168"><ele>751.0</ele><time>2026-05-06T09:54:54.564Z</time></trkpt><trkpt lat="38.0481817" lon="12.7716517"><ele>751.0</ele><time>2026-05-06T09:54:58.565Z</time></trkpt><trkpt lat="38.0481183" lon="12.7717217"><ele>751.0</ele><time>2026-05-06T09:55:00.564Z</time></trkpt><trkpt lat="38.0480283" lon="12.7717983"><ele>751.0</ele><time>2026-05-06T09:55:02.565Z</time></trkpt><trkpt lat="38.0479267" lon="12.77189"><ele>751.0</ele><time>2026-05-06T09:55:04.566Z</time></trkpt><trkpt lat="38.04783" lon="12.7719817"><ele>751.0</ele><time>2026-05-06T09:55:06.565Z</time></trkpt><trkpt lat="38.0477433" lon="12.772065"><ele>751.0</ele><time>2026-05-06T09:55:08.565Z</time></trkpt><trkpt lat="38.0476533" lon="12.7721567"><ele>751.0</ele><time>2026-05-06T09:55:10.564Z</time></trkpt><trkpt lat="38.0475583" lon="12.7722567"><ele>751.0</ele><time>2026-05-06T09:55:12.563Z</time></trkpt><trkpt lat="38.0474817" lon="12.7723517"><ele>751.0</ele><time>2026-05-06T09:55:14.565Z</time></trkpt><trkpt lat="38.0474033" lon="12.77245"><ele>751.0</ele><time>2026-05-06T09:55:16.565Z</time></trkpt><trkpt lat="38.0473267" lon="12.7725733"><ele>751.0</ele><time>2026-05-06T09:55:18.564Z</time></trkpt><trkpt lat="38.0472867" lon="12.7726433"><ele>751.0</ele><time>2026-05-06T09:55:19.564Z</time></trkpt><trkpt lat="38.0472467" lon="12.7727117"><ele>746.8333333333334</ele><time>2026-05-06T09:55:20.564Z</time></trkpt><trkpt lat="38.0471717" lon="12.7728333"><ele>742.6666666666667</ele><time>2026-05-06T09:55:22.563Z</time></trkpt><trkpt lat="38.0471333" lon="12.7728967"><ele>738.5</ele><time>2026-05-06T09:55:23.566Z</time></trkpt><trkpt lat="38.047055" lon="12.7730183"><ele>734.3333333333334</ele><time>2026-05-06T09:55:25.565Z</time></trkpt><trkpt lat="38.047015" lon="12.7730817"><ele>730.1666666666666</ele><time>2026-05-06T09:55:26.566Z</time></trkpt><trkpt lat="38.0469783" lon="12.7731517"><ele>726.0</ele><time>2026-05-06T09:55:27.564Z</time></trkpt><trkpt lat="38.0469417" lon="12.7732183"><ele>725.9999999999999</ele><time>2026-05-06T09:55:28.565Z</time></trkpt><trkpt lat="38.046905" lon="12.7732883"><ele>726.0</ele><time>2026-05-06T09:55:29.565Z</time></trkpt><trkpt lat="38.04687" lon="12.77336"><ele>726.0</ele><time>2026-05-06T09:55:30.564Z</time></trkpt><trkpt lat="38.04683" lon="12.773435"><ele>726.0</ele><time>2026-05-06T09:55:31.565Z</time></trkpt><trkpt lat="38.046785" lon="12.7735033"><ele>726.0</ele><time>2026-05-06T09:55:32.565Z</time></trkpt><trkpt lat="38.0467383" lon="12.7735733"><ele>725.9999999999999</ele><time>2026-05-06T09:55:33.565Z</time></trkpt><trkpt lat="38.046695" lon="12.773645"><ele>726.0</ele><time>2026-05-06T09:55:34.565Z</time></trkpt><trkpt lat="38.0466517" lon="12.7737183"><ele>719.5999999999999</ele><time>2026-05-06T09:55:35.564Z</time></trkpt><trkpt lat="38.04657" lon="12.7738467"><ele>713.2</ele><time>2026-05-06T09:55:37.565Z</time></trkpt><trkpt lat="38.04653" lon="12.773915"><ele>706.8</ele><time>2026-05-06T09:55:38.565Z</time></trkpt><trkpt lat="38.046455" lon="12.774035"><ele>700.4000000000001</ele><time>2026-05-06T09:55:40.564Z</time></trkpt><trkpt lat="38.0463833" lon="12.7741567"><ele>694.0</ele><time>2026-05-06T09:55:42.563Z</time></trkpt><trkpt lat="38.0463433" lon="12.77422"><ele>694.0</ele><time>2026-05-06T09:55:43.565Z</time></trkpt><trkpt lat="38.0462633" lon="12.774335"><ele>694.0</ele><time>2026-05-06T09:55:45.564Z</time></trkpt><trkpt lat="38.04619" lon="12.7744533"><ele>694.0</ele><time>2026-05-06T09:55:47.565Z</time></trkpt><trkpt lat="38.04613" lon="12.7745917"><ele>694.0</ele><time>2026-05-06T09:55:49.565Z</time></trkpt><trkpt lat="38.0460617" lon="12.77471"><ele>695.5</ele><time>2026-05-06T09:55:51.569Z</time></trkpt><trkpt lat="38.045995" lon="12.77482"><ele>697.0</ele><time>2026-05-06T09:55:53.565Z</time></trkpt><trkpt lat="38.045915" lon="12.7749317"><ele>698.5</ele><time>2026-05-06T09:55:55.564Z</time></trkpt><trkpt lat="38.0458417" lon="12.7750417"><ele>700.0</ele><time>2026-05-06T09:55:57.565Z</time></trkpt><trkpt lat="38.0457683" lon="12.775155"><ele>694.8333333333334</ele><time>2026-05-06T09:55:59.565Z</time></trkpt><trkpt lat="38.04571" lon="12.775245"><ele>689.6666666666667</ele><time>2026-05-06T09:56:01.564Z</time></trkpt><trkpt lat="38.0456617" lon="12.7753067"><ele>684.5</ele><time>2026-05-06T09:56:03.565Z</time></trkpt><trkpt lat="38.04559" lon="12.77533"><ele>679.3333333333334</ele><time>2026-05-06T09:56:06.565Z</time></trkpt><trkpt lat="38.0455483" lon="12.7752133"><ele>674.1666666666666</ele><time>2026-05-06T09:56:09.565Z</time></trkpt><trkpt lat="38.0455517" lon="12.7751117"><ele>669.0</ele><time>2026-05-06T09:56:11.564Z</time></trkpt><trkpt lat="38.0455567" lon="12.77501"><ele>668.6</ele><time>2026-05-06T09:56:13.564Z</time></trkpt><trkpt lat="38.0455583" lon="12.7748917"><ele>668.2</ele><time>2026-05-06T09:56:15.565Z</time></trkpt><trkpt lat="38.0455667" lon="12.77477"><ele>667.8000000000001</ele><time>2026-05-06T09:56:17.565Z</time></trkpt><trkpt lat="38.0455717" lon="12.7746267"><ele>667.4000000000001</ele><time>2026-05-06T09:56:19.565Z</time></trkpt><trkpt lat="38.0455683" lon="12.7745017"><ele>667.0</ele><time>2026-05-06T09:56:21.565Z</time></trkpt><trkpt lat="38.0455683" lon="12.7743633"><ele>665.4000000000001</ele><time>2026-05-06T09:56:23.564Z</time></trkpt><trkpt lat="38.0455717" lon="12.7742317"><ele>663.8000000000001</ele><time>2026-05-06T09:56:25.565Z</time></trkpt><trkpt lat="38.04557" lon="12.7740983"><ele>662.2</ele><time>2026-05-06T09:56:27.566Z</time></trkpt><trkpt lat="38.0455767" lon="12.7739617"><ele>660.6</ele><time>2026-05-06T09:56:29.565Z</time></trkpt><trkpt lat="38.04556" lon="12.7738067"><ele>659.0</ele><time>2026-05-06T09:56:31.564Z</time></trkpt><trkpt lat="38.045545" lon="12.773655"><ele>657.4000000000001</ele><time>2026-05-06T09:56:33.566Z</time></trkpt><trkpt lat="38.0455467" lon="12.7735117"><ele>655.8</ele><time>2026-05-06T09:56:35.565Z</time></trkpt><trkpt lat="38.0455633" lon="12.7733783"><ele>654.2</ele><time>2026-05-06T09:56:37.565Z</time></trkpt><trkpt lat="38.0455833" lon="12.77324"><ele>652.5999999999999</ele><time>2026-05-06T09:56:39.565Z</time></trkpt><trkpt lat="38.0456083" lon="12.7730933"><ele>651.0</ele><time>2026-05-06T09:56:41.565Z</time></trkpt><trkpt lat="38.0456167" lon="12.7730067"><ele>651.0</ele><time>2026-05-06T09:56:42.565Z</time></trkpt><trkpt lat="38.0456267" lon="12.7729117"><ele>651.0</ele><time>2026-05-06T09:56:43.564Z</time></trkpt><trkpt lat="38.04564" lon="12.7728183"><ele>651.0</ele><time>2026-05-06T09:56:44.566Z</time></trkpt><trkpt lat="38.045655" lon="12.77272"><ele>651.0</ele><time>2026-05-06T09:56:45.566Z</time></trkpt><trkpt lat="38.04567" lon="12.7726233"><ele>651.0</ele><time>2026-05-06T09:56:46.564Z</time></trkpt><trkpt lat="38.04568" lon="12.7725417"><ele>651.0</ele><time>2026-05-06T09:56:47.564Z</time></trkpt><trkpt lat="38.0457017" lon="12.7724017"><ele>649.8333333333334</ele><time>2026-05-06T09:56:49.565Z</time></trkpt><trkpt lat="38.0457333" lon="12.77226"><ele>648.6666666666666</ele><time>2026-05-06T09:56:51.565Z</time></trkpt><trkpt lat="38.0457467" lon="12.7721783"><ele>647.5</ele><time>2026-05-06T09:56:52.565Z</time></trkpt><trkpt lat="38.0457517" lon="12.7720917"><ele>646.3333333333333</ele><time>2026-05-06T09:56:53.565Z</time></trkpt><trkpt lat="38.0457583" lon="12.7720067"><ele>645.1666666666666</ele><time>2026-05-06T09:56:54.565Z</time></trkpt><trkpt lat="38.0457667" lon="12.7719233"><ele>644.0</ele><time>2026-05-06T09:56:55.565Z</time></trkpt><trkpt lat="38.0457817" lon="12.7717717"><ele>642.0</ele><time>2026-05-06T09:56:57.565Z</time></trkpt><trkpt lat="38.0458" lon="12.77165"><ele>640.0</ele><time>2026-05-06T09:56:59.565Z</time></trkpt><trkpt lat="38.045805" lon="12.7715567"><ele>638.0</ele><time>2026-05-06T09:57:01.564Z</time></trkpt><trkpt lat="38.0457383" lon="12.77152"><ele>636.0</ele><time>2026-05-06T09:57:04.565Z</time></trkpt><trkpt lat="38.0456667" lon="12.77158"><ele>634.0</ele><time>2026-05-06T09:57:06.563Z</time></trkpt><trkpt lat="38.0455817" lon="12.7716583"><ele>632.0</ele><time>2026-05-06T09:57:08.566Z</time></trkpt><trkpt lat="38.0455033" lon="12.7717283"><ele>632.0</ele><time>2026-05-06T09:57:10.565Z</time></trkpt><trkpt lat="38.0454217" lon="12.7717983"><ele>632.0</ele><time>2026-05-06T09:57:12.565Z</time></trkpt><trkpt lat="38.04535" lon="12.771885"><ele>632.0</ele><time>2026-05-06T09:57:14.565Z</time></trkpt><trkpt lat="38.045275" lon="12.7719817"><ele>632.0</ele><time>2026-05-06T09:57:16.563Z</time></trkpt><trkpt lat="38.0452067" lon="12.77209"><ele>632.0</ele><time>2026-05-06T09:57:18.564Z</time></trkpt><trkpt lat="38.0451633" lon="12.7721983"><ele>634.4000000000001</ele><time>2026-05-06T09:57:20.565Z</time></trkpt><trkpt lat="38.0451367" lon="12.7723183"><ele>636.8000000000001</ele><time>2026-05-06T09:57:22.564Z</time></trkpt><trkpt lat="38.0450917" lon="12.772445"><ele>639.2</ele><time>2026-05-06T09:57:24.565Z</time></trkpt><trkpt lat="38.045005" lon="12.77257"><ele>641.6</ele><time>2026-05-06T09:57:26.564Z</time></trkpt><trkpt lat="38.0449617" lon="12.772635"><ele>644.0</ele><time>2026-05-06T09:57:27.564Z</time></trkpt><trkpt lat="38.04492" lon="12.7726967"><ele>636.25</ele><time>2026-05-06T09:57:28.564Z</time></trkpt><trkpt lat="38.04485" lon="12.77282"><ele>628.5</ele><time>2026-05-06T09:57:30.564Z</time></trkpt><trkpt lat="38.0447867" lon="12.7729367"><ele>620.75</ele><time>2026-05-06T09:57:32.565Z</time></trkpt><trkpt lat="38.0447267" lon="12.7730583"><ele>613.0</ele><time>2026-05-06T09:57:34.565Z</time></trkpt><trkpt lat="38.0446617" lon="12.7731867"><ele>613.0</ele><time>2026-05-06T09:57:36.565Z</time></trkpt><trkpt lat="38.0446317" lon="12.77326"><ele>613.0</ele><time>2026-05-06T09:57:37.564Z</time></trkpt><trkpt lat="38.0445983" lon="12.7733283"><ele>613.0</ele><time>2026-05-06T09:57:38.566Z</time></trkpt><trkpt lat="38.0445167" lon="12.7734417"><ele>613.0</ele><time>2026-05-06T09:57:40.564Z</time></trkpt><trkpt lat="38.04445" lon="12.7735683"><ele>613.0</ele><time>2026-05-06T09:57:42.564Z</time></trkpt><trkpt lat="38.0444033" lon="12.7737"><ele>615.75</ele><time>2026-05-06T09:57:44.564Z</time></trkpt><trkpt lat="38.0443483" lon="12.7738283"><ele>618.5</ele><time>2026-05-06T09:57:46.564Z</time></trkpt><trkpt lat="38.04426" lon="12.77393"><ele>621.25</ele><time>2026-05-06T09:57:48.565Z</time></trkpt><trkpt lat="38.044175" lon="12.7740317"><ele>624.0</ele><time>2026-05-06T09:57:50.566Z</time></trkpt><trkpt lat="38.04409" lon="12.7741367"><ele>619.0</ele><time>2026-05-06T09:57:52.564Z</time></trkpt><trkpt lat="38.0440233" lon="12.7742333"><ele>614.0</ele><time>2026-05-06T09:57:54.564Z</time></trkpt><trkpt lat="38.043955" lon="12.7743183"><ele>609.0</ele><time>2026-05-06T09:57:56.565Z</time></trkpt><trkpt lat="38.04389" lon="12.774395"><ele>604.0</ele><time>2026-05-06T09:57:58.563Z</time></trkpt><trkpt lat="38.0438233" lon="12.774475"><ele>599.0</ele><time>2026-05-06T09:58:00.564Z</time></trkpt><trkpt lat="38.04375" lon="12.7745767"><ele>599.0</ele><time>2026-05-06T09:58:02.566Z</time></trkpt><trkpt lat="38.043665" lon="12.7746617"><ele>599.0</ele><time>2026-05-06T09:58:04.565Z</time></trkpt><trkpt lat="38.0435883" lon="12.7747283"><ele>599.0</ele><time>2026-05-06T09:58:06.563Z</time></trkpt><trkpt lat="38.0435267" lon="12.7747733"><ele>599.0</ele><time>2026-05-06T09:58:08.565Z</time></trkpt><trkpt lat="38.0434633" lon="12.77486"><ele>599.0</ele><time>2026-05-06T09:58:11.564Z</time></trkpt><trkpt lat="38.04345" lon="12.7749533"><ele>599.0</ele><time>2026-05-06T09:58:13.566Z</time></trkpt><trkpt lat="38.043445" lon="12.7750567"><ele>599.0</ele><time>2026-05-06T09:58:15.564Z</time></trkpt><trkpt lat="38.043435" lon="12.775145"><ele>599.0</ele><time>2026-05-06T09:58:17.566Z</time></trkpt><trkpt lat="38.0434083" lon="12.7753067"><ele>605.0</ele><time>2026-05-06T09:58:57.564Z</time></trkpt></trkseg><trkseg><trkpt lat="38.0434017" lon="12.775355"><ele>605.0</ele><time>2026-05-06T10:15:05.563Z</time></trkpt><trkpt lat="38.0434017" lon="12.7754433"><ele>605.0</ele><time>2026-05-06T10:15:06.564Z</time></trkpt><trkpt lat="38.0433333" lon="12.77553"><ele>605.0</ele><time>2026-05-06T10:15:15.563Z</time></trkpt><trkpt lat="38.0432583" lon="12.7754933"><ele>605.0</ele><time>2026-05-06T10:15:18.564Z</time></trkpt><trkpt lat="38.04321" lon="12.775435"><ele>605.0</ele><time>2026-05-06T10:15:20.565Z</time></trkpt><trkpt lat="38.0431567" lon="12.7753567"><ele>605.0</ele><time>2026-05-06T10:15:23.564Z</time></trkpt><trkpt lat="38.0431083" lon="12.77528"><ele>600.8333333333333</ele><time>2026-05-06T10:15:25.564Z</time></trkpt><trkpt lat="38.0430483" lon="12.7751983"><ele>596.6666666666666</ele><time>2026-05-06T10:15:27.564Z</time></trkpt><trkpt lat="38.0429917" lon="12.775125"><ele>592.5</ele><time>2026-05-06T10:15:29.562Z</time></trkpt><trkpt lat="38.0429833" lon="12.7750433"><ele>588.3333333333334</ele><time>2026-05-06T10:15:31.564Z</time></trkpt><trkpt lat="38.043" lon="12.7749517"><ele>584.1666666666667</ele><time>2026-05-06T10:15:33.563Z</time></trkpt><trkpt lat="38.043035" lon="12.77488"><ele>580.0</ele><time>2026-05-06T10:15:35.563Z</time></trkpt><trkpt lat="38.043055" lon="12.7747683"><ele>578.2</ele><time>2026-05-06T10:15:38.564Z</time></trkpt><trkpt lat="38.0430817" lon="12.7746467"><ele>576.4</ele><time>2026-05-06T10:15:40.563Z</time></trkpt><trkpt lat="38.0431083" lon="12.7745183"><ele>574.6</ele><time>2026-05-06T10:15:42.564Z</time></trkpt><trkpt lat="38.04313" lon="12.774405"><ele>572.8</ele><time>2026-05-06T10:15:44.564Z</time></trkpt><trkpt lat="38.0431483" lon="12.7742917"><ele>571.0</ele><time>2026-05-06T10:15:46.564Z</time></trkpt><trkpt lat="38.0431783" lon="12.7741917"><ele>571.0</ele><time>2026-05-06T10:15:48.563Z</time></trkpt><trkpt lat="38.0432017" lon="12.7740933"><ele>571.0</ele><time>2026-05-06T10:15:50.565Z</time></trkpt><trkpt lat="38.04315" lon="12.7740433"><ele>571.0</ele><time>2026-05-06T10:15:53.565Z</time></trkpt><trkpt lat="38.0430917" lon="12.77413"><ele>571.0</ele><time>2026-05-06T10:15:56.565Z</time></trkpt><trkpt lat="38.04306" lon="12.7742067"><ele>571.0</ele><time>2026-05-06T10:15:58.564Z</time></trkpt><trkpt lat="38.0430067" lon="12.7742867"><ele>571.0</ele><time>2026-05-06T10:16:00.562Z</time></trkpt><trkpt lat="38.0429517" lon="12.7743617"><ele>571.0</ele><time>2026-05-06T10:16:02.565Z</time></trkpt><trkpt lat="38.0428833" lon="12.77437"><ele>571.0</ele><time>2026-05-06T10:16:04.564Z</time></trkpt><trkpt lat="38.04285" lon="12.77428"><ele>571.0</ele><time>2026-05-06T10:16:07.564Z</time></trkpt><trkpt lat="38.04287" lon="12.77418"><ele>571.0</ele><time>2026-05-06T10:16:10.564Z</time></trkpt><trkpt lat="38.042865" lon="12.77405"><ele>571.0</ele><time>2026-05-06T10:16:12.564Z</time></trkpt><trkpt lat="38.04286" lon="12.773925"><ele>571.0</ele><time>2026-05-06T10:16:14.564Z</time></trkpt><trkpt lat="38.0428783" lon="12.7738133"><ele>569.0</ele><time>2026-05-06T10:16:16.564Z</time></trkpt><trkpt lat="38.0429067" lon="12.7736467"><ele>567.0</ele><time>2026-05-06T10:16:18.564Z</time></trkpt><trkpt lat="38.0429317" lon="12.77356"><ele>565.0</ele><time>2026-05-06T10:16:19.564Z</time></trkpt><trkpt lat="38.042965" lon="12.7734733"><ele>563.0</ele><time>2026-05-06T10:16:20.564Z</time></trkpt><trkpt lat="38.0429983" lon="12.77339"><ele>561.0</ele><time>2026-05-06T10:16:21.564Z</time></trkpt><trkpt lat="38.0430267" lon="12.773235"><ele>558.8333333333334</ele><time>2026-05-06T10:16:23.563Z</time></trkpt><trkpt lat="38.0430283" lon="12.7731533"><ele>556.6666666666666</ele><time>2026-05-06T10:16:24.564Z</time></trkpt><trkpt lat="38.0430433" lon="12.7730717"><ele>554.5</ele><time>2026-05-06T10:16:25.564Z</time></trkpt><trkpt lat="38.0430633" lon="12.7729933"><ele>552.3333333333333</ele><time>2026-05-06T10:16:26.564Z</time></trkpt><trkpt lat="38.0430933" lon="12.772845"><ele>550.1666666666666</ele><time>2026-05-06T10:16:28.563Z</time></trkpt><trkpt lat="38.0430983" lon="12.772765"><ele>548.0</ele><time>2026-05-06T10:16:29.564Z</time></trkpt><trkpt lat="38.043125" lon="12.77262"><ele>546.6666666666666</ele><time>2026-05-06T10:16:31.564Z</time></trkpt><trkpt lat="38.0431483" lon="12.7724683"><ele>545.3333333333333</ele><time>2026-05-06T10:16:33.564Z</time></trkpt><trkpt lat="38.0431617" lon="12.772385"><ele>544.0</ele><time>2026-05-06T10:16:34.563Z</time></trkpt><trkpt lat="38.0431783" lon="12.772305"><ele>542.6666666666666</ele><time>2026-05-06T10:16:35.564Z</time></trkpt><trkpt lat="38.0431917" lon="12.7722267"><ele>541.3333333333334</ele><time>2026-05-06T10:16:36.565Z</time></trkpt><trkpt lat="38.0432183" lon="12.7720683"><ele>540.0</ele><time>2026-05-06T10:16:38.565Z</time></trkpt><trkpt lat="38.0432333" lon="12.7719867"><ele>540.0</ele><time>2026-05-06T10:16:39.564Z</time></trkpt><trkpt lat="38.04325" lon="12.7719033"><ele>540.0</ele><time>2026-05-06T10:16:40.564Z</time></trkpt><trkpt lat="38.0432783" lon="12.771755"><ele>540.0</ele><time>2026-05-06T10:16:42.564Z</time></trkpt><trkpt lat="38.04328" lon="12.7716467"><ele>540.0</ele><time>2026-05-06T10:16:44.564Z</time></trkpt><trkpt lat="38.04319" lon="12.771635"><ele>540.0</ele><time>2026-05-06T10:16:47.566Z</time></trkpt><trkpt lat="38.0431217" lon="12.7716917"><ele>540.0</ele><time>2026-05-06T10:16:49.565Z</time></trkpt><trkpt lat="38.04306" lon="12.771785"><ele>540.0</ele><time>2026-05-06T10:16:51.564Z</time></trkpt><trkpt lat="38.04299" lon="12.7718683"><ele>540.0</ele><time>2026-05-06T10:16:53.564Z</time></trkpt><trkpt lat="38.0428833" lon="12.77192"><ele>540.0</ele><time>2026-05-06T10:16:55.564Z</time></trkpt><trkpt lat="38.042825" lon="12.771955"><ele>540.0</ele><time>2026-05-06T10:16:56.564Z</time></trkpt><trkpt lat="38.0427683" lon="12.771995"><ele>540.0</ele><time>2026-05-06T10:16:57.564Z</time></trkpt><trkpt lat="38.0426583" lon="12.7720717"><ele>540.0</ele><time>2026-05-06T10:16:59.565Z</time></trkpt><trkpt lat="38.04255" lon="12.772155"><ele>540.0</ele><time>2026-05-06T10:17:01.564Z</time></trkpt><trkpt lat="38.042495" lon="12.7722033"><ele>540.0</ele><time>2026-05-06T10:17:02.564Z</time></trkpt><trkpt lat="38.0424417" lon="12.7722483"><ele>540.0</ele><time>2026-05-06T10:17:03.565Z</time></trkpt><trkpt lat="38.0423883" lon="12.7722933"><ele>540.0</ele><time>2026-05-06T10:17:04.563Z</time></trkpt><trkpt lat="38.0422917" lon="12.77235"><ele>540.0</ele><time>2026-05-06T10:17:06.563Z</time></trkpt><trkpt lat="38.04219" lon="12.772345"><ele>536.8</ele><time>2026-05-06T10:17:08.564Z</time></trkpt><trkpt lat="38.0420767" lon="12.7723467"><ele>533.6</ele><time>2026-05-06T10:17:10.566Z</time></trkpt><trkpt lat="38.0419883" lon="12.77237"><ele>530.4</ele><time>2026-05-06T10:17:12.565Z</time></trkpt><trkpt lat="38.0418517" lon="12.772285"><ele>527.2</ele><time>2026-05-06T10:18:34.563Z</time></trkpt><trkpt lat="38.0418817" lon="12.772175"><ele>524.0</ele><time>2026-05-06T10:18:36.564Z</time></trkpt><trkpt lat="38.041915" lon="12.7721033"><ele>524.0</ele><time>2026-05-06T10:18:37.563Z</time></trkpt><trkpt lat="38.0419483" lon="12.77203"><ele>524.0</ele><time>2026-05-06T10:18:38.565Z</time></trkpt><trkpt lat="38.0419933" lon="12.7719017"><ele>524.0</ele><time>2026-05-06T10:18:40.564Z</time></trkpt><trkpt lat="38.0419983" lon="12.7717283"><ele>524.0</ele><time>2026-05-06T10:18:42.564Z</time></trkpt><trkpt lat="38.0419883" lon="12.7716167"><ele>524.0</ele><time>2026-05-06T10:18:43.565Z</time></trkpt><trkpt lat="38.0419717" lon="12.77151"><ele>523.4</ele><time>2026-05-06T10:18:44.564Z</time></trkpt><trkpt lat="38.0419617" lon="12.7714233"><ele>522.8</ele><time>2026-05-06T10:18:45.564Z</time></trkpt><trkpt lat="38.0419911" lon="12.7712761"><ele>522.2</ele><time>2026-05-06T10:18:47.564Z</time></trkpt><trkpt lat="38.0420581" lon="12.7711519"><ele>521.6</ele><time>2026-05-06T10:18:49.564Z</time></trkpt><trkpt lat="38.0420813" lon="12.7709818"><ele>521.0</ele><time>2026-05-06T10:18:51.564Z</time></trkpt><trkpt lat="38.0420819" lon="12.7708891"><ele>518.4</ele><time>2026-05-06T10:18:52.564Z</time></trkpt><trkpt lat="38.0420767" lon="12.770802"><ele>515.8</ele><time>2026-05-06T10:18:53.563Z</time></trkpt><trkpt lat="38.0420684" lon="12.7707171"><ele>513.1999999999999</ele><time>2026-05-06T10:18:54.565Z</time></trkpt><trkpt lat="38.0420899" lon="12.7705738"><ele>510.59999999999997</ele><time>2026-05-06T10:18:56.564Z</time></trkpt><trkpt lat="38.0421805" lon="12.7704696"><ele>508.0</ele><time>2026-05-06T10:18:58.564Z</time></trkpt><trkpt lat="38.0422478" lon="12.77042"><ele>508.00000000000006</ele><time>2026-05-06T10:18:59.564Z</time></trkpt><trkpt lat="38.0423143" lon="12.7703619"><ele>508.0</ele><time>2026-05-06T10:19:00.563Z</time></trkpt><trkpt lat="38.042383" lon="12.7702931"><ele>508.0</ele><time>2026-05-06T10:19:01.564Z</time></trkpt><trkpt lat="38.042455" lon="12.7702237"><ele>508.0</ele><time>2026-05-06T10:19:02.564Z</time></trkpt><trkpt lat="38.0425265" lon="12.7701466"><ele>508.00000000000006</ele><time>2026-05-06T10:19:03.564Z</time></trkpt><trkpt lat="38.0425985" lon="12.7700646"><ele>508.0</ele><time>2026-05-06T10:19:04.563Z</time></trkpt><trkpt lat="38.0426682" lon="12.7699768"><ele>506.79999999999995</ele><time>2026-05-06T10:19:05.564Z</time></trkpt><trkpt lat="38.0427379" lon="12.7698875"><ele>505.59999999999997</ele><time>2026-05-06T10:19:06.564Z</time></trkpt><trkpt lat="38.042805" lon="12.7697938"><ele>504.40000000000003</ele><time>2026-05-06T10:19:07.564Z</time></trkpt><trkpt lat="38.0428711" lon="12.7696928"><ele>503.20000000000005</ele><time>2026-05-06T10:19:08.565Z</time></trkpt><trkpt lat="38.0429445" lon="12.7695939"><ele>502.0</ele><time>2026-05-06T10:19:09.565Z</time></trkpt><trkpt lat="38.0430269" lon="12.7695043"><ele>502.0</ele><time>2026-05-06T10:19:10.563Z</time></trkpt><trkpt lat="38.0431035" lon="12.7694198"><ele>502.00000000000006</ele><time>2026-05-06T10:19:11.563Z</time></trkpt><trkpt lat="38.0431656" lon="12.769333"><ele>502.00000000000006</ele><time>2026-05-06T10:19:12.564Z</time></trkpt><trkpt lat="38.043219" lon="12.7692319"><ele>502.0</ele><time>2026-05-06T10:19:13.565Z</time></trkpt><trkpt lat="38.0432687" lon="12.7691127"><ele>502.0</ele><time>2026-05-06T10:19:14.565Z</time></trkpt><trkpt lat="38.043317" lon="12.7689804"><ele>502.20000000000005</ele><time>2026-05-06T10:19:15.564Z</time></trkpt><trkpt lat="38.0433729" lon="12.7688503"><ele>502.40000000000003</ele><time>2026-05-06T10:19:16.564Z</time></trkpt><trkpt lat="38.0434312" lon="12.7687251"><ele>502.59999999999997</ele><time>2026-05-06T10:19:17.564Z</time></trkpt><trkpt lat="38.0434771" lon="12.7686023"><ele>502.79999999999995</ele><time>2026-05-06T10:19:18.566Z</time></trkpt><trkpt lat="38.0435129" lon="12.7684764"><ele>503.0</ele><time>2026-05-06T10:19:19.564Z</time></trkpt><trkpt lat="38.0435481" lon="12.7683415"><ele>498.5</ele><time>2026-05-06T10:19:20.565Z</time></trkpt><trkpt lat="38.0435972" lon="12.7682017"><ele>494.0</ele><time>2026-05-06T10:19:21.564Z</time></trkpt><trkpt lat="38.0436546" lon="12.7680615"><ele>489.5</ele><time>2026-05-06T10:19:22.564Z</time></trkpt><trkpt lat="38.0437093" lon="12.7679176"><ele>485.0</ele><time>2026-05-06T10:19:23.564Z</time></trkpt><trkpt lat="38.0437502" lon="12.7677656"><ele>483.0</ele><time>2026-05-06T10:19:24.564Z</time></trkpt><trkpt lat="38.0437753" lon="12.7676061"><ele>481.0</ele><time>2026-05-06T10:19:25.563Z</time></trkpt><trkpt lat="38.0437832" lon="12.7674411"><ele>479.0</ele><time>2026-05-06T10:19:26.565Z</time></trkpt><trkpt lat="38.0437756" lon="12.7672721"><ele>477.0</ele><time>2026-05-06T10:19:27.564Z</time></trkpt><trkpt lat="38.0437546" lon="12.7671015"><ele>477.0</ele><time>2026-05-06T10:19:28.565Z</time></trkpt><trkpt lat="38.0437258" lon="12.7669361"><ele>477.0</ele><time>2026-05-06T10:19:29.565Z</time></trkpt><trkpt lat="38.0437029" lon="12.7667832"><ele>477.0</ele><time>2026-05-06T10:19:30.564Z</time></trkpt><trkpt lat="38.0436932" lon="12.7666382"><ele>477.0</ele><time>2026-05-06T10:19:31.567Z</time></trkpt><trkpt lat="38.0437028" lon="12.7665107"><ele>476.6666666666667</ele><time>2026-05-06T10:19:32.563Z</time></trkpt><trkpt lat="38.0437227" lon="12.7663993"><ele>476.33333333333337</ele><time>2026-05-06T10:19:33.564Z</time></trkpt><trkpt lat="38.0437528" lon="12.7663158"><ele>476.0</ele><time>2026-05-06T10:19:34.564Z</time></trkpt><trkpt lat="38.0438238" lon="12.7662165"><ele>475.6666666666667</ele><time>2026-05-06T10:19:36.564Z</time></trkpt><trkpt lat="38.0437424" lon="12.7662089"><ele>475.33333333333337</ele><time>2026-05-06T10:19:42.563Z</time></trkpt><trkpt lat="38.0436588" lon="12.7662779"><ele>475.0</ele><time>2026-05-06T10:19:43.564Z</time></trkpt><trkpt lat="38.0435951" lon="12.7663485"><ele>475.0</ele><time>2026-05-06T10:19:44.564Z</time></trkpt><trkpt lat="38.0435351" lon="12.7664336"><ele>475.0</ele><time>2026-05-06T10:19:45.563Z</time></trkpt><trkpt lat="38.0434827" lon="12.7665242"><ele>475.0</ele><time>2026-05-06T10:19:46.565Z</time></trkpt><trkpt lat="38.0434191" lon="12.7666262"><ele>475.0</ele><time>2026-05-06T10:19:47.564Z</time></trkpt><trkpt lat="38.0433546" lon="12.7667234"><ele>475.0</ele><time>2026-05-06T10:19:48.565Z</time></trkpt><trkpt lat="38.043286" lon="12.7668179"><ele>470.8</ele><time>2026-05-06T10:19:49.564Z</time></trkpt><trkpt lat="38.0432179" lon="12.7669113"><ele>466.6</ele><time>2026-05-06T10:19:50.563Z</time></trkpt><trkpt lat="38.0431513" lon="12.7670052"><ele>462.4</ele><time>2026-05-06T10:19:51.563Z</time></trkpt><trkpt lat="38.0430765" lon="12.7670941"><ele>458.2</ele><time>2026-05-06T10:19:52.564Z</time></trkpt><trkpt lat="38.0430018" lon="12.7671837"><ele>454.0</ele><time>2026-05-06T10:19:53.563Z</time></trkpt><trkpt lat="38.0429315" lon="12.7672781"><ele>454.0</ele><time>2026-05-06T10:19:54.563Z</time></trkpt><trkpt lat="38.0428611" lon="12.7673779"><ele>454.0</ele><time>2026-05-06T10:19:55.563Z</time></trkpt><trkpt lat="38.0427873" lon="12.7674814"><ele>454.0</ele><time>2026-05-06T10:19:56.565Z</time></trkpt><trkpt lat="38.0427125" lon="12.7675919"><ele>454.0</ele><time>2026-05-06T10:19:57.563Z</time></trkpt><trkpt lat="38.042638" lon="12.7677087"><ele>454.0</ele><time>2026-05-06T10:19:58.563Z</time></trkpt><trkpt lat="38.0425645" lon="12.7678205"><ele>455.79999999999995</ele><time>2026-05-06T10:19:59.563Z</time></trkpt><trkpt lat="38.0424968" lon="12.7679252"><ele>457.59999999999997</ele><time>2026-05-06T10:20:00.564Z</time></trkpt><trkpt lat="38.0424325" lon="12.768019"><ele>459.4</ele><time>2026-05-06T10:20:01.565Z</time></trkpt><trkpt lat="38.0423666" lon="12.768104"><ele>461.2</ele><time>2026-05-06T10:20:02.564Z</time></trkpt><trkpt lat="38.0422944" lon="12.7681786"><ele>463.0</ele><time>2026-05-06T10:20:03.564Z</time></trkpt><trkpt lat="38.0422167" lon="12.7682496"><ele>461.4</ele><time>2026-05-06T10:20:04.564Z</time></trkpt><trkpt lat="38.042137" lon="12.7683235"><ele>459.79999999999995</ele><time>2026-05-06T10:20:05.564Z</time></trkpt><trkpt lat="38.0420538" lon="12.7684013"><ele>458.2</ele><time>2026-05-06T10:20:06.565Z</time></trkpt><trkpt lat="38.0419604" lon="12.7684755"><ele>456.6</ele><time>2026-05-06T10:20:07.563Z</time></trkpt><trkpt lat="38.0418571" lon="12.7685454"><ele>455.0</ele><time>2026-05-06T10:20:08.564Z</time></trkpt><trkpt lat="38.0417549" lon="12.7686142"><ele>455.0</ele><time>2026-05-06T10:20:09.564Z</time></trkpt><trkpt lat="38.0416605" lon="12.7686795"><ele>455.0</ele><time>2026-05-06T10:20:10.563Z</time></trkpt><trkpt lat="38.0415679" lon="12.7687437"><ele>455.0</ele><time>2026-05-06T10:20:11.565Z</time></trkpt><trkpt lat="38.0414801" lon="12.7688058"><ele>455.0</ele><time>2026-05-06T10:20:12.564Z</time></trkpt><trkpt lat="38.0414066" lon="12.768864"><ele>455.0</ele><time>2026-05-06T10:20:13.564Z</time></trkpt><trkpt lat="38.0413479" lon="12.7689235"><ele>450.99999999999994</ele><time>2026-05-06T10:20:14.565Z</time></trkpt><trkpt lat="38.0412645" lon="12.7689892"><ele>447.0</ele><time>2026-05-06T10:20:16.566Z</time></trkpt><trkpt lat="38.0412043" lon="12.7689473"><ele>443.0</ele><time>2026-05-06T10:20:18.564Z</time></trkpt><trkpt lat="38.041183" lon="12.7688132"><ele>439.0</ele><time>2026-05-06T10:20:20.564Z</time></trkpt><trkpt lat="38.0411844" lon="12.7687245"><ele>434.99999999999994</ele><time>2026-05-06T10:20:21.564Z</time></trkpt><trkpt lat="38.041187" lon="12.7686408"><ele>431.0</ele><time>2026-05-06T10:20:22.565Z</time></trkpt><trkpt lat="38.0411885" lon="12.7685608"><ele>429.0</ele><time>2026-05-06T10:20:23.563Z</time></trkpt><trkpt lat="38.0411904" lon="12.7684787"><ele>427.0</ele><time>2026-05-06T10:20:24.566Z</time></trkpt><trkpt lat="38.0411942" lon="12.7683922"><ele>425.0</ele><time>2026-05-06T10:20:25.564Z</time></trkpt><trkpt lat="38.0411969" lon="12.768302"><ele>423.0</ele><time>2026-05-06T10:20:26.564Z</time></trkpt><trkpt lat="38.0411926" lon="12.7682125"><ele>421.0</ele><time>2026-05-06T10:20:27.564Z</time></trkpt><trkpt lat="38.0411744" lon="12.768127"><ele>419.0</ele><time>2026-05-06T10:20:28.564Z</time></trkpt><trkpt lat="38.0411387" lon="12.7680539"><ele>417.0</ele><time>2026-05-06T10:20:29.563Z</time></trkpt><trkpt lat="38.0410693" lon="12.7679305"><ele>417.0</ele><time>2026-05-06T10:20:31.564Z</time></trkpt><trkpt lat="38.0409959" lon="12.7678485"><ele>417.0</ele><time>2026-05-06T10:20:33.563Z</time></trkpt><trkpt lat="38.0408952" lon="12.7678316"><ele>417.0</ele><time>2026-05-06T10:20:35.566Z</time></trkpt><trkpt lat="38.040786" lon="12.7678764"><ele>417.0</ele><time>2026-05-06T10:20:37.564Z</time></trkpt><trkpt lat="38.0406983" lon="12.7679408"><ele>417.0</ele><time>2026-05-06T10:20:39.564Z</time></trkpt><trkpt lat="38.0406137" lon="12.7680083"><ele>412.6666666666667</ele><time>2026-05-06T10:20:41.563Z</time></trkpt><trkpt lat="38.0405375" lon="12.7680684"><ele>408.33333333333337</ele><time>2026-05-06T10:20:43.564Z</time></trkpt><trkpt lat="38.0404346" lon="12.7681542"><ele>404.0</ele><time>2026-05-06T10:20:45.565Z</time></trkpt><trkpt lat="38.0403713" lon="12.7682058"><ele>399.6666666666667</ele><time>2026-05-06T10:20:46.564Z</time></trkpt><trkpt lat="38.0403042" lon="12.7682568"><ele>395.33333333333337</ele><time>2026-05-06T10:20:47.564Z</time></trkpt><trkpt lat="38.0402422" lon="12.7682998"><ele>391.0</ele><time>2026-05-06T10:20:48.564Z</time></trkpt><trkpt lat="38.0401821" lon="12.7683341"><ele>390.99999999999994</ele><time>2026-05-06T10:20:49.564Z</time></trkpt><trkpt lat="38.0401188" lon="12.7683589"><ele>391.0</ele><time>2026-05-06T10:20:50.564Z</time></trkpt><trkpt lat="38.0400516" lon="12.7683774"><ele>391.0</ele><time>2026-05-06T10:20:51.566Z</time></trkpt><trkpt lat="38.0399835" lon="12.7683936"><ele>391.0</ele><time>2026-05-06T10:20:52.564Z</time></trkpt><trkpt lat="38.0399128" lon="12.7684126"><ele>391.0</ele><time>2026-05-06T10:20:53.564Z</time></trkpt><trkpt lat="38.0398373" lon="12.7684362"><ele>390.99999999999994</ele><time>2026-05-06T10:20:54.566Z</time></trkpt><trkpt lat="38.0397616" lon="12.7684613"><ele>391.0</ele><time>2026-05-06T10:20:55.564Z</time></trkpt><trkpt lat="38.0396868" lon="12.7684863"><ele>389.1666666666667</ele><time>2026-05-06T10:20:56.564Z</time></trkpt><trkpt lat="38.0396129" lon="12.7685132"><ele>387.33333333333337</ele><time>2026-05-06T10:20:57.564Z</time></trkpt><trkpt lat="38.039541" lon="12.7685353"><ele>385.5</ele><time>2026-05-06T10:20:58.564Z</time></trkpt><trkpt lat="38.0394708" lon="12.7685536"><ele>383.6666666666667</ele><time>2026-05-06T10:20:59.564Z</time></trkpt><trkpt lat="38.0394035" lon="12.768568"><ele>381.83333333333337</ele><time>2026-05-06T10:21:00.564Z</time></trkpt><trkpt lat="38.039295" lon="12.7685725"><ele>380.0</ele><time>2026-05-06T10:21:02.564Z</time></trkpt><trkpt lat="38.0392393" lon="12.7684977"><ele>378.5</ele><time>2026-05-06T10:21:04.565Z</time></trkpt><trkpt lat="38.0392498" lon="12.7683742"><ele>377.0</ele><time>2026-05-06T10:21:06.565Z</time></trkpt><trkpt lat="38.0392754" lon="12.7682985"><ele>375.5</ele><time>2026-05-06T10:21:07.563Z</time></trkpt><trkpt lat="38.0393045" lon="12.7682157"><ele>374.0</ele><time>2026-05-06T10:21:08.564Z</time></trkpt><trkpt lat="38.0393317" lon="12.7681266"><ele>372.5</ele><time>2026-05-06T10:21:09.564Z</time></trkpt><trkpt lat="38.0393588" lon="12.7680272"><ele>371.0</ele><time>2026-05-06T10:21:10.563Z</time></trkpt><trkpt lat="38.0393878" lon="12.7679212"><ele>371.0</ele><time>2026-05-06T10:21:11.564Z</time></trkpt><trkpt lat="38.0394275" lon="12.7678164"><ele>371.0</ele><time>2026-05-06T10:21:12.565Z</time></trkpt><trkpt lat="38.0394767" lon="12.767715"><ele>371.0</ele><time>2026-05-06T10:21:13.565Z</time></trkpt><trkpt lat="38.0395217" lon="12.7676133"><ele>371.0</ele><time>2026-05-06T10:21:14.564Z</time></trkpt><trkpt lat="38.0395617" lon="12.7675117"><ele>371.0</ele><time>2026-05-06T10:21:15.564Z</time></trkpt><trkpt lat="38.0396033" lon="12.7674083"><ele>369.4</ele><time>2026-05-06T10:21:16.564Z</time></trkpt><trkpt lat="38.0396483" lon="12.7673033"><ele>367.8</ele><time>2026-05-06T10:21:17.564Z</time></trkpt><trkpt lat="38.039695" lon="12.7671967"><ele>366.2</ele><time>2026-05-06T10:21:18.564Z</time></trkpt><trkpt lat="38.0397483" lon="12.7670933"><ele>364.59999999999997</ele><time>2026-05-06T10:21:19.564Z</time></trkpt><trkpt lat="38.0398067" lon="12.767"><ele>363.0</ele><time>2026-05-06T10:21:20.564Z</time></trkpt><trkpt lat="38.0398667" lon="12.76691"><ele>364.8333333333333</ele><time>2026-05-06T10:21:21.563Z</time></trkpt><trkpt lat="38.0399183" lon="12.7668217"><ele>366.6666666666667</ele><time>2026-05-06T10:21:22.564Z</time></trkpt><trkpt lat="38.0399583" lon="12.7667317"><ele>368.5</ele><time>2026-05-06T10:21:23.564Z</time></trkpt><trkpt lat="38.0399817" lon="12.7666417"><ele>370.33333333333337</ele><time>2026-05-06T10:21:24.564Z</time></trkpt><trkpt lat="38.04" lon="12.76655"><ele>372.1666666666667</ele><time>2026-05-06T10:21:25.564Z</time></trkpt><trkpt lat="38.040025" lon="12.7664667"><ele>374.0</ele><time>2026-05-06T10:21:26.564Z</time></trkpt><trkpt lat="38.0400567" lon="12.7663917"><ele>374.0</ele><time>2026-05-06T10:21:27.564Z</time></trkpt><trkpt lat="38.0400883" lon="12.7663133"><ele>374.0</ele><time>2026-05-06T10:21:28.565Z</time></trkpt><trkpt lat="38.04011" lon="12.7662333"><ele>374.0</ele><time>2026-05-06T10:21:29.564Z</time></trkpt><trkpt lat="38.0401167" lon="12.7661533"><ele>374.0</ele><time>2026-05-06T10:21:30.564Z</time></trkpt><trkpt lat="38.04011" lon="12.7660717"><ele>374.0</ele><time>2026-05-06T10:21:31.564Z</time></trkpt><trkpt lat="38.0400933" lon="12.7659917"><ele>374.0</ele><time>2026-05-06T10:21:32.565Z</time></trkpt><trkpt lat="38.0400783" lon="12.7659033"><ele>374.0</ele><time>2026-05-06T10:21:33.564Z</time></trkpt><trkpt lat="38.0400633" lon="12.7658083"><ele>372.83333333333337</ele><time>2026-05-06T10:21:34.563Z</time></trkpt><trkpt lat="38.0400433" lon="12.765715"><ele>371.6666666666667</ele><time>2026-05-06T10:21:35.564Z</time></trkpt><trkpt lat="38.0400183" lon="12.7656317"><ele>370.5</ele><time>2026-05-06T10:21:36.564Z</time></trkpt><trkpt lat="38.0399667" lon="12.765525"><ele>369.3333333333333</ele><time>2026-05-06T10:21:38.564Z</time></trkpt><trkpt lat="38.03991" lon="12.76542"><ele>368.16666666666663</ele><time>2026-05-06T10:21:40.563Z</time></trkpt><trkpt lat="38.03986" lon="12.7653167"><ele>367.0</ele><time>2026-05-06T10:21:42.563Z</time></trkpt><trkpt lat="38.039805" lon="12.7652183"><ele>359.20000000000005</ele><time>2026-05-06T10:21:44.565Z</time></trkpt><trkpt lat="38.0397567" lon="12.7651383"><ele>351.4</ele><time>2026-05-06T10:21:46.564Z</time></trkpt><trkpt lat="38.0397033" lon="12.7650583"><ele>343.6</ele><time>2026-05-06T10:21:48.564Z</time></trkpt><trkpt lat="38.039655" lon="12.76496"><ele>335.79999999999995</ele><time>2026-05-06T10:21:50.563Z</time></trkpt><trkpt lat="38.0396117" lon="12.76484"><ele>328.0</ele><time>2026-05-06T10:21:52.564Z</time></trkpt><trkpt lat="38.0395983" lon="12.7647067"><ele>328.0</ele><time>2026-05-06T10:21:54.564Z</time></trkpt><trkpt lat="38.0396075" lon="12.7646252"><ele>328.0</ele><time>2026-05-06T10:21:55.564Z</time></trkpt><trkpt lat="38.0396227" lon="12.7645359"><ele>328.0</ele><time>2026-05-06T10:21:56.565Z</time></trkpt><trkpt lat="38.0396424" lon="12.7644396"><ele>328.0</ele><time>2026-05-06T10:21:57.564Z</time></trkpt><trkpt lat="38.0396629" lon="12.7643376"><ele>328.0</ele><time>2026-05-06T10:21:58.564Z</time></trkpt><trkpt lat="38.0396732" lon="12.7642364"><ele>328.0</ele><time>2026-05-06T10:21:59.564Z</time></trkpt><trkpt lat="38.0396798" lon="12.764144"><ele>326.79999999999995</ele><time>2026-05-06T10:22:00.564Z</time></trkpt><trkpt lat="38.0396811" lon="12.7640586"><ele>325.6</ele><time>2026-05-06T10:22:01.564Z</time></trkpt><trkpt lat="38.0396718" lon="12.7639172"><ele>324.4</ele><time>2026-05-06T10:22:03.565Z</time></trkpt><trkpt lat="38.039633" lon="12.7638024"><ele>323.20000000000005</ele><time>2026-05-06T10:22:05.564Z</time></trkpt><trkpt lat="38.039569" lon="12.76373"><ele>322.0</ele><time>2026-05-06T10:22:07.563Z</time></trkpt><trkpt lat="38.0394805" lon="12.7637479"><ele>322.0</ele><time>2026-05-06T10:22:09.565Z</time></trkpt><trkpt lat="38.0393962" lon="12.7638297"><ele>322.0</ele><time>2026-05-06T10:22:11.564Z</time></trkpt><trkpt lat="38.0393139" lon="12.7639074"><ele>322.0</ele><time>2026-05-06T10:22:13.564Z</time></trkpt><trkpt lat="38.0392159" lon="12.7639318"><ele>322.0</ele><time>2026-05-06T10:22:15.564Z</time></trkpt><trkpt lat="38.0391122" lon="12.7639188"><ele>322.0</ele><time>2026-05-06T10:22:17.563Z</time></trkpt><trkpt lat="38.0389989" lon="12.763866"><ele>318.42857142857144</ele><time>2026-05-06T10:22:19.564Z</time></trkpt><trkpt lat="38.0389335" lon="12.7638343"><ele>314.8571428571429</ele><time>2026-05-06T10:22:20.566Z</time></trkpt><trkpt lat="38.0388652" lon="12.7637994"><ele>311.2857142857143</ele><time>2026-05-06T10:22:21.564Z</time></trkpt><trkpt lat="38.0387974" lon="12.76377"><ele>307.7142857142857</ele><time>2026-05-06T10:22:22.564Z</time></trkpt><trkpt lat="38.0387287" lon="12.7637437"><ele>304.14285714285717</ele><time>2026-05-06T10:22:23.564Z</time></trkpt><trkpt lat="38.0386541" lon="12.7637244"><ele>300.57142857142856</ele><time>2026-05-06T10:22:24.564Z</time></trkpt><trkpt lat="38.0385823" lon="12.7637075"><ele>297.0</ele><time>2026-05-06T10:22:25.564Z</time></trkpt><trkpt lat="38.0385118" lon="12.7636915"><ele>297.0</ele><time>2026-05-06T10:22:26.565Z</time></trkpt><trkpt lat="38.0384419" lon="12.7636759"><ele>297.0</ele><time>2026-05-06T10:22:27.564Z</time></trkpt><trkpt lat="38.0383675" lon="12.7636562"><ele>297.0</ele><time>2026-05-06T10:22:28.564Z</time></trkpt><trkpt lat="38.0382913" lon="12.7636325"><ele>297.0</ele><time>2026-05-06T10:22:29.564Z</time></trkpt><trkpt lat="38.0382145" lon="12.7636059"><ele>297.0</ele><time>2026-05-06T10:22:30.562Z</time></trkpt><trkpt lat="38.0381346" lon="12.7635859"><ele>297.0</ele><time>2026-05-06T10:22:31.564Z</time></trkpt><trkpt lat="38.0380542" lon="12.7635648"><ele>294.1666666666667</ele><time>2026-05-06T10:22:32.565Z</time></trkpt><trkpt lat="38.0379772" lon="12.763547"><ele>291.3333333333333</ele><time>2026-05-06T10:22:33.565Z</time></trkpt><trkpt lat="38.0379023" lon="12.7635291"><ele>288.5</ele><time>2026-05-06T10:22:34.564Z</time></trkpt><trkpt lat="38.0378261" lon="12.7635175"><ele>285.66666666666663</ele><time>2026-05-06T10:22:35.563Z</time></trkpt><trkpt lat="38.0377527" lon="12.7634916"><ele>282.8333333333333</ele><time>2026-05-06T10:22:36.564Z</time></trkpt><trkpt lat="38.0376801" lon="12.7634541"><ele>280.0</ele><time>2026-05-06T10:22:37.564Z</time></trkpt><trkpt lat="38.0376064" lon="12.7634236"><ele>280.0</ele><time>2026-05-06T10:22:38.564Z</time></trkpt><trkpt lat="38.0375327" lon="12.763403"><ele>280.0</ele><time>2026-05-06T10:22:39.565Z</time></trkpt><trkpt lat="38.0374537" lon="12.7633883"><ele>280.0</ele><time>2026-05-06T10:22:40.564Z</time></trkpt><trkpt lat="38.0373712" lon="12.7633791"><ele>280.0</ele><time>2026-05-06T10:22:41.564Z</time></trkpt><trkpt lat="38.037289" lon="12.7633699"><ele>280.0</ele><time>2026-05-06T10:22:42.564Z</time></trkpt><trkpt lat="38.0372055" lon="12.7633464"><ele>280.0</ele><time>2026-05-06T10:22:43.563Z</time></trkpt><trkpt lat="38.0371204" lon="12.7633246"><ele>277.16666666666663</ele><time>2026-05-06T10:22:44.566Z</time></trkpt><trkpt lat="38.0370342" lon="12.7633018"><ele>274.3333333333333</ele><time>2026-05-06T10:22:45.564Z</time></trkpt><trkpt lat="38.036947" lon="12.7632758"><ele>271.5</ele><time>2026-05-06T10:22:46.566Z</time></trkpt><trkpt lat="38.0368589" lon="12.7632464"><ele>268.6666666666667</ele><time>2026-05-06T10:22:47.563Z</time></trkpt><trkpt lat="38.0367742" lon="12.7632174"><ele>265.83333333333337</ele><time>2026-05-06T10:22:48.564Z</time></trkpt><trkpt lat="38.0366962" lon="12.7631919"><ele>263.0</ele><time>2026-05-06T10:22:49.564Z</time></trkpt><trkpt lat="38.0366214" lon="12.7631697"><ele>260.6666666666667</ele><time>2026-05-06T10:22:50.569Z</time></trkpt><trkpt lat="38.0365448" lon="12.7631492"><ele>258.33333333333337</ele><time>2026-05-06T10:22:51.564Z</time></trkpt><trkpt lat="38.036465" lon="12.7631321"><ele>256.0</ele><time>2026-05-06T10:22:52.564Z</time></trkpt><trkpt lat="38.0363836" lon="12.7631162"><ele>253.66666666666669</ele><time>2026-05-06T10:22:53.565Z</time></trkpt><trkpt lat="38.0362988" lon="12.7631066"><ele>251.33333333333334</ele><time>2026-05-06T10:22:54.564Z</time></trkpt><trkpt lat="38.0362109" lon="12.7630967"><ele>249.0</ele><time>2026-05-06T10:22:55.563Z</time></trkpt><trkpt lat="38.0361209" lon="12.7630827"><ele>249.0</ele><time>2026-05-06T10:22:56.564Z</time></trkpt><trkpt lat="38.0360362" lon="12.7630653"><ele>249.0</ele><time>2026-05-06T10:22:57.563Z</time></trkpt><trkpt lat="38.0359574" lon="12.7630471"><ele>249.0</ele><time>2026-05-06T10:22:58.564Z</time></trkpt><trkpt lat="38.0358865" lon="12.7630347"><ele>249.0</ele><time>2026-05-06T10:22:59.564Z</time></trkpt><trkpt lat="38.0357888" lon="12.7630079"><ele>249.0</ele><time>2026-05-06T10:23:01.563Z</time></trkpt><trkpt lat="38.0357605" lon="12.7629185"><ele>249.0</ele><time>2026-05-06T10:23:03.565Z</time></trkpt><trkpt lat="38.0357782" lon="12.7627568"><ele>248.66666666666666</ele><time>2026-05-06T10:23:05.564Z</time></trkpt><trkpt lat="38.0357941" lon="12.7626558"><ele>248.33333333333331</ele><time>2026-05-06T10:23:06.565Z</time></trkpt><trkpt lat="38.0358073" lon="12.7625484"><ele>248.0</ele><time>2026-05-06T10:23:07.563Z</time></trkpt><trkpt lat="38.0358181" lon="12.7624441"><ele>247.66666666666666</ele><time>2026-05-06T10:23:08.564Z</time></trkpt><trkpt lat="38.035826" lon="12.7623499"><ele>247.33333333333331</ele><time>2026-05-06T10:23:09.563Z</time></trkpt><trkpt lat="38.0358293" lon="12.7622666"><ele>247.0</ele><time>2026-05-06T10:23:10.563Z</time></trkpt><trkpt lat="38.035827" lon="12.762184"><ele>246.99999999999997</ele><time>2026-05-06T10:23:11.564Z</time></trkpt><trkpt lat="38.0358192" lon="12.7620953"><ele>247.0</ele><time>2026-05-06T10:23:12.564Z</time></trkpt><trkpt lat="38.0358159" lon="12.7620012"><ele>247.0</ele><time>2026-05-06T10:23:13.564Z</time></trkpt><trkpt lat="38.0358208" lon="12.7619045"><ele>247.0</ele><time>2026-05-06T10:23:14.563Z</time></trkpt><trkpt lat="38.0358306" lon="12.7618048"><ele>246.99999999999997</ele><time>2026-05-06T10:23:15.564Z</time></trkpt><trkpt lat="38.0358471" lon="12.7617004"><ele>247.0</ele><time>2026-05-06T10:23:16.565Z</time></trkpt><trkpt lat="38.0358674" lon="12.7615947"><ele>246.0</ele><time>2026-05-06T10:23:17.566Z</time></trkpt><trkpt lat="38.0358886" lon="12.7614885"><ele>245.0</ele><time>2026-05-06T10:23:18.565Z</time></trkpt><trkpt lat="38.0359097" lon="12.7613778"><ele>244.0</ele><time>2026-05-06T10:23:19.565Z</time></trkpt><trkpt lat="38.0359319" lon="12.7612595"><ele>243.0</ele><time>2026-05-06T10:23:20.565Z</time></trkpt><trkpt lat="38.0359538" lon="12.7611358"><ele>242.0</ele><time>2026-05-06T10:23:21.564Z</time></trkpt><trkpt lat="38.0359757" lon="12.7610065"><ele>241.39999999999998</ele><time>2026-05-06T10:23:22.564Z</time></trkpt><trkpt lat="38.0359974" lon="12.7608717"><ele>240.79999999999998</ele><time>2026-05-06T10:23:23.563Z</time></trkpt><trkpt lat="38.0360123" lon="12.7607309"><ele>240.2</ele><time>2026-05-06T10:23:24.57Z</time></trkpt><trkpt lat="38.0360276" lon="12.7605892"><ele>239.6</ele><time>2026-05-06T10:23:25.564Z</time></trkpt><trkpt lat="38.0360436" lon="12.7604466"><ele>239.0</ele><time>2026-05-06T10:23:26.567Z</time></trkpt><trkpt lat="38.0360557" lon="12.760303"><ele>238.5</ele><time>2026-05-06T10:23:27.563Z</time></trkpt><trkpt lat="38.036067" lon="12.7601596"><ele>238.0</ele><time>2026-05-06T10:23:28.564Z</time></trkpt><trkpt lat="38.0360814" lon="12.7600159"><ele>237.5</ele><time>2026-05-06T10:23:29.565Z</time></trkpt><trkpt lat="38.0360969" lon="12.7598728"><ele>237.0</ele><time>2026-05-06T10:23:30.563Z</time></trkpt><trkpt lat="38.0361147" lon="12.7597298"><ele>237.0</ele><time>2026-05-06T10:23:31.563Z</time></trkpt><trkpt lat="38.0361332" lon="12.7595889"><ele>237.0</ele><time>2026-05-06T10:23:32.564Z</time></trkpt><trkpt lat="38.0361529" lon="12.7594493"><ele>237.0</ele><time>2026-05-06T10:23:33.564Z</time></trkpt><trkpt lat="38.0361709" lon="12.7593089"><ele>237.0</ele><time>2026-05-06T10:23:34.563Z</time></trkpt><trkpt lat="38.0361852" lon="12.759162"><ele>238.0</ele><time>2026-05-06T10:23:35.564Z</time></trkpt><trkpt lat="38.0362006" lon="12.7590108"><ele>239.0</ele><time>2026-05-06T10:23:36.565Z</time></trkpt><trkpt lat="38.0362152" lon="12.758858"><ele>240.0</ele><time>2026-05-06T10:23:37.563Z</time></trkpt><trkpt lat="38.0362308" lon="12.7587126"><ele>241.0</ele><time>2026-05-06T10:23:38.565Z</time></trkpt><trkpt lat="38.0362486" lon="12.7585699"><ele>240.5</ele><time>2026-05-06T10:23:39.563Z</time></trkpt><trkpt lat="38.0362704" lon="12.7584247"><ele>240.0</ele><time>2026-05-06T10:23:40.564Z</time></trkpt><trkpt lat="38.036295" lon="12.7582798"><ele>239.5</ele><time>2026-05-06T10:23:41.564Z</time></trkpt><trkpt lat="38.0363241" lon="12.7581323"><ele>239.0</ele><time>2026-05-06T10:23:42.564Z</time></trkpt><trkpt lat="38.0363527" lon="12.7579776"><ele>239.0</ele><time>2026-05-06T10:23:43.569Z</time></trkpt><trkpt lat="38.0363815" lon="12.7578213"><ele>239.0</ele><time>2026-05-06T10:23:44.566Z</time></trkpt><trkpt lat="38.0364016" lon="12.7576705"><ele>239.0</ele><time>2026-05-06T10:23:45.564Z</time></trkpt><trkpt lat="38.0364166" lon="12.7575289"><ele>239.0</ele><time>2026-05-06T10:23:46.564Z</time></trkpt><trkpt lat="38.0364345" lon="12.7573894"><ele>239.0</ele><time>2026-05-06T10:23:47.563Z</time></trkpt><trkpt lat="38.0364492" lon="12.7572503"><ele>239.0</ele><time>2026-05-06T10:23:48.564Z</time></trkpt><trkpt lat="38.0364652" lon="12.7571105"><ele>239.0</ele><time>2026-05-06T10:23:49.563Z</time></trkpt><trkpt lat="38.0364877" lon="12.7569657"><ele>239.0</ele><time>2026-05-06T10:23:50.565Z</time></trkpt><trkpt lat="38.0365063" lon="12.7568142"><ele>239.0</ele><time>2026-05-06T10:23:51.565Z</time></trkpt><trkpt lat="38.0365179" lon="12.7566549"><ele>239.0</ele><time>2026-05-06T10:23:52.565Z</time></trkpt><trkpt lat="38.036525" lon="12.7564908"><ele>239.0</ele><time>2026-05-06T10:23:53.565Z</time></trkpt><trkpt lat="38.0365354" lon="12.7563301"><ele>239.0</ele><time>2026-05-06T10:23:54.565Z</time></trkpt><trkpt lat="38.0365455" lon="12.7561838"><ele>239.0</ele><time>2026-05-06T10:23:55.564Z</time></trkpt><trkpt lat="38.0365603" lon="12.7560501"><ele>238.99999999999997</ele><time>2026-05-06T10:23:56.565Z</time></trkpt><trkpt lat="38.0365762" lon="12.7559159"><ele>238.99999999999997</ele><time>2026-05-06T10:23:57.564Z</time></trkpt><trkpt lat="38.0365933" lon="12.7557776"><ele>239.0</ele><time>2026-05-06T10:23:58.564Z</time></trkpt><trkpt lat="38.0366104" lon="12.7556421"><ele>239.0</ele><time>2026-05-06T10:23:59.564Z</time></trkpt><trkpt lat="38.0366286" lon="12.7555185"><ele>238.39999999999998</ele><time>2026-05-06T10:24:00.565Z</time></trkpt><trkpt lat="38.036645" lon="12.7554068"><ele>237.79999999999998</ele><time>2026-05-06T10:24:01.565Z</time></trkpt><trkpt lat="38.0366544" lon="12.7553101"><ele>237.20000000000002</ele><time>2026-05-06T10:24:02.565Z</time></trkpt><trkpt lat="38.0366639" lon="12.755174"><ele>236.60000000000002</ele><time>2026-05-06T10:24:04.57Z</time></trkpt><trkpt lat="38.0366126" lon="12.7550899"><ele>236.0</ele><time>2026-05-06T10:24:06.564Z</time></trkpt><trkpt lat="38.0365038" lon="12.755066"><ele>236.00000000000003</ele><time>2026-05-06T10:24:08.563Z</time></trkpt><trkpt lat="38.036375" lon="12.755062"><ele>236.0</ele><time>2026-05-06T10:24:10.57Z</time></trkpt><trkpt lat="38.0363051" lon="12.7550588"><ele>236.0</ele><time>2026-05-06T10:24:11.563Z</time></trkpt><trkpt lat="38.0362291" lon="12.7550529"><ele>236.0</ele><time>2026-05-06T10:24:12.564Z</time></trkpt><trkpt lat="38.0361485" lon="12.7550447"><ele>236.00000000000003</ele><time>2026-05-06T10:24:13.563Z</time></trkpt><trkpt lat="38.0360621" lon="12.7550419"><ele>236.0</ele><time>2026-05-06T10:24:14.565Z</time></trkpt><trkpt lat="38.0359716" lon="12.7550365"><ele>236.0</ele><time>2026-05-06T10:24:15.565Z</time></trkpt><trkpt lat="38.0358789" lon="12.7550322"><ele>236.00000000000003</ele><time>2026-05-06T10:24:16.565Z</time></trkpt><trkpt lat="38.035783" lon="12.7550237"><ele>236.00000000000003</ele><time>2026-05-06T10:24:17.563Z</time></trkpt><trkpt lat="38.0356911" lon="12.7550152"><ele>236.0</ele><time>2026-05-06T10:24:18.566Z</time></trkpt><trkpt lat="38.0356043" lon="12.7550034"><ele>236.0</ele><time>2026-05-06T10:24:19.566Z</time></trkpt><trkpt lat="38.0355135" lon="12.7549929"><ele>235.8</ele><time>2026-05-06T10:24:20.565Z</time></trkpt><trkpt lat="38.0354167" lon="12.7549867"><ele>235.60000000000002</ele><time>2026-05-06T10:24:21.564Z</time></trkpt><trkpt lat="38.0353117" lon="12.7549933"><ele>235.4</ele><time>2026-05-06T10:24:22.565Z</time></trkpt><trkpt lat="38.0352117" lon="12.7550067"><ele>235.2</ele><time>2026-05-06T10:24:23.566Z</time></trkpt><trkpt lat="38.0351167" lon="12.7550283"><ele>235.0</ele><time>2026-05-06T10:24:24.564Z</time></trkpt><trkpt lat="38.0350233" lon="12.7550517"><ele>235.6</ele><time>2026-05-06T10:24:25.564Z</time></trkpt><trkpt lat="38.0349267" lon="12.755075"><ele>236.2</ele><time>2026-05-06T10:24:26.564Z</time></trkpt><trkpt lat="38.03483" lon="12.7550933"><ele>236.8</ele><time>2026-05-06T10:24:27.564Z</time></trkpt><trkpt lat="38.03473" lon="12.7551067"><ele>237.4</ele><time>2026-05-06T10:24:28.566Z</time></trkpt><trkpt lat="38.0346317" lon="12.75512"><ele>238.0</ele><time>2026-05-06T10:24:29.565Z</time></trkpt><trkpt lat="38.0345317" lon="12.75513"><ele>238.0</ele><time>2026-05-06T10:24:30.565Z</time></trkpt><trkpt lat="38.0344283" lon="12.7551383"><ele>238.0</ele><time>2026-05-06T10:24:31.564Z</time></trkpt><trkpt lat="38.0343267" lon="12.7551383"><ele>238.0</ele><time>2026-05-06T10:24:32.565Z</time></trkpt><trkpt lat="38.0342233" lon="12.7551333"><ele>238.0</ele><time>2026-05-06T10:24:33.564Z</time></trkpt><trkpt lat="38.0341167" lon="12.755125"><ele>238.0</ele><time>2026-05-06T10:24:34.564Z</time></trkpt><trkpt lat="38.0340133" lon="12.7551167"><ele>238.2</ele><time>2026-05-06T10:24:35.564Z</time></trkpt><trkpt lat="38.03391" lon="12.755115"><ele>238.4</ele><time>2026-05-06T10:24:36.564Z</time></trkpt><trkpt lat="38.033805" lon="12.7551183"><ele>238.59999999999997</ele><time>2026-05-06T10:24:37.563Z</time></trkpt><trkpt lat="38.0336967" lon="12.75512"><ele>238.79999999999998</ele><time>2026-05-06T10:24:38.564Z</time></trkpt><trkpt lat="38.03359" lon="12.75512"><ele>239.0</ele><time>2026-05-06T10:24:39.563Z</time></trkpt><trkpt lat="38.0334833" lon="12.7551183"><ele>239.0</ele><time>2026-05-06T10:24:40.565Z</time></trkpt><trkpt lat="38.0333767" lon="12.7551183"><ele>238.99999999999997</ele><time>2026-05-06T10:24:41.566Z</time></trkpt><trkpt lat="38.0332717" lon="12.7551233"><ele>238.99999999999997</ele><time>2026-05-06T10:24:42.563Z</time></trkpt><trkpt lat="38.033165" lon="12.755135"><ele>239.0</ele><time>2026-05-06T10:24:43.564Z</time></trkpt><trkpt lat="38.0330583" lon="12.7551567"><ele>239.0</ele><time>2026-05-06T10:24:44.565Z</time></trkpt><trkpt lat="38.0329567" lon="12.7551867"><ele>237.2</ele><time>2026-05-06T10:24:45.564Z</time></trkpt><trkpt lat="38.03286" lon="12.7552217"><ele>235.39999999999998</ele><time>2026-05-06T10:24:46.564Z</time></trkpt><trkpt lat="38.0327667" lon="12.7552567"><ele>233.6</ele><time>2026-05-06T10:24:47.565Z</time></trkpt><trkpt lat="38.0326717" lon="12.7552933"><ele>231.8</ele><time>2026-05-06T10:24:48.567Z</time></trkpt><trkpt lat="38.03257" lon="12.7553283"><ele>230.0</ele><time>2026-05-06T10:24:49.565Z</time></trkpt><trkpt lat="38.0324617" lon="12.75537"><ele>230.0</ele><time>2026-05-06T10:24:50.565Z</time></trkpt><trkpt lat="38.032345" lon="12.7554133"><ele>230.0</ele><time>2026-05-06T10:24:51.564Z</time></trkpt><trkpt lat="38.032225" lon="12.7554617"><ele>230.0</ele><time>2026-05-06T10:24:52.564Z</time></trkpt><trkpt lat="38.032105" lon="12.755515"><ele>230.0</ele><time>2026-05-06T10:24:53.565Z</time></trkpt><trkpt lat="38.0319917" lon="12.75557"><ele>230.0</ele><time>2026-05-06T10:24:54.566Z</time></trkpt><trkpt lat="38.0318867" lon="12.7556317"><ele>230.0</ele><time>2026-05-06T10:24:55.563Z</time></trkpt><trkpt lat="38.0317933" lon="12.7556967"><ele>230.0</ele><time>2026-05-06T10:24:56.565Z</time></trkpt><trkpt lat="38.031705" lon="12.7557567"><ele>230.0</ele><time>2026-05-06T10:24:57.565Z</time></trkpt><trkpt lat="38.03161" lon="12.7558017"><ele>230.0</ele><time>2026-05-06T10:24:58.564Z</time></trkpt><trkpt lat="38.03151" lon="12.7558417"><ele>230.4</ele><time>2026-05-06T10:24:59.564Z</time></trkpt><trkpt lat="38.031405" lon="12.7558683"><ele>230.8</ele><time>2026-05-06T10:25:00.563Z</time></trkpt><trkpt lat="38.0313067" lon="12.7558733"><ele>231.2</ele><time>2026-05-06T10:25:01.564Z</time></trkpt><trkpt lat="38.0312167" lon="12.7558583"><ele>231.6</ele><time>2026-05-06T10:25:02.565Z</time></trkpt><trkpt lat="38.0311233" lon="12.7558317"><ele>232.0</ele><time>2026-05-06T10:25:03.564Z</time></trkpt><trkpt lat="38.0310217" lon="12.7558"><ele>232.0</ele><time>2026-05-06T10:25:04.564Z</time></trkpt><trkpt lat="38.0309167" lon="12.7557617"><ele>232.0</ele><time>2026-05-06T10:25:05.564Z</time></trkpt><trkpt lat="38.030805" lon="12.7557183"><ele>232.0</ele><time>2026-05-06T10:25:06.565Z</time></trkpt><trkpt lat="38.0306867" lon="12.7556717"><ele>232.0</ele><time>2026-05-06T10:25:07.564Z</time></trkpt><trkpt lat="38.0305667" lon="12.75562"><ele>230.0</ele><time>2026-05-06T10:25:08.564Z</time></trkpt><trkpt lat="38.0304433" lon="12.7555667"><ele>228.0</ele><time>2026-05-06T10:25:09.564Z</time></trkpt><trkpt lat="38.0303233" lon="12.7555167"><ele>226.0</ele><time>2026-05-06T10:25:10.563Z</time></trkpt><trkpt lat="38.0302067" lon="12.7554733"><ele>224.0</ele><time>2026-05-06T10:25:11.563Z</time></trkpt><trkpt lat="38.0300883" lon="12.755435"><ele>222.5</ele><time>2026-05-06T10:25:12.565Z</time></trkpt><trkpt lat="38.0299633" lon="12.7554"><ele>221.0</ele><time>2026-05-06T10:25:13.565Z</time></trkpt><trkpt lat="38.0298433" lon="12.755375"><ele>219.5</ele><time>2026-05-06T10:25:14.565Z</time></trkpt><trkpt lat="38.0297267" lon="12.7553483"><ele>218.0</ele><time>2026-05-06T10:25:15.564Z</time></trkpt><trkpt lat="38.02962" lon="12.755315"><ele>218.0</ele><time>2026-05-06T10:25:16.564Z</time></trkpt><trkpt lat="38.0295183" lon="12.7552817"><ele>218.0</ele><time>2026-05-06T10:25:17.564Z</time></trkpt><trkpt lat="38.0294167" lon="12.75525"><ele>218.0</ele><time>2026-05-06T10:25:18.565Z</time></trkpt><trkpt lat="38.0293117" lon="12.755215"><ele>218.0</ele><time>2026-05-06T10:25:19.565Z</time></trkpt><trkpt lat="38.029205" lon="12.7551717"><ele>218.0</ele><time>2026-05-06T10:25:20.566Z</time></trkpt><trkpt lat="38.0290983" lon="12.755125"><ele>219.75</ele><time>2026-05-06T10:25:21.565Z</time></trkpt><trkpt lat="38.0289917" lon="12.7550733"><ele>221.5</ele><time>2026-05-06T10:25:22.565Z</time></trkpt><trkpt lat="38.0288817" lon="12.7550183"><ele>223.25</ele><time>2026-05-06T10:25:23.564Z</time></trkpt><trkpt lat="38.0287767" lon="12.7549733"><ele>225.0</ele><time>2026-05-06T10:25:24.565Z</time></trkpt><trkpt lat="38.0286717" lon="12.75494"><ele>225.0</ele><time>2026-05-06T10:25:25.565Z</time></trkpt><trkpt lat="38.02856" lon="12.754905"><ele>225.0</ele><time>2026-05-06T10:25:26.565Z</time></trkpt><trkpt lat="38.0284467" lon="12.754865"><ele>225.0</ele><time>2026-05-06T10:25:27.564Z</time></trkpt><trkpt lat="38.02833" lon="12.75482"><ele>225.0</ele><time>2026-05-06T10:25:28.564Z</time></trkpt><trkpt lat="38.0282117" lon="12.754775"><ele>225.4</ele><time>2026-05-06T10:25:29.564Z</time></trkpt><trkpt lat="38.0281067" lon="12.75473"><ele>225.8</ele><time>2026-05-06T10:25:30.565Z</time></trkpt><trkpt lat="38.02801" lon="12.7546833"><ele>226.2</ele><time>2026-05-06T10:25:31.564Z</time></trkpt><trkpt lat="38.02791" lon="12.7546383"><ele>226.6</ele><time>2026-05-06T10:25:32.565Z</time></trkpt><trkpt lat="38.0278067" lon="12.754595"><ele>227.0</ele><time>2026-05-06T10:25:33.563Z</time></trkpt><trkpt lat="38.0277" lon="12.7545383"><ele>227.0</ele><time>2026-05-06T10:25:34.563Z</time></trkpt><trkpt lat="38.0275967" lon="12.75448"><ele>227.0</ele><time>2026-05-06T10:25:35.565Z</time></trkpt><trkpt lat="38.0274967" lon="12.7544217"><ele>227.0</ele><time>2026-05-06T10:25:36.564Z</time></trkpt><trkpt lat="38.0274033" lon="12.7543567"><ele>227.0</ele><time>2026-05-06T10:25:37.564Z</time></trkpt><trkpt lat="38.027325" lon="12.7542933"><ele>227.0</ele><time>2026-05-06T10:25:38.564Z</time></trkpt><trkpt lat="38.0272517" lon="12.754225"><ele>225.6</ele><time>2026-05-06T10:25:39.564Z</time></trkpt><trkpt lat="38.02718" lon="12.75415"><ele>224.2</ele><time>2026-05-06T10:25:40.565Z</time></trkpt><trkpt lat="38.0271083" lon="12.7540717"><ele>222.8</ele><time>2026-05-06T10:25:41.564Z</time></trkpt><trkpt lat="38.0270417" lon="12.7539883"><ele>221.4</ele><time>2026-05-06T10:25:42.565Z</time></trkpt><trkpt lat="38.0269767" lon="12.7539033"><ele>220.0</ele><time>2026-05-06T10:25:43.563Z</time></trkpt><trkpt lat="38.0269133" lon="12.7538167"><ele>220.0</ele><time>2026-05-06T10:25:44.564Z</time></trkpt><trkpt lat="38.026845" lon="12.7537317"><ele>220.0</ele><time>2026-05-06T10:25:45.564Z</time></trkpt><trkpt lat="38.0267733" lon="12.7536517"><ele>220.0</ele><time>2026-05-06T10:25:46.564Z</time></trkpt><trkpt lat="38.0267017" lon="12.753575"><ele>220.0</ele><time>2026-05-06T10:25:47.565Z</time></trkpt><trkpt lat="38.0266283" lon="12.7535033"><ele>220.0</ele><time>2026-05-06T10:25:48.564Z</time></trkpt><trkpt lat="38.0265433" lon="12.753435"><ele>218.0</ele><time>2026-05-06T10:25:49.564Z</time></trkpt><trkpt lat="38.0264533" lon="12.7533633"><ele>216.0</ele><time>2026-05-06T10:25:50.565Z</time></trkpt><trkpt lat="38.0263583" lon="12.7532917"><ele>214.0</ele><time>2026-05-06T10:25:51.564Z</time></trkpt><trkpt lat="38.026265" lon="12.75322"><ele>212.0</ele><time>2026-05-06T10:25:52.564Z</time></trkpt><trkpt lat="38.0261733" lon="12.7531467"><ele>210.0</ele><time>2026-05-06T10:25:53.564Z</time></trkpt><trkpt lat="38.0260883" lon="12.75306"><ele>210.0</ele><time>2026-05-06T10:25:54.564Z</time></trkpt><trkpt lat="38.026005" lon="12.752965"><ele>210.0</ele><time>2026-05-06T10:25:55.564Z</time></trkpt><trkpt lat="38.0259217" lon="12.75286"><ele>210.0</ele><time>2026-05-06T10:25:56.566Z</time></trkpt><trkpt lat="38.0258333" lon="12.752755"><ele>210.0</ele><time>2026-05-06T10:25:57.564Z</time></trkpt><trkpt lat="38.0257483" lon="12.752655"><ele>208.8</ele><time>2026-05-06T10:25:58.564Z</time></trkpt><trkpt lat="38.0256654" lon="12.7525617"><ele>207.6</ele><time>2026-05-06T10:25:59.563Z</time></trkpt><trkpt lat="38.0255805" lon="12.7524753"><ele>206.39999999999998</ele><time>2026-05-06T10:26:00.565Z</time></trkpt><trkpt lat="38.0254884" lon="12.7523946"><ele>205.2</ele><time>2026-05-06T10:26:01.565Z</time></trkpt><trkpt lat="38.0253965" lon="12.7523083"><ele>204.0</ele><time>2026-05-06T10:26:02.567Z</time></trkpt><trkpt lat="38.0253104" lon="12.7522282"><ele>204.0</ele><time>2026-05-06T10:26:03.563Z</time></trkpt><trkpt lat="38.0252372" lon="12.7521573"><ele>204.0</ele><time>2026-05-06T10:26:04.563Z</time></trkpt><trkpt lat="38.0251805" lon="12.7521082"><ele>204.0</ele><time>2026-05-06T10:26:05.564Z</time></trkpt><trkpt lat="38.0250993" lon="12.7520881"><ele>204.0</ele><time>2026-05-06T10:26:07.564Z</time></trkpt><trkpt lat="38.0250325" lon="12.7521429"><ele>204.0</ele><time>2026-05-06T10:26:09.564Z</time></trkpt><trkpt lat="38.0250228" lon="12.7522757"><ele>204.0</ele><time>2026-05-06T10:26:11.563Z</time></trkpt><trkpt lat="38.0250345" lon="12.7523748"><ele>204.0</ele><time>2026-05-06T10:26:12.563Z</time></trkpt><trkpt lat="38.0250485" lon="12.752491"><ele>204.0</ele><time>2026-05-06T10:26:13.564Z</time></trkpt><trkpt lat="38.0250607" lon="12.7526213"><ele>204.0</ele><time>2026-05-06T10:26:14.566Z</time></trkpt><trkpt lat="38.0250739" lon="12.7527611"><ele>204.0</ele><time>2026-05-06T10:26:15.568Z</time></trkpt><trkpt lat="38.0250826" lon="12.7529015"><ele>204.0</ele><time>2026-05-06T10:26:16.566Z</time></trkpt><trkpt lat="38.025092" lon="12.7530356"><ele>205.0</ele><time>2026-05-06T10:26:17.564Z</time></trkpt><trkpt lat="38.0250994" lon="12.7531564"><ele>206.0</ele><time>2026-05-06T10:26:18.565Z</time></trkpt><trkpt lat="38.0250965" lon="12.7532651"><ele>207.0</ele><time>2026-05-06T10:26:19.564Z</time></trkpt><trkpt lat="38.0250787" lon="12.7533699"><ele>208.0</ele><time>2026-05-06T10:26:20.565Z</time></trkpt><trkpt lat="38.0250442" lon="12.753476"><ele>209.0</ele><time>2026-05-06T10:26:21.564Z</time></trkpt><trkpt lat="38.024995" lon="12.7535791"><ele>209.79999999999998</ele><time>2026-05-06T10:26:22.565Z</time></trkpt><trkpt lat="38.0249356" lon="12.753673"><ele>210.6</ele><time>2026-05-06T10:26:23.563Z</time></trkpt><trkpt lat="38.0248703" lon="12.7537621"><ele>211.4</ele><time>2026-05-06T10:26:24.564Z</time></trkpt><trkpt lat="38.0248032" lon="12.753851"><ele>212.2</ele><time>2026-05-06T10:26:25.565Z</time></trkpt><trkpt lat="38.0247358" lon="12.7539376"><ele>213.0</ele><time>2026-05-06T10:26:26.569Z</time></trkpt><trkpt lat="38.0246613" lon="12.7540157"><ele>213.0</ele><time>2026-05-06T10:26:27.564Z</time></trkpt><trkpt lat="38.0245789" lon="12.754087"><ele>213.0</ele><time>2026-05-06T10:26:28.564Z</time></trkpt><trkpt lat="38.0244956" lon="12.7541593"><ele>213.0</ele><time>2026-05-06T10:26:29.564Z</time></trkpt><trkpt lat="38.0244153" lon="12.7542363"><ele>213.0</ele><time>2026-05-06T10:26:30.564Z</time></trkpt><trkpt lat="38.0243336" lon="12.754317"><ele>213.0</ele><time>2026-05-06T10:26:31.564Z</time></trkpt><trkpt lat="38.0242493" lon="12.7543914"><ele>214.83333333333334</ele><time>2026-05-06T10:26:32.564Z</time></trkpt><trkpt lat="38.0241639" lon="12.7544572"><ele>216.66666666666669</ele><time>2026-05-06T10:26:33.564Z</time></trkpt><trkpt lat="38.0240812" lon="12.754503"><ele>218.5</ele><time>2026-05-06T10:26:34.565Z</time></trkpt><trkpt lat="38.0239999" lon="12.754528"><ele>220.33333333333334</ele><time>2026-05-06T10:26:35.564Z</time></trkpt><trkpt lat="38.0239145" lon="12.7545415"><ele>222.16666666666669</ele><time>2026-05-06T10:26:36.565Z</time></trkpt><trkpt lat="38.0238261" lon="12.7545496"><ele>224.0</ele><time>2026-05-06T10:26:37.564Z</time></trkpt><trkpt lat="38.0237376" lon="12.754548"><ele>224.00000000000003</ele><time>2026-05-06T10:26:38.566Z</time></trkpt><trkpt lat="38.0236492" lon="12.7545465"><ele>224.0</ele><time>2026-05-06T10:26:39.563Z</time></trkpt><trkpt lat="38.0235597" lon="12.7545483"><ele>224.0</ele><time>2026-05-06T10:26:40.564Z</time></trkpt><trkpt lat="38.0234707" lon="12.7545502"><ele>224.0</ele><time>2026-05-06T10:26:41.564Z</time></trkpt><trkpt lat="38.0233808" lon="12.7545528"><ele>224.00000000000003</ele><time>2026-05-06T10:26:42.564Z</time></trkpt><trkpt lat="38.0232894" lon="12.7545585"><ele>224.0</ele><time>2026-05-06T10:26:43.565Z</time></trkpt><trkpt lat="38.0232002" lon="12.7545684"><ele>224.0</ele><time>2026-05-06T10:26:44.567Z</time></trkpt><trkpt lat="38.0231117" lon="12.754582"><ele>223.99999999999997</ele><time>2026-05-06T10:26:45.563Z</time></trkpt><trkpt lat="38.0230221" lon="12.7546053"><ele>223.99999999999997</ele><time>2026-05-06T10:26:46.566Z</time></trkpt><trkpt lat="38.0229329" lon="12.7546408"><ele>224.0</ele><time>2026-05-06T10:26:47.564Z</time></trkpt><trkpt lat="38.0228474" lon="12.7546939"><ele>224.0</ele><time>2026-05-06T10:26:48.564Z</time></trkpt><trkpt lat="38.0227639" lon="12.7547565"><ele>224.0</ele><time>2026-05-06T10:26:49.563Z</time></trkpt><trkpt lat="38.0226857" lon="12.7548305"><ele>223.99999999999997</ele><time>2026-05-06T10:26:50.564Z</time></trkpt><trkpt lat="38.02261" lon="12.7549146"><ele>223.99999999999997</ele><time>2026-05-06T10:26:51.563Z</time></trkpt><trkpt lat="38.0225329" lon="12.7549973"><ele>224.0</ele><time>2026-05-06T10:26:52.565Z</time></trkpt><trkpt lat="38.0224602" lon="12.755084"><ele>224.0</ele><time>2026-05-06T10:26:53.564Z</time></trkpt><trkpt lat="38.0223937" lon="12.7551802"><ele>224.0</ele><time>2026-05-06T10:26:54.565Z</time></trkpt><trkpt lat="38.0223319" lon="12.7552848"><ele>223.99999999999997</ele><time>2026-05-06T10:26:55.563Z</time></trkpt><trkpt lat="38.0222745" lon="12.7553979"><ele>223.99999999999997</ele><time>2026-05-06T10:26:56.564Z</time></trkpt><trkpt lat="38.0222329" lon="12.7555148"><ele>224.0</ele><time>2026-05-06T10:26:57.564Z</time></trkpt><trkpt lat="38.0222141" lon="12.7556371"><ele>224.0</ele><time>2026-05-06T10:26:58.565Z</time></trkpt><trkpt lat="38.0222157" lon="12.75577"><ele>224.0</ele><time>2026-05-06T10:26:59.565Z</time></trkpt><trkpt lat="38.0222367" lon="12.7559142"><ele>224.0</ele><time>2026-05-06T10:27:00.565Z</time></trkpt><trkpt lat="38.0222639" lon="12.7560647"><ele>224.0</ele><time>2026-05-06T10:27:01.564Z</time></trkpt><trkpt lat="38.0222884" lon="12.7562206"><ele>224.0</ele><time>2026-05-06T10:27:02.565Z</time></trkpt><trkpt lat="38.022294" lon="12.7563609"><ele>225.6</ele><time>2026-05-06T10:27:03.564Z</time></trkpt><trkpt lat="38.022292" lon="12.7564795"><ele>227.2</ele><time>2026-05-06T10:27:04.563Z</time></trkpt><trkpt lat="38.0222398" lon="12.7565932"><ele>228.79999999999998</ele><time>2026-05-06T10:27:06.564Z</time></trkpt><trkpt lat="38.0221264" lon="12.7566315"><ele>230.39999999999998</ele><time>2026-05-06T10:27:08.565Z</time></trkpt><trkpt lat="38.0220397" lon="12.7566326"><ele>232.0</ele><time>2026-05-06T10:27:09.564Z</time></trkpt><trkpt lat="38.0219236" lon="12.7566289"><ele>232.0</ele><time>2026-05-06T10:27:10.564Z</time></trkpt><trkpt lat="38.0218115" lon="12.7566308"><ele>232.0</ele><time>2026-05-06T10:27:11.563Z</time></trkpt><trkpt lat="38.0216822" lon="12.7566378"><ele>232.0</ele><time>2026-05-06T10:27:12.564Z</time></trkpt><trkpt lat="38.0215442" lon="12.756636"><ele>232.0</ele><time>2026-05-06T10:27:13.563Z</time></trkpt><trkpt lat="38.0214129" lon="12.7566331"><ele>230.75</ele><time>2026-05-06T10:27:14.57Z</time></trkpt><trkpt lat="38.0212863" lon="12.756631"><ele>229.5</ele><time>2026-05-06T10:27:15.563Z</time></trkpt><trkpt lat="38.0211636" lon="12.756626"><ele>228.25</ele><time>2026-05-06T10:27:16.567Z</time></trkpt><trkpt lat="38.0210491" lon="12.7566145"><ele>227.0</ele><time>2026-05-06T10:27:17.563Z</time></trkpt><trkpt lat="38.0209396" lon="12.7565972"><ele>227.0</ele><time>2026-05-06T10:27:18.564Z</time></trkpt><trkpt lat="38.0208373" lon="12.7565663"><ele>227.0</ele><time>2026-05-06T10:27:19.565Z</time></trkpt><trkpt lat="38.020746" lon="12.7565087"><ele>227.0</ele><time>2026-05-06T10:27:20.565Z</time></trkpt><trkpt lat="38.0206574" lon="12.7564416"><ele>227.0</ele><time>2026-05-06T10:27:21.563Z</time></trkpt><trkpt lat="38.0205739" lon="12.7563542"><ele>227.0</ele><time>2026-05-06T10:27:22.564Z</time></trkpt><trkpt lat="38.0204934" lon="12.7562512"><ele>226.75</ele><time>2026-05-06T10:27:23.565Z</time></trkpt><trkpt lat="38.0204081" lon="12.7561458"><ele>226.5</ele><time>2026-05-06T10:27:24.564Z</time></trkpt><trkpt lat="38.0203217" lon="12.7560398"><ele>226.25</ele><time>2026-05-06T10:27:25.565Z</time></trkpt><trkpt lat="38.0202452" lon="12.7559395"><ele>226.0</ele><time>2026-05-06T10:27:26.565Z</time></trkpt><trkpt lat="38.0201719" lon="12.7558408"><ele>226.20000000000002</ele><time>2026-05-06T10:27:27.565Z</time></trkpt><trkpt lat="38.0201018" lon="12.7557443"><ele>226.40000000000003</ele><time>2026-05-06T10:27:28.565Z</time></trkpt><trkpt lat="38.0200352" lon="12.7556402"><ele>226.6</ele><time>2026-05-06T10:27:29.564Z</time></trkpt><trkpt lat="38.0199695" lon="12.7555257"><ele>226.8</ele><time>2026-05-06T10:27:30.564Z</time></trkpt><trkpt lat="38.0199038" lon="12.7554008"><ele>227.0</ele><time>2026-05-06T10:27:31.565Z</time></trkpt><trkpt lat="38.0198388" lon="12.7552692"><ele>226.25</ele><time>2026-05-06T10:27:32.565Z</time></trkpt><trkpt lat="38.0197796" lon="12.7551277"><ele>225.5</ele><time>2026-05-06T10:27:33.564Z</time></trkpt><trkpt lat="38.0197257" lon="12.7549856"><ele>224.75</ele><time>2026-05-06T10:27:34.565Z</time></trkpt><trkpt lat="38.0196824" lon="12.7548484"><ele>224.0</ele><time>2026-05-06T10:27:35.564Z</time></trkpt><trkpt lat="38.0196483" lon="12.7547183"><ele>224.00000000000003</ele><time>2026-05-06T10:27:36.564Z</time></trkpt><trkpt lat="38.0196211" lon="12.7545982"><ele>224.0</ele><time>2026-05-06T10:27:37.564Z</time></trkpt><trkpt lat="38.0195956" lon="12.754487"><ele>224.0</ele><time>2026-05-06T10:27:38.566Z</time></trkpt><trkpt lat="38.0195707" lon="12.7543858"><ele>224.0</ele><time>2026-05-06T10:27:39.564Z</time></trkpt><trkpt lat="38.0195448" lon="12.7542853"><ele>224.00000000000003</ele><time>2026-05-06T10:27:40.563Z</time></trkpt><trkpt lat="38.0195203" lon="12.7541923"><ele>224.0</ele><time>2026-05-06T10:27:41.564Z</time></trkpt><trkpt lat="38.0194804" lon="12.7540735"><ele>224.0</ele><time>2026-05-06T10:27:43.564Z</time></trkpt><trkpt lat="38.0194044" lon="12.754063"><ele>223.99999999999997</ele><time>2026-05-06T10:27:45.564Z</time></trkpt><trkpt lat="38.019315" lon="12.7541785"><ele>223.99999999999997</ele><time>2026-05-06T10:27:47.564Z</time></trkpt><trkpt lat="38.0192815" lon="12.7542679"><ele>224.0</ele><time>2026-05-06T10:27:48.565Z</time></trkpt><trkpt lat="38.0192525" lon="12.7543894"><ele>224.0</ele><time>2026-05-06T10:27:49.565Z</time></trkpt><trkpt lat="38.0192222" lon="12.7545335"><ele>224.0</ele><time>2026-05-06T10:27:50.565Z</time></trkpt><trkpt lat="38.0191837" lon="12.7546773"><ele>224.0</ele><time>2026-05-06T10:27:51.563Z</time></trkpt><trkpt lat="38.0191404" lon="12.7548395"><ele>224.0</ele><time>2026-05-06T10:27:52.565Z</time></trkpt><trkpt lat="38.0191021" lon="12.7550015"><ele>224.0</ele><time>2026-05-06T10:27:53.566Z</time></trkpt><trkpt lat="38.019068" lon="12.7551716"><ele>225.75</ele><time>2026-05-06T10:27:54.566Z</time></trkpt><trkpt lat="38.0190365" lon="12.755354"><ele>227.5</ele><time>2026-05-06T10:27:55.565Z</time></trkpt><trkpt lat="38.0190075" lon="12.755535"><ele>229.25</ele><time>2026-05-06T10:27:56.566Z</time></trkpt><trkpt lat="38.0189832" lon="12.7557019"><ele>231.0</ele><time>2026-05-06T10:27:57.564Z</time></trkpt><trkpt lat="38.0189657" lon="12.7558525"><ele>231.0</ele><time>2026-05-06T10:27:58.565Z</time></trkpt><trkpt lat="38.0189561" lon="12.7559938"><ele>231.0</ele><time>2026-05-06T10:27:59.566Z</time></trkpt><trkpt lat="38.018952" lon="12.7561362"><ele>231.0</ele><time>2026-05-06T10:28:00.565Z</time></trkpt><trkpt lat="38.0189502" lon="12.7562819"><ele>231.0</ele><time>2026-05-06T10:28:01.567Z</time></trkpt><trkpt lat="38.0189504" lon="12.7564312"><ele>231.0</ele><time>2026-05-06T10:28:02.566Z</time></trkpt><trkpt lat="38.0189546" lon="12.7565887"><ele>231.0</ele><time>2026-05-06T10:28:03.564Z</time></trkpt><trkpt lat="38.0189691" lon="12.756754"><ele>231.0</ele><time>2026-05-06T10:28:04.565Z</time></trkpt><trkpt lat="38.0189857" lon="12.7569254"><ele>231.0</ele><time>2026-05-06T10:28:05.564Z</time></trkpt><trkpt lat="38.0190081" lon="12.7570997"><ele>231.0</ele><time>2026-05-06T10:28:06.564Z</time></trkpt><trkpt lat="38.0190388" lon="12.7572733"><ele>231.0</ele><time>2026-05-06T10:28:07.565Z</time></trkpt><trkpt lat="38.0190767" lon="12.7574479"><ele>231.0</ele><time>2026-05-06T10:28:08.564Z</time></trkpt><trkpt lat="38.019118" lon="12.7576217"><ele>231.0</ele><time>2026-05-06T10:28:09.563Z</time></trkpt><trkpt lat="38.0191607" lon="12.7577877"><ele>231.60000000000002</ele><time>2026-05-06T10:28:10.563Z</time></trkpt><trkpt lat="38.0192046" lon="12.7579375"><ele>232.20000000000002</ele><time>2026-05-06T10:28:11.565Z</time></trkpt><trkpt lat="38.0192475" lon="12.7580692"><ele>232.79999999999998</ele><time>2026-05-06T10:28:12.564Z</time></trkpt><trkpt lat="38.0192896" lon="12.7581897"><ele>233.39999999999998</ele><time>2026-05-06T10:28:13.565Z</time></trkpt><trkpt lat="38.0193316" lon="12.758301"><ele>234.0</ele><time>2026-05-06T10:28:14.564Z</time></trkpt><trkpt lat="38.0193691" lon="12.7584022"><ele>234.0</ele><time>2026-05-06T10:28:15.564Z</time></trkpt><trkpt lat="38.0193971" lon="12.758499"><ele>233.99999999999997</ele><time>2026-05-06T10:28:16.563Z</time></trkpt><trkpt lat="38.0193983" lon="12.75861"><ele>233.99999999999997</ele><time>2026-05-06T10:28:17.564Z</time></trkpt><trkpt lat="38.0193967" lon="12.7587317"><ele>234.0</ele><time>2026-05-06T10:28:18.563Z</time></trkpt><trkpt lat="38.0193817" lon="12.75886"><ele>234.0</ele><time>2026-05-06T10:28:19.564Z</time></trkpt><trkpt lat="38.0193533" lon="12.75899"><ele>235.25</ele><time>2026-05-06T10:28:20.566Z</time></trkpt><trkpt lat="38.0193183" lon="12.7591217"><ele>236.5</ele><time>2026-05-06T10:28:21.565Z</time></trkpt><trkpt lat="38.0192783" lon="12.7592567"><ele>237.75</ele><time>2026-05-06T10:28:22.565Z</time></trkpt><trkpt lat="38.0192367" lon="12.759395"><ele>239.0</ele><time>2026-05-06T10:28:23.565Z</time></trkpt><trkpt lat="38.0191933" lon="12.759535"><ele>241.75</ele><time>2026-05-06T10:28:24.565Z</time></trkpt><trkpt lat="38.0191467" lon="12.7596767"><ele>244.5</ele><time>2026-05-06T10:28:25.565Z</time></trkpt><trkpt lat="38.019095" lon="12.7598217"><ele>247.25</ele><time>2026-05-06T10:28:26.566Z</time></trkpt><trkpt lat="38.0190367" lon="12.7599633"><ele>250.0</ele><time>2026-05-06T10:28:27.564Z</time></trkpt><trkpt lat="38.0189717" lon="12.7600983"><ele>251.75</ele><time>2026-05-06T10:28:28.565Z</time></trkpt><trkpt lat="38.018895" lon="12.7602267"><ele>253.5</ele><time>2026-05-06T10:28:29.564Z</time></trkpt><trkpt lat="38.0188133" lon="12.7603433"><ele>255.25</ele><time>2026-05-06T10:28:30.564Z</time></trkpt><trkpt lat="38.0187217" lon="12.7604433"><ele>257.0</ele><time>2026-05-06T10:28:31.563Z</time></trkpt><trkpt lat="38.0186217" lon="12.7605317"><ele>257.0</ele><time>2026-05-06T10:28:32.565Z</time></trkpt><trkpt lat="38.018535" lon="12.7606017"><ele>257.0</ele><time>2026-05-06T10:28:33.564Z</time></trkpt><trkpt lat="38.0184617" lon="12.7606617"><ele>257.0</ele><time>2026-05-06T10:28:34.563Z</time></trkpt><trkpt lat="38.01841" lon="12.760725"><ele>257.0</ele><time>2026-05-06T10:28:35.564Z</time></trkpt><trkpt lat="38.0183833" lon="12.7608033"><ele>257.0</ele><time>2026-05-06T10:28:36.564Z</time></trkpt><trkpt lat="38.018385" lon="12.7608917"><ele>257.0</ele><time>2026-05-06T10:28:37.563Z</time></trkpt><trkpt lat="38.0184017" lon="12.7609767"><ele>258.6</ele><time>2026-05-06T10:28:38.565Z</time></trkpt><trkpt lat="38.0184333" lon="12.761075"><ele>260.2</ele><time>2026-05-06T10:28:39.564Z</time></trkpt><trkpt lat="38.0184667" lon="12.761185"><ele>261.8</ele><time>2026-05-06T10:28:40.564Z</time></trkpt><trkpt lat="38.018505" lon="12.7613067"><ele>263.4</ele><time>2026-05-06T10:28:41.565Z</time></trkpt><trkpt lat="38.018545" lon="12.7614333"><ele>265.0</ele><time>2026-05-06T10:28:42.564Z</time></trkpt><trkpt lat="38.018575" lon="12.7615483"><ele>265.0</ele><time>2026-05-06T10:28:43.564Z</time></trkpt><trkpt lat="38.01859" lon="12.7616333"><ele>265.0</ele><time>2026-05-06T10:28:44.566Z</time></trkpt><trkpt lat="38.0185433" lon="12.7617467"><ele>265.0</ele><time>2026-05-06T10:28:46.563Z</time></trkpt><trkpt lat="38.018465" lon="12.7617217"><ele>265.0</ele><time>2026-05-06T10:28:48.564Z</time></trkpt><trkpt lat="38.01836" lon="12.7616233"><ele>265.0</ele><time>2026-05-06T10:28:50.565Z</time></trkpt><trkpt lat="38.0182983" lon="12.7615683"><ele>266.4</ele><time>2026-05-06T10:28:51.565Z</time></trkpt><trkpt lat="38.0182267" lon="12.7615117"><ele>267.8</ele><time>2026-05-06T10:28:52.565Z</time></trkpt><trkpt lat="38.0181467" lon="12.7614717"><ele>269.2</ele><time>2026-05-06T10:28:53.564Z</time></trkpt><trkpt lat="38.0180567" lon="12.76145"><ele>270.6</ele><time>2026-05-06T10:28:54.563Z</time></trkpt><trkpt lat="38.01796" lon="12.7614417"><ele>272.0</ele><time>2026-05-06T10:28:55.565Z</time></trkpt><trkpt lat="38.0178583" lon="12.7614517"><ele>272.0</ele><time>2026-05-06T10:28:56.565Z</time></trkpt><trkpt lat="38.017755" lon="12.7614817"><ele>272.0</ele><time>2026-05-06T10:28:57.564Z</time></trkpt><trkpt lat="38.0176533" lon="12.7615317"><ele>272.0</ele><time>2026-05-06T10:28:58.565Z</time></trkpt><trkpt lat="38.01755" lon="12.7615933"><ele>272.0</ele><time>2026-05-06T10:28:59.564Z</time></trkpt><trkpt lat="38.017455" lon="12.76166"><ele>272.0</ele><time>2026-05-06T10:29:00.563Z</time></trkpt><trkpt lat="38.0173583" lon="12.7617233"><ele>272.6</ele><time>2026-05-06T10:29:01.563Z</time></trkpt><trkpt lat="38.0172617" lon="12.7617867"><ele>273.2</ele><time>2026-05-06T10:29:02.565Z</time></trkpt><trkpt lat="38.01717" lon="12.7618583"><ele>273.8</ele><time>2026-05-06T10:29:03.564Z</time></trkpt><trkpt lat="38.0170833" lon="12.7619433"><ele>274.4</ele><time>2026-05-06T10:29:04.563Z</time></trkpt><trkpt lat="38.0170017" lon="12.7620367"><ele>275.0</ele><time>2026-05-06T10:29:05.564Z</time></trkpt><trkpt lat="38.0169267" lon="12.7621383"><ele>277.2</ele><time>2026-05-06T10:29:06.564Z</time></trkpt><trkpt lat="38.016855" lon="12.76224"><ele>279.4</ele><time>2026-05-06T10:29:07.566Z</time></trkpt><trkpt lat="38.016785" lon="12.7623417"><ele>281.6</ele><time>2026-05-06T10:29:08.565Z</time></trkpt><trkpt lat="38.0167117" lon="12.7624433"><ele>283.8</ele><time>2026-05-06T10:29:09.565Z</time></trkpt><trkpt lat="38.0166383" lon="12.762545"><ele>286.0</ele><time>2026-05-06T10:29:10.564Z</time></trkpt><trkpt lat="38.0165683" lon="12.76265"><ele>288.6</ele><time>2026-05-06T10:29:11.564Z</time></trkpt><trkpt lat="38.0164933" lon="12.762755"><ele>291.20000000000005</ele><time>2026-05-06T10:29:12.565Z</time></trkpt><trkpt lat="38.0164217" lon="12.7628433"><ele>293.79999999999995</ele><time>2026-05-06T10:29:13.564Z</time></trkpt><trkpt lat="38.0163533" lon="12.7629"><ele>296.4</ele><time>2026-05-06T10:29:14.564Z</time></trkpt><trkpt lat="38.01624" lon="12.7629583"><ele>299.0</ele><time>2026-05-06T10:29:16.564Z</time></trkpt><trkpt lat="38.0161333" lon="12.7629733"><ele>299.0</ele><time>2026-05-06T10:29:18.564Z</time></trkpt><trkpt lat="38.0160633" lon="12.76296"><ele>299.0</ele><time>2026-05-06T10:29:19.565Z</time></trkpt><trkpt lat="38.0159833" lon="12.762935"><ele>299.0</ele><time>2026-05-06T10:29:20.565Z</time></trkpt><trkpt lat="38.0158933" lon="12.7629083"><ele>299.0</ele><time>2026-05-06T10:29:21.564Z</time></trkpt><trkpt lat="38.0157983" lon="12.7628883"><ele>299.0</ele><time>2026-05-06T10:29:22.563Z</time></trkpt><trkpt lat="38.015695" lon="12.7628817"><ele>299.0</ele><time>2026-05-06T10:29:23.564Z</time></trkpt><trkpt lat="38.0155867" lon="12.7628917"><ele>301.0</ele><time>2026-05-06T10:29:24.565Z</time></trkpt><trkpt lat="38.0154767" lon="12.762915"><ele>303.0</ele><time>2026-05-06T10:29:25.563Z</time></trkpt><trkpt lat="38.015365" lon="12.76294"><ele>305.0</ele><time>2026-05-06T10:29:26.565Z</time></trkpt><trkpt lat="38.01525" lon="12.7629683"><ele>307.0</ele><time>2026-05-06T10:29:27.565Z</time></trkpt><trkpt lat="38.0151333" lon="12.76298"><ele>307.0</ele><time>2026-05-06T10:29:28.565Z</time></trkpt><trkpt lat="38.015025" lon="12.7629683"><ele>307.0</ele><time>2026-05-06T10:29:29.565Z</time></trkpt><trkpt lat="38.0149167" lon="12.7629517"><ele>307.0</ele><time>2026-05-06T10:29:30.564Z</time></trkpt><trkpt lat="38.0148067" lon="12.76294"><ele>307.0</ele><time>2026-05-06T10:29:31.565Z</time></trkpt><trkpt lat="38.014695" lon="12.7629383"><ele>307.0</ele><time>2026-05-06T10:29:32.564Z</time></trkpt><trkpt lat="38.0145817" lon="12.76294"><ele>309.5</ele><time>2026-05-06T10:29:33.565Z</time></trkpt><trkpt lat="38.014465" lon="12.76294"><ele>312.0</ele><time>2026-05-06T10:29:34.564Z</time></trkpt><trkpt lat="38.0143467" lon="12.7629333"><ele>314.5</ele><time>2026-05-06T10:29:35.564Z</time></trkpt><trkpt lat="38.0142317" lon="12.7629133"><ele>317.0</ele><time>2026-05-06T10:29:36.564Z</time></trkpt><trkpt lat="38.014125" lon="12.7628767"><ele>318.6</ele><time>2026-05-06T10:29:37.564Z</time></trkpt><trkpt lat="38.0140383" lon="12.7628417"><ele>320.2</ele><time>2026-05-06T10:29:38.565Z</time></trkpt><trkpt lat="38.0139683" lon="12.7628233"><ele>321.8</ele><time>2026-05-06T10:29:39.563Z</time></trkpt><trkpt lat="38.013865" lon="12.762875"><ele>323.4</ele><time>2026-05-06T10:29:41.565Z</time></trkpt><trkpt lat="38.013845" lon="12.7629933"><ele>325.0</ele><time>2026-05-06T10:29:43.565Z</time></trkpt><trkpt lat="38.0139183" lon="12.7631383"><ele>325.0</ele><time>2026-05-06T10:29:45.564Z</time></trkpt><trkpt lat="38.0139783" lon="12.7632317"><ele>325.0</ele><time>2026-05-06T10:29:46.564Z</time></trkpt><trkpt lat="38.0140383" lon="12.7633217"><ele>325.0</ele><time>2026-05-06T10:29:47.563Z</time></trkpt><trkpt lat="38.014075" lon="12.7634017"><ele>325.0</ele><time>2026-05-06T10:29:48.565Z</time></trkpt><trkpt lat="38.0140667" lon="12.7635183"><ele>325.0</ele><time>2026-05-06T10:29:50.565Z</time></trkpt><trkpt lat="38.01399" lon="12.7635617"><ele>325.0</ele><time>2026-05-06T10:29:52.563Z</time></trkpt><trkpt lat="38.0138717" lon="12.76356"><ele>325.0</ele><time>2026-05-06T10:29:54.564Z</time></trkpt><trkpt lat="38.0138" lon="12.76355"><ele>325.0</ele><time>2026-05-06T10:29:55.563Z</time></trkpt><trkpt lat="38.0137183" lon="12.763535"><ele>325.0</ele><time>2026-05-06T10:29:56.565Z</time></trkpt><trkpt lat="38.0136283" lon="12.7635167"><ele>325.0</ele><time>2026-05-06T10:29:57.563Z</time></trkpt><trkpt lat="38.0135383" lon="12.7635033"><ele>325.0</ele><time>2026-05-06T10:29:58.564Z</time></trkpt><trkpt lat="38.0134483" lon="12.76349"><ele>325.0</ele><time>2026-05-06T10:29:59.564Z</time></trkpt><trkpt lat="38.0133583" lon="12.7634733"><ele>326.66666666666663</ele><time>2026-05-06T10:30:00.564Z</time></trkpt><trkpt lat="38.0132683" lon="12.7634567"><ele>328.3333333333333</ele><time>2026-05-06T10:30:01.564Z</time></trkpt><trkpt lat="38.01318" lon="12.7634383"><ele>330.0</ele><time>2026-05-06T10:30:02.564Z</time></trkpt><trkpt lat="38.0130933" lon="12.7634217"><ele>331.6666666666667</ele><time>2026-05-06T10:30:03.565Z</time></trkpt><trkpt lat="38.013005" lon="12.7634017"><ele>333.33333333333337</ele><time>2026-05-06T10:30:04.563Z</time></trkpt><trkpt lat="38.0129217" lon="12.76338"><ele>335.0</ele><time>2026-05-06T10:30:05.565Z</time></trkpt><trkpt lat="38.01285" lon="12.76336"><ele>335.0</ele><time>2026-05-06T10:30:06.564Z</time></trkpt><trkpt lat="38.012735" lon="12.7633717"><ele>335.0</ele><time>2026-05-06T10:30:08.564Z</time></trkpt><trkpt lat="38.0126883" lon="12.76347"><ele>335.0</ele><time>2026-05-06T10:30:10.564Z</time></trkpt><trkpt lat="38.012745" lon="12.7635933"><ele>335.0</ele><time>2026-05-06T10:30:12.564Z</time></trkpt><trkpt lat="38.0128033" lon="12.7636567"><ele>335.0</ele><time>2026-05-06T10:30:13.565Z</time></trkpt><trkpt lat="38.0128633" lon="12.7637267"><ele>337.0</ele><time>2026-05-06T10:30:14.564Z</time></trkpt><trkpt lat="38.0129283" lon="12.7638067"><ele>339.0</ele><time>2026-05-06T10:30:15.564Z</time></trkpt><trkpt lat="38.0129967" lon="12.76389"><ele>341.0</ele><time>2026-05-06T10:30:16.566Z</time></trkpt><trkpt lat="38.013065" lon="12.7639833"><ele>343.0</ele><time>2026-05-06T10:30:17.564Z</time></trkpt><trkpt lat="38.0131333" lon="12.76408"><ele>345.0</ele><time>2026-05-06T10:30:18.564Z</time></trkpt><trkpt lat="38.0132017" lon="12.764175"><ele>345.0</ele><time>2026-05-06T10:30:19.564Z</time></trkpt><trkpt lat="38.0132667" lon="12.76427"><ele>345.0</ele><time>2026-05-06T10:30:20.564Z</time></trkpt><trkpt lat="38.0133267" lon="12.7643583"><ele>345.0</ele><time>2026-05-06T10:30:21.564Z</time></trkpt><trkpt lat="38.0133767" lon="12.7644367"><ele>345.0</ele><time>2026-05-06T10:30:22.563Z</time></trkpt><trkpt lat="38.01342" lon="12.7645183"><ele>345.0</ele><time>2026-05-06T10:30:23.564Z</time></trkpt><trkpt lat="38.0134433" lon="12.7646033"><ele>345.0</ele><time>2026-05-06T10:30:24.564Z</time></trkpt><trkpt lat="38.0134433" lon="12.7646867"><ele>344.4</ele><time>2026-05-06T10:30:25.563Z</time></trkpt><trkpt lat="38.0134183" lon="12.764765"><ele>343.8</ele><time>2026-05-06T10:30:26.565Z</time></trkpt><trkpt lat="38.0133183" lon="12.7648467"><ele>343.20000000000005</ele><time>2026-05-06T10:30:28.565Z</time></trkpt><trkpt lat="38.0131883" lon="12.7648283"><ele>342.6</ele><time>2026-05-06T10:30:30.563Z</time></trkpt><trkpt lat="38.0131117" lon="12.7648233"><ele>342.0</ele><time>2026-05-06T10:30:31.564Z</time></trkpt><trkpt lat="38.0130367" lon="12.7648433"><ele>342.8333333333333</ele><time>2026-05-06T10:30:32.566Z</time></trkpt><trkpt lat="38.0129717" lon="12.76489"><ele>343.6666666666667</ele><time>2026-05-06T10:30:33.564Z</time></trkpt><trkpt lat="38.0129167" lon="12.7649567"><ele>344.5</ele><time>2026-05-06T10:30:34.564Z</time></trkpt><trkpt lat="38.0128633" lon="12.7650333"><ele>345.33333333333337</ele><time>2026-05-06T10:30:35.564Z</time></trkpt><trkpt lat="38.0128033" lon="12.7651217"><ele>346.1666666666667</ele><time>2026-05-06T10:30:36.564Z</time></trkpt><trkpt lat="38.0127417" lon="12.7652183"><ele>347.0</ele><time>2026-05-06T10:30:37.564Z</time></trkpt><trkpt lat="38.012675" lon="12.7653217"><ele>347.0</ele><time>2026-05-06T10:30:38.565Z</time></trkpt><trkpt lat="38.0126033" lon="12.7654283"><ele>347.0</ele><time>2026-05-06T10:30:39.564Z</time></trkpt><trkpt lat="38.0125267" lon="12.7655417"><ele>347.0</ele><time>2026-05-06T10:30:40.566Z</time></trkpt><trkpt lat="38.0124483" lon="12.7656567"><ele>347.0</ele><time>2026-05-06T10:30:41.565Z</time></trkpt><trkpt lat="38.0123667" lon="12.7657767"><ele>349.75</ele><time>2026-05-06T10:30:42.564Z</time></trkpt><trkpt lat="38.012285" lon="12.7658967"><ele>352.5</ele><time>2026-05-06T10:30:43.565Z</time></trkpt><trkpt lat="38.0122017" lon="12.766015"><ele>355.25</ele><time>2026-05-06T10:30:44.565Z</time></trkpt><trkpt lat="38.0121167" lon="12.7661317"><ele>358.0</ele><time>2026-05-06T10:30:45.564Z</time></trkpt><trkpt lat="38.0120333" lon="12.76625"><ele>358.0</ele><time>2026-05-06T10:30:46.563Z</time></trkpt><trkpt lat="38.0119517" lon="12.76637"><ele>358.0</ele><time>2026-05-06T10:30:47.563Z</time></trkpt><trkpt lat="38.0118683" lon="12.766495"><ele>358.0</ele><time>2026-05-06T10:30:48.564Z</time></trkpt><trkpt lat="38.0117833" lon="12.7666233"><ele>358.0</ele><time>2026-05-06T10:30:49.564Z</time></trkpt><trkpt lat="38.0116967" lon="12.7667533"><ele>357.25</ele><time>2026-05-06T10:30:50.564Z</time></trkpt><trkpt lat="38.01161" lon="12.7668817"><ele>356.5</ele><time>2026-05-06T10:30:51.564Z</time></trkpt><trkpt lat="38.01152" lon="12.767"><ele>355.75</ele><time>2026-05-06T10:30:52.564Z</time></trkpt><trkpt lat="38.01143" lon="12.7671"><ele>355.0</ele><time>2026-05-06T10:30:53.564Z</time></trkpt><trkpt lat="38.01134" lon="12.76718"><ele>355.0</ele><time>2026-05-06T10:30:54.564Z</time></trkpt><trkpt lat="38.0112467" lon="12.7672433"><ele>355.0</ele><time>2026-05-06T10:30:55.567Z</time></trkpt><trkpt lat="38.0111517" lon="12.76729"><ele>355.0</ele><time>2026-05-06T10:30:56.566Z</time></trkpt><trkpt lat="38.0110667" lon="12.7673367"><ele>355.0</ele><time>2026-05-06T10:30:57.564Z</time></trkpt><trkpt lat="38.010985" lon="12.7673817"><ele>355.0</ele><time>2026-05-06T10:30:58.564Z</time></trkpt><trkpt lat="38.0108983" lon="12.76742"><ele>356.4</ele><time>2026-05-06T10:30:59.565Z</time></trkpt><trkpt lat="38.01081" lon="12.7674567"><ele>357.8</ele><time>2026-05-06T10:31:00.564Z</time></trkpt><trkpt lat="38.0107167" lon="12.7674933"><ele>359.20000000000005</ele><time>2026-05-06T10:31:01.564Z</time></trkpt><trkpt lat="38.01062" lon="12.767535"><ele>360.6</ele><time>2026-05-06T10:31:02.565Z</time></trkpt><trkpt lat="38.0105233" lon="12.7675783"><ele>362.0</ele><time>2026-05-06T10:31:03.564Z</time></trkpt><trkpt lat="38.0104283" lon="12.7676283"><ele>362.0</ele><time>2026-05-06T10:31:04.565Z</time></trkpt><trkpt lat="38.0103283" lon="12.7676867"><ele>362.0</ele><time>2026-05-06T10:31:05.565Z</time></trkpt><trkpt lat="38.0102283" lon="12.7677517"><ele>362.0</ele><time>2026-05-06T10:31:06.563Z</time></trkpt><trkpt lat="38.0101283" lon="12.7678267"><ele>362.0</ele><time>2026-05-06T10:31:07.565Z</time></trkpt><trkpt lat="38.010035" lon="12.767905"><ele>361.40000000000003</ele><time>2026-05-06T10:31:08.565Z</time></trkpt><trkpt lat="38.0099433" lon="12.76798"><ele>360.8</ele><time>2026-05-06T10:31:09.565Z</time></trkpt><trkpt lat="38.0098567" lon="12.76805"><ele>360.2</ele><time>2026-05-06T10:31:10.565Z</time></trkpt><trkpt lat="38.00977" lon="12.7681217"><ele>359.6</ele><time>2026-05-06T10:31:11.565Z</time></trkpt><trkpt lat="38.0096917" lon="12.768185"><ele>359.0</ele><time>2026-05-06T10:31:12.565Z</time></trkpt><trkpt lat="38.0096167" lon="12.7682417"><ele>359.0</ele><time>2026-05-06T10:31:13.565Z</time></trkpt><trkpt lat="38.0095367" lon="12.7682883"><ele>359.0</ele><time>2026-05-06T10:31:14.566Z</time></trkpt><trkpt lat="38.00946" lon="12.7683233"><ele>359.0</ele><time>2026-05-06T10:31:15.564Z</time></trkpt><trkpt lat="38.0093883" lon="12.7683467"><ele>359.0</ele><time>2026-05-06T10:31:16.565Z</time></trkpt><trkpt lat="38.0093167" lon="12.768365"><ele>359.0</ele><time>2026-05-06T10:31:17.564Z</time></trkpt><trkpt lat="38.0092383" lon="12.7683783"><ele>359.0</ele><time>2026-05-06T10:31:18.564Z</time></trkpt><trkpt lat="38.0091517" lon="12.768395"><ele>360.6</ele><time>2026-05-06T10:31:19.564Z</time></trkpt><trkpt lat="38.0090667" lon="12.7684083"><ele>362.2</ele><time>2026-05-06T10:31:20.564Z</time></trkpt><trkpt lat="38.0089717" lon="12.7684267"><ele>363.8</ele><time>2026-05-06T10:31:21.564Z</time></trkpt><trkpt lat="38.0088717" lon="12.7684417"><ele>365.40000000000003</ele><time>2026-05-06T10:31:22.565Z</time></trkpt><trkpt lat="38.0087683" lon="12.7684583"><ele>367.0</ele><time>2026-05-06T10:31:23.563Z</time></trkpt><trkpt lat="38.008665" lon="12.7684833"><ele>367.0</ele><time>2026-05-06T10:31:24.565Z</time></trkpt><trkpt lat="38.0085617" lon="12.7685167"><ele>367.0</ele><time>2026-05-06T10:31:25.564Z</time></trkpt><trkpt lat="38.008465" lon="12.7685567"><ele>367.0</ele><time>2026-05-06T10:31:26.564Z</time></trkpt><trkpt lat="38.0083833" lon="12.7685983"><ele>367.0</ele><time>2026-05-06T10:31:27.564Z</time></trkpt><trkpt lat="38.0083117" lon="12.7686367"><ele>367.0</ele><time>2026-05-06T10:31:28.564Z</time></trkpt><trkpt lat="38.0082483" lon="12.768675"><ele>367.0</ele><time>2026-05-06T10:31:29.564Z</time></trkpt><trkpt lat="38.0081917" lon="12.76872"><ele>368.16666666666663</ele><time>2026-05-06T10:31:30.563Z</time></trkpt><trkpt lat="38.008135" lon="12.7687767"><ele>369.3333333333333</ele><time>2026-05-06T10:31:31.566Z</time></trkpt><trkpt lat="38.008085" lon="12.7688433"><ele>370.5</ele><time>2026-05-06T10:31:32.565Z</time></trkpt><trkpt lat="38.0080433" lon="12.7689233"><ele>371.6666666666667</ele><time>2026-05-06T10:31:33.564Z</time></trkpt><trkpt lat="38.0080183" lon="12.7690133"><ele>372.83333333333337</ele><time>2026-05-06T10:31:34.566Z</time></trkpt><trkpt lat="38.0080283" lon="12.769115"><ele>374.0</ele><time>2026-05-06T10:31:35.565Z</time></trkpt><trkpt lat="38.0080533" lon="12.7692167"><ele>374.0</ele><time>2026-05-06T10:31:36.565Z</time></trkpt><trkpt lat="38.008105" lon="12.7693183"><ele>374.0</ele><time>2026-05-06T10:31:37.565Z</time></trkpt><trkpt lat="38.00818" lon="12.7694"><ele>374.0</ele><time>2026-05-06T10:31:38.564Z</time></trkpt><trkpt lat="38.0082517" lon="12.76947"><ele>374.0</ele><time>2026-05-06T10:31:39.565Z</time></trkpt><trkpt lat="38.0083267" lon="12.7695367"><ele>374.0</ele><time>2026-05-06T10:31:40.565Z</time></trkpt><trkpt lat="38.0083933" lon="12.7696033"><ele>371.83333333333337</ele><time>2026-05-06T10:31:41.564Z</time></trkpt><trkpt lat="38.0084467" lon="12.769675"><ele>369.6666666666667</ele><time>2026-05-06T10:31:42.564Z</time></trkpt><trkpt lat="38.00848" lon="12.7697467"><ele>367.5</ele><time>2026-05-06T10:31:43.565Z</time></trkpt><trkpt lat="38.00848" lon="12.769895"><ele>365.3333333333333</ele><time>2026-05-06T10:31:45.564Z</time></trkpt><trkpt lat="38.0084483" lon="12.7699683"><ele>363.16666666666663</ele><time>2026-05-06T10:31:46.564Z</time></trkpt><trkpt lat="38.0084067" lon="12.7700383"><ele>361.0</ele><time>2026-05-06T10:31:47.563Z</time></trkpt><trkpt lat="38.008365" lon="12.7701117"><ele>360.5</ele><time>2026-05-06T10:31:48.564Z</time></trkpt><trkpt lat="38.0083267" lon="12.7701933"><ele>360.0</ele><time>2026-05-06T10:31:49.564Z</time></trkpt><trkpt lat="38.0082867" lon="12.7702783"><ele>359.5</ele><time>2026-05-06T10:31:50.566Z</time></trkpt><trkpt lat="38.008245" lon="12.77037"><ele>359.0</ele><time>2026-05-06T10:31:51.564Z</time></trkpt><trkpt lat="38.0082" lon="12.7704667"><ele>358.5</ele><time>2026-05-06T10:31:52.565Z</time></trkpt><trkpt lat="38.0081517" lon="12.7705667"><ele>358.0</ele><time>2026-05-06T10:31:53.563Z</time></trkpt><trkpt lat="38.0081017" lon="12.7706717"><ele>360.2</ele><time>2026-05-06T10:31:54.564Z</time></trkpt><trkpt lat="38.00805" lon="12.7707817"><ele>362.4</ele><time>2026-05-06T10:31:55.563Z</time></trkpt><trkpt lat="38.0079967" lon="12.770895"><ele>364.59999999999997</ele><time>2026-05-06T10:31:56.565Z</time></trkpt><trkpt lat="38.0079433" lon="12.7710117"><ele>366.79999999999995</ele><time>2026-05-06T10:31:57.564Z</time></trkpt><trkpt lat="38.0078883" lon="12.77113"><ele>369.0</ele><time>2026-05-06T10:31:58.566Z</time></trkpt><trkpt lat="38.0078383" lon="12.7712417"><ele>369.0</ele><time>2026-05-06T10:31:59.563Z</time></trkpt><trkpt lat="38.0077933" lon="12.771345"><ele>369.0</ele><time>2026-05-06T10:32:00.564Z</time></trkpt><trkpt lat="38.00775" lon="12.7714433"><ele>369.0</ele><time>2026-05-06T10:32:01.565Z</time></trkpt><trkpt lat="38.0077017" lon="12.7715433"><ele>369.0</ele><time>2026-05-06T10:32:02.564Z</time></trkpt><trkpt lat="38.0076483" lon="12.7716367"><ele>369.0</ele><time>2026-05-06T10:32:03.564Z</time></trkpt><trkpt lat="38.0075867" lon="12.7717233"><ele>369.0</ele><time>2026-05-06T10:32:04.564Z</time></trkpt><trkpt lat="38.00752" lon="12.7717967"><ele>369.0</ele><time>2026-05-06T10:32:05.564Z</time></trkpt><trkpt lat="38.0074583" lon="12.7718533"><ele>369.0</ele><time>2026-05-06T10:32:06.563Z</time></trkpt><trkpt lat="38.00739" lon="12.7719"><ele>369.0</ele><time>2026-05-06T10:32:07.566Z</time></trkpt><trkpt lat="38.0073133" lon="12.7719433"><ele>369.0</ele><time>2026-05-06T10:32:08.564Z</time></trkpt><trkpt lat="38.0072333" lon="12.77199"><ele>369.0</ele><time>2026-05-06T10:32:09.565Z</time></trkpt><trkpt lat="38.00715" lon="12.7720383"><ele>369.5</ele><time>2026-05-06T10:32:10.565Z</time></trkpt><trkpt lat="38.0070733" lon="12.7720867"><ele>370.0</ele><time>2026-05-06T10:32:11.564Z</time></trkpt><trkpt lat="38.0070117" lon="12.7721433"><ele>370.5</ele><time>2026-05-06T10:32:12.564Z</time></trkpt><trkpt lat="38.0069583" lon="12.77221"><ele>371.0</ele><time>2026-05-06T10:32:13.564Z</time></trkpt><trkpt lat="38.0069167" lon="12.77229"><ele>371.5</ele><time>2026-05-06T10:32:14.567Z</time></trkpt><trkpt lat="38.0068917" lon="12.77238"><ele>372.0</ele><time>2026-05-06T10:32:15.565Z</time></trkpt><trkpt lat="38.0068683" lon="12.7724783"><ele>372.0</ele><time>2026-05-06T10:32:16.565Z</time></trkpt><trkpt lat="38.0068467" lon="12.7725867"><ele>372.0</ele><time>2026-05-06T10:32:17.564Z</time></trkpt><trkpt lat="38.0068217" lon="12.7727033"><ele>372.0</ele><time>2026-05-06T10:32:18.564Z</time></trkpt><trkpt lat="38.00679" lon="12.772825"><ele>372.0</ele><time>2026-05-06T10:32:19.564Z</time></trkpt><trkpt lat="38.006755" lon="12.7729517"><ele>372.0</ele><time>2026-05-06T10:32:20.565Z</time></trkpt><trkpt lat="38.006715" lon="12.77308"><ele>371.6</ele><time>2026-05-06T10:32:21.564Z</time></trkpt><trkpt lat="38.0066667" lon="12.7732083"><ele>371.20000000000005</ele><time>2026-05-06T10:32:22.564Z</time></trkpt><trkpt lat="38.0066183" lon="12.77333"><ele>370.8</ele><time>2026-05-06T10:32:23.565Z</time></trkpt><trkpt lat="38.0065767" lon="12.7734467"><ele>370.4</ele><time>2026-05-06T10:32:24.565Z</time></trkpt><trkpt lat="38.00654" lon="12.773565"><ele>370.0</ele><time>2026-05-06T10:32:25.564Z</time></trkpt><trkpt lat="38.0065067" lon="12.773685"><ele>373.6</ele><time>2026-05-06T10:32:26.564Z</time></trkpt><trkpt lat="38.0064817" lon="12.7738033"><ele>377.2</ele><time>2026-05-06T10:32:27.564Z</time></trkpt><trkpt lat="38.00646" lon="12.7739167"><ele>380.79999999999995</ele><time>2026-05-06T10:32:28.565Z</time></trkpt><trkpt lat="38.0064283" lon="12.7740283"><ele>384.4</ele><time>2026-05-06T10:32:29.564Z</time></trkpt><trkpt lat="38.00639" lon="12.77414"><ele>388.0</ele><time>2026-05-06T10:32:30.563Z</time></trkpt><trkpt lat="38.006355" lon="12.7742533"><ele>388.6666666666667</ele><time>2026-05-06T10:32:31.565Z</time></trkpt><trkpt lat="38.006325" lon="12.7743617"><ele>389.33333333333337</ele><time>2026-05-06T10:32:32.565Z</time></trkpt><trkpt lat="38.006305" lon="12.7744717"><ele>390.0</ele><time>2026-05-06T10:32:33.564Z</time></trkpt><trkpt lat="38.0063033" lon="12.77458"><ele>390.66666666666663</ele><time>2026-05-06T10:32:34.564Z</time></trkpt><trkpt lat="38.0063167" lon="12.774685"><ele>391.3333333333333</ele><time>2026-05-06T10:32:35.564Z</time></trkpt><trkpt lat="38.0063467" lon="12.774785"><ele>392.0</ele><time>2026-05-06T10:32:36.563Z</time></trkpt><trkpt lat="38.00638" lon="12.774875"><ele>391.99999999999994</ele><time>2026-05-06T10:32:37.565Z</time></trkpt><trkpt lat="38.0064167" lon="12.7749633"><ele>392.0</ele><time>2026-05-06T10:32:38.565Z</time></trkpt><trkpt lat="38.0064517" lon="12.7750567"><ele>392.0</ele><time>2026-05-06T10:32:39.564Z</time></trkpt><trkpt lat="38.0064767" lon="12.775155"><ele>392.0</ele><time>2026-05-06T10:32:40.565Z</time></trkpt><trkpt lat="38.0064917" lon="12.77526"><ele>391.99999999999994</ele><time>2026-05-06T10:32:41.564Z</time></trkpt><trkpt lat="38.0064933" lon="12.77536"><ele>392.0</ele><time>2026-05-06T10:32:42.564Z</time></trkpt><trkpt lat="38.0064817" lon="12.775455"><ele>392.3333333333333</ele><time>2026-05-06T10:32:43.563Z</time></trkpt><trkpt lat="38.0064533" lon="12.7755483"><ele>392.66666666666663</ele><time>2026-05-06T10:32:44.565Z</time></trkpt><trkpt lat="38.0064167" lon="12.7756383"><ele>393.0</ele><time>2026-05-06T10:32:45.563Z</time></trkpt><trkpt lat="38.00637" lon="12.7757183"><ele>393.33333333333337</ele><time>2026-05-06T10:32:46.564Z</time></trkpt><trkpt lat="38.0063167" lon="12.7757983"><ele>393.6666666666667</ele><time>2026-05-06T10:32:47.564Z</time></trkpt><trkpt lat="38.0062683" lon="12.7758783"><ele>394.0</ele><time>2026-05-06T10:32:48.565Z</time></trkpt><trkpt lat="38.0062233" lon="12.7759633"><ele>393.33333333333337</ele><time>2026-05-06T10:32:49.563Z</time></trkpt><trkpt lat="38.0061783" lon="12.7760517"><ele>392.6666666666667</ele><time>2026-05-06T10:32:50.564Z</time></trkpt><trkpt lat="38.0061383" lon="12.776145"><ele>392.0</ele><time>2026-05-06T10:32:51.565Z</time></trkpt><trkpt lat="38.0060983" lon="12.7762417"><ele>391.33333333333337</ele><time>2026-05-06T10:32:52.565Z</time></trkpt><trkpt lat="38.00606" lon="12.77634"><ele>390.6666666666667</ele><time>2026-05-06T10:32:53.565Z</time></trkpt><trkpt lat="38.0060183" lon="12.7764367"><ele>390.0</ele><time>2026-05-06T10:32:54.565Z</time></trkpt><trkpt lat="38.00598" lon="12.7765383"><ele>390.0</ele><time>2026-05-06T10:32:55.565Z</time></trkpt><trkpt lat="38.0059417" lon="12.77663"><ele>390.0</ele><time>2026-05-06T10:32:56.564Z</time></trkpt><trkpt lat="38.005905" lon="12.7767183"><ele>390.0</ele><time>2026-05-06T10:32:57.563Z</time></trkpt><trkpt lat="38.0058667" lon="12.77681"><ele>390.0</ele><time>2026-05-06T10:32:58.565Z</time></trkpt><trkpt lat="38.0058267" lon="12.7769017"><ele>390.0</ele><time>2026-05-06T10:32:59.566Z</time></trkpt><trkpt lat="38.00579" lon="12.7769917"><ele>390.0</ele><time>2026-05-06T10:33:00.564Z</time></trkpt><trkpt lat="38.0057533" lon="12.7770767"><ele>390.5</ele><time>2026-05-06T10:33:01.564Z</time></trkpt><trkpt lat="38.005715" lon="12.77716"><ele>391.0</ele><time>2026-05-06T10:33:02.565Z</time></trkpt><trkpt lat="38.005675" lon="12.7772467"><ele>391.5</ele><time>2026-05-06T10:33:03.564Z</time></trkpt><trkpt lat="38.0056317" lon="12.777335"><ele>392.0</ele><time>2026-05-06T10:33:04.565Z</time></trkpt><trkpt lat="38.0055883" lon="12.77743"><ele>392.5</ele><time>2026-05-06T10:33:05.565Z</time></trkpt><trkpt lat="38.0055417" lon="12.7775267"><ele>393.0</ele><time>2026-05-06T10:33:06.564Z</time></trkpt><trkpt lat="38.0054967" lon="12.7776167"><ele>392.8333333333333</ele><time>2026-05-06T10:33:07.566Z</time></trkpt><trkpt lat="38.0054517" lon="12.7777033"><ele>392.66666666666663</ele><time>2026-05-06T10:33:08.565Z</time></trkpt><trkpt lat="38.0054067" lon="12.7777917"><ele>392.5</ele><time>2026-05-06T10:33:09.565Z</time></trkpt><trkpt lat="38.0053667" lon="12.77788"><ele>392.3333333333333</ele><time>2026-05-06T10:33:10.564Z</time></trkpt><trkpt lat="38.005325" lon="12.7779633"><ele>392.16666666666663</ele><time>2026-05-06T10:33:11.564Z</time></trkpt><trkpt lat="38.0052817" lon="12.7780533"><ele>392.0</ele><time>2026-05-06T10:33:12.564Z</time></trkpt><trkpt lat="38.00524" lon="12.77815"><ele>392.0</ele><time>2026-05-06T10:33:13.564Z</time></trkpt><trkpt lat="38.0052017" lon="12.7782483"><ele>392.0</ele><time>2026-05-06T10:33:14.566Z</time></trkpt><trkpt lat="38.0051633" lon="12.7783517"><ele>392.0</ele><time>2026-05-06T10:33:15.565Z</time></trkpt><trkpt lat="38.0051283" lon="12.7784633"><ele>392.0</ele><time>2026-05-06T10:33:16.565Z</time></trkpt><trkpt lat="38.0050983" lon="12.7785767"><ele>392.0</ele><time>2026-05-06T10:33:17.565Z</time></trkpt><trkpt lat="38.0050733" lon="12.7786967"><ele>391.8</ele><time>2026-05-06T10:33:18.564Z</time></trkpt><trkpt lat="38.00505" lon="12.77882"><ele>391.6</ele><time>2026-05-06T10:33:19.566Z</time></trkpt><trkpt lat="38.00502" lon="12.778945"><ele>391.40000000000003</ele><time>2026-05-06T10:33:20.565Z</time></trkpt><trkpt lat="38.0049867" lon="12.7790667"><ele>391.20000000000005</ele><time>2026-05-06T10:33:21.565Z</time></trkpt><trkpt lat="38.0049467" lon="12.7791833"><ele>391.0</ele><time>2026-05-06T10:33:22.563Z</time></trkpt><trkpt lat="38.0049017" lon="12.7793"><ele>392.8</ele><time>2026-05-06T10:33:23.565Z</time></trkpt><trkpt lat="38.004855" lon="12.779415"><ele>394.6</ele><time>2026-05-06T10:33:24.564Z</time></trkpt><trkpt lat="38.0048083" lon="12.7795317"><ele>396.4</ele><time>2026-05-06T10:33:25.563Z</time></trkpt><trkpt lat="38.004765" lon="12.779655"><ele>398.2</ele><time>2026-05-06T10:33:26.564Z</time></trkpt><trkpt lat="38.00472" lon="12.779785"><ele>400.0</ele><time>2026-05-06T10:33:27.563Z</time></trkpt><trkpt lat="38.0046767" lon="12.77992"><ele>400.0</ele><time>2026-05-06T10:33:28.565Z</time></trkpt><trkpt lat="38.0046383" lon="12.7800567"><ele>400.0</ele><time>2026-05-06T10:33:29.564Z</time></trkpt><trkpt lat="38.0046033" lon="12.78019"><ele>400.0</ele><time>2026-05-06T10:33:30.564Z</time></trkpt><trkpt lat="38.0045717" lon="12.7803217"><ele>400.0</ele><time>2026-05-06T10:33:31.564Z</time></trkpt><trkpt lat="38.0045333" lon="12.7804517"><ele>400.0</ele><time>2026-05-06T10:33:32.566Z</time></trkpt><trkpt lat="38.0044867" lon="12.7805733"><ele>400.0</ele><time>2026-05-06T10:33:33.565Z</time></trkpt><trkpt lat="38.00443" lon="12.78069"><ele>400.0</ele><time>2026-05-06T10:33:34.564Z</time></trkpt><trkpt lat="38.0043683" lon="12.7808"><ele>400.0</ele><time>2026-05-06T10:33:35.564Z</time></trkpt><trkpt lat="38.0043" lon="12.7809033"><ele>400.0</ele><time>2026-05-06T10:33:36.563Z</time></trkpt><trkpt lat="38.004225" lon="12.7810033"><ele>400.0</ele><time>2026-05-06T10:33:37.564Z</time></trkpt><trkpt lat="38.004145" lon="12.7811017"><ele>401.25</ele><time>2026-05-06T10:33:38.564Z</time></trkpt><trkpt lat="38.0040633" lon="12.7812"><ele>402.5</ele><time>2026-05-06T10:33:39.565Z</time></trkpt><trkpt lat="38.00398" lon="12.7813"><ele>403.75</ele><time>2026-05-06T10:33:40.565Z</time></trkpt><trkpt lat="38.0038983" lon="12.7813983"><ele>405.0</ele><time>2026-05-06T10:33:41.565Z</time></trkpt><trkpt lat="38.0038183" lon="12.7814967"><ele>405.0</ele><time>2026-05-06T10:33:42.564Z</time></trkpt><trkpt lat="38.00374" lon="12.7815933"><ele>405.0</ele><time>2026-05-06T10:33:43.563Z</time></trkpt><trkpt lat="38.00366" lon="12.7816917"><ele>405.0</ele><time>2026-05-06T10:33:44.563Z</time></trkpt><trkpt lat="38.0035817" lon="12.7817883"><ele>405.0</ele><time>2026-05-06T10:33:45.563Z</time></trkpt><trkpt lat="38.003505" lon="12.7818833"><ele>405.0</ele><time>2026-05-06T10:33:46.564Z</time></trkpt><trkpt lat="38.0034267" lon="12.781975"><ele>404.6</ele><time>2026-05-06T10:33:47.564Z</time></trkpt><trkpt lat="38.0033467" lon="12.7820633"><ele>404.2</ele><time>2026-05-06T10:33:48.564Z</time></trkpt><trkpt lat="38.0032583" lon="12.7821483"><ele>403.79999999999995</ele><time>2026-05-06T10:33:49.565Z</time></trkpt><trkpt lat="38.0031717" lon="12.7822283"><ele>403.4</ele><time>2026-05-06T10:33:50.565Z</time></trkpt><trkpt lat="38.003085" lon="12.7823083"><ele>403.0</ele><time>2026-05-06T10:33:51.564Z</time></trkpt><trkpt lat="38.002996" lon="12.7823863"><ele>403.79999999999995</ele><time>2026-05-06T10:33:52.565Z</time></trkpt><trkpt lat="38.0029055" lon="12.7824622"><ele>404.6</ele><time>2026-05-06T10:33:53.564Z</time></trkpt><trkpt lat="38.0028136" lon="12.7825401"><ele>405.4</ele><time>2026-05-06T10:33:54.564Z</time></trkpt><trkpt lat="38.0027207" lon="12.7826172"><ele>406.20000000000005</ele><time>2026-05-06T10:33:55.564Z</time></trkpt><trkpt lat="38.0026271" lon="12.7826931"><ele>407.0</ele><time>2026-05-06T10:33:56.569Z</time></trkpt><trkpt lat="38.002531" lon="12.7827646"><ele>409.25</ele><time>2026-05-06T10:33:57.564Z</time></trkpt><trkpt lat="38.0024312" lon="12.7828306"><ele>411.5</ele><time>2026-05-06T10:33:58.564Z</time></trkpt><trkpt lat="38.0023265" lon="12.7828868"><ele>413.75</ele><time>2026-05-06T10:33:59.563Z</time></trkpt><trkpt lat="38.0022166" lon="12.7829308"><ele>416.0</ele><time>2026-05-06T10:34:00.563Z</time></trkpt><trkpt lat="38.0021048" lon="12.782971"><ele>416.0</ele><time>2026-05-06T10:34:01.564Z</time></trkpt><trkpt lat="38.0019925" lon="12.7830147"><ele>416.0</ele><time>2026-05-06T10:34:02.566Z</time></trkpt><trkpt lat="38.0018766" lon="12.7830603"><ele>416.0</ele><time>2026-05-06T10:34:03.564Z</time></trkpt><trkpt lat="38.0017632" lon="12.7831046"><ele>416.0</ele><time>2026-05-06T10:34:04.564Z</time></trkpt><trkpt lat="38.0016598" lon="12.7831476"><ele>417.8</ele><time>2026-05-06T10:34:05.564Z</time></trkpt><trkpt lat="38.0015679" lon="12.783193"><ele>419.6</ele><time>2026-05-06T10:34:06.564Z</time></trkpt><trkpt lat="38.0014863" lon="12.7832468"><ele>421.4</ele><time>2026-05-06T10:34:07.563Z</time></trkpt><trkpt lat="38.0014094" lon="12.7833147"><ele>423.2</ele><time>2026-05-06T10:34:08.563Z</time></trkpt><trkpt lat="38.0013403" lon="12.7834003"><ele>425.0</ele><time>2026-05-06T10:34:09.564Z</time></trkpt><trkpt lat="38.0012791" lon="12.7835027"><ele>424.8</ele><time>2026-05-06T10:34:10.564Z</time></trkpt><trkpt lat="38.0012221" lon="12.7836133"><ele>424.6</ele><time>2026-05-06T10:34:11.565Z</time></trkpt><trkpt lat="38.0011651" lon="12.7837291"><ele>424.4</ele><time>2026-05-06T10:34:12.564Z</time></trkpt><trkpt lat="38.0011153" lon="12.7838467"><ele>424.2</ele><time>2026-05-06T10:34:13.563Z</time></trkpt><trkpt lat="38.0010682" lon="12.7839671"><ele>424.0</ele><time>2026-05-06T10:34:14.564Z</time></trkpt><trkpt lat="38.0010168" lon="12.7840865"><ele>424.0</ele><time>2026-05-06T10:34:15.564Z</time></trkpt><trkpt lat="38.0009659" lon="12.7842075"><ele>424.0</ele><time>2026-05-06T10:34:16.565Z</time></trkpt><trkpt lat="38.0009159" lon="12.7843308"><ele>424.0</ele><time>2026-05-06T10:34:17.564Z</time></trkpt><trkpt lat="38.0008675" lon="12.7844545"><ele>424.0</ele><time>2026-05-06T10:34:18.564Z</time></trkpt><trkpt lat="38.0008162" lon="12.784578"><ele>424.0</ele><time>2026-05-06T10:34:19.568Z</time></trkpt><trkpt lat="38.0007624" lon="12.7847022"><ele>426.6</ele><time>2026-05-06T10:34:20.564Z</time></trkpt><trkpt lat="38.0007075" lon="12.7848287"><ele>429.2</ele><time>2026-05-06T10:34:21.563Z</time></trkpt><trkpt lat="38.0006522" lon="12.7849558"><ele>431.80000000000007</ele><time>2026-05-06T10:34:22.565Z</time></trkpt><trkpt lat="38.0005986" lon="12.7850685"><ele>434.40000000000003</ele><time>2026-05-06T10:34:23.565Z</time></trkpt><trkpt lat="38.0005413" lon="12.785161"><ele>437.0</ele><time>2026-05-06T10:34:24.567Z</time></trkpt><trkpt lat="38.0004743" lon="12.7852403"><ele>437.0</ele><time>2026-05-06T10:34:25.564Z</time></trkpt><trkpt lat="38.0003965" lon="12.7853084"><ele>437.00000000000006</ele><time>2026-05-06T10:34:26.564Z</time></trkpt><trkpt lat="38.0003132" lon="12.7853675"><ele>437.00000000000006</ele><time>2026-05-06T10:34:27.563Z</time></trkpt><trkpt lat="38.0002279" lon="12.78542"><ele>437.0</ele><time>2026-05-06T10:34:28.565Z</time></trkpt><trkpt lat="38.0001438" lon="12.785467"><ele>437.0</ele><time>2026-05-06T10:34:29.565Z</time></trkpt><trkpt lat="38.0000617" lon="12.7855195"><ele>437.0</ele><time>2026-05-06T10:34:30.564Z</time></trkpt><trkpt lat="37.9999818" lon="12.785575"><ele>437.00000000000006</ele><time>2026-05-06T10:34:31.564Z</time></trkpt><trkpt lat="37.9999017" lon="12.7856298"><ele>437.00000000000006</ele><time>2026-05-06T10:34:32.565Z</time></trkpt><trkpt lat="37.9998216" lon="12.7856897"><ele>437.0</ele><time>2026-05-06T10:34:33.564Z</time></trkpt><trkpt lat="37.9997472" lon="12.7857625"><ele>437.0</ele><time>2026-05-06T10:34:34.563Z</time></trkpt><trkpt lat="37.9996883" lon="12.7858499"><ele>436.99999999999994</ele><time>2026-05-06T10:34:35.563Z</time></trkpt><trkpt lat="37.99964" lon="12.7859449"><ele>437.0</ele><time>2026-05-06T10:34:36.564Z</time></trkpt><trkpt lat="37.9995931" lon="12.7860413"><ele>437.0</ele><time>2026-05-06T10:34:37.563Z</time></trkpt><trkpt lat="37.9995498" lon="12.7861318"><ele>437.0</ele><time>2026-05-06T10:34:38.564Z</time></trkpt><trkpt lat="37.9995084" lon="12.7862135"><ele>436.99999999999994</ele><time>2026-05-06T10:34:39.564Z</time></trkpt><trkpt lat="37.9994659" lon="12.7862961"><ele>437.0</ele><time>2026-05-06T10:34:40.564Z</time></trkpt><trkpt lat="37.9994253" lon="12.7863761"><ele>438.20000000000005</ele><time>2026-05-06T10:34:41.564Z</time></trkpt><trkpt lat="37.9993894" lon="12.7864427"><ele>439.40000000000003</ele><time>2026-05-06T10:34:42.566Z</time></trkpt><trkpt lat="37.999333" lon="12.7865502"><ele>440.59999999999997</ele><time>2026-05-06T10:34:44.565Z</time></trkpt><trkpt lat="37.9992681" lon="12.7866455"><ele>441.79999999999995</ele><time>2026-05-06T10:34:46.563Z</time></trkpt><trkpt lat="37.9991778" lon="12.7867606"><ele>443.0</ele><time>2026-05-06T10:34:48.564Z</time></trkpt><trkpt lat="37.9991265" lon="12.7868316"><ele>444.0</ele><time>2026-05-06T10:34:49.564Z</time></trkpt><trkpt lat="37.9990768" lon="12.7869113"><ele>445.0</ele><time>2026-05-06T10:34:50.565Z</time></trkpt><trkpt lat="37.9990355" lon="12.7869996"><ele>446.0</ele><time>2026-05-06T10:34:51.563Z</time></trkpt><trkpt lat="37.9990051" lon="12.7870929"><ele>447.0</ele><time>2026-05-06T10:34:52.565Z</time></trkpt><trkpt lat="37.998998" lon="12.7871804"><ele>448.0</ele><time>2026-05-06T10:34:53.565Z</time></trkpt><trkpt lat="37.9990046" lon="12.7872643"><ele>449.00000000000006</ele><time>2026-05-06T10:34:54.565Z</time></trkpt><trkpt lat="37.9990184" lon="12.7873488"><ele>450.00000000000006</ele><time>2026-05-06T10:34:55.563Z</time></trkpt><trkpt lat="37.9990323" lon="12.7874338"><ele>450.0</ele><time>2026-05-06T10:34:56.565Z</time></trkpt><trkpt lat="37.9990463" lon="12.7875216"><ele>450.0</ele><time>2026-05-06T10:34:57.564Z</time></trkpt><trkpt lat="37.9990614" lon="12.7876114"><ele>450.0</ele><time>2026-05-06T10:34:58.564Z</time></trkpt><trkpt lat="37.999077" lon="12.7876999"><ele>450.0</ele><time>2026-05-06T10:34:59.564Z</time></trkpt><trkpt lat="37.9990919" lon="12.7877924"><ele>450.0</ele><time>2026-05-06T10:35:00.564Z</time></trkpt><trkpt lat="37.999111" lon="12.7878916"><ele>450.0</ele><time>2026-05-06T10:35:01.566Z</time></trkpt><trkpt lat="37.9991396" lon="12.7879974"><ele>448.0</ele><time>2026-05-06T10:35:02.564Z</time></trkpt><trkpt lat="37.9991776" lon="12.7881108"><ele>446.0</ele><time>2026-05-06T10:35:03.564Z</time></trkpt><trkpt lat="37.99922" lon="12.7882251"><ele>444.0</ele><time>2026-05-06T10:35:04.565Z</time></trkpt><trkpt lat="37.9992597" lon="12.7883374"><ele>442.0</ele><time>2026-05-06T10:35:05.565Z</time></trkpt><trkpt lat="37.9992937" lon="12.7884484"><ele>440.0</ele><time>2026-05-06T10:35:06.564Z</time></trkpt><trkpt lat="37.9993221" lon="12.788563"><ele>438.4</ele><time>2026-05-06T10:35:07.565Z</time></trkpt><trkpt lat="37.999348" lon="12.7886864"><ele>436.8</ele><time>2026-05-06T10:35:08.566Z</time></trkpt><trkpt lat="37.9993671" lon="12.7888176"><ele>435.20000000000005</ele><time>2026-05-06T10:35:09.564Z</time></trkpt><trkpt lat="37.9993806" lon="12.7889534"><ele>433.6</ele><time>2026-05-06T10:35:10.563Z</time></trkpt><trkpt lat="37.9993906" lon="12.7890924"><ele>432.0</ele><time>2026-05-06T10:35:11.565Z</time></trkpt><trkpt lat="37.9993985" lon="12.7892344"><ele>430.8</ele><time>2026-05-06T10:35:12.565Z</time></trkpt><trkpt lat="37.9994041" lon="12.7893749"><ele>429.6</ele><time>2026-05-06T10:35:13.565Z</time></trkpt><trkpt lat="37.9994076" lon="12.7895138"><ele>428.40000000000003</ele><time>2026-05-06T10:35:14.568Z</time></trkpt><trkpt lat="37.9994105" lon="12.7896519"><ele>427.20000000000005</ele><time>2026-05-06T10:35:15.564Z</time></trkpt><trkpt lat="37.9994137" lon="12.7897889"><ele>426.0</ele><time>2026-05-06T10:35:16.564Z</time></trkpt><trkpt lat="37.9994198" lon="12.7899237"><ele>426.0</ele><time>2026-05-06T10:35:17.564Z</time></trkpt><trkpt lat="37.999428" lon="12.7900584"><ele>426.0</ele><time>2026-05-06T10:35:18.565Z</time></trkpt><trkpt lat="37.9994367" lon="12.7901919"><ele>426.0</ele><time>2026-05-06T10:35:19.564Z</time></trkpt><trkpt lat="37.9994477" lon="12.7903235"><ele>426.0</ele><time>2026-05-06T10:35:20.566Z</time></trkpt><trkpt lat="37.9994655" lon="12.790452"><ele>426.0</ele><time>2026-05-06T10:35:21.564Z</time></trkpt><trkpt lat="37.9994877" lon="12.79058"><ele>424.75</ele><time>2026-05-06T10:35:22.563Z</time></trkpt><trkpt lat="37.9995087" lon="12.7907123"><ele>423.5</ele><time>2026-05-06T10:35:23.564Z</time></trkpt><trkpt lat="37.999523" lon="12.7908506"><ele>422.25</ele><time>2026-05-06T10:35:24.564Z</time></trkpt><trkpt lat="37.9995316" lon="12.7909969"><ele>421.0</ele><time>2026-05-06T10:35:25.565Z</time></trkpt><trkpt lat="37.9995335" lon="12.7911488"><ele>419.75</ele><time>2026-05-06T10:35:26.566Z</time></trkpt><trkpt lat="37.9995302" lon="12.7913012"><ele>418.5</ele><time>2026-05-06T10:35:27.565Z</time></trkpt><trkpt lat="37.9995264" lon="12.7914489"><ele>417.25</ele><time>2026-05-06T10:35:28.565Z</time></trkpt><trkpt lat="37.9995225" lon="12.7915951"><ele>416.0</ele><time>2026-05-06T10:35:29.564Z</time></trkpt><trkpt lat="37.999519" lon="12.7917375"><ele>414.8</ele><time>2026-05-06T10:35:30.565Z</time></trkpt><trkpt lat="37.9995172" lon="12.7918787"><ele>413.6</ele><time>2026-05-06T10:35:31.564Z</time></trkpt><trkpt lat="37.9995153" lon="12.7920186"><ele>412.4</ele><time>2026-05-06T10:35:32.566Z</time></trkpt><trkpt lat="37.9995179" lon="12.792158"><ele>411.2</ele><time>2026-05-06T10:35:33.565Z</time></trkpt><trkpt lat="37.9995178" lon="12.7922954"><ele>410.0</ele><time>2026-05-06T10:35:34.566Z</time></trkpt><trkpt lat="37.9995159" lon="12.7924332"><ele>410.0</ele><time>2026-05-06T10:35:35.566Z</time></trkpt><trkpt lat="37.9995153" lon="12.7925685"><ele>410.0</ele><time>2026-05-06T10:35:36.565Z</time></trkpt><trkpt lat="37.9995139" lon="12.7926997"><ele>410.0</ele><time>2026-05-06T10:35:37.566Z</time></trkpt><trkpt lat="37.9995122" lon="12.7928297"><ele>410.0</ele><time>2026-05-06T10:35:38.566Z</time></trkpt><trkpt lat="37.9995077" lon="12.7929592"><ele>410.0</ele><time>2026-05-06T10:35:39.566Z</time></trkpt><trkpt lat="37.9995005" lon="12.793089"><ele>409.0</ele><time>2026-05-06T10:35:40.565Z</time></trkpt><trkpt lat="37.999486" lon="12.7932202"><ele>408.0</ele><time>2026-05-06T10:35:41.565Z</time></trkpt><trkpt lat="37.9994648" lon="12.7933517"><ele>407.0</ele><time>2026-05-06T10:35:42.564Z</time></trkpt><trkpt lat="37.9994397" lon="12.7934808"><ele>406.0</ele><time>2026-05-06T10:35:43.565Z</time></trkpt><trkpt lat="37.9994114" lon="12.7936105"><ele>405.0</ele><time>2026-05-06T10:35:44.565Z</time></trkpt><trkpt lat="37.9993827" lon="12.7937391"><ele>403.0</ele><time>2026-05-06T10:35:45.565Z</time></trkpt><trkpt lat="37.9993554" lon="12.7938702"><ele>401.0</ele><time>2026-05-06T10:35:46.567Z</time></trkpt><trkpt lat="37.9993259" lon="12.793999"><ele>399.0</ele><time>2026-05-06T10:35:47.566Z</time></trkpt><trkpt lat="37.9992973" lon="12.7941284"><ele>397.0</ele><time>2026-05-06T10:35:48.565Z</time></trkpt><trkpt lat="37.999269" lon="12.7942571"><ele>395.0</ele><time>2026-05-06T10:35:49.567Z</time></trkpt><trkpt lat="37.9992376" lon="12.7943898"><ele>395.2</ele><time>2026-05-06T10:35:50.565Z</time></trkpt><trkpt lat="37.9992055" lon="12.7945267"><ele>395.4</ele><time>2026-05-06T10:35:51.567Z</time></trkpt><trkpt lat="37.999175" lon="12.7946577"><ele>395.6</ele><time>2026-05-06T10:35:52.566Z</time></trkpt><trkpt lat="37.9991506" lon="12.7947746"><ele>395.8</ele><time>2026-05-06T10:35:53.567Z</time></trkpt><trkpt lat="37.9991375" lon="12.794872"><ele>396.0</ele><time>2026-05-06T10:35:54.565Z</time></trkpt><trkpt lat="37.9991395" lon="12.7949529"><ele>394.4</ele><time>2026-05-06T10:35:55.564Z</time></trkpt><trkpt lat="37.999185" lon="12.7950804"><ele>392.8</ele><time>2026-05-06T10:35:57.565Z</time></trkpt><trkpt lat="37.9993021" lon="12.7951355"><ele>391.2</ele><time>2026-05-06T10:35:59.566Z</time></trkpt><trkpt lat="37.9993879" lon="12.7951264"><ele>389.59999999999997</ele><time>2026-05-06T10:36:00.564Z</time></trkpt><trkpt lat="37.9994778" lon="12.795101"><ele>388.0</ele><time>2026-05-06T10:36:01.565Z</time></trkpt><trkpt lat="37.9995648" lon="12.7950811"><ele>388.0</ele><time>2026-05-06T10:36:02.565Z</time></trkpt><trkpt lat="37.9996445" lon="12.7950802"><ele>388.0</ele><time>2026-05-06T10:36:03.565Z</time></trkpt><trkpt lat="37.9997128" lon="12.7951064"><ele>388.0</ele><time>2026-05-06T10:36:04.566Z</time></trkpt><trkpt lat="37.9997693" lon="12.7951608"><ele>388.0</ele><time>2026-05-06T10:36:05.566Z</time></trkpt><trkpt lat="37.9998001" lon="12.795241"><ele>388.0</ele><time>2026-05-06T10:36:06.566Z</time></trkpt><trkpt lat="37.9998183" lon="12.7953266"><ele>388.0</ele><time>2026-05-06T10:36:07.565Z</time></trkpt><trkpt lat="37.999808" lon="12.7954296"><ele>388.0</ele><time>2026-05-06T10:36:08.566Z</time></trkpt><trkpt lat="37.9997677" lon="12.7955586"><ele>386.25</ele><time>2026-05-06T10:36:09.566Z</time></trkpt><trkpt lat="37.9997089" lon="12.7956999"><ele>384.5</ele><time>2026-05-06T10:36:10.565Z</time></trkpt><trkpt lat="37.9996413" lon="12.7958412"><ele>382.75</ele><time>2026-05-06T10:36:11.564Z</time></trkpt><trkpt lat="37.9995857" lon="12.7959615"><ele>381.0</ele><time>2026-05-06T10:36:12.566Z</time></trkpt><trkpt lat="37.9995369" lon="12.7960681"><ele>379.0</ele><time>2026-05-06T10:36:13.565Z</time></trkpt><trkpt lat="37.9994884" lon="12.7961663"><ele>377.0</ele><time>2026-05-06T10:36:14.564Z</time></trkpt><trkpt lat="37.9994389" lon="12.7962595"><ele>375.0</ele><time>2026-05-06T10:36:15.565Z</time></trkpt><trkpt lat="37.9993925" lon="12.7963522"><ele>373.0</ele><time>2026-05-06T10:36:16.565Z</time></trkpt><trkpt lat="37.9993432" lon="12.7964478"><ele>371.0</ele><time>2026-05-06T10:36:17.566Z</time></trkpt><trkpt lat="37.9992908" lon="12.7965515"><ele>371.0</ele><time>2026-05-06T10:36:18.565Z</time></trkpt><trkpt lat="37.9992399" lon="12.796662"><ele>371.0</ele><time>2026-05-06T10:36:19.565Z</time></trkpt><trkpt lat="37.9991879" lon="12.7967743"><ele>371.0</ele><time>2026-05-06T10:36:20.566Z</time></trkpt><trkpt lat="37.9991327" lon="12.7968865"><ele>371.0</ele><time>2026-05-06T10:36:21.566Z</time></trkpt><trkpt lat="37.9990772" lon="12.796997"><ele>371.0</ele><time>2026-05-06T10:36:22.566Z</time></trkpt><trkpt lat="37.9990235" lon="12.7971074"><ele>370.4</ele><time>2026-05-06T10:36:23.566Z</time></trkpt><trkpt lat="37.9989678" lon="12.7972187"><ele>369.8</ele><time>2026-05-06T10:36:24.565Z</time></trkpt><trkpt lat="37.9989081" lon="12.7973346"><ele>369.2</ele><time>2026-05-06T10:36:25.564Z</time></trkpt><trkpt lat="37.9988446" lon="12.7974509"><ele>368.59999999999997</ele><time>2026-05-06T10:36:26.568Z</time></trkpt><trkpt lat="37.9987813" lon="12.7975637"><ele>368.0</ele><time>2026-05-06T10:36:27.565Z</time></trkpt><trkpt lat="37.9987179" lon="12.7976698"><ele>366.5</ele><time>2026-05-06T10:36:28.565Z</time></trkpt><trkpt lat="37.998647" lon="12.7977681"><ele>365.0</ele><time>2026-05-06T10:36:29.563Z</time></trkpt><trkpt lat="37.9985673" lon="12.7978689"><ele>363.5</ele><time>2026-05-06T10:36:30.564Z</time></trkpt><trkpt lat="37.9984845" lon="12.7979716"><ele>362.0</ele><time>2026-05-06T10:36:31.565Z</time></trkpt><trkpt lat="37.9983995" lon="12.7980799"><ele>363.75</ele><time>2026-05-06T10:36:32.567Z</time></trkpt><trkpt lat="37.9983128" lon="12.7981903"><ele>365.5</ele><time>2026-05-06T10:36:33.564Z</time></trkpt><trkpt lat="37.9982306" lon="12.7982944"><ele>367.25</ele><time>2026-05-06T10:36:34.565Z</time></trkpt><trkpt lat="37.9981521" lon="12.7983944"><ele>369.0</ele><time>2026-05-06T10:36:35.564Z</time></trkpt><trkpt lat="37.9980785" lon="12.79849"><ele>367.2</ele><time>2026-05-06T10:36:36.566Z</time></trkpt><trkpt lat="37.9980096" lon="12.7985827"><ele>365.4</ele><time>2026-05-06T10:36:37.563Z</time></trkpt><trkpt lat="37.9979393" lon="12.7986739"><ele>363.6</ele><time>2026-05-06T10:36:38.565Z</time></trkpt><trkpt lat="37.9978674" lon="12.7987655"><ele>361.8</ele><time>2026-05-06T10:36:39.564Z</time></trkpt><trkpt lat="37.9977888" lon="12.7988609"><ele>360.0</ele><time>2026-05-06T10:36:40.565Z</time></trkpt><trkpt lat="37.9977065" lon="12.7989618"><ele>360.0</ele><time>2026-05-06T10:36:41.565Z</time></trkpt><trkpt lat="37.9976245" lon="12.7990674"><ele>360.0</ele><time>2026-05-06T10:36:42.564Z</time></trkpt><trkpt lat="37.9975448" lon="12.7991721"><ele>360.0</ele><time>2026-05-06T10:36:43.565Z</time></trkpt><trkpt lat="37.9974679" lon="12.7992736"><ele>360.0</ele><time>2026-05-06T10:36:44.565Z</time></trkpt><trkpt lat="37.9973946" lon="12.7993668"><ele>360.0</ele><time>2026-05-06T10:36:45.565Z</time></trkpt><trkpt lat="37.9973217" lon="12.7994507"><ele>359.3333333333333</ele><time>2026-05-06T10:36:46.565Z</time></trkpt><trkpt lat="37.997251" lon="12.7995175"><ele>358.6666666666667</ele><time>2026-05-06T10:36:47.565Z</time></trkpt><trkpt lat="37.9971812" lon="12.7995556"><ele>358.0</ele><time>2026-05-06T10:36:48.564Z</time></trkpt><trkpt lat="37.9971076" lon="12.7995692"><ele>357.33333333333337</ele><time>2026-05-06T10:36:49.567Z</time></trkpt><trkpt lat="37.997039" lon="12.799557"><ele>356.6666666666667</ele><time>2026-05-06T10:36:50.566Z</time></trkpt><trkpt lat="37.9969679" lon="12.7995182"><ele>356.0</ele><time>2026-05-06T10:36:51.565Z</time></trkpt><trkpt lat="37.9968947" lon="12.79945"><ele>356.0</ele><time>2026-05-06T10:36:52.565Z</time></trkpt><trkpt lat="37.9968222" lon="12.7993649"><ele>356.0</ele><time>2026-05-06T10:36:53.566Z</time></trkpt><trkpt lat="37.9967455" lon="12.7992752"><ele>356.0</ele><time>2026-05-06T10:36:54.566Z</time></trkpt><trkpt lat="37.9966669" lon="12.7991863"><ele>356.0</ele><time>2026-05-06T10:36:55.566Z</time></trkpt><trkpt lat="37.9965897" lon="12.7990991"><ele>356.0</ele><time>2026-05-06T10:36:56.566Z</time></trkpt><trkpt lat="37.9965098" lon="12.79901"><ele>356.8</ele><time>2026-05-06T10:36:57.565Z</time></trkpt><trkpt lat="37.9964251" lon="12.798921"><ele>357.6</ele><time>2026-05-06T10:36:58.565Z</time></trkpt><trkpt lat="37.9963369" lon="12.7988347"><ele>358.4</ele><time>2026-05-06T10:36:59.565Z</time></trkpt><trkpt lat="37.9962484" lon="12.7987569"><ele>359.2</ele><time>2026-05-06T10:37:00.564Z</time></trkpt><trkpt lat="37.9961581" lon="12.7986892"><ele>360.0</ele><time>2026-05-06T10:37:01.563Z</time></trkpt><trkpt lat="37.9960676" lon="12.7986321"><ele>360.0</ele><time>2026-05-06T10:37:02.566Z</time></trkpt><trkpt lat="37.9959753" lon="12.7985831"><ele>360.0</ele><time>2026-05-06T10:37:03.565Z</time></trkpt><trkpt lat="37.995876" lon="12.7985372"><ele>360.0</ele><time>2026-05-06T10:37:04.565Z</time></trkpt><trkpt lat="37.9957696" lon="12.7984925"><ele>360.0</ele><time>2026-05-06T10:37:05.566Z</time></trkpt><trkpt lat="37.995658" lon="12.7984489"><ele>360.0</ele><time>2026-05-06T10:37:06.565Z</time></trkpt><trkpt lat="37.9955416" lon="12.7984071"><ele>359.4</ele><time>2026-05-06T10:37:07.564Z</time></trkpt><trkpt lat="37.9954278" lon="12.798367"><ele>358.8</ele><time>2026-05-06T10:37:08.566Z</time></trkpt><trkpt lat="37.9953191" lon="12.7983287"><ele>358.20000000000005</ele><time>2026-05-06T10:37:09.564Z</time></trkpt><trkpt lat="37.9952174" lon="12.7982983"><ele>357.6</ele><time>2026-05-06T10:37:10.565Z</time></trkpt><trkpt lat="37.9951289" lon="12.798285"><ele>357.0</ele><time>2026-05-06T10:37:11.564Z</time></trkpt><trkpt lat="37.9950438" lon="12.7982936"><ele>355.6</ele><time>2026-05-06T10:37:12.565Z</time></trkpt><trkpt lat="37.9949571" lon="12.7983233"><ele>354.20000000000005</ele><time>2026-05-06T10:37:13.565Z</time></trkpt><trkpt lat="37.9948674" lon="12.7983715"><ele>352.8</ele><time>2026-05-06T10:37:14.566Z</time></trkpt><trkpt lat="37.9947782" lon="12.7984324"><ele>351.4</ele><time>2026-05-06T10:37:15.566Z</time></trkpt><trkpt lat="37.9946887" lon="12.7985081"><ele>350.0</ele><time>2026-05-06T10:37:16.564Z</time></trkpt><trkpt lat="37.9946071" lon="12.798595"><ele>348.83333333333337</ele><time>2026-05-06T10:37:17.566Z</time></trkpt><trkpt lat="37.9945366" lon="12.7986854"><ele>347.6666666666667</ele><time>2026-05-06T10:37:18.566Z</time></trkpt><trkpt lat="37.9944804" lon="12.7987766"><ele>346.5</ele><time>2026-05-06T10:37:19.566Z</time></trkpt><trkpt lat="37.9944306" lon="12.7988674"><ele>345.3333333333333</ele><time>2026-05-06T10:37:20.566Z</time></trkpt><trkpt lat="37.9943773" lon="12.79895"><ele>344.16666666666663</ele><time>2026-05-06T10:37:21.564Z</time></trkpt><trkpt lat="37.9943194" lon="12.7990249"><ele>343.0</ele><time>2026-05-06T10:37:22.565Z</time></trkpt><trkpt lat="37.9942564" lon="12.7990986"><ele>343.0</ele><time>2026-05-06T10:37:23.566Z</time></trkpt><trkpt lat="37.9941886" lon="12.7991766"><ele>343.0</ele><time>2026-05-06T10:37:24.565Z</time></trkpt><trkpt lat="37.9941135" lon="12.7992551"><ele>343.0</ele><time>2026-05-06T10:37:25.565Z</time></trkpt><trkpt lat="37.994033" lon="12.7993363"><ele>343.0</ele><time>2026-05-06T10:37:26.566Z</time></trkpt><trkpt lat="37.9939498" lon="12.7994226"><ele>343.0</ele><time>2026-05-06T10:37:27.565Z</time></trkpt><trkpt lat="37.9938644" lon="12.7995102"><ele>343.0</ele><time>2026-05-06T10:37:28.565Z</time></trkpt><trkpt lat="37.9937792" lon="12.7995885"><ele>343.0</ele><time>2026-05-06T10:37:29.565Z</time></trkpt><trkpt lat="37.9936955" lon="12.7996572"><ele>343.0</ele><time>2026-05-06T10:37:30.564Z</time></trkpt><trkpt lat="37.9936108" lon="12.7997108"><ele>343.0</ele><time>2026-05-06T10:37:31.565Z</time></trkpt><trkpt lat="37.9935228" lon="12.7997434"><ele>343.0</ele><time>2026-05-06T10:37:32.566Z</time></trkpt><trkpt lat="37.9934282" lon="12.7997647"><ele>343.0</ele><time>2026-05-06T10:37:33.565Z</time></trkpt><trkpt lat="37.9933224" lon="12.7997852"><ele>343.0</ele><time>2026-05-06T10:37:34.565Z</time></trkpt><trkpt lat="37.9932097" lon="12.7998004"><ele>343.0</ele><time>2026-05-06T10:37:35.565Z</time></trkpt><trkpt lat="37.9931008" lon="12.7998115"><ele>343.0</ele><time>2026-05-06T10:37:36.564Z</time></trkpt><trkpt lat="37.9929898" lon="12.79982"><ele>343.0</ele><time>2026-05-06T10:37:37.568Z</time></trkpt><trkpt lat="37.9928773" lon="12.7998319"><ele>343.0</ele><time>2026-05-06T10:37:38.566Z</time></trkpt><trkpt lat="37.9927609" lon="12.7998426"><ele>343.0</ele><time>2026-05-06T10:37:39.564Z</time></trkpt><trkpt lat="37.9926397" lon="12.7998522"><ele>343.0</ele><time>2026-05-06T10:37:40.565Z</time></trkpt><trkpt lat="37.9925147" lon="12.7998621"><ele>343.0</ele><time>2026-05-06T10:37:41.565Z</time></trkpt><trkpt lat="37.9923831" lon="12.7998754"><ele>341.75</ele><time>2026-05-06T10:37:42.564Z</time></trkpt><trkpt lat="37.9922542" lon="12.7998912"><ele>340.5</ele><time>2026-05-06T10:37:43.563Z</time></trkpt><trkpt lat="37.9921312" lon="12.7999101"><ele>339.25</ele><time>2026-05-06T10:37:44.565Z</time></trkpt><trkpt lat="37.9920083" lon="12.7999318"><ele>338.0</ele><time>2026-05-06T10:37:45.565Z</time></trkpt><trkpt lat="37.9918837" lon="12.7999567"><ele>338.0</ele><time>2026-05-06T10:37:46.566Z</time></trkpt><trkpt lat="37.9917541" lon="12.7999793"><ele>338.0</ele><time>2026-05-06T10:37:47.566Z</time></trkpt><trkpt lat="37.9916236" lon="12.7999957"><ele>338.0</ele><time>2026-05-06T10:37:48.565Z</time></trkpt><trkpt lat="37.9914932" lon="12.8000053"><ele>338.0</ele><time>2026-05-06T10:37:49.566Z</time></trkpt><trkpt lat="37.9913619" lon="12.8000082"><ele>338.75</ele><time>2026-05-06T10:37:50.566Z</time></trkpt><trkpt lat="37.9912319" lon="12.8000073"><ele>339.5</ele><time>2026-05-06T10:37:51.565Z</time></trkpt><trkpt lat="37.9911034" lon="12.7999977"><ele>340.25</ele><time>2026-05-06T10:37:52.566Z</time></trkpt><trkpt lat="37.9909752" lon="12.7999863"><ele>341.0</ele><time>2026-05-06T10:37:53.564Z</time></trkpt><trkpt lat="37.9908483" lon="12.7999771"><ele>342.25</ele><time>2026-05-06T10:37:54.566Z</time></trkpt><trkpt lat="37.990722" lon="12.7999679"><ele>343.5</ele><time>2026-05-06T10:37:55.565Z</time></trkpt><trkpt lat="37.9905983" lon="12.7999563"><ele>344.75</ele><time>2026-05-06T10:37:56.565Z</time></trkpt><trkpt lat="37.9904765" lon="12.7999453"><ele>346.0</ele><time>2026-05-06T10:37:57.564Z</time></trkpt><trkpt lat="37.9903577" lon="12.799938"><ele>346.0</ele><time>2026-05-06T10:37:58.565Z</time></trkpt><trkpt lat="37.9902429" lon="12.799932"><ele>346.0</ele><time>2026-05-06T10:37:59.565Z</time></trkpt><trkpt lat="37.9901324" lon="12.7999268"><ele>346.0</ele><time>2026-05-06T10:38:00.564Z</time></trkpt><trkpt lat="37.9900215" lon="12.7999261"><ele>346.0</ele><time>2026-05-06T10:38:01.565Z</time></trkpt><trkpt lat="37.9899128" lon="12.7999309"><ele>346.0</ele><time>2026-05-06T10:38:02.566Z</time></trkpt><trkpt lat="37.9898034" lon="12.7999387"><ele>347.0</ele><time>2026-05-06T10:38:03.565Z</time></trkpt><trkpt lat="37.9896935" lon="12.7999453"><ele>348.0</ele><time>2026-05-06T10:38:04.563Z</time></trkpt><trkpt lat="37.9895822" lon="12.7999489"><ele>349.0</ele><time>2026-05-06T10:38:05.565Z</time></trkpt><trkpt lat="37.9894716" lon="12.7999497"><ele>350.0</ele><time>2026-05-06T10:38:06.564Z</time></trkpt><trkpt lat="37.9893602" lon="12.799942"><ele>351.0</ele><time>2026-05-06T10:38:07.566Z</time></trkpt><trkpt lat="37.9892512" lon="12.799924"><ele>352.20000000000005</ele><time>2026-05-06T10:38:08.566Z</time></trkpt><trkpt lat="37.9891443" lon="12.7998929"><ele>353.40000000000003</ele><time>2026-05-06T10:38:09.565Z</time></trkpt><trkpt lat="37.9890366" lon="12.7998494"><ele>354.6</ele><time>2026-05-06T10:38:10.565Z</time></trkpt><trkpt lat="37.9889298" lon="12.7998043"><ele>355.8</ele><time>2026-05-06T10:38:11.564Z</time></trkpt><trkpt lat="37.9888218" lon="12.7997593"><ele>357.0</ele><time>2026-05-06T10:38:12.564Z</time></trkpt><trkpt lat="37.9887107" lon="12.7997126"><ele>357.0</ele><time>2026-05-06T10:38:13.563Z</time></trkpt><trkpt lat="37.9886" lon="12.7996615"><ele>357.0</ele><time>2026-05-06T10:38:14.566Z</time></trkpt><trkpt lat="37.9884913" lon="12.7996021"><ele>357.0</ele><time>2026-05-06T10:38:15.564Z</time></trkpt><trkpt lat="37.9883872" lon="12.7995296"><ele>357.0</ele><time>2026-05-06T10:38:16.565Z</time></trkpt><trkpt lat="37.9882856" lon="12.7994476"><ele>357.75</ele><time>2026-05-06T10:38:17.564Z</time></trkpt><trkpt lat="37.9881828" lon="12.7993603"><ele>358.5</ele><time>2026-05-06T10:38:18.565Z</time></trkpt><trkpt lat="37.9880779" lon="12.7992686"><ele>359.25</ele><time>2026-05-06T10:38:19.564Z</time></trkpt><trkpt lat="37.9879685" lon="12.7991718"><ele>360.0</ele><time>2026-05-06T10:38:20.565Z</time></trkpt><trkpt lat="37.9878585" lon="12.799077"><ele>359.5</ele><time>2026-05-06T10:38:21.566Z</time></trkpt><trkpt lat="37.987754" lon="12.798988"><ele>359.0</ele><time>2026-05-06T10:38:22.565Z</time></trkpt><trkpt lat="37.9876497" lon="12.7989089"><ele>358.5</ele><time>2026-05-06T10:38:23.565Z</time></trkpt><trkpt lat="37.9875447" lon="12.7988503"><ele>358.0</ele><time>2026-05-06T10:38:24.565Z</time></trkpt><trkpt lat="37.9874312" lon="12.7988116"><ele>358.0</ele><time>2026-05-06T10:38:25.565Z</time></trkpt><trkpt lat="37.9873172" lon="12.7987926"><ele>358.0</ele><time>2026-05-06T10:38:26.565Z</time></trkpt><trkpt lat="37.9872049" lon="12.7987825"><ele>358.0</ele><time>2026-05-06T10:38:27.565Z</time></trkpt><trkpt lat="37.9870905" lon="12.7987729"><ele>358.0</ele><time>2026-05-06T10:38:28.564Z</time></trkpt><trkpt lat="37.9869738" lon="12.7987594"><ele>358.0</ele><time>2026-05-06T10:38:29.563Z</time></trkpt><trkpt lat="37.9868538" lon="12.7987441"><ele>358.0</ele><time>2026-05-06T10:38:30.565Z</time></trkpt><trkpt lat="37.9867321" lon="12.7987258"><ele>358.0</ele><time>2026-05-06T10:38:31.565Z</time></trkpt><trkpt lat="37.9866091" lon="12.7987057"><ele>358.0</ele><time>2026-05-06T10:38:32.565Z</time></trkpt><trkpt lat="37.9864885" lon="12.7986901"><ele>356.59999999999997</ele><time>2026-05-06T10:38:33.564Z</time></trkpt><trkpt lat="37.9863714" lon="12.7986816"><ele>355.2</ele><time>2026-05-06T10:38:34.564Z</time></trkpt><trkpt lat="37.986262" lon="12.7986748"><ele>353.8</ele><time>2026-05-06T10:38:35.566Z</time></trkpt><trkpt lat="37.9861567" lon="12.7986683"><ele>352.4</ele><time>2026-05-06T10:38:36.564Z</time></trkpt><trkpt lat="37.98605" lon="12.79866"><ele>351.0</ele><time>2026-05-06T10:38:37.565Z</time></trkpt><trkpt lat="37.9859333" lon="12.79865"><ele>350.5</ele><time>2026-05-06T10:38:38.566Z</time></trkpt><trkpt lat="37.985815" lon="12.798645"><ele>350.0</ele><time>2026-05-06T10:38:39.564Z</time></trkpt><trkpt lat="37.9857" lon="12.7986517"><ele>349.5</ele><time>2026-05-06T10:38:40.565Z</time></trkpt><trkpt lat="37.9855867" lon="12.79866"><ele>349.0</ele><time>2026-05-06T10:38:41.565Z</time></trkpt><trkpt lat="37.9854717" lon="12.7986717"><ele>349.0</ele><time>2026-05-06T10:38:42.566Z</time></trkpt><trkpt lat="37.9853617" lon="12.7986767"><ele>349.0</ele><time>2026-05-06T10:38:43.566Z</time></trkpt><trkpt lat="37.9852483" lon="12.798675"><ele>349.0</ele><time>2026-05-06T10:38:44.565Z</time></trkpt><trkpt lat="37.9851317" lon="12.7986667"><ele>349.0</ele><time>2026-05-06T10:38:45.565Z</time></trkpt><trkpt lat="37.985015" lon="12.7986583"><ele>347.75</ele><time>2026-05-06T10:38:46.565Z</time></trkpt><trkpt lat="37.9848983" lon="12.7986533"><ele>346.5</ele><time>2026-05-06T10:38:47.564Z</time></trkpt><trkpt lat="37.9847833" lon="12.79865"><ele>345.25</ele><time>2026-05-06T10:38:48.565Z</time></trkpt><trkpt lat="37.9846683" lon="12.798645"><ele>344.0</ele><time>2026-05-06T10:38:49.566Z</time></trkpt><trkpt lat="37.9845583" lon="12.7986367"><ele>344.0</ele><time>2026-05-06T10:38:50.566Z</time></trkpt><trkpt lat="37.9844483" lon="12.7986283"><ele>344.0</ele><time>2026-05-06T10:38:51.563Z</time></trkpt><trkpt lat="37.9843417" lon="12.7986233"><ele>344.0</ele><time>2026-05-06T10:38:52.565Z</time></trkpt><trkpt lat="37.984235" lon="12.7986167"><ele>344.0</ele><time>2026-05-06T10:38:53.564Z</time></trkpt><trkpt lat="37.9841217" lon="12.79861"><ele>344.0</ele><time>2026-05-06T10:38:54.564Z</time></trkpt><trkpt lat="37.9840067" lon="12.7986017"><ele>342.0</ele><time>2026-05-06T10:38:55.564Z</time></trkpt><trkpt lat="37.9838883" lon="12.79859"><ele>340.0</ele><time>2026-05-06T10:38:56.571Z</time></trkpt><trkpt lat="37.98377" lon="12.7985833"><ele>338.0</ele><time>2026-05-06T10:38:57.565Z</time></trkpt><trkpt lat="37.9836517" lon="12.7985783"><ele>336.0</ele><time>2026-05-06T10:38:58.564Z</time></trkpt><trkpt lat="37.9835333" lon="12.7985733"><ele>336.0</ele><time>2026-05-06T10:38:59.565Z</time></trkpt><trkpt lat="37.983415" lon="12.7985667"><ele>336.0</ele><time>2026-05-06T10:39:00.564Z</time></trkpt><trkpt lat="37.983295" lon="12.7985617"><ele>336.0</ele><time>2026-05-06T10:39:01.565Z</time></trkpt><trkpt lat="37.9831733" lon="12.7985583"><ele>336.0</ele><time>2026-05-06T10:39:02.566Z</time></trkpt><trkpt lat="37.9830517" lon="12.7985533"><ele>335.0</ele><time>2026-05-06T10:39:03.564Z</time></trkpt><trkpt lat="37.9829267" lon="12.79855"><ele>334.0</ele><time>2026-05-06T10:39:04.566Z</time></trkpt><trkpt lat="37.982805" lon="12.7985483"><ele>333.0</ele><time>2026-05-06T10:39:05.565Z</time></trkpt><trkpt lat="37.98268" lon="12.7985433"><ele>332.0</ele><time>2026-05-06T10:39:06.564Z</time></trkpt><trkpt lat="37.982555" lon="12.79854"><ele>331.5</ele><time>2026-05-06T10:39:07.565Z</time></trkpt><trkpt lat="37.9824283" lon="12.7985367"><ele>331.0</ele><time>2026-05-06T10:39:08.564Z</time></trkpt><trkpt lat="37.9823" lon="12.7985333"><ele>330.5</ele><time>2026-05-06T10:39:09.565Z</time></trkpt><trkpt lat="37.98217" lon="12.79852"><ele>330.0</ele><time>2026-05-06T10:39:10.565Z</time></trkpt><trkpt lat="37.9820383" lon="12.7985"><ele>331.5</ele><time>2026-05-06T10:39:11.564Z</time></trkpt><trkpt lat="37.9819117" lon="12.798475"><ele>333.0</ele><time>2026-05-06T10:39:12.565Z</time></trkpt><trkpt lat="37.9817867" lon="12.7984517"><ele>334.5</ele><time>2026-05-06T10:39:13.565Z</time></trkpt><trkpt lat="37.981665" lon="12.7984333"><ele>336.0</ele><time>2026-05-06T10:39:14.564Z</time></trkpt><trkpt lat="37.9815517" lon="12.79842"><ele>336.0</ele><time>2026-05-06T10:39:15.565Z</time></trkpt><trkpt lat="37.9814467" lon="12.7984133"><ele>336.0</ele><time>2026-05-06T10:39:16.566Z</time></trkpt><trkpt lat="37.9813467" lon="12.7984267"><ele>336.0</ele><time>2026-05-06T10:39:17.565Z</time></trkpt><trkpt lat="37.9812567" lon="12.7984633"><ele>336.0</ele><time>2026-05-06T10:39:18.564Z</time></trkpt><trkpt lat="37.98117" lon="12.798525"><ele>336.0</ele><time>2026-05-06T10:39:19.566Z</time></trkpt><trkpt lat="37.9810867" lon="12.7986067"><ele>334.5</ele><time>2026-05-06T10:39:20.566Z</time></trkpt><trkpt lat="37.9810017" lon="12.7987033"><ele>333.0</ele><time>2026-05-06T10:39:21.565Z</time></trkpt><trkpt lat="37.9809133" lon="12.798805"><ele>331.5</ele><time>2026-05-06T10:39:22.565Z</time></trkpt><trkpt lat="37.98082" lon="12.7989083"><ele>330.0</ele><time>2026-05-06T10:39:23.565Z</time></trkpt><trkpt lat="37.9807283" lon="12.7990133"><ele>330.0</ele><time>2026-05-06T10:39:24.565Z</time></trkpt><trkpt lat="37.9806383" lon="12.7991217"><ele>330.0</ele><time>2026-05-06T10:39:25.565Z</time></trkpt><trkpt lat="37.9805467" lon="12.7992317"><ele>330.0</ele><time>2026-05-06T10:39:26.566Z</time></trkpt><trkpt lat="37.9804567" lon="12.799335"><ele>330.0</ele><time>2026-05-06T10:39:27.564Z</time></trkpt><trkpt lat="37.9803667" lon="12.79944"><ele>329.0</ele><time>2026-05-06T10:39:28.567Z</time></trkpt><trkpt lat="37.9802767" lon="12.7995467"><ele>328.0</ele><time>2026-05-06T10:39:29.566Z</time></trkpt><trkpt lat="37.9801883" lon="12.7996583"><ele>327.0</ele><time>2026-05-06T10:39:30.564Z</time></trkpt><trkpt lat="37.9800983" lon="12.7997667"><ele>326.0</ele><time>2026-05-06T10:39:31.564Z</time></trkpt><trkpt lat="37.9800083" lon="12.7998733"><ele>326.0</ele><time>2026-05-06T10:39:32.565Z</time></trkpt><trkpt lat="37.979915" lon="12.7999783"><ele>326.0</ele><time>2026-05-06T10:39:33.564Z</time></trkpt><trkpt lat="37.9798217" lon="12.80008"><ele>326.0</ele><time>2026-05-06T10:39:34.565Z</time></trkpt><trkpt lat="37.9797233" lon="12.8001783"><ele>326.0</ele><time>2026-05-06T10:39:35.564Z</time></trkpt><trkpt lat="37.97962" lon="12.8002583"><ele>325.0</ele><time>2026-05-06T10:39:36.564Z</time></trkpt><trkpt lat="37.979515" lon="12.8003167"><ele>324.0</ele><time>2026-05-06T10:39:37.565Z</time></trkpt><trkpt lat="37.9794067" lon="12.8003583"><ele>323.0</ele><time>2026-05-06T10:39:38.564Z</time></trkpt><trkpt lat="37.979295" lon="12.8003867"><ele>322.0</ele><time>2026-05-06T10:39:39.565Z</time></trkpt><trkpt lat="37.9791783" lon="12.8004083"><ele>322.0</ele><time>2026-05-06T10:39:40.566Z</time></trkpt><trkpt lat="37.9790583" lon="12.800435"><ele>322.0</ele><time>2026-05-06T10:39:41.564Z</time></trkpt><trkpt lat="37.9789383" lon="12.80046"><ele>322.0</ele><time>2026-05-06T10:39:42.565Z</time></trkpt><trkpt lat="37.978825" lon="12.8004817"><ele>322.0</ele><time>2026-05-06T10:39:43.565Z</time></trkpt><trkpt lat="37.9787167" lon="12.8004917"><ele>322.0</ele><time>2026-05-06T10:39:44.565Z</time></trkpt><trkpt lat="37.9786" lon="12.8004867"><ele>322.0</ele><time>2026-05-06T10:39:45.566Z</time></trkpt><trkpt lat="37.978475" lon="12.8004683"><ele>322.0</ele><time>2026-05-06T10:39:46.565Z</time></trkpt><trkpt lat="37.9783483" lon="12.8004333"><ele>322.0</ele><time>2026-05-06T10:39:47.565Z</time></trkpt><trkpt lat="37.97822" lon="12.8003883"><ele>321.0</ele><time>2026-05-06T10:39:48.565Z</time></trkpt><trkpt lat="37.9780933" lon="12.80034"><ele>320.0</ele><time>2026-05-06T10:39:49.565Z</time></trkpt><trkpt lat="37.9779683" lon="12.80029"><ele>319.0</ele><time>2026-05-06T10:39:50.565Z</time></trkpt><trkpt lat="37.9778467" lon="12.800245"><ele>318.0</ele><time>2026-05-06T10:39:51.565Z</time></trkpt><trkpt lat="37.9777267" lon="12.8002"><ele>318.5</ele><time>2026-05-06T10:39:52.564Z</time></trkpt><trkpt lat="37.9776083" lon="12.8001533"><ele>319.0</ele><time>2026-05-06T10:39:53.564Z</time></trkpt><trkpt lat="37.97749" lon="12.800105"><ele>319.5</ele><time>2026-05-06T10:39:54.565Z</time></trkpt><trkpt lat="37.97737" lon="12.800055"><ele>320.0</ele><time>2026-05-06T10:39:55.565Z</time></trkpt><trkpt lat="37.9772467" lon="12.8000033"><ele>320.0</ele><time>2026-05-06T10:39:56.565Z</time></trkpt><trkpt lat="37.97712" lon="12.7999517"><ele>320.0</ele><time>2026-05-06T10:39:57.564Z</time></trkpt><trkpt lat="37.9769917" lon="12.7999033"><ele>320.0</ele><time>2026-05-06T10:39:58.565Z</time></trkpt><trkpt lat="37.97687" lon="12.799855"><ele>320.0</ele><time>2026-05-06T10:39:59.564Z</time></trkpt><trkpt lat="37.9767467" lon="12.7998033"><ele>317.25</ele><time>2026-05-06T10:40:00.565Z</time></trkpt><trkpt lat="37.9766217" lon="12.799745"><ele>314.5</ele><time>2026-05-06T10:40:01.564Z</time></trkpt><trkpt lat="37.976495" lon="12.7996783"><ele>311.75</ele><time>2026-05-06T10:40:02.565Z</time></trkpt><trkpt lat="37.976365" lon="12.7996067"><ele>309.0</ele><time>2026-05-06T10:40:03.566Z</time></trkpt><trkpt lat="37.97624" lon="12.7995367"><ele>309.0</ele><time>2026-05-06T10:40:04.564Z</time></trkpt><trkpt lat="37.9761217" lon="12.7994667"><ele>309.0</ele><time>2026-05-06T10:40:05.563Z</time></trkpt><trkpt lat="37.9760117" lon="12.7993967"><ele>309.0</ele><time>2026-05-06T10:40:06.565Z</time></trkpt><trkpt lat="37.9759" lon="12.7993283"><ele>309.0</ele><time>2026-05-06T10:40:07.565Z</time></trkpt><trkpt lat="37.9757933" lon="12.7992617"><ele>309.2</ele><time>2026-05-06T10:40:08.566Z</time></trkpt><trkpt lat="37.9756933" lon="12.7991967"><ele>309.4</ele><time>2026-05-06T10:40:09.565Z</time></trkpt><trkpt lat="37.9755983" lon="12.7991333"><ele>309.6</ele><time>2026-05-06T10:40:10.565Z</time></trkpt><trkpt lat="37.9755083" lon="12.799075"><ele>309.8</ele><time>2026-05-06T10:40:11.564Z</time></trkpt><trkpt lat="37.975425" lon="12.7990283"><ele>310.0</ele><time>2026-05-06T10:40:12.566Z</time></trkpt><trkpt lat="37.9753483" lon="12.7990033"><ele>310.0</ele><time>2026-05-06T10:40:13.563Z</time></trkpt><trkpt lat="37.9752717" lon="12.7990033"><ele>310.0</ele><time>2026-05-06T10:40:14.565Z</time></trkpt><trkpt lat="37.9751967" lon="12.7990333"><ele>310.0</ele><time>2026-05-06T10:40:15.564Z</time></trkpt><trkpt lat="37.975125" lon="12.799095"><ele>310.0</ele><time>2026-05-06T10:40:16.566Z</time></trkpt><trkpt lat="37.9750633" lon="12.79918"><ele>310.0</ele><time>2026-05-06T10:40:17.565Z</time></trkpt><trkpt lat="37.975005" lon="12.7992783"><ele>310.0</ele><time>2026-05-06T10:40:18.563Z</time></trkpt><trkpt lat="37.97495" lon="12.7993817"><ele>309.2</ele><time>2026-05-06T10:40:19.564Z</time></trkpt><trkpt lat="37.9749067" lon="12.79949"><ele>308.4</ele><time>2026-05-06T10:40:20.566Z</time></trkpt><trkpt lat="37.9748783" lon="12.799605"><ele>307.6</ele><time>2026-05-06T10:40:21.564Z</time></trkpt><trkpt lat="37.9748667" lon="12.799725"><ele>306.8</ele><time>2026-05-06T10:40:22.564Z</time></trkpt><trkpt lat="37.97487" lon="12.79985"><ele>306.0</ele><time>2026-05-06T10:40:23.564Z</time></trkpt><trkpt lat="37.9748817" lon="12.7999733"><ele>306.0</ele><time>2026-05-06T10:40:24.566Z</time></trkpt><trkpt lat="37.9748917" lon="12.8001017"><ele>306.0</ele><time>2026-05-06T10:40:25.564Z</time></trkpt><trkpt lat="37.9749017" lon="12.8002367"><ele>306.0</ele><time>2026-05-06T10:40:26.565Z</time></trkpt><trkpt lat="37.9749083" lon="12.8003767"><ele>306.0</ele><time>2026-05-06T10:40:27.564Z</time></trkpt><trkpt lat="37.9749133" lon="12.80052"><ele>306.0</ele><time>2026-05-06T10:40:28.565Z</time></trkpt><trkpt lat="37.9749183" lon="12.8006667"><ele>306.2</ele><time>2026-05-06T10:40:29.565Z</time></trkpt><trkpt lat="37.974925" lon="12.8008167"><ele>306.40000000000003</ele><time>2026-05-06T10:40:30.565Z</time></trkpt><trkpt lat="37.9749267" lon="12.8009617"><ele>306.6</ele><time>2026-05-06T10:40:31.565Z</time></trkpt><trkpt lat="37.9749183" lon="12.8010867"><ele>306.8</ele><time>2026-05-06T10:40:32.565Z</time></trkpt><trkpt lat="37.9749033" lon="12.8012"><ele>307.0</ele><time>2026-05-06T10:40:33.565Z</time></trkpt><trkpt lat="37.9748717" lon="12.80131"><ele>307.4</ele><time>2026-05-06T10:40:34.565Z</time></trkpt><trkpt lat="37.9748233" lon="12.8014167"><ele>307.79999999999995</ele><time>2026-05-06T10:40:35.563Z</time></trkpt><trkpt lat="37.9747583" lon="12.80152"><ele>308.2</ele><time>2026-05-06T10:40:36.564Z</time></trkpt><trkpt lat="37.97468" lon="12.80162"><ele>308.59999999999997</ele><time>2026-05-06T10:40:37.565Z</time></trkpt><trkpt lat="37.974595" lon="12.8017217"><ele>309.0</ele><time>2026-05-06T10:40:38.565Z</time></trkpt><trkpt lat="37.9745067" lon="12.8018217"><ele>307.75</ele><time>2026-05-06T10:40:39.564Z</time></trkpt><trkpt lat="37.974415" lon="12.8019183"><ele>306.5</ele><time>2026-05-06T10:40:40.564Z</time></trkpt><trkpt lat="37.9743233" lon="12.8020133"><ele>305.25</ele><time>2026-05-06T10:40:41.564Z</time></trkpt><trkpt lat="37.9742267" lon="12.802105"><ele>304.0</ele><time>2026-05-06T10:40:42.565Z</time></trkpt><trkpt lat="37.974125" lon="12.802185"><ele>306.75</ele><time>2026-05-06T10:40:43.565Z</time></trkpt><trkpt lat="37.9740133" lon="12.8022533"><ele>309.5</ele><time>2026-05-06T10:40:44.566Z</time></trkpt><trkpt lat="37.9738967" lon="12.8023167"><ele>312.25</ele><time>2026-05-06T10:40:45.564Z</time></trkpt><trkpt lat="37.9737767" lon="12.8023817"><ele>315.0</ele><time>2026-05-06T10:40:46.564Z</time></trkpt><trkpt lat="37.973655" lon="12.802445"><ele>315.0</ele><time>2026-05-06T10:40:47.566Z</time></trkpt><trkpt lat="37.973535" lon="12.8025117"><ele>315.0</ele><time>2026-05-06T10:40:48.565Z</time></trkpt><trkpt lat="37.9734167" lon="12.8025817"><ele>315.0</ele><time>2026-05-06T10:40:49.565Z</time></trkpt><trkpt lat="37.9732933" lon="12.8026517"><ele>315.0</ele><time>2026-05-06T10:40:50.566Z</time></trkpt><trkpt lat="37.9731683" lon="12.802715"><ele>314.5</ele><time>2026-05-06T10:40:51.565Z</time></trkpt><trkpt lat="37.9730433" lon="12.80277"><ele>314.0</ele><time>2026-05-06T10:40:52.567Z</time></trkpt><trkpt lat="37.972915" lon="12.8028117"><ele>313.5</ele><time>2026-05-06T10:40:53.565Z</time></trkpt><trkpt lat="37.9727817" lon="12.8028417"><ele>313.0</ele><time>2026-05-06T10:40:54.565Z</time></trkpt><trkpt lat="37.972645" lon="12.8028633"><ele>315.0</ele><time>2026-05-06T10:40:55.566Z</time></trkpt><trkpt lat="37.9725052" lon="12.8028873"><ele>317.0</ele><time>2026-05-06T10:40:56.567Z</time></trkpt><trkpt lat="37.9723638" lon="12.802913"><ele>319.0</ele><time>2026-05-06T10:40:57.564Z</time></trkpt><trkpt lat="37.9722217" lon="12.8029404"><ele>321.0</ele><time>2026-05-06T10:40:58.567Z</time></trkpt><trkpt lat="37.9720771" lon="12.8029642"><ele>321.0</ele><time>2026-05-06T10:40:59.565Z</time></trkpt><trkpt lat="37.971928" lon="12.8029867"><ele>321.0</ele><time>2026-05-06T10:41:00.565Z</time></trkpt><trkpt lat="37.9717802" lon="12.8030077"><ele>321.0</ele><time>2026-05-06T10:41:01.564Z</time></trkpt><trkpt lat="37.9716331" lon="12.8030347"><ele>321.0</ele><time>2026-05-06T10:41:02.566Z</time></trkpt><trkpt lat="37.9714894" lon="12.8030723"><ele>322.75</ele><time>2026-05-06T10:41:03.565Z</time></trkpt><trkpt lat="37.9713437" lon="12.8031183"><ele>324.5</ele><time>2026-05-06T10:41:04.565Z</time></trkpt><trkpt lat="37.9712001" lon="12.8031668"><ele>326.25</ele><time>2026-05-06T10:41:05.565Z</time></trkpt><trkpt lat="37.9710619" lon="12.8032134"><ele>328.0</ele><time>2026-05-06T10:41:06.564Z</time></trkpt><trkpt lat="37.9709296" lon="12.8032573"><ele>330.25</ele><time>2026-05-06T10:41:07.565Z</time></trkpt><trkpt lat="37.9707972" lon="12.8033006"><ele>332.5</ele><time>2026-05-06T10:41:08.565Z</time></trkpt><trkpt lat="37.9706683" lon="12.8033425"><ele>334.75</ele><time>2026-05-06T10:41:09.565Z</time></trkpt><trkpt lat="37.9705386" lon="12.8033842"><ele>337.0</ele><time>2026-05-06T10:41:10.565Z</time></trkpt><trkpt lat="37.9704186" lon="12.803416"><ele>337.0</ele><time>2026-05-06T10:41:11.564Z</time></trkpt><trkpt lat="37.9703203" lon="12.8034363"><ele>337.0</ele><time>2026-05-06T10:41:12.565Z</time></trkpt><trkpt lat="37.9702362" lon="12.8034451"><ele>337.0</ele><time>2026-05-06T10:41:13.563Z</time></trkpt><trkpt lat="37.9701638" lon="12.8034383"><ele>337.0</ele><time>2026-05-06T10:41:14.565Z</time></trkpt><trkpt lat="37.9700655" lon="12.8034133"><ele>337.0</ele><time>2026-05-06T10:41:16.564Z</time></trkpt><trkpt lat="37.9700039" lon="12.803469"><ele>337.0</ele><time>2026-05-06T10:41:18.566Z</time></trkpt><trkpt lat="37.9699412" lon="12.8035768"><ele>338.0</ele><time>2026-05-06T10:41:20.566Z</time></trkpt><trkpt lat="37.9698525" lon="12.8036919"><ele>339.0</ele><time>2026-05-06T10:41:22.568Z</time></trkpt><trkpt lat="37.9698011" lon="12.8037588"><ele>340.0</ele><time>2026-05-06T10:41:23.566Z</time></trkpt><trkpt lat="37.9697475" lon="12.8038291"><ele>341.0</ele><time>2026-05-06T10:41:24.564Z</time></trkpt><trkpt lat="37.9696908" lon="12.8039045"><ele>342.0</ele><time>2026-05-06T10:41:25.563Z</time></trkpt><trkpt lat="37.9696268" lon="12.8039751"><ele>343.0</ele><time>2026-05-06T10:41:26.565Z</time></trkpt><trkpt lat="37.9695538" lon="12.8040318"><ele>343.0</ele><time>2026-05-06T10:41:27.565Z</time></trkpt><trkpt lat="37.9694763" lon="12.804088"><ele>343.0</ele><time>2026-05-06T10:41:28.566Z</time></trkpt><trkpt lat="37.969396" lon="12.8041488"><ele>343.0</ele><time>2026-05-06T10:41:29.563Z</time></trkpt><trkpt lat="37.969317" lon="12.8042159"><ele>343.0</ele><time>2026-05-06T10:41:30.565Z</time></trkpt><trkpt lat="37.9692436" lon="12.804276"><ele>343.0</ele><time>2026-05-06T10:41:31.563Z</time></trkpt><trkpt lat="37.9691778" lon="12.8043317"><ele>343.0</ele><time>2026-05-06T10:41:32.565Z</time></trkpt><trkpt lat="37.9691102" lon="12.8043831"><ele>344.0</ele><time>2026-05-06T10:41:33.565Z</time></trkpt><trkpt lat="37.9690395" lon="12.804431"><ele>345.0</ele><time>2026-05-06T10:41:34.565Z</time></trkpt><trkpt lat="37.9689717" lon="12.8044798"><ele>346.0</ele><time>2026-05-06T10:41:35.565Z</time></trkpt><trkpt lat="37.968901" lon="12.8045341"><ele>347.0</ele><time>2026-05-06T10:41:36.564Z</time></trkpt><trkpt lat="37.9688303" lon="12.8045901"><ele>348.0</ele><time>2026-05-06T10:41:37.565Z</time></trkpt><trkpt lat="37.9687611" lon="12.8046431"><ele>349.0</ele><time>2026-05-06T10:41:38.565Z</time></trkpt><trkpt lat="37.968693" lon="12.8047012"><ele>349.0</ele><time>2026-05-06T10:41:39.564Z</time></trkpt><trkpt lat="37.968627" lon="12.8047618"><ele>349.0</ele><time>2026-05-06T10:41:40.564Z</time></trkpt><trkpt lat="37.9685605" lon="12.8048236"><ele>349.0</ele><time>2026-05-06T10:41:41.565Z</time></trkpt><trkpt lat="37.9684925" lon="12.8048842"><ele>349.0</ele><time>2026-05-06T10:41:42.564Z</time></trkpt><trkpt lat="37.9684222" lon="12.8049459"><ele>349.0</ele><time>2026-05-06T10:41:43.565Z</time></trkpt><trkpt lat="37.9683459" lon="12.8050059"><ele>349.0</ele><time>2026-05-06T10:41:44.567Z</time></trkpt><trkpt lat="37.9682674" lon="12.805071"><ele>348.6</ele><time>2026-05-06T10:41:45.564Z</time></trkpt><trkpt lat="37.9681887" lon="12.8051399"><ele>348.2</ele><time>2026-05-06T10:41:46.564Z</time></trkpt><trkpt lat="37.9681134" lon="12.8052074"><ele>347.8</ele><time>2026-05-06T10:41:47.565Z</time></trkpt><trkpt lat="37.9680403" lon="12.8052709"><ele>347.40000000000003</ele><time>2026-05-06T10:41:48.565Z</time></trkpt><trkpt lat="37.9679666" lon="12.8053341"><ele>347.0</ele><time>2026-05-06T10:41:49.567Z</time></trkpt><trkpt lat="37.9678861" lon="12.8053986"><ele>347.6</ele><time>2026-05-06T10:41:50.565Z</time></trkpt><trkpt lat="37.9678011" lon="12.8054618"><ele>348.20000000000005</ele><time>2026-05-06T10:41:51.564Z</time></trkpt><trkpt lat="37.9677143" lon="12.8055248"><ele>348.8</ele><time>2026-05-06T10:41:52.563Z</time></trkpt><trkpt lat="37.9676285" lon="12.8055914"><ele>349.4</ele><time>2026-05-06T10:41:53.565Z</time></trkpt><trkpt lat="37.9675422" lon="12.8056595"><ele>350.0</ele><time>2026-05-06T10:41:54.565Z</time></trkpt><trkpt lat="37.9674611" lon="12.8057312"><ele>350.0</ele><time>2026-05-06T10:41:55.564Z</time></trkpt><trkpt lat="37.9673784" lon="12.8058061"><ele>350.0</ele><time>2026-05-06T10:41:56.565Z</time></trkpt><trkpt lat="37.967298" lon="12.8058815"><ele>350.0</ele><time>2026-05-06T10:41:57.565Z</time></trkpt><trkpt lat="37.9672152" lon="12.8059493"><ele>350.0</ele><time>2026-05-06T10:41:58.564Z</time></trkpt><trkpt lat="37.9671287" lon="12.8060102"><ele>350.0</ele><time>2026-05-06T10:41:59.565Z</time></trkpt><trkpt lat="37.9670389" lon="12.8060671"><ele>352.0</ele><time>2026-05-06T10:42:00.565Z</time></trkpt><trkpt lat="37.96695" lon="12.8061273"><ele>354.0</ele><time>2026-05-06T10:42:01.565Z</time></trkpt><trkpt lat="37.966866" lon="12.8061931"><ele>356.0</ele><time>2026-05-06T10:42:02.565Z</time></trkpt><trkpt lat="37.9667833" lon="12.806263"><ele>358.0</ele><time>2026-05-06T10:42:03.565Z</time></trkpt><trkpt lat="37.9667029" lon="12.8063349"><ele>360.0</ele><time>2026-05-06T10:42:04.564Z</time></trkpt><trkpt lat="37.9666216" lon="12.8064086"><ele>360.0</ele><time>2026-05-06T10:42:05.565Z</time></trkpt><trkpt lat="37.96654" lon="12.8064834"><ele>360.0</ele><time>2026-05-06T10:42:06.566Z</time></trkpt><trkpt lat="37.9664597" lon="12.8065585"><ele>360.0</ele><time>2026-05-06T10:42:07.565Z</time></trkpt><trkpt lat="37.9663828" lon="12.806637"><ele>360.0</ele><time>2026-05-06T10:42:08.565Z</time></trkpt><trkpt lat="37.9663096" lon="12.8067185"><ele>360.0</ele><time>2026-05-06T10:42:09.564Z</time></trkpt><trkpt lat="37.9662413" lon="12.8068038"><ele>361.3333333333333</ele><time>2026-05-06T10:42:10.565Z</time></trkpt><trkpt lat="37.9661776" lon="12.8068894"><ele>362.6666666666667</ele><time>2026-05-06T10:42:11.566Z</time></trkpt><trkpt lat="37.9661171" lon="12.8069601"><ele>364.0</ele><time>2026-05-06T10:42:12.565Z</time></trkpt><trkpt lat="37.9660493" lon="12.8070026"><ele>365.33333333333337</ele><time>2026-05-06T10:42:13.565Z</time></trkpt><trkpt lat="37.9659718" lon="12.8070262"><ele>366.6666666666667</ele><time>2026-05-06T10:42:14.565Z</time></trkpt><trkpt lat="37.9658854" lon="12.8070423"><ele>368.0</ele><time>2026-05-06T10:42:15.564Z</time></trkpt><trkpt lat="37.9657945" lon="12.8070668"><ele>368.0</ele><time>2026-05-06T10:42:16.565Z</time></trkpt><trkpt lat="37.9656981" lon="12.8070965"><ele>368.0</ele><time>2026-05-06T10:42:17.564Z</time></trkpt><trkpt lat="37.9655936" lon="12.8071267"><ele>368.0</ele><time>2026-05-06T10:42:18.564Z</time></trkpt><trkpt lat="37.965482" lon="12.8071464"><ele>368.0</ele><time>2026-05-06T10:42:19.563Z</time></trkpt><trkpt lat="37.9653681" lon="12.8071537"><ele>368.0</ele><time>2026-05-06T10:42:20.564Z</time></trkpt><trkpt lat="37.9652527" lon="12.80715"><ele>368.0</ele><time>2026-05-06T10:42:21.564Z</time></trkpt><trkpt lat="37.9651377" lon="12.8071408"><ele>368.0</ele><time>2026-05-06T10:42:22.564Z</time></trkpt><trkpt lat="37.965031" lon="12.8071292"><ele>368.0</ele><time>2026-05-06T10:42:23.563Z</time></trkpt><trkpt lat="37.964929" lon="12.8071171"><ele>368.0</ele><time>2026-05-06T10:42:24.565Z</time></trkpt><trkpt lat="37.9648251" lon="12.8071014"><ele>368.0</ele><time>2026-05-06T10:42:25.564Z</time></trkpt><trkpt lat="37.964719" lon="12.8070785"><ele>368.2</ele><time>2026-05-06T10:42:26.564Z</time></trkpt><trkpt lat="37.9646109" lon="12.8070542"><ele>368.4</ele><time>2026-05-06T10:42:27.564Z</time></trkpt><trkpt lat="37.9645021" lon="12.8070354"><ele>368.59999999999997</ele><time>2026-05-06T10:42:28.564Z</time></trkpt><trkpt lat="37.9643909" lon="12.8070154"><ele>368.79999999999995</ele><time>2026-05-06T10:42:29.564Z</time></trkpt><trkpt lat="37.9642803" lon="12.8070009"><ele>369.0</ele><time>2026-05-06T10:42:30.564Z</time></trkpt><trkpt lat="37.9641674" lon="12.8069943"><ele>368.6</ele><time>2026-05-06T10:42:31.565Z</time></trkpt><trkpt lat="37.9640553" lon="12.8069885"><ele>368.2</ele><time>2026-05-06T10:42:32.565Z</time></trkpt><trkpt lat="37.963955" lon="12.80698"><ele>367.8</ele><time>2026-05-06T10:42:33.564Z</time></trkpt><trkpt lat="37.9638642" lon="12.8069658"><ele>367.40000000000003</ele><time>2026-05-06T10:42:34.564Z</time></trkpt><trkpt lat="37.9637824" lon="12.806956"><ele>367.0</ele><time>2026-05-06T10:42:35.563Z</time></trkpt><trkpt lat="37.9637112" lon="12.8069627"><ele>367.0</ele><time>2026-05-06T10:42:36.564Z</time></trkpt><trkpt lat="37.9636483" lon="12.8069868"><ele>367.0</ele><time>2026-05-06T10:42:37.565Z</time></trkpt><trkpt lat="37.9635872" lon="12.8070767"><ele>367.0</ele><time>2026-05-06T10:42:39.564Z</time></trkpt><trkpt lat="37.9636249" lon="12.8072189"><ele>367.0</ele><time>2026-05-06T10:42:41.564Z</time></trkpt><trkpt lat="37.9636804" lon="12.8072954"><ele>367.0</ele><time>2026-05-06T10:42:42.569Z</time></trkpt><trkpt lat="37.9637584" lon="12.807365"><ele>367.0</ele><time>2026-05-06T10:42:43.564Z</time></trkpt><trkpt lat="37.9638384" lon="12.8074367"><ele>367.0</ele><time>2026-05-06T10:42:44.566Z</time></trkpt><trkpt lat="37.9639127" lon="12.8075092"><ele>367.0</ele><time>2026-05-06T10:42:45.564Z</time></trkpt><trkpt lat="37.9639867" lon="12.8075785"><ele>367.0</ele><time>2026-05-06T10:42:46.567Z</time></trkpt><trkpt lat="37.9640584" lon="12.8076457"><ele>367.0</ele><time>2026-05-06T10:42:47.564Z</time></trkpt><trkpt lat="37.9641287" lon="12.8077175"><ele>367.8</ele><time>2026-05-06T10:42:48.565Z</time></trkpt><trkpt lat="37.9642015" lon="12.807792"><ele>368.6</ele><time>2026-05-06T10:42:49.563Z</time></trkpt><trkpt lat="37.9642727" lon="12.8078728"><ele>369.40000000000003</ele><time>2026-05-06T10:42:50.566Z</time></trkpt><trkpt lat="37.9643437" lon="12.8079613"><ele>370.20000000000005</ele><time>2026-05-06T10:42:51.563Z</time></trkpt><trkpt lat="37.9644169" lon="12.8080525"><ele>371.0</ele><time>2026-05-06T10:42:52.564Z</time></trkpt><trkpt lat="37.9644894" lon="12.8081341"><ele>371.0</ele><time>2026-05-06T10:42:53.565Z</time></trkpt><trkpt lat="37.9645584" lon="12.8082157"><ele>371.0</ele><time>2026-05-06T10:42:54.564Z</time></trkpt><trkpt lat="37.9646281" lon="12.8083035"><ele>371.0</ele><time>2026-05-06T10:42:55.563Z</time></trkpt><trkpt lat="37.9647002" lon="12.8083999"><ele>371.0</ele><time>2026-05-06T10:42:56.566Z</time></trkpt><trkpt lat="37.9647678" lon="12.8085005"><ele>371.0</ele><time>2026-05-06T10:42:57.563Z</time></trkpt><trkpt lat="37.9648312" lon="12.8085966"><ele>372.0</ele><time>2026-05-06T10:42:58.564Z</time></trkpt><trkpt lat="37.964898" lon="12.8086957"><ele>373.0</ele><time>2026-05-06T10:42:59.563Z</time></trkpt><trkpt lat="37.9649625" lon="12.8088035"><ele>374.0</ele><time>2026-05-06T10:43:00.563Z</time></trkpt><trkpt lat="37.9650208" lon="12.80892"><ele>375.0</ele><time>2026-05-06T10:43:01.564Z</time></trkpt><trkpt lat="37.9650743" lon="12.8090437"><ele>376.0</ele><time>2026-05-06T10:43:02.564Z</time></trkpt><trkpt lat="37.9651202" lon="12.809162"><ele>376.0</ele><time>2026-05-06T10:43:03.564Z</time></trkpt><trkpt lat="37.9651624" lon="12.8092725"><ele>376.0</ele><time>2026-05-06T10:43:04.563Z</time></trkpt><trkpt lat="37.965205" lon="12.8093734"><ele>376.0</ele><time>2026-05-06T10:43:05.564Z</time></trkpt><trkpt lat="37.9652489" lon="12.8094652"><ele>376.0</ele><time>2026-05-06T10:43:06.565Z</time></trkpt><trkpt lat="37.9652951" lon="12.8095532"><ele>376.0</ele><time>2026-05-06T10:43:07.564Z</time></trkpt><trkpt lat="37.9653486" lon="12.8096409"><ele>376.0</ele><time>2026-05-06T10:43:08.565Z</time></trkpt><trkpt lat="37.9654033" lon="12.8097192"><ele>375.66666666666663</ele><time>2026-05-06T10:43:09.564Z</time></trkpt><trkpt lat="37.9654514" lon="12.8097975"><ele>375.3333333333333</ele><time>2026-05-06T10:43:10.565Z</time></trkpt><trkpt lat="37.9654833" lon="12.8098857"><ele>375.0</ele><time>2026-05-06T10:43:11.564Z</time></trkpt><trkpt lat="37.9654897" lon="12.8099837"><ele>374.6666666666667</ele><time>2026-05-06T10:43:12.564Z</time></trkpt><trkpt lat="37.9654769" lon="12.8100873"><ele>374.33333333333337</ele><time>2026-05-06T10:43:13.564Z</time></trkpt><trkpt lat="37.9654535" lon="12.8102006"><ele>374.0</ele><time>2026-05-06T10:43:14.569Z</time></trkpt><trkpt lat="37.9654234" lon="12.8103183"><ele>374.0</ele><time>2026-05-06T10:43:15.563Z</time></trkpt><trkpt lat="37.965396" lon="12.8104428"><ele>374.0</ele><time>2026-05-06T10:43:16.565Z</time></trkpt><trkpt lat="37.9653738" lon="12.8105761"><ele>374.0</ele><time>2026-05-06T10:43:17.564Z</time></trkpt><trkpt lat="37.9653596" lon="12.8107126"><ele>374.0</ele><time>2026-05-06T10:43:18.565Z</time></trkpt><trkpt lat="37.9653463" lon="12.8108493"><ele>374.0</ele><time>2026-05-06T10:43:19.564Z</time></trkpt><trkpt lat="37.9653322" lon="12.8109894"><ele>373.6</ele><time>2026-05-06T10:43:20.564Z</time></trkpt><trkpt lat="37.9653197" lon="12.8111313"><ele>373.2</ele><time>2026-05-06T10:43:21.563Z</time></trkpt><trkpt lat="37.9653178" lon="12.8112718"><ele>372.8</ele><time>2026-05-06T10:43:22.565Z</time></trkpt><trkpt lat="37.9653194" lon="12.8114043"><ele>372.40000000000003</ele><time>2026-05-06T10:43:23.563Z</time></trkpt><trkpt lat="37.9653171" lon="12.8115314"><ele>372.0</ele><time>2026-05-06T10:43:24.565Z</time></trkpt><trkpt lat="37.9653148" lon="12.8116591"><ele>372.0</ele><time>2026-05-06T10:43:25.564Z</time></trkpt><trkpt lat="37.9653173" lon="12.8117901"><ele>372.0</ele><time>2026-05-06T10:43:26.564Z</time></trkpt><trkpt lat="37.9653253" lon="12.8119186"><ele>372.0</ele><time>2026-05-06T10:43:27.565Z</time></trkpt><trkpt lat="37.9653444" lon="12.8120383"><ele>372.0</ele><time>2026-05-06T10:43:28.564Z</time></trkpt><trkpt lat="37.9653743" lon="12.8121475"><ele>372.0</ele><time>2026-05-06T10:43:29.564Z</time></trkpt><trkpt lat="37.9654129" lon="12.8122477"><ele>370.0</ele><time>2026-05-06T10:43:30.566Z</time></trkpt><trkpt lat="37.9654598" lon="12.8123404"><ele>368.0</ele><time>2026-05-06T10:43:31.563Z</time></trkpt><trkpt lat="37.9655161" lon="12.8124283"><ele>366.0</ele><time>2026-05-06T10:43:32.564Z</time></trkpt><trkpt lat="37.9655827" lon="12.8125182"><ele>364.0</ele><time>2026-05-06T10:43:33.566Z</time></trkpt><trkpt lat="37.9656565" lon="12.8126122"><ele>362.0</ele><time>2026-05-06T10:43:34.565Z</time></trkpt><trkpt lat="37.9657266" lon="12.8127088"><ele>362.0</ele><time>2026-05-06T10:43:35.564Z</time></trkpt><trkpt lat="37.965789" lon="12.8128088"><ele>362.0</ele><time>2026-05-06T10:43:36.564Z</time></trkpt><trkpt lat="37.965853" lon="12.812908"><ele>362.0</ele><time>2026-05-06T10:43:37.564Z</time></trkpt><trkpt lat="37.96592" lon="12.8130077"><ele>362.0</ele><time>2026-05-06T10:43:38.565Z</time></trkpt><trkpt lat="37.9659784" lon="12.8131093"><ele>362.0</ele><time>2026-05-06T10:43:39.564Z</time></trkpt><trkpt lat="37.9660271" lon="12.8132125"><ele>362.0</ele><time>2026-05-06T10:43:40.564Z</time></trkpt><trkpt lat="37.966074" lon="12.8133202"><ele>362.0</ele><time>2026-05-06T10:43:41.564Z</time></trkpt><trkpt lat="37.966128" lon="12.8134247"><ele>362.0</ele><time>2026-05-06T10:43:42.564Z</time></trkpt><trkpt lat="37.9661877" lon="12.8135223"><ele>362.0</ele><time>2026-05-06T10:43:43.564Z</time></trkpt><trkpt lat="37.9662483" lon="12.8136101"><ele>362.0</ele><time>2026-05-06T10:43:44.565Z</time></trkpt><trkpt lat="37.9663028" lon="12.8136815"><ele>360.83333333333337</ele><time>2026-05-06T10:43:45.564Z</time></trkpt><trkpt lat="37.966379" lon="12.8138054"><ele>359.6666666666667</ele><time>2026-05-06T10:43:47.563Z</time></trkpt><trkpt lat="37.9664117" lon="12.813888"><ele>358.5</ele><time>2026-05-06T10:43:48.565Z</time></trkpt><trkpt lat="37.9664459" lon="12.8139784"><ele>357.3333333333333</ele><time>2026-05-06T10:43:49.565Z</time></trkpt><trkpt lat="37.9664816" lon="12.8140706"><ele>356.16666666666663</ele><time>2026-05-06T10:43:50.565Z</time></trkpt><trkpt lat="37.9665226" lon="12.8141636"><ele>355.0</ele><time>2026-05-06T10:43:51.564Z</time></trkpt><trkpt lat="37.9665675" lon="12.8142546"><ele>355.0</ele><time>2026-05-06T10:43:52.565Z</time></trkpt><trkpt lat="37.966607" lon="12.8143461"><ele>355.0</ele><time>2026-05-06T10:43:53.565Z</time></trkpt><trkpt lat="37.9666404" lon="12.8144332"><ele>355.0</ele><time>2026-05-06T10:43:54.564Z</time></trkpt><trkpt lat="37.9666652" lon="12.8145137"><ele>355.0</ele><time>2026-05-06T10:43:55.564Z</time></trkpt><trkpt lat="37.9666727" lon="12.8145937"><ele>355.0</ele><time>2026-05-06T10:43:56.566Z</time></trkpt><trkpt lat="37.9666624" lon="12.8146736"><ele>355.0</ele><time>2026-05-06T10:43:57.564Z</time></trkpt><trkpt lat="37.9666377" lon="12.8147481"><ele>355.0</ele><time>2026-05-06T10:43:58.565Z</time></trkpt><trkpt lat="37.9665545" lon="12.8148646"><ele>355.0</ele><time>2026-05-06T10:44:00.565Z</time></trkpt><trkpt lat="37.966466" lon="12.8149776"><ele>355.0</ele><time>2026-05-06T10:44:02.564Z</time></trkpt><trkpt lat="37.9664205" lon="12.8150372"><ele>355.0</ele><time>2026-05-06T10:44:03.564Z</time></trkpt><trkpt lat="37.9663332" lon="12.8151462"><ele>355.0</ele><time>2026-05-06T10:44:05.564Z</time></trkpt><trkpt lat="37.9662854" lon="12.8151985"><ele>355.0</ele><time>2026-05-06T10:44:06.564Z</time></trkpt><trkpt lat="37.9662311" lon="12.815256"><ele>355.0</ele><time>2026-05-06T10:44:07.564Z</time></trkpt><trkpt lat="37.9661726" lon="12.8153151"><ele>354.85714285714283</ele><time>2026-05-06T10:44:08.565Z</time></trkpt><trkpt lat="37.9661165" lon="12.8153733"><ele>354.7142857142857</ele><time>2026-05-06T10:44:09.563Z</time></trkpt><trkpt lat="37.9660684" lon="12.8154345"><ele>354.57142857142856</ele><time>2026-05-06T10:44:10.565Z</time></trkpt><trkpt lat="37.9660257" lon="12.8155021"><ele>354.42857142857144</ele><time>2026-05-06T10:44:11.565Z</time></trkpt><trkpt lat="37.9659889" lon="12.8155726"><ele>354.2857142857143</ele><time>2026-05-06T10:44:12.566Z</time></trkpt><trkpt lat="37.9659559" lon="12.8156472"><ele>354.14285714285717</ele><time>2026-05-06T10:44:13.565Z</time></trkpt><trkpt lat="37.9659306" lon="12.8157227"><ele>354.0</ele><time>2026-05-06T10:44:14.565Z</time></trkpt><trkpt lat="37.965899" lon="12.8158719"><ele>354.0</ele><time>2026-05-06T10:44:16.563Z</time></trkpt><trkpt lat="37.9658851" lon="12.8159515"><ele>354.0</ele><time>2026-05-06T10:44:17.565Z</time></trkpt><trkpt lat="37.9658722" lon="12.8160406"><ele>354.0</ele><time>2026-05-06T10:44:18.564Z</time></trkpt><trkpt lat="37.9658661" lon="12.8161343"><ele>354.0</ele><time>2026-05-06T10:44:19.564Z</time></trkpt><trkpt lat="37.9658684" lon="12.8162278"><ele>354.0</ele><time>2026-05-06T10:44:20.566Z</time></trkpt><trkpt lat="37.9658765" lon="12.8163171"><ele>354.0</ele><time>2026-05-06T10:44:21.564Z</time></trkpt><trkpt lat="37.9658903" lon="12.8164067"><ele>354.0</ele><time>2026-05-06T10:44:22.563Z</time></trkpt><trkpt lat="37.9659104" lon="12.8164936"><ele>352.3333333333333</ele><time>2026-05-06T10:44:23.563Z</time></trkpt><trkpt lat="37.9659343" lon="12.8165757"><ele>350.6666666666667</ele><time>2026-05-06T10:44:24.565Z</time></trkpt><trkpt lat="37.9659623" lon="12.8166554"><ele>349.0</ele><time>2026-05-06T10:44:25.563Z</time></trkpt><trkpt lat="37.9659937" lon="12.8167338"><ele>347.33333333333337</ele><time>2026-05-06T10:44:26.566Z</time></trkpt><trkpt lat="37.966033" lon="12.8168222"><ele>345.6666666666667</ele><time>2026-05-06T10:44:27.563Z</time></trkpt><trkpt lat="37.966077" lon="12.8169165"><ele>344.0</ele><time>2026-05-06T10:44:28.563Z</time></trkpt><trkpt lat="37.9661213" lon="12.8170077"><ele>342.7142857142857</ele><time>2026-05-06T10:44:29.564Z</time></trkpt><trkpt lat="37.966162" lon="12.8170964"><ele>341.42857142857144</ele><time>2026-05-06T10:44:30.565Z</time></trkpt><trkpt lat="37.9662031" lon="12.8171821"><ele>340.1428571428571</ele><time>2026-05-06T10:44:31.564Z</time></trkpt><trkpt lat="37.9662449" lon="12.8172628"><ele>338.8571428571429</ele><time>2026-05-06T10:44:32.565Z</time></trkpt><trkpt lat="37.9662868" lon="12.8173335"><ele>337.57142857142856</ele><time>2026-05-06T10:44:33.564Z</time></trkpt><trkpt lat="37.9663356" lon="12.8173941"><ele>336.2857142857143</ele><time>2026-05-06T10:44:34.564Z</time></trkpt><trkpt lat="37.966393" lon="12.8174483"><ele>335.0</ele><time>2026-05-06T10:44:35.564Z</time></trkpt><trkpt lat="37.9664593" lon="12.8174969"><ele>335.0</ele><time>2026-05-06T10:44:36.565Z</time></trkpt><trkpt lat="37.9665267" lon="12.8175355"><ele>335.0</ele><time>2026-05-06T10:44:37.564Z</time></trkpt><trkpt lat="37.9665897" lon="12.8175712"><ele>335.0</ele><time>2026-05-06T10:44:38.565Z</time></trkpt><trkpt lat="37.9666918" lon="12.8176455"><ele>335.0</ele><time>2026-05-06T10:44:40.564Z</time></trkpt><trkpt lat="37.9667416" lon="12.8177294"><ele>335.0</ele><time>2026-05-06T10:44:42.564Z</time></trkpt><trkpt lat="37.9667063" lon="12.8178121"><ele>335.0</ele><time>2026-05-06T10:44:44.566Z</time></trkpt><trkpt lat="37.9666175" lon="12.8178942"><ele>335.1428571428571</ele><time>2026-05-06T10:44:46.564Z</time></trkpt><trkpt lat="37.9665654" lon="12.8179468"><ele>335.2857142857143</ele><time>2026-05-06T10:44:47.565Z</time></trkpt><trkpt lat="37.9665156" lon="12.8180123"><ele>335.42857142857144</ele><time>2026-05-06T10:44:48.563Z</time></trkpt><trkpt lat="37.9664762" lon="12.818091"><ele>335.57142857142856</ele><time>2026-05-06T10:44:49.564Z</time></trkpt><trkpt lat="37.9664499" lon="12.8181748"><ele>335.7142857142857</ele><time>2026-05-06T10:44:50.565Z</time></trkpt><trkpt lat="37.9664405" lon="12.8182638"><ele>335.85714285714283</ele><time>2026-05-06T10:44:51.564Z</time></trkpt><trkpt lat="37.9664488" lon="12.8183601"><ele>336.0</ele><time>2026-05-06T10:44:52.564Z</time></trkpt><trkpt lat="37.9664699" lon="12.8184598"><ele>336.5</ele><time>2026-05-06T10:44:53.563Z</time></trkpt><trkpt lat="37.9664935" lon="12.8185587"><ele>337.0</ele><time>2026-05-06T10:44:54.564Z</time></trkpt><trkpt lat="37.9665195" lon="12.8186578"><ele>337.5</ele><time>2026-05-06T10:44:55.563Z</time></trkpt><trkpt lat="37.9665458" lon="12.8187579"><ele>338.0</ele><time>2026-05-06T10:44:56.564Z</time></trkpt><trkpt lat="37.966566" lon="12.8188601"><ele>338.5</ele><time>2026-05-06T10:44:57.566Z</time></trkpt><trkpt lat="37.9665727" lon="12.8189551"><ele>339.0</ele><time>2026-05-06T10:44:58.564Z</time></trkpt><trkpt lat="37.9665592" lon="12.819034"><ele>339.0</ele><time>2026-05-06T10:44:59.564Z</time></trkpt><trkpt lat="37.9665268" lon="12.8191034"><ele>339.0</ele><time>2026-05-06T10:45:00.564Z</time></trkpt><trkpt lat="37.9664808" lon="12.8191741"><ele>339.0</ele><time>2026-05-06T10:45:01.564Z</time></trkpt><trkpt lat="37.9664256" lon="12.8192479"><ele>339.0</ele><time>2026-05-06T10:45:02.564Z</time></trkpt><trkpt lat="37.966371" lon="12.8193241"><ele>339.0</ele><time>2026-05-06T10:45:03.565Z</time></trkpt><trkpt lat="37.9663239" lon="12.8193983"><ele>339.0</ele><time>2026-05-06T10:45:04.564Z</time></trkpt><trkpt lat="37.9662814" lon="12.8194731"><ele>339.0</ele><time>2026-05-06T10:45:05.565Z</time></trkpt><trkpt lat="37.9662466" lon="12.8195573"><ele>339.1428571428571</ele><time>2026-05-06T10:45:06.566Z</time></trkpt><trkpt lat="37.9662197" lon="12.8196481"><ele>339.28571428571433</ele><time>2026-05-06T10:45:07.565Z</time></trkpt><trkpt lat="37.9661987" lon="12.8197377"><ele>339.42857142857144</ele><time>2026-05-06T10:45:08.566Z</time></trkpt><trkpt lat="37.9661815" lon="12.819822"><ele>339.57142857142856</ele><time>2026-05-06T10:45:09.564Z</time></trkpt><trkpt lat="37.9661662" lon="12.8199045"><ele>339.71428571428567</ele><time>2026-05-06T10:45:10.566Z</time></trkpt><trkpt lat="37.9661513" lon="12.8199877"><ele>339.8571428571429</ele><time>2026-05-06T10:45:11.564Z</time></trkpt><trkpt lat="37.9661373" lon="12.820072"><ele>340.0</ele><time>2026-05-06T10:45:12.566Z</time></trkpt><trkpt lat="37.9661263" lon="12.8201579"><ele>339.5714285714286</ele><time>2026-05-06T10:45:13.564Z</time></trkpt><trkpt lat="37.9661189" lon="12.8202513"><ele>339.1428571428571</ele><time>2026-05-06T10:45:14.565Z</time></trkpt><trkpt lat="37.9661129" lon="12.8203505"><ele>338.7142857142857</ele><time>2026-05-06T10:45:15.565Z</time></trkpt><trkpt lat="37.9661084" lon="12.8204482"><ele>338.28571428571433</ele><time>2026-05-06T10:45:16.565Z</time></trkpt><trkpt lat="37.9661057" lon="12.8205391"><ele>337.8571428571429</ele><time>2026-05-06T10:45:17.564Z</time></trkpt><trkpt lat="37.966106" lon="12.820627"><ele>337.42857142857144</ele><time>2026-05-06T10:45:18.564Z</time></trkpt><trkpt lat="37.9661078" lon="12.8207181"><ele>337.0</ele><time>2026-05-06T10:45:19.564Z</time></trkpt><trkpt lat="37.9661094" lon="12.8208135"><ele>337.00000000000006</ele><time>2026-05-06T10:45:20.564Z</time></trkpt><trkpt lat="37.966109" lon="12.820912"><ele>337.0</ele><time>2026-05-06T10:45:21.564Z</time></trkpt><trkpt lat="37.9661146" lon="12.8210089"><ele>337.0</ele><time>2026-05-06T10:45:22.566Z</time></trkpt><trkpt lat="37.9661266" lon="12.8210996"><ele>337.0</ele><time>2026-05-06T10:45:23.564Z</time></trkpt><trkpt lat="37.9661384" lon="12.8211883"><ele>337.0</ele><time>2026-05-06T10:45:24.565Z</time></trkpt><trkpt lat="37.966146" lon="12.8212783"><ele>337.00000000000006</ele><time>2026-05-06T10:45:25.565Z</time></trkpt><trkpt lat="37.9661455" lon="12.8213704"><ele>337.0</ele><time>2026-05-06T10:45:26.565Z</time></trkpt><trkpt lat="37.9661395" lon="12.8214593"><ele>336.00000000000006</ele><time>2026-05-06T10:45:27.565Z</time></trkpt><trkpt lat="37.9661293" lon="12.8215446"><ele>335.0</ele><time>2026-05-06T10:45:28.563Z</time></trkpt><trkpt lat="37.9661163" lon="12.8216327"><ele>334.0</ele><time>2026-05-06T10:45:29.564Z</time></trkpt><trkpt lat="37.9660968" lon="12.8217236"><ele>333.0</ele><time>2026-05-06T10:45:30.564Z</time></trkpt><trkpt lat="37.9660728" lon="12.8218144"><ele>332.0</ele><time>2026-05-06T10:45:31.563Z</time></trkpt><trkpt lat="37.9660476" lon="12.8219041"><ele>331.00000000000006</ele><time>2026-05-06T10:45:32.566Z</time></trkpt><trkpt lat="37.9660127" lon="12.8219812"><ele>330.0</ele><time>2026-05-06T10:45:33.563Z</time></trkpt><trkpt lat="37.965968" lon="12.8220506"><ele>329.3333333333333</ele><time>2026-05-06T10:45:34.565Z</time></trkpt><trkpt lat="37.9659134" lon="12.8221111"><ele>328.6666666666667</ele><time>2026-05-06T10:45:35.564Z</time></trkpt><trkpt lat="37.965851" lon="12.8221629"><ele>328.0</ele><time>2026-05-06T10:45:36.565Z</time></trkpt><trkpt lat="37.9657851" lon="12.8222053"><ele>327.33333333333337</ele><time>2026-05-06T10:45:37.563Z</time></trkpt><trkpt lat="37.9657164" lon="12.822246"><ele>326.6666666666667</ele><time>2026-05-06T10:45:38.565Z</time></trkpt><trkpt lat="37.9656449" lon="12.8222871"><ele>326.0</ele><time>2026-05-06T10:45:39.565Z</time></trkpt><trkpt lat="37.9655742" lon="12.8223242"><ele>324.0</ele><time>2026-05-06T10:45:40.564Z</time></trkpt><trkpt lat="37.9655058" lon="12.8223537"><ele>322.0</ele><time>2026-05-06T10:45:41.563Z</time></trkpt><trkpt lat="37.9654441" lon="12.8223759"><ele>320.0</ele><time>2026-05-06T10:45:42.563Z</time></trkpt><trkpt lat="37.9653542" lon="12.8224441"><ele>318.0</ele><time>2026-05-06T10:45:44.566Z</time></trkpt><trkpt lat="37.9653208" lon="12.8225668"><ele>316.0</ele><time>2026-05-06T10:45:46.563Z</time></trkpt><trkpt lat="37.9653828" lon="12.8226979"><ele>314.2</ele><time>2026-05-06T10:45:48.565Z</time></trkpt><trkpt lat="37.9654477" lon="12.8227493"><ele>312.40000000000003</ele><time>2026-05-06T10:45:49.565Z</time></trkpt><trkpt lat="37.9655144" lon="12.8228036"><ele>310.6</ele><time>2026-05-06T10:45:50.569Z</time></trkpt><trkpt lat="37.9655663" lon="12.8228598"><ele>308.8</ele><time>2026-05-06T10:45:51.564Z</time></trkpt><trkpt lat="37.9656142" lon="12.8229917"><ele>307.0</ele><time>2026-05-06T10:45:53.565Z</time></trkpt><trkpt lat="37.9655993" lon="12.8231597"><ele>307.0</ele><time>2026-05-06T10:45:55.565Z</time></trkpt><trkpt lat="37.9655814" lon="12.8232558"><ele>307.0</ele><time>2026-05-06T10:45:56.565Z</time></trkpt><trkpt lat="37.9655587" lon="12.8233487"><ele>307.0</ele><time>2026-05-06T10:45:57.565Z</time></trkpt><trkpt lat="37.9655339" lon="12.8234415"><ele>307.0</ele><time>2026-05-06T10:45:58.565Z</time></trkpt><trkpt lat="37.9655098" lon="12.823531"><ele>307.0</ele><time>2026-05-06T10:45:59.564Z</time></trkpt><trkpt lat="37.9654882" lon="12.8236231"><ele>307.0</ele><time>2026-05-06T10:46:00.565Z</time></trkpt><trkpt lat="37.9654706" lon="12.8237217"><ele>305.3333333333333</ele><time>2026-05-06T10:46:01.564Z</time></trkpt><trkpt lat="37.9654511" lon="12.8238222"><ele>303.66666666666663</ele><time>2026-05-06T10:46:02.563Z</time></trkpt><trkpt lat="37.965429" lon="12.8239239"><ele>302.0</ele><time>2026-05-06T10:46:03.564Z</time></trkpt><trkpt lat="37.9654109" lon="12.8240259"><ele>300.3333333333333</ele><time>2026-05-06T10:46:04.564Z</time></trkpt><trkpt lat="37.9653918" lon="12.8241277"><ele>298.6666666666667</ele><time>2026-05-06T10:46:05.565Z</time></trkpt><trkpt lat="37.96537" lon="12.824228"><ele>297.0</ele><time>2026-05-06T10:46:06.563Z</time></trkpt><trkpt lat="37.9653449" lon="12.8243296"><ele>296.4</ele><time>2026-05-06T10:46:07.564Z</time></trkpt><trkpt lat="37.9653141" lon="12.8244319"><ele>295.79999999999995</ele><time>2026-05-06T10:46:08.564Z</time></trkpt><trkpt lat="37.9652755" lon="12.8245394"><ele>295.2</ele><time>2026-05-06T10:46:09.564Z</time></trkpt><trkpt lat="37.965239" lon="12.8246515"><ele>294.59999999999997</ele><time>2026-05-06T10:46:10.565Z</time></trkpt><trkpt lat="37.9652083" lon="12.8247648"><ele>294.0</ele><time>2026-05-06T10:46:11.564Z</time></trkpt><trkpt lat="37.9651869" lon="12.8248783"><ele>294.0</ele><time>2026-05-06T10:46:12.564Z</time></trkpt><trkpt lat="37.9651783" lon="12.8249945"><ele>294.0</ele><time>2026-05-06T10:46:13.564Z</time></trkpt><trkpt lat="37.9651742" lon="12.8251077"><ele>294.0</ele><time>2026-05-06T10:46:14.565Z</time></trkpt><trkpt lat="37.9651667" lon="12.8252117"><ele>294.0</ele><time>2026-05-06T10:46:15.563Z</time></trkpt><trkpt lat="37.965158" lon="12.8253031"><ele>294.0</ele><time>2026-05-06T10:46:16.564Z</time></trkpt><trkpt lat="37.9651106" lon="12.82543"><ele>294.0</ele><time>2026-05-06T10:46:18.566Z</time></trkpt><trkpt lat="37.9650546" lon="12.8254666"><ele>291.4</ele><time>2026-05-06T10:46:19.565Z</time></trkpt><trkpt lat="37.9649916" lon="12.8255044"><ele>288.79999999999995</ele><time>2026-05-06T10:46:20.567Z</time></trkpt><trkpt lat="37.9649273" lon="12.8255459"><ele>286.20000000000005</ele><time>2026-05-06T10:46:21.563Z</time></trkpt><trkpt lat="37.9648648" lon="12.8255879"><ele>283.6</ele><time>2026-05-06T10:46:22.564Z</time></trkpt><trkpt lat="37.9647873" lon="12.8256964"><ele>281.0</ele><time>2026-05-06T10:46:24.563Z</time></trkpt><trkpt lat="37.9647808" lon="12.8258637"><ele>281.0</ele><time>2026-05-06T10:46:26.566Z</time></trkpt><trkpt lat="37.9647973" lon="12.8259652"><ele>281.0</ele><time>2026-05-06T10:46:27.563Z</time></trkpt><trkpt lat="37.9648175" lon="12.8260707"><ele>281.0</ele><time>2026-05-06T10:46:28.564Z</time></trkpt><trkpt lat="37.9648448" lon="12.8261757"><ele>281.0</ele><time>2026-05-06T10:46:29.564Z</time></trkpt><trkpt lat="37.9648796" lon="12.8262822"><ele>281.0</ele><time>2026-05-06T10:46:30.565Z</time></trkpt><trkpt lat="37.9649212" lon="12.8263831"><ele>281.0</ele><time>2026-05-06T10:46:31.564Z</time></trkpt><trkpt lat="37.964964" lon="12.8264829"><ele>282.0</ele><time>2026-05-06T10:46:32.565Z</time></trkpt><trkpt lat="37.9650064" lon="12.8265847"><ele>283.0</ele><time>2026-05-06T10:46:33.565Z</time></trkpt><trkpt lat="37.9650455" lon="12.8266897"><ele>284.0</ele><time>2026-05-06T10:46:34.566Z</time></trkpt><trkpt lat="37.9650836" lon="12.8267962"><ele>285.0</ele><time>2026-05-06T10:46:35.564Z</time></trkpt><trkpt lat="37.9651229" lon="12.8268988"><ele>286.0</ele><time>2026-05-06T10:46:36.563Z</time></trkpt><trkpt lat="37.9651662" lon="12.8269917"><ele>283.5</ele><time>2026-05-06T10:46:37.564Z</time></trkpt><trkpt lat="37.9652058" lon="12.8270757"><ele>281.0</ele><time>2026-05-06T10:46:38.565Z</time></trkpt><trkpt lat="37.9652301" lon="12.8271498"><ele>278.5</ele><time>2026-05-06T10:46:39.565Z</time></trkpt><trkpt lat="37.9652187" lon="12.8272726"><ele>276.0</ele><time>2026-05-06T10:46:41.564Z</time></trkpt><trkpt lat="37.9651236" lon="12.8273739"><ele>273.5</ele><time>2026-05-06T10:46:43.564Z</time></trkpt><trkpt lat="37.9650472" lon="12.8274276"><ele>271.0</ele><time>2026-05-06T10:46:44.565Z</time></trkpt><trkpt lat="37.9649603" lon="12.8274895"><ele>269.40000000000003</ele><time>2026-05-06T10:46:45.565Z</time></trkpt><trkpt lat="37.9648708" lon="12.8275559"><ele>267.8</ele><time>2026-05-06T10:46:46.565Z</time></trkpt><trkpt lat="37.9647857" lon="12.8276218"><ele>266.20000000000005</ele><time>2026-05-06T10:46:47.566Z</time></trkpt><trkpt lat="37.964703" lon="12.8276869"><ele>264.6</ele><time>2026-05-06T10:46:48.564Z</time></trkpt><trkpt lat="37.9646193" lon="12.8277523"><ele>263.0</ele><time>2026-05-06T10:46:49.564Z</time></trkpt><trkpt lat="37.9645355" lon="12.8278202"><ele>260.6</ele><time>2026-05-06T10:46:50.564Z</time></trkpt><trkpt lat="37.9644532" lon="12.8278887"><ele>258.20000000000005</ele><time>2026-05-06T10:46:51.564Z</time></trkpt><trkpt lat="37.9643701" lon="12.8279557"><ele>255.8</ele><time>2026-05-06T10:46:52.564Z</time></trkpt><trkpt lat="37.9642869" lon="12.8280236"><ele>253.4</ele><time>2026-05-06T10:46:53.566Z</time></trkpt><trkpt lat="37.9642041" lon="12.8280919"><ele>251.0</ele><time>2026-05-06T10:46:54.566Z</time></trkpt><trkpt lat="37.9641225" lon="12.8281602"><ele>250.8</ele><time>2026-05-06T10:46:55.564Z</time></trkpt><trkpt lat="37.9640404" lon="12.8282298"><ele>250.60000000000002</ele><time>2026-05-06T10:46:56.565Z</time></trkpt><trkpt lat="37.9639529" lon="12.8283058"><ele>250.4</ele><time>2026-05-06T10:46:57.564Z</time></trkpt><trkpt lat="37.9638639" lon="12.8283791"><ele>250.2</ele><time>2026-05-06T10:46:58.564Z</time></trkpt><trkpt lat="37.9637741" lon="12.8284521"><ele>250.0</ele><time>2026-05-06T10:46:59.565Z</time></trkpt><trkpt lat="37.9636885" lon="12.8285213"><ele>248.4</ele><time>2026-05-06T10:47:00.566Z</time></trkpt><trkpt lat="37.963605" lon="12.8285907"><ele>246.8</ele><time>2026-05-06T10:47:01.565Z</time></trkpt><trkpt lat="37.9635256" lon="12.8286579"><ele>245.2</ele><time>2026-05-06T10:47:02.564Z</time></trkpt><trkpt lat="37.9634506" lon="12.8287224"><ele>243.6</ele><time>2026-05-06T10:47:03.564Z</time></trkpt><trkpt lat="37.9633763" lon="12.8287841"><ele>242.0</ele><time>2026-05-06T10:47:04.563Z</time></trkpt><trkpt lat="37.9633015" lon="12.828844"><ele>241.16666666666669</ele><time>2026-05-06T10:47:05.563Z</time></trkpt><trkpt lat="37.9632268" lon="12.8289037"><ele>240.33333333333334</ele><time>2026-05-06T10:47:06.565Z</time></trkpt><trkpt lat="37.9631558" lon="12.8289683"><ele>239.5</ele><time>2026-05-06T10:47:07.563Z</time></trkpt><trkpt lat="37.9630848" lon="12.8290348"><ele>238.66666666666669</ele><time>2026-05-06T10:47:08.565Z</time></trkpt><trkpt lat="37.9630202" lon="12.8290918"><ele>237.83333333333334</ele><time>2026-05-06T10:47:09.564Z</time></trkpt><trkpt lat="37.9629571" lon="12.8291338"><ele>237.0</ele><time>2026-05-06T10:47:10.564Z</time></trkpt><trkpt lat="37.9628417" lon="12.8291581"><ele>237.0</ele><time>2026-05-06T10:47:12.564Z</time></trkpt><trkpt lat="37.9627258" lon="12.8291712"><ele>237.0</ele><time>2026-05-06T10:47:14.565Z</time></trkpt><trkpt lat="37.9626077" lon="12.8291872"><ele>237.0</ele><time>2026-05-06T10:47:16.566Z</time></trkpt><trkpt lat="37.9624866" lon="12.8292042"><ele>237.0</ele><time>2026-05-06T10:47:18.564Z</time></trkpt><trkpt lat="37.9624146" lon="12.8292134"><ele>237.0</ele><time>2026-05-06T10:47:19.564Z</time></trkpt><trkpt lat="37.9623315" lon="12.8292252"><ele>236.33333333333334</ele><time>2026-05-06T10:47:20.564Z</time></trkpt><trkpt lat="37.9622387" lon="12.8292373"><ele>235.66666666666669</ele><time>2026-05-06T10:47:21.564Z</time></trkpt><trkpt lat="37.9621458" lon="12.8292438"><ele>235.0</ele><time>2026-05-06T10:47:22.565Z</time></trkpt><trkpt lat="37.9620579" lon="12.8292325"><ele>234.33333333333334</ele><time>2026-05-06T10:47:23.564Z</time></trkpt><trkpt lat="37.9619803" lon="12.829196"><ele>233.66666666666669</ele><time>2026-05-06T10:47:24.565Z</time></trkpt><trkpt lat="37.961914" lon="12.829137"><ele>233.0</ele><time>2026-05-06T10:47:25.565Z</time></trkpt><trkpt lat="37.9618661" lon="12.8290598"><ele>233.0</ele><time>2026-05-06T10:47:26.566Z</time></trkpt><trkpt lat="37.961839" lon="12.8289655"><ele>233.0</ele><time>2026-05-06T10:47:27.565Z</time></trkpt><trkpt lat="37.9618223" lon="12.8288574"><ele>233.0</ele><time>2026-05-06T10:47:28.564Z</time></trkpt><trkpt lat="37.9618132" lon="12.8287266"><ele>233.0</ele><time>2026-05-06T10:47:29.564Z</time></trkpt><trkpt lat="37.9618063" lon="12.8285823"><ele>233.0</ele><time>2026-05-06T10:47:30.564Z</time></trkpt><trkpt lat="37.9618022" lon="12.8284346"><ele>232.60000000000002</ele><time>2026-05-06T10:47:31.565Z</time></trkpt><trkpt lat="37.9617969" lon="12.828293"><ele>232.20000000000002</ele><time>2026-05-06T10:47:32.565Z</time></trkpt><trkpt lat="37.961789" lon="12.8281582"><ele>231.8</ele><time>2026-05-06T10:47:33.564Z</time></trkpt><trkpt lat="37.9617761" lon="12.8280384"><ele>231.4</ele><time>2026-05-06T10:47:34.565Z</time></trkpt><trkpt lat="37.9617542" lon="12.8279373"><ele>231.0</ele><time>2026-05-06T10:47:35.564Z</time></trkpt><trkpt lat="37.961714" lon="12.8278436"><ele>229.33333333333334</ele><time>2026-05-06T10:47:36.564Z</time></trkpt><trkpt lat="37.9616623" lon="12.8277604"><ele>227.66666666666669</ele><time>2026-05-06T10:47:37.564Z</time></trkpt><trkpt lat="37.9615977" lon="12.8276958"><ele>226.0</ele><time>2026-05-06T10:47:38.565Z</time></trkpt><trkpt lat="37.9615202" lon="12.8276517"><ele>224.33333333333334</ele><time>2026-05-06T10:47:39.563Z</time></trkpt><trkpt lat="37.9614366" lon="12.8276143"><ele>222.66666666666669</ele><time>2026-05-06T10:47:40.565Z</time></trkpt><trkpt lat="37.9613443" lon="12.8275818"><ele>221.0</ele><time>2026-05-06T10:47:41.564Z</time></trkpt><trkpt lat="37.9612481" lon="12.8275483"><ele>220.60000000000002</ele><time>2026-05-06T10:47:42.564Z</time></trkpt><trkpt lat="37.9611566" lon="12.827511"><ele>220.20000000000002</ele><time>2026-05-06T10:47:43.564Z</time></trkpt><trkpt lat="37.9610666" lon="12.827469"><ele>219.79999999999998</ele><time>2026-05-06T10:47:44.565Z</time></trkpt><trkpt lat="37.9609768" lon="12.8274313"><ele>219.39999999999998</ele><time>2026-05-06T10:47:45.565Z</time></trkpt><trkpt lat="37.960887" lon="12.8273992"><ele>219.0</ele><time>2026-05-06T10:47:46.563Z</time></trkpt><trkpt lat="37.9607996" lon="12.8273713"><ele>217.83333333333334</ele><time>2026-05-06T10:47:47.564Z</time></trkpt><trkpt lat="37.9607131" lon="12.8273486"><ele>216.66666666666669</ele><time>2026-05-06T10:47:48.564Z</time></trkpt><trkpt lat="37.9606265" lon="12.827341"><ele>215.5</ele><time>2026-05-06T10:47:49.564Z</time></trkpt><trkpt lat="37.9605399" lon="12.8273478"><ele>214.33333333333334</ele><time>2026-05-06T10:47:50.565Z</time></trkpt><trkpt lat="37.9604534" lon="12.827369"><ele>213.16666666666669</ele><time>2026-05-06T10:47:51.563Z</time></trkpt><trkpt lat="37.9603665" lon="12.8274037"><ele>212.0</ele><time>2026-05-06T10:47:52.564Z</time></trkpt><trkpt lat="37.9602769" lon="12.8274518"><ele>212.0</ele><time>2026-05-06T10:47:53.564Z</time></trkpt><trkpt lat="37.9601852" lon="12.827509"><ele>212.0</ele><time>2026-05-06T10:47:54.564Z</time></trkpt><trkpt lat="37.9600932" lon="12.8275676"><ele>212.0</ele><time>2026-05-06T10:47:55.57Z</time></trkpt><trkpt lat="37.9600073" lon="12.8276249"><ele>212.0</ele><time>2026-05-06T10:47:56.565Z</time></trkpt><trkpt lat="37.9599243" lon="12.8276803"><ele>212.0</ele><time>2026-05-06T10:47:57.563Z</time></trkpt><trkpt lat="37.9598444" lon="12.8277324"><ele>210.39999999999998</ele><time>2026-05-06T10:47:58.563Z</time></trkpt><trkpt lat="37.9597649" lon="12.8277864"><ele>208.79999999999998</ele><time>2026-05-06T10:47:59.563Z</time></trkpt><trkpt lat="37.9596867" lon="12.8278519"><ele>207.2</ele><time>2026-05-06T10:48:00.565Z</time></trkpt><trkpt lat="37.9596086" lon="12.8279306"><ele>205.6</ele><time>2026-05-06T10:48:01.564Z</time></trkpt><trkpt lat="37.959532" lon="12.8280192"><ele>204.0</ele><time>2026-05-06T10:48:02.564Z</time></trkpt><trkpt lat="37.9594614" lon="12.8281147"><ele>204.0</ele><time>2026-05-06T10:48:03.564Z</time></trkpt><trkpt lat="37.9593931" lon="12.8282097"><ele>204.0</ele><time>2026-05-06T10:48:04.563Z</time></trkpt><trkpt lat="37.9593237" lon="12.8283064"><ele>204.0</ele><time>2026-05-06T10:48:05.564Z</time></trkpt><trkpt lat="37.9592536" lon="12.8284048"><ele>204.0</ele><time>2026-05-06T10:48:06.564Z</time></trkpt><trkpt lat="37.9591836" lon="12.8285069"><ele>204.0</ele><time>2026-05-06T10:48:07.564Z</time></trkpt><trkpt lat="37.9591138" lon="12.8286061"><ele>203.2</ele><time>2026-05-06T10:48:08.564Z</time></trkpt><trkpt lat="37.9590457" lon="12.828701"><ele>202.39999999999998</ele><time>2026-05-06T10:48:09.564Z</time></trkpt><trkpt lat="37.9589787" lon="12.828797"><ele>201.6</ele><time>2026-05-06T10:48:10.564Z</time></trkpt><trkpt lat="37.9589108" lon="12.828898"><ele>200.8</ele><time>2026-05-06T10:48:11.564Z</time></trkpt><trkpt lat="37.9588491" lon="12.8290047"><ele>200.0</ele><time>2026-05-06T10:48:12.565Z</time></trkpt><trkpt lat="37.9587949" lon="12.8291188"><ele>200.0</ele><time>2026-05-06T10:48:13.564Z</time></trkpt><trkpt lat="37.9587549" lon="12.82924"><ele>200.0</ele><time>2026-05-06T10:48:14.565Z</time></trkpt><trkpt lat="37.9587291" lon="12.829364"><ele>200.0</ele><time>2026-05-06T10:48:15.564Z</time></trkpt><trkpt lat="37.9587216" lon="12.8294898"><ele>200.0</ele><time>2026-05-06T10:48:16.568Z</time></trkpt><trkpt lat="37.958722" lon="12.8296121"><ele>200.0</ele><time>2026-05-06T10:48:17.564Z</time></trkpt><trkpt lat="37.9587275" lon="12.8297223"><ele>199.33333333333334</ele><time>2026-05-06T10:48:18.564Z</time></trkpt><trkpt lat="37.9587364" lon="12.8298134"><ele>198.66666666666669</ele><time>2026-05-06T10:48:19.564Z</time></trkpt><trkpt lat="37.9587546" lon="12.8299452"><ele>198.0</ele><time>2026-05-06T10:48:21.565Z</time></trkpt><trkpt lat="37.9587124" lon="12.8300203"><ele>197.33333333333331</ele><time>2026-05-06T10:48:23.564Z</time></trkpt><trkpt lat="37.9586064" lon="12.8300663"><ele>196.66666666666666</ele><time>2026-05-06T10:48:25.563Z</time></trkpt><trkpt lat="37.9585399" lon="12.8300785"><ele>196.0</ele><time>2026-05-06T10:48:26.564Z</time></trkpt><trkpt lat="37.9584346" lon="12.8300306"><ele>196.0</ele><time>2026-05-06T10:48:28.565Z</time></trkpt><trkpt lat="37.9583572" lon="12.8298895"><ele>196.0</ele><time>2026-05-06T10:48:30.564Z</time></trkpt><trkpt lat="37.9583139" lon="12.8297899"><ele>196.0</ele><time>2026-05-06T10:48:31.564Z</time></trkpt><trkpt lat="37.9582662" lon="12.8296847"><ele>196.0</ele><time>2026-05-06T10:48:32.565Z</time></trkpt><trkpt lat="37.9582162" lon="12.8295857"><ele>196.0</ele><time>2026-05-06T10:48:33.564Z</time></trkpt><trkpt lat="37.9581691" lon="12.8295025"><ele>195.99999999999997</ele><time>2026-05-06T10:48:34.564Z</time></trkpt><trkpt lat="37.9581255" lon="12.8294356"><ele>196.0</ele><time>2026-05-06T10:48:35.564Z</time></trkpt><trkpt lat="37.9580469" lon="12.8293093"><ele>196.0</ele><time>2026-05-06T10:48:37.57Z</time></trkpt><trkpt lat="37.9580087" lon="12.8292356"><ele>196.0</ele><time>2026-05-06T10:48:38.564Z</time></trkpt><trkpt lat="37.9579683" lon="12.8291522"><ele>195.99999999999997</ele><time>2026-05-06T10:48:39.565Z</time></trkpt><trkpt lat="37.9579269" lon="12.8290662"><ele>196.0</ele><time>2026-05-06T10:48:40.565Z</time></trkpt><trkpt lat="37.9578881" lon="12.8289752"><ele>196.83333333333331</ele><time>2026-05-06T10:48:41.564Z</time></trkpt><trkpt lat="37.9578499" lon="12.8288844"><ele>197.66666666666666</ele><time>2026-05-06T10:48:42.565Z</time></trkpt><trkpt lat="37.9578087" lon="12.8287955"><ele>198.5</ele><time>2026-05-06T10:48:43.566Z</time></trkpt><trkpt lat="37.9577683" lon="12.8287097"><ele>199.33333333333331</ele><time>2026-05-06T10:48:44.565Z</time></trkpt><trkpt lat="37.9577268" lon="12.8286218"><ele>200.16666666666666</ele><time>2026-05-06T10:48:45.564Z</time></trkpt><trkpt lat="37.957685" lon="12.8285293"><ele>201.0</ele><time>2026-05-06T10:48:46.563Z</time></trkpt><trkpt lat="37.9576417" lon="12.8284384"><ele>202.5</ele><time>2026-05-06T10:48:47.564Z</time></trkpt><trkpt lat="37.957594" lon="12.82835"><ele>204.0</ele><time>2026-05-06T10:48:48.563Z</time></trkpt><trkpt lat="37.9575424" lon="12.8282595"><ele>205.5</ele><time>2026-05-06T10:48:49.564Z</time></trkpt><trkpt lat="37.9574916" lon="12.8281659"><ele>207.0</ele><time>2026-05-06T10:48:50.565Z</time></trkpt><trkpt lat="37.9574442" lon="12.8280725"><ele>208.5</ele><time>2026-05-06T10:48:51.564Z</time></trkpt><trkpt lat="37.9573964" lon="12.8279817"><ele>210.0</ele><time>2026-05-06T10:48:52.563Z</time></trkpt><trkpt lat="37.9573521" lon="12.8278928"><ele>210.0</ele><time>2026-05-06T10:48:53.565Z</time></trkpt><trkpt lat="37.9573076" lon="12.8278015"><ele>210.0</ele><time>2026-05-06T10:48:54.565Z</time></trkpt><trkpt lat="37.9572656" lon="12.8277068"><ele>210.0</ele><time>2026-05-06T10:48:55.564Z</time></trkpt><trkpt lat="37.9572267" lon="12.827615"><ele>210.0</ele><time>2026-05-06T10:48:56.566Z</time></trkpt><trkpt lat="37.9571867" lon="12.8275233"><ele>210.0</ele><time>2026-05-06T10:48:57.564Z</time></trkpt><trkpt lat="37.957145" lon="12.82743"><ele>210.0</ele><time>2026-05-06T10:48:58.565Z</time></trkpt><trkpt lat="37.9570983" lon="12.827335"><ele>211.33333333333334</ele><time>2026-05-06T10:48:59.564Z</time></trkpt><trkpt lat="37.95705" lon="12.8272467"><ele>212.66666666666669</ele><time>2026-05-06T10:49:00.565Z</time></trkpt><trkpt lat="37.9569983" lon="12.827165"><ele>214.0</ele><time>2026-05-06T10:49:01.564Z</time></trkpt><trkpt lat="37.9569517" lon="12.8270833"><ele>215.33333333333334</ele><time>2026-05-06T10:49:02.565Z</time></trkpt><trkpt lat="37.9569083" lon="12.826995"><ele>216.66666666666669</ele><time>2026-05-06T10:49:03.563Z</time></trkpt><trkpt lat="37.9568667" lon="12.8269083"><ele>218.0</ele><time>2026-05-06T10:49:04.564Z</time></trkpt><trkpt lat="37.9568233" lon="12.8268217"><ele>220.16666666666669</ele><time>2026-05-06T10:49:05.564Z</time></trkpt><trkpt lat="37.95678" lon="12.82673"><ele>222.33333333333334</ele><time>2026-05-06T10:49:06.564Z</time></trkpt><trkpt lat="37.9567417" lon="12.8266383"><ele>224.5</ele><time>2026-05-06T10:49:07.565Z</time></trkpt><trkpt lat="37.95671" lon="12.826545"><ele>226.66666666666669</ele><time>2026-05-06T10:49:08.565Z</time></trkpt><trkpt lat="37.9566817" lon="12.8264483"><ele>228.83333333333334</ele><time>2026-05-06T10:49:09.566Z</time></trkpt><trkpt lat="37.9566533" lon="12.82635"><ele>231.0</ele><time>2026-05-06T10:49:10.564Z</time></trkpt><trkpt lat="37.9566217" lon="12.8262483"><ele>231.0</ele><time>2026-05-06T10:49:11.564Z</time></trkpt><trkpt lat="37.956595" lon="12.8261567"><ele>231.0</ele><time>2026-05-06T10:49:12.564Z</time></trkpt><trkpt lat="37.9565633" lon="12.826085"><ele>231.0</ele><time>2026-05-06T10:49:13.564Z</time></trkpt><trkpt lat="37.95649" lon="12.82606"><ele>231.0</ele><time>2026-05-06T10:49:15.564Z</time></trkpt><trkpt lat="37.9563933" lon="12.8261583"><ele>231.0</ele><time>2026-05-06T10:49:17.564Z</time></trkpt><trkpt lat="37.95633" lon="12.8262217"><ele>231.0</ele><time>2026-05-06T10:49:18.564Z</time></trkpt><trkpt lat="37.9562633" lon="12.8262817"><ele>231.0</ele><time>2026-05-06T10:49:19.564Z</time></trkpt><trkpt lat="37.9562" lon="12.82634"><ele>231.0</ele><time>2026-05-06T10:49:20.564Z</time></trkpt><trkpt lat="37.95613" lon="12.8263967"><ele>231.0</ele><time>2026-05-06T10:49:21.564Z</time></trkpt><trkpt lat="37.95606" lon="12.826455"><ele>231.0</ele><time>2026-05-06T10:49:22.565Z</time></trkpt><trkpt lat="37.9559933" lon="12.8265133"><ele>231.0</ele><time>2026-05-06T10:49:23.565Z</time></trkpt><trkpt lat="37.9559267" lon="12.8265733"><ele>231.0</ele><time>2026-05-06T10:49:24.564Z</time></trkpt><trkpt lat="37.9558617" lon="12.8266383"><ele>232.33333333333334</ele><time>2026-05-06T10:49:25.564Z</time></trkpt><trkpt lat="37.9557933" lon="12.8266983"><ele>233.66666666666669</ele><time>2026-05-06T10:49:26.567Z</time></trkpt><trkpt lat="37.9557217" lon="12.82676"><ele>235.0</ele><time>2026-05-06T10:49:27.564Z</time></trkpt><trkpt lat="37.9556517" lon="12.82682"><ele>236.33333333333334</ele><time>2026-05-06T10:49:28.564Z</time></trkpt><trkpt lat="37.9555833" lon="12.8268767"><ele>237.66666666666669</ele><time>2026-05-06T10:49:29.563Z</time></trkpt><trkpt lat="37.9555233" lon="12.8269233"><ele>239.0</ele><time>2026-05-06T10:49:30.565Z</time></trkpt><trkpt lat="37.9554283" lon="12.82696"><ele>239.0</ele><time>2026-05-06T10:49:32.565Z</time></trkpt><trkpt lat="37.9553917" lon="12.8268533"><ele>238.99999999999997</ele><time>2026-05-06T10:49:35.563Z</time></trkpt><trkpt lat="37.955405" lon="12.82675"><ele>238.99999999999997</ele><time>2026-05-06T10:49:37.565Z</time></trkpt><trkpt lat="37.9553367" lon="12.8266967"><ele>239.0</ele><time>2026-05-06T10:49:40.564Z</time></trkpt><trkpt lat="37.95525" lon="12.82677"><ele>239.0</ele><time>2026-05-06T10:49:42.564Z</time></trkpt><trkpt lat="37.9551533" lon="12.826865"><ele>239.0</ele><time>2026-05-06T10:49:44.565Z</time></trkpt><trkpt lat="37.9550883" lon="12.82697"><ele>238.99999999999997</ele><time>2026-05-06T10:49:46.564Z</time></trkpt><trkpt lat="37.9550717" lon="12.82709"><ele>238.99999999999997</ele><time>2026-05-06T10:49:48.565Z</time></trkpt><trkpt lat="37.9550683" lon="12.8272133"><ele>239.0</ele><time>2026-05-06T10:49:50.565Z</time></trkpt><trkpt lat="37.95504" lon="12.8273367"><ele>239.0</ele><time>2026-05-06T10:49:52.562Z</time></trkpt><trkpt lat="37.9549567" lon="12.8274333"><ele>240.00000000000003</ele><time>2026-05-06T10:49:54.564Z</time></trkpt><trkpt lat="37.954895" lon="12.8274817"><ele>241.0</ele><time>2026-05-06T10:49:55.564Z</time></trkpt><trkpt lat="37.9548267" lon="12.827535"><ele>242.0</ele><time>2026-05-06T10:49:56.564Z</time></trkpt><trkpt lat="37.9547567" lon="12.8275933"><ele>243.0</ele><time>2026-05-06T10:49:57.564Z</time></trkpt><trkpt lat="37.9546983" lon="12.8276583"><ele>244.00000000000003</ele><time>2026-05-06T10:49:58.563Z</time></trkpt><trkpt lat="37.95465" lon="12.8277283"><ele>245.0</ele><time>2026-05-06T10:49:59.563Z</time></trkpt><trkpt lat="37.9546117" lon="12.8278133"><ele>245.00000000000003</ele><time>2026-05-06T10:50:00.564Z</time></trkpt><trkpt lat="37.95458" lon="12.82791"><ele>245.0</ele><time>2026-05-06T10:50:01.563Z</time></trkpt><trkpt lat="37.9545567" lon="12.8280133"><ele>245.0</ele><time>2026-05-06T10:50:02.564Z</time></trkpt><trkpt lat="37.95454" lon="12.82812"><ele>245.0</ele><time>2026-05-06T10:50:03.564Z</time></trkpt><trkpt lat="37.9545233" lon="12.8282233"><ele>245.00000000000003</ele><time>2026-05-06T10:50:04.564Z</time></trkpt><trkpt lat="37.9545033" lon="12.828325"><ele>245.0</ele><time>2026-05-06T10:50:05.564Z</time></trkpt><trkpt lat="37.954485" lon="12.8284217"><ele>243.83333333333334</ele><time>2026-05-06T10:50:06.565Z</time></trkpt><trkpt lat="37.9544683" lon="12.82852"><ele>242.66666666666669</ele><time>2026-05-06T10:50:07.564Z</time></trkpt><trkpt lat="37.954445" lon="12.828615"><ele>241.5</ele><time>2026-05-06T10:50:08.563Z</time></trkpt><trkpt lat="37.9544183" lon="12.8287083"><ele>240.33333333333331</ele><time>2026-05-06T10:50:09.564Z</time></trkpt><trkpt lat="37.9543883" lon="12.8288017"><ele>239.16666666666666</ele><time>2026-05-06T10:50:10.565Z</time></trkpt><trkpt lat="37.9543567" lon="12.8289033"><ele>238.0</ele><time>2026-05-06T10:50:11.564Z</time></trkpt><trkpt lat="37.95432" lon="12.8290083"><ele>237.99999999999997</ele><time>2026-05-06T10:50:12.563Z</time></trkpt><trkpt lat="37.954275" lon="12.8291067"><ele>238.0</ele><time>2026-05-06T10:50:13.564Z</time></trkpt><trkpt lat="37.954225" lon="12.829195"><ele>238.0</ele><time>2026-05-06T10:50:14.567Z</time></trkpt><trkpt lat="37.954165" lon="12.8292717"><ele>238.0</ele><time>2026-05-06T10:50:15.565Z</time></trkpt><trkpt lat="37.9540883" lon="12.8293317"><ele>237.99999999999997</ele><time>2026-05-06T10:50:16.564Z</time></trkpt><trkpt lat="37.9540117" lon="12.8293917"><ele>238.0</ele><time>2026-05-06T10:50:17.564Z</time></trkpt><trkpt lat="37.9539267" lon="12.8294583"><ele>238.0</ele><time>2026-05-06T10:50:18.564Z</time></trkpt><trkpt lat="37.953835" lon="12.8295233"><ele>238.0</ele><time>2026-05-06T10:50:19.563Z</time></trkpt><trkpt lat="37.953735" lon="12.829585"><ele>238.0</ele><time>2026-05-06T10:50:20.565Z</time></trkpt><trkpt lat="37.9536333" lon="12.829645"><ele>238.0</ele><time>2026-05-06T10:50:21.564Z</time></trkpt><trkpt lat="37.953535" lon="12.8297083"><ele>238.0</ele><time>2026-05-06T10:50:22.565Z</time></trkpt><trkpt lat="37.95344" lon="12.82978"><ele>239.8</ele><time>2026-05-06T10:50:23.564Z</time></trkpt><trkpt lat="37.9533483" lon="12.8298517"><ele>241.60000000000002</ele><time>2026-05-06T10:50:24.563Z</time></trkpt><trkpt lat="37.9532583" lon="12.82992"><ele>243.39999999999998</ele><time>2026-05-06T10:50:25.563Z</time></trkpt><trkpt lat="37.9531683" lon="12.8299817"><ele>245.2</ele><time>2026-05-06T10:50:26.564Z</time></trkpt><trkpt lat="37.9530767" lon="12.8300467"><ele>247.0</ele><time>2026-05-06T10:50:27.564Z</time></trkpt><trkpt lat="37.9529867" lon="12.8301083"><ele>245.2</ele><time>2026-05-06T10:50:28.564Z</time></trkpt><trkpt lat="37.9528983" lon="12.8301733"><ele>243.39999999999998</ele><time>2026-05-06T10:50:29.564Z</time></trkpt><trkpt lat="37.952815" lon="12.830235"><ele>241.60000000000002</ele><time>2026-05-06T10:50:30.564Z</time></trkpt><trkpt lat="37.952735" lon="12.8302967"><ele>239.8</ele><time>2026-05-06T10:50:31.564Z</time></trkpt><trkpt lat="37.9526517" lon="12.8303567"><ele>238.0</ele><time>2026-05-06T10:50:32.565Z</time></trkpt><trkpt lat="37.95257" lon="12.8304167"><ele>240.2</ele><time>2026-05-06T10:50:33.564Z</time></trkpt><trkpt lat="37.9524867" lon="12.830475"><ele>242.4</ele><time>2026-05-06T10:50:34.564Z</time></trkpt><trkpt lat="37.9524" lon="12.83054"><ele>244.59999999999997</ele><time>2026-05-06T10:50:35.564Z</time></trkpt><trkpt lat="37.9523133" lon="12.830605"><ele>246.79999999999998</ele><time>2026-05-06T10:50:36.564Z</time></trkpt><trkpt lat="37.95223" lon="12.8306667"><ele>249.0</ele><time>2026-05-06T10:50:37.564Z</time></trkpt><trkpt lat="37.9521433" lon="12.83073"><ele>249.0</ele><time>2026-05-06T10:50:38.565Z</time></trkpt><trkpt lat="37.9520533" lon="12.8307933"><ele>248.99999999999997</ele><time>2026-05-06T10:50:39.564Z</time></trkpt><trkpt lat="37.951965" lon="12.8308567"><ele>248.99999999999997</ele><time>2026-05-06T10:50:40.565Z</time></trkpt><trkpt lat="37.9518783" lon="12.8309167"><ele>249.0</ele><time>2026-05-06T10:50:41.564Z</time></trkpt><trkpt lat="37.9518" lon="12.83097"><ele>249.0</ele><time>2026-05-06T10:50:42.564Z</time></trkpt><trkpt lat="37.95172" lon="12.8310283"><ele>248.6</ele><time>2026-05-06T10:50:43.564Z</time></trkpt><trkpt lat="37.951645" lon="12.8310983"><ele>248.2</ele><time>2026-05-06T10:50:44.565Z</time></trkpt><trkpt lat="37.95159" lon="12.8311883"><ele>247.79999999999998</ele><time>2026-05-06T10:50:45.564Z</time></trkpt><trkpt lat="37.9515517" lon="12.831295"><ele>247.39999999999998</ele><time>2026-05-06T10:50:46.564Z</time></trkpt><trkpt lat="37.9515167" lon="12.8314117"><ele>247.0</ele><time>2026-05-06T10:50:47.564Z</time></trkpt><trkpt lat="37.9514783" lon="12.8315267"><ele>246.99999999999997</ele><time>2026-05-06T10:50:48.564Z</time></trkpt><trkpt lat="37.9514383" lon="12.8316317"><ele>247.0</ele><time>2026-05-06T10:50:49.564Z</time></trkpt><trkpt lat="37.9513967" lon="12.831725"><ele>247.0</ele><time>2026-05-06T10:50:50.565Z</time></trkpt><trkpt lat="37.9513517" lon="12.831805"><ele>247.0</ele><time>2026-05-06T10:50:51.564Z</time></trkpt><trkpt lat="37.95129" lon="12.83186"><ele>246.99999999999997</ele><time>2026-05-06T10:50:52.564Z</time></trkpt><trkpt lat="37.951225" lon="12.8319033"><ele>247.0</ele><time>2026-05-06T10:50:53.564Z</time></trkpt><trkpt lat="37.9511567" lon="12.8319333"><ele>246.99999999999997</ele><time>2026-05-06T10:50:54.562Z</time></trkpt><trkpt lat="37.951055" lon="12.831935"><ele>247.0</ele><time>2026-05-06T10:50:56.563Z</time></trkpt><trkpt lat="37.951005" lon="12.83184"><ele>247.0</ele><time>2026-05-06T10:50:58.564Z</time></trkpt><trkpt lat="37.95098" lon="12.8317533"><ele>247.0</ele><time>2026-05-06T10:50:59.563Z</time></trkpt><trkpt lat="37.9509533" lon="12.8316583"><ele>246.99999999999997</ele><time>2026-05-06T10:51:00.564Z</time></trkpt><trkpt lat="37.9509283" lon="12.831555"><ele>247.0</ele><time>2026-05-06T10:51:01.564Z</time></trkpt><trkpt lat="37.9509017" lon="12.831445"><ele>246.8</ele><time>2026-05-06T10:51:02.565Z</time></trkpt><trkpt lat="37.9508733" lon="12.831335"><ele>246.6</ele><time>2026-05-06T10:51:03.565Z</time></trkpt><trkpt lat="37.95084" lon="12.8312217"><ele>246.40000000000003</ele><time>2026-05-06T10:51:04.565Z</time></trkpt><trkpt lat="37.9508067" lon="12.831105"><ele>246.20000000000002</ele><time>2026-05-06T10:51:05.564Z</time></trkpt><trkpt lat="37.95077" lon="12.8309833"><ele>246.0</ele><time>2026-05-06T10:51:06.563Z</time></trkpt><trkpt lat="37.9507317" lon="12.8308583"><ele>247.0</ele><time>2026-05-06T10:51:07.565Z</time></trkpt><trkpt lat="37.9506967" lon="12.8307333"><ele>248.00000000000003</ele><time>2026-05-06T10:51:08.565Z</time></trkpt><trkpt lat="37.95066" lon="12.8306067"><ele>249.00000000000003</ele><time>2026-05-06T10:51:09.563Z</time></trkpt><trkpt lat="37.9506267" lon="12.8304833"><ele>250.0</ele><time>2026-05-06T10:51:10.564Z</time></trkpt><trkpt lat="37.9505933" lon="12.8303667"><ele>251.0</ele><time>2026-05-06T10:51:11.565Z</time></trkpt><trkpt lat="37.9505633" lon="12.8302533"><ele>251.60000000000002</ele><time>2026-05-06T10:51:12.563Z</time></trkpt><trkpt lat="37.9505383" lon="12.8301367"><ele>252.20000000000002</ele><time>2026-05-06T10:51:13.564Z</time></trkpt><trkpt lat="37.950515" lon="12.8300117"><ele>252.79999999999998</ele><time>2026-05-06T10:51:14.565Z</time></trkpt><trkpt lat="37.9504917" lon="12.82988"><ele>253.39999999999998</ele><time>2026-05-06T10:51:15.563Z</time></trkpt><trkpt lat="37.9504717" lon="12.8297533"><ele>254.0</ele><time>2026-05-06T10:51:16.565Z</time></trkpt><trkpt lat="37.9504533" lon="12.8296333"><ele>254.0</ele><time>2026-05-06T10:51:17.564Z</time></trkpt><trkpt lat="37.950435" lon="12.8295167"><ele>253.99999999999997</ele><time>2026-05-06T10:51:18.563Z</time></trkpt><trkpt lat="37.95042" lon="12.829405"><ele>253.99999999999997</ele><time>2026-05-06T10:51:19.564Z</time></trkpt><trkpt lat="37.950405" lon="12.829295"><ele>254.0</ele><time>2026-05-06T10:51:20.565Z</time></trkpt><trkpt lat="37.95039" lon="12.8291817"><ele>254.0</ele><time>2026-05-06T10:51:21.564Z</time></trkpt><trkpt lat="37.950375" lon="12.82906"><ele>254.0</ele><time>2026-05-06T10:51:22.564Z</time></trkpt><trkpt lat="37.9503567" lon="12.828935"><ele>253.99999999999997</ele><time>2026-05-06T10:51:23.564Z</time></trkpt><trkpt lat="37.9503367" lon="12.8288183"><ele>253.99999999999997</ele><time>2026-05-06T10:51:24.568Z</time></trkpt><trkpt lat="37.95032" lon="12.8287067"><ele>254.0</ele><time>2026-05-06T10:51:25.564Z</time></trkpt><trkpt lat="37.950305" lon="12.8286"><ele>254.0</ele><time>2026-05-06T10:51:26.565Z</time></trkpt><trkpt lat="37.9502967" lon="12.8284867"><ele>254.0</ele><time>2026-05-06T10:51:27.564Z</time></trkpt><trkpt lat="37.9503067" lon="12.8283667"><ele>253.99999999999997</ele><time>2026-05-06T10:51:28.566Z</time></trkpt><trkpt lat="37.9503283" lon="12.8282467"><ele>253.99999999999997</ele><time>2026-05-06T10:51:29.565Z</time></trkpt><trkpt lat="37.9503567" lon="12.8281267"><ele>254.0</ele><time>2026-05-06T10:51:30.565Z</time></trkpt><trkpt lat="37.9503883" lon="12.8280033"><ele>254.0</ele><time>2026-05-06T10:51:31.563Z</time></trkpt><trkpt lat="37.95042" lon="12.8278817"><ele>254.0</ele><time>2026-05-06T10:51:32.566Z</time></trkpt><trkpt lat="37.9504467" lon="12.8277667"><ele>253.99999999999997</ele><time>2026-05-06T10:51:33.565Z</time></trkpt><trkpt lat="37.9504633" lon="12.8276583"><ele>253.99999999999997</ele><time>2026-05-06T10:51:34.565Z</time></trkpt><trkpt lat="37.9504667" lon="12.8275483"><ele>254.0</ele><time>2026-05-06T10:51:35.564Z</time></trkpt><trkpt lat="37.9504567" lon="12.82743"><ele>254.0</ele><time>2026-05-06T10:51:36.565Z</time></trkpt><trkpt lat="37.95044" lon="12.827305"><ele>253.2</ele><time>2026-05-06T10:51:37.566Z</time></trkpt><trkpt lat="37.95042" lon="12.8271717"><ele>252.39999999999998</ele><time>2026-05-06T10:51:38.564Z</time></trkpt><trkpt lat="37.9503967" lon="12.827035"><ele>251.6</ele><time>2026-05-06T10:51:39.564Z</time></trkpt><trkpt lat="37.9503733" lon="12.826895"><ele>250.8</ele><time>2026-05-06T10:51:40.564Z</time></trkpt><trkpt lat="37.9503533" lon="12.826755"><ele>250.0</ele><time>2026-05-06T10:51:41.565Z</time></trkpt><trkpt lat="37.9503383" lon="12.8266283"><ele>249.4</ele><time>2026-05-06T10:51:42.565Z</time></trkpt><trkpt lat="37.95032" lon="12.8265033"><ele>248.8</ele><time>2026-05-06T10:51:43.565Z</time></trkpt><trkpt lat="37.9503" lon="12.8263733"><ele>248.2</ele><time>2026-05-06T10:51:44.565Z</time></trkpt><trkpt lat="37.95028" lon="12.8262383"><ele>247.6</ele><time>2026-05-06T10:51:45.565Z</time></trkpt><trkpt lat="37.9502617" lon="12.826105"><ele>247.0</ele><time>2026-05-06T10:51:46.565Z</time></trkpt><trkpt lat="37.9502433" lon="12.8259817"><ele>246.99999999999997</ele><time>2026-05-06T10:51:47.563Z</time></trkpt><trkpt lat="37.9502217" lon="12.8258683"><ele>247.0</ele><time>2026-05-06T10:51:48.565Z</time></trkpt><trkpt lat="37.9502017" lon="12.825765"><ele>247.0</ele><time>2026-05-06T10:51:49.565Z</time></trkpt><trkpt lat="37.9501733" lon="12.8256667"><ele>247.0</ele><time>2026-05-06T10:51:50.566Z</time></trkpt><trkpt lat="37.9501333" lon="12.825575"><ele>246.99999999999997</ele><time>2026-05-06T10:51:51.565Z</time></trkpt><trkpt lat="37.9500817" lon="12.8254883"><ele>247.0</ele><time>2026-05-06T10:51:52.565Z</time></trkpt><trkpt lat="37.9500233" lon="12.8254117"><ele>246.83333333333331</ele><time>2026-05-06T10:51:53.565Z</time></trkpt><trkpt lat="37.94997" lon="12.82533"><ele>246.66666666666666</ele><time>2026-05-06T10:51:54.564Z</time></trkpt><trkpt lat="37.9499283" lon="12.8252317"><ele>246.5</ele><time>2026-05-06T10:51:55.565Z</time></trkpt><trkpt lat="37.9499083" lon="12.8251167"><ele>246.33333333333331</ele><time>2026-05-06T10:51:56.567Z</time></trkpt><trkpt lat="37.9499033" lon="12.8250067"><ele>246.16666666666666</ele><time>2026-05-06T10:51:57.564Z</time></trkpt><trkpt lat="37.9499" lon="12.82491"><ele>246.0</ele><time>2026-05-06T10:51:58.564Z</time></trkpt><trkpt lat="37.9498967" lon="12.82483"><ele>246.0</ele><time>2026-05-06T10:51:59.565Z</time></trkpt><trkpt lat="37.9498733" lon="12.8247317"><ele>246.0</ele><time>2026-05-06T10:52:01.565Z</time></trkpt><trkpt lat="37.9497983" lon="12.8247533"><ele>246.0</ele><time>2026-05-06T10:52:04.566Z</time></trkpt><trkpt lat="37.949775" lon="12.8248917"><ele>246.0</ele><time>2026-05-06T10:52:06.566Z</time></trkpt><trkpt lat="37.9497783" lon="12.8249917"><ele>246.0</ele><time>2026-05-06T10:52:07.565Z</time></trkpt><trkpt lat="37.9497767" lon="12.8251017"><ele>246.0</ele><time>2026-05-06T10:52:08.565Z</time></trkpt><trkpt lat="37.94977" lon="12.82523"><ele>246.0</ele><time>2026-05-06T10:52:09.565Z</time></trkpt><trkpt lat="37.9497683" lon="12.8253717"><ele>246.0</ele><time>2026-05-06T10:52:10.565Z</time></trkpt><trkpt lat="37.9497667" lon="12.8255167"><ele>246.0</ele><time>2026-05-06T10:52:11.564Z</time></trkpt><trkpt lat="37.949765" lon="12.8256633"><ele>246.0</ele><time>2026-05-06T10:52:12.565Z</time></trkpt><trkpt lat="37.9497617" lon="12.8258167"><ele>246.0</ele><time>2026-05-06T10:52:13.565Z</time></trkpt><trkpt lat="37.9497583" lon="12.8259767"><ele>246.0</ele><time>2026-05-06T10:52:14.566Z</time></trkpt><trkpt lat="37.94975" lon="12.8261417"><ele>246.0</ele><time>2026-05-06T10:52:15.565Z</time></trkpt><trkpt lat="37.9497317" lon="12.8263083"><ele>246.0</ele><time>2026-05-06T10:52:16.564Z</time></trkpt><trkpt lat="37.9497067" lon="12.8264667"><ele>245.75</ele><time>2026-05-06T10:52:17.566Z</time></trkpt><trkpt lat="37.94968" lon="12.826615"><ele>245.5</ele><time>2026-05-06T10:52:18.565Z</time></trkpt><trkpt lat="37.9496517" lon="12.826755"><ele>245.25</ele><time>2026-05-06T10:52:19.565Z</time></trkpt><trkpt lat="37.9496217" lon="12.82689"><ele>245.0</ele><time>2026-05-06T10:52:20.566Z</time></trkpt><trkpt lat="37.9495933" lon="12.827025"><ele>244.75</ele><time>2026-05-06T10:52:21.565Z</time></trkpt><trkpt lat="37.949555" lon="12.827155"><ele>244.5</ele><time>2026-05-06T10:52:22.565Z</time></trkpt><trkpt lat="37.9495067" lon="12.8272867"><ele>244.25</ele><time>2026-05-06T10:52:23.564Z</time></trkpt><trkpt lat="37.9494517" lon="12.8274133"><ele>244.0</ele><time>2026-05-06T10:52:24.564Z</time></trkpt><trkpt lat="37.94939" lon="12.827535"><ele>244.0</ele><time>2026-05-06T10:52:25.565Z</time></trkpt><trkpt lat="37.9493283" lon="12.8276433"><ele>243.99999999999997</ele><time>2026-05-06T10:52:26.566Z</time></trkpt><trkpt lat="37.9492683" lon="12.827745"><ele>243.99999999999997</ele><time>2026-05-06T10:52:27.565Z</time></trkpt><trkpt lat="37.9492167" lon="12.8278467"><ele>244.0</ele><time>2026-05-06T10:52:28.565Z</time></trkpt><trkpt lat="37.9491783" lon="12.82795"><ele>244.0</ele><time>2026-05-06T10:52:29.565Z</time></trkpt><trkpt lat="37.949155" lon="12.8280583"><ele>244.83333333333331</ele><time>2026-05-06T10:52:30.566Z</time></trkpt><trkpt lat="37.9491483" lon="12.828165"><ele>245.66666666666666</ele><time>2026-05-06T10:52:31.565Z</time></trkpt><trkpt lat="37.94915" lon="12.8282667"><ele>246.5</ele><time>2026-05-06T10:52:32.565Z</time></trkpt><trkpt lat="37.94915" lon="12.8283633"><ele>247.33333333333331</ele><time>2026-05-06T10:52:33.565Z</time></trkpt><trkpt lat="37.9491433" lon="12.8284517"><ele>248.16666666666666</ele><time>2026-05-06T10:52:34.565Z</time></trkpt><trkpt lat="37.94912" lon="12.8285283"><ele>249.0</ele><time>2026-05-06T10:52:35.564Z</time></trkpt><trkpt lat="37.949025" lon="12.828635"><ele>249.0</ele><time>2026-05-06T10:52:37.565Z</time></trkpt><trkpt lat="37.9489583" lon="12.8286767"><ele>249.0</ele><time>2026-05-06T10:52:38.566Z</time></trkpt><trkpt lat="37.9488833" lon="12.82872"><ele>249.0</ele><time>2026-05-06T10:52:39.566Z</time></trkpt><trkpt lat="37.9488067" lon="12.8287533"><ele>249.0</ele><time>2026-05-06T10:52:40.566Z</time></trkpt><trkpt lat="37.948725" lon="12.8287933"><ele>249.0</ele><time>2026-05-06T10:52:41.565Z</time></trkpt><trkpt lat="37.94864" lon="12.82883"><ele>249.0</ele><time>2026-05-06T10:52:42.564Z</time></trkpt><trkpt lat="37.94856" lon="12.828885"><ele>249.0</ele><time>2026-05-06T10:52:43.564Z</time></trkpt><trkpt lat="37.9484933" lon="12.828955"><ele>249.0</ele><time>2026-05-06T10:52:44.566Z</time></trkpt><trkpt lat="37.948445" lon="12.829035"><ele>249.0</ele><time>2026-05-06T10:52:45.565Z</time></trkpt><trkpt lat="37.9484167" lon="12.8291117"><ele>249.0</ele><time>2026-05-06T10:52:46.565Z</time></trkpt><trkpt lat="37.9483867" lon="12.829225"><ele>249.0</ele><time>2026-05-06T10:52:48.565Z</time></trkpt><trkpt lat="37.94834" lon="12.8292833"><ele>249.0</ele><time>2026-05-06T10:52:50.565Z</time></trkpt><trkpt lat="37.9482467" lon="12.82927"><ele>250.2</ele><time>2026-05-06T10:52:53.566Z</time></trkpt><trkpt lat="37.9481817" lon="12.8292017"><ele>251.39999999999998</ele><time>2026-05-06T10:52:55.565Z</time></trkpt><trkpt lat="37.9481017" lon="12.8291083"><ele>252.6</ele><time>2026-05-06T10:52:57.564Z</time></trkpt><trkpt lat="37.9480167" lon="12.8290067"><ele>253.8</ele><time>2026-05-06T10:52:59.565Z</time></trkpt><trkpt lat="37.947925" lon="12.82891"><ele>255.0</ele><time>2026-05-06T10:53:01.564Z</time></trkpt><trkpt lat="37.94783" lon="12.8288133"><ele>255.0</ele><time>2026-05-06T10:53:03.565Z</time></trkpt><trkpt lat="37.947735" lon="12.8287117"><ele>255.0</ele><time>2026-05-06T10:53:05.563Z</time></trkpt><trkpt lat="37.9476867" lon="12.8286583"><ele>255.0</ele><time>2026-05-06T10:53:06.565Z</time></trkpt><trkpt lat="37.947635" lon="12.828605"><ele>255.0</ele><time>2026-05-06T10:53:07.564Z</time></trkpt><trkpt lat="37.9475817" lon="12.8285517"><ele>255.0</ele><time>2026-05-06T10:53:08.566Z</time></trkpt><trkpt lat="37.9475283" lon="12.828495"><ele>255.0</ele><time>2026-05-06T10:53:09.565Z</time></trkpt><trkpt lat="37.9474733" lon="12.828435"><ele>257.1666666666667</ele><time>2026-05-06T10:53:10.566Z</time></trkpt><trkpt lat="37.947415" lon="12.8283733"><ele>259.3333333333333</ele><time>2026-05-06T10:53:11.564Z</time></trkpt><trkpt lat="37.9473567" lon="12.8283067"><ele>261.5</ele><time>2026-05-06T10:53:12.565Z</time></trkpt><trkpt lat="37.9472967" lon="12.8282367"><ele>263.66666666666663</ele><time>2026-05-06T10:53:13.566Z</time></trkpt><trkpt lat="37.947235" lon="12.8281683"><ele>265.8333333333333</ele><time>2026-05-06T10:53:14.565Z</time></trkpt><trkpt lat="37.9471717" lon="12.8280967"><ele>268.0</ele><time>2026-05-06T10:53:15.565Z</time></trkpt><trkpt lat="37.947105" lon="12.828025"><ele>268.0</ele><time>2026-05-06T10:53:16.566Z</time></trkpt><trkpt lat="37.94704" lon="12.8279533"><ele>268.0</ele><time>2026-05-06T10:53:17.564Z</time></trkpt><trkpt lat="37.9469767" lon="12.827885"><ele>268.0</ele><time>2026-05-06T10:53:18.564Z</time></trkpt><trkpt lat="37.946915" lon="12.8278167"><ele>268.0</ele><time>2026-05-06T10:53:19.566Z</time></trkpt><trkpt lat="37.9468517" lon="12.82775"><ele>268.0</ele><time>2026-05-06T10:53:20.566Z</time></trkpt><trkpt lat="37.9467917" lon="12.827685"><ele>268.0</ele><time>2026-05-06T10:53:21.565Z</time></trkpt><trkpt lat="37.9467333" lon="12.82762"><ele>270.5</ele><time>2026-05-06T10:53:22.565Z</time></trkpt><trkpt lat="37.946675" lon="12.8275567"><ele>273.0</ele><time>2026-05-06T10:53:23.565Z</time></trkpt><trkpt lat="37.9466167" lon="12.827495"><ele>275.5</ele><time>2026-05-06T10:53:24.565Z</time></trkpt><trkpt lat="37.9465567" lon="12.8274317"><ele>278.0</ele><time>2026-05-06T10:53:25.563Z</time></trkpt><trkpt lat="37.9465" lon="12.8273667"><ele>280.5</ele><time>2026-05-06T10:53:26.565Z</time></trkpt><trkpt lat="37.946445" lon="12.8273033"><ele>283.0</ele><time>2026-05-06T10:53:27.563Z</time></trkpt><trkpt lat="37.9463917" lon="12.82724"><ele>283.0</ele><time>2026-05-06T10:53:28.563Z</time></trkpt><trkpt lat="37.9463367" lon="12.8271783"><ele>283.0</ele><time>2026-05-06T10:53:29.566Z</time></trkpt><trkpt lat="37.94628" lon="12.8271183"><ele>283.0</ele><time>2026-05-06T10:53:30.564Z</time></trkpt><trkpt lat="37.9462233" lon="12.827055"><ele>283.0</ele><time>2026-05-06T10:53:31.564Z</time></trkpt><trkpt lat="37.946165" lon="12.82699"><ele>283.0</ele><time>2026-05-06T10:53:32.564Z</time></trkpt><trkpt lat="37.9461017" lon="12.826925"><ele>283.0</ele><time>2026-05-06T10:53:33.565Z</time></trkpt><trkpt lat="37.9460333" lon="12.8268533"><ele>284.8</ele><time>2026-05-06T10:53:34.564Z</time></trkpt><trkpt lat="37.9459617" lon="12.826775"><ele>286.6</ele><time>2026-05-06T10:53:35.564Z</time></trkpt><trkpt lat="37.945885" lon="12.8266917"><ele>288.4</ele><time>2026-05-06T10:53:36.565Z</time></trkpt><trkpt lat="37.9458083" lon="12.8266083"><ele>290.2</ele><time>2026-05-06T10:53:37.565Z</time></trkpt><trkpt lat="37.9457317" lon="12.8265267"><ele>292.0</ele><time>2026-05-06T10:53:38.566Z</time></trkpt><trkpt lat="37.9456567" lon="12.8264467"><ele>294.4</ele><time>2026-05-06T10:53:39.565Z</time></trkpt><trkpt lat="37.9455833" lon="12.8263667"><ele>296.79999999999995</ele><time>2026-05-06T10:53:40.565Z</time></trkpt><trkpt lat="37.9455133" lon="12.8262883"><ele>299.2</ele><time>2026-05-06T10:53:41.565Z</time></trkpt><trkpt lat="37.945445" lon="12.82621"><ele>301.59999999999997</ele><time>2026-05-06T10:53:42.566Z</time></trkpt><trkpt lat="37.9453767" lon="12.8261333"><ele>304.0</ele><time>2026-05-06T10:53:43.564Z</time></trkpt><trkpt lat="37.9453033" lon="12.8260633"><ele>304.0</ele><time>2026-05-06T10:53:44.565Z</time></trkpt><trkpt lat="37.9452283" lon="12.8260083"><ele>304.0</ele><time>2026-05-06T10:53:45.563Z</time></trkpt><trkpt lat="37.9451517" lon="12.825975"><ele>304.0</ele><time>2026-05-06T10:53:46.565Z</time></trkpt><trkpt lat="37.9450683" lon="12.8259683"><ele>304.0</ele><time>2026-05-06T10:53:47.564Z</time></trkpt><trkpt lat="37.9449883" lon="12.8259933"><ele>304.0</ele><time>2026-05-06T10:53:48.565Z</time></trkpt><trkpt lat="37.944905" lon="12.8260433"><ele>304.0</ele><time>2026-05-06T10:53:49.566Z</time></trkpt><trkpt lat="37.9448167" lon="12.8260867"><ele>306.4</ele><time>2026-05-06T10:53:50.565Z</time></trkpt><trkpt lat="37.944725" lon="12.8261333"><ele>308.79999999999995</ele><time>2026-05-06T10:53:51.565Z</time></trkpt><trkpt lat="37.9446333" lon="12.8261717"><ele>311.20000000000005</ele><time>2026-05-06T10:53:52.566Z</time></trkpt><trkpt lat="37.9445383" lon="12.8262133"><ele>313.6</ele><time>2026-05-06T10:53:53.565Z</time></trkpt><trkpt lat="37.94444" lon="12.8262567"><ele>316.0</ele><time>2026-05-06T10:53:54.565Z</time></trkpt><trkpt lat="37.944345" lon="12.826305"><ele>316.0</ele><time>2026-05-06T10:53:55.565Z</time></trkpt><trkpt lat="37.9442467" lon="12.8263617"><ele>316.0</ele><time>2026-05-06T10:53:56.564Z</time></trkpt><trkpt lat="37.9441517" lon="12.8264367"><ele>316.0</ele><time>2026-05-06T10:53:57.565Z</time></trkpt><trkpt lat="37.9440567" lon="12.8265267"><ele>316.0</ele><time>2026-05-06T10:53:58.564Z</time></trkpt><trkpt lat="37.9439617" lon="12.8266217"><ele>315.75</ele><time>2026-05-06T10:53:59.564Z</time></trkpt><trkpt lat="37.94387" lon="12.8267217"><ele>315.5</ele><time>2026-05-06T10:54:00.566Z</time></trkpt><trkpt lat="37.9437783" lon="12.8268083"><ele>315.25</ele><time>2026-05-06T10:54:01.564Z</time></trkpt><trkpt lat="37.9436883" lon="12.8268983"><ele>315.0</ele><time>2026-05-06T10:54:02.564Z</time></trkpt><trkpt lat="37.9436017" lon="12.8269833"><ele>315.0</ele><time>2026-05-06T10:54:03.564Z</time></trkpt><trkpt lat="37.9435133" lon="12.827065"><ele>315.0</ele><time>2026-05-06T10:54:04.565Z</time></trkpt><trkpt lat="37.9434283" lon="12.8271367"><ele>315.0</ele><time>2026-05-06T10:54:05.563Z</time></trkpt><trkpt lat="37.9433417" lon="12.8271933"><ele>315.0</ele><time>2026-05-06T10:54:06.564Z</time></trkpt><trkpt lat="37.943255" lon="12.8272417"><ele>315.0</ele><time>2026-05-06T10:54:07.564Z</time></trkpt><trkpt lat="37.9431617" lon="12.8273"><ele>316.8</ele><time>2026-05-06T10:54:08.565Z</time></trkpt><trkpt lat="37.9430633" lon="12.827365"><ele>318.6</ele><time>2026-05-06T10:54:09.564Z</time></trkpt><trkpt lat="37.9429717" lon="12.8274283"><ele>320.4</ele><time>2026-05-06T10:54:10.564Z</time></trkpt><trkpt lat="37.9428833" lon="12.8274867"><ele>322.2</ele><time>2026-05-06T10:54:11.565Z</time></trkpt><trkpt lat="37.9427967" lon="12.8275283"><ele>324.0</ele><time>2026-05-06T10:54:12.565Z</time></trkpt><trkpt lat="37.94271" lon="12.827555"><ele>324.0</ele><time>2026-05-06T10:54:13.564Z</time></trkpt><trkpt lat="37.942625" lon="12.8275667"><ele>324.0</ele><time>2026-05-06T10:54:14.565Z</time></trkpt><trkpt lat="37.9425433" lon="12.827565"><ele>324.0</ele><time>2026-05-06T10:54:15.565Z</time></trkpt><trkpt lat="37.94247" lon="12.8275567"><ele>324.0</ele><time>2026-05-06T10:54:16.564Z</time></trkpt><trkpt lat="37.94236" lon="12.8275467"><ele>324.0</ele><time>2026-05-06T10:54:18.566Z</time></trkpt><trkpt lat="37.9422917" lon="12.8275483"><ele>324.0</ele><time>2026-05-06T11:07:17.564Z</time></trkpt><trkpt lat="37.94221" lon="12.8275183"><ele>327.4</ele><time>2026-05-06T11:07:19.565Z</time></trkpt><trkpt lat="37.9421133" lon="12.8274817"><ele>330.79999999999995</ele><time>2026-05-06T11:07:21.564Z</time></trkpt><trkpt lat="37.94201" lon="12.8274433"><ele>334.20000000000005</ele><time>2026-05-06T11:07:23.565Z</time></trkpt><trkpt lat="37.9418867" lon="12.8274"><ele>337.6</ele><time>2026-05-06T11:07:25.564Z</time></trkpt><trkpt lat="37.9418133" lon="12.82738"><ele>341.0</ele><time>2026-05-06T11:07:26.564Z</time></trkpt><trkpt lat="37.94174" lon="12.827365"><ele>340.83333333333337</ele><time>2026-05-06T11:07:27.565Z</time></trkpt><trkpt lat="37.9416717" lon="12.8273567"><ele>340.6666666666667</ele><time>2026-05-06T11:07:28.563Z</time></trkpt><trkpt lat="37.9415533" lon="12.82735"><ele>340.5</ele><time>2026-05-06T11:07:30.566Z</time></trkpt><trkpt lat="37.94149" lon="12.8273483"><ele>340.3333333333333</ele><time>2026-05-06T11:07:31.565Z</time></trkpt><trkpt lat="37.94142" lon="12.8273483"><ele>340.16666666666663</ele><time>2026-05-06T11:07:32.566Z</time></trkpt><trkpt lat="37.941345" lon="12.8273567"><ele>340.0</ele><time>2026-05-06T11:07:33.563Z</time></trkpt><trkpt lat="37.9412667" lon="12.8273767"><ele>340.0</ele><time>2026-05-06T11:07:34.565Z</time></trkpt><trkpt lat="37.941185" lon="12.8274067"><ele>340.0</ele><time>2026-05-06T11:07:35.564Z</time></trkpt><trkpt lat="37.9411017" lon="12.82745"><ele>340.0</ele><time>2026-05-06T11:07:36.565Z</time></trkpt><trkpt lat="37.941015" lon="12.8274917"><ele>340.0</ele><time>2026-05-06T11:07:37.564Z</time></trkpt><trkpt lat="37.94093" lon="12.8275267"><ele>340.0</ele><time>2026-05-06T11:07:38.564Z</time></trkpt><trkpt lat="37.9408417" lon="12.82755"><ele>340.0</ele><time>2026-05-06T11:07:39.564Z</time></trkpt><trkpt lat="37.9407567" lon="12.8275633"><ele>339.66666666666663</ele><time>2026-05-06T11:07:40.565Z</time></trkpt><trkpt lat="37.9406767" lon="12.8275717"><ele>339.3333333333333</ele><time>2026-05-06T11:07:41.565Z</time></trkpt><trkpt lat="37.9405933" lon="12.8275717"><ele>339.0</ele><time>2026-05-06T11:07:42.564Z</time></trkpt><trkpt lat="37.9405067" lon="12.827565"><ele>338.6666666666667</ele><time>2026-05-06T11:07:43.564Z</time></trkpt><trkpt lat="37.9404217" lon="12.8275433"><ele>338.33333333333337</ele><time>2026-05-06T11:07:44.566Z</time></trkpt><trkpt lat="37.94034" lon="12.827505"><ele>338.0</ele><time>2026-05-06T11:07:45.565Z</time></trkpt><trkpt lat="37.94026" lon="12.8274517"><ele>338.0</ele><time>2026-05-06T11:07:46.565Z</time></trkpt><trkpt lat="37.9401817" lon="12.827395"><ele>338.0</ele><time>2026-05-06T11:07:47.564Z</time></trkpt><trkpt lat="37.9401017" lon="12.82735"><ele>338.0</ele><time>2026-05-06T11:07:48.564Z</time></trkpt><trkpt lat="37.9400167" lon="12.8273067"><ele>338.0</ele><time>2026-05-06T11:07:49.564Z</time></trkpt><trkpt lat="37.9399317" lon="12.8272767"><ele>338.0</ele><time>2026-05-06T11:07:50.565Z</time></trkpt><trkpt lat="37.9398517" lon="12.827265"><ele>338.0</ele><time>2026-05-06T11:07:51.565Z</time></trkpt><trkpt lat="37.93977" lon="12.82725"><ele>335.4</ele><time>2026-05-06T11:07:52.564Z</time></trkpt><trkpt lat="37.9396883" lon="12.8272217"><ele>332.79999999999995</ele><time>2026-05-06T11:07:53.565Z</time></trkpt><trkpt lat="37.9396067" lon="12.82718"><ele>330.2</ele><time>2026-05-06T11:07:54.565Z</time></trkpt><trkpt lat="37.9395233" lon="12.8271267"><ele>327.6</ele><time>2026-05-06T11:07:55.565Z</time></trkpt><trkpt lat="37.9394383" lon="12.8270633"><ele>325.0</ele><time>2026-05-06T11:07:56.565Z</time></trkpt><trkpt lat="37.93935" lon="12.82701"><ele>325.0</ele><time>2026-05-06T11:07:57.564Z</time></trkpt><trkpt lat="37.9392583" lon="12.82697"><ele>325.0</ele><time>2026-05-06T11:07:58.566Z</time></trkpt><trkpt lat="37.9391667" lon="12.8269517"><ele>325.0</ele><time>2026-05-06T11:07:59.565Z</time></trkpt><trkpt lat="37.939075" lon="12.8269417"><ele>325.0</ele><time>2026-05-06T11:08:00.565Z</time></trkpt><trkpt lat="37.93898" lon="12.826935"><ele>325.0</ele><time>2026-05-06T11:08:01.563Z</time></trkpt><trkpt lat="37.9388917" lon="12.8269283"><ele>322.5</ele><time>2026-05-06T11:08:02.565Z</time></trkpt><trkpt lat="37.9388083" lon="12.8269333"><ele>320.0</ele><time>2026-05-06T11:08:03.564Z</time></trkpt><trkpt lat="37.9387267" lon="12.826955"><ele>317.5</ele><time>2026-05-06T11:08:04.565Z</time></trkpt><trkpt lat="37.9386483" lon="12.8269833"><ele>315.0</ele><time>2026-05-06T11:08:05.565Z</time></trkpt><trkpt lat="37.9385667" lon="12.8270267"><ele>312.5</ele><time>2026-05-06T11:08:06.565Z</time></trkpt><trkpt lat="37.9384883" lon="12.82708"><ele>310.0</ele><time>2026-05-06T11:08:07.565Z</time></trkpt><trkpt lat="37.9384083" lon="12.827135"><ele>309.3333333333333</ele><time>2026-05-06T11:08:08.565Z</time></trkpt><trkpt lat="37.93833" lon="12.82719"><ele>308.66666666666663</ele><time>2026-05-06T11:08:09.565Z</time></trkpt><trkpt lat="37.938255" lon="12.82725"><ele>308.0</ele><time>2026-05-06T11:08:10.563Z</time></trkpt><trkpt lat="37.9381817" lon="12.827315"><ele>307.3333333333333</ele><time>2026-05-06T11:08:11.564Z</time></trkpt><trkpt lat="37.9381083" lon="12.8273817"><ele>306.6666666666667</ele><time>2026-05-06T11:08:12.564Z</time></trkpt><trkpt lat="37.938035" lon="12.8274433"><ele>306.0</ele><time>2026-05-06T11:08:13.564Z</time></trkpt><trkpt lat="37.93797" lon="12.827495"><ele>306.0</ele><time>2026-05-06T11:08:14.564Z</time></trkpt><trkpt lat="37.937905" lon="12.827525"><ele>306.0</ele><time>2026-05-06T11:08:15.565Z</time></trkpt><trkpt lat="37.9378283" lon="12.8275317"><ele>306.0</ele><time>2026-05-06T11:08:16.564Z</time></trkpt><trkpt lat="37.9377317" lon="12.827515"><ele>306.0</ele><time>2026-05-06T11:08:17.565Z</time></trkpt><trkpt lat="37.93762" lon="12.82749"><ele>306.0</ele><time>2026-05-06T11:08:18.565Z</time></trkpt><trkpt lat="37.9375033" lon="12.8274633"><ele>305.5</ele><time>2026-05-06T11:08:19.565Z</time></trkpt><trkpt lat="37.93738" lon="12.827435"><ele>305.0</ele><time>2026-05-06T11:08:20.564Z</time></trkpt><trkpt lat="37.93725" lon="12.827405"><ele>304.5</ele><time>2026-05-06T11:08:21.565Z</time></trkpt><trkpt lat="37.93713" lon="12.8273933"><ele>304.0</ele><time>2026-05-06T11:08:22.564Z</time></trkpt><trkpt lat="37.937025" lon="12.8273883"><ele>304.0</ele><time>2026-05-06T11:08:23.564Z</time></trkpt><trkpt lat="37.9369333" lon="12.8273983"><ele>304.0</ele><time>2026-05-06T11:08:24.565Z</time></trkpt><trkpt lat="37.9368483" lon="12.8274083"><ele>304.0</ele><time>2026-05-06T11:08:25.563Z</time></trkpt><trkpt lat="37.93676" lon="12.8274117"><ele>304.0</ele><time>2026-05-06T11:08:26.565Z</time></trkpt><trkpt lat="37.93667" lon="12.82741"><ele>304.0</ele><time>2026-05-06T11:08:27.565Z</time></trkpt><trkpt lat="37.936575" lon="12.8274117"><ele>303.8</ele><time>2026-05-06T11:08:28.564Z</time></trkpt><trkpt lat="37.93648" lon="12.8274133"><ele>303.59999999999997</ele><time>2026-05-06T11:08:29.563Z</time></trkpt><trkpt lat="37.9363867" lon="12.8274117"><ele>303.4</ele><time>2026-05-06T11:08:30.565Z</time></trkpt><trkpt lat="37.9362933" lon="12.8274183"><ele>303.2</ele><time>2026-05-06T11:08:31.565Z</time></trkpt><trkpt lat="37.9362" lon="12.8274283"><ele>303.0</ele><time>2026-05-06T11:08:32.564Z</time></trkpt><trkpt lat="37.936105" lon="12.827435"><ele>303.0</ele><time>2026-05-06T11:08:33.566Z</time></trkpt><trkpt lat="37.93601" lon="12.8274367"><ele>303.0</ele><time>2026-05-06T11:08:34.565Z</time></trkpt><trkpt lat="37.9359117" lon="12.8274283"><ele>303.0</ele><time>2026-05-06T11:08:35.564Z</time></trkpt><trkpt lat="37.9358167" lon="12.8274083"><ele>303.0</ele><time>2026-05-06T11:08:36.565Z</time></trkpt><trkpt lat="37.9357183" lon="12.8273867"><ele>303.0</ele><time>2026-05-06T11:08:37.565Z</time></trkpt><trkpt lat="37.9356233" lon="12.8273717"><ele>303.2</ele><time>2026-05-06T11:08:38.565Z</time></trkpt><trkpt lat="37.935525" lon="12.82736"><ele>303.4</ele><time>2026-05-06T11:08:39.565Z</time></trkpt><trkpt lat="37.9354283" lon="12.827345"><ele>303.59999999999997</ele><time>2026-05-06T11:08:40.565Z</time></trkpt><trkpt lat="37.9353317" lon="12.8273333"><ele>303.8</ele><time>2026-05-06T11:08:41.565Z</time></trkpt><trkpt lat="37.935235" lon="12.8273217"><ele>304.0</ele><time>2026-05-06T11:08:42.565Z</time></trkpt><trkpt lat="37.9351383" lon="12.8273017"><ele>304.16666666666663</ele><time>2026-05-06T11:08:43.565Z</time></trkpt><trkpt lat="37.935045" lon="12.827275"><ele>304.3333333333333</ele><time>2026-05-06T11:08:44.566Z</time></trkpt><trkpt lat="37.9349567" lon="12.82725"><ele>304.5</ele><time>2026-05-06T11:08:45.564Z</time></trkpt><trkpt lat="37.9348767" lon="12.8272317"><ele>304.6666666666667</ele><time>2026-05-06T11:08:46.565Z</time></trkpt><trkpt lat="37.934805" lon="12.8272167"><ele>304.83333333333337</ele><time>2026-05-06T11:08:47.564Z</time></trkpt><trkpt lat="37.9347367" lon="12.8272"><ele>305.0</ele><time>2026-05-06T11:08:48.564Z</time></trkpt><trkpt lat="37.934665" lon="12.827185"><ele>305.0</ele><time>2026-05-06T11:08:49.565Z</time></trkpt><trkpt lat="37.9345933" lon="12.82716"><ele>305.0</ele><time>2026-05-06T11:08:50.565Z</time></trkpt><trkpt lat="37.9345167" lon="12.8271267"><ele>305.0</ele><time>2026-05-06T11:08:51.565Z</time></trkpt><trkpt lat="37.9344383" lon="12.8270883"><ele>305.0</ele><time>2026-05-06T11:08:52.565Z</time></trkpt><trkpt lat="37.9343633" lon="12.82705"><ele>305.0</ele><time>2026-05-06T11:08:53.564Z</time></trkpt><trkpt lat="37.93429" lon="12.8270133"><ele>305.0</ele><time>2026-05-06T11:08:54.565Z</time></trkpt><trkpt lat="37.9342167" lon="12.82698"><ele>304.7142857142857</ele><time>2026-05-06T11:08:55.565Z</time></trkpt><trkpt lat="37.934145" lon="12.82695"><ele>304.4285714285714</ele><time>2026-05-06T11:08:56.566Z</time></trkpt><trkpt lat="37.93407" lon="12.8269233"><ele>304.1428571428571</ele><time>2026-05-06T11:08:57.565Z</time></trkpt><trkpt lat="37.9339983" lon="12.8268967"><ele>303.8571428571429</ele><time>2026-05-06T11:08:58.565Z</time></trkpt><trkpt lat="37.93393" lon="12.8268633"><ele>303.57142857142856</ele><time>2026-05-06T11:08:59.566Z</time></trkpt><trkpt lat="37.93387" lon="12.82682"><ele>303.2857142857143</ele><time>2026-05-06T11:09:00.564Z</time></trkpt><trkpt lat="37.9338133" lon="12.826765"><ele>303.0</ele><time>2026-05-06T11:09:01.565Z</time></trkpt><trkpt lat="37.9337533" lon="12.8267033"><ele>304.5</ele><time>2026-05-06T11:09:02.565Z</time></trkpt><trkpt lat="37.93369" lon="12.826645"><ele>306.0</ele><time>2026-05-06T11:09:03.564Z</time></trkpt><trkpt lat="37.93362" lon="12.8265867"><ele>307.5</ele><time>2026-05-06T11:09:04.565Z</time></trkpt><trkpt lat="37.933545" lon="12.82654"><ele>309.0</ele><time>2026-05-06T11:09:05.565Z</time></trkpt><trkpt lat="37.9334617" lon="12.8265"><ele>310.5</ele><time>2026-05-06T11:09:06.563Z</time></trkpt><trkpt lat="37.933375" lon="12.8264717"><ele>312.0</ele><time>2026-05-06T11:09:07.566Z</time></trkpt><trkpt lat="37.9332883" lon="12.82646"><ele>312.0</ele><time>2026-05-06T11:09:08.565Z</time></trkpt><trkpt lat="37.9332067" lon="12.8264517"><ele>312.0</ele><time>2026-05-06T11:09:09.566Z</time></trkpt><trkpt lat="37.9331283" lon="12.8264467"><ele>312.0</ele><time>2026-05-06T11:09:10.565Z</time></trkpt><trkpt lat="37.9330467" lon="12.82644"><ele>312.0</ele><time>2026-05-06T11:09:11.565Z</time></trkpt><trkpt lat="37.93296" lon="12.8264283"><ele>312.0</ele><time>2026-05-06T11:09:12.565Z</time></trkpt><trkpt lat="37.932875" lon="12.8264283"><ele>312.0</ele><time>2026-05-06T11:09:13.565Z</time></trkpt><trkpt lat="37.93279" lon="12.82644"><ele>312.0</ele><time>2026-05-06T11:09:14.564Z</time></trkpt><trkpt lat="37.9327052" lon="12.8264611"><ele>312.0</ele><time>2026-05-06T11:09:15.564Z</time></trkpt><trkpt lat="37.932617" lon="12.8264856"><ele>312.0</ele><time>2026-05-06T11:09:16.565Z</time></trkpt><trkpt lat="37.932526" lon="12.826514"><ele>312.0</ele><time>2026-05-06T11:09:17.563Z</time></trkpt><trkpt lat="37.9324303" lon="12.8265416"><ele>312.0</ele><time>2026-05-06T11:09:18.565Z</time></trkpt><trkpt lat="37.9323334" lon="12.8265711"><ele>311.2</ele><time>2026-05-06T11:09:19.566Z</time></trkpt><trkpt lat="37.9322378" lon="12.8266016"><ele>310.4</ele><time>2026-05-06T11:09:20.566Z</time></trkpt><trkpt lat="37.9321466" lon="12.826634"><ele>309.6</ele><time>2026-05-06T11:09:21.565Z</time></trkpt><trkpt lat="37.9320572" lon="12.8266599"><ele>308.8</ele><time>2026-05-06T11:09:22.565Z</time></trkpt><trkpt lat="37.9319647" lon="12.8266759"><ele>308.0</ele><time>2026-05-06T11:09:23.565Z</time></trkpt><trkpt lat="37.9318653" lon="12.82668"><ele>308.0</ele><time>2026-05-06T11:09:24.564Z</time></trkpt><trkpt lat="37.93176" lon="12.826675"><ele>308.0</ele><time>2026-05-06T11:09:25.564Z</time></trkpt><trkpt lat="37.9316583" lon="12.8266614"><ele>308.0</ele><time>2026-05-06T11:09:26.565Z</time></trkpt><trkpt lat="37.931564" lon="12.8266386"><ele>308.0</ele><time>2026-05-06T11:09:27.565Z</time></trkpt><trkpt lat="37.9314732" lon="12.8266097"><ele>308.0</ele><time>2026-05-06T11:09:28.564Z</time></trkpt><trkpt lat="37.9313771" lon="12.8265809"><ele>307.6</ele><time>2026-05-06T11:09:29.564Z</time></trkpt><trkpt lat="37.9312746" lon="12.8265532"><ele>307.20000000000005</ele><time>2026-05-06T11:09:30.565Z</time></trkpt><trkpt lat="37.931168" lon="12.8265246"><ele>306.8</ele><time>2026-05-06T11:09:31.565Z</time></trkpt><trkpt lat="37.9310616" lon="12.8264924"><ele>306.40000000000003</ele><time>2026-05-06T11:09:32.569Z</time></trkpt><trkpt lat="37.9309612" lon="12.8264581"><ele>306.0</ele><time>2026-05-06T11:09:33.564Z</time></trkpt><trkpt lat="37.9308633" lon="12.8264293"><ele>304.8333333333333</ele><time>2026-05-06T11:09:34.565Z</time></trkpt><trkpt lat="37.9307726" lon="12.8264092"><ele>303.6666666666667</ele><time>2026-05-06T11:09:35.565Z</time></trkpt><trkpt lat="37.9306959" lon="12.8264038"><ele>302.5</ele><time>2026-05-06T11:09:36.565Z</time></trkpt><trkpt lat="37.9306248" lon="12.8264086"><ele>301.33333333333337</ele><time>2026-05-06T11:09:37.565Z</time></trkpt><trkpt lat="37.9305488" lon="12.8264022"><ele>300.1666666666667</ele><time>2026-05-06T11:09:38.565Z</time></trkpt><trkpt lat="37.9304719" lon="12.8263769"><ele>299.0</ele><time>2026-05-06T11:09:39.564Z</time></trkpt><trkpt lat="37.9303885" lon="12.82635"><ele>299.0</ele><time>2026-05-06T11:09:40.565Z</time></trkpt><trkpt lat="37.9303042" lon="12.8263338"><ele>299.0</ele><time>2026-05-06T11:09:41.564Z</time></trkpt><trkpt lat="37.9302205" lon="12.8263189"><ele>299.0</ele><time>2026-05-06T11:09:42.565Z</time></trkpt><trkpt lat="37.9301434" lon="12.8262877"><ele>299.0</ele><time>2026-05-06T11:09:43.563Z</time></trkpt><trkpt lat="37.9300786" lon="12.8262423"><ele>299.0</ele><time>2026-05-06T11:09:44.566Z</time></trkpt><trkpt lat="37.9300169" lon="12.8262015"><ele>299.0</ele><time>2026-05-06T11:09:45.564Z</time></trkpt><trkpt lat="37.9299055" lon="12.8261918"><ele>300.33333333333337</ele><time>2026-05-06T11:09:47.564Z</time></trkpt><trkpt lat="37.9298077" lon="12.8262971"><ele>301.6666666666667</ele><time>2026-05-06T11:09:49.565Z</time></trkpt><trkpt lat="37.9297622" lon="12.8263757"><ele>303.0</ele><time>2026-05-06T11:09:50.566Z</time></trkpt><trkpt lat="37.9297192" lon="12.8264592"><ele>304.3333333333333</ele><time>2026-05-06T11:09:51.564Z</time></trkpt><trkpt lat="37.9296876" lon="12.8265497"><ele>305.66666666666663</ele><time>2026-05-06T11:09:52.565Z</time></trkpt><trkpt lat="37.9296653" lon="12.826647"><ele>307.0</ele><time>2026-05-06T11:09:53.564Z</time></trkpt><trkpt lat="37.9296581" lon="12.82675"><ele>307.8333333333333</ele><time>2026-05-06T11:09:54.565Z</time></trkpt><trkpt lat="37.9296589" lon="12.826857"><ele>308.66666666666663</ele><time>2026-05-06T11:09:55.564Z</time></trkpt><trkpt lat="37.9296634" lon="12.8269645"><ele>309.5</ele><time>2026-05-06T11:09:56.564Z</time></trkpt><trkpt lat="37.9296699" lon="12.8270682"><ele>310.3333333333333</ele><time>2026-05-06T11:09:57.563Z</time></trkpt><trkpt lat="37.9296907" lon="12.8271654"><ele>311.1666666666667</ele><time>2026-05-06T11:09:58.566Z</time></trkpt><trkpt lat="37.9297315" lon="12.8272553"><ele>312.0</ele><time>2026-05-06T11:09:59.564Z</time></trkpt><trkpt lat="37.9297734" lon="12.8273479"><ele>312.0</ele><time>2026-05-06T11:10:00.565Z</time></trkpt><trkpt lat="37.9298143" lon="12.8274394"><ele>312.0</ele><time>2026-05-06T11:10:01.566Z</time></trkpt><trkpt lat="37.9298384" lon="12.8275256"><ele>312.0</ele><time>2026-05-06T11:10:02.565Z</time></trkpt><trkpt lat="37.9298108" lon="12.827635"><ele>312.0</ele><time>2026-05-06T11:10:04.565Z</time></trkpt><trkpt lat="37.9297233" lon="12.8276488"><ele>312.0</ele><time>2026-05-06T11:10:06.564Z</time></trkpt><trkpt lat="37.929596" lon="12.8275942"><ele>312.0</ele><time>2026-05-06T11:10:08.566Z</time></trkpt><trkpt lat="37.929516" lon="12.827571"><ele>312.0</ele><time>2026-05-06T11:10:09.564Z</time></trkpt><trkpt lat="37.9294296" lon="12.8275591"><ele>312.0</ele><time>2026-05-06T11:10:10.564Z</time></trkpt><trkpt lat="37.9293466" lon="12.8275626"><ele>312.0</ele><time>2026-05-06T11:10:11.565Z</time></trkpt><trkpt lat="37.929265" lon="12.8275726"><ele>312.0</ele><time>2026-05-06T11:10:12.566Z</time></trkpt><trkpt lat="37.9291841" lon="12.8275841"><ele>312.0</ele><time>2026-05-06T11:10:13.565Z</time></trkpt><trkpt lat="37.9291046" lon="12.8275898"><ele>314.1666666666667</ele><time>2026-05-06T11:10:14.565Z</time></trkpt><trkpt lat="37.9290256" lon="12.8275845"><ele>316.3333333333333</ele><time>2026-05-06T11:10:15.565Z</time></trkpt><trkpt lat="37.9289432" lon="12.8275705"><ele>318.5</ele><time>2026-05-06T11:10:16.565Z</time></trkpt><trkpt lat="37.9288611" lon="12.8275548"><ele>320.66666666666663</ele><time>2026-05-06T11:10:17.566Z</time></trkpt><trkpt lat="37.9287819" lon="12.8275393"><ele>322.8333333333333</ele><time>2026-05-06T11:10:18.565Z</time></trkpt><trkpt lat="37.9287022" lon="12.8275256"><ele>325.0</ele><time>2026-05-06T11:10:19.566Z</time></trkpt><trkpt lat="37.9286235" lon="12.8275182"><ele>325.0</ele><time>2026-05-06T11:10:20.566Z</time></trkpt><trkpt lat="37.9285452" lon="12.8275285"><ele>325.0</ele><time>2026-05-06T11:10:21.565Z</time></trkpt><trkpt lat="37.928467" lon="12.8275539"><ele>325.0</ele><time>2026-05-06T11:10:22.565Z</time></trkpt><trkpt lat="37.9283897" lon="12.8275906"><ele>325.0</ele><time>2026-05-06T11:10:23.565Z</time></trkpt><trkpt lat="37.9283061" lon="12.8276303"><ele>325.0</ele><time>2026-05-06T11:10:24.564Z</time></trkpt><trkpt lat="37.9282167" lon="12.8276699"><ele>325.0</ele><time>2026-05-06T11:10:25.565Z</time></trkpt><trkpt lat="37.9281223" lon="12.8277109"><ele>324.0</ele><time>2026-05-06T11:10:26.564Z</time></trkpt><trkpt lat="37.9280257" lon="12.8277579"><ele>323.0</ele><time>2026-05-06T11:10:27.564Z</time></trkpt><trkpt lat="37.9279312" lon="12.827818"><ele>322.0</ele><time>2026-05-06T11:10:28.564Z</time></trkpt><trkpt lat="37.9278373" lon="12.8278892"><ele>321.0</ele><time>2026-05-06T11:10:29.565Z</time></trkpt><trkpt lat="37.9277433" lon="12.827976"><ele>320.0</ele><time>2026-05-06T11:10:30.565Z</time></trkpt><trkpt lat="37.9276471" lon="12.8280717"><ele>323.75</ele><time>2026-05-06T11:10:31.564Z</time></trkpt><trkpt lat="37.9275504" lon="12.8281676"><ele>327.5</ele><time>2026-05-06T11:10:32.565Z</time></trkpt><trkpt lat="37.927452" lon="12.828266"><ele>331.25</ele><time>2026-05-06T11:10:33.564Z</time></trkpt><trkpt lat="37.9273538" lon="12.8283633"><ele>335.0</ele><time>2026-05-06T11:10:34.565Z</time></trkpt><trkpt lat="37.9272601" lon="12.8284544"><ele>331.8</ele><time>2026-05-06T11:10:35.564Z</time></trkpt><trkpt lat="37.9271766" lon="12.8285357"><ele>328.6</ele><time>2026-05-06T11:10:36.565Z</time></trkpt><trkpt lat="37.9270955" lon="12.8286108"><ele>325.4</ele><time>2026-05-06T11:10:37.565Z</time></trkpt><trkpt lat="37.9270155" lon="12.8286852"><ele>322.2</ele><time>2026-05-06T11:10:38.565Z</time></trkpt><trkpt lat="37.926933" lon="12.8287557"><ele>319.0</ele><time>2026-05-06T11:10:39.565Z</time></trkpt><trkpt lat="37.9268459" lon="12.8288253"><ele>319.0</ele><time>2026-05-06T11:10:40.565Z</time></trkpt><trkpt lat="37.9267578" lon="12.828896"><ele>319.0</ele><time>2026-05-06T11:10:41.564Z</time></trkpt><trkpt lat="37.926674" lon="12.8289597"><ele>319.0</ele><time>2026-05-06T11:10:42.565Z</time></trkpt><trkpt lat="37.9266047" lon="12.8290301"><ele>319.0</ele><time>2026-05-06T11:10:43.564Z</time></trkpt><trkpt lat="37.9265489" lon="12.8291041"><ele>319.0</ele><time>2026-05-06T11:10:44.565Z</time></trkpt><trkpt lat="37.9265058" lon="12.829198"><ele>319.16666666666663</ele><time>2026-05-06T11:10:45.565Z</time></trkpt><trkpt lat="37.9264742" lon="12.829312"><ele>319.3333333333333</ele><time>2026-05-06T11:10:46.565Z</time></trkpt><trkpt lat="37.9264583" lon="12.8294322"><ele>319.5</ele><time>2026-05-06T11:10:47.565Z</time></trkpt><trkpt lat="37.9264419" lon="12.829538"><ele>319.6666666666667</ele><time>2026-05-06T11:10:48.564Z</time></trkpt><trkpt lat="37.9264212" lon="12.8296291"><ele>319.83333333333337</ele><time>2026-05-06T11:10:49.565Z</time></trkpt><trkpt lat="37.9263912" lon="12.8296995"><ele>320.0</ele><time>2026-05-06T11:10:50.566Z</time></trkpt><trkpt lat="37.9262795" lon="12.8297914"><ele>320.0</ele><time>2026-05-06T11:10:52.565Z</time></trkpt><trkpt lat="37.9262098" lon="12.829838"><ele>320.0</ele><time>2026-05-06T11:10:53.565Z</time></trkpt><trkpt lat="37.9261406" lon="12.8298891"><ele>320.0</ele><time>2026-05-06T11:10:54.566Z</time></trkpt><trkpt lat="37.9260699" lon="12.8299409"><ele>320.0</ele><time>2026-05-06T11:10:55.564Z</time></trkpt><trkpt lat="37.9259937" lon="12.8299958"><ele>320.0</ele><time>2026-05-06T11:10:56.564Z</time></trkpt><trkpt lat="37.9259148" lon="12.8300524"><ele>320.0</ele><time>2026-05-06T11:10:57.564Z</time></trkpt><trkpt lat="37.9258315" lon="12.8301078"><ele>322.0</ele><time>2026-05-06T11:10:58.564Z</time></trkpt><trkpt lat="37.9257475" lon="12.8301626"><ele>324.0</ele><time>2026-05-06T11:10:59.565Z</time></trkpt><trkpt lat="37.9256599" lon="12.8302205"><ele>326.0</ele><time>2026-05-06T11:11:00.564Z</time></trkpt><trkpt lat="37.925574" lon="12.8302858"><ele>328.0</ele><time>2026-05-06T11:11:01.564Z</time></trkpt><trkpt lat="37.9254903" lon="12.8303573"><ele>330.0</ele><time>2026-05-06T11:11:02.564Z</time></trkpt><trkpt lat="37.9254071" lon="12.8304324"><ele>330.0</ele><time>2026-05-06T11:11:03.565Z</time></trkpt><trkpt lat="37.9253254" lon="12.8305098"><ele>330.0</ele><time>2026-05-06T11:11:04.564Z</time></trkpt><trkpt lat="37.9252465" lon="12.8305901"><ele>330.0</ele><time>2026-05-06T11:11:05.563Z</time></trkpt><trkpt lat="37.9251686" lon="12.8306648"><ele>330.0</ele><time>2026-05-06T11:11:06.565Z</time></trkpt><trkpt lat="37.9250889" lon="12.8307295"><ele>330.0</ele><time>2026-05-06T11:11:07.564Z</time></trkpt><trkpt lat="37.9250147" lon="12.8307873"><ele>331.3333333333333</ele><time>2026-05-06T11:11:08.566Z</time></trkpt><trkpt lat="37.924953" lon="12.8308352"><ele>332.6666666666667</ele><time>2026-05-06T11:11:09.565Z</time></trkpt><trkpt lat="37.9248634" lon="12.8308724"><ele>334.0</ele><time>2026-05-06T11:11:11.565Z</time></trkpt><trkpt lat="37.9248069" lon="12.8308128"><ele>335.33333333333337</ele><time>2026-05-06T11:11:13.565Z</time></trkpt><trkpt lat="37.9247955" lon="12.8306782"><ele>336.6666666666667</ele><time>2026-05-06T11:11:15.564Z</time></trkpt><trkpt lat="37.9247911" lon="12.8305876"><ele>338.0</ele><time>2026-05-06T11:11:16.565Z</time></trkpt><trkpt lat="37.9247818" lon="12.830493"><ele>338.0</ele><time>2026-05-06T11:11:17.565Z</time></trkpt><trkpt lat="37.9247596" lon="12.8304061"><ele>338.0</ele><time>2026-05-06T11:11:18.565Z</time></trkpt><trkpt lat="37.9247244" lon="12.8303358"><ele>338.0</ele><time>2026-05-06T11:11:19.565Z</time></trkpt><trkpt lat="37.9246753" lon="12.8302785"><ele>338.0</ele><time>2026-05-06T11:11:20.566Z</time></trkpt><trkpt lat="37.9246192" lon="12.8302245"><ele>338.0</ele><time>2026-05-06T11:11:21.564Z</time></trkpt><trkpt lat="37.9245617" lon="12.8301702"><ele>338.0</ele><time>2026-05-06T11:11:22.566Z</time></trkpt><trkpt lat="37.9245115" lon="12.830117"><ele>338.0</ele><time>2026-05-06T11:11:23.564Z</time></trkpt><trkpt lat="37.9244237" lon="12.830003"><ele>337.14285714285717</ele><time>2026-05-06T11:11:25.563Z</time></trkpt><trkpt lat="37.9243866" lon="12.8299352"><ele>336.2857142857143</ele><time>2026-05-06T11:11:26.564Z</time></trkpt><trkpt lat="37.9243535" lon="12.8298647"><ele>335.42857142857144</ele><time>2026-05-06T11:11:27.564Z</time></trkpt><trkpt lat="37.9243208" lon="12.8297941"><ele>334.57142857142856</ele><time>2026-05-06T11:11:28.565Z</time></trkpt><trkpt lat="37.9242891" lon="12.8297239"><ele>333.7142857142857</ele><time>2026-05-06T11:11:29.564Z</time></trkpt><trkpt lat="37.9242561" lon="12.829655"><ele>332.85714285714283</ele><time>2026-05-06T11:11:30.564Z</time></trkpt><trkpt lat="37.9242225" lon="12.8295866"><ele>332.0</ele><time>2026-05-06T11:11:31.565Z</time></trkpt><trkpt lat="37.9241437" lon="12.8294708"><ele>332.0</ele><time>2026-05-06T11:11:33.564Z</time></trkpt><trkpt lat="37.9240393" lon="12.8294421"><ele>332.0</ele><time>2026-05-06T11:11:35.565Z</time></trkpt><trkpt lat="37.9239221" lon="12.8294616"><ele>332.0</ele><time>2026-05-06T11:11:37.565Z</time></trkpt><trkpt lat="37.9238075" lon="12.8294263"><ele>332.0</ele><time>2026-05-06T11:11:39.565Z</time></trkpt><trkpt lat="37.9237068" lon="12.8293543"><ele>331.25</ele><time>2026-05-06T11:11:41.564Z</time></trkpt><trkpt lat="37.923598" lon="12.8292808"><ele>330.5</ele><time>2026-05-06T11:11:43.566Z</time></trkpt><trkpt lat="37.9234891" lon="12.8292122"><ele>329.75</ele><time>2026-05-06T11:11:45.565Z</time></trkpt><trkpt lat="37.923387" lon="12.829142"><ele>329.0</ele><time>2026-05-06T11:11:47.564Z</time></trkpt><trkpt lat="37.9232756" lon="12.8290673"><ele>329.0</ele><time>2026-05-06T11:11:49.565Z</time></trkpt><trkpt lat="37.9231747" lon="12.8289847"><ele>329.0</ele><time>2026-05-06T11:11:51.565Z</time></trkpt><trkpt lat="37.9230821" lon="12.8289052"><ele>329.0</ele><time>2026-05-06T11:11:53.566Z</time></trkpt><trkpt lat="37.9229822" lon="12.8288362"><ele>329.0</ele><time>2026-05-06T11:11:55.564Z</time></trkpt><trkpt lat="37.9228692" lon="12.8287772"><ele>329.0</ele><time>2026-05-06T11:11:57.565Z</time></trkpt><trkpt lat="37.9228041" lon="12.8287577"><ele>329.0</ele><time>2026-05-06T11:11:58.564Z</time></trkpt><trkpt lat="37.9227416" lon="12.8287396"><ele>329.0</ele><time>2026-05-06T11:11:59.564Z</time></trkpt><trkpt lat="37.9226788" lon="12.8287135"><ele>329.0</ele><time>2026-05-06T11:12:00.565Z</time></trkpt><trkpt lat="37.922614" lon="12.8286763"><ele>329.0</ele><time>2026-05-06T11:12:01.564Z</time></trkpt><trkpt lat="37.9225498" lon="12.8286337"><ele>329.0</ele><time>2026-05-06T11:12:02.565Z</time></trkpt><trkpt lat="37.9224907" lon="12.8285931"><ele>329.0</ele><time>2026-05-06T11:12:03.564Z</time></trkpt><trkpt lat="37.9223931" lon="12.8285407"><ele>325.2</ele><time>2026-05-06T11:12:05.564Z</time></trkpt><trkpt lat="37.9222871" lon="12.82853"><ele>321.4</ele><time>2026-05-06T11:12:07.564Z</time></trkpt><trkpt lat="37.9221908" lon="12.8285479"><ele>317.6</ele><time>2026-05-06T11:12:09.565Z</time></trkpt><trkpt lat="37.9221262" lon="12.8285723"><ele>313.8</ele><time>2026-05-06T11:12:11.566Z</time></trkpt><trkpt lat="37.9220486" lon="12.8285989"><ele>310.0</ele><time>2026-05-06T11:13:44.566Z</time></trkpt><trkpt lat="37.9219372" lon="12.8286072"><ele>310.0</ele><time>2026-05-06T11:13:46.564Z</time></trkpt><trkpt lat="37.9218306" lon="12.8285995"><ele>310.0</ele><time>2026-05-06T11:13:48.563Z</time></trkpt><trkpt lat="37.9217331" lon="12.8285986"><ele>310.0</ele><time>2026-05-06T11:13:50.566Z</time></trkpt><trkpt lat="37.9216627" lon="12.8285951"><ele>310.0</ele><time>2026-05-06T11:13:53.565Z</time></trkpt><trkpt lat="37.9215983" lon="12.8285983"><ele>310.0</ele><time>2026-05-06T11:13:59.565Z</time></trkpt><trkpt lat="37.9215167" lon="12.8286317"><ele>310.0</ele><time>2026-05-06T11:14:01.565Z</time></trkpt><trkpt lat="37.9214833" lon="12.8287317"><ele>311.4</ele><time>2026-05-06T11:14:10.563Z</time></trkpt><trkpt lat="37.92147" lon="12.8288417"><ele>312.8</ele><time>2026-05-06T11:19:09.564Z</time></trkpt><trkpt lat="37.92147" lon="12.828945"><ele>314.2</ele><time>2026-05-06T11:19:11.564Z</time></trkpt><trkpt lat="37.9214583" lon="12.8290617"><ele>315.6</ele><time>2026-05-06T11:19:13.563Z</time></trkpt><trkpt lat="37.92142" lon="12.8291967"><ele>317.0</ele><time>2026-05-06T11:19:15.564Z</time></trkpt><trkpt lat="37.9213867" lon="12.8293033"><ele>315.6666666666667</ele><time>2026-05-06T11:19:17.563Z</time></trkpt><trkpt lat="37.921375" lon="12.8293867"><ele>314.33333333333337</ele><time>2026-05-06T11:19:19.564Z</time></trkpt><trkpt lat="37.9213767" lon="12.8294683"><ele>313.0</ele><time>2026-05-06T11:19:21.565Z</time></trkpt><trkpt lat="37.9213867" lon="12.8295617"><ele>311.6666666666667</ele><time>2026-05-06T11:19:23.565Z</time></trkpt><trkpt lat="37.9214017" lon="12.8296567"><ele>310.3333333333333</ele><time>2026-05-06T11:19:25.564Z</time></trkpt><trkpt lat="37.9214" lon="12.8297917"><ele>309.0</ele><time>2026-05-06T11:19:27.563Z</time></trkpt><trkpt lat="37.9213883" lon="12.8299433"><ele>309.0</ele><time>2026-05-06T11:19:29.564Z</time></trkpt><trkpt lat="37.9213617" lon="12.8300617"><ele>309.0</ele><time>2026-05-06T11:19:31.565Z</time></trkpt><trkpt lat="37.92127" lon="12.8301583"><ele>309.0</ele><time>2026-05-06T11:21:10.566Z</time></trkpt><trkpt lat="37.9211833" lon="12.8302183"><ele>309.0</ele><time>2026-05-06T11:21:12.563Z</time></trkpt><trkpt lat="37.9210717" lon="12.8303033"><ele>309.0</ele><time>2026-05-06T11:21:14.568Z</time></trkpt><trkpt lat="37.92101" lon="12.83035"><ele>309.5</ele><time>2026-05-06T11:21:15.562Z</time></trkpt><trkpt lat="37.92095" lon="12.830395"><ele>310.0</ele><time>2026-05-06T11:21:16.564Z</time></trkpt><trkpt lat="37.9208933" lon="12.8304383"><ele>310.5</ele><time>2026-05-06T11:21:17.563Z</time></trkpt><trkpt lat="37.9208" lon="12.8304983"><ele>311.0</ele><time>2026-05-06T11:21:19.564Z</time></trkpt><trkpt lat="37.9207317" lon="12.8305167"><ele>311.5</ele><time>2026-05-06T11:21:22.564Z</time></trkpt><trkpt lat="37.9206683" lon="12.8305467"><ele>312.0</ele><time>2026-05-06T11:21:25.563Z</time></trkpt><trkpt lat="37.9205767" lon="12.8305567"><ele>312.0</ele><time>2026-05-06T11:21:28.563Z</time></trkpt><trkpt lat="37.9204983" lon="12.8305817"><ele>312.0</ele><time>2026-05-06T11:21:30.565Z</time></trkpt><trkpt lat="37.92043" lon="12.830645"><ele>312.0</ele><time>2026-05-06T11:21:32.565Z</time></trkpt><trkpt lat="37.9203683" lon="12.8307367"><ele>312.0</ele><time>2026-05-06T11:21:34.564Z</time></trkpt><trkpt lat="37.9203083" lon="12.830835"><ele>312.0</ele><time>2026-05-06T11:21:36.563Z</time></trkpt><trkpt lat="37.920255" lon="12.8309267"><ele>312.0</ele><time>2026-05-06T11:21:38.563Z</time></trkpt><trkpt lat="37.92022" lon="12.8309983"><ele>312.0</ele><time>2026-05-06T11:21:40.566Z</time></trkpt><trkpt lat="37.9201633" lon="12.8310567"><ele>312.0</ele><time>2026-05-06T11:21:42.564Z</time></trkpt><trkpt lat="37.92008" lon="12.831095"><ele>312.0</ele><time>2026-05-06T11:21:44.565Z</time></trkpt><trkpt lat="37.9199967" lon="12.8311"><ele>312.0</ele><time>2026-05-06T11:21:46.565Z</time></trkpt><trkpt lat="37.9199117" lon="12.8310833"><ele>312.0</ele><time>2026-05-06T11:21:48.564Z</time></trkpt><trkpt lat="37.9198217" lon="12.831065"><ele>312.0</ele><time>2026-05-06T11:21:50.565Z</time></trkpt><trkpt lat="37.91973" lon="12.831065"><ele>312.0</ele><time>2026-05-06T11:21:52.565Z</time></trkpt><trkpt lat="37.919645" lon="12.831085"><ele>312.0</ele><time>2026-05-06T11:21:54.564Z</time></trkpt><trkpt lat="37.9195467" lon="12.8311183"><ele>312.0</ele><time>2026-05-06T11:21:56.568Z</time></trkpt><trkpt lat="37.919455" lon="12.83115"><ele>312.0</ele><time>2026-05-06T11:21:58.564Z</time></trkpt><trkpt lat="37.9193567" lon="12.8311833"><ele>312.0</ele><time>2026-05-06T11:22:00.564Z</time></trkpt><trkpt lat="37.9192733" lon="12.831205"><ele>311.8333333333333</ele><time>2026-05-06T11:22:02.566Z</time></trkpt><trkpt lat="37.9192033" lon="12.83119"><ele>311.6666666666667</ele><time>2026-05-06T11:22:04.565Z</time></trkpt><trkpt lat="37.919135" lon="12.831135"><ele>311.5</ele><time>2026-05-06T11:22:06.563Z</time></trkpt><trkpt lat="37.9190683" lon="12.831095"><ele>311.33333333333337</ele><time>2026-05-06T11:22:08.565Z</time></trkpt><trkpt lat="37.918975" lon="12.8311233"><ele>311.1666666666667</ele><time>2026-05-06T11:22:11.564Z</time></trkpt><trkpt lat="37.9189117" lon="12.83119"><ele>311.0</ele><time>2026-05-06T11:22:13.564Z</time></trkpt><trkpt lat="37.9188683" lon="12.83127"><ele>311.0</ele><time>2026-05-06T11:22:15.565Z</time></trkpt><trkpt lat="37.9188133" lon="12.8313183"><ele>311.0</ele><time>2026-05-06T11:22:17.564Z</time></trkpt><trkpt lat="37.91874" lon="12.8313667"><ele>311.0</ele><time>2026-05-06T11:22:19.564Z</time></trkpt><trkpt lat="37.9186317" lon="12.8314033"><ele>311.0</ele><time>2026-05-06T11:22:21.565Z</time></trkpt><trkpt lat="37.91853" lon="12.8314583"><ele>311.0</ele><time>2026-05-06T11:22:23.567Z</time></trkpt><trkpt lat="37.9184433" lon="12.8315633"><ele>309.6</ele><time>2026-05-06T11:22:25.564Z</time></trkpt><trkpt lat="37.9183833" lon="12.8316867"><ele>308.20000000000005</ele><time>2026-05-06T11:22:27.564Z</time></trkpt><trkpt lat="37.9183317" lon="12.8318167"><ele>306.79999999999995</ele><time>2026-05-06T11:22:29.564Z</time></trkpt><trkpt lat="37.9182767" lon="12.8318983"><ele>305.4</ele><time>2026-05-06T11:22:31.564Z</time></trkpt><trkpt lat="37.9182017" lon="12.8319667"><ele>304.0</ele><time>2026-05-06T11:22:33.564Z</time></trkpt><trkpt lat="37.91813" lon="12.8320283"><ele>304.0</ele><time>2026-05-06T11:22:35.563Z</time></trkpt><trkpt lat="37.9180767" lon="12.8320867"><ele>304.0</ele><time>2026-05-06T11:22:37.564Z</time></trkpt><trkpt lat="37.9180283" lon="12.8321517"><ele>304.0</ele><time>2026-05-06T11:22:40.563Z</time></trkpt><trkpt lat="37.917925" lon="12.832245"><ele>304.0</ele><time>2026-05-06T11:23:47.564Z</time></trkpt><trkpt lat="37.9178517" lon="12.8323183"><ele>304.0</ele><time>2026-05-06T11:23:48.565Z</time></trkpt><trkpt lat="37.9177867" lon="12.8323867"><ele>304.0</ele><time>2026-05-06T11:23:49.564Z</time></trkpt><trkpt lat="37.91773" lon="12.83245"><ele>304.0</ele><time>2026-05-06T11:23:50.568Z</time></trkpt><trkpt lat="37.9176717" lon="12.8325117"><ele>304.0</ele><time>2026-05-06T11:23:51.564Z</time></trkpt><trkpt lat="37.91761" lon="12.8325717"><ele>304.0</ele><time>2026-05-06T11:23:52.565Z</time></trkpt><trkpt lat="37.9175517" lon="12.8326267"><ele>304.0</ele><time>2026-05-06T11:23:53.564Z</time></trkpt><trkpt lat="37.9174967" lon="12.8326817"><ele>304.0</ele><time>2026-05-06T11:23:54.563Z</time></trkpt><trkpt lat="37.917445" lon="12.8327367"><ele>304.0</ele><time>2026-05-06T11:23:55.565Z</time></trkpt><trkpt lat="37.917385" lon="12.83279"><ele>304.0</ele><time>2026-05-06T11:23:56.564Z</time></trkpt><trkpt lat="37.91732" lon="12.83283"><ele>302.4</ele><time>2026-05-06T11:23:57.565Z</time></trkpt><trkpt lat="37.9172617" lon="12.83287"><ele>300.79999999999995</ele><time>2026-05-06T11:23:58.565Z</time></trkpt><trkpt lat="37.917185" lon="12.83297"><ele>299.20000000000005</ele><time>2026-05-06T11:24:00.563Z</time></trkpt><trkpt lat="37.9171567" lon="12.833095"><ele>297.6</ele><time>2026-05-06T11:24:02.566Z</time></trkpt><trkpt lat="37.9171117" lon="12.8331733"><ele>296.0</ele><time>2026-05-06T11:24:04.564Z</time></trkpt><trkpt lat="37.91701" lon="12.8332033"><ele>296.0</ele><time>2026-05-06T11:24:06.564Z</time></trkpt><trkpt lat="37.91694" lon="12.8332183"><ele>296.0</ele><time>2026-05-06T11:24:07.564Z</time></trkpt><trkpt lat="37.9168767" lon="12.8332483"><ele>296.0</ele><time>2026-05-06T11:24:08.565Z</time></trkpt><trkpt lat="37.9168167" lon="12.833295"><ele>296.0</ele><time>2026-05-06T11:24:09.565Z</time></trkpt><trkpt lat="37.91676" lon="12.8333533"><ele>296.0</ele><time>2026-05-06T11:24:10.565Z</time></trkpt><trkpt lat="37.9167" lon="12.8334217"><ele>296.0</ele><time>2026-05-06T11:24:11.564Z</time></trkpt><trkpt lat="37.9166483" lon="12.8334917"><ele>296.0</ele><time>2026-05-06T11:24:12.565Z</time></trkpt><trkpt lat="37.9166" lon="12.8335583"><ele>299.42857142857144</ele><time>2026-05-06T11:24:13.564Z</time></trkpt><trkpt lat="37.9165517" lon="12.8336283"><ele>302.85714285714283</ele><time>2026-05-06T11:24:14.564Z</time></trkpt><trkpt lat="37.9165183" lon="12.8337"><ele>306.2857142857143</ele><time>2026-05-06T11:24:15.565Z</time></trkpt><trkpt lat="37.9164933" lon="12.833775"><ele>309.7142857142857</ele><time>2026-05-06T11:24:16.567Z</time></trkpt><trkpt lat="37.9164717" lon="12.8338583"><ele>313.14285714285717</ele><time>2026-05-06T11:24:17.564Z</time></trkpt><trkpt lat="37.9164667" lon="12.8339383"><ele>316.57142857142856</ele><time>2026-05-06T11:24:18.564Z</time></trkpt><trkpt lat="37.916465" lon="12.8340183"><ele>320.0</ele><time>2026-05-06T11:24:19.565Z</time></trkpt><trkpt lat="37.9164567" lon="12.8341"><ele>320.0</ele><time>2026-05-06T11:24:20.565Z</time></trkpt><trkpt lat="37.9164483" lon="12.8341883"><ele>320.0</ele><time>2026-05-06T11:24:21.565Z</time></trkpt><trkpt lat="37.9164317" lon="12.8342783"><ele>320.0</ele><time>2026-05-06T11:24:22.567Z</time></trkpt><trkpt lat="37.9164133" lon="12.8343667"><ele>320.0</ele><time>2026-05-06T11:24:23.565Z</time></trkpt><trkpt lat="37.9164" lon="12.8344467"><ele>320.0</ele><time>2026-05-06T11:24:24.565Z</time></trkpt><trkpt lat="37.9163617" lon="12.8345833"><ele>320.0</ele><time>2026-05-06T11:24:26.565Z</time></trkpt><trkpt lat="37.9163117" lon="12.83467"><ele>321.5</ele><time>2026-05-06T11:24:28.566Z</time></trkpt><trkpt lat="37.9162317" lon="12.834775"><ele>323.0</ele><time>2026-05-06T11:24:30.564Z</time></trkpt><trkpt lat="37.9161833" lon="12.8348317"><ele>324.5</ele><time>2026-05-06T11:24:31.564Z</time></trkpt><trkpt lat="37.916135" lon="12.8348967"><ele>326.0</ele><time>2026-05-06T11:24:32.565Z</time></trkpt><trkpt lat="37.9160883" lon="12.8349717"><ele>327.5</ele><time>2026-05-06T11:24:33.564Z</time></trkpt><trkpt lat="37.9160367" lon="12.8350533"><ele>329.0</ele><time>2026-05-06T11:24:34.564Z</time></trkpt><trkpt lat="37.9159833" lon="12.8351367"><ele>328.1666666666667</ele><time>2026-05-06T11:24:35.564Z</time></trkpt><trkpt lat="37.9159333" lon="12.8352217"><ele>327.33333333333337</ele><time>2026-05-06T11:24:36.563Z</time></trkpt><trkpt lat="37.915885" lon="12.8353083"><ele>326.5</ele><time>2026-05-06T11:24:37.564Z</time></trkpt><trkpt lat="37.9158467" lon="12.8354017"><ele>325.6666666666667</ele><time>2026-05-06T11:24:38.565Z</time></trkpt><trkpt lat="37.9158233" lon="12.8354967"><ele>324.8333333333333</ele><time>2026-05-06T11:24:39.564Z</time></trkpt><trkpt lat="37.9158083" lon="12.8355917"><ele>324.0</ele><time>2026-05-06T11:24:40.563Z</time></trkpt><trkpt lat="37.9157917" lon="12.8356833"><ele>324.0</ele><time>2026-05-06T11:24:41.565Z</time></trkpt><trkpt lat="37.9157633" lon="12.8357683"><ele>324.0</ele><time>2026-05-06T11:24:42.564Z</time></trkpt><trkpt lat="37.9157183" lon="12.8358417"><ele>324.0</ele><time>2026-05-06T11:24:43.564Z</time></trkpt><trkpt lat="37.91566" lon="12.8359"><ele>324.0</ele><time>2026-05-06T11:24:44.564Z</time></trkpt><trkpt lat="37.9155933" lon="12.8359633"><ele>324.0</ele><time>2026-05-06T11:24:45.563Z</time></trkpt><trkpt lat="37.915535" lon="12.8360383"><ele>324.0</ele><time>2026-05-06T11:24:46.563Z</time></trkpt><trkpt lat="37.9154833" lon="12.8361267"><ele>326.0</ele><time>2026-05-06T11:24:47.565Z</time></trkpt><trkpt lat="37.9154283" lon="12.836215"><ele>328.0</ele><time>2026-05-06T11:24:48.564Z</time></trkpt><trkpt lat="37.915365" lon="12.8362983"><ele>330.0</ele><time>2026-05-06T11:24:49.566Z</time></trkpt><trkpt lat="37.9152917" lon="12.8363733"><ele>332.0</ele><time>2026-05-06T11:24:50.565Z</time></trkpt><trkpt lat="37.9152117" lon="12.8364417"><ele>334.0</ele><time>2026-05-06T11:24:51.563Z</time></trkpt><trkpt lat="37.9151317" lon="12.836515"><ele>331.2</ele><time>2026-05-06T11:24:52.565Z</time></trkpt><trkpt lat="37.9150583" lon="12.8365883"><ele>328.4</ele><time>2026-05-06T11:24:53.564Z</time></trkpt><trkpt lat="37.914985" lon="12.8366667"><ele>325.6</ele><time>2026-05-06T11:24:54.565Z</time></trkpt><trkpt lat="37.9149133" lon="12.8367433"><ele>322.8</ele><time>2026-05-06T11:24:55.564Z</time></trkpt><trkpt lat="37.9148417" lon="12.8368167"><ele>320.0</ele><time>2026-05-06T11:24:56.565Z</time></trkpt><trkpt lat="37.9147617" lon="12.8368833"><ele>320.0</ele><time>2026-05-06T11:24:57.564Z</time></trkpt><trkpt lat="37.9146767" lon="12.8369533"><ele>320.0</ele><time>2026-05-06T11:24:58.564Z</time></trkpt><trkpt lat="37.9146017" lon="12.8370333"><ele>320.0</ele><time>2026-05-06T11:24:59.563Z</time></trkpt><trkpt lat="37.9145267" lon="12.83712"><ele>320.0</ele><time>2026-05-06T11:25:00.565Z</time></trkpt><trkpt lat="37.91445" lon="12.8372083"><ele>320.0</ele><time>2026-05-06T11:25:01.564Z</time></trkpt><trkpt lat="37.9143717" lon="12.8372967"><ele>320.0</ele><time>2026-05-06T11:25:02.566Z</time></trkpt><trkpt lat="37.91429" lon="12.8373783"><ele>320.0</ele><time>2026-05-06T11:25:03.565Z</time></trkpt><trkpt lat="37.9142083" lon="12.8374517"><ele>320.0</ele><time>2026-05-06T11:25:04.564Z</time></trkpt><trkpt lat="37.9141217" lon="12.83751"><ele>320.0</ele><time>2026-05-06T11:25:05.565Z</time></trkpt><trkpt lat="37.9140483" lon="12.8375783"><ele>320.0</ele><time>2026-05-06T11:25:06.564Z</time></trkpt><trkpt lat="37.913985" lon="12.8376567"><ele>317.4</ele><time>2026-05-06T11:25:07.564Z</time></trkpt><trkpt lat="37.9139283" lon="12.8377417"><ele>314.8</ele><time>2026-05-06T11:25:08.564Z</time></trkpt><trkpt lat="37.9138967" lon="12.83785"><ele>312.2</ele><time>2026-05-06T11:25:09.563Z</time></trkpt><trkpt lat="37.9138717" lon="12.8379767"><ele>309.6</ele><time>2026-05-06T11:25:10.563Z</time></trkpt><trkpt lat="37.9138383" lon="12.8380883"><ele>307.0</ele><time>2026-05-06T11:25:11.565Z</time></trkpt><trkpt lat="37.9138017" lon="12.83818"><ele>306.99999999999994</ele><time>2026-05-06T11:25:12.564Z</time></trkpt><trkpt lat="37.9137517" lon="12.8382467"><ele>307.0</ele><time>2026-05-06T11:25:13.564Z</time></trkpt><trkpt lat="37.913715" lon="12.8383167"><ele>307.0</ele><time>2026-05-06T11:25:14.566Z</time></trkpt><trkpt lat="37.9136883" lon="12.8383983"><ele>307.0</ele><time>2026-05-06T11:25:15.564Z</time></trkpt><trkpt lat="37.9136883" lon="12.8384917"><ele>307.0</ele><time>2026-05-06T11:25:16.564Z</time></trkpt><trkpt lat="37.9137033" lon="12.8385867"><ele>306.99999999999994</ele><time>2026-05-06T11:25:17.564Z</time></trkpt><trkpt lat="37.9137133" lon="12.8386767"><ele>307.0</ele><time>2026-05-06T11:25:18.564Z</time></trkpt><trkpt lat="37.9137033" lon="12.838765"><ele>307.0</ele><time>2026-05-06T11:25:19.565Z</time></trkpt><trkpt lat="37.9136667" lon="12.83885"><ele>307.0</ele><time>2026-05-06T11:25:20.567Z</time></trkpt><trkpt lat="37.9136167" lon="12.8389417"><ele>307.0</ele><time>2026-05-06T11:25:21.566Z</time></trkpt><trkpt lat="37.9135683" lon="12.8390517"><ele>307.0</ele><time>2026-05-06T11:25:22.564Z</time></trkpt><trkpt lat="37.91352" lon="12.839175"><ele>307.0</ele><time>2026-05-06T11:25:23.566Z</time></trkpt><trkpt lat="37.9134733" lon="12.8393083"><ele>308.6</ele><time>2026-05-06T11:25:24.564Z</time></trkpt><trkpt lat="37.9134317" lon="12.83944"><ele>310.2</ele><time>2026-05-06T11:25:25.564Z</time></trkpt><trkpt lat="37.9133767" lon="12.8395667"><ele>311.8</ele><time>2026-05-06T11:25:26.565Z</time></trkpt><trkpt lat="37.913315" lon="12.8396733"><ele>313.4</ele><time>2026-05-06T11:25:27.563Z</time></trkpt><trkpt lat="37.913245" lon="12.8397567"><ele>315.0</ele><time>2026-05-06T11:25:28.563Z</time></trkpt><trkpt lat="37.9131917" lon="12.8398367"><ele>312.8333333333333</ele><time>2026-05-06T11:25:29.566Z</time></trkpt><trkpt lat="37.9131417" lon="12.8399233"><ele>310.6666666666667</ele><time>2026-05-06T11:25:30.565Z</time></trkpt><trkpt lat="37.913095" lon="12.8400183"><ele>308.5</ele><time>2026-05-06T11:25:31.564Z</time></trkpt><trkpt lat="37.9130467" lon="12.8401117"><ele>306.33333333333337</ele><time>2026-05-06T11:25:32.565Z</time></trkpt><trkpt lat="37.9130033" lon="12.840205"><ele>304.1666666666667</ele><time>2026-05-06T11:25:33.563Z</time></trkpt><trkpt lat="37.9129683" lon="12.8403067"><ele>302.0</ele><time>2026-05-06T11:25:34.564Z</time></trkpt><trkpt lat="37.9129417" lon="12.8404117"><ele>302.0</ele><time>2026-05-06T11:25:35.564Z</time></trkpt><trkpt lat="37.91291" lon="12.8405133"><ele>302.0</ele><time>2026-05-06T11:25:36.564Z</time></trkpt><trkpt lat="37.912875" lon="12.8406117"><ele>302.0</ele><time>2026-05-06T11:25:37.564Z</time></trkpt><trkpt lat="37.91283" lon="12.8407"><ele>302.0</ele><time>2026-05-06T11:25:38.564Z</time></trkpt><trkpt lat="37.9127933" lon="12.8407867"><ele>302.0</ele><time>2026-05-06T11:25:39.565Z</time></trkpt><trkpt lat="37.912765" lon="12.8408717"><ele>302.0</ele><time>2026-05-06T11:25:40.565Z</time></trkpt><trkpt lat="37.9127483" lon="12.8409567"><ele>303.14285714285717</ele><time>2026-05-06T11:25:41.565Z</time></trkpt><trkpt lat="37.9127317" lon="12.8410383"><ele>304.2857142857143</ele><time>2026-05-06T11:25:42.565Z</time></trkpt><trkpt lat="37.912715" lon="12.8411167"><ele>305.42857142857144</ele><time>2026-05-06T11:25:43.565Z</time></trkpt><trkpt lat="37.9126867" lon="12.8411933"><ele>306.57142857142856</ele><time>2026-05-06T11:25:44.565Z</time></trkpt><trkpt lat="37.9126517" lon="12.841265"><ele>307.7142857142857</ele><time>2026-05-06T11:25:45.565Z</time></trkpt><trkpt lat="37.912615" lon="12.841335"><ele>308.8571428571429</ele><time>2026-05-06T11:25:46.563Z</time></trkpt><trkpt lat="37.9125667" lon="12.8414717"><ele>310.0</ele><time>2026-05-06T11:25:48.564Z</time></trkpt><trkpt lat="37.912545" lon="12.8416183"><ele>303.16666666666663</ele><time>2026-05-06T11:25:50.564Z</time></trkpt><trkpt lat="37.912535" lon="12.8417767"><ele>296.3333333333333</ele><time>2026-05-06T11:25:52.564Z</time></trkpt><trkpt lat="37.912525" lon="12.8418633"><ele>289.5</ele><time>2026-05-06T11:25:53.564Z</time></trkpt><trkpt lat="37.9125083" lon="12.8419483"><ele>282.6666666666667</ele><time>2026-05-06T11:25:54.563Z</time></trkpt><trkpt lat="37.9124983" lon="12.8420317"><ele>275.83333333333337</ele><time>2026-05-06T11:25:55.564Z</time></trkpt><trkpt lat="37.91249" lon="12.8421117"><ele>269.0</ele><time>2026-05-06T11:25:56.564Z</time></trkpt><trkpt lat="37.9124833" lon="12.8421967"><ele>268.8571428571429</ele><time>2026-05-06T11:25:57.564Z</time></trkpt><trkpt lat="37.91247" lon="12.8422833"><ele>268.7142857142857</ele><time>2026-05-06T11:25:58.564Z</time></trkpt><trkpt lat="37.9124417" lon="12.8423633"><ele>268.57142857142856</ele><time>2026-05-06T11:25:59.564Z</time></trkpt><trkpt lat="37.9124067" lon="12.8424383"><ele>268.42857142857144</ele><time>2026-05-06T11:26:00.566Z</time></trkpt><trkpt lat="37.91238" lon="12.8425183"><ele>268.2857142857143</ele><time>2026-05-06T11:26:01.564Z</time></trkpt><trkpt lat="37.912365" lon="12.8426017"><ele>268.14285714285717</ele><time>2026-05-06T11:26:02.565Z</time></trkpt><trkpt lat="37.9123633" lon="12.8426883"><ele>268.0</ele><time>2026-05-06T11:26:03.564Z</time></trkpt><trkpt lat="37.9123717" lon="12.8427733"><ele>267.3333333333333</ele><time>2026-05-06T11:26:04.564Z</time></trkpt><trkpt lat="37.91238" lon="12.8428633"><ele>266.66666666666663</ele><time>2026-05-06T11:26:05.564Z</time></trkpt><trkpt lat="37.9123717" lon="12.84296"><ele>266.0</ele><time>2026-05-06T11:26:06.565Z</time></trkpt><trkpt lat="37.9123433" lon="12.84306"><ele>265.3333333333333</ele><time>2026-05-06T11:26:07.563Z</time></trkpt><trkpt lat="37.9123133" lon="12.843165"><ele>264.6666666666667</ele><time>2026-05-06T11:26:08.565Z</time></trkpt><trkpt lat="37.9122867" lon="12.8432733"><ele>264.0</ele><time>2026-05-06T11:26:09.563Z</time></trkpt><trkpt lat="37.9122483" lon="12.8433767"><ele>263.6666666666667</ele><time>2026-05-06T11:26:10.567Z</time></trkpt><trkpt lat="37.9121983" lon="12.843475"><ele>263.3333333333333</ele><time>2026-05-06T11:26:11.564Z</time></trkpt><trkpt lat="37.912145" lon="12.8435667"><ele>263.0</ele><time>2026-05-06T11:26:12.565Z</time></trkpt><trkpt lat="37.912095" lon="12.84366"><ele>262.66666666666663</ele><time>2026-05-06T11:26:13.564Z</time></trkpt><trkpt lat="37.9120517" lon="12.8437467"><ele>262.3333333333333</ele><time>2026-05-06T11:26:14.564Z</time></trkpt><trkpt lat="37.912015" lon="12.8438317"><ele>262.0</ele><time>2026-05-06T11:26:15.565Z</time></trkpt><trkpt lat="37.9119783" lon="12.8439167"><ele>262.0</ele><time>2026-05-06T11:26:16.565Z</time></trkpt><trkpt lat="37.9119383" lon="12.8439967"><ele>262.0</ele><time>2026-05-06T11:26:17.564Z</time></trkpt><trkpt lat="37.9118883" lon="12.8440567"><ele>262.0</ele><time>2026-05-06T11:26:18.563Z</time></trkpt><trkpt lat="37.911785" lon="12.8440967"><ele>262.0</ele><time>2026-05-06T11:26:20.565Z</time></trkpt><trkpt lat="37.9116533" lon="12.8440283"><ele>262.0</ele><time>2026-05-06T11:26:22.564Z</time></trkpt><trkpt lat="37.91158" lon="12.84397"><ele>258.4</ele><time>2026-05-06T11:26:23.563Z</time></trkpt><trkpt lat="37.9115017" lon="12.8439033"><ele>254.79999999999998</ele><time>2026-05-06T11:26:24.565Z</time></trkpt><trkpt lat="37.9114183" lon="12.8438383"><ele>251.2</ele><time>2026-05-06T11:26:25.566Z</time></trkpt><trkpt lat="37.9113267" lon="12.8437867"><ele>247.6</ele><time>2026-05-06T11:26:26.565Z</time></trkpt><trkpt lat="37.9112333" lon="12.84376"><ele>244.0</ele><time>2026-05-06T11:26:27.565Z</time></trkpt><trkpt lat="37.91114" lon="12.84375"><ele>244.0</ele><time>2026-05-06T11:26:28.565Z</time></trkpt><trkpt lat="37.91104" lon="12.8437467"><ele>243.99999999999997</ele><time>2026-05-06T11:26:29.564Z</time></trkpt><trkpt lat="37.9109367" lon="12.8437433"><ele>243.99999999999997</ele><time>2026-05-06T11:26:30.564Z</time></trkpt><trkpt lat="37.9108333" lon="12.8437383"><ele>244.0</ele><time>2026-05-06T11:26:31.565Z</time></trkpt><trkpt lat="37.910735" lon="12.843735"><ele>244.0</ele><time>2026-05-06T11:26:32.564Z</time></trkpt><trkpt lat="37.9106467" lon="12.84374"><ele>241.66666666666666</ele><time>2026-05-06T11:26:33.565Z</time></trkpt><trkpt lat="37.91056" lon="12.843755"><ele>239.33333333333331</ele><time>2026-05-06T11:26:34.564Z</time></trkpt><trkpt lat="37.91048" lon="12.84378"><ele>237.0</ele><time>2026-05-06T11:26:35.565Z</time></trkpt><trkpt lat="37.9104" lon="12.8438183"><ele>234.66666666666669</ele><time>2026-05-06T11:26:36.564Z</time></trkpt><trkpt lat="37.910325" lon="12.84387"><ele>232.33333333333334</ele><time>2026-05-06T11:26:37.564Z</time></trkpt><trkpt lat="37.9102583" lon="12.8439333"><ele>230.0</ele><time>2026-05-06T11:26:38.564Z</time></trkpt><trkpt lat="37.9101983" lon="12.8440033"><ele>229.99999999999997</ele><time>2026-05-06T11:26:39.564Z</time></trkpt><trkpt lat="37.9101383" lon="12.844075"><ele>230.0</ele><time>2026-05-06T11:26:40.565Z</time></trkpt><trkpt lat="37.910085" lon="12.844145"><ele>229.99999999999997</ele><time>2026-05-06T11:26:41.564Z</time></trkpt><trkpt lat="37.9100383" lon="12.8442067"><ele>229.99999999999997</ele><time>2026-05-06T11:26:42.564Z</time></trkpt><trkpt lat="37.9099967" lon="12.844285"><ele>230.0</ele><time>2026-05-06T11:26:44.564Z</time></trkpt><trkpt lat="37.9099667" lon="12.8443617"><ele>229.99999999999997</ele><time>2026-05-06T11:26:46.565Z</time></trkpt><trkpt lat="37.9099383" lon="12.8444567"><ele>229.99999999999997</ele><time>2026-05-06T11:26:48.564Z</time></trkpt><trkpt lat="37.9099017" lon="12.8445583"><ele>229.4</ele><time>2026-05-06T11:26:50.564Z</time></trkpt><trkpt lat="37.90987" lon="12.8446467"><ele>228.8</ele><time>2026-05-06T11:26:52.564Z</time></trkpt><trkpt lat="37.9098283" lon="12.8447483"><ele>228.2</ele><time>2026-05-06T11:26:55.564Z</time></trkpt><trkpt lat="37.909785" lon="12.8448533"><ele>227.6</ele><time>2026-05-06T11:26:58.563Z</time></trkpt><trkpt lat="37.9097667" lon="12.84494"><ele>227.0</ele><time>2026-05-06T11:27:00.564Z</time></trkpt><trkpt lat="37.9097367" lon="12.8450867"><ele>226.8</ele><time>2026-05-06T11:27:02.565Z</time></trkpt><trkpt lat="37.909725" lon="12.845185"><ele>226.6</ele><time>2026-05-06T11:27:03.564Z</time></trkpt><trkpt lat="37.9097267" lon="12.8452967"><ele>226.40000000000003</ele><time>2026-05-06T11:27:04.565Z</time></trkpt><trkpt lat="37.9097333" lon="12.8454183"><ele>226.20000000000002</ele><time>2026-05-06T11:27:05.564Z</time></trkpt><trkpt lat="37.9097433" lon="12.84555"><ele>226.0</ele><time>2026-05-06T11:27:06.564Z</time></trkpt><trkpt lat="37.909745" lon="12.84569"><ele>226.0</ele><time>2026-05-06T11:27:07.563Z</time></trkpt><trkpt lat="37.90974" lon="12.84583"><ele>226.0</ele><time>2026-05-06T11:27:08.564Z</time></trkpt><trkpt lat="37.9097283" lon="12.8459733"><ele>226.0</ele><time>2026-05-06T11:27:09.565Z</time></trkpt><trkpt lat="37.9097083" lon="12.84612"><ele>226.0</ele><time>2026-05-06T11:27:10.565Z</time></trkpt><trkpt lat="37.909685" lon="12.84626"><ele>225.8</ele><time>2026-05-06T11:27:11.565Z</time></trkpt><trkpt lat="37.90966" lon="12.846385"><ele>225.60000000000002</ele><time>2026-05-06T11:27:12.565Z</time></trkpt><trkpt lat="37.90963" lon="12.8464883"><ele>225.4</ele><time>2026-05-06T11:27:13.563Z</time></trkpt><trkpt lat="37.9095933" lon="12.84657"><ele>225.2</ele><time>2026-05-06T11:27:14.565Z</time></trkpt><trkpt lat="37.909525" lon="12.8466633"><ele>225.0</ele><time>2026-05-06T11:27:16.565Z</time></trkpt><trkpt lat="37.9094333" lon="12.8466717"><ele>225.0</ele><time>2026-05-06T11:27:18.565Z</time></trkpt><trkpt lat="37.9093333" lon="12.846635"><ele>225.0</ele><time>2026-05-06T11:27:20.565Z</time></trkpt><trkpt lat="37.90928" lon="12.84659"><ele>225.0</ele><time>2026-05-06T11:27:21.564Z</time></trkpt><trkpt lat="37.9092217" lon="12.8465283"><ele>225.0</ele><time>2026-05-06T11:27:22.566Z</time></trkpt><trkpt lat="37.90917" lon="12.84645"><ele>225.0</ele><time>2026-05-06T11:27:23.566Z</time></trkpt><trkpt lat="37.9091217" lon="12.846355"><ele>225.0</ele><time>2026-05-06T11:27:24.566Z</time></trkpt><trkpt lat="37.90907" lon="12.84625"><ele>227.0</ele><time>2026-05-06T11:27:25.566Z</time></trkpt><trkpt lat="37.9090167" lon="12.8461367"><ele>229.0</ele><time>2026-05-06T11:27:26.567Z</time></trkpt><trkpt lat="37.90897" lon="12.846015"><ele>231.0</ele><time>2026-05-06T11:27:27.565Z</time></trkpt><trkpt lat="37.908945" lon="12.8458883"><ele>233.0</ele><time>2026-05-06T11:27:28.566Z</time></trkpt><trkpt lat="37.9089417" lon="12.84575"><ele>235.0</ele><time>2026-05-06T11:27:29.564Z</time></trkpt><trkpt lat="37.90895" lon="12.8456033"><ele>235.0</ele><time>2026-05-06T11:27:30.565Z</time></trkpt><trkpt lat="37.9089533" lon="12.8454517"><ele>235.0</ele><time>2026-05-06T11:27:31.565Z</time></trkpt><trkpt lat="37.9089483" lon="12.8452917"><ele>235.0</ele><time>2026-05-06T11:27:32.566Z</time></trkpt><trkpt lat="37.9089267" lon="12.84513"><ele>235.0</ele><time>2026-05-06T11:27:33.564Z</time></trkpt><trkpt lat="37.9089017" lon="12.8449683"><ele>235.75</ele><time>2026-05-06T11:27:34.565Z</time></trkpt><trkpt lat="37.9088783" lon="12.8448033"><ele>236.5</ele><time>2026-05-06T11:27:35.564Z</time></trkpt><trkpt lat="37.908865" lon="12.8446367"><ele>237.25</ele><time>2026-05-06T11:27:36.563Z</time></trkpt><trkpt lat="37.90886" lon="12.8444817"><ele>238.0</ele><time>2026-05-06T11:27:37.564Z</time></trkpt><trkpt lat="37.9088667" lon="12.8443383"><ele>238.5</ele><time>2026-05-06T11:27:38.565Z</time></trkpt><trkpt lat="37.9088867" lon="12.844195"><ele>239.0</ele><time>2026-05-06T11:27:39.565Z</time></trkpt><trkpt lat="37.9089233" lon="12.844055"><ele>239.5</ele><time>2026-05-06T11:27:40.563Z</time></trkpt><trkpt lat="37.9089667" lon="12.84391"><ele>240.0</ele><time>2026-05-06T11:27:41.565Z</time></trkpt><trkpt lat="37.9090033" lon="12.8437567"><ele>240.0</ele><time>2026-05-06T11:27:42.564Z</time></trkpt><trkpt lat="37.9090217" lon="12.8435933"><ele>240.0</ele><time>2026-05-06T11:27:43.564Z</time></trkpt><trkpt lat="37.9090217" lon="12.843425"><ele>240.0</ele><time>2026-05-06T11:27:44.565Z</time></trkpt><trkpt lat="37.9090067" lon="12.8432517"><ele>240.0</ele><time>2026-05-06T11:27:45.565Z</time></trkpt><trkpt lat="37.9089833" lon="12.8430717"><ele>240.25</ele><time>2026-05-06T11:27:46.566Z</time></trkpt><trkpt lat="37.90895" lon="12.8428917"><ele>240.5</ele><time>2026-05-06T11:27:47.565Z</time></trkpt><trkpt lat="37.9089067" lon="12.8427167"><ele>240.75</ele><time>2026-05-06T11:27:48.564Z</time></trkpt><trkpt lat="37.90885" lon="12.842545"><ele>241.0</ele><time>2026-05-06T11:27:49.565Z</time></trkpt><trkpt lat="37.9087783" lon="12.842385"><ele>241.0</ele><time>2026-05-06T11:27:50.566Z</time></trkpt><trkpt lat="37.9086933" lon="12.8422317"><ele>241.0</ele><time>2026-05-06T11:27:51.565Z</time></trkpt><trkpt lat="37.9086017" lon="12.8420783"><ele>241.0</ele><time>2026-05-06T11:27:52.565Z</time></trkpt><trkpt lat="37.9085067" lon="12.8419233"><ele>239.33333333333331</ele><time>2026-05-06T11:27:53.566Z</time></trkpt><trkpt lat="37.90841" lon="12.8417683"><ele>237.66666666666669</ele><time>2026-05-06T11:27:54.565Z</time></trkpt><trkpt lat="37.9083133" lon="12.8416083"><ele>236.0</ele><time>2026-05-06T11:27:55.566Z</time></trkpt><trkpt lat="37.908215" lon="12.8414533"><ele>238.75</ele><time>2026-05-06T11:27:56.565Z</time></trkpt><trkpt lat="37.9081267" lon="12.84131"><ele>241.5</ele><time>2026-05-06T11:27:57.565Z</time></trkpt><trkpt lat="37.908045" lon="12.8411683"><ele>244.25</ele><time>2026-05-06T11:27:58.565Z</time></trkpt><trkpt lat="37.907965" lon="12.8410267"><ele>247.0</ele><time>2026-05-06T11:27:59.564Z</time></trkpt><trkpt lat="37.907885" lon="12.8408833"><ele>247.0</ele><time>2026-05-06T11:28:00.564Z</time></trkpt><trkpt lat="37.9078183" lon="12.8407417"><ele>247.0</ele><time>2026-05-06T11:28:01.564Z</time></trkpt><trkpt lat="37.9077683" lon="12.8406"><ele>247.0</ele><time>2026-05-06T11:28:02.565Z</time></trkpt><trkpt lat="37.907735" lon="12.8404483"><ele>247.0</ele><time>2026-05-06T11:28:03.564Z</time></trkpt><trkpt lat="37.90772" lon="12.8402883"><ele>245.25</ele><time>2026-05-06T11:28:04.564Z</time></trkpt><trkpt lat="37.9077133" lon="12.8401233"><ele>243.5</ele><time>2026-05-06T11:28:05.565Z</time></trkpt><trkpt lat="37.9076983" lon="12.8399583"><ele>241.75</ele><time>2026-05-06T11:28:06.564Z</time></trkpt><trkpt lat="37.9076617" lon="12.839795"><ele>240.0</ele><time>2026-05-06T11:28:07.564Z</time></trkpt><trkpt lat="37.907615" lon="12.8396367"><ele>243.5</ele><time>2026-05-06T11:28:08.564Z</time></trkpt><trkpt lat="37.9075583" lon="12.8394733"><ele>247.0</ele><time>2026-05-06T11:28:09.564Z</time></trkpt><trkpt lat="37.9074933" lon="12.8393067"><ele>250.5</ele><time>2026-05-06T11:28:10.565Z</time></trkpt><trkpt lat="37.90742" lon="12.8391367"><ele>254.0</ele><time>2026-05-06T11:28:11.565Z</time></trkpt><trkpt lat="37.9073383" lon="12.838965"><ele>254.0</ele><time>2026-05-06T11:28:12.564Z</time></trkpt><trkpt lat="37.90725" lon="12.8387933"><ele>254.0</ele><time>2026-05-06T11:28:13.564Z</time></trkpt><trkpt lat="37.9071667" lon="12.8386283"><ele>254.0</ele><time>2026-05-06T11:28:14.568Z</time></trkpt><trkpt lat="37.9070933" lon="12.8384667"><ele>253.0</ele><time>2026-05-06T11:28:15.565Z</time></trkpt><trkpt lat="37.9070267" lon="12.8383067"><ele>252.0</ele><time>2026-05-06T11:28:16.565Z</time></trkpt><trkpt lat="37.906965" lon="12.838135"><ele>251.0</ele><time>2026-05-06T11:28:17.565Z</time></trkpt><trkpt lat="37.9069083" lon="12.83796"><ele>250.0</ele><time>2026-05-06T11:28:18.564Z</time></trkpt><trkpt lat="37.9068567" lon="12.8377917"><ele>249.0</ele><time>2026-05-06T11:28:19.565Z</time></trkpt><trkpt lat="37.9068083" lon="12.8376333"><ele>248.0</ele><time>2026-05-06T11:28:20.567Z</time></trkpt><trkpt lat="37.9067633" lon="12.837485"><ele>247.0</ele><time>2026-05-06T11:28:21.564Z</time></trkpt><trkpt lat="37.90672" lon="12.83734"><ele>246.0</ele><time>2026-05-06T11:28:22.565Z</time></trkpt><trkpt lat="37.9066733" lon="12.837195"><ele>248.5</ele><time>2026-05-06T11:28:23.565Z</time></trkpt><trkpt lat="37.9066183" lon="12.8370533"><ele>251.0</ele><time>2026-05-06T11:28:24.565Z</time></trkpt><trkpt lat="37.9065583" lon="12.8369117"><ele>253.5</ele><time>2026-05-06T11:28:25.566Z</time></trkpt><trkpt lat="37.9064967" lon="12.8367717"><ele>256.0</ele><time>2026-05-06T11:28:26.567Z</time></trkpt><trkpt lat="37.9064317" lon="12.8366317"><ele>256.0</ele><time>2026-05-06T11:28:27.567Z</time></trkpt><trkpt lat="37.906365" lon="12.8364917"><ele>256.0</ele><time>2026-05-06T11:28:28.565Z</time></trkpt><trkpt lat="37.9062933" lon="12.8363533"><ele>256.0</ele><time>2026-05-06T11:28:29.566Z</time></trkpt><trkpt lat="37.9062183" lon="12.8362233"><ele>256.0</ele><time>2026-05-06T11:28:30.565Z</time></trkpt><trkpt lat="37.906135" lon="12.8361083"><ele>256.0</ele><time>2026-05-06T11:28:31.564Z</time></trkpt><trkpt lat="37.9060483" lon="12.836"><ele>256.0</ele><time>2026-05-06T11:28:32.565Z</time></trkpt><trkpt lat="37.905965" lon="12.8358917"><ele>256.0</ele><time>2026-05-06T11:28:33.564Z</time></trkpt><trkpt lat="37.9058833" lon="12.8357833"><ele>256.0</ele><time>2026-05-06T11:28:34.565Z</time></trkpt><trkpt lat="37.9058067" lon="12.835675"><ele>256.8</ele><time>2026-05-06T11:28:35.564Z</time></trkpt><trkpt lat="37.9057417" lon="12.83557"><ele>257.6</ele><time>2026-05-06T11:28:36.564Z</time></trkpt><trkpt lat="37.9056883" lon="12.8354667"><ele>258.4</ele><time>2026-05-06T11:28:37.564Z</time></trkpt><trkpt lat="37.905645" lon="12.835365"><ele>259.2</ele><time>2026-05-06T11:28:38.566Z</time></trkpt><trkpt lat="37.9056167" lon="12.8352617"><ele>260.0</ele><time>2026-05-06T11:28:39.564Z</time></trkpt><trkpt lat="37.9055933" lon="12.8351617"><ele>258.6</ele><time>2026-05-06T11:28:40.564Z</time></trkpt><trkpt lat="37.9055667" lon="12.83507"><ele>257.2</ele><time>2026-05-06T11:28:41.564Z</time></trkpt><trkpt lat="37.9055183" lon="12.8349883"><ele>255.8</ele><time>2026-05-06T11:28:42.564Z</time></trkpt><trkpt lat="37.90545" lon="12.834915"><ele>254.4</ele><time>2026-05-06T11:28:43.564Z</time></trkpt><trkpt lat="37.9053667" lon="12.8348433"><ele>253.0</ele><time>2026-05-06T11:28:44.565Z</time></trkpt><trkpt lat="37.905275" lon="12.8347633"><ele>253.0</ele><time>2026-05-06T11:28:45.563Z</time></trkpt><trkpt lat="37.9051833" lon="12.8346717"><ele>253.0</ele><time>2026-05-06T11:28:46.564Z</time></trkpt><trkpt lat="37.90509" lon="12.8345717"><ele>253.0</ele><time>2026-05-06T11:28:47.565Z</time></trkpt><trkpt lat="37.904995" lon="12.8344617"><ele>253.0</ele><time>2026-05-06T11:28:48.565Z</time></trkpt><trkpt lat="37.9048967" lon="12.8343433"><ele>253.75</ele><time>2026-05-06T11:28:49.564Z</time></trkpt><trkpt lat="37.9047967" lon="12.83422"><ele>254.5</ele><time>2026-05-06T11:28:50.566Z</time></trkpt><trkpt lat="37.9046933" lon="12.8340967"><ele>255.25</ele><time>2026-05-06T11:28:51.564Z</time></trkpt><trkpt lat="37.90459" lon="12.8339683"><ele>256.0</ele><time>2026-05-06T11:28:52.565Z</time></trkpt><trkpt lat="37.904485" lon="12.8338383"><ele>256.0</ele><time>2026-05-06T11:28:53.565Z</time></trkpt><trkpt lat="37.90438" lon="12.8337083"><ele>256.0</ele><time>2026-05-06T11:28:54.563Z</time></trkpt><trkpt lat="37.904275" lon="12.8335783"><ele>256.0</ele><time>2026-05-06T11:28:55.565Z</time></trkpt><trkpt lat="37.90417" lon="12.83345"><ele>256.0</ele><time>2026-05-06T11:28:56.564Z</time></trkpt><trkpt lat="37.9040617" lon="12.8333233"><ele>257.75</ele><time>2026-05-06T11:28:57.566Z</time></trkpt><trkpt lat="37.90395" lon="12.8332033"><ele>259.5</ele><time>2026-05-06T11:28:58.564Z</time></trkpt><trkpt lat="37.9038317" lon="12.83309"><ele>261.25</ele><time>2026-05-06T11:28:59.565Z</time></trkpt><trkpt lat="37.90371" lon="12.8329817"><ele>263.0</ele><time>2026-05-06T11:29:00.565Z</time></trkpt><trkpt lat="37.903585" lon="12.832875"><ele>263.0</ele><time>2026-05-06T11:29:01.564Z</time></trkpt><trkpt lat="37.9034583" lon="12.8327717"><ele>263.0</ele><time>2026-05-06T11:29:02.565Z</time></trkpt><trkpt lat="37.9033283" lon="12.832675"><ele>263.0</ele><time>2026-05-06T11:29:03.565Z</time></trkpt><trkpt lat="37.903195" lon="12.8325783"><ele>263.33333333333337</ele><time>2026-05-06T11:29:04.565Z</time></trkpt><trkpt lat="37.9030617" lon="12.8324783"><ele>263.6666666666667</ele><time>2026-05-06T11:29:05.569Z</time></trkpt><trkpt lat="37.9029283" lon="12.83238"><ele>264.0</ele><time>2026-05-06T11:29:06.563Z</time></trkpt><trkpt lat="37.9027917" lon="12.8322817"><ele>264.0</ele><time>2026-05-06T11:29:07.564Z</time></trkpt><trkpt lat="37.9026567" lon="12.8321833"><ele>264.0</ele><time>2026-05-06T11:29:08.564Z</time></trkpt><trkpt lat="37.9025217" lon="12.832085"><ele>264.0</ele><time>2026-05-06T11:29:09.564Z</time></trkpt><trkpt lat="37.9023883" lon="12.8319883"><ele>264.6666666666667</ele><time>2026-05-06T11:29:10.564Z</time></trkpt><trkpt lat="37.9022517" lon="12.8318967"><ele>265.33333333333337</ele><time>2026-05-06T11:29:11.564Z</time></trkpt><trkpt lat="37.90211" lon="12.8318117"><ele>266.0</ele><time>2026-05-06T11:29:12.564Z</time></trkpt><trkpt lat="37.901965" lon="12.8317417"><ele>266.0</ele><time>2026-05-06T11:29:13.564Z</time></trkpt><trkpt lat="37.9018167" lon="12.83169"><ele>266.0</ele><time>2026-05-06T11:29:14.565Z</time></trkpt><trkpt lat="37.9016633" lon="12.8316583"><ele>266.0</ele><time>2026-05-06T11:29:15.565Z</time></trkpt><trkpt lat="37.9015067" lon="12.8316417"><ele>269.6666666666667</ele><time>2026-05-06T11:29:16.563Z</time></trkpt><trkpt lat="37.9013483" lon="12.8316317"><ele>273.3333333333333</ele><time>2026-05-06T11:29:17.564Z</time></trkpt><trkpt lat="37.9011917" lon="12.8316183"><ele>277.0</ele><time>2026-05-06T11:29:18.565Z</time></trkpt><trkpt lat="37.9010367" lon="12.8316017"><ele>277.75</ele><time>2026-05-06T11:29:19.565Z</time></trkpt><trkpt lat="37.9008883" lon="12.831585"><ele>278.5</ele><time>2026-05-06T11:29:20.565Z</time></trkpt><trkpt lat="37.9007417" lon="12.8315633"><ele>279.25</ele><time>2026-05-06T11:29:21.565Z</time></trkpt><trkpt lat="37.9005917" lon="12.8315417"><ele>280.0</ele><time>2026-05-06T11:29:22.564Z</time></trkpt><trkpt lat="37.90044" lon="12.8315167"><ele>280.0</ele><time>2026-05-06T11:29:23.565Z</time></trkpt><trkpt lat="37.9002867" lon="12.831485"><ele>280.0</ele><time>2026-05-06T11:29:24.565Z</time></trkpt><trkpt lat="37.90013" lon="12.8314467"><ele>280.0</ele><time>2026-05-06T11:29:25.564Z</time></trkpt><trkpt lat="37.8999717" lon="12.8314033"><ele>283.0</ele><time>2026-05-06T11:29:26.566Z</time></trkpt><trkpt lat="37.89981" lon="12.8313567"><ele>286.0</ele><time>2026-05-06T11:29:27.564Z</time></trkpt><trkpt lat="37.8996433" lon="12.8313117"><ele>289.0</ele><time>2026-05-06T11:29:28.565Z</time></trkpt><trkpt lat="37.8994767" lon="12.8312633"><ele>289.0</ele><time>2026-05-06T11:29:29.564Z</time></trkpt><trkpt lat="37.8993067" lon="12.8312167"><ele>289.0</ele><time>2026-05-06T11:29:30.564Z</time></trkpt><trkpt lat="37.899135" lon="12.8311733"><ele>289.0</ele><time>2026-05-06T11:29:31.564Z</time></trkpt><trkpt lat="37.8989583" lon="12.8311367"><ele>291.0</ele><time>2026-05-06T11:29:32.565Z</time></trkpt><trkpt lat="37.89878" lon="12.8311017"><ele>293.0</ele><time>2026-05-06T11:29:33.564Z</time></trkpt><trkpt lat="37.8986033" lon="12.8310683"><ele>295.0</ele><time>2026-05-06T11:29:34.565Z</time></trkpt><trkpt lat="37.8984283" lon="12.83103"><ele>291.3333333333333</ele><time>2026-05-06T11:29:35.564Z</time></trkpt><trkpt lat="37.898255" lon="12.8309817"><ele>287.6666666666667</ele><time>2026-05-06T11:29:36.563Z</time></trkpt><trkpt lat="37.89809" lon="12.83092"><ele>284.0</ele><time>2026-05-06T11:29:37.564Z</time></trkpt><trkpt lat="37.8979333" lon="12.8308583"><ele>284.0</ele><time>2026-05-06T11:29:38.565Z</time></trkpt><trkpt lat="37.89778" lon="12.8308133"><ele>284.0</ele><time>2026-05-06T11:29:39.565Z</time></trkpt><trkpt lat="37.8976317" lon="12.8308033"><ele>284.0</ele><time>2026-05-06T11:29:40.564Z</time></trkpt><trkpt lat="37.89748" lon="12.8308133"><ele>284.25</ele><time>2026-05-06T11:29:41.563Z</time></trkpt><trkpt lat="37.8973267" lon="12.8308233"><ele>284.5</ele><time>2026-05-06T11:29:42.565Z</time></trkpt><trkpt lat="37.8971817" lon="12.8308167"><ele>284.75</ele><time>2026-05-06T11:29:43.566Z</time></trkpt><trkpt lat="37.897055" lon="12.83079"><ele>285.0</ele><time>2026-05-06T11:29:44.566Z</time></trkpt><trkpt lat="37.8969533" lon="12.83074"><ele>285.0</ele><time>2026-05-06T11:29:45.565Z</time></trkpt><trkpt lat="37.896875" lon="12.830655"><ele>285.0</ele><time>2026-05-06T11:29:46.566Z</time></trkpt><trkpt lat="37.896805" lon="12.830555"><ele>285.0</ele><time>2026-05-06T11:29:47.566Z</time></trkpt><trkpt lat="37.8967283" lon="12.8304467"><ele>285.0</ele><time>2026-05-06T11:29:48.565Z</time></trkpt><trkpt lat="37.89664" lon="12.8303367"><ele>285.0</ele><time>2026-05-06T11:29:49.565Z</time></trkpt><trkpt lat="37.8965433" lon="12.83023"><ele>285.5</ele><time>2026-05-06T11:29:50.566Z</time></trkpt><trkpt lat="37.896435" lon="12.83013"><ele>286.0</ele><time>2026-05-06T11:29:51.565Z</time></trkpt><trkpt lat="37.8963183" lon="12.8300417"><ele>286.5</ele><time>2026-05-06T11:29:52.566Z</time></trkpt><trkpt lat="37.8961933" lon="12.8299583"><ele>287.0</ele><time>2026-05-06T11:29:53.566Z</time></trkpt><trkpt lat="37.8960717" lon="12.8298717"><ele>287.0</ele><time>2026-05-06T11:29:54.564Z</time></trkpt><trkpt lat="37.8959733" lon="12.8297667"><ele>287.0</ele><time>2026-05-06T11:29:55.564Z</time></trkpt><trkpt lat="37.8958917" lon="12.82964"><ele>287.0</ele><time>2026-05-06T11:29:56.565Z</time></trkpt><trkpt lat="37.895825" lon="12.829495"><ele>287.0</ele><time>2026-05-06T11:29:57.565Z</time></trkpt><trkpt lat="37.8957633" lon="12.8293383"><ele>289.0</ele><time>2026-05-06T11:29:58.565Z</time></trkpt><trkpt lat="37.8956983" lon="12.829175"><ele>291.0</ele><time>2026-05-06T11:29:59.565Z</time></trkpt><trkpt lat="37.8956233" lon="12.8290167"><ele>293.0</ele><time>2026-05-06T11:30:00.565Z</time></trkpt><trkpt lat="37.8955367" lon="12.828865"><ele>295.0</ele><time>2026-05-06T11:30:01.565Z</time></trkpt><trkpt lat="37.8954417" lon="12.8287217"><ele>295.0</ele><time>2026-05-06T11:30:02.566Z</time></trkpt><trkpt lat="37.8953367" lon="12.82859"><ele>295.0</ele><time>2026-05-06T11:30:03.566Z</time></trkpt><trkpt lat="37.895225" lon="12.8284717"><ele>295.0</ele><time>2026-05-06T11:30:04.566Z</time></trkpt><trkpt lat="37.8951167" lon="12.8283667"><ele>295.0</ele><time>2026-05-06T11:30:05.566Z</time></trkpt><trkpt lat="37.89501" lon="12.8282767"><ele>297.4</ele><time>2026-05-06T11:30:06.566Z</time></trkpt><trkpt lat="37.894905" lon="12.828205"><ele>299.8</ele><time>2026-05-06T11:30:07.566Z</time></trkpt><trkpt lat="37.8948" lon="12.828165"><ele>302.2</ele><time>2026-05-06T11:30:08.566Z</time></trkpt><trkpt lat="37.8946983" lon="12.828175"><ele>304.6</ele><time>2026-05-06T11:30:09.564Z</time></trkpt><trkpt lat="37.8946067" lon="12.828235"><ele>307.0</ele><time>2026-05-06T11:30:10.566Z</time></trkpt><trkpt lat="37.89452" lon="12.8283217"><ele>307.0</ele><time>2026-05-06T11:30:11.565Z</time></trkpt><trkpt lat="37.8944367" lon="12.828425"><ele>307.0</ele><time>2026-05-06T11:30:12.565Z</time></trkpt><trkpt lat="37.8943517" lon="12.8285383"><ele>307.0</ele><time>2026-05-06T11:30:13.563Z</time></trkpt><trkpt lat="37.8942583" lon="12.8286517"><ele>307.0</ele><time>2026-05-06T11:30:14.564Z</time></trkpt><trkpt lat="37.8941583" lon="12.8287667"><ele>307.75</ele><time>2026-05-06T11:30:15.565Z</time></trkpt><trkpt lat="37.8940483" lon="12.8288783"><ele>308.5</ele><time>2026-05-06T11:30:16.564Z</time></trkpt><trkpt lat="37.8939333" lon="12.8289833"><ele>309.25</ele><time>2026-05-06T11:30:17.565Z</time></trkpt><trkpt lat="37.893815" lon="12.8290783"><ele>310.0</ele><time>2026-05-06T11:30:18.565Z</time></trkpt><trkpt lat="37.8936883" lon="12.829155"><ele>310.0</ele><time>2026-05-06T11:30:19.564Z</time></trkpt><trkpt lat="37.8935567" lon="12.829205"><ele>310.0</ele><time>2026-05-06T11:30:20.565Z</time></trkpt><trkpt lat="37.8934233" lon="12.8292467"><ele>310.0</ele><time>2026-05-06T11:30:21.566Z</time></trkpt><trkpt lat="37.8932917" lon="12.8292883"><ele>310.0</ele><time>2026-05-06T11:30:22.564Z</time></trkpt><trkpt lat="37.8931617" lon="12.8293383"><ele>309.5</ele><time>2026-05-06T11:30:23.564Z</time></trkpt><trkpt lat="37.8930317" lon="12.8293983"><ele>309.0</ele><time>2026-05-06T11:30:24.563Z</time></trkpt><trkpt lat="37.8929067" lon="12.8294633"><ele>308.5</ele><time>2026-05-06T11:30:25.564Z</time></trkpt><trkpt lat="37.8927733" lon="12.82952"><ele>308.0</ele><time>2026-05-06T11:30:26.566Z</time></trkpt><trkpt lat="37.892635" lon="12.829555"><ele>310.75</ele><time>2026-05-06T11:30:27.565Z</time></trkpt><trkpt lat="37.8924933" lon="12.8295733"><ele>313.5</ele><time>2026-05-06T11:30:28.566Z</time></trkpt><trkpt lat="37.8923467" lon="12.8295867"><ele>316.25</ele><time>2026-05-06T11:30:29.565Z</time></trkpt><trkpt lat="37.8922017" lon="12.8295883"><ele>319.0</ele><time>2026-05-06T11:30:30.564Z</time></trkpt><trkpt lat="37.8920583" lon="12.829575"><ele>319.0</ele><time>2026-05-06T11:30:31.566Z</time></trkpt><trkpt lat="37.8919267" lon="12.8295433"><ele>319.0</ele><time>2026-05-06T11:30:32.566Z</time></trkpt><trkpt lat="37.8918083" lon="12.8294883"><ele>319.0</ele><time>2026-05-06T11:30:33.563Z</time></trkpt><trkpt lat="37.8917083" lon="12.8294117"><ele>319.0</ele><time>2026-05-06T11:30:34.565Z</time></trkpt><trkpt lat="37.8916383" lon="12.8293117"><ele>324.0</ele><time>2026-05-06T11:30:35.564Z</time></trkpt><trkpt lat="37.8915833" lon="12.82919"><ele>329.0</ele><time>2026-05-06T11:30:36.564Z</time></trkpt><trkpt lat="37.8915267" lon="12.8290617"><ele>334.0</ele><time>2026-05-06T11:30:37.566Z</time></trkpt><trkpt lat="37.8914667" lon="12.8289483"><ele>339.0</ele><time>2026-05-06T11:30:38.565Z</time></trkpt><trkpt lat="37.8913983" lon="12.8288733"><ele>344.0</ele><time>2026-05-06T11:30:39.564Z</time></trkpt><trkpt lat="37.8913267" lon="12.8288267"><ele>344.0</ele><time>2026-05-06T11:30:40.566Z</time></trkpt><trkpt lat="37.891245" lon="12.8288483"><ele>344.0</ele><time>2026-05-06T11:30:41.564Z</time></trkpt><trkpt lat="37.8911667" lon="12.8289"><ele>344.0</ele><time>2026-05-06T11:30:42.566Z</time></trkpt><trkpt lat="37.891095" lon="12.8289867"><ele>344.0</ele><time>2026-05-06T11:30:43.564Z</time></trkpt><trkpt lat="37.8910283" lon="12.8291033"><ele>344.0</ele><time>2026-05-06T11:30:44.565Z</time></trkpt><trkpt lat="37.8909567" lon="12.8292183"><ele>344.6</ele><time>2026-05-06T11:30:45.565Z</time></trkpt><trkpt lat="37.8908833" lon="12.829305"><ele>345.2</ele><time>2026-05-06T11:30:46.566Z</time></trkpt><trkpt lat="37.8908067" lon="12.8293467"><ele>345.8</ele><time>2026-05-06T11:30:47.564Z</time></trkpt><trkpt lat="37.890735" lon="12.8293483"><ele>346.40000000000003</ele><time>2026-05-06T11:30:48.564Z</time></trkpt><trkpt lat="37.8906967" lon="12.829195"><ele>347.0</ele><time>2026-05-06T11:30:50.565Z</time></trkpt><trkpt lat="37.89072" lon="12.82909"><ele>347.0</ele><time>2026-05-06T11:30:51.565Z</time></trkpt><trkpt lat="37.8907417" lon="12.828975"><ele>347.0</ele><time>2026-05-06T11:30:52.563Z</time></trkpt><trkpt lat="37.8907417" lon="12.8288583"><ele>347.0</ele><time>2026-05-06T11:30:53.564Z</time></trkpt><trkpt lat="37.8907217" lon="12.82876"><ele>347.0</ele><time>2026-05-06T11:30:54.564Z</time></trkpt><trkpt lat="37.89068" lon="12.8286883"><ele>347.0</ele><time>2026-05-06T11:30:55.565Z</time></trkpt><trkpt lat="37.89062" lon="12.8286533"><ele>347.0</ele><time>2026-05-06T11:30:56.565Z</time></trkpt><trkpt lat="37.8905333" lon="12.8286633"><ele>347.0</ele><time>2026-05-06T11:30:57.564Z</time></trkpt><trkpt lat="37.89043" lon="12.8286917"><ele>347.0</ele><time>2026-05-06T11:30:58.565Z</time></trkpt><trkpt lat="37.8903167" lon="12.8287217"><ele>347.0</ele><time>2026-05-06T11:30:59.565Z</time></trkpt><trkpt lat="37.8901917" lon="12.828755"><ele>347.0</ele><time>2026-05-06T11:31:00.565Z</time></trkpt><trkpt lat="37.8900583" lon="12.8287817"><ele>348.75</ele><time>2026-05-06T11:31:01.565Z</time></trkpt><trkpt lat="37.8899183" lon="12.8287867"><ele>350.5</ele><time>2026-05-06T11:31:02.567Z</time></trkpt><trkpt lat="37.8897767" lon="12.8287617"><ele>352.25</ele><time>2026-05-06T11:31:03.566Z</time></trkpt><trkpt lat="37.8896317" lon="12.828715"><ele>354.0</ele><time>2026-05-06T11:31:04.565Z</time></trkpt><trkpt lat="37.8894833" lon="12.8286517"><ele>354.0</ele><time>2026-05-06T11:31:05.566Z</time></trkpt><trkpt lat="37.8893333" lon="12.828575"><ele>354.0</ele><time>2026-05-06T11:31:06.568Z</time></trkpt><trkpt lat="37.8891817" lon="12.828495"><ele>354.0</ele><time>2026-05-06T11:31:07.566Z</time></trkpt><trkpt lat="37.8890333" lon="12.8284133"><ele>358.6666666666667</ele><time>2026-05-06T11:31:08.565Z</time></trkpt><trkpt lat="37.8888817" lon="12.8283333"><ele>363.33333333333337</ele><time>2026-05-06T11:31:09.564Z</time></trkpt><trkpt lat="37.8887267" lon="12.8282567"><ele>368.0</ele><time>2026-05-06T11:31:10.564Z</time></trkpt><trkpt lat="37.888565" lon="12.828185"><ele>367.6666666666667</ele><time>2026-05-06T11:31:11.564Z</time></trkpt><trkpt lat="37.8884017" lon="12.828125"><ele>367.3333333333333</ele><time>2026-05-06T11:31:12.565Z</time></trkpt><trkpt lat="37.8882333" lon="12.8280767"><ele>367.0</ele><time>2026-05-06T11:31:13.565Z</time></trkpt><trkpt lat="37.8880633" lon="12.8280383"><ele>367.0</ele><time>2026-05-06T11:31:14.565Z</time></trkpt><trkpt lat="37.8878933" lon="12.8279967"><ele>367.0</ele><time>2026-05-06T11:31:15.565Z</time></trkpt><trkpt lat="37.8877333" lon="12.8279483"><ele>367.0</ele><time>2026-05-06T11:31:16.563Z</time></trkpt><trkpt lat="37.887585" lon="12.827895"><ele>366.5</ele><time>2026-05-06T11:31:17.564Z</time></trkpt><trkpt lat="37.887445" lon="12.8278433"><ele>366.0</ele><time>2026-05-06T11:31:18.564Z</time></trkpt><trkpt lat="37.8873033" lon="12.8277883"><ele>365.5</ele><time>2026-05-06T11:31:19.564Z</time></trkpt><trkpt lat="37.8871633" lon="12.8277333"><ele>365.0</ele><time>2026-05-06T11:31:20.564Z</time></trkpt><trkpt lat="37.8870217" lon="12.8276783"><ele>368.0</ele><time>2026-05-06T11:31:21.564Z</time></trkpt><trkpt lat="37.88688" lon="12.8276267"><ele>371.0</ele><time>2026-05-06T11:31:22.564Z</time></trkpt><trkpt lat="37.886735" lon="12.827585"><ele>374.0</ele><time>2026-05-06T11:31:23.564Z</time></trkpt><trkpt lat="37.88659" lon="12.8275583"><ele>377.0</ele><time>2026-05-06T11:31:24.564Z</time></trkpt><trkpt lat="37.88644" lon="12.8275517"><ele>378.6666666666667</ele><time>2026-05-06T11:31:25.563Z</time></trkpt><trkpt lat="37.8862867" lon="12.8275667"><ele>380.3333333333333</ele><time>2026-05-06T11:31:26.566Z</time></trkpt><trkpt lat="37.8861367" lon="12.827605"><ele>382.0</ele><time>2026-05-06T11:31:27.565Z</time></trkpt><trkpt lat="37.885985" lon="12.8276567"><ele>380.3333333333333</ele><time>2026-05-06T11:31:28.566Z</time></trkpt><trkpt lat="37.8858317" lon="12.8277167"><ele>378.6666666666667</ele><time>2026-05-06T11:31:29.564Z</time></trkpt><trkpt lat="37.8856767" lon="12.8277783"><ele>377.0</ele><time>2026-05-06T11:31:30.564Z</time></trkpt><trkpt lat="37.8855183" lon="12.827845"><ele>377.0</ele><time>2026-05-06T11:31:31.564Z</time></trkpt><trkpt lat="37.8853717" lon="12.8279083"><ele>377.0</ele><time>2026-05-06T11:31:32.565Z</time></trkpt><trkpt lat="37.8852333" lon="12.8279633"><ele>377.0</ele><time>2026-05-06T11:31:33.564Z</time></trkpt><trkpt lat="37.8851033" lon="12.8280083"><ele>377.0</ele><time>2026-05-06T11:31:34.565Z</time></trkpt><trkpt lat="37.8849717" lon="12.8280367"><ele>380.0</ele><time>2026-05-06T11:31:35.563Z</time></trkpt><trkpt lat="37.8848383" lon="12.8280483"><ele>383.0</ele><time>2026-05-06T11:31:36.565Z</time></trkpt><trkpt lat="37.8847033" lon="12.8280583"><ele>386.0</ele><time>2026-05-06T11:31:37.564Z</time></trkpt><trkpt lat="37.8845667" lon="12.8280683"><ele>389.0</ele><time>2026-05-06T11:31:38.565Z</time></trkpt><trkpt lat="37.8844283" lon="12.8280833"><ele>389.0</ele><time>2026-05-06T11:31:39.564Z</time></trkpt><trkpt lat="37.8842883" lon="12.8281067"><ele>389.0</ele><time>2026-05-06T11:31:40.566Z</time></trkpt><trkpt lat="37.884145" lon="12.8281433"><ele>389.0</ele><time>2026-05-06T11:31:41.564Z</time></trkpt><trkpt lat="37.8839983" lon="12.828195"><ele>389.0</ele><time>2026-05-06T11:31:42.564Z</time></trkpt><trkpt lat="37.8838533" lon="12.8282533"><ele>391.0</ele><time>2026-05-06T11:31:43.564Z</time></trkpt><trkpt lat="37.8837067" lon="12.8283167"><ele>393.0</ele><time>2026-05-06T11:31:44.565Z</time></trkpt><trkpt lat="37.88356" lon="12.8283783"><ele>395.0</ele><time>2026-05-06T11:31:45.563Z</time></trkpt><trkpt lat="37.8834117" lon="12.8284217"><ele>397.0</ele><time>2026-05-06T11:31:46.563Z</time></trkpt><trkpt lat="37.883265" lon="12.8284333"><ele>399.0</ele><time>2026-05-06T11:31:47.564Z</time></trkpt><trkpt lat="37.8831133" lon="12.8284183"><ele>401.0</ele><time>2026-05-06T11:31:48.564Z</time></trkpt><trkpt lat="37.8829583" lon="12.8283917"><ele>401.0</ele><time>2026-05-06T11:31:49.564Z</time></trkpt><trkpt lat="37.8828017" lon="12.8283583"><ele>401.0</ele><time>2026-05-06T11:31:50.565Z</time></trkpt><trkpt lat="37.8826433" lon="12.82833"><ele>401.0</ele><time>2026-05-06T11:31:51.564Z</time></trkpt><trkpt lat="37.882495" lon="12.8283"><ele>402.5</ele><time>2026-05-06T11:31:52.567Z</time></trkpt><trkpt lat="37.8823667" lon="12.8282517"><ele>404.0</ele><time>2026-05-06T11:31:53.565Z</time></trkpt><trkpt lat="37.8822533" lon="12.8281717"><ele>405.5</ele><time>2026-05-06T11:31:54.565Z</time></trkpt><trkpt lat="37.8821467" lon="12.8280683"><ele>407.0</ele><time>2026-05-06T11:31:55.565Z</time></trkpt><trkpt lat="37.8820367" lon="12.8279533"><ele>407.0</ele><time>2026-05-06T11:31:56.566Z</time></trkpt><trkpt lat="37.8819333" lon="12.827835"><ele>407.0</ele><time>2026-05-06T11:31:57.564Z</time></trkpt><trkpt lat="37.881845" lon="12.8277133"><ele>407.0</ele><time>2026-05-06T11:31:58.565Z</time></trkpt><trkpt lat="37.8817637" lon="12.8275951"><ele>407.0</ele><time>2026-05-06T11:31:59.565Z</time></trkpt><trkpt lat="37.881682" lon="12.827487"><ele>406.25</ele><time>2026-05-06T11:32:00.564Z</time></trkpt><trkpt lat="37.881592" lon="12.8274009"><ele>405.5</ele><time>2026-05-06T11:32:01.564Z</time></trkpt><trkpt lat="37.8814908" lon="12.8273411"><ele>404.75</ele><time>2026-05-06T11:32:02.566Z</time></trkpt><trkpt lat="37.8813794" lon="12.8273167"><ele>404.0</ele><time>2026-05-06T11:32:03.565Z</time></trkpt><trkpt lat="37.8812678" lon="12.8273384"><ele>404.0</ele><time>2026-05-06T11:32:04.566Z</time></trkpt><trkpt lat="37.8811642" lon="12.8274037"><ele>404.0</ele><time>2026-05-06T11:32:05.565Z</time></trkpt><trkpt lat="37.8810671" lon="12.827494"><ele>404.0</ele><time>2026-05-06T11:32:06.566Z</time></trkpt><trkpt lat="37.8809716" lon="12.8275801"><ele>404.0</ele><time>2026-05-06T11:32:07.565Z</time></trkpt><trkpt lat="37.8808723" lon="12.8276391"><ele>412.25</ele><time>2026-05-06T11:32:08.566Z</time></trkpt><trkpt lat="37.8807638" lon="12.8276734"><ele>420.5</ele><time>2026-05-06T11:32:09.566Z</time></trkpt><trkpt lat="37.8806475" lon="12.8276864"><ele>428.75</ele><time>2026-05-06T11:32:10.566Z</time></trkpt><trkpt lat="37.8805241" lon="12.8276912"><ele>437.0</ele><time>2026-05-06T11:32:11.565Z</time></trkpt><trkpt lat="37.8803991" lon="12.8276941"><ele>437.0</ele><time>2026-05-06T11:32:12.564Z</time></trkpt><trkpt lat="37.8802804" lon="12.8276821"><ele>437.0</ele><time>2026-05-06T11:32:13.565Z</time></trkpt><trkpt lat="37.8801748" lon="12.827637"><ele>437.0</ele><time>2026-05-06T11:32:14.568Z</time></trkpt><trkpt lat="37.8800801" lon="12.8275612"><ele>437.0</ele><time>2026-05-06T11:32:15.565Z</time></trkpt><trkpt lat="37.8800013" lon="12.8274547"><ele>434.5</ele><time>2026-05-06T11:32:16.564Z</time></trkpt><trkpt lat="37.8799278" lon="12.8273342"><ele>432.0</ele><time>2026-05-06T11:32:17.565Z</time></trkpt><trkpt lat="37.8798521" lon="12.8272177"><ele>429.5</ele><time>2026-05-06T11:32:18.564Z</time></trkpt><trkpt lat="37.8797591" lon="12.8271162"><ele>427.0</ele><time>2026-05-06T11:32:19.565Z</time></trkpt><trkpt lat="37.8796483" lon="12.8270384"><ele>427.0</ele><time>2026-05-06T11:32:20.566Z</time></trkpt><trkpt lat="37.8795233" lon="12.826983"><ele>427.0</ele><time>2026-05-06T11:32:21.564Z</time></trkpt><trkpt lat="37.8793903" lon="12.8269555"><ele>427.0</ele><time>2026-05-06T11:32:22.564Z</time></trkpt><trkpt lat="37.8792514" lon="12.826957"><ele>427.0</ele><time>2026-05-06T11:32:23.565Z</time></trkpt><trkpt lat="37.8791081" lon="12.8269819"><ele>430.0</ele><time>2026-05-06T11:32:24.565Z</time></trkpt><trkpt lat="37.8789668" lon="12.8270166"><ele>433.0</ele><time>2026-05-06T11:32:25.563Z</time></trkpt><trkpt lat="37.8788357" lon="12.827036"><ele>436.0</ele><time>2026-05-06T11:32:26.565Z</time></trkpt><trkpt lat="37.8787107" lon="12.8270254"><ele>439.0</ele><time>2026-05-06T11:32:27.564Z</time></trkpt><trkpt lat="37.8785846" lon="12.8269951"><ele>439.0</ele><time>2026-05-06T11:32:28.566Z</time></trkpt><trkpt lat="37.8784582" lon="12.8269489"><ele>439.0</ele><time>2026-05-06T11:32:29.565Z</time></trkpt><trkpt lat="37.8783312" lon="12.826885"><ele>439.0</ele><time>2026-05-06T11:32:30.567Z</time></trkpt><trkpt lat="37.8782123" lon="12.8268081"><ele>439.0</ele><time>2026-05-06T11:32:31.566Z</time></trkpt><trkpt lat="37.8781021" lon="12.826725"><ele>435.5</ele><time>2026-05-06T11:32:32.566Z</time></trkpt><trkpt lat="37.8779956" lon="12.8266341"><ele>432.0</ele><time>2026-05-06T11:32:33.565Z</time></trkpt><trkpt lat="37.8778924" lon="12.8265417"><ele>428.5</ele><time>2026-05-06T11:32:34.566Z</time></trkpt><trkpt lat="37.8777967" lon="12.8264546"><ele>425.0</ele><time>2026-05-06T11:32:35.566Z</time></trkpt><trkpt lat="37.8777066" lon="12.8263667"><ele>425.0</ele><time>2026-05-06T11:32:36.566Z</time></trkpt><trkpt lat="37.8776158" lon="12.8262725"><ele>425.0</ele><time>2026-05-06T11:32:37.564Z</time></trkpt><trkpt lat="37.8775272" lon="12.8261726"><ele>425.0</ele><time>2026-05-06T11:32:38.566Z</time></trkpt><trkpt lat="37.8774435" lon="12.8260631"><ele>425.0</ele><time>2026-05-06T11:32:39.564Z</time></trkpt><trkpt lat="37.87736" lon="12.8259495"><ele>427.0</ele><time>2026-05-06T11:32:40.566Z</time></trkpt><trkpt lat="37.8772778" lon="12.8258284"><ele>429.0</ele><time>2026-05-06T11:32:41.565Z</time></trkpt><trkpt lat="37.8771922" lon="12.8257036"><ele>431.0</ele><time>2026-05-06T11:32:42.565Z</time></trkpt><trkpt lat="37.8770935" lon="12.8255843"><ele>433.0</ele><time>2026-05-06T11:32:43.565Z</time></trkpt><trkpt lat="37.8769798" lon="12.8254711"><ele>433.0</ele><time>2026-05-06T11:32:44.565Z</time></trkpt><trkpt lat="37.8768577" lon="12.8253609"><ele>433.0</ele><time>2026-05-06T11:32:45.564Z</time></trkpt><trkpt lat="37.8767293" lon="12.8252485"><ele>433.0</ele><time>2026-05-06T11:32:46.566Z</time></trkpt><trkpt lat="37.8765944" lon="12.8251343"><ele>433.6666666666667</ele><time>2026-05-06T11:32:47.564Z</time></trkpt><trkpt lat="37.8764544" lon="12.8250192"><ele>434.33333333333337</ele><time>2026-05-06T11:32:48.564Z</time></trkpt><trkpt lat="37.8763095" lon="12.8249042"><ele>435.0</ele><time>2026-05-06T11:32:49.564Z</time></trkpt><trkpt lat="37.8761638" lon="12.8247922"><ele>435.0</ele><time>2026-05-06T11:32:50.565Z</time></trkpt><trkpt lat="37.8760215" lon="12.8246905"><ele>435.0</ele><time>2026-05-06T11:32:51.565Z</time></trkpt><trkpt lat="37.8758852" lon="12.8246094"><ele>435.0</ele><time>2026-05-06T11:32:52.564Z</time></trkpt><trkpt lat="37.875746" lon="12.8245529"><ele>432.5</ele><time>2026-05-06T11:32:53.566Z</time></trkpt><trkpt lat="37.8756021" lon="12.8245129"><ele>430.0</ele><time>2026-05-06T11:32:54.565Z</time></trkpt><trkpt lat="37.8754585" lon="12.8244787"><ele>427.5</ele><time>2026-05-06T11:32:55.565Z</time></trkpt><trkpt lat="37.8753212" lon="12.824449"><ele>425.0</ele><time>2026-05-06T11:32:56.565Z</time></trkpt><trkpt lat="37.875192" lon="12.8244213"><ele>425.5</ele><time>2026-05-06T11:32:57.564Z</time></trkpt><trkpt lat="37.8750671" lon="12.8243952"><ele>426.0</ele><time>2026-05-06T11:32:58.564Z</time></trkpt><trkpt lat="37.8749422" lon="12.8243701"><ele>426.5</ele><time>2026-05-06T11:32:59.564Z</time></trkpt><trkpt lat="37.8748117" lon="12.8243525"><ele>427.0</ele><time>2026-05-06T11:33:00.564Z</time></trkpt><trkpt lat="37.8746741" lon="12.8243414"><ele>427.0</ele><time>2026-05-06T11:33:01.566Z</time></trkpt><trkpt lat="37.8745313" lon="12.8243394"><ele>427.0</ele><time>2026-05-06T11:33:02.566Z</time></trkpt><trkpt lat="37.8743904" lon="12.8243418"><ele>427.0</ele><time>2026-05-06T11:33:03.565Z</time></trkpt><trkpt lat="37.8742547" lon="12.8243438"><ele>427.0</ele><time>2026-05-06T11:33:04.564Z</time></trkpt><trkpt lat="37.8741284" lon="12.8243445"><ele>427.5</ele><time>2026-05-06T11:33:05.566Z</time></trkpt><trkpt lat="37.8740071" lon="12.8243368"><ele>428.0</ele><time>2026-05-06T11:33:06.565Z</time></trkpt><trkpt lat="37.8738863" lon="12.8243188"><ele>428.5</ele><time>2026-05-06T11:33:07.564Z</time></trkpt><trkpt lat="37.8737648" lon="12.8242964"><ele>429.0</ele><time>2026-05-06T11:33:08.566Z</time></trkpt><trkpt lat="37.8736417" lon="12.8242681"><ele>431.25</ele><time>2026-05-06T11:33:09.565Z</time></trkpt><trkpt lat="37.8735179" lon="12.8242294"><ele>433.5</ele><time>2026-05-06T11:33:10.563Z</time></trkpt><trkpt lat="37.8733963" lon="12.8241794"><ele>435.75</ele><time>2026-05-06T11:33:11.566Z</time></trkpt><trkpt lat="37.8732835" lon="12.8241238"><ele>438.0</ele><time>2026-05-06T11:33:12.564Z</time></trkpt><trkpt lat="37.8731738" lon="12.8240588"><ele>438.0</ele><time>2026-05-06T11:33:13.565Z</time></trkpt><trkpt lat="37.8730643" lon="12.8239823"><ele>438.0</ele><time>2026-05-06T11:33:14.565Z</time></trkpt><trkpt lat="37.8729546" lon="12.8238941"><ele>438.0</ele><time>2026-05-06T11:33:15.564Z</time></trkpt><trkpt lat="37.8728433" lon="12.8237983"><ele>438.0</ele><time>2026-05-06T11:33:16.564Z</time></trkpt><trkpt lat="37.8727303" lon="12.823695"><ele>438.0</ele><time>2026-05-06T11:33:17.565Z</time></trkpt><trkpt lat="37.8726223" lon="12.82358"><ele>438.0</ele><time>2026-05-06T11:33:18.564Z</time></trkpt><trkpt lat="37.8725235" lon="12.823452"><ele>438.0</ele><time>2026-05-06T11:33:19.564Z</time></trkpt><trkpt lat="37.8724378" lon="12.8233123"><ele>438.0</ele><time>2026-05-06T11:33:20.565Z</time></trkpt><trkpt lat="37.8723612" lon="12.8231652"><ele>439.33333333333337</ele><time>2026-05-06T11:33:21.563Z</time></trkpt><trkpt lat="37.872287" lon="12.82301"><ele>440.6666666666667</ele><time>2026-05-06T11:33:22.564Z</time></trkpt><trkpt lat="37.8722072" lon="12.822848"><ele>442.0</ele><time>2026-05-06T11:33:23.565Z</time></trkpt><trkpt lat="37.8721242" lon="12.8226783"><ele>442.33333333333337</ele><time>2026-05-06T11:33:24.565Z</time></trkpt><trkpt lat="37.8720415" lon="12.8225044"><ele>442.66666666666663</ele><time>2026-05-06T11:33:25.564Z</time></trkpt><trkpt lat="37.8719592" lon="12.8223289"><ele>443.0</ele><time>2026-05-06T11:33:26.565Z</time></trkpt><trkpt lat="37.8718775" lon="12.8221604"><ele>443.0</ele><time>2026-05-06T11:33:27.565Z</time></trkpt><trkpt lat="37.8717971" lon="12.8219974"><ele>443.0</ele><time>2026-05-06T11:33:28.565Z</time></trkpt><trkpt lat="37.87172" lon="12.8218415"><ele>443.0</ele><time>2026-05-06T11:33:29.566Z</time></trkpt><trkpt lat="37.8716465" lon="12.8216912"><ele>443.0</ele><time>2026-05-06T11:33:30.565Z</time></trkpt><trkpt lat="37.8715737" lon="12.8215391"><ele>441.25</ele><time>2026-05-06T11:33:31.565Z</time></trkpt><trkpt lat="37.8714993" lon="12.8213859"><ele>439.5</ele><time>2026-05-06T11:33:32.565Z</time></trkpt><trkpt lat="37.871422" lon="12.8212272"><ele>437.75</ele><time>2026-05-06T11:33:33.564Z</time></trkpt><trkpt lat="37.8713423" lon="12.8210655"><ele>436.0</ele><time>2026-05-06T11:33:34.564Z</time></trkpt><trkpt lat="37.8712586" lon="12.8209011"><ele>435.0</ele><time>2026-05-06T11:33:35.563Z</time></trkpt><trkpt lat="37.8711754" lon="12.8207313"><ele>434.0</ele><time>2026-05-06T11:33:36.564Z</time></trkpt><trkpt lat="37.8710904" lon="12.8205562"><ele>433.0</ele><time>2026-05-06T11:33:37.565Z</time></trkpt><trkpt lat="37.8710053" lon="12.8203752"><ele>431.6666666666667</ele><time>2026-05-06T11:33:38.565Z</time></trkpt><trkpt lat="37.8709198" lon="12.8201929"><ele>430.33333333333337</ele><time>2026-05-06T11:33:39.565Z</time></trkpt><trkpt lat="37.8708326" lon="12.8200079"><ele>429.0</ele><time>2026-05-06T11:33:40.564Z</time></trkpt><trkpt lat="37.8707484" lon="12.8198184"><ele>429.0</ele><time>2026-05-06T11:33:41.564Z</time></trkpt><trkpt lat="37.8706554" lon="12.8196297"><ele>429.0</ele><time>2026-05-06T11:33:42.564Z</time></trkpt><trkpt lat="37.8705597" lon="12.8194404"><ele>429.0</ele><time>2026-05-06T11:33:43.563Z</time></trkpt><trkpt lat="37.8704636" lon="12.8192487"><ele>433.0</ele><time>2026-05-06T11:33:44.565Z</time></trkpt><trkpt lat="37.8703618" lon="12.8190554"><ele>437.0</ele><time>2026-05-06T11:33:45.564Z</time></trkpt><trkpt lat="37.8702512" lon="12.8188695"><ele>441.0</ele><time>2026-05-06T11:33:46.564Z</time></trkpt><trkpt lat="37.8701318" lon="12.818691"><ele>440.66666666666663</ele><time>2026-05-06T11:33:47.565Z</time></trkpt><trkpt lat="37.8700034" lon="12.8185194"><ele>440.3333333333333</ele><time>2026-05-06T11:33:48.565Z</time></trkpt><trkpt lat="37.8698727" lon="12.81835"><ele>440.0</ele><time>2026-05-06T11:33:49.565Z</time></trkpt><trkpt lat="37.8697402" lon="12.8181805"><ele>440.0</ele><time>2026-05-06T11:33:50.566Z</time></trkpt><trkpt lat="37.8696071" lon="12.8180156"><ele>440.0</ele><time>2026-05-06T11:33:51.566Z</time></trkpt><trkpt lat="37.8694766" lon="12.8178586"><ele>440.0</ele><time>2026-05-06T11:33:52.564Z</time></trkpt><trkpt lat="37.8693523" lon="12.8177091"><ele>437.0</ele><time>2026-05-06T11:33:53.565Z</time></trkpt><trkpt lat="37.8692329" lon="12.8175678"><ele>434.0</ele><time>2026-05-06T11:33:54.565Z</time></trkpt><trkpt lat="37.8691164" lon="12.8174384"><ele>431.0</ele><time>2026-05-06T11:33:55.565Z</time></trkpt><trkpt lat="37.8689955" lon="12.8173292"><ele>431.0</ele><time>2026-05-06T11:33:56.565Z</time></trkpt><trkpt lat="37.8688653" lon="12.8172366"><ele>431.0</ele><time>2026-05-06T11:33:57.565Z</time></trkpt><trkpt lat="37.8687248" lon="12.8171618"><ele>431.0</ele><time>2026-05-06T11:33:58.565Z</time></trkpt><trkpt lat="37.8685746" lon="12.8171135"><ele>426.3333333333333</ele><time>2026-05-06T11:33:59.565Z</time></trkpt><trkpt lat="37.868416" lon="12.8170945"><ele>421.66666666666663</ele><time>2026-05-06T11:34:00.565Z</time></trkpt><trkpt lat="37.8682522" lon="12.8170993"><ele>417.0</ele><time>2026-05-06T11:34:01.568Z</time></trkpt><trkpt lat="37.8680867" lon="12.8171307"><ele>417.0</ele><time>2026-05-06T11:34:02.565Z</time></trkpt><trkpt lat="37.8679223" lon="12.817191"><ele>417.0</ele><time>2026-05-06T11:34:03.565Z</time></trkpt><trkpt lat="37.867763" lon="12.817285"><ele>417.0</ele><time>2026-05-06T11:34:04.565Z</time></trkpt><trkpt lat="37.8676142" lon="12.8174109"><ele>417.33333333333337</ele><time>2026-05-06T11:34:05.567Z</time></trkpt><trkpt lat="37.8674718" lon="12.8175552"><ele>417.6666666666667</ele><time>2026-05-06T11:34:06.565Z</time></trkpt><trkpt lat="37.8673317" lon="12.8177032"><ele>418.0</ele><time>2026-05-06T11:34:07.566Z</time></trkpt><trkpt lat="37.8671949" lon="12.8178449"><ele>415.6666666666667</ele><time>2026-05-06T11:34:08.566Z</time></trkpt><trkpt lat="37.8670603" lon="12.8179759"><ele>413.33333333333337</ele><time>2026-05-06T11:34:09.564Z</time></trkpt><trkpt lat="37.866927" lon="12.8180887"><ele>411.0</ele><time>2026-05-06T11:34:10.564Z</time></trkpt><trkpt lat="37.8667918" lon="12.8181764"><ele>414.33333333333337</ele><time>2026-05-06T11:34:11.565Z</time></trkpt><trkpt lat="37.8666509" lon="12.818233"><ele>417.6666666666667</ele><time>2026-05-06T11:34:12.565Z</time></trkpt><trkpt lat="37.8665017" lon="12.8182541"><ele>421.0</ele><time>2026-05-06T11:34:13.565Z</time></trkpt><trkpt lat="37.8663453" lon="12.8182514"><ele>421.0</ele><time>2026-05-06T11:34:14.565Z</time></trkpt><trkpt lat="37.8661808" lon="12.8182373"><ele>421.0</ele><time>2026-05-06T11:34:15.564Z</time></trkpt><trkpt lat="37.8660117" lon="12.8182221"><ele>421.0</ele><time>2026-05-06T11:34:16.564Z</time></trkpt><trkpt lat="37.8658348" lon="12.818209"><ele>421.33333333333337</ele><time>2026-05-06T11:34:17.564Z</time></trkpt><trkpt lat="37.8656513" lon="12.8181968"><ele>421.66666666666663</ele><time>2026-05-06T11:34:18.565Z</time></trkpt><trkpt lat="37.8654643" lon="12.818185"><ele>422.0</ele><time>2026-05-06T11:34:19.565Z</time></trkpt><trkpt lat="37.865281" lon="12.8181733"><ele>421.66666666666663</ele><time>2026-05-06T11:34:20.566Z</time></trkpt><trkpt lat="37.8651097" lon="12.8181617"><ele>421.33333333333337</ele><time>2026-05-06T11:34:21.566Z</time></trkpt><trkpt lat="37.8649478" lon="12.8181433"><ele>421.0</ele><time>2026-05-06T11:34:22.566Z</time></trkpt><trkpt lat="37.8647917" lon="12.8181093"><ele>421.0</ele><time>2026-05-06T11:34:23.566Z</time></trkpt><trkpt lat="37.8646367" lon="12.8180528"><ele>421.0</ele><time>2026-05-06T11:34:24.572Z</time></trkpt><trkpt lat="37.8644815" lon="12.8179763"><ele>421.0</ele><time>2026-05-06T11:34:25.563Z</time></trkpt><trkpt lat="37.864329" lon="12.8178825"><ele>422.0</ele><time>2026-05-06T11:34:26.565Z</time></trkpt><trkpt lat="37.8641807" lon="12.8177703"><ele>423.0</ele><time>2026-05-06T11:34:27.563Z</time></trkpt><trkpt lat="37.8640331" lon="12.8176442"><ele>424.0</ele><time>2026-05-06T11:34:28.565Z</time></trkpt><trkpt lat="37.8638868" lon="12.8175086"><ele>424.0</ele><time>2026-05-06T11:34:29.566Z</time></trkpt><trkpt lat="37.8637426" lon="12.8173677"><ele>424.0</ele><time>2026-05-06T11:34:30.564Z</time></trkpt><trkpt lat="37.8635936" lon="12.8172227"><ele>424.0</ele><time>2026-05-06T11:34:31.565Z</time></trkpt><trkpt lat="37.8634423" lon="12.8170808"><ele>424.33333333333337</ele><time>2026-05-06T11:34:32.564Z</time></trkpt><trkpt lat="37.8632972" lon="12.8169401"><ele>424.66666666666663</ele><time>2026-05-06T11:34:33.564Z</time></trkpt><trkpt lat="37.86316" lon="12.8168023"><ele>425.0</ele><time>2026-05-06T11:34:34.565Z</time></trkpt><trkpt lat="37.8630312" lon="12.8166687"><ele>425.0</ele><time>2026-05-06T11:34:35.565Z</time></trkpt><trkpt lat="37.8629042" lon="12.816537"><ele>425.0</ele><time>2026-05-06T11:34:36.564Z</time></trkpt><trkpt lat="37.862779" lon="12.8164042"><ele>425.0</ele><time>2026-05-06T11:34:37.565Z</time></trkpt><trkpt lat="37.8626514" lon="12.8162698"><ele>426.0</ele><time>2026-05-06T11:34:38.564Z</time></trkpt><trkpt lat="37.8625226" lon="12.8161348"><ele>427.0</ele><time>2026-05-06T11:34:39.565Z</time></trkpt><trkpt lat="37.8623941" lon="12.8159979"><ele>428.0</ele><time>2026-05-06T11:34:40.563Z</time></trkpt><trkpt lat="37.8622627" lon="12.8158582"><ele>428.0</ele><time>2026-05-06T11:34:41.565Z</time></trkpt><trkpt lat="37.8621294" lon="12.8157151"><ele>428.0</ele><time>2026-05-06T11:34:42.564Z</time></trkpt><trkpt lat="37.861993" lon="12.8155689"><ele>428.0</ele><time>2026-05-06T11:34:43.565Z</time></trkpt><trkpt lat="37.8618522" lon="12.8154243"><ele>426.66666666666663</ele><time>2026-05-06T11:34:44.565Z</time></trkpt><trkpt lat="37.8617061" lon="12.8152918"><ele>425.33333333333337</ele><time>2026-05-06T11:34:45.565Z</time></trkpt><trkpt lat="37.8615495" lon="12.8151895"><ele>424.0</ele><time>2026-05-06T11:34:46.565Z</time></trkpt><trkpt lat="37.8613836" lon="12.8151232"><ele>424.0</ele><time>2026-05-06T11:34:47.565Z</time></trkpt><trkpt lat="37.8612128" lon="12.8150895"><ele>424.0</ele><time>2026-05-06T11:34:48.565Z</time></trkpt><trkpt lat="37.8610376" lon="12.8150886"><ele>424.0</ele><time>2026-05-06T11:34:49.566Z</time></trkpt><trkpt lat="37.8608617" lon="12.8151195"><ele>420.6666666666667</ele><time>2026-05-06T11:34:50.566Z</time></trkpt><trkpt lat="37.8606861" lon="12.8151761"><ele>417.33333333333337</ele><time>2026-05-06T11:34:51.565Z</time></trkpt><trkpt lat="37.8605138" lon="12.8152491"><ele>414.0</ele><time>2026-05-06T11:34:52.567Z</time></trkpt><trkpt lat="37.860348" lon="12.8153232"><ele>414.0</ele><time>2026-05-06T11:34:53.566Z</time></trkpt><trkpt lat="37.8601862" lon="12.8153898"><ele>414.0</ele><time>2026-05-06T11:34:54.566Z</time></trkpt><trkpt lat="37.8600234" lon="12.815453"><ele>414.0</ele><time>2026-05-06T11:34:55.565Z</time></trkpt><trkpt lat="37.8598574" lon="12.8155068"><ele>415.66666666666663</ele><time>2026-05-06T11:34:56.566Z</time></trkpt><trkpt lat="37.8596879" lon="12.8155379"><ele>417.3333333333333</ele><time>2026-05-06T11:34:57.565Z</time></trkpt><trkpt lat="37.859515" lon="12.8155363"><ele>419.0</ele><time>2026-05-06T11:34:58.566Z</time></trkpt><trkpt lat="37.8593469" lon="12.8155027"><ele>419.66666666666663</ele><time>2026-05-06T11:34:59.566Z</time></trkpt><trkpt lat="37.8591898" lon="12.8154378"><ele>420.33333333333337</ele><time>2026-05-06T11:35:00.565Z</time></trkpt><trkpt lat="37.859045" lon="12.815346"><ele>421.0</ele><time>2026-05-06T11:35:01.564Z</time></trkpt><trkpt lat="37.858913" lon="12.8152253"><ele>423.0</ele><time>2026-05-06T11:35:02.566Z</time></trkpt><trkpt lat="37.8587943" lon="12.8150815"><ele>425.0</ele><time>2026-05-06T11:35:03.565Z</time></trkpt><trkpt lat="37.8586965" lon="12.8149205"><ele>427.0</ele><time>2026-05-06T11:35:04.565Z</time></trkpt><trkpt lat="37.8586223" lon="12.8147451"><ele>427.0</ele><time>2026-05-06T11:35:05.565Z</time></trkpt><trkpt lat="37.8585701" lon="12.8145517"><ele>427.0</ele><time>2026-05-06T11:35:06.565Z</time></trkpt><trkpt lat="37.8585403" lon="12.8143453"><ele>427.0</ele><time>2026-05-06T11:35:07.565Z</time></trkpt><trkpt lat="37.8585354" lon="12.814128"><ele>428.0</ele><time>2026-05-06T11:35:08.564Z</time></trkpt><trkpt lat="37.8585539" lon="12.8139036"><ele>429.0</ele><time>2026-05-06T11:35:09.564Z</time></trkpt><trkpt lat="37.8585939" lon="12.8136757"><ele>430.0</ele><time>2026-05-06T11:35:10.564Z</time></trkpt><trkpt lat="37.8586427" lon="12.8134463"><ele>430.0</ele><time>2026-05-06T11:35:11.565Z</time></trkpt><trkpt lat="37.858691" lon="12.8132155"><ele>430.0</ele><time>2026-05-06T11:35:12.565Z</time></trkpt><trkpt lat="37.8587383" lon="12.8129822"><ele>430.0</ele><time>2026-05-06T11:35:13.566Z</time></trkpt><trkpt lat="37.8587857" lon="12.8127513"><ele>427.6666666666667</ele><time>2026-05-06T11:35:14.566Z</time></trkpt><trkpt lat="37.8588308" lon="12.8125214"><ele>425.33333333333337</ele><time>2026-05-06T11:35:15.564Z</time></trkpt><trkpt lat="37.8588776" lon="12.8122928"><ele>423.0</ele><time>2026-05-06T11:35:16.564Z</time></trkpt><trkpt lat="37.8589218" lon="12.8120705"><ele>423.0</ele><time>2026-05-06T11:35:17.564Z</time></trkpt><trkpt lat="37.8589637" lon="12.8118567"><ele>423.0</ele><time>2026-05-06T11:35:18.564Z</time></trkpt><trkpt lat="37.859005" lon="12.811651"><ele>423.0</ele><time>2026-05-06T11:35:19.566Z</time></trkpt><trkpt lat="37.8612128" lon="12.8150895"><ele>423.33333333333337</ele><time>2026-05-06T11:34:48.565Z</time></trkpt><trkpt lat="37.8610376" lon="12.8150886"><ele>423.6666666666667</ele><time>2026-05-06T11:34:49.566Z</time></trkpt><trkpt lat="37.8608617" lon="12.8151195"><ele>424.0</ele><time>2026-05-06T11:34:50.566Z</time></trkpt><trkpt lat="37.8606861" lon="12.8151761"><ele>420.6666666666667</ele><time>2026-05-06T11:34:51.565Z</time></trkpt><trkpt lat="37.8605138" lon="12.8152491"><ele>417.33333333333337</ele><time>2026-05-06T11:34:52.567Z</time></trkpt><trkpt lat="37.860348" lon="12.8153232"><ele>414.0</ele><time>2026-05-06T11:34:53.566Z</time></trkpt><trkpt lat="37.8601862" lon="12.8153898"><ele>415.66666666666663</ele><time>2026-05-06T11:34:54.566Z</time></trkpt><trkpt lat="37.8600234" lon="12.815453"><ele>417.3333333333333</ele><time>2026-05-06T11:34:55.565Z</time></trkpt><trkpt lat="37.8598574" lon="12.8155068"><ele>419.0</ele><time>2026-05-06T11:34:56.566Z</time></trkpt><trkpt lat="37.8596879" lon="12.8155379"><ele>419.0</ele><time>2026-05-06T11:34:57.565Z</time></trkpt><trkpt lat="37.859515" lon="12.8155363"><ele>419.0</ele><time>2026-05-06T11:34:58.566Z</time></trkpt><trkpt lat="37.8593469" lon="12.8155027"><ele>419.0</ele><time>2026-05-06T11:34:59.566Z</time></trkpt><trkpt lat="37.8591898" lon="12.8154378"><ele>419.66666666666663</ele><time>2026-05-06T11:35:00.565Z</time></trkpt><trkpt lat="37.859045" lon="12.815346"><ele>420.33333333333337</ele><time>2026-05-06T11:35:01.564Z</time></trkpt><trkpt lat="37.858913" lon="12.8152253"><ele>421.0</ele><time>2026-05-06T11:35:02.566Z</time></trkpt><trkpt lat="37.8587943" lon="12.8150815"><ele>423.0</ele><time>2026-05-06T11:35:03.565Z</time></trkpt><trkpt lat="37.8586965" lon="12.8149205"><ele>425.0</ele><time>2026-05-06T11:35:04.565Z</time></trkpt><trkpt lat="37.8586223" lon="12.8147451"><ele>427.0</ele><time>2026-05-06T11:35:05.565Z</time></trkpt><trkpt lat="37.8585701" lon="12.8145517"><ele>427.0</ele><time>2026-05-06T11:35:06.565Z</time></trkpt><trkpt lat="37.8585403" lon="12.8143453"><ele>427.0</ele><time>2026-05-06T11:35:07.565Z</time></trkpt><trkpt lat="37.8585354" lon="12.814128"><ele>427.0</ele><time>2026-05-06T11:35:08.564Z</time></trkpt><trkpt lat="37.8585539" lon="12.8139036"><ele>428.0</ele><time>2026-05-06T11:35:09.564Z</time></trkpt><trkpt lat="37.8585939" lon="12.8136757"><ele>429.0</ele><time>2026-05-06T11:35:10.564Z</time></trkpt><trkpt lat="37.8586427" lon="12.8134463"><ele>430.0</ele><time>2026-05-06T11:35:11.565Z</time></trkpt><trkpt lat="37.858691" lon="12.8132155"><ele>430.0</ele><time>2026-05-06T11:35:12.565Z</time></trkpt><trkpt lat="37.8587383" lon="12.8129822"><ele>430.0</ele><time>2026-05-06T11:35:13.566Z</time></trkpt><trkpt lat="37.8587857" lon="12.8127513"><ele>430.0</ele><time>2026-05-06T11:35:14.566Z</time></trkpt><trkpt lat="37.8588308" lon="12.8125214"><ele>427.6666666666667</ele><time>2026-05-06T11:35:15.564Z</time></trkpt><trkpt lat="37.8588776" lon="12.8122928"><ele>425.33333333333337</ele><time>2026-05-06T11:35:16.564Z</time></trkpt><trkpt lat="37.8589218" lon="12.8120705"><ele>423.0</ele><time>2026-05-06T11:35:17.564Z</time></trkpt><trkpt lat="37.8589637" lon="12.8118567"><ele>422.33333333333337</ele><time>2026-05-06T11:35:18.564Z</time></trkpt><trkpt lat="37.859005" lon="12.811651"><ele>421.6666666666667</ele><time>2026-05-06T11:35:19.566Z</time></trkpt><trkpt lat="37.8590435" lon="12.8114498"><ele>421.0</ele><time>2026-05-06T11:35:20.566Z</time></trkpt><trkpt lat="37.8590713" lon="12.811249"><ele>421.0</ele><time>2026-05-06T11:35:21.565Z</time></trkpt><trkpt lat="37.8590874" lon="12.8110449"><ele>421.0</ele><time>2026-05-06T11:35:22.565Z</time></trkpt><trkpt lat="37.85909" lon="12.8108373"><ele>421.0</ele><time>2026-05-06T11:35:23.565Z</time></trkpt><trkpt lat="37.8590781" lon="12.8106284"><ele>420.33333333333337</ele><time>2026-05-06T11:35:24.565Z</time></trkpt><trkpt lat="37.859051" lon="12.8104182"><ele>419.66666666666663</ele><time>2026-05-06T11:35:25.564Z</time></trkpt><trkpt lat="37.8590063" lon="12.8102084"><ele>419.0</ele><time>2026-05-06T11:35:26.565Z</time></trkpt><trkpt lat="37.8589477" lon="12.8100026"><ele>418.0</ele><time>2026-05-06T11:35:27.563Z</time></trkpt><trkpt lat="37.8588731" lon="12.809801"><ele>417.0</ele><time>2026-05-06T11:35:28.565Z</time></trkpt><trkpt lat="37.8587845" lon="12.8096071"><ele>416.0</ele><time>2026-05-06T11:35:29.564Z</time></trkpt><trkpt lat="37.8586824" lon="12.8094263"><ele>415.0</ele><time>2026-05-06T11:35:30.565Z</time></trkpt><trkpt lat="37.8585678" lon="12.8092592"><ele>414.0</ele><time>2026-05-06T11:35:31.565Z</time></trkpt><trkpt lat="37.8584425" lon="12.8091066"><ele>413.0</ele><time>2026-05-06T11:35:32.565Z</time></trkpt><trkpt lat="37.8583033" lon="12.8089655"><ele>413.0</ele><time>2026-05-06T11:35:33.564Z</time></trkpt><trkpt lat="37.8581506" lon="12.8088415"><ele>413.0</ele><time>2026-05-06T11:35:34.565Z</time></trkpt><trkpt lat="37.8579899" lon="12.8087373"><ele>413.0</ele><time>2026-05-06T11:35:35.565Z</time></trkpt><trkpt lat="37.8578243" lon="12.8086563"><ele>413.0</ele><time>2026-05-06T11:35:36.567Z</time></trkpt><trkpt lat="37.8576564" lon="12.8085887"><ele>413.0</ele><time>2026-05-06T11:35:37.564Z</time></trkpt><trkpt lat="37.8574845" lon="12.8085284"><ele>413.0</ele><time>2026-05-06T11:35:38.566Z</time></trkpt><trkpt lat="37.8573168" lon="12.8084644"><ele>409.66666666666663</ele><time>2026-05-06T11:35:39.564Z</time></trkpt><trkpt lat="37.857161" lon="12.8083841"><ele>406.33333333333337</ele><time>2026-05-06T11:35:40.564Z</time></trkpt><trkpt lat="37.8570249" lon="12.8082844"><ele>403.0</ele><time>2026-05-06T11:35:41.565Z</time></trkpt><trkpt lat="37.856901" lon="12.8081861"><ele>403.5</ele><time>2026-05-06T11:35:42.565Z</time></trkpt><trkpt lat="37.8567819" lon="12.8081077"><ele>404.0</ele><time>2026-05-06T11:35:43.565Z</time></trkpt><trkpt lat="37.8566631" lon="12.8080528"><ele>404.5</ele><time>2026-05-06T11:35:44.566Z</time></trkpt><trkpt lat="37.8565389" lon="12.8080274"><ele>405.0</ele><time>2026-05-06T11:35:45.565Z</time></trkpt><trkpt lat="37.856414" lon="12.8080245"><ele>405.0</ele><time>2026-05-06T11:35:46.565Z</time></trkpt><trkpt lat="37.8562892" lon="12.808026"><ele>405.0</ele><time>2026-05-06T11:35:47.565Z</time></trkpt><trkpt lat="37.8561649" lon="12.8080124"><ele>405.0</ele><time>2026-05-06T11:35:48.564Z</time></trkpt><trkpt lat="37.8560443" lon="12.8079716"><ele>405.0</ele><time>2026-05-06T11:35:49.564Z</time></trkpt><trkpt lat="37.8559288" lon="12.8079058"><ele>406.25</ele><time>2026-05-06T11:35:50.565Z</time></trkpt><trkpt lat="37.8558171" lon="12.8078323"><ele>407.5</ele><time>2026-05-06T11:35:51.565Z</time></trkpt><trkpt lat="37.8557115" lon="12.807761"><ele>408.75</ele><time>2026-05-06T11:35:52.565Z</time></trkpt><trkpt lat="37.8556086" lon="12.8076859"><ele>410.0</ele><time>2026-05-06T11:35:53.565Z</time></trkpt><trkpt lat="37.8555075" lon="12.8076054"><ele>407.5</ele><time>2026-05-06T11:35:54.564Z</time></trkpt><trkpt lat="37.8554048" lon="12.8075217"><ele>405.0</ele><time>2026-05-06T11:35:55.565Z</time></trkpt><trkpt lat="37.8552947" lon="12.8074506"><ele>402.5</ele><time>2026-05-06T11:35:56.566Z</time></trkpt><trkpt lat="37.8551748" lon="12.8074038"><ele>400.0</ele><time>2026-05-06T11:35:57.564Z</time></trkpt><trkpt lat="37.8550453" lon="12.8073775"><ele>400.0</ele><time>2026-05-06T11:35:58.565Z</time></trkpt><trkpt lat="37.8549068" lon="12.8073564"><ele>400.0</ele><time>2026-05-06T11:35:59.565Z</time></trkpt><trkpt lat="37.8547645" lon="12.8073278"><ele>400.0</ele><time>2026-05-06T11:36:00.565Z</time></trkpt><trkpt lat="37.8546203" lon="12.8072855"><ele>400.0</ele><time>2026-05-06T11:36:01.565Z</time></trkpt><trkpt lat="37.8544732" lon="12.8072326"><ele>400.0</ele><time>2026-05-06T11:36:02.565Z</time></trkpt><trkpt lat="37.8543217" lon="12.8071793"><ele>400.0</ele><time>2026-05-06T11:36:03.564Z</time></trkpt><trkpt lat="37.8541612" lon="12.8071288"><ele>400.0</ele><time>2026-05-06T11:36:04.564Z</time></trkpt><trkpt lat="37.8539969" lon="12.8070765"><ele>400.33333333333337</ele><time>2026-05-06T11:36:05.564Z</time></trkpt><trkpt lat="37.8538308" lon="12.8070204"><ele>400.66666666666663</ele><time>2026-05-06T11:36:06.565Z</time></trkpt><trkpt lat="37.8536612" lon="12.806952"><ele>401.0</ele><time>2026-05-06T11:36:07.564Z</time></trkpt><trkpt lat="37.8534992" lon="12.8068648"><ele>398.0</ele><time>2026-05-06T11:36:08.565Z</time></trkpt><trkpt lat="37.8533479" lon="12.8067716"><ele>395.0</ele><time>2026-05-06T11:36:09.563Z</time></trkpt><trkpt lat="37.8532042" lon="12.8066855"><ele>392.0</ele><time>2026-05-06T11:36:10.564Z</time></trkpt><trkpt lat="37.8530663" lon="12.8066091"><ele>392.0</ele><time>2026-05-06T11:36:11.564Z</time></trkpt><trkpt lat="37.8529376" lon="12.8065351"><ele>392.0</ele><time>2026-05-06T11:36:12.565Z</time></trkpt><trkpt lat="37.852815" lon="12.8064634"><ele>392.0</ele><time>2026-05-06T11:36:13.566Z</time></trkpt><trkpt lat="37.8527008" lon="12.8063823"><ele>392.0</ele><time>2026-05-06T11:36:14.566Z</time></trkpt><trkpt lat="37.8525926" lon="12.8062827"><ele>391.0</ele><time>2026-05-06T11:36:15.565Z</time></trkpt><trkpt lat="37.8524896" lon="12.806164"><ele>390.0</ele><time>2026-05-06T11:36:16.563Z</time></trkpt><trkpt lat="37.8523869" lon="12.806035"><ele>389.0</ele><time>2026-05-06T11:36:17.564Z</time></trkpt><trkpt lat="37.8522799" lon="12.8059007"><ele>388.0</ele><time>2026-05-06T11:36:18.564Z</time></trkpt><trkpt lat="37.8521705" lon="12.8057643"><ele>388.0</ele><time>2026-05-06T11:36:19.565Z</time></trkpt><trkpt lat="37.8520644" lon="12.8056295"><ele>388.0</ele><time>2026-05-06T11:36:20.565Z</time></trkpt><trkpt lat="37.8519621" lon="12.8054995"><ele>388.0</ele><time>2026-05-06T11:36:21.563Z</time></trkpt><trkpt lat="37.8518617" lon="12.8053774"><ele>388.0</ele><time>2026-05-06T11:36:22.565Z</time></trkpt><trkpt lat="37.8517511" lon="12.8052817"><ele>386.0</ele><time>2026-05-06T11:36:23.565Z</time></trkpt><trkpt lat="37.8516267" lon="12.805215"><ele>384.0</ele><time>2026-05-06T11:36:24.565Z</time></trkpt><trkpt lat="37.8514886" lon="12.8051725"><ele>382.0</ele><time>2026-05-06T11:36:25.564Z</time></trkpt><trkpt lat="37.8513351" lon="12.8051501"><ele>380.0</ele><time>2026-05-06T11:36:26.565Z</time></trkpt><trkpt lat="37.8511736" lon="12.8051424"><ele>380.0</ele><time>2026-05-06T11:36:27.565Z</time></trkpt><trkpt lat="37.8510037" lon="12.8051482"><ele>380.0</ele><time>2026-05-06T11:36:28.565Z</time></trkpt><trkpt lat="37.8508275" lon="12.8051662"><ele>380.0</ele><time>2026-05-06T11:36:29.564Z</time></trkpt><trkpt lat="37.8506507" lon="12.8051906"><ele>385.33333333333337</ele><time>2026-05-06T11:36:30.565Z</time></trkpt><trkpt lat="37.8504761" lon="12.805222"><ele>390.6666666666667</ele><time>2026-05-06T11:36:31.564Z</time></trkpt><trkpt lat="37.8503053" lon="12.8052645"><ele>396.0</ele><time>2026-05-06T11:36:32.565Z</time></trkpt><trkpt lat="37.8501406" lon="12.8053172"><ele>393.0</ele><time>2026-05-06T11:36:33.568Z</time></trkpt><trkpt lat="37.8499792" lon="12.8053687"><ele>390.0</ele><time>2026-05-06T11:36:34.565Z</time></trkpt><trkpt lat="37.8498191" lon="12.8054094"><ele>387.0</ele><time>2026-05-06T11:36:35.563Z</time></trkpt><trkpt lat="37.8496606" lon="12.8054316"><ele>387.0</ele><time>2026-05-06T11:36:36.564Z</time></trkpt><trkpt lat="37.8495011" lon="12.8054386"><ele>387.0</ele><time>2026-05-06T11:36:37.564Z</time></trkpt><trkpt lat="37.8493425" lon="12.8054365"><ele>387.0</ele><time>2026-05-06T11:36:38.565Z</time></trkpt><trkpt lat="37.8491844" lon="12.805432"><ele>384.3333333333333</ele><time>2026-05-06T11:36:39.564Z</time></trkpt><trkpt lat="37.8490253" lon="12.8054225"><ele>381.66666666666663</ele><time>2026-05-06T11:36:40.564Z</time></trkpt><trkpt lat="37.8488736" lon="12.8054107"><ele>379.0</ele><time>2026-05-06T11:36:41.564Z</time></trkpt><trkpt lat="37.8487237" lon="12.8054"><ele>379.0</ele><time>2026-05-06T11:36:42.564Z</time></trkpt><trkpt lat="37.8485744" lon="12.8053913"><ele>379.0</ele><time>2026-05-06T11:36:43.564Z</time></trkpt><trkpt lat="37.8484263" lon="12.8053857"><ele>379.0</ele><time>2026-05-06T11:36:44.567Z</time></trkpt><trkpt lat="37.8482813" lon="12.8053794"><ele>379.0</ele><time>2026-05-06T11:36:45.564Z</time></trkpt><trkpt lat="37.8481393" lon="12.8053723"><ele>377.25</ele><time>2026-05-06T11:36:46.564Z</time></trkpt><trkpt lat="37.8479994" lon="12.8053684"><ele>375.5</ele><time>2026-05-06T11:36:47.564Z</time></trkpt><trkpt lat="37.8478624" lon="12.8053567"><ele>373.75</ele><time>2026-05-06T11:36:48.565Z</time></trkpt><trkpt lat="37.84773" lon="12.8053273"><ele>372.0</ele><time>2026-05-06T11:36:49.565Z</time></trkpt><trkpt lat="37.8475988" lon="12.8052756"><ele>370.25</ele><time>2026-05-06T11:36:50.565Z</time></trkpt><trkpt lat="37.8474717" lon="12.80519"><ele>368.5</ele><time>2026-05-06T11:36:51.565Z</time></trkpt><trkpt lat="37.847345" lon="12.8051"><ele>366.75</ele><time>2026-05-06T11:36:52.564Z</time></trkpt><trkpt lat="37.8472133" lon="12.8050017"><ele>365.0</ele><time>2026-05-06T11:36:53.564Z</time></trkpt><trkpt lat="37.8470783" lon="12.804895"><ele>363.6666666666667</ele><time>2026-05-06T11:36:54.566Z</time></trkpt><trkpt lat="37.8469417" lon="12.8047883"><ele>362.3333333333333</ele><time>2026-05-06T11:36:55.565Z</time></trkpt><trkpt lat="37.8467983" lon="12.8046767"><ele>361.0</ele><time>2026-05-06T11:36:56.565Z</time></trkpt><trkpt lat="37.846655" lon="12.8045633"><ele>361.0</ele><time>2026-05-06T11:36:57.565Z</time></trkpt><trkpt lat="37.846505" lon="12.8044483"><ele>361.0</ele><time>2026-05-06T11:36:58.564Z</time></trkpt><trkpt lat="37.8463483" lon="12.8043417"><ele>361.0</ele><time>2026-05-06T11:36:59.565Z</time></trkpt><trkpt lat="37.8461867" lon="12.8042517"><ele>361.0</ele><time>2026-05-06T11:37:00.564Z</time></trkpt><trkpt lat="37.8460217" lon="12.80417"><ele>361.0</ele><time>2026-05-06T11:37:01.564Z</time></trkpt><trkpt lat="37.8458517" lon="12.8040967"><ele>361.0</ele><time>2026-05-06T11:37:02.565Z</time></trkpt><trkpt lat="37.8456767" lon="12.80403"><ele>360.0</ele><time>2026-05-06T11:37:03.564Z</time></trkpt><trkpt lat="37.845505" lon="12.80397"><ele>359.0</ele><time>2026-05-06T11:37:04.564Z</time></trkpt><trkpt lat="37.84534" lon="12.8039133"><ele>358.0</ele><time>2026-05-06T11:37:05.564Z</time></trkpt><trkpt lat="37.845185" lon="12.8038667"><ele>356.75</ele><time>2026-05-06T11:37:06.565Z</time></trkpt><trkpt lat="37.8450367" lon="12.8038333"><ele>355.5</ele><time>2026-05-06T11:37:07.563Z</time></trkpt><trkpt lat="37.8448967" lon="12.8038233"><ele>354.25</ele><time>2026-05-06T11:37:08.565Z</time></trkpt><trkpt lat="37.8447583" lon="12.80383"><ele>353.0</ele><time>2026-05-06T11:37:09.565Z</time></trkpt><trkpt lat="37.844615" lon="12.80384"><ele>353.0</ele><time>2026-05-06T11:37:10.564Z</time></trkpt><trkpt lat="37.84447" lon="12.8038467"><ele>353.0</ele><time>2026-05-06T11:37:11.566Z</time></trkpt><trkpt lat="37.84433" lon="12.8038567"><ele>353.0</ele><time>2026-05-06T11:37:12.564Z</time></trkpt><trkpt lat="37.8441933" lon="12.80386"><ele>353.0</ele><time>2026-05-06T11:37:13.564Z</time></trkpt><trkpt lat="37.844065" lon="12.8038467"><ele>352.5</ele><time>2026-05-06T11:37:14.567Z</time></trkpt><trkpt lat="37.8439417" lon="12.8038117"><ele>352.0</ele><time>2026-05-06T11:37:15.564Z</time></trkpt><trkpt lat="37.8438233" lon="12.8037533"><ele>351.5</ele><time>2026-05-06T11:37:16.565Z</time></trkpt><trkpt lat="37.8437117" lon="12.8036767"><ele>351.0</ele><time>2026-05-06T11:37:17.565Z</time></trkpt><trkpt lat="37.8435983" lon="12.803585"><ele>351.0</ele><time>2026-05-06T11:37:18.564Z</time></trkpt><trkpt lat="37.8434817" lon="12.8035"><ele>351.0</ele><time>2026-05-06T11:37:19.564Z</time></trkpt><trkpt lat="37.8433583" lon="12.80343"><ele>351.0</ele><time>2026-05-06T11:37:20.566Z</time></trkpt><trkpt lat="37.8432333" lon="12.8033833"><ele>351.0</ele><time>2026-05-06T11:37:21.563Z</time></trkpt><trkpt lat="37.8431033" lon="12.8033583"><ele>351.75</ele><time>2026-05-06T11:37:22.566Z</time></trkpt><trkpt lat="37.8429667" lon="12.8033417"><ele>352.5</ele><time>2026-05-06T11:37:23.564Z</time></trkpt><trkpt lat="37.842825" lon="12.80333"><ele>353.25</ele><time>2026-05-06T11:37:24.564Z</time></trkpt><trkpt lat="37.84268" lon="12.80332"><ele>354.0</ele><time>2026-05-06T11:37:25.564Z</time></trkpt><trkpt lat="37.8425367" lon="12.8033067"><ele>354.0</ele><time>2026-05-06T11:37:26.565Z</time></trkpt><trkpt lat="37.8423933" lon="12.8032933"><ele>354.0</ele><time>2026-05-06T11:37:27.563Z</time></trkpt><trkpt lat="37.84225" lon="12.8032767"><ele>354.0</ele><time>2026-05-06T11:37:28.563Z</time></trkpt><trkpt lat="37.8421067" lon="12.8032633"><ele>354.0</ele><time>2026-05-06T11:37:29.564Z</time></trkpt><trkpt lat="37.8419583" lon="12.8032567"><ele>354.0</ele><time>2026-05-06T11:37:30.564Z</time></trkpt><trkpt lat="37.84181" lon="12.80326"><ele>354.0</ele><time>2026-05-06T11:37:31.564Z</time></trkpt><trkpt lat="37.8416617" lon="12.8032733"><ele>354.0</ele><time>2026-05-06T11:37:32.564Z</time></trkpt><trkpt lat="37.841515" lon="12.8032817"><ele>354.0</ele><time>2026-05-06T11:37:33.565Z</time></trkpt><trkpt lat="37.841375" lon="12.8032783"><ele>354.0</ele><time>2026-05-06T11:37:34.565Z</time></trkpt><trkpt lat="37.8412383" lon="12.8032517"><ele>354.0</ele><time>2026-05-06T11:37:35.564Z</time></trkpt><trkpt lat="37.8411033" lon="12.8032033"><ele>354.0</ele><time>2026-05-06T11:37:36.564Z</time></trkpt><trkpt lat="37.8409667" lon="12.8031517"><ele>354.0</ele><time>2026-05-06T11:37:37.564Z</time></trkpt><trkpt lat="37.8408267" lon="12.8031167"><ele>353.25</ele><time>2026-05-06T11:37:38.565Z</time></trkpt><trkpt lat="37.8406833" lon="12.8030983"><ele>352.5</ele><time>2026-05-06T11:37:39.564Z</time></trkpt><trkpt lat="37.840535" lon="12.8030933"><ele>351.75</ele><time>2026-05-06T11:37:40.564Z</time></trkpt><trkpt lat="37.8403867" lon="12.8031017"><ele>351.0</ele><time>2026-05-06T11:37:41.564Z</time></trkpt><trkpt lat="37.8402333" lon="12.8031217"><ele>350.3333333333333</ele><time>2026-05-06T11:37:42.564Z</time></trkpt><trkpt lat="37.84008" lon="12.803155"><ele>349.66666666666663</ele><time>2026-05-06T11:37:43.565Z</time></trkpt><trkpt lat="37.8399233" lon="12.803195"><ele>349.0</ele><time>2026-05-06T11:37:44.564Z</time></trkpt><trkpt lat="37.8397617" lon="12.8032283"><ele>349.0</ele><time>2026-05-06T11:37:45.564Z</time></trkpt><trkpt lat="37.8396" lon="12.8032467"><ele>349.0</ele><time>2026-05-06T11:37:46.564Z</time></trkpt><trkpt lat="37.83944" lon="12.8032417"><ele>349.0</ele><time>2026-05-06T11:37:47.564Z</time></trkpt><trkpt lat="37.8392883" lon="12.8032367"><ele>348.5</ele><time>2026-05-06T11:37:48.565Z</time></trkpt><trkpt lat="37.839145" lon="12.8032483"><ele>348.0</ele><time>2026-05-06T11:37:49.566Z</time></trkpt><trkpt lat="37.8390083" lon="12.8032883"><ele>347.5</ele><time>2026-05-06T11:37:50.565Z</time></trkpt><trkpt lat="37.8388817" lon="12.8033567"><ele>347.0</ele><time>2026-05-06T11:37:51.564Z</time></trkpt><trkpt lat="37.8387633" lon="12.80346"><ele>346.5</ele><time>2026-05-06T11:37:52.565Z</time></trkpt><trkpt lat="37.8386583" lon="12.8035917"><ele>346.0</ele><time>2026-05-06T11:37:53.564Z</time></trkpt><trkpt lat="37.8385617" lon="12.8037367"><ele>345.5</ele><time>2026-05-06T11:37:54.565Z</time></trkpt><trkpt lat="37.8384667" lon="12.8038767"><ele>345.0</ele><time>2026-05-06T11:37:55.563Z</time></trkpt><trkpt lat="37.8383733" lon="12.804"><ele>345.0</ele><time>2026-05-06T11:37:56.566Z</time></trkpt><trkpt lat="37.838285" lon="12.8041"><ele>345.0</ele><time>2026-05-06T11:37:57.563Z</time></trkpt><trkpt lat="37.838195" lon="12.8041783"><ele>345.0</ele><time>2026-05-06T11:37:58.564Z</time></trkpt><trkpt lat="37.83809" lon="12.804235"><ele>345.0</ele><time>2026-05-06T11:37:59.563Z</time></trkpt><trkpt lat="37.83797" lon="12.8042733"><ele>345.0</ele><time>2026-05-06T11:38:00.565Z</time></trkpt><trkpt lat="37.83784" lon="12.8042883"><ele>345.0</ele><time>2026-05-06T11:38:01.564Z</time></trkpt><trkpt lat="37.8377033" lon="12.8042717"><ele>345.0</ele><time>2026-05-06T11:38:02.565Z</time></trkpt><trkpt lat="37.8375583" lon="12.8042367"><ele>345.0</ele><time>2026-05-06T11:38:03.564Z</time></trkpt><trkpt lat="37.8374083" lon="12.8042033"><ele>345.3333333333333</ele><time>2026-05-06T11:38:04.564Z</time></trkpt><trkpt lat="37.8372533" lon="12.8041883"><ele>345.66666666666663</ele><time>2026-05-06T11:38:05.564Z</time></trkpt><trkpt lat="37.8371017" lon="12.804185"><ele>346.0</ele><time>2026-05-06T11:38:06.565Z</time></trkpt><trkpt lat="37.83695" lon="12.804195"><ele>343.66666666666663</ele><time>2026-05-06T11:38:07.564Z</time></trkpt><trkpt lat="37.836795" lon="12.8042233"><ele>341.3333333333333</ele><time>2026-05-06T11:38:08.564Z</time></trkpt><trkpt lat="37.8366367" lon="12.8042683"><ele>339.0</ele><time>2026-05-06T11:38:09.565Z</time></trkpt><trkpt lat="37.836475" lon="12.8043217"><ele>335.0</ele><time>2026-05-06T11:38:10.564Z</time></trkpt><trkpt lat="37.83631" lon="12.8043733"><ele>331.0</ele><time>2026-05-06T11:38:11.564Z</time></trkpt><trkpt lat="37.83614" lon="12.8044283"><ele>327.0</ele><time>2026-05-06T11:38:12.564Z</time></trkpt><trkpt lat="37.8359667" lon="12.8044867"><ele>325.3333333333333</ele><time>2026-05-06T11:38:13.564Z</time></trkpt><trkpt lat="37.8357933" lon="12.80455"><ele>323.66666666666663</ele><time>2026-05-06T11:38:14.565Z</time></trkpt><trkpt lat="37.83562" lon="12.8046133"><ele>322.0</ele><time>2026-05-06T11:38:15.566Z</time></trkpt><trkpt lat="37.83545" lon="12.8046733"><ele>322.0</ele><time>2026-05-06T11:38:16.564Z</time></trkpt><trkpt lat="37.8352867" lon="12.8047267"><ele>322.0</ele><time>2026-05-06T11:38:17.564Z</time></trkpt><trkpt lat="37.8351267" lon="12.8047717"><ele>322.0</ele><time>2026-05-06T11:38:18.564Z</time></trkpt><trkpt lat="37.83497" lon="12.8048117"><ele>321.3333333333333</ele><time>2026-05-06T11:38:19.564Z</time></trkpt><trkpt lat="37.83481" lon="12.8048417"><ele>320.6666666666667</ele><time>2026-05-06T11:38:20.564Z</time></trkpt><trkpt lat="37.8346533" lon="12.8048683"><ele>320.0</ele><time>2026-05-06T11:38:21.564Z</time></trkpt><trkpt lat="37.834505" lon="12.804885"><ele>320.0</ele><time>2026-05-06T11:38:22.564Z</time></trkpt><trkpt lat="37.8343633" lon="12.8049"><ele>320.0</ele><time>2026-05-06T11:38:23.564Z</time></trkpt><trkpt lat="37.8342217" lon="12.8049183"><ele>320.0</ele><time>2026-05-06T11:38:24.565Z</time></trkpt><trkpt lat="37.834075" lon="12.8049367"><ele>320.0</ele><time>2026-05-06T11:38:25.565Z</time></trkpt><trkpt lat="37.8339317" lon="12.804955"><ele>320.0</ele><time>2026-05-06T11:38:26.564Z</time></trkpt><trkpt lat="37.8337867" lon="12.8049717"><ele>320.0</ele><time>2026-05-06T11:38:27.563Z</time></trkpt><trkpt lat="37.8336367" lon="12.804985"><ele>320.0</ele><time>2026-05-06T11:38:28.565Z</time></trkpt><trkpt lat="37.8334833" lon="12.8049933"><ele>320.0</ele><time>2026-05-06T11:38:29.563Z</time></trkpt><trkpt lat="37.833325" lon="12.8050017"><ele>320.0</ele><time>2026-05-06T11:38:30.565Z</time></trkpt><trkpt lat="37.8331667" lon="12.8050067"><ele>320.0</ele><time>2026-05-06T11:38:31.565Z</time></trkpt><trkpt lat="37.8330033" lon="12.8050083"><ele>320.0</ele><time>2026-05-06T11:38:32.564Z</time></trkpt><trkpt lat="37.832835" lon="12.805005"><ele>320.0</ele><time>2026-05-06T11:38:33.565Z</time></trkpt><trkpt lat="37.8326633" lon="12.8050067"><ele>320.0</ele><time>2026-05-06T11:38:34.563Z</time></trkpt><trkpt lat="37.8324917" lon="12.8050083"><ele>320.0</ele><time>2026-05-06T11:38:35.565Z</time></trkpt><trkpt lat="37.8323183" lon="12.805015"><ele>320.0</ele><time>2026-05-06T11:38:36.565Z</time></trkpt><trkpt lat="37.8321417" lon="12.8050217"><ele>320.0</ele><time>2026-05-06T11:38:37.564Z</time></trkpt><trkpt lat="37.8319633" lon="12.80503"><ele>320.0</ele><time>2026-05-06T11:38:38.566Z</time></trkpt><trkpt lat="37.831785" lon="12.8050417"><ele>320.0</ele><time>2026-05-06T11:38:39.564Z</time></trkpt><trkpt lat="37.831605" lon="12.80505"><ele>320.0</ele><time>2026-05-06T11:38:40.564Z</time></trkpt><trkpt lat="37.8314283" lon="12.8050483"><ele>320.0</ele><time>2026-05-06T11:38:41.563Z</time></trkpt><trkpt lat="37.8312617" lon="12.8050417"><ele>320.0</ele><time>2026-05-06T11:38:42.564Z</time></trkpt><trkpt lat="37.8311083" lon="12.8050183"><ele>320.0</ele><time>2026-05-06T11:38:43.564Z</time></trkpt><trkpt lat="37.8309733" lon="12.804975"><ele>320.0</ele><time>2026-05-06T11:38:44.565Z</time></trkpt><trkpt lat="37.8308517" lon="12.8049267"><ele>320.0</ele><time>2026-05-06T11:38:45.564Z</time></trkpt><trkpt lat="37.8307383" lon="12.8048683"><ele>321.25</ele><time>2026-05-06T11:38:46.564Z</time></trkpt><trkpt lat="37.8306233" lon="12.804815"><ele>322.5</ele><time>2026-05-06T11:38:47.564Z</time></trkpt><trkpt lat="37.8305133" lon="12.804755"><ele>323.75</ele><time>2026-05-06T11:38:48.565Z</time></trkpt><trkpt lat="37.830405" lon="12.8046917"><ele>325.0</ele><time>2026-05-06T11:38:49.564Z</time></trkpt><trkpt lat="37.8302917" lon="12.8046217"><ele>325.0</ele><time>2026-05-06T11:38:50.565Z</time></trkpt><trkpt lat="37.8301733" lon="12.804555"><ele>325.0</ele><time>2026-05-06T11:38:51.563Z</time></trkpt><trkpt lat="37.8300533" lon="12.8044967"><ele>325.0</ele><time>2026-05-06T11:38:52.565Z</time></trkpt><trkpt lat="37.8299267" lon="12.8044517"><ele>325.0</ele><time>2026-05-06T11:38:53.563Z</time></trkpt><trkpt lat="37.8297933" lon="12.8044167"><ele>326.5</ele><time>2026-05-06T11:38:54.565Z</time></trkpt><trkpt lat="37.8296533" lon="12.8043933"><ele>328.0</ele><time>2026-05-06T11:38:55.563Z</time></trkpt><trkpt lat="37.8295083" lon="12.8043767"><ele>329.5</ele><time>2026-05-06T11:38:56.565Z</time></trkpt><trkpt lat="37.8293583" lon="12.8043667"><ele>331.0</ele><time>2026-05-06T11:38:57.564Z</time></trkpt><trkpt lat="37.8292067" lon="12.8043517"><ele>332.66666666666663</ele><time>2026-05-06T11:38:58.564Z</time></trkpt><trkpt lat="37.8290517" lon="12.80434"><ele>334.3333333333333</ele><time>2026-05-06T11:38:59.564Z</time></trkpt><trkpt lat="37.8288883" lon="12.804325"><ele>336.0</ele><time>2026-05-06T11:39:00.564Z</time></trkpt><trkpt lat="37.82873" lon="12.80432"><ele>335.5</ele><time>2026-05-06T11:39:01.564Z</time></trkpt><trkpt lat="37.8285817" lon="12.8043217"><ele>335.0</ele><time>2026-05-06T11:39:02.566Z</time></trkpt><trkpt lat="37.8284367" lon="12.80433"><ele>334.5</ele><time>2026-05-06T11:39:03.566Z</time></trkpt><trkpt lat="37.8282883" lon="12.804345"><ele>334.0</ele><time>2026-05-06T11:39:04.564Z</time></trkpt><trkpt lat="37.8281383" lon="12.8043667"><ele>334.0</ele><time>2026-05-06T11:39:05.565Z</time></trkpt><trkpt lat="37.827985" lon="12.8043983"><ele>334.0</ele><time>2026-05-06T11:39:06.565Z</time></trkpt><trkpt lat="37.8278333" lon="12.8044367"><ele>334.0</ele><time>2026-05-06T11:39:07.564Z</time></trkpt><trkpt lat="37.82768" lon="12.8044767"><ele>333.5</ele><time>2026-05-06T11:39:08.566Z</time></trkpt><trkpt lat="37.8275333" lon="12.8045133"><ele>333.0</ele><time>2026-05-06T11:39:09.565Z</time></trkpt><trkpt lat="37.82739" lon="12.804545"><ele>332.5</ele><time>2026-05-06T11:39:10.563Z</time></trkpt><trkpt lat="37.8272483" lon="12.8045767"><ele>332.0</ele><time>2026-05-06T11:39:11.564Z</time></trkpt><trkpt lat="37.8271067" lon="12.80461"><ele>332.0</ele><time>2026-05-06T11:39:12.564Z</time></trkpt><trkpt lat="37.8269617" lon="12.804645"><ele>332.0</ele><time>2026-05-06T11:39:13.564Z</time></trkpt><trkpt lat="37.8268183" lon="12.8046817"><ele>332.0</ele><time>2026-05-06T11:39:14.564Z</time></trkpt><trkpt lat="37.8266717" lon="12.80472"><ele>332.0</ele><time>2026-05-06T11:39:15.563Z</time></trkpt><trkpt lat="37.8265233" lon="12.8047517"><ele>332.5</ele><time>2026-05-06T11:39:16.564Z</time></trkpt><trkpt lat="37.826375" lon="12.8047833"><ele>333.0</ele><time>2026-05-06T11:39:17.564Z</time></trkpt><trkpt lat="37.8262333" lon="12.8048167"><ele>333.5</ele><time>2026-05-06T11:39:18.563Z</time></trkpt><trkpt lat="37.8260964" lon="12.8048471"><ele>334.0</ele><time>2026-05-06T11:39:19.565Z</time></trkpt><trkpt lat="37.8259653" lon="12.8048643"><ele>334.5</ele><time>2026-05-06T11:39:20.565Z</time></trkpt><trkpt lat="37.8258374" lon="12.8048577"><ele>335.0</ele><time>2026-05-06T11:39:21.564Z</time></trkpt><trkpt lat="37.8257119" lon="12.8048325"><ele>335.5</ele><time>2026-05-06T11:39:22.567Z</time></trkpt><trkpt lat="37.8255959" lon="12.8047807"><ele>336.0</ele><time>2026-05-06T11:39:23.565Z</time></trkpt><trkpt lat="37.825495" lon="12.8047003"><ele>336.0</ele><time>2026-05-06T11:39:24.563Z</time></trkpt><trkpt lat="37.8254012" lon="12.8046044"><ele>336.0</ele><time>2026-05-06T11:39:25.565Z</time></trkpt><trkpt lat="37.8253105" lon="12.804515"><ele>336.0</ele><time>2026-05-06T11:39:26.565Z</time></trkpt><trkpt lat="37.8252196" lon="12.8044405"><ele>336.0</ele><time>2026-05-06T11:39:27.563Z</time></trkpt><trkpt lat="37.8251326" lon="12.8043843"><ele>336.0</ele><time>2026-05-06T11:39:28.565Z</time></trkpt><trkpt lat="37.8250577" lon="12.804338"><ele>335.8333333333333</ele><time>2026-05-06T11:39:29.564Z</time></trkpt><trkpt lat="37.8249985" lon="12.8042988"><ele>335.6666666666667</ele><time>2026-05-06T11:39:30.566Z</time></trkpt><trkpt lat="37.824927" lon="12.8042411"><ele>335.5</ele><time>2026-05-06T11:39:32.564Z</time></trkpt><trkpt lat="37.8248783" lon="12.8041222"><ele>335.33333333333337</ele><time>2026-05-06T11:39:35.564Z</time></trkpt><trkpt lat="37.8248282" lon="12.8040334"><ele>335.1666666666667</ele><time>2026-05-06T11:39:37.564Z</time></trkpt><trkpt lat="37.8247562" lon="12.8039926"><ele>335.0</ele><time>2026-05-06T11:39:45.564Z</time></trkpt><trkpt lat="37.8246851" lon="12.803966"><ele>335.0</ele><time>2026-05-06T11:39:48.564Z</time></trkpt></trkseg><trkseg><trkpt lat="37.8246792" lon="12.8040736"><ele>335.0</ele><time>2026-05-06T12:37:16.564Z</time></trkpt><trkpt lat="37.8245874" lon="12.8040868"><ele>335.0</ele><time>2026-05-06T12:37:18.565Z</time></trkpt><trkpt lat="37.8244415" lon="12.8040545"><ele>335.0</ele><time>2026-05-06T12:37:20.566Z</time></trkpt><trkpt lat="37.8243509" lon="12.80403"><ele>335.0</ele><time>2026-05-06T12:37:21.565Z</time></trkpt><trkpt lat="37.82424" lon="12.8039883"><ele>335.0</ele><time>2026-05-06T12:37:22.565Z</time></trkpt><trkpt lat="37.8241367" lon="12.8039383"><ele>334.6</ele><time>2026-05-06T12:37:23.565Z</time></trkpt><trkpt lat="37.8240483" lon="12.8038933"><ele>334.2</ele><time>2026-05-06T12:37:24.564Z</time></trkpt><trkpt lat="37.823975" lon="12.80386"><ele>333.79999999999995</ele><time>2026-05-06T12:37:25.564Z</time></trkpt><trkpt lat="37.8238767" lon="12.8038083"><ele>333.4</ele><time>2026-05-06T12:37:27.564Z</time></trkpt><trkpt lat="37.8238133" lon="12.8038"><ele>333.0</ele><time>2026-05-06T12:37:30.564Z</time></trkpt><trkpt lat="37.82369" lon="12.8037683"><ele>333.0</ele><time>2026-05-06T12:37:33.563Z</time></trkpt><trkpt lat="37.8235883" lon="12.80375"><ele>333.0</ele><time>2026-05-06T12:37:34.563Z</time></trkpt><trkpt lat="37.8234567" lon="12.8037283"><ele>333.0</ele><time>2026-05-06T12:37:35.563Z</time></trkpt><trkpt lat="37.8233417" lon="12.8037133"><ele>333.0</ele><time>2026-05-06T12:37:36.565Z</time></trkpt><trkpt lat="37.8232317" lon="12.8037067"><ele>333.59999999999997</ele><time>2026-05-06T12:37:37.565Z</time></trkpt><trkpt lat="37.82313" lon="12.8037133"><ele>334.2</ele><time>2026-05-06T12:37:38.563Z</time></trkpt><trkpt lat="37.82303" lon="12.8037267"><ele>334.8</ele><time>2026-05-06T12:37:39.563Z</time></trkpt><trkpt lat="37.82294" lon="12.8037567"><ele>335.4</ele><time>2026-05-06T12:37:40.564Z</time></trkpt><trkpt lat="37.82286" lon="12.8038067"><ele>336.0</ele><time>2026-05-06T12:37:41.563Z</time></trkpt><trkpt lat="37.82279" lon="12.8038617"><ele>336.0</ele><time>2026-05-06T12:37:42.564Z</time></trkpt><trkpt lat="37.822725" lon="12.8039167"><ele>336.0</ele><time>2026-05-06T12:37:43.564Z</time></trkpt><trkpt lat="37.8226667" lon="12.80397"><ele>336.0</ele><time>2026-05-06T12:37:44.564Z</time></trkpt><trkpt lat="37.82261" lon="12.8040217"><ele>336.0</ele><time>2026-05-06T12:37:45.564Z</time></trkpt><trkpt lat="37.82255" lon="12.80407"><ele>336.0</ele><time>2026-05-06T12:37:46.564Z</time></trkpt><trkpt lat="37.8224783" lon="12.80411"><ele>336.0</ele><time>2026-05-06T12:37:47.563Z</time></trkpt><trkpt lat="37.8223933" lon="12.804145"><ele>336.6</ele><time>2026-05-06T12:37:48.565Z</time></trkpt><trkpt lat="37.8223017" lon="12.8041817"><ele>337.20000000000005</ele><time>2026-05-06T12:37:49.565Z</time></trkpt><trkpt lat="37.8222033" lon="12.8042167"><ele>337.79999999999995</ele><time>2026-05-06T12:37:50.563Z</time></trkpt><trkpt lat="37.8220967" lon="12.80425"><ele>338.4</ele><time>2026-05-06T12:37:51.564Z</time></trkpt><trkpt lat="37.82199" lon="12.80429"><ele>339.0</ele><time>2026-05-06T12:37:52.563Z</time></trkpt><trkpt lat="37.8218783" lon="12.8043333"><ele>336.25</ele><time>2026-05-06T12:37:53.565Z</time></trkpt><trkpt lat="37.8217667" lon="12.80439"><ele>333.5</ele><time>2026-05-06T12:37:54.564Z</time></trkpt><trkpt lat="37.821655" lon="12.8044583"><ele>330.75</ele><time>2026-05-06T12:37:55.564Z</time></trkpt><trkpt lat="37.8215483" lon="12.8045367"><ele>328.0</ele><time>2026-05-06T12:37:56.565Z</time></trkpt><trkpt lat="37.8214483" lon="12.8046317"><ele>328.0</ele><time>2026-05-06T12:37:57.563Z</time></trkpt><trkpt lat="37.821355" lon="12.8047317"><ele>328.0</ele><time>2026-05-06T12:37:58.565Z</time></trkpt><trkpt lat="37.82127" lon="12.80483"><ele>328.0</ele><time>2026-05-06T12:37:59.563Z</time></trkpt><trkpt lat="37.821195" lon="12.8049317"><ele>328.0</ele><time>2026-05-06T12:38:00.564Z</time></trkpt><trkpt lat="37.82113" lon="12.8050417"><ele>326.75</ele><time>2026-05-06T12:38:01.564Z</time></trkpt><trkpt lat="37.82107" lon="12.8051683"><ele>325.5</ele><time>2026-05-06T12:38:02.563Z</time></trkpt><trkpt lat="37.821015" lon="12.805305"><ele>324.25</ele><time>2026-05-06T12:38:03.564Z</time></trkpt><trkpt lat="37.8209483" lon="12.8054433"><ele>323.0</ele><time>2026-05-06T12:38:04.563Z</time></trkpt><trkpt lat="37.8208783" lon="12.8055883"><ele>323.0</ele><time>2026-05-06T12:38:05.564Z</time></trkpt><trkpt lat="37.8208067" lon="12.8057417"><ele>323.0</ele><time>2026-05-06T12:38:06.564Z</time></trkpt><trkpt lat="37.820735" lon="12.805895"><ele>323.0</ele><time>2026-05-06T12:38:07.565Z</time></trkpt><trkpt lat="37.82067" lon="12.8060517"><ele>323.0</ele><time>2026-05-06T12:38:08.564Z</time></trkpt><trkpt lat="37.8206067" lon="12.8061983"><ele>321.75</ele><time>2026-05-06T12:38:09.564Z</time></trkpt><trkpt lat="37.8205417" lon="12.8063317"><ele>320.5</ele><time>2026-05-06T12:38:10.563Z</time></trkpt><trkpt lat="37.8204783" lon="12.8064617"><ele>319.25</ele><time>2026-05-06T12:38:11.563Z</time></trkpt><trkpt lat="37.8204167" lon="12.8065833"><ele>318.0</ele><time>2026-05-06T12:38:12.564Z</time></trkpt><trkpt lat="37.8203533" lon="12.8066967"><ele>318.0</ele><time>2026-05-06T12:38:13.565Z</time></trkpt><trkpt lat="37.820285" lon="12.806805"><ele>318.0</ele><time>2026-05-06T12:38:14.565Z</time></trkpt><trkpt lat="37.8202083" lon="12.80691"><ele>318.0</ele><time>2026-05-06T12:38:15.564Z</time></trkpt><trkpt lat="37.82011" lon="12.8069983"><ele>318.0</ele><time>2026-05-06T12:38:16.565Z</time></trkpt><trkpt lat="37.8200033" lon="12.8070817"><ele>317.0</ele><time>2026-05-06T12:38:17.564Z</time></trkpt><trkpt lat="37.8198933" lon="12.80716"><ele>316.0</ele><time>2026-05-06T12:38:18.564Z</time></trkpt><trkpt lat="37.8197733" lon="12.80723"><ele>315.0</ele><time>2026-05-06T12:38:19.565Z</time></trkpt><trkpt lat="37.8196467" lon="12.8072983"><ele>314.0</ele><time>2026-05-06T12:38:20.564Z</time></trkpt><trkpt lat="37.819515" lon="12.8073617"><ele>314.0</ele><time>2026-05-06T12:38:21.564Z</time></trkpt><trkpt lat="37.819385" lon="12.807425"><ele>314.0</ele><time>2026-05-06T12:38:22.564Z</time></trkpt><trkpt lat="37.8192633" lon="12.8074933"><ele>314.0</ele><time>2026-05-06T12:38:23.563Z</time></trkpt><trkpt lat="37.8191583" lon="12.8075767"><ele>314.0</ele><time>2026-05-06T12:38:24.564Z</time></trkpt><trkpt lat="37.8190667" lon="12.8076767"><ele>312.5</ele><time>2026-05-06T12:38:25.564Z</time></trkpt><trkpt lat="37.8189817" lon="12.8077833"><ele>311.0</ele><time>2026-05-06T12:38:26.564Z</time></trkpt><trkpt lat="37.8189" lon="12.8078983"><ele>309.5</ele><time>2026-05-06T12:38:27.564Z</time></trkpt><trkpt lat="37.81882" lon="12.8080117"><ele>308.0</ele><time>2026-05-06T12:38:28.563Z</time></trkpt><trkpt lat="37.8187367" lon="12.808115"><ele>308.0</ele><time>2026-05-06T12:38:29.564Z</time></trkpt><trkpt lat="37.8186467" lon="12.808205"><ele>308.0</ele><time>2026-05-06T12:38:30.564Z</time></trkpt><trkpt lat="37.8185583" lon="12.8082817"><ele>308.0</ele><time>2026-05-06T12:38:31.564Z</time></trkpt><trkpt lat="37.8184717" lon="12.80835"><ele>308.0</ele><time>2026-05-06T12:38:32.563Z</time></trkpt><trkpt lat="37.8183833" lon="12.8084033"><ele>308.0</ele><time>2026-05-06T12:38:33.565Z</time></trkpt><trkpt lat="37.8182933" lon="12.8084483"><ele>307.6</ele><time>2026-05-06T12:38:34.565Z</time></trkpt><trkpt lat="37.818195" lon="12.8084867"><ele>307.20000000000005</ele><time>2026-05-06T12:38:35.565Z</time></trkpt><trkpt lat="37.8180933" lon="12.8085133"><ele>306.8</ele><time>2026-05-06T12:38:36.563Z</time></trkpt><trkpt lat="37.8179867" lon="12.80853"><ele>306.40000000000003</ele><time>2026-05-06T12:38:37.564Z</time></trkpt><trkpt lat="37.8178833" lon="12.808545"><ele>306.0</ele><time>2026-05-06T12:38:38.565Z</time></trkpt><trkpt lat="37.8177817" lon="12.80856"><ele>305.2</ele><time>2026-05-06T12:38:39.564Z</time></trkpt><trkpt lat="37.8176833" lon="12.80857"><ele>304.40000000000003</ele><time>2026-05-06T12:38:40.564Z</time></trkpt><trkpt lat="37.8175783" lon="12.8085667"><ele>303.6</ele><time>2026-05-06T12:38:41.564Z</time></trkpt><trkpt lat="37.8174717" lon="12.808575"><ele>302.8</ele><time>2026-05-06T12:38:42.564Z</time></trkpt><trkpt lat="37.8173567" lon="12.808585"><ele>302.0</ele><time>2026-05-06T12:38:43.564Z</time></trkpt><trkpt lat="37.8172417" lon="12.80861"><ele>301.25</ele><time>2026-05-06T12:38:44.563Z</time></trkpt><trkpt lat="37.8171217" lon="12.8086417"><ele>300.5</ele><time>2026-05-06T12:38:45.564Z</time></trkpt><trkpt lat="37.8170067" lon="12.808685"><ele>299.75</ele><time>2026-05-06T12:38:46.564Z</time></trkpt><trkpt lat="37.8168867" lon="12.808735"><ele>299.0</ele><time>2026-05-06T12:38:47.564Z</time></trkpt><trkpt lat="37.8167683" lon="12.80879"><ele>298.4</ele><time>2026-05-06T12:38:48.564Z</time></trkpt><trkpt lat="37.81666" lon="12.8088517"><ele>297.79999999999995</ele><time>2026-05-06T12:38:49.563Z</time></trkpt><trkpt lat="37.8165683" lon="12.8089133"><ele>297.20000000000005</ele><time>2026-05-06T12:38:50.565Z</time></trkpt><trkpt lat="37.816485" lon="12.8089717"><ele>296.6</ele><time>2026-05-06T12:38:51.564Z</time></trkpt><trkpt lat="37.8164067" lon="12.8090333"><ele>296.0</ele><time>2026-05-06T12:38:52.564Z</time></trkpt><trkpt lat="37.8163333" lon="12.8091017"><ele>296.0</ele><time>2026-05-06T12:38:53.564Z</time></trkpt><trkpt lat="37.8162683" lon="12.8091817"><ele>296.0</ele><time>2026-05-06T12:38:54.565Z</time></trkpt><trkpt lat="37.8162167" lon="12.8092717"><ele>296.0</ele><time>2026-05-06T12:38:55.563Z</time></trkpt><trkpt lat="37.81618" lon="12.8093733"><ele>296.0</ele><time>2026-05-06T12:38:56.565Z</time></trkpt><trkpt lat="37.8161567" lon="12.8094817"><ele>296.0</ele><time>2026-05-06T12:38:57.564Z</time></trkpt><trkpt lat="37.81616" lon="12.809595"><ele>296.0</ele><time>2026-05-06T12:38:58.563Z</time></trkpt><trkpt lat="37.8161867" lon="12.80971"><ele>295.0</ele><time>2026-05-06T12:38:59.564Z</time></trkpt><trkpt lat="37.8162433" lon="12.8098183"><ele>294.0</ele><time>2026-05-06T12:39:00.566Z</time></trkpt><trkpt lat="37.81632" lon="12.809915"><ele>293.0</ele><time>2026-05-06T12:39:01.565Z</time></trkpt><trkpt lat="37.8164133" lon="12.8100117"><ele>292.0</ele><time>2026-05-06T12:39:02.565Z</time></trkpt><trkpt lat="37.8165183" lon="12.8101"><ele>291.0</ele><time>2026-05-06T12:39:03.564Z</time></trkpt><trkpt lat="37.816625" lon="12.8101817"><ele>290.0</ele><time>2026-05-06T12:39:04.564Z</time></trkpt><trkpt lat="37.8167283" lon="12.81026"><ele>289.0</ele><time>2026-05-06T12:39:05.564Z</time></trkpt><trkpt lat="37.816825" lon="12.8103367"><ele>288.0</ele><time>2026-05-06T12:39:06.566Z</time></trkpt><trkpt lat="37.81691" lon="12.8104183"><ele>290.0</ele><time>2026-05-06T12:39:07.564Z</time></trkpt><trkpt lat="37.8169817" lon="12.8105067"><ele>292.0</ele><time>2026-05-06T12:39:08.565Z</time></trkpt><trkpt lat="37.817035" lon="12.8106083"><ele>294.0</ele><time>2026-05-06T12:39:09.564Z</time></trkpt><trkpt lat="37.8170717" lon="12.8107183"><ele>296.0</ele><time>2026-05-06T12:39:10.564Z</time></trkpt><trkpt lat="37.81709" lon="12.810835"><ele>298.0</ele><time>2026-05-06T12:39:11.564Z</time></trkpt><trkpt lat="37.8170867" lon="12.8109483"><ele>299.2</ele><time>2026-05-06T12:39:12.564Z</time></trkpt><trkpt lat="37.8170567" lon="12.8110633"><ele>300.4</ele><time>2026-05-06T12:39:13.563Z</time></trkpt><trkpt lat="37.8170033" lon="12.8111767"><ele>301.59999999999997</ele><time>2026-05-06T12:39:14.564Z</time></trkpt><trkpt lat="37.8169317" lon="12.8112833"><ele>302.8</ele><time>2026-05-06T12:39:15.565Z</time></trkpt><trkpt lat="37.8168433" lon="12.8113717"><ele>304.0</ele><time>2026-05-06T12:39:16.564Z</time></trkpt><trkpt lat="37.8167483" lon="12.8114567"><ele>303.75</ele><time>2026-05-06T12:39:17.564Z</time></trkpt><trkpt lat="37.81665" lon="12.8115417"><ele>303.5</ele><time>2026-05-06T12:39:18.565Z</time></trkpt><trkpt lat="37.8165467" lon="12.8116317"><ele>303.25</ele><time>2026-05-06T12:39:19.565Z</time></trkpt><trkpt lat="37.8164433" lon="12.811735"><ele>303.0</ele><time>2026-05-06T12:39:20.564Z</time></trkpt><trkpt lat="37.8163433" lon="12.8118517"><ele>303.0</ele><time>2026-05-06T12:39:21.564Z</time></trkpt><trkpt lat="37.8162433" lon="12.8119783"><ele>303.0</ele><time>2026-05-06T12:39:22.565Z</time></trkpt><trkpt lat="37.8161517" lon="12.8121117"><ele>303.0</ele><time>2026-05-06T12:39:23.565Z</time></trkpt><trkpt lat="37.81607" lon="12.812245"><ele>303.0</ele><time>2026-05-06T12:39:24.564Z</time></trkpt><trkpt lat="37.8159917" lon="12.8123783"><ele>299.75</ele><time>2026-05-06T12:39:25.564Z</time></trkpt><trkpt lat="37.8159167" lon="12.812515"><ele>296.5</ele><time>2026-05-06T12:39:26.565Z</time></trkpt><trkpt lat="37.8158417" lon="12.81266"><ele>293.25</ele><time>2026-05-06T12:39:27.566Z</time></trkpt><trkpt lat="37.81577" lon="12.8128083"><ele>290.0</ele><time>2026-05-06T12:39:28.565Z</time></trkpt><trkpt lat="37.8157017" lon="12.8129567"><ele>290.0</ele><time>2026-05-06T12:39:29.566Z</time></trkpt><trkpt lat="37.81564" lon="12.8131033"><ele>290.0</ele><time>2026-05-06T12:39:30.565Z</time></trkpt><trkpt lat="37.8155817" lon="12.8132483"><ele>290.0</ele><time>2026-05-06T12:39:31.565Z</time></trkpt><trkpt lat="37.8155267" lon="12.8133933"><ele>290.0</ele><time>2026-05-06T12:39:32.566Z</time></trkpt><trkpt lat="37.8154733" lon="12.8135367"><ele>291.5</ele><time>2026-05-06T12:39:33.566Z</time></trkpt><trkpt lat="37.8154167" lon="12.8136833"><ele>293.0</ele><time>2026-05-06T12:39:34.564Z</time></trkpt><trkpt lat="37.8153517" lon="12.8138283"><ele>294.5</ele><time>2026-05-06T12:39:35.564Z</time></trkpt><trkpt lat="37.8152733" lon="12.8139667"><ele>296.0</ele><time>2026-05-06T12:39:36.565Z</time></trkpt><trkpt lat="37.8151833" lon="12.814095"><ele>294.0</ele><time>2026-05-06T12:39:37.564Z</time></trkpt><trkpt lat="37.8150883" lon="12.8142233"><ele>292.0</ele><time>2026-05-06T12:39:38.564Z</time></trkpt><trkpt lat="37.81499" lon="12.81435"><ele>290.0</ele><time>2026-05-06T12:39:39.564Z</time></trkpt><trkpt lat="37.8148883" lon="12.8144817"><ele>288.0</ele><time>2026-05-06T12:39:40.564Z</time></trkpt><trkpt lat="37.81478" lon="12.81461"><ele>288.0</ele><time>2026-05-06T12:39:41.564Z</time></trkpt><trkpt lat="37.8146733" lon="12.81474"><ele>288.0</ele><time>2026-05-06T12:39:42.566Z</time></trkpt><trkpt lat="37.8145683" lon="12.81487"><ele>288.0</ele><time>2026-05-06T12:39:43.565Z</time></trkpt><trkpt lat="37.814465" lon="12.815005"><ele>288.0</ele><time>2026-05-06T12:39:44.564Z</time></trkpt><trkpt lat="37.8143633" lon="12.8151383"><ele>286.5</ele><time>2026-05-06T12:39:45.564Z</time></trkpt><trkpt lat="37.8142633" lon="12.81527"><ele>285.0</ele><time>2026-05-06T12:39:46.564Z</time></trkpt><trkpt lat="37.8141633" lon="12.8154"><ele>283.5</ele><time>2026-05-06T12:39:47.564Z</time></trkpt><trkpt lat="37.8140667" lon="12.81553"><ele>282.0</ele><time>2026-05-06T12:39:48.563Z</time></trkpt><trkpt lat="37.8139717" lon="12.8156533"><ele>282.0</ele><time>2026-05-06T12:39:49.565Z</time></trkpt><trkpt lat="37.813885" lon="12.8157767"><ele>282.0</ele><time>2026-05-06T12:39:50.566Z</time></trkpt><trkpt lat="37.8138117" lon="12.8159033"><ele>282.0</ele><time>2026-05-06T12:39:51.565Z</time></trkpt><trkpt lat="37.81376" lon="12.8160383"><ele>282.0</ele><time>2026-05-06T12:39:52.565Z</time></trkpt><trkpt lat="37.8137317" lon="12.81618"><ele>282.75</ele><time>2026-05-06T12:39:53.565Z</time></trkpt><trkpt lat="37.8137267" lon="12.8163317"><ele>283.5</ele><time>2026-05-06T12:39:54.565Z</time></trkpt><trkpt lat="37.8137383" lon="12.8164867"><ele>284.25</ele><time>2026-05-06T12:39:55.565Z</time></trkpt><trkpt lat="37.8137633" lon="12.8166433"><ele>285.0</ele><time>2026-05-06T12:39:56.565Z</time></trkpt><trkpt lat="37.8137983" lon="12.816805"><ele>282.0</ele><time>2026-05-06T12:39:57.564Z</time></trkpt><trkpt lat="37.8138417" lon="12.8169683"><ele>279.0</ele><time>2026-05-06T12:39:58.566Z</time></trkpt><trkpt lat="37.8138933" lon="12.817135"><ele>276.0</ele><time>2026-05-06T12:39:59.564Z</time></trkpt><trkpt lat="37.8139533" lon="12.8173"><ele>273.0</ele><time>2026-05-06T12:40:00.564Z</time></trkpt><trkpt lat="37.81403" lon="12.8174583"><ele>273.0</ele><time>2026-05-06T12:40:01.564Z</time></trkpt><trkpt lat="37.8141167" lon="12.8176033"><ele>273.0</ele><time>2026-05-06T12:40:02.565Z</time></trkpt><trkpt lat="37.814215" lon="12.8177233"><ele>273.0</ele><time>2026-05-06T12:40:03.564Z</time></trkpt><trkpt lat="37.8143217" lon="12.8178233"><ele>273.0</ele><time>2026-05-06T12:40:04.565Z</time></trkpt><trkpt lat="37.8144333" lon="12.8179017"><ele>273.25</ele><time>2026-05-06T12:40:05.563Z</time></trkpt><trkpt lat="37.8145533" lon="12.81796"><ele>273.5</ele><time>2026-05-06T12:40:06.565Z</time></trkpt><trkpt lat="37.814675" lon="12.8180067"><ele>273.75</ele><time>2026-05-06T12:40:07.564Z</time></trkpt><trkpt lat="37.814795" lon="12.8180467"><ele>274.0</ele><time>2026-05-06T12:40:08.565Z</time></trkpt><trkpt lat="37.81491" lon="12.8180883"><ele>274.0</ele><time>2026-05-06T12:40:09.563Z</time></trkpt><trkpt lat="37.815015" lon="12.81814"><ele>274.0</ele><time>2026-05-06T12:40:10.564Z</time></trkpt><trkpt lat="37.8150967" lon="12.8182167"><ele>274.0</ele><time>2026-05-06T12:40:11.563Z</time></trkpt><trkpt lat="37.8151483" lon="12.8183233"><ele>274.0</ele><time>2026-05-06T12:40:12.565Z</time></trkpt><trkpt lat="37.8151633" lon="12.818445"><ele>274.0</ele><time>2026-05-06T12:40:13.564Z</time></trkpt><trkpt lat="37.8151483" lon="12.818575"><ele>272.0</ele><time>2026-05-06T12:40:14.564Z</time></trkpt><trkpt lat="37.81511" lon="12.8187117"><ele>270.0</ele><time>2026-05-06T12:40:15.564Z</time></trkpt><trkpt lat="37.8150617" lon="12.81885"><ele>268.0</ele><time>2026-05-06T12:40:16.564Z</time></trkpt><trkpt lat="37.81501" lon="12.818995"><ele>266.0</ele><time>2026-05-06T12:40:17.564Z</time></trkpt><trkpt lat="37.814955" lon="12.8191483"><ele>266.0</ele><time>2026-05-06T12:40:18.564Z</time></trkpt><trkpt lat="37.8148967" lon="12.8193083"><ele>266.0</ele><time>2026-05-06T12:40:19.564Z</time></trkpt><trkpt lat="37.8148383" lon="12.8194717"><ele>266.0</ele><time>2026-05-06T12:40:20.565Z</time></trkpt><trkpt lat="37.8147783" lon="12.8196417"><ele>266.0</ele><time>2026-05-06T12:40:21.566Z</time></trkpt><trkpt lat="37.8147133" lon="12.819815"><ele>265.5</ele><time>2026-05-06T12:40:22.565Z</time></trkpt><trkpt lat="37.8146517" lon="12.8199867"><ele>265.0</ele><time>2026-05-06T12:40:23.565Z</time></trkpt><trkpt lat="37.8145867" lon="12.8201517"><ele>264.5</ele><time>2026-05-06T12:40:24.565Z</time></trkpt><trkpt lat="37.8145233" lon="12.82031"><ele>264.0</ele><time>2026-05-06T12:40:25.564Z</time></trkpt><trkpt lat="37.8144617" lon="12.8204683"><ele>262.25</ele><time>2026-05-06T12:40:26.565Z</time></trkpt><trkpt lat="37.8143983" lon="12.8206317"><ele>260.5</ele><time>2026-05-06T12:40:27.565Z</time></trkpt><trkpt lat="37.8143333" lon="12.8208"><ele>258.75</ele><time>2026-05-06T12:40:28.563Z</time></trkpt><trkpt lat="37.8142683" lon="12.8209717"><ele>257.0</ele><time>2026-05-06T12:40:29.566Z</time></trkpt><trkpt lat="37.8141967" lon="12.8211467"><ele>257.0</ele><time>2026-05-06T12:40:30.564Z</time></trkpt><trkpt lat="37.8141217" lon="12.821315"><ele>257.0</ele><time>2026-05-06T12:40:31.565Z</time></trkpt><trkpt lat="37.8140433" lon="12.8214733"><ele>257.0</ele><time>2026-05-06T12:40:32.565Z</time></trkpt><trkpt lat="37.8139583" lon="12.8216267"><ele>257.0</ele><time>2026-05-06T12:40:33.564Z</time></trkpt><trkpt lat="37.8138633" lon="12.8217783"><ele>256.6666666666667</ele><time>2026-05-06T12:40:34.565Z</time></trkpt><trkpt lat="37.81376" lon="12.82193"><ele>256.3333333333333</ele><time>2026-05-06T12:40:35.564Z</time></trkpt><trkpt lat="37.81365" lon="12.8220783"><ele>256.0</ele><time>2026-05-06T12:40:36.564Z</time></trkpt><trkpt lat="37.8135383" lon="12.8222217"><ele>255.75</ele><time>2026-05-06T12:40:37.563Z</time></trkpt><trkpt lat="37.8134317" lon="12.822355"><ele>255.5</ele><time>2026-05-06T12:40:38.568Z</time></trkpt><trkpt lat="37.8133383" lon="12.8224783"><ele>255.25</ele><time>2026-05-06T12:40:39.564Z</time></trkpt><trkpt lat="37.8132533" lon="12.8225933"><ele>255.0</ele><time>2026-05-06T12:40:40.564Z</time></trkpt><trkpt lat="37.813175" lon="12.8227067"><ele>255.0</ele><time>2026-05-06T12:40:41.564Z</time></trkpt><trkpt lat="37.8130983" lon="12.822815"><ele>255.0</ele><time>2026-05-06T12:40:42.564Z</time></trkpt><trkpt lat="37.81302" lon="12.8229233"><ele>255.0</ele><time>2026-05-06T12:40:43.564Z</time></trkpt><trkpt lat="37.8129383" lon="12.823035"><ele>255.0</ele><time>2026-05-06T12:40:44.565Z</time></trkpt><trkpt lat="37.8128533" lon="12.8231567"><ele>255.0</ele><time>2026-05-06T12:40:45.565Z</time></trkpt><trkpt lat="37.8127667" lon="12.82328"><ele>255.0</ele><time>2026-05-06T12:40:46.563Z</time></trkpt><trkpt lat="37.812685" lon="12.823405"><ele>255.0</ele><time>2026-05-06T12:40:47.564Z</time></trkpt><trkpt lat="37.812605" lon="12.8235383"><ele>255.0</ele><time>2026-05-06T12:40:48.565Z</time></trkpt><trkpt lat="37.8125267" lon="12.82368"><ele>253.75</ele><time>2026-05-06T12:40:49.566Z</time></trkpt><trkpt lat="37.812445" lon="12.8238283"><ele>252.5</ele><time>2026-05-06T12:40:50.566Z</time></trkpt><trkpt lat="37.8123617" lon="12.8239867"><ele>251.25</ele><time>2026-05-06T12:40:51.564Z</time></trkpt><trkpt lat="37.8122817" lon="12.824155"><ele>250.0</ele><time>2026-05-06T12:40:52.565Z</time></trkpt><trkpt lat="37.8122017" lon="12.8243333"><ele>250.0</ele><time>2026-05-06T12:40:53.565Z</time></trkpt><trkpt lat="37.81212" lon="12.8245133"><ele>250.0</ele><time>2026-05-06T12:40:54.565Z</time></trkpt><trkpt lat="37.812035" lon="12.824695"><ele>250.0</ele><time>2026-05-06T12:40:55.564Z</time></trkpt><trkpt lat="37.81195" lon="12.82487"><ele>250.0</ele><time>2026-05-06T12:40:56.564Z</time></trkpt><trkpt lat="37.811865" lon="12.82504"><ele>250.0</ele><time>2026-05-06T12:40:57.564Z</time></trkpt><trkpt lat="37.811775" lon="12.8252067"><ele>250.0</ele><time>2026-05-06T12:40:58.565Z</time></trkpt><trkpt lat="37.811675" lon="12.8253733"><ele>247.66666666666666</ele><time>2026-05-06T12:40:59.566Z</time></trkpt><trkpt lat="37.81157" lon="12.8255383"><ele>245.33333333333331</ele><time>2026-05-06T12:41:00.564Z</time></trkpt><trkpt lat="37.81146" lon="12.8257017"><ele>243.0</ele><time>2026-05-06T12:41:01.564Z</time></trkpt><trkpt lat="37.8113467" lon="12.82587"><ele>243.66666666666669</ele><time>2026-05-06T12:41:02.565Z</time></trkpt><trkpt lat="37.8112317" lon="12.8260417"><ele>244.33333333333334</ele><time>2026-05-06T12:41:03.564Z</time></trkpt><trkpt lat="37.811115" lon="12.826215"><ele>245.0</ele><time>2026-05-06T12:41:04.563Z</time></trkpt><trkpt lat="37.8109983" lon="12.82639"><ele>241.66666666666669</ele><time>2026-05-06T12:41:05.565Z</time></trkpt><trkpt lat="37.8108817" lon="12.82657"><ele>238.33333333333331</ele><time>2026-05-06T12:41:06.565Z</time></trkpt><trkpt lat="37.810765" lon="12.8267583"><ele>235.0</ele><time>2026-05-06T12:41:07.565Z</time></trkpt><trkpt lat="37.81065" lon="12.8269483"><ele>235.0</ele><time>2026-05-06T12:41:08.565Z</time></trkpt><trkpt lat="37.810535" lon="12.8271417"><ele>235.0</ele><time>2026-05-06T12:41:09.563Z</time></trkpt><trkpt lat="37.8104217" lon="12.8273367"><ele>235.0</ele><time>2026-05-06T12:41:10.565Z</time></trkpt><trkpt lat="37.8103167" lon="12.8275267"><ele>236.33333333333331</ele><time>2026-05-06T12:41:11.565Z</time></trkpt><trkpt lat="37.81022" lon="12.8277117"><ele>237.66666666666669</ele><time>2026-05-06T12:41:12.564Z</time></trkpt><trkpt lat="37.8101283" lon="12.82789"><ele>239.0</ele><time>2026-05-06T12:41:13.564Z</time></trkpt><trkpt lat="37.8100417" lon="12.8280633"><ele>234.66666666666669</ele><time>2026-05-06T12:41:14.566Z</time></trkpt><trkpt lat="37.80996" lon="12.8282383"><ele>230.33333333333331</ele><time>2026-05-06T12:41:15.564Z</time></trkpt><trkpt lat="37.8098867" lon="12.8284117"><ele>226.0</ele><time>2026-05-06T12:41:16.564Z</time></trkpt><trkpt lat="37.80982" lon="12.82859"><ele>225.66666666666666</ele><time>2026-05-06T12:41:17.564Z</time></trkpt><trkpt lat="37.8097617" lon="12.828775"><ele>225.33333333333331</ele><time>2026-05-06T12:41:18.565Z</time></trkpt><trkpt lat="37.8097117" lon="12.8289683"><ele>225.0</ele><time>2026-05-06T12:41:19.564Z</time></trkpt><trkpt lat="37.8096683" lon="12.8291717"><ele>223.66666666666669</ele><time>2026-05-06T12:41:20.566Z</time></trkpt><trkpt lat="37.8096333" lon="12.829385"><ele>222.33333333333334</ele><time>2026-05-06T12:41:21.565Z</time></trkpt><trkpt lat="37.8096067" lon="12.829605"><ele>221.0</ele><time>2026-05-06T12:41:22.565Z</time></trkpt><trkpt lat="37.8095817" lon="12.8298333"><ele>221.0</ele><time>2026-05-06T12:41:23.565Z</time></trkpt><trkpt lat="37.80956" lon="12.8300667"><ele>221.0</ele><time>2026-05-06T12:41:24.565Z</time></trkpt><trkpt lat="37.8095383" lon="12.8303017"><ele>221.0</ele><time>2026-05-06T12:41:25.563Z</time></trkpt><trkpt lat="37.80952" lon="12.83054"><ele>221.0</ele><time>2026-05-06T12:41:26.565Z</time></trkpt><trkpt lat="37.8095" lon="12.83078"><ele>221.0</ele><time>2026-05-06T12:41:27.565Z</time></trkpt><trkpt lat="37.8094833" lon="12.83102"><ele>221.0</ele><time>2026-05-06T12:41:28.565Z</time></trkpt><trkpt lat="37.80947" lon="12.8312633"><ele>221.0</ele><time>2026-05-06T12:41:29.565Z</time></trkpt><trkpt lat="37.809455" lon="12.831505"><ele>221.0</ele><time>2026-05-06T12:41:30.563Z</time></trkpt><trkpt lat="37.809435" lon="12.83175"><ele>221.0</ele><time>2026-05-06T12:41:31.565Z</time></trkpt><trkpt lat="37.8094117" lon="12.8319917"><ele>222.0</ele><time>2026-05-06T12:41:32.565Z</time></trkpt><trkpt lat="37.8093833" lon="12.8322317"><ele>223.0</ele><time>2026-05-06T12:41:33.564Z</time></trkpt><trkpt lat="37.80935" lon="12.8324717"><ele>224.0</ele><time>2026-05-06T12:41:34.564Z</time></trkpt><trkpt lat="37.8093217" lon="12.8327083"><ele>224.0</ele><time>2026-05-06T12:41:35.564Z</time></trkpt><trkpt lat="37.8093017" lon="12.832945"><ele>224.0</ele><time>2026-05-06T12:41:36.565Z</time></trkpt><trkpt lat="37.809295" lon="12.833185"><ele>224.0</ele><time>2026-05-06T12:41:37.563Z</time></trkpt><trkpt lat="37.8092983" lon="12.8334233"><ele>224.66666666666669</ele><time>2026-05-06T12:41:38.565Z</time></trkpt><trkpt lat="37.8093" lon="12.8336633"><ele>225.33333333333331</ele><time>2026-05-06T12:41:39.564Z</time></trkpt><trkpt lat="37.8093" lon="12.8339017"><ele>226.0</ele><time>2026-05-06T12:41:40.565Z</time></trkpt><trkpt lat="37.8093" lon="12.834135"><ele>225.66666666666666</ele><time>2026-05-06T12:41:41.564Z</time></trkpt><trkpt lat="37.8092933" lon="12.8343567"><ele>225.33333333333331</ele><time>2026-05-06T12:41:42.565Z</time></trkpt><trkpt lat="37.80928" lon="12.8345633"><ele>225.0</ele><time>2026-05-06T12:41:43.565Z</time></trkpt><trkpt lat="37.8092567" lon="12.8347633"><ele>225.0</ele><time>2026-05-06T12:41:44.565Z</time></trkpt><trkpt lat="37.8092217" lon="12.8349567"><ele>225.0</ele><time>2026-05-06T12:41:45.564Z</time></trkpt><trkpt lat="37.8091817" lon="12.8351533"><ele>225.0</ele><time>2026-05-06T12:41:46.564Z</time></trkpt><trkpt lat="37.8091383" lon="12.83535"><ele>224.33333333333331</ele><time>2026-05-06T12:41:47.564Z</time></trkpt><trkpt lat="37.8090967" lon="12.83555"><ele>223.66666666666666</ele><time>2026-05-06T12:41:48.564Z</time></trkpt><trkpt lat="37.8090517" lon="12.835755"><ele>223.0</ele><time>2026-05-06T12:41:49.565Z</time></trkpt><trkpt lat="37.8090067" lon="12.835965"><ele>223.0</ele><time>2026-05-06T12:41:50.565Z</time></trkpt><trkpt lat="37.8089617" lon="12.8361783"><ele>223.0</ele><time>2026-05-06T12:41:51.565Z</time></trkpt><trkpt lat="37.8089167" lon="12.836395"><ele>223.0</ele><time>2026-05-06T12:41:52.565Z</time></trkpt><trkpt lat="37.8088683" lon="12.8366167"><ele>222.33333333333331</ele><time>2026-05-06T12:41:53.565Z</time></trkpt><trkpt lat="37.8088233" lon="12.8368417"><ele>221.66666666666669</ele><time>2026-05-06T12:41:54.564Z</time></trkpt><trkpt lat="37.808775" lon="12.8370717"><ele>221.0</ele><time>2026-05-06T12:41:55.564Z</time></trkpt><trkpt lat="37.8087233" lon="12.8373067"><ele>221.0</ele><time>2026-05-06T12:41:56.564Z</time></trkpt><trkpt lat="37.8086717" lon="12.8375433"><ele>221.0</ele><time>2026-05-06T12:41:57.565Z</time></trkpt><trkpt lat="37.8086217" lon="12.8377767"><ele>221.0</ele><time>2026-05-06T12:41:58.564Z</time></trkpt><trkpt lat="37.8085717" lon="12.8379983"><ele>220.33333333333334</ele><time>2026-05-06T12:41:59.563Z</time></trkpt><trkpt lat="37.808525" lon="12.83821"><ele>219.66666666666669</ele><time>2026-05-06T12:42:00.564Z</time></trkpt><trkpt lat="37.80848" lon="12.8384167"><ele>219.0</ele><time>2026-05-06T12:42:01.566Z</time></trkpt><trkpt lat="37.8084367" lon="12.8386217"><ele>218.0</ele><time>2026-05-06T12:42:02.564Z</time></trkpt><trkpt lat="37.8083917" lon="12.8388283"><ele>217.0</ele><time>2026-05-06T12:42:03.564Z</time></trkpt><trkpt lat="37.8083483" lon="12.839035"><ele>216.0</ele><time>2026-05-06T12:42:04.565Z</time></trkpt><trkpt lat="37.8083033" lon="12.8392467"><ele>216.0</ele><time>2026-05-06T12:42:05.565Z</time></trkpt><trkpt lat="37.8082567" lon="12.83946"><ele>216.0</ele><time>2026-05-06T12:42:06.565Z</time></trkpt><trkpt lat="37.8082117" lon="12.839675"><ele>216.0</ele><time>2026-05-06T12:42:07.565Z</time></trkpt><trkpt lat="37.8081667" lon="12.83989"><ele>216.0</ele><time>2026-05-06T12:42:08.564Z</time></trkpt><trkpt lat="37.8081183" lon="12.8401067"><ele>216.0</ele><time>2026-05-06T12:42:09.564Z</time></trkpt><trkpt lat="37.8080683" lon="12.840325"><ele>216.0</ele><time>2026-05-06T12:42:10.564Z</time></trkpt><trkpt lat="37.80802" lon="12.8405433"><ele>216.0</ele><time>2026-05-06T12:42:11.564Z</time></trkpt><trkpt lat="37.8079733" lon="12.8407617"><ele>216.0</ele><time>2026-05-06T12:42:12.564Z</time></trkpt><trkpt lat="37.8079267" lon="12.8409833"><ele>216.0</ele><time>2026-05-06T12:42:13.565Z</time></trkpt><trkpt lat="37.8078767" lon="12.8412067"><ele>216.0</ele><time>2026-05-06T12:42:14.565Z</time></trkpt><trkpt lat="37.8078283" lon="12.841425"><ele>216.0</ele><time>2026-05-06T12:42:15.564Z</time></trkpt><trkpt lat="37.8077783" lon="12.841635"><ele>216.0</ele><time>2026-05-06T12:42:16.564Z</time></trkpt><trkpt lat="37.8077333" lon="12.8418383"><ele>214.66666666666669</ele><time>2026-05-06T12:42:17.564Z</time></trkpt><trkpt lat="37.80769" lon="12.8420383"><ele>213.33333333333334</ele><time>2026-05-06T12:42:18.563Z</time></trkpt><trkpt lat="37.8076467" lon="12.8422417"><ele>212.0</ele><time>2026-05-06T12:42:19.563Z</time></trkpt><trkpt lat="37.8076017" lon="12.8424483"><ele>211.33333333333334</ele><time>2026-05-06T12:42:20.565Z</time></trkpt><trkpt lat="37.8075567" lon="12.8426567"><ele>210.66666666666669</ele><time>2026-05-06T12:42:21.565Z</time></trkpt><trkpt lat="37.80751" lon="12.842865"><ele>210.0</ele><time>2026-05-06T12:42:22.564Z</time></trkpt><trkpt lat="37.807465" lon="12.8430767"><ele>210.0</ele><time>2026-05-06T12:42:23.564Z</time></trkpt><trkpt lat="37.8074183" lon="12.8432933"><ele>210.0</ele><time>2026-05-06T12:42:24.564Z</time></trkpt><trkpt lat="37.8073683" lon="12.8435133"><ele>210.0</ele><time>2026-05-06T12:42:25.564Z</time></trkpt><trkpt lat="37.80732" lon="12.8437383"><ele>209.33333333333331</ele><time>2026-05-06T12:42:26.566Z</time></trkpt><trkpt lat="37.8072667" lon="12.8439667"><ele>208.66666666666666</ele><time>2026-05-06T12:42:27.565Z</time></trkpt><trkpt lat="37.8072183" lon="12.8441967"><ele>208.0</ele><time>2026-05-06T12:42:28.565Z</time></trkpt><trkpt lat="37.807165" lon="12.84443"><ele>208.0</ele><time>2026-05-06T12:42:29.563Z</time></trkpt><trkpt lat="37.807115" lon="12.84466"><ele>208.0</ele><time>2026-05-06T12:42:30.564Z</time></trkpt><trkpt lat="37.8070633" lon="12.84489"><ele>208.0</ele><time>2026-05-06T12:42:31.565Z</time></trkpt><trkpt lat="37.8070117" lon="12.84512"><ele>207.33333333333331</ele><time>2026-05-06T12:42:32.565Z</time></trkpt><trkpt lat="37.806965" lon="12.8453517"><ele>206.66666666666669</ele><time>2026-05-06T12:42:33.563Z</time></trkpt><trkpt lat="37.8069317" lon="12.845585"><ele>206.0</ele><time>2026-05-06T12:42:34.568Z</time></trkpt><trkpt lat="37.8069033" lon="12.8458217"><ele>204.66666666666669</ele><time>2026-05-06T12:42:35.564Z</time></trkpt><trkpt lat="37.80688" lon="12.8460567"><ele>203.33333333333331</ele><time>2026-05-06T12:42:36.564Z</time></trkpt><trkpt lat="37.8068567" lon="12.8462883"><ele>202.0</ele><time>2026-05-06T12:42:37.563Z</time></trkpt><trkpt lat="37.806835" lon="12.8465183"><ele>201.66666666666666</ele><time>2026-05-06T12:42:38.565Z</time></trkpt><trkpt lat="37.8068117" lon="12.8467483"><ele>201.33333333333331</ele><time>2026-05-06T12:42:39.564Z</time></trkpt><trkpt lat="37.8067883" lon="12.8469783"><ele>201.0</ele><time>2026-05-06T12:42:40.563Z</time></trkpt><trkpt lat="37.8067667" lon="12.8472083"><ele>201.0</ele><time>2026-05-06T12:42:41.564Z</time></trkpt><trkpt lat="37.806745" lon="12.8474383"><ele>201.0</ele><time>2026-05-06T12:42:42.564Z</time></trkpt><trkpt lat="37.8067233" lon="12.8476683"><ele>201.0</ele><time>2026-05-06T12:42:43.563Z</time></trkpt><trkpt lat="37.8067017" lon="12.8478983"><ele>202.0</ele><time>2026-05-06T12:42:44.564Z</time></trkpt><trkpt lat="37.80668" lon="12.8481283"><ele>203.0</ele><time>2026-05-06T12:42:45.565Z</time></trkpt><trkpt lat="37.8066583" lon="12.848355"><ele>204.0</ele><time>2026-05-06T12:42:46.565Z</time></trkpt><trkpt lat="37.8066383" lon="12.84858"><ele>206.66666666666669</ele><time>2026-05-06T12:42:47.564Z</time></trkpt><trkpt lat="37.8066133" lon="12.8488017"><ele>209.33333333333334</ele><time>2026-05-06T12:42:48.564Z</time></trkpt><trkpt lat="37.8065917" lon="12.849025"><ele>212.0</ele><time>2026-05-06T12:42:49.565Z</time></trkpt><trkpt lat="37.8065717" lon="12.8492483"><ele>213.0</ele><time>2026-05-06T12:42:50.565Z</time></trkpt><trkpt lat="37.806555" lon="12.8494733"><ele>214.0</ele><time>2026-05-06T12:42:51.565Z</time></trkpt><trkpt lat="37.806535" lon="12.8496983"><ele>215.0</ele><time>2026-05-06T12:42:52.563Z</time></trkpt><trkpt lat="37.8065117" lon="12.849925"><ele>216.33333333333334</ele><time>2026-05-06T12:42:53.563Z</time></trkpt><trkpt lat="37.8064883" lon="12.85015"><ele>217.66666666666669</ele><time>2026-05-06T12:42:54.564Z</time></trkpt><trkpt lat="37.8064667" lon="12.8503733"><ele>219.0</ele><time>2026-05-06T12:42:55.564Z</time></trkpt><trkpt lat="37.8064433" lon="12.850595"><ele>219.0</ele><time>2026-05-06T12:42:56.565Z</time></trkpt><trkpt lat="37.80642" lon="12.8508167"><ele>219.0</ele><time>2026-05-06T12:42:57.565Z</time></trkpt><trkpt lat="37.8063917" lon="12.8510367"><ele>219.0</ele><time>2026-05-06T12:42:58.565Z</time></trkpt><trkpt lat="37.8063583" lon="12.8512533"><ele>220.0</ele><time>2026-05-06T12:42:59.565Z</time></trkpt><trkpt lat="37.8063183" lon="12.851465"><ele>221.0</ele><time>2026-05-06T12:43:00.565Z</time></trkpt><trkpt lat="37.8062717" lon="12.8516683"><ele>222.0</ele><time>2026-05-06T12:43:01.564Z</time></trkpt><trkpt lat="37.8062217" lon="12.8518683"><ele>222.0</ele><time>2026-05-06T12:43:02.566Z</time></trkpt><trkpt lat="37.8061683" lon="12.8520683"><ele>222.0</ele><time>2026-05-06T12:43:03.565Z</time></trkpt><trkpt lat="37.80611" lon="12.8522667"><ele>222.0</ele><time>2026-05-06T12:43:04.563Z</time></trkpt><trkpt lat="37.80605" lon="12.85247"><ele>221.33333333333331</ele><time>2026-05-06T12:43:05.565Z</time></trkpt><trkpt lat="37.8059917" lon="12.8526767"><ele>220.66666666666666</ele><time>2026-05-06T12:43:06.565Z</time></trkpt><trkpt lat="37.8059317" lon="12.8528867"><ele>220.0</ele><time>2026-05-06T12:43:07.564Z</time></trkpt><trkpt lat="37.8058733" lon="12.8531017"><ele>220.0</ele><time>2026-05-06T12:43:08.564Z</time></trkpt><trkpt lat="37.8058117" lon="12.8533133"><ele>220.0</ele><time>2026-05-06T12:43:09.563Z</time></trkpt><trkpt lat="37.805755" lon="12.85352"><ele>220.0</ele><time>2026-05-06T12:43:10.565Z</time></trkpt><trkpt lat="37.8056967" lon="12.85372"><ele>220.0</ele><time>2026-05-06T12:43:11.564Z</time></trkpt><trkpt lat="37.8056383" lon="12.8539183"><ele>220.0</ele><time>2026-05-06T12:43:12.564Z</time></trkpt><trkpt lat="37.80558" lon="12.8541183"><ele>220.0</ele><time>2026-05-06T12:43:13.565Z</time></trkpt><trkpt lat="37.805523" lon="12.8543197"><ele>219.66666666666666</ele><time>2026-05-06T12:43:14.565Z</time></trkpt><trkpt lat="37.8054719" lon="12.8545178"><ele>219.33333333333331</ele><time>2026-05-06T12:43:15.563Z</time></trkpt><trkpt lat="37.8054341" lon="12.85471"><ele>219.0</ele><time>2026-05-06T12:43:16.564Z</time></trkpt><trkpt lat="37.8054148" lon="12.8549042"><ele>219.0</ele><time>2026-05-06T12:43:17.564Z</time></trkpt><trkpt lat="37.8054206" lon="12.8550994"><ele>219.0</ele><time>2026-05-06T12:43:18.564Z</time></trkpt><trkpt lat="37.8054576" lon="12.8552868"><ele>219.0</ele><time>2026-05-06T12:43:19.564Z</time></trkpt><trkpt lat="37.8055254" lon="12.8554555"><ele>217.66666666666669</ele><time>2026-05-06T12:43:20.564Z</time></trkpt><trkpt lat="37.805617" lon="12.8556097"><ele>216.33333333333334</ele><time>2026-05-06T12:43:21.564Z</time></trkpt><trkpt lat="37.8057256" lon="12.8557557"><ele>215.0</ele><time>2026-05-06T12:43:22.564Z</time></trkpt><trkpt lat="37.8058465" lon="12.8559023"><ele>214.66666666666669</ele><time>2026-05-06T12:43:23.564Z</time></trkpt><trkpt lat="37.8059679" lon="12.8560575"><ele>214.33333333333331</ele><time>2026-05-06T12:43:24.564Z</time></trkpt><trkpt lat="37.8060902" lon="12.8562246"><ele>214.0</ele><time>2026-05-06T12:43:25.565Z</time></trkpt><trkpt lat="37.8062102" lon="12.8564003"><ele>214.0</ele><time>2026-05-06T12:43:26.565Z</time></trkpt><trkpt lat="37.806338" lon="12.8565745"><ele>214.0</ele><time>2026-05-06T12:43:27.564Z</time></trkpt><trkpt lat="37.8064673" lon="12.8567454"><ele>214.0</ele><time>2026-05-06T12:43:28.565Z</time></trkpt><trkpt lat="37.8065916" lon="12.8569133"><ele>212.33333333333331</ele><time>2026-05-06T12:43:29.565Z</time></trkpt><trkpt lat="37.8067062" lon="12.8570809"><ele>210.66666666666669</ele><time>2026-05-06T12:43:30.565Z</time></trkpt><trkpt lat="37.8068024" lon="12.8572526"><ele>209.0</ele><time>2026-05-06T12:43:31.564Z</time></trkpt><trkpt lat="37.8068759" lon="12.8574355"><ele>208.66666666666669</ele><time>2026-05-06T12:43:32.564Z</time></trkpt><trkpt lat="37.80692" lon="12.857626"><ele>208.33333333333331</ele><time>2026-05-06T12:43:33.565Z</time></trkpt><trkpt lat="37.8069348" lon="12.8578243"><ele>208.0</ele><time>2026-05-06T12:43:34.564Z</time></trkpt><trkpt lat="37.8069212" lon="12.8580228"><ele>208.0</ele><time>2026-05-06T12:43:35.564Z</time></trkpt><trkpt lat="37.8068896" lon="12.8582176"><ele>208.0</ele><time>2026-05-06T12:43:36.565Z</time></trkpt><trkpt lat="37.8068429" lon="12.8584081"><ele>208.0</ele><time>2026-05-06T12:43:37.565Z</time></trkpt><trkpt lat="37.8067905" lon="12.8585901"><ele>208.75</ele><time>2026-05-06T12:43:38.565Z</time></trkpt><trkpt lat="37.8067413" lon="12.8587577"><ele>209.5</ele><time>2026-05-06T12:43:39.565Z</time></trkpt><trkpt lat="37.8066977" lon="12.8589117"><ele>210.25</ele><time>2026-05-06T12:43:40.564Z</time></trkpt><trkpt lat="37.8066593" lon="12.859056"><ele>211.0</ele><time>2026-05-06T12:43:41.564Z</time></trkpt><trkpt lat="37.8066257" lon="12.8591895"><ele>211.60000000000002</ele><time>2026-05-06T12:43:42.563Z</time></trkpt><trkpt lat="37.8065915" lon="12.8593126"><ele>212.2</ele><time>2026-05-06T12:43:43.564Z</time></trkpt><trkpt lat="37.8065591" lon="12.8594259"><ele>212.79999999999998</ele><time>2026-05-06T12:43:44.566Z</time></trkpt><trkpt lat="37.8065273" lon="12.8595276"><ele>213.39999999999998</ele><time>2026-05-06T12:43:45.564Z</time></trkpt><trkpt lat="37.8065012" lon="12.8596129"><ele>214.0</ele><time>2026-05-06T12:43:46.565Z</time></trkpt><trkpt lat="37.8064879" lon="12.8597653"><ele>214.0</ele><time>2026-05-06T12:43:48.565Z</time></trkpt><trkpt lat="37.8065103" lon="12.8598536"><ele>213.99999999999997</ele><time>2026-05-06T12:43:49.564Z</time></trkpt><trkpt lat="37.8065488" lon="12.8599403"><ele>213.99999999999997</ele><time>2026-05-06T12:43:50.564Z</time></trkpt><trkpt lat="37.8066076" lon="12.8600239"><ele>214.0</ele><time>2026-05-06T12:43:51.565Z</time></trkpt><trkpt lat="37.8066978" lon="12.8601043"><ele>214.0</ele><time>2026-05-06T12:43:52.565Z</time></trkpt><trkpt lat="37.8068097" lon="12.8601945"><ele>214.75</ele><time>2026-05-06T12:43:53.565Z</time></trkpt><trkpt lat="37.8069212" lon="12.860291"><ele>215.5</ele><time>2026-05-06T12:43:54.564Z</time></trkpt><trkpt lat="37.8070286" lon="12.8603931"><ele>216.25</ele><time>2026-05-06T12:43:55.564Z</time></trkpt><trkpt lat="37.807125" lon="12.8604973"><ele>217.0</ele><time>2026-05-06T12:43:56.565Z</time></trkpt><trkpt lat="37.8072082" lon="12.8606003"><ele>217.0</ele><time>2026-05-06T12:43:57.564Z</time></trkpt><trkpt lat="37.8072717" lon="12.8607039"><ele>217.0</ele><time>2026-05-06T12:43:58.564Z</time></trkpt><trkpt lat="37.8073129" lon="12.860816"><ele>217.0</ele><time>2026-05-06T12:43:59.565Z</time></trkpt><trkpt lat="37.8073348" lon="12.8609389"><ele>217.0</ele><time>2026-05-06T12:44:00.565Z</time></trkpt><trkpt lat="37.8073368" lon="12.8610625"><ele>217.0</ele><time>2026-05-06T12:44:01.564Z</time></trkpt><trkpt lat="37.8073119" lon="12.8611839"><ele>217.75</ele><time>2026-05-06T12:44:02.565Z</time></trkpt><trkpt lat="37.807261" lon="12.8612993"><ele>218.5</ele><time>2026-05-06T12:44:03.564Z</time></trkpt><trkpt lat="37.8071869" lon="12.8613977"><ele>219.25</ele><time>2026-05-06T12:44:04.565Z</time></trkpt><trkpt lat="37.8070861" lon="12.8614759"><ele>220.0</ele><time>2026-05-06T12:44:05.563Z</time></trkpt><trkpt lat="37.8069657" lon="12.8615337"><ele>219.0</ele><time>2026-05-06T12:44:06.563Z</time></trkpt><trkpt lat="37.8068269" lon="12.8615755"><ele>218.0</ele><time>2026-05-06T12:44:07.565Z</time></trkpt><trkpt lat="37.8066748" lon="12.8616037"><ele>217.0</ele><time>2026-05-06T12:44:08.565Z</time></trkpt><trkpt lat="37.8065113" lon="12.861614"><ele>217.0</ele><time>2026-05-06T12:44:09.564Z</time></trkpt><trkpt lat="37.8063409" lon="12.8616126"><ele>217.0</ele><time>2026-05-06T12:44:10.565Z</time></trkpt><trkpt lat="37.8061633" lon="12.8616097"><ele>217.0</ele><time>2026-05-06T12:44:11.565Z</time></trkpt><trkpt lat="37.8059821" lon="12.8616089"><ele>217.0</ele><time>2026-05-06T12:44:12.565Z</time></trkpt><trkpt lat="37.8057926" lon="12.8616131"><ele>217.0</ele><time>2026-05-06T12:44:13.565Z</time></trkpt><trkpt lat="37.8055976" lon="12.8616183"><ele>217.0</ele><time>2026-05-06T12:44:14.564Z</time></trkpt><trkpt lat="37.8054069" lon="12.8616208"><ele>217.0</ele><time>2026-05-06T12:44:15.564Z</time></trkpt><trkpt lat="37.8052165" lon="12.8616199"><ele>217.0</ele><time>2026-05-06T12:44:16.564Z</time></trkpt><trkpt lat="37.8050245" lon="12.8616187"><ele>217.0</ele><time>2026-05-06T12:44:17.563Z</time></trkpt><trkpt lat="37.804831" lon="12.8616138"><ele>216.33333333333331</ele><time>2026-05-06T12:44:18.564Z</time></trkpt><trkpt lat="37.8046344" lon="12.8616088"><ele>215.66666666666669</ele><time>2026-05-06T12:44:19.564Z</time></trkpt><trkpt lat="37.8044357" lon="12.8616047"><ele>215.0</ele><time>2026-05-06T12:44:20.564Z</time></trkpt><trkpt lat="37.8042315" lon="12.8616025"><ele>215.0</ele><time>2026-05-06T12:44:21.565Z</time></trkpt><trkpt lat="37.8040259" lon="12.8616007"><ele>215.0</ele><time>2026-05-06T12:44:22.563Z</time></trkpt><trkpt lat="37.8038162" lon="12.8615978"><ele>215.0</ele><time>2026-05-06T12:44:23.564Z</time></trkpt><trkpt lat="37.8036029" lon="12.8615946"><ele>214.33333333333334</ele><time>2026-05-06T12:44:24.566Z</time></trkpt><trkpt lat="37.8033878" lon="12.8615913"><ele>213.66666666666669</ele><time>2026-05-06T12:44:25.564Z</time></trkpt><trkpt lat="37.8031707" lon="12.8615868"><ele>213.0</ele><time>2026-05-06T12:44:26.564Z</time></trkpt><trkpt lat="37.8029496" lon="12.8615818"><ele>213.0</ele><time>2026-05-06T12:44:27.564Z</time></trkpt><trkpt lat="37.8027261" lon="12.8615733"><ele>213.0</ele><time>2026-05-06T12:44:28.565Z</time></trkpt><trkpt lat="37.8025023" lon="12.861566"><ele>213.0</ele><time>2026-05-06T12:44:29.564Z</time></trkpt><trkpt lat="37.8022772" lon="12.8615579"><ele>212.33333333333331</ele><time>2026-05-06T12:44:30.565Z</time></trkpt><trkpt lat="37.8020532" lon="12.8615483"><ele>211.66666666666666</ele><time>2026-05-06T12:44:31.565Z</time></trkpt><trkpt lat="37.8018298" lon="12.8615361"><ele>211.0</ele><time>2026-05-06T12:44:32.564Z</time></trkpt><trkpt lat="37.8016052" lon="12.8615255"><ele>209.33333333333331</ele><time>2026-05-06T12:44:33.565Z</time></trkpt><trkpt lat="37.8013803" lon="12.8615163"><ele>207.66666666666669</ele><time>2026-05-06T12:44:34.565Z</time></trkpt><trkpt lat="37.8011567" lon="12.8615043"><ele>206.0</ele><time>2026-05-06T12:44:35.565Z</time></trkpt><trkpt lat="37.8009345" lon="12.8614888"><ele>205.66666666666669</ele><time>2026-05-06T12:44:36.565Z</time></trkpt><trkpt lat="37.8007115" lon="12.8614712"><ele>205.33333333333331</ele><time>2026-05-06T12:44:37.565Z</time></trkpt><trkpt lat="37.800487" lon="12.8614554"><ele>205.0</ele><time>2026-05-06T12:44:38.564Z</time></trkpt><trkpt lat="37.8002606" lon="12.8614378"><ele>208.0</ele><time>2026-05-06T12:44:39.565Z</time></trkpt><trkpt lat="37.8000323" lon="12.8614208"><ele>211.0</ele><time>2026-05-06T12:44:40.563Z</time></trkpt><trkpt lat="37.7998022" lon="12.8614014"><ele>211.0</ele><time>2026-05-06T12:44:41.565Z</time></trkpt><trkpt lat="37.799572" lon="12.8613819"><ele>211.0</ele><time>2026-05-06T12:44:42.565Z</time></trkpt><trkpt lat="37.7993404" lon="12.8613641"><ele>212.0</ele><time>2026-05-06T12:44:43.564Z</time></trkpt><trkpt lat="37.7991072" lon="12.8613446"><ele>213.0</ele><time>2026-05-06T12:44:44.565Z</time></trkpt><trkpt lat="37.798875" lon="12.8613225"><ele>213.0</ele><time>2026-05-06T12:44:45.565Z</time></trkpt><trkpt lat="37.7986449" lon="12.8612994"><ele>213.0</ele><time>2026-05-06T12:44:46.564Z</time></trkpt><trkpt lat="37.7984153" lon="12.8612762"><ele>214.0</ele><time>2026-05-06T12:44:47.563Z</time></trkpt><trkpt lat="37.7981868" lon="12.8612529"><ele>215.0</ele><time>2026-05-06T12:44:48.563Z</time></trkpt><trkpt lat="37.7979601" lon="12.8612308"><ele>215.0</ele><time>2026-05-06T12:44:49.565Z</time></trkpt><trkpt lat="37.7977351" lon="12.8612067"><ele>215.0</ele><time>2026-05-06T12:44:50.565Z</time></trkpt><trkpt lat="37.7975117" lon="12.8611829"><ele>215.33333333333334</ele><time>2026-05-06T12:44:51.565Z</time></trkpt><trkpt lat="37.7972886" lon="12.8611573"><ele>215.66666666666669</ele><time>2026-05-06T12:44:52.565Z</time></trkpt><trkpt lat="37.7970683" lon="12.8611319"><ele>216.0</ele><time>2026-05-06T12:44:53.563Z</time></trkpt><trkpt lat="37.7968485" lon="12.8611059"><ele>215.0</ele><time>2026-05-06T12:44:54.564Z</time></trkpt><trkpt lat="37.7966287" lon="12.8610789"><ele>214.0</ele><time>2026-05-06T12:44:55.564Z</time></trkpt><trkpt lat="37.7964101" lon="12.8610501"><ele>213.0</ele><time>2026-05-06T12:44:56.564Z</time></trkpt><trkpt lat="37.7961904" lon="12.8610215"><ele>213.0</ele><time>2026-05-06T12:44:57.563Z</time></trkpt><trkpt lat="37.7959702" lon="12.8609919"><ele>213.0</ele><time>2026-05-06T12:44:58.566Z</time></trkpt><trkpt lat="37.7957502" lon="12.8609595"><ele>213.0</ele><time>2026-05-06T12:44:59.565Z</time></trkpt><trkpt lat="37.7955287" lon="12.8609264"><ele>213.0</ele><time>2026-05-06T12:45:00.565Z</time></trkpt><trkpt lat="37.7953069" lon="12.8608932"><ele>213.0</ele><time>2026-05-06T12:45:01.566Z</time></trkpt><trkpt lat="37.7950836" lon="12.8608585"><ele>213.0</ele><time>2026-05-06T12:45:02.567Z</time></trkpt><trkpt lat="37.7948589" lon="12.8608212"><ele>214.0</ele><time>2026-05-06T12:45:03.564Z</time></trkpt><trkpt lat="37.7946323" lon="12.8607829"><ele>215.0</ele><time>2026-05-06T12:45:04.565Z</time></trkpt><trkpt lat="37.7944065" lon="12.860742"><ele>215.0</ele><time>2026-05-06T12:45:05.567Z</time></trkpt><trkpt lat="37.7941799" lon="12.8606982"><ele>215.0</ele><time>2026-05-06T12:45:06.565Z</time></trkpt><trkpt lat="37.7939492" lon="12.8606545"><ele>215.0</ele><time>2026-05-06T12:45:07.565Z</time></trkpt><trkpt lat="37.7937204" lon="12.8606123"><ele>215.0</ele><time>2026-05-06T12:45:08.565Z</time></trkpt><trkpt lat="37.7934989" lon="12.860573"><ele>215.66666666666669</ele><time>2026-05-06T12:45:09.566Z</time></trkpt><trkpt lat="37.7932871" lon="12.860535"><ele>216.33333333333331</ele><time>2026-05-06T12:45:10.565Z</time></trkpt><trkpt lat="37.7930849" lon="12.8604946"><ele>217.0</ele><time>2026-05-06T12:45:11.564Z</time></trkpt><trkpt lat="37.7928857" lon="12.8604526"><ele>217.0</ele><time>2026-05-06T12:45:12.564Z</time></trkpt><trkpt lat="37.7926862" lon="12.8604084"><ele>217.0</ele><time>2026-05-06T12:45:13.565Z</time></trkpt><trkpt lat="37.7924823" lon="12.8603658"><ele>217.0</ele><time>2026-05-06T12:45:14.564Z</time></trkpt><trkpt lat="37.7922757" lon="12.8603213"><ele>217.0</ele><time>2026-05-06T12:45:15.564Z</time></trkpt><trkpt lat="37.7920683" lon="12.8602763"><ele>217.0</ele><time>2026-05-06T12:45:16.564Z</time></trkpt><trkpt lat="37.7918608" lon="12.8602311"><ele>217.0</ele><time>2026-05-06T12:45:17.565Z</time></trkpt><trkpt lat="37.7916486" lon="12.8601847"><ele>216.66666666666666</ele><time>2026-05-06T12:45:18.565Z</time></trkpt><trkpt lat="37.7914338" lon="12.8601356"><ele>216.33333333333331</ele><time>2026-05-06T12:45:19.564Z</time></trkpt><trkpt lat="37.7912172" lon="12.8600858"><ele>216.0</ele><time>2026-05-06T12:45:20.565Z</time></trkpt><trkpt lat="37.7909974" lon="12.8600356"><ele>216.0</ele><time>2026-05-06T12:45:21.565Z</time></trkpt><trkpt lat="37.7907759" lon="12.8599854"><ele>216.0</ele><time>2026-05-06T12:45:22.564Z</time></trkpt><trkpt lat="37.790554" lon="12.8599329"><ele>216.0</ele><time>2026-05-06T12:45:23.564Z</time></trkpt><trkpt lat="37.7903333" lon="12.8598773"><ele>216.0</ele><time>2026-05-06T12:45:24.564Z</time></trkpt><trkpt lat="37.7901117" lon="12.8598208"><ele>215.0</ele><time>2026-05-06T12:45:25.564Z</time></trkpt><trkpt lat="37.7898912" lon="12.8597618"><ele>214.0</ele><time>2026-05-06T12:45:26.565Z</time></trkpt><trkpt lat="37.7896709" lon="12.8597032"><ele>214.0</ele><time>2026-05-06T12:45:27.564Z</time></trkpt><trkpt lat="37.7894496" lon="12.859646"><ele>214.0</ele><time>2026-05-06T12:45:28.564Z</time></trkpt><trkpt lat="37.7892293" lon="12.8595878"><ele>214.33333333333331</ele><time>2026-05-06T12:45:29.564Z</time></trkpt><trkpt lat="37.7890095" lon="12.8595285"><ele>214.66666666666669</ele><time>2026-05-06T12:45:30.563Z</time></trkpt><trkpt lat="37.7887897" lon="12.8594698"><ele>215.0</ele><time>2026-05-06T12:45:31.565Z</time></trkpt><trkpt lat="37.7885686" lon="12.859409"><ele>215.0</ele><time>2026-05-06T12:45:32.567Z</time></trkpt><trkpt lat="37.7883484" lon="12.8593451"><ele>215.0</ele><time>2026-05-06T12:45:33.565Z</time></trkpt><trkpt lat="37.7881271" lon="12.8592816"><ele>215.0</ele><time>2026-05-06T12:45:34.564Z</time></trkpt><trkpt lat="37.7879066" lon="12.8592169"><ele>215.0</ele><time>2026-05-06T12:45:35.564Z</time></trkpt><trkpt lat="37.7876866" lon="12.8591484"><ele>216.33333333333334</ele><time>2026-05-06T12:45:36.564Z</time></trkpt><trkpt lat="37.7874681" lon="12.8590813"><ele>217.66666666666669</ele><time>2026-05-06T12:45:37.564Z</time></trkpt><trkpt lat="37.7872512" lon="12.8590145"><ele>219.0</ele><time>2026-05-06T12:45:38.565Z</time></trkpt><trkpt lat="37.7870362" lon="12.858948"><ele>218.33333333333331</ele><time>2026-05-06T12:45:39.563Z</time></trkpt><trkpt lat="37.7868233" lon="12.85888"><ele>217.66666666666666</ele><time>2026-05-06T12:45:40.564Z</time></trkpt><trkpt lat="37.7866133" lon="12.8588133"><ele>217.0</ele><time>2026-05-06T12:45:41.563Z</time></trkpt><trkpt lat="37.786405" lon="12.8587467"><ele>217.0</ele><time>2026-05-06T12:45:42.564Z</time></trkpt><trkpt lat="37.786195" lon="12.85868"><ele>217.0</ele><time>2026-05-06T12:45:43.565Z</time></trkpt><trkpt lat="37.7859883" lon="12.8586133"><ele>217.0</ele><time>2026-05-06T12:45:44.57Z</time></trkpt><trkpt lat="37.7857817" lon="12.8585467"><ele>218.0</ele><time>2026-05-06T12:45:45.565Z</time></trkpt><trkpt lat="37.7855767" lon="12.8584767"><ele>219.0</ele><time>2026-05-06T12:45:46.565Z</time></trkpt><trkpt lat="37.78538" lon="12.8584117"><ele>220.0</ele><time>2026-05-06T12:45:47.565Z</time></trkpt><trkpt lat="37.7851917" lon="12.858345"><ele>218.66666666666666</ele><time>2026-05-06T12:45:48.565Z</time></trkpt><trkpt lat="37.78501" lon="12.8582833"><ele>217.33333333333331</ele><time>2026-05-06T12:45:49.565Z</time></trkpt><trkpt lat="37.7848267" lon="12.8582183"><ele>216.0</ele><time>2026-05-06T12:45:50.565Z</time></trkpt><trkpt lat="37.7846433" lon="12.8581567"><ele>216.0</ele><time>2026-05-06T12:45:51.565Z</time></trkpt><trkpt lat="37.78446" lon="12.8580917"><ele>216.0</ele><time>2026-05-06T12:45:52.564Z</time></trkpt><trkpt lat="37.784275" lon="12.858025"><ele>216.0</ele><time>2026-05-06T12:45:53.566Z</time></trkpt><trkpt lat="37.7840883" lon="12.8579583"><ele>216.66666666666669</ele><time>2026-05-06T12:45:54.565Z</time></trkpt><trkpt lat="37.7839" lon="12.8578917"><ele>217.33333333333334</ele><time>2026-05-06T12:45:55.565Z</time></trkpt><trkpt lat="37.7837117" lon="12.8578233"><ele>218.0</ele><time>2026-05-06T12:45:56.565Z</time></trkpt><trkpt lat="37.78352" lon="12.8577533"><ele>218.66666666666669</ele><time>2026-05-06T12:45:57.564Z</time></trkpt><trkpt lat="37.783325" lon="12.8576817"><ele>219.33333333333331</ele><time>2026-05-06T12:45:58.564Z</time></trkpt><trkpt lat="37.78313" lon="12.85761"><ele>220.0</ele><time>2026-05-06T12:45:59.568Z</time></trkpt><trkpt lat="37.782935" lon="12.8575383"><ele>220.0</ele><time>2026-05-06T12:46:00.563Z</time></trkpt><trkpt lat="37.78274" lon="12.8574633"><ele>220.0</ele><time>2026-05-06T12:46:01.564Z</time></trkpt><trkpt lat="37.7825433" lon="12.8573883"><ele>220.0</ele><time>2026-05-06T12:46:02.565Z</time></trkpt><trkpt lat="37.7823483" lon="12.85731"><ele>220.66666666666666</ele><time>2026-05-06T12:46:03.565Z</time></trkpt><trkpt lat="37.78215" lon="12.85723"><ele>221.33333333333331</ele><time>2026-05-06T12:46:04.564Z</time></trkpt><trkpt lat="37.7819517" lon="12.8571467"><ele>222.0</ele><time>2026-05-06T12:46:05.565Z</time></trkpt><trkpt lat="37.781755" lon="12.8570583"><ele>222.66666666666669</ele><time>2026-05-06T12:46:06.564Z</time></trkpt><trkpt lat="37.7815583" lon="12.8569683"><ele>223.33333333333334</ele><time>2026-05-06T12:46:07.564Z</time></trkpt><trkpt lat="37.7813617" lon="12.856875"><ele>224.0</ele><time>2026-05-06T12:46:08.565Z</time></trkpt><trkpt lat="37.7811667" lon="12.85678"><ele>225.0</ele><time>2026-05-06T12:46:09.565Z</time></trkpt><trkpt lat="37.7809733" lon="12.856685"><ele>226.0</ele><time>2026-05-06T12:46:10.566Z</time></trkpt><trkpt lat="37.7807783" lon="12.8565867"><ele>227.0</ele><time>2026-05-06T12:46:11.564Z</time></trkpt><trkpt lat="37.780585" lon="12.8564867"><ele>227.0</ele><time>2026-05-06T12:46:12.565Z</time></trkpt><trkpt lat="37.780395" lon="12.8563817"><ele>227.0</ele><time>2026-05-06T12:46:13.565Z</time></trkpt><trkpt lat="37.7802083" lon="12.8562733"><ele>227.0</ele><time>2026-05-06T12:46:14.564Z</time></trkpt><trkpt lat="37.7800217" lon="12.8561617"><ele>227.0</ele><time>2026-05-06T12:46:15.564Z</time></trkpt><trkpt lat="37.779835" lon="12.8560517"><ele>227.0</ele><time>2026-05-06T12:46:16.565Z</time></trkpt><trkpt lat="37.7796483" lon="12.8559383"><ele>227.0</ele><time>2026-05-06T12:46:17.565Z</time></trkpt><trkpt lat="37.779465" lon="12.8558217"><ele>228.33333333333334</ele><time>2026-05-06T12:46:18.565Z</time></trkpt><trkpt lat="37.7792833" lon="12.8557033"><ele>229.66666666666669</ele><time>2026-05-06T12:46:19.565Z</time></trkpt><trkpt lat="37.7791017" lon="12.8555817"><ele>231.0</ele><time>2026-05-06T12:46:20.565Z</time></trkpt><trkpt lat="37.7789217" lon="12.85546"><ele>231.0</ele><time>2026-05-06T12:46:21.566Z</time></trkpt><trkpt lat="37.77874" lon="12.8553317"><ele>231.0</ele><time>2026-05-06T12:46:22.566Z</time></trkpt><trkpt lat="37.7785617" lon="12.8552017"><ele>231.0</ele><time>2026-05-06T12:46:23.566Z</time></trkpt><trkpt lat="37.7783833" lon="12.8550683"><ele>235.0</ele><time>2026-05-06T12:46:24.565Z</time></trkpt><trkpt lat="37.7782083" lon="12.8549317"><ele>239.0</ele><time>2026-05-06T12:46:25.564Z</time></trkpt><trkpt lat="37.77803" lon="12.8547917"><ele>243.0</ele><time>2026-05-06T12:46:26.567Z</time></trkpt><trkpt lat="37.777855" lon="12.85465"><ele>242.0</ele><time>2026-05-06T12:46:27.565Z</time></trkpt><trkpt lat="37.7776817" lon="12.8545067"><ele>241.0</ele><time>2026-05-06T12:46:28.564Z</time></trkpt><trkpt lat="37.7775083" lon="12.8543583"><ele>240.0</ele><time>2026-05-06T12:46:29.564Z</time></trkpt><trkpt lat="37.7773333" lon="12.85421"><ele>241.66666666666669</ele><time>2026-05-06T12:46:30.564Z</time></trkpt><trkpt lat="37.7771617" lon="12.8540567"><ele>243.33333333333334</ele><time>2026-05-06T12:46:31.564Z</time></trkpt><trkpt lat="37.77699" lon="12.8539033"><ele>245.0</ele><time>2026-05-06T12:46:32.566Z</time></trkpt><trkpt lat="37.7768183" lon="12.853745"><ele>245.0</ele><time>2026-05-06T12:46:33.565Z</time></trkpt><trkpt lat="37.776645" lon="12.853585"><ele>245.0</ele><time>2026-05-06T12:46:34.564Z</time></trkpt><trkpt lat="37.77647" lon="12.8534233"><ele>245.0</ele><time>2026-05-06T12:46:35.563Z</time></trkpt><trkpt lat="37.776295" lon="12.85326"><ele>245.66666666666669</ele><time>2026-05-06T12:46:36.565Z</time></trkpt><trkpt lat="37.7761217" lon="12.853095"><ele>246.33333333333331</ele><time>2026-05-06T12:46:37.565Z</time></trkpt><trkpt lat="37.7759483" lon="12.852925"><ele>247.0</ele><time>2026-05-06T12:46:38.565Z</time></trkpt><trkpt lat="37.7757733" lon="12.8527567"><ele>247.0</ele><time>2026-05-06T12:46:39.563Z</time></trkpt><trkpt lat="37.7756017" lon="12.852585"><ele>247.0</ele><time>2026-05-06T12:46:40.564Z</time></trkpt><trkpt lat="37.7754267" lon="12.8524167"><ele>247.0</ele><time>2026-05-06T12:46:41.566Z</time></trkpt><trkpt lat="37.77525" lon="12.8522483"><ele>249.0</ele><time>2026-05-06T12:46:42.564Z</time></trkpt><trkpt lat="37.7750733" lon="12.8520783"><ele>251.0</ele><time>2026-05-06T12:46:43.566Z</time></trkpt><trkpt lat="37.7748967" lon="12.8519117"><ele>253.0</ele><time>2026-05-06T12:46:44.565Z</time></trkpt><trkpt lat="37.7747183" lon="12.851745"><ele>253.66666666666666</ele><time>2026-05-06T12:46:45.564Z</time></trkpt><trkpt lat="37.77454" lon="12.8515817"><ele>254.33333333333331</ele><time>2026-05-06T12:46:46.564Z</time></trkpt><trkpt lat="37.77436" lon="12.85142"><ele>255.0</ele><time>2026-05-06T12:46:47.565Z</time></trkpt><trkpt lat="37.7741767" lon="12.851265"><ele>258.3333333333333</ele><time>2026-05-06T12:46:48.566Z</time></trkpt><trkpt lat="37.7739917" lon="12.8511117"><ele>261.66666666666663</ele><time>2026-05-06T12:46:49.565Z</time></trkpt><trkpt lat="37.7738033" lon="12.850965"><ele>265.0</ele><time>2026-05-06T12:46:50.565Z</time></trkpt><trkpt lat="37.77361" lon="12.85082"><ele>269.0</ele><time>2026-05-06T12:46:51.566Z</time></trkpt><trkpt lat="37.7734167" lon="12.8506783"><ele>273.0</ele><time>2026-05-06T12:46:52.566Z</time></trkpt><trkpt lat="37.77322" lon="12.8505433"><ele>277.0</ele><time>2026-05-06T12:46:53.566Z</time></trkpt><trkpt lat="37.7730183" lon="12.850415"><ele>277.0</ele><time>2026-05-06T12:46:54.565Z</time></trkpt><trkpt lat="37.7728167" lon="12.8502917"><ele>277.0</ele><time>2026-05-06T12:46:55.564Z</time></trkpt><trkpt lat="37.7726117" lon="12.85018"><ele>277.0</ele><time>2026-05-06T12:46:56.564Z</time></trkpt><trkpt lat="37.7724067" lon="12.8500783"><ele>277.66666666666663</ele><time>2026-05-06T12:46:57.564Z</time></trkpt><trkpt lat="37.7721967" lon="12.849985"><ele>278.3333333333333</ele><time>2026-05-06T12:46:58.565Z</time></trkpt><trkpt lat="37.7719817" lon="12.8499017"><ele>279.0</ele><time>2026-05-06T12:46:59.565Z</time></trkpt><trkpt lat="37.7717617" lon="12.8498267"><ele>281.0</ele><time>2026-05-06T12:47:00.564Z</time></trkpt><trkpt lat="37.7715383" lon="12.8497583"><ele>283.0</ele><time>2026-05-06T12:47:01.564Z</time></trkpt><trkpt lat="37.77131" lon="12.8497033"><ele>283.0</ele><time>2026-05-06T12:47:02.566Z</time></trkpt><trkpt lat="37.7710783" lon="12.8496533"><ele>283.0</ele><time>2026-05-06T12:47:03.567Z</time></trkpt><trkpt lat="37.7708433" lon="12.849615"><ele>285.0</ele><time>2026-05-06T12:47:04.566Z</time></trkpt><trkpt lat="37.7706083" lon="12.8495833"><ele>287.0</ele><time>2026-05-06T12:47:05.566Z</time></trkpt><trkpt lat="37.77037" lon="12.8495617"><ele>290.5</ele><time>2026-05-06T12:47:06.566Z</time></trkpt><trkpt lat="37.7701283" lon="12.8495483"><ele>294.0</ele><time>2026-05-06T12:47:07.566Z</time></trkpt><trkpt lat="37.769885" lon="12.84955"><ele>294.0</ele><time>2026-05-06T12:47:08.566Z</time></trkpt><trkpt lat="37.7696417" lon="12.8495617"><ele>294.0</ele><time>2026-05-06T12:47:09.566Z</time></trkpt><trkpt lat="37.769395" lon="12.8495833"><ele>298.5</ele><time>2026-05-06T12:47:10.564Z</time></trkpt><trkpt lat="37.7691517" lon="12.84962"><ele>303.0</ele><time>2026-05-06T12:47:11.564Z</time></trkpt><trkpt lat="37.76891" lon="12.8496683"><ele>303.0</ele><time>2026-05-06T12:47:12.565Z</time></trkpt><trkpt lat="37.76867" lon="12.8497283"><ele>303.0</ele><time>2026-05-06T12:47:13.565Z</time></trkpt><trkpt lat="37.7684283" lon="12.8497967"><ele>302.5</ele><time>2026-05-06T12:47:14.566Z</time></trkpt><trkpt lat="37.7681917" lon="12.849875"><ele>302.0</ele><time>2026-05-06T12:47:15.564Z</time></trkpt><trkpt lat="37.7679567" lon="12.8499633"><ele>302.0</ele><time>2026-05-06T12:47:16.563Z</time></trkpt><trkpt lat="37.767725" lon="12.8500617"><ele>302.0</ele><time>2026-05-06T12:47:17.566Z</time></trkpt><trkpt lat="37.7674867" lon="12.8501783"><ele>311.5</ele><time>2026-05-06T12:47:18.565Z</time></trkpt><trkpt lat="37.7672417" lon="12.8503117"><ele>321.0</ele><time>2026-05-06T12:47:19.565Z</time></trkpt><trkpt lat="37.7669983" lon="12.85045"><ele>326.0</ele><time>2026-05-06T12:47:20.565Z</time></trkpt><trkpt lat="37.7667567" lon="12.8505867"><ele>331.0</ele><time>2026-05-06T12:47:21.564Z</time></trkpt><trkpt lat="37.766515" lon="12.8507233"><ele>331.0</ele><time>2026-05-06T12:47:22.565Z</time></trkpt><trkpt lat="37.7662733" lon="12.8508583"><ele>331.0</ele><time>2026-05-06T12:47:23.564Z</time></trkpt><trkpt lat="37.76603" lon="12.8509933"><ele>328.0</ele><time>2026-05-06T12:47:24.565Z</time></trkpt><trkpt lat="37.7654283" lon="12.8512467"><ele>328.0</ele><time>2026-05-06T12:47:27.565Z</time></trkpt><trkpt lat="37.7651983" lon="12.8513467"><ele>328.0</ele><time>2026-05-06T12:47:28.565Z</time></trkpt><trkpt lat="37.7649883" lon="12.8514367"><ele>323.66666666666663</ele><time>2026-05-06T12:47:29.564Z</time></trkpt><trkpt lat="37.7647867" lon="12.85152"><ele>319.3333333333333</ele><time>2026-05-06T12:47:30.565Z</time></trkpt><trkpt lat="37.76459" lon="12.8516"><ele>315.0</ele><time>2026-05-06T12:47:31.564Z</time></trkpt><trkpt lat="37.7644017" lon="12.8516733"><ele>314.6666666666667</ele><time>2026-05-06T12:47:32.565Z</time></trkpt><trkpt lat="37.76421" lon="12.8517433"><ele>314.33333333333337</ele><time>2026-05-06T12:47:33.564Z</time></trkpt><trkpt lat="37.7640133" lon="12.8518117"><ele>314.0</ele><time>2026-05-06T12:47:34.565Z</time></trkpt><trkpt lat="37.763815" lon="12.8518783"><ele>316.0</ele><time>2026-05-06T12:47:35.564Z</time></trkpt><trkpt lat="37.7636167" lon="12.85194"><ele>318.0</ele><time>2026-05-06T12:47:36.565Z</time></trkpt><trkpt lat="37.7634167" lon="12.8519983"><ele>320.0</ele><time>2026-05-06T12:47:37.564Z</time></trkpt><trkpt lat="37.7632167" lon="12.8520517"><ele>321.0</ele><time>2026-05-06T12:47:38.565Z</time></trkpt><trkpt lat="37.7630133" lon="12.8521033"><ele>322.0</ele><time>2026-05-06T12:47:39.564Z</time></trkpt><trkpt lat="37.7628133" lon="12.8521517"><ele>323.0</ele><time>2026-05-06T12:47:40.563Z</time></trkpt><trkpt lat="37.7626117" lon="12.852195"><ele>325.33333333333337</ele><time>2026-05-06T12:47:41.563Z</time></trkpt><trkpt lat="37.7624117" lon="12.8522333"><ele>327.6666666666667</ele><time>2026-05-06T12:47:42.563Z</time></trkpt><trkpt lat="37.76221" lon="12.85227"><ele>330.0</ele><time>2026-05-06T12:47:43.564Z</time></trkpt><trkpt lat="37.76201" lon="12.8523033"><ele>331.3333333333333</ele><time>2026-05-06T12:47:44.564Z</time></trkpt><trkpt lat="37.76181" lon="12.8523317"><ele>332.66666666666663</ele><time>2026-05-06T12:47:45.565Z</time></trkpt><trkpt lat="37.76161" lon="12.8523567"><ele>334.0</ele><time>2026-05-06T12:47:46.564Z</time></trkpt><trkpt lat="37.76141" lon="12.8523783"><ele>334.0</ele><time>2026-05-06T12:47:47.564Z</time></trkpt><trkpt lat="37.76121" lon="12.8523983"><ele>334.0</ele><time>2026-05-06T12:47:48.565Z</time></trkpt><trkpt lat="37.7610117" lon="12.8524133"><ele>334.0</ele><time>2026-05-06T12:47:49.565Z</time></trkpt><trkpt lat="37.7608183" lon="12.8524267"><ele>334.3333333333333</ele><time>2026-05-06T12:47:50.566Z</time></trkpt><trkpt lat="37.7606367" lon="12.8524367"><ele>334.6666666666667</ele><time>2026-05-06T12:47:51.567Z</time></trkpt><trkpt lat="37.7604617" lon="12.8524417"><ele>335.0</ele><time>2026-05-06T12:47:52.565Z</time></trkpt><trkpt lat="37.7602883" lon="12.8524433"><ele>335.6666666666667</ele><time>2026-05-06T12:47:53.566Z</time></trkpt><trkpt lat="37.7601133" lon="12.8524433"><ele>336.3333333333333</ele><time>2026-05-06T12:47:54.565Z</time></trkpt><trkpt lat="37.759935" lon="12.85244"><ele>337.0</ele><time>2026-05-06T12:47:55.565Z</time></trkpt><trkpt lat="37.7597567" lon="12.8524317"><ele>337.0</ele><time>2026-05-06T12:47:56.565Z</time></trkpt><trkpt lat="37.7595833" lon="12.8524217"><ele>337.0</ele><time>2026-05-06T12:47:57.565Z</time></trkpt><trkpt lat="37.7594133" lon="12.85241"><ele>337.0</ele><time>2026-05-06T12:47:58.564Z</time></trkpt><trkpt lat="37.75924" lon="12.8523933"><ele>340.0</ele><time>2026-05-06T12:47:59.566Z</time></trkpt><trkpt lat="37.759055" lon="12.8523767"><ele>343.0</ele><time>2026-05-06T12:48:00.564Z</time></trkpt><trkpt lat="37.7588533" lon="12.8523567"><ele>346.0</ele><time>2026-05-06T12:48:01.564Z</time></trkpt><trkpt lat="37.7586417" lon="12.8523317"><ele>353.0</ele><time>2026-05-06T12:48:02.565Z</time></trkpt><trkpt lat="37.758425" lon="12.8523017"><ele>360.0</ele><time>2026-05-06T12:48:03.565Z</time></trkpt><trkpt lat="37.7574967" lon="12.8521567"><ele>360.0</ele><time>2026-05-06T12:48:07.565Z</time></trkpt><trkpt lat="37.7572283" lon="12.85207"><ele>360.0</ele><time>2026-05-06T12:48:08.565Z</time></trkpt><trkpt lat="37.75697" lon="12.8519933"><ele>355.0</ele><time>2026-05-06T12:48:09.564Z</time></trkpt><trkpt lat="37.7567233" lon="12.851915"><ele>350.0</ele><time>2026-05-06T12:48:10.565Z</time></trkpt><trkpt lat="37.7564783" lon="12.8518433"><ele>352.0</ele><time>2026-05-06T12:48:11.564Z</time></trkpt><trkpt lat="37.7562267" lon="12.8517633"><ele>354.0</ele><time>2026-05-06T12:48:12.566Z</time></trkpt><trkpt lat="37.7559717" lon="12.8516783"><ele>354.0</ele><time>2026-05-06T12:48:13.564Z</time></trkpt><trkpt lat="37.7557117" lon="12.8515883"><ele>354.0</ele><time>2026-05-06T12:48:14.565Z</time></trkpt><trkpt lat="37.7554467" lon="12.85149"><ele>355.0</ele><time>2026-05-06T12:48:15.563Z</time></trkpt><trkpt lat="37.7551817" lon="12.8513833"><ele>356.0</ele><time>2026-05-06T12:48:16.564Z</time></trkpt><trkpt lat="37.7549167" lon="12.8512683"><ele>356.0</ele><time>2026-05-06T12:48:17.566Z</time></trkpt><trkpt lat="37.7546533" lon="12.8511483"><ele>356.0</ele><time>2026-05-06T12:48:18.566Z</time></trkpt><trkpt lat="37.7543917" lon="12.8510283"><ele>356.0</ele><time>2026-05-06T12:48:19.564Z</time></trkpt><trkpt lat="37.754135" lon="12.8509117"><ele>356.0</ele><time>2026-05-06T12:48:20.566Z</time></trkpt><trkpt lat="37.7538867" lon="12.8507967"><ele>356.0</ele><time>2026-05-06T12:48:21.565Z</time></trkpt><trkpt lat="37.75365" lon="12.850685"><ele>356.0</ele><time>2026-05-06T12:48:22.563Z</time></trkpt><trkpt lat="37.7534167" lon="12.8505767"><ele>354.5</ele><time>2026-05-06T12:48:23.565Z</time></trkpt><trkpt lat="37.7531817" lon="12.8504717"><ele>353.0</ele><time>2026-05-06T12:48:24.564Z</time></trkpt><trkpt lat="37.752945" lon="12.850365"><ele>353.0</ele><time>2026-05-06T12:48:25.564Z</time></trkpt><trkpt lat="37.7527017" lon="12.850255"><ele>353.0</ele><time>2026-05-06T12:48:26.566Z</time></trkpt><trkpt lat="37.7524517" lon="12.85014"><ele>352.5</ele><time>2026-05-06T12:48:27.565Z</time></trkpt><trkpt lat="37.7521967" lon="12.8500167"><ele>352.0</ele><time>2026-05-06T12:48:28.565Z</time></trkpt><trkpt lat="37.7519417" lon="12.8498833"><ele>351.0</ele><time>2026-05-06T12:48:29.565Z</time></trkpt><trkpt lat="37.7516867" lon="12.849745"><ele>350.0</ele><time>2026-05-06T12:48:30.564Z</time></trkpt><trkpt lat="37.75143" lon="12.8496083"><ele>350.0</ele><time>2026-05-06T12:48:31.565Z</time></trkpt><trkpt lat="37.751175" lon="12.849475"><ele>350.0</ele><time>2026-05-06T12:48:32.565Z</time></trkpt><trkpt lat="37.75092" lon="12.8493417"><ele>349.5</ele><time>2026-05-06T12:48:33.566Z</time></trkpt><trkpt lat="37.750665" lon="12.8492117"><ele>349.0</ele><time>2026-05-06T12:48:34.564Z</time></trkpt><trkpt lat="37.7504117" lon="12.8490767"><ele>348.5</ele><time>2026-05-06T12:48:35.565Z</time></trkpt><trkpt lat="37.75016" lon="12.8489383"><ele>348.0</ele><time>2026-05-06T12:48:36.564Z</time></trkpt><trkpt lat="37.7499083" lon="12.848795"><ele>348.0</ele><time>2026-05-06T12:48:37.565Z</time></trkpt><trkpt lat="37.7496617" lon="12.8486517"><ele>348.0</ele><time>2026-05-06T12:48:38.566Z</time></trkpt><trkpt lat="37.7494133" lon="12.8485067"><ele>346.0</ele><time>2026-05-06T12:48:39.564Z</time></trkpt><trkpt lat="37.749165" lon="12.8483633"><ele>344.0</ele><time>2026-05-06T12:48:40.564Z</time></trkpt><trkpt lat="37.748915" lon="12.84822"><ele>344.0</ele><time>2026-05-06T12:48:41.565Z</time></trkpt><trkpt lat="37.7486667" lon="12.8480733"><ele>344.0</ele><time>2026-05-06T12:48:42.564Z</time></trkpt><trkpt lat="37.7484217" lon="12.8479233"><ele>342.0</ele><time>2026-05-06T12:48:43.564Z</time></trkpt><trkpt lat="37.748175" lon="12.8477767"><ele>340.0</ele><time>2026-05-06T12:48:44.565Z</time></trkpt><trkpt lat="37.74793" lon="12.8476283"><ele>340.5</ele><time>2026-05-06T12:48:45.564Z</time></trkpt><trkpt lat="37.7476917" lon="12.8474883"><ele>341.0</ele><time>2026-05-06T12:48:46.565Z</time></trkpt><trkpt lat="37.74746" lon="12.8473583"><ele>341.0</ele><time>2026-05-06T12:48:47.565Z</time></trkpt><trkpt lat="37.7472233" lon="12.8472267"><ele>341.0</ele><time>2026-05-06T12:48:48.564Z</time></trkpt><trkpt lat="37.7469783" lon="12.8470867"><ele>340.5</ele><time>2026-05-06T12:48:49.565Z</time></trkpt><trkpt lat="37.7467267" lon="12.8469317"><ele>340.0</ele><time>2026-05-06T12:48:50.565Z</time></trkpt><trkpt lat="37.7464717" lon="12.84676"><ele>339.0</ele><time>2026-05-06T12:48:51.566Z</time></trkpt><trkpt lat="37.7462183" lon="12.84658"><ele>338.0</ele><time>2026-05-06T12:48:52.565Z</time></trkpt><trkpt lat="37.74597" lon="12.8464033"><ele>338.0</ele><time>2026-05-06T12:48:53.565Z</time></trkpt><trkpt lat="37.7457317" lon="12.8462367"><ele>338.0</ele><time>2026-05-06T12:48:54.564Z</time></trkpt><trkpt lat="37.745495" lon="12.8460767"><ele>336.0</ele><time>2026-05-06T12:48:55.565Z</time></trkpt><trkpt lat="37.7452617" lon="12.84592"><ele>334.0</ele><time>2026-05-06T12:48:56.564Z</time></trkpt><trkpt lat="37.7450283" lon="12.8457617"><ele>334.0</ele><time>2026-05-06T12:48:57.564Z</time></trkpt><trkpt lat="37.7447983" lon="12.8456033"><ele>334.0</ele><time>2026-05-06T12:48:58.564Z</time></trkpt><trkpt lat="37.7445717" lon="12.8454467"><ele>333.5</ele><time>2026-05-06T12:48:59.564Z</time></trkpt><trkpt lat="37.7443533" lon="12.8452933"><ele>333.0</ele><time>2026-05-06T12:49:00.564Z</time></trkpt><trkpt lat="37.744145" lon="12.8451433"><ele>332.0</ele><time>2026-05-06T12:49:01.563Z</time></trkpt><trkpt lat="37.7439383" lon="12.8449967"><ele>331.0</ele><time>2026-05-06T12:49:02.565Z</time></trkpt><trkpt lat="37.7437333" lon="12.84485"><ele>330.5</ele><time>2026-05-06T12:49:03.564Z</time></trkpt><trkpt lat="37.7435283" lon="12.844705"><ele>330.0</ele><time>2026-05-06T12:49:04.565Z</time></trkpt><trkpt lat="37.7433217" lon="12.84456"><ele>330.0</ele><time>2026-05-06T12:49:05.566Z</time></trkpt><trkpt lat="37.743115" lon="12.8444133"><ele>330.0</ele><time>2026-05-06T12:49:06.564Z</time></trkpt><trkpt lat="37.7429067" lon="12.8442667"><ele>328.5</ele><time>2026-05-06T12:49:07.564Z</time></trkpt><trkpt lat="37.7427" lon="12.84412"><ele>327.0</ele><time>2026-05-06T12:49:08.565Z</time></trkpt><trkpt lat="37.7424917" lon="12.8439717"><ele>327.0</ele><time>2026-05-06T12:49:09.564Z</time></trkpt><trkpt lat="37.7422817" lon="12.8438183"><ele>327.0</ele><time>2026-05-06T12:49:10.564Z</time></trkpt><trkpt lat="37.7420717" lon="12.843665"><ele>326.5</ele><time>2026-05-06T12:49:11.565Z</time></trkpt><trkpt lat="37.7418617" lon="12.84351"><ele>326.0</ele><time>2026-05-06T12:49:12.564Z</time></trkpt><trkpt lat="37.74165" lon="12.843355"><ele>326.0</ele><time>2026-05-06T12:49:13.564Z</time></trkpt><trkpt lat="37.7414367" lon="12.8432"><ele>326.0</ele><time>2026-05-06T12:49:14.565Z</time></trkpt><trkpt lat="37.7412233" lon="12.8430417"><ele>325.0</ele><time>2026-05-06T12:49:15.564Z</time></trkpt><trkpt lat="37.7410067" lon="12.842885"><ele>324.0</ele><time>2026-05-06T12:49:16.563Z</time></trkpt><trkpt lat="37.7407883" lon="12.8427267"><ele>324.0</ele><time>2026-05-06T12:49:17.566Z</time></trkpt><trkpt lat="37.7405717" lon="12.842565"><ele>324.0</ele><time>2026-05-06T12:49:18.566Z</time></trkpt><trkpt lat="37.7403533" lon="12.842405"><ele>323.0</ele><time>2026-05-06T12:49:19.565Z</time></trkpt><trkpt lat="37.740135" lon="12.8422433"><ele>322.0</ele><time>2026-05-06T12:49:20.565Z</time></trkpt><trkpt lat="37.739915" lon="12.84208"><ele>322.0</ele><time>2026-05-06T12:49:21.566Z</time></trkpt><trkpt lat="37.739695" lon="12.8419133"><ele>322.0</ele><time>2026-05-06T12:49:22.564Z</time></trkpt><trkpt lat="37.7394733" lon="12.8417483"><ele>322.5</ele><time>2026-05-06T12:49:23.565Z</time></trkpt><trkpt lat="37.7392517" lon="12.84158"><ele>323.0</ele><time>2026-05-06T12:49:24.564Z</time></trkpt><trkpt lat="37.7390317" lon="12.8414117"><ele>323.0</ele><time>2026-05-06T12:49:25.564Z</time></trkpt><trkpt lat="37.7388167" lon="12.84125"><ele>323.0</ele><time>2026-05-06T12:49:26.565Z</time></trkpt><trkpt lat="37.7386117" lon="12.8410967"><ele>322.0</ele><time>2026-05-06T12:49:27.564Z</time></trkpt><trkpt lat="37.7384183" lon="12.8409483"><ele>321.0</ele><time>2026-05-06T12:49:28.564Z</time></trkpt><trkpt lat="37.738235" lon="12.840805"><ele>320.0</ele><time>2026-05-06T12:49:29.565Z</time></trkpt><trkpt lat="37.7380567" lon="12.8406667"><ele>320.0</ele><time>2026-05-06T12:49:30.565Z</time></trkpt><trkpt lat="37.7378767" lon="12.8405283"><ele>320.0</ele><time>2026-05-06T12:49:31.564Z</time></trkpt><trkpt lat="37.7376967" lon="12.8403867"><ele>320.0</ele><time>2026-05-06T12:49:32.565Z</time></trkpt><trkpt lat="37.737515" lon="12.8402417"><ele>318.33333333333337</ele><time>2026-05-06T12:49:33.564Z</time></trkpt><trkpt lat="37.7373283" lon="12.8400983"><ele>316.6666666666667</ele><time>2026-05-06T12:49:34.564Z</time></trkpt><trkpt lat="37.7371383" lon="12.8399533"><ele>315.0</ele><time>2026-05-06T12:49:35.563Z</time></trkpt><trkpt lat="37.7369483" lon="12.8398083"><ele>313.0</ele><time>2026-05-06T12:49:36.565Z</time></trkpt><trkpt lat="37.7367567" lon="12.8396617"><ele>311.0</ele><time>2026-05-06T12:49:37.565Z</time></trkpt><trkpt lat="37.736565" lon="12.839515"><ele>309.0</ele><time>2026-05-06T12:49:38.565Z</time></trkpt><trkpt lat="37.7363733" lon="12.8393633"><ele>310.0</ele><time>2026-05-06T12:49:39.565Z</time></trkpt><trkpt lat="37.7361817" lon="12.83921"><ele>311.0</ele><time>2026-05-06T12:49:40.564Z</time></trkpt><trkpt lat="37.7359917" lon="12.8390583"><ele>307.0</ele><time>2026-05-06T12:49:41.564Z</time></trkpt><trkpt lat="37.7358017" lon="12.8389067"><ele>303.0</ele><time>2026-05-06T12:49:42.565Z</time></trkpt><trkpt lat="37.7356117" lon="12.8387533"><ele>303.0</ele><time>2026-05-06T12:49:43.564Z</time></trkpt><trkpt lat="37.73542" lon="12.8386"><ele>303.0</ele><time>2026-05-06T12:49:44.564Z</time></trkpt><trkpt lat="37.7352283" lon="12.8384467"><ele>305.0</ele><time>2026-05-06T12:49:45.563Z</time></trkpt><trkpt lat="37.7350383" lon="12.8382917"><ele>307.0</ele><time>2026-05-06T12:49:46.565Z</time></trkpt><trkpt lat="37.73485" lon="12.8381367"><ele>307.0</ele><time>2026-05-06T12:49:47.564Z</time></trkpt><trkpt lat="37.73466" lon="12.8379817"><ele>307.0</ele><time>2026-05-06T12:49:48.564Z</time></trkpt><trkpt lat="37.7344683" lon="12.8378283"><ele>306.5</ele><time>2026-05-06T12:49:49.565Z</time></trkpt><trkpt lat="37.7342783" lon="12.8376733"><ele>306.0</ele><time>2026-05-06T12:49:50.564Z</time></trkpt><trkpt lat="37.7340883" lon="12.837515"><ele>308.0</ele><time>2026-05-06T12:49:51.564Z</time></trkpt><trkpt lat="37.7338967" lon="12.8373567"><ele>310.0</ele><time>2026-05-06T12:49:52.565Z</time></trkpt><trkpt lat="37.7337017" lon="12.8371967"><ele>309.5</ele><time>2026-05-06T12:49:53.564Z</time></trkpt><trkpt lat="37.7335033" lon="12.837035"><ele>309.0</ele><time>2026-05-06T12:49:54.564Z</time></trkpt><trkpt lat="37.7333033" lon="12.8368717"><ele>308.5</ele><time>2026-05-06T12:49:55.564Z</time></trkpt><trkpt lat="37.7330983" lon="12.836705"><ele>308.0</ele><time>2026-05-06T12:49:56.565Z</time></trkpt><trkpt lat="37.73289" lon="12.8365383"><ele>307.0</ele><time>2026-05-06T12:49:57.565Z</time></trkpt><trkpt lat="37.73268" lon="12.8363717"><ele>306.0</ele><time>2026-05-06T12:49:58.564Z</time></trkpt><trkpt lat="37.73247" lon="12.8362067"><ele>306.0</ele><time>2026-05-06T12:49:59.563Z</time></trkpt><trkpt lat="37.7322583" lon="12.83604"><ele>306.0</ele><time>2026-05-06T12:50:00.563Z</time></trkpt><trkpt lat="37.7320483" lon="12.8358767"><ele>305.0</ele><time>2026-05-06T12:50:01.564Z</time></trkpt><trkpt lat="37.7318483" lon="12.835715"><ele>304.0</ele><time>2026-05-06T12:50:02.565Z</time></trkpt><trkpt lat="37.7316567" lon="12.83556"><ele>304.0</ele><time>2026-05-06T12:50:03.565Z</time></trkpt><trkpt lat="37.73147" lon="12.8354067"><ele>304.0</ele><time>2026-05-06T12:50:04.564Z</time></trkpt><trkpt lat="37.7312833" lon="12.8352517"><ele>304.0</ele><time>2026-05-06T12:50:05.563Z</time></trkpt><trkpt lat="37.731095" lon="12.8350933"><ele>304.5</ele><time>2026-05-06T12:50:06.565Z</time></trkpt><trkpt lat="37.730905" lon="12.834935"><ele>305.0</ele><time>2026-05-06T12:50:07.564Z</time></trkpt><trkpt lat="37.7307117" lon="12.834775"><ele>305.0</ele><time>2026-05-06T12:50:08.566Z</time></trkpt><trkpt lat="37.730515" lon="12.83461"><ele>305.0</ele><time>2026-05-06T12:50:09.564Z</time></trkpt><trkpt lat="37.7303167" lon="12.8344467"><ele>304.5</ele><time>2026-05-06T12:50:10.565Z</time></trkpt><trkpt lat="37.7301167" lon="12.83428"><ele>304.0</ele><time>2026-05-06T12:50:11.564Z</time></trkpt><trkpt lat="37.729915" lon="12.8341083"><ele>304.0</ele><time>2026-05-06T12:50:12.564Z</time></trkpt><trkpt lat="37.7297167" lon="12.8339283"><ele>304.0</ele><time>2026-05-06T12:50:13.563Z</time></trkpt><trkpt lat="37.7295167" lon="12.8337483"><ele>304.0</ele><time>2026-05-06T12:50:14.565Z</time></trkpt><trkpt lat="37.7293117" lon="12.8335733"><ele>304.0</ele><time>2026-05-06T12:50:15.565Z</time></trkpt><trkpt lat="37.729105" lon="12.8334017"><ele>302.5</ele><time>2026-05-06T12:50:16.564Z</time></trkpt><trkpt lat="37.7288967" lon="12.8332317"><ele>301.0</ele><time>2026-05-06T12:50:17.565Z</time></trkpt><trkpt lat="37.7286883" lon="12.83306"><ele>301.0</ele><time>2026-05-06T12:50:18.564Z</time></trkpt><trkpt lat="37.72848" lon="12.83289"><ele>301.0</ele><time>2026-05-06T12:50:19.564Z</time></trkpt><trkpt lat="37.728275" lon="12.8327267"><ele>300.0</ele><time>2026-05-06T12:50:20.565Z</time></trkpt><trkpt lat="37.7280767" lon="12.8325717"><ele>299.0</ele><time>2026-05-06T12:50:21.565Z</time></trkpt><trkpt lat="37.7278817" lon="12.8324167"><ele>300.0</ele><time>2026-05-06T12:50:22.566Z</time></trkpt><trkpt lat="37.7276833" lon="12.8322617"><ele>301.0</ele><time>2026-05-06T12:50:23.567Z</time></trkpt><trkpt lat="37.727485" lon="12.8321083"><ele>301.0</ele><time>2026-05-06T12:50:24.564Z</time></trkpt><trkpt lat="37.727285" lon="12.8319533"><ele>301.0</ele><time>2026-05-06T12:50:25.564Z</time></trkpt><trkpt lat="37.727085" lon="12.8318"><ele>300.5</ele><time>2026-05-06T12:50:26.565Z</time></trkpt><trkpt lat="37.7268833" lon="12.8316467"><ele>300.0</ele><time>2026-05-06T12:50:27.564Z</time></trkpt><trkpt lat="37.7266833" lon="12.8314917"><ele>300.0</ele><time>2026-05-06T12:50:28.564Z</time></trkpt><trkpt lat="37.7264817" lon="12.8313367"><ele>300.0</ele><time>2026-05-06T12:50:29.563Z</time></trkpt><trkpt lat="37.7262783" lon="12.8311817"><ele>300.0</ele><time>2026-05-06T12:50:30.565Z</time></trkpt><trkpt lat="37.7260717" lon="12.8310283"><ele>300.0</ele><time>2026-05-06T12:50:31.565Z</time></trkpt><trkpt lat="37.7258633" lon="12.8308717"><ele>298.5</ele><time>2026-05-06T12:50:32.565Z</time></trkpt><trkpt lat="37.7256533" lon="12.830715"><ele>297.0</ele><time>2026-05-06T12:50:33.563Z</time></trkpt><trkpt lat="37.7254433" lon="12.83056"><ele>297.0</ele><time>2026-05-06T12:50:34.564Z</time></trkpt><trkpt lat="37.72523" lon="12.8304083"><ele>297.0</ele><time>2026-05-06T12:50:35.565Z</time></trkpt><trkpt lat="37.725015" lon="12.830255"><ele>296.5</ele><time>2026-05-06T12:50:36.564Z</time></trkpt><trkpt lat="37.7248" lon="12.8301017"><ele>296.0</ele><time>2026-05-06T12:50:37.564Z</time></trkpt><trkpt lat="37.7245817" lon="12.8299483"><ele>295.0</ele><time>2026-05-06T12:50:38.565Z</time></trkpt><trkpt lat="37.7243633" lon="12.829795"><ele>294.0</ele><time>2026-05-06T12:50:39.564Z</time></trkpt><trkpt lat="37.7241433" lon="12.8296433"><ele>294.0</ele><time>2026-05-06T12:50:40.565Z</time></trkpt><trkpt lat="37.7239217" lon="12.82949"><ele>294.0</ele><time>2026-05-06T12:50:41.564Z</time></trkpt><trkpt lat="37.7237" lon="12.8293383"><ele>294.0</ele><time>2026-05-06T12:50:42.564Z</time></trkpt><trkpt lat="37.7234767" lon="12.8291867"><ele>294.0</ele><time>2026-05-06T12:50:43.565Z</time></trkpt><trkpt lat="37.7232517" lon="12.829035"><ele>294.0</ele><time>2026-05-06T12:50:44.564Z</time></trkpt><trkpt lat="37.723025" lon="12.8288833"><ele>294.0</ele><time>2026-05-06T12:50:45.564Z</time></trkpt><trkpt lat="37.7227983" lon="12.8287317"><ele>292.5</ele><time>2026-05-06T12:50:46.565Z</time></trkpt><trkpt lat="37.72257" lon="12.8285817"><ele>291.0</ele><time>2026-05-06T12:50:47.564Z</time></trkpt><trkpt lat="37.7223417" lon="12.82843"><ele>289.5</ele><time>2026-05-06T12:50:48.564Z</time></trkpt><trkpt lat="37.7221133" lon="12.8282783"><ele>288.0</ele><time>2026-05-06T12:50:49.564Z</time></trkpt><trkpt lat="37.7218833" lon="12.82813"><ele>287.5</ele><time>2026-05-06T12:50:50.565Z</time></trkpt><trkpt lat="37.7216517" lon="12.827985"><ele>287.0</ele><time>2026-05-06T12:50:51.565Z</time></trkpt><trkpt lat="37.7214183" lon="12.82784"><ele>287.0</ele><time>2026-05-06T12:50:52.564Z</time></trkpt><trkpt lat="37.7211883" lon="12.827695"><ele>287.0</ele><time>2026-05-06T12:50:53.564Z</time></trkpt><trkpt lat="37.720965" lon="12.8275567"><ele>286.5</ele><time>2026-05-06T12:50:54.563Z</time></trkpt><trkpt lat="37.7207517" lon="12.827425"><ele>286.0</ele><time>2026-05-06T12:50:55.563Z</time></trkpt><trkpt lat="37.7205467" lon="12.827295"><ele>286.0</ele><time>2026-05-06T12:50:56.565Z</time></trkpt><trkpt lat="37.7203433" lon="12.8271683"><ele>286.0</ele><time>2026-05-06T12:50:57.565Z</time></trkpt><trkpt lat="37.72014" lon="12.8270483"><ele>285.66666666666663</ele><time>2026-05-06T12:50:58.565Z</time></trkpt><trkpt lat="37.7199383" lon="12.8269317"><ele>285.3333333333333</ele><time>2026-05-06T12:50:59.565Z</time></trkpt><trkpt lat="37.7197383" lon="12.82681"><ele>285.0</ele><time>2026-05-06T12:51:00.564Z</time></trkpt><trkpt lat="37.7195383" lon="12.82669"><ele>283.0</ele><time>2026-05-06T12:51:01.563Z</time></trkpt><trkpt lat="37.719335" lon="12.82657"><ele>281.0</ele><time>2026-05-06T12:51:02.565Z</time></trkpt><trkpt lat="37.71913" lon="12.8264517"><ele>281.0</ele><time>2026-05-06T12:51:03.564Z</time></trkpt><trkpt lat="37.718925" lon="12.8263317"><ele>281.0</ele><time>2026-05-06T12:51:04.564Z</time></trkpt><trkpt lat="37.718715" lon="12.8262083"><ele>280.5</ele><time>2026-05-06T12:51:05.564Z</time></trkpt><trkpt lat="37.7185033" lon="12.82609"><ele>280.0</ele><time>2026-05-06T12:51:06.564Z</time></trkpt><trkpt lat="37.7182883" lon="12.82597"><ele>281.0</ele><time>2026-05-06T12:51:07.564Z</time></trkpt><trkpt lat="37.7180783" lon="12.8258433"><ele>282.0</ele><time>2026-05-06T12:51:08.564Z</time></trkpt><trkpt lat="37.717865" lon="12.82572"><ele>280.5</ele><time>2026-05-06T12:51:09.563Z</time></trkpt><trkpt lat="37.71765" lon="12.8255983"><ele>279.0</ele><time>2026-05-06T12:51:10.564Z</time></trkpt><trkpt lat="37.7174333" lon="12.8254767"><ele>279.0</ele><time>2026-05-06T12:51:11.565Z</time></trkpt><trkpt lat="37.7172183" lon="12.8253567"><ele>279.0</ele><time>2026-05-06T12:51:12.563Z</time></trkpt><trkpt lat="37.7170033" lon="12.8252367"><ele>276.5</ele><time>2026-05-06T12:51:13.564Z</time></trkpt><trkpt lat="37.71679" lon="12.82512"><ele>274.0</ele><time>2026-05-06T12:51:14.565Z</time></trkpt><trkpt lat="37.7165767" lon="12.8250067"><ele>274.0</ele><time>2026-05-06T12:51:15.565Z</time></trkpt><trkpt lat="37.7163633" lon="12.8248967"><ele>274.0</ele><time>2026-05-06T12:51:16.564Z</time></trkpt><trkpt lat="37.7161517" lon="12.8247833"><ele>271.0</ele><time>2026-05-06T12:51:17.564Z</time></trkpt><trkpt lat="37.7159417" lon="12.8246717"><ele>268.0</ele><time>2026-05-06T12:51:18.565Z</time></trkpt><trkpt lat="37.7157317" lon="12.82456"><ele>268.0</ele><time>2026-05-06T12:51:19.565Z</time></trkpt><trkpt lat="37.71552" lon="12.82445"><ele>268.0</ele><time>2026-05-06T12:51:20.565Z</time></trkpt><trkpt lat="37.7153067" lon="12.82434"><ele>267.0</ele><time>2026-05-06T12:51:21.565Z</time></trkpt><trkpt lat="37.7150917" lon="12.82423"><ele>266.0</ele><time>2026-05-06T12:51:22.566Z</time></trkpt><trkpt lat="37.7148767" lon="12.8241217"><ele>266.0</ele><time>2026-05-06T12:51:23.566Z</time></trkpt><trkpt lat="37.71466" lon="12.82401"><ele>266.0</ele><time>2026-05-06T12:51:24.565Z</time></trkpt><trkpt lat="37.7144417" lon="12.8239"><ele>266.5</ele><time>2026-05-06T12:51:25.566Z</time></trkpt><trkpt lat="37.7142233" lon="12.82379"><ele>267.0</ele><time>2026-05-06T12:51:26.565Z</time></trkpt><trkpt lat="37.7140033" lon="12.82368"><ele>267.0</ele><time>2026-05-06T12:51:27.564Z</time></trkpt><trkpt lat="37.71378" lon="12.8235717"><ele>267.0</ele><time>2026-05-06T12:51:28.565Z</time></trkpt><trkpt lat="37.7135567" lon="12.8234633"><ele>266.5</ele><time>2026-05-06T12:51:29.565Z</time></trkpt><trkpt lat="37.7133317" lon="12.823355"><ele>266.0</ele><time>2026-05-06T12:51:30.564Z</time></trkpt><trkpt lat="37.7131067" lon="12.8232467"><ele>266.0</ele><time>2026-05-06T12:51:31.564Z</time></trkpt><trkpt lat="37.71288" lon="12.8231383"><ele>266.0</ele><time>2026-05-06T12:51:32.566Z</time></trkpt><trkpt lat="37.7126533" lon="12.8230333"><ele>266.0</ele><time>2026-05-06T12:51:33.565Z</time></trkpt><trkpt lat="37.712425" lon="12.8229283"><ele>266.0</ele><time>2026-05-06T12:51:34.564Z</time></trkpt><trkpt lat="37.7121967" lon="12.822825"><ele>266.0</ele><time>2026-05-06T12:51:35.564Z</time></trkpt><trkpt lat="37.71197" lon="12.8227233"><ele>266.0</ele><time>2026-05-06T12:51:36.565Z</time></trkpt><trkpt lat="37.71174" lon="12.8226267"><ele>266.5</ele><time>2026-05-06T12:51:37.564Z</time></trkpt><trkpt lat="37.7115083" lon="12.8225267"><ele>267.0</ele><time>2026-05-06T12:51:38.565Z</time></trkpt><trkpt lat="37.71128" lon="12.8224267"><ele>265.0</ele><time>2026-05-06T12:51:39.565Z</time></trkpt><trkpt lat="37.7110483" lon="12.8223283"><ele>263.0</ele><time>2026-05-06T12:51:40.564Z</time></trkpt><trkpt lat="37.710815" lon="12.82223"><ele>263.0</ele><time>2026-05-06T12:51:41.565Z</time></trkpt><trkpt lat="37.7105783" lon="12.8221333"><ele>263.0</ele><time>2026-05-06T12:51:42.564Z</time></trkpt><trkpt lat="37.7103433" lon="12.8220383"><ele>262.0</ele><time>2026-05-06T12:51:43.564Z</time></trkpt><trkpt lat="37.7101083" lon="12.821945"><ele>261.0</ele><time>2026-05-06T12:51:44.564Z</time></trkpt><trkpt lat="37.7098733" lon="12.8218517"><ele>261.5</ele><time>2026-05-06T12:51:45.564Z</time></trkpt><trkpt lat="37.709635" lon="12.8217583"><ele>262.0</ele><time>2026-05-06T12:51:46.565Z</time></trkpt><trkpt lat="37.7093983" lon="12.8216667"><ele>261.0</ele><time>2026-05-06T12:51:47.564Z</time></trkpt><trkpt lat="37.7091617" lon="12.821575"><ele>260.0</ele><time>2026-05-06T12:51:48.564Z</time></trkpt><trkpt lat="37.7089233" lon="12.821485"><ele>260.0</ele><time>2026-05-06T12:51:49.565Z</time></trkpt><trkpt lat="37.7086833" lon="12.8213983"><ele>260.0</ele><time>2026-05-06T12:51:50.565Z</time></trkpt><trkpt lat="37.7084433" lon="12.82131"><ele>257.5</ele><time>2026-05-06T12:51:51.565Z</time></trkpt><trkpt lat="37.7082033" lon="12.8212217"><ele>255.0</ele><time>2026-05-06T12:51:52.566Z</time></trkpt><trkpt lat="37.7079633" lon="12.821135"><ele>254.0</ele><time>2026-05-06T12:51:53.565Z</time></trkpt><trkpt lat="37.7077217" lon="12.8210483"><ele>253.0</ele><time>2026-05-06T12:51:54.565Z</time></trkpt><trkpt lat="37.70748" lon="12.8209633"><ele>252.0</ele><time>2026-05-06T12:51:55.564Z</time></trkpt><trkpt lat="37.7072383" lon="12.8208817"><ele>251.0</ele><time>2026-05-06T12:51:56.566Z</time></trkpt><trkpt lat="37.706995" lon="12.8208033"><ele>250.5</ele><time>2026-05-06T12:51:57.565Z</time></trkpt><trkpt lat="37.7067517" lon="12.8207267"><ele>250.0</ele><time>2026-05-06T12:51:58.565Z</time></trkpt><trkpt lat="37.7065083" lon="12.82065"><ele>250.0</ele><time>2026-05-06T12:51:59.563Z</time></trkpt><trkpt lat="37.7062667" lon="12.8205717"><ele>250.0</ele><time>2026-05-06T12:52:00.566Z</time></trkpt><trkpt lat="37.7060233" lon="12.820495"><ele>247.5</ele><time>2026-05-06T12:52:01.564Z</time></trkpt><trkpt lat="37.7057817" lon="12.8204183"><ele>245.0</ele><time>2026-05-06T12:52:02.565Z</time></trkpt><trkpt lat="37.70554" lon="12.820345"><ele>245.0</ele><time>2026-05-06T12:52:03.564Z</time></trkpt><trkpt lat="37.705295" lon="12.8202733"><ele>245.0</ele><time>2026-05-06T12:52:04.564Z</time></trkpt><trkpt lat="37.7050533" lon="12.8202"><ele>244.5</ele><time>2026-05-06T12:52:05.564Z</time></trkpt><trkpt lat="37.7048083" lon="12.8201283"><ele>244.0</ele><time>2026-05-06T12:52:06.564Z</time></trkpt><trkpt lat="37.7045633" lon="12.82006"><ele>241.5</ele><time>2026-05-06T12:52:07.565Z</time></trkpt><trkpt lat="37.7043167" lon="12.8199933"><ele>239.0</ele><time>2026-05-06T12:52:08.565Z</time></trkpt><trkpt lat="37.7040717" lon="12.8199267"><ele>239.0</ele><time>2026-05-06T12:52:09.565Z</time></trkpt><trkpt lat="37.703825" lon="12.81986"><ele>239.0</ele><time>2026-05-06T12:52:10.565Z</time></trkpt><trkpt lat="37.7035767" lon="12.8197967"><ele>237.0</ele><time>2026-05-06T12:52:11.564Z</time></trkpt><trkpt lat="37.70333" lon="12.8197333"><ele>235.0</ele><time>2026-05-06T12:52:12.565Z</time></trkpt><trkpt lat="37.70308" lon="12.8196717"><ele>235.0</ele><time>2026-05-06T12:52:13.564Z</time></trkpt><trkpt lat="37.70283" lon="12.8196133"><ele>235.0</ele><time>2026-05-06T12:52:14.565Z</time></trkpt><trkpt lat="37.7025767" lon="12.8195517"><ele>233.5</ele><time>2026-05-06T12:52:15.57Z</time></trkpt><trkpt lat="37.702325" lon="12.8194917"><ele>232.0</ele><time>2026-05-06T12:52:16.564Z</time></trkpt><trkpt lat="37.7020733" lon="12.819435"><ele>230.5</ele><time>2026-05-06T12:52:17.565Z</time></trkpt><trkpt lat="37.70182" lon="12.81938"><ele>229.0</ele><time>2026-05-06T12:52:18.564Z</time></trkpt><trkpt lat="37.7015683" lon="12.819325"><ele>228.0</ele><time>2026-05-06T12:52:19.565Z</time></trkpt><trkpt lat="37.7013183" lon="12.8192717"><ele>227.0</ele><time>2026-05-06T12:52:20.565Z</time></trkpt><trkpt lat="37.7010683" lon="12.8192183"><ele>227.0</ele><time>2026-05-06T12:52:21.565Z</time></trkpt><trkpt lat="37.7008217" lon="12.8191683"><ele>227.0</ele><time>2026-05-06T12:52:22.566Z</time></trkpt><trkpt lat="37.7005833" lon="12.8191217"><ele>227.0</ele><time>2026-05-06T12:52:23.566Z</time></trkpt><trkpt lat="37.7003467" lon="12.8190767"><ele>227.0</ele><time>2026-05-06T12:52:24.57Z</time></trkpt><trkpt lat="37.7001117" lon="12.8190333"><ele>225.5</ele><time>2026-05-06T12:52:25.565Z</time></trkpt><trkpt lat="37.6998767" lon="12.8189933"><ele>224.0</ele><time>2026-05-06T12:52:26.567Z</time></trkpt><trkpt lat="37.6996483" lon="12.8189533"><ele>224.0</ele><time>2026-05-06T12:52:27.565Z</time></trkpt><trkpt lat="37.6994283" lon="12.8189167"><ele>224.0</ele><time>2026-05-06T12:52:28.565Z</time></trkpt><trkpt lat="37.69921" lon="12.81888"><ele>224.0</ele><time>2026-05-06T12:52:29.564Z</time></trkpt><trkpt lat="37.6989933" lon="12.8188417"><ele>222.0</ele><time>2026-05-06T12:52:30.566Z</time></trkpt><trkpt lat="37.6987717" lon="12.818805"><ele>220.0</ele><time>2026-05-06T12:52:31.564Z</time></trkpt><trkpt lat="37.698545" lon="12.81877"><ele>220.0</ele><time>2026-05-06T12:52:32.565Z</time></trkpt><trkpt lat="37.6983183" lon="12.81874"><ele>220.0</ele><time>2026-05-06T12:52:33.564Z</time></trkpt><trkpt lat="37.6980867" lon="12.8187083"><ele>220.0</ele><time>2026-05-06T12:52:34.565Z</time></trkpt><trkpt lat="37.6978533" lon="12.818675"><ele>220.0</ele><time>2026-05-06T12:52:35.564Z</time></trkpt><trkpt lat="37.6976183" lon="12.8186417"><ele>218.0</ele><time>2026-05-06T12:52:36.565Z</time></trkpt><trkpt lat="37.6973833" lon="12.8186117"><ele>216.0</ele><time>2026-05-06T12:52:37.563Z</time></trkpt><trkpt lat="37.6971483" lon="12.8185833"><ele>214.5</ele><time>2026-05-06T12:52:38.565Z</time></trkpt><trkpt lat="37.6969133" lon="12.8185567"><ele>213.0</ele><time>2026-05-06T12:52:39.564Z</time></trkpt><trkpt lat="37.6966783" lon="12.81853"><ele>213.0</ele><time>2026-05-06T12:52:40.563Z</time></trkpt><trkpt lat="37.69644" lon="12.818505"><ele>213.0</ele><time>2026-05-06T12:52:41.564Z</time></trkpt><trkpt lat="37.6962017" lon="12.8184817"><ele>211.5</ele><time>2026-05-06T12:52:42.564Z</time></trkpt><trkpt lat="37.6959617" lon="12.8184567"><ele>210.0</ele><time>2026-05-06T12:52:43.564Z</time></trkpt><trkpt lat="37.69572" lon="12.8184317"><ele>210.0</ele><time>2026-05-06T12:52:44.565Z</time></trkpt><trkpt lat="37.6954817" lon="12.8184067"><ele>210.0</ele><time>2026-05-06T12:52:45.564Z</time></trkpt><trkpt lat="37.6952483" lon="12.818385"><ele>209.0</ele><time>2026-05-06T12:52:46.565Z</time></trkpt><trkpt lat="37.6950183" lon="12.8183667"><ele>208.0</ele><time>2026-05-06T12:52:47.565Z</time></trkpt><trkpt lat="37.6947883" lon="12.81835"><ele>208.0</ele><time>2026-05-06T12:52:48.564Z</time></trkpt><trkpt lat="37.6945583" lon="12.8183333"><ele>208.0</ele><time>2026-05-06T12:52:49.565Z</time></trkpt><trkpt lat="37.6943283" lon="12.8183167"><ele>207.0</ele><time>2026-05-06T12:52:50.564Z</time></trkpt><trkpt lat="37.6941" lon="12.8183033"><ele>206.0</ele><time>2026-05-06T12:52:51.565Z</time></trkpt><trkpt lat="37.69387" lon="12.8182917"><ele>206.0</ele><time>2026-05-06T12:52:52.565Z</time></trkpt><trkpt lat="37.6936383" lon="12.8182783"><ele>206.0</ele><time>2026-05-06T12:52:53.566Z</time></trkpt><trkpt lat="37.6934067" lon="12.818265"><ele>204.0</ele><time>2026-05-06T12:52:54.566Z</time></trkpt><trkpt lat="37.6931733" lon="12.8182517"><ele>202.0</ele><time>2026-05-06T12:52:55.564Z</time></trkpt><trkpt lat="37.69294" lon="12.8182417"><ele>201.0</ele><time>2026-05-06T12:52:56.564Z</time></trkpt><trkpt lat="37.6927067" lon="12.8182333"><ele>200.0</ele><time>2026-05-06T12:52:57.565Z</time></trkpt><trkpt lat="37.6924733" lon="12.8182267"><ele>200.0</ele><time>2026-05-06T12:52:58.565Z</time></trkpt><trkpt lat="37.69224" lon="12.81822"><ele>200.0</ele><time>2026-05-06T12:52:59.565Z</time></trkpt><trkpt lat="37.692005" lon="12.818215"><ele>199.0</ele><time>2026-05-06T12:53:00.564Z</time></trkpt><trkpt lat="37.69177" lon="12.8182117"><ele>198.0</ele><time>2026-05-06T12:53:01.564Z</time></trkpt><trkpt lat="37.6915367" lon="12.8182067"><ele>198.0</ele><time>2026-05-06T12:53:02.565Z</time></trkpt><trkpt lat="37.6913" lon="12.8182033"><ele>198.0</ele><time>2026-05-06T12:53:03.564Z</time></trkpt><trkpt lat="37.691065" lon="12.8181967"><ele>197.5</ele><time>2026-05-06T12:53:04.565Z</time></trkpt><trkpt lat="37.69083" lon="12.8181933"><ele>197.0</ele><time>2026-05-06T12:53:05.565Z</time></trkpt><trkpt lat="37.6905933" lon="12.8181917"><ele>197.0</ele><time>2026-05-06T12:53:06.565Z</time></trkpt><trkpt lat="37.690355" lon="12.8181933"><ele>197.0</ele><time>2026-05-06T12:53:07.563Z</time></trkpt><trkpt lat="37.6901167" lon="12.8181933"><ele>194.5</ele><time>2026-05-06T12:53:08.565Z</time></trkpt><trkpt lat="37.6898767" lon="12.8181967"><ele>192.0</ele><time>2026-05-06T12:53:09.565Z</time></trkpt><trkpt lat="37.6896383" lon="12.8182"><ele>192.0</ele><time>2026-05-06T12:53:10.564Z</time></trkpt><trkpt lat="37.6893983" lon="12.8182067"><ele>192.0</ele><time>2026-05-06T12:53:11.564Z</time></trkpt><trkpt lat="37.689155" lon="12.8182167"><ele>192.0</ele><time>2026-05-06T12:53:12.565Z</time></trkpt><trkpt lat="37.6889117" lon="12.81823"><ele>192.0</ele><time>2026-05-06T12:53:13.565Z</time></trkpt><trkpt lat="37.68867" lon="12.8182433"><ele>190.5</ele><time>2026-05-06T12:53:14.565Z</time></trkpt><trkpt lat="37.6884267" lon="12.8182567"><ele>189.0</ele><time>2026-05-06T12:53:15.565Z</time></trkpt><trkpt lat="37.6881833" lon="12.8182683"><ele>189.0</ele><time>2026-05-06T12:53:16.565Z</time></trkpt><trkpt lat="37.68794" lon="12.8182817"><ele>189.0</ele><time>2026-05-06T12:53:17.565Z</time></trkpt><trkpt lat="37.6876967" lon="12.8182967"><ele>188.0</ele><time>2026-05-06T12:53:18.566Z</time></trkpt><trkpt lat="37.687455" lon="12.8183117"><ele>187.0</ele><time>2026-05-06T12:53:19.564Z</time></trkpt><trkpt lat="37.687215" lon="12.8183267"><ele>187.0</ele><time>2026-05-06T12:53:20.565Z</time></trkpt><trkpt lat="37.686975" lon="12.818345"><ele>187.0</ele><time>2026-05-06T12:53:21.565Z</time></trkpt><trkpt lat="37.686735" lon="12.818365"><ele>185.0</ele><time>2026-05-06T12:53:22.565Z</time></trkpt><trkpt lat="37.6864967" lon="12.8183833"><ele>183.0</ele><time>2026-05-06T12:53:23.566Z</time></trkpt><trkpt lat="37.6862583" lon="12.818405"><ele>182.0</ele><time>2026-05-06T12:53:24.565Z</time></trkpt><trkpt lat="37.6860217" lon="12.8184267"><ele>181.0</ele><time>2026-05-06T12:53:25.564Z</time></trkpt><trkpt lat="37.685785" lon="12.8184517"><ele>181.0</ele><time>2026-05-06T12:53:26.565Z</time></trkpt><trkpt lat="37.6855483" lon="12.8184767"><ele>181.0</ele><time>2026-05-06T12:53:27.565Z</time></trkpt><trkpt lat="37.6853133" lon="12.8185033"><ele>179.0</ele><time>2026-05-06T12:53:28.563Z</time></trkpt><trkpt lat="37.6850767" lon="12.81853"><ele>177.0</ele><time>2026-05-06T12:53:29.565Z</time></trkpt><trkpt lat="37.6848433" lon="12.8185567"><ele>177.0</ele><time>2026-05-06T12:53:30.563Z</time></trkpt><trkpt lat="37.6846083" lon="12.8185833"><ele>177.0</ele><time>2026-05-06T12:53:31.564Z</time></trkpt><trkpt lat="37.6843783" lon="12.8186117"><ele>177.0</ele><time>2026-05-06T12:53:32.565Z</time></trkpt><trkpt lat="37.684155" lon="12.81864"><ele>177.0</ele><time>2026-05-06T12:53:33.565Z</time></trkpt><trkpt lat="37.6839417" lon="12.8186683"><ele>177.0</ele><time>2026-05-06T12:53:34.564Z</time></trkpt><trkpt lat="37.68373" lon="12.8187"><ele>176.33333333333334</ele><time>2026-05-06T12:53:35.565Z</time></trkpt><trkpt lat="37.6835167" lon="12.8187333"><ele>175.66666666666669</ele><time>2026-05-06T12:53:36.565Z</time></trkpt><trkpt lat="37.6833" lon="12.8187683"><ele>175.0</ele><time>2026-05-06T12:53:37.564Z</time></trkpt><trkpt lat="37.683085" lon="12.8188"><ele>175.0</ele><time>2026-05-06T12:53:38.565Z</time></trkpt><trkpt lat="37.682865" lon="12.818835"><ele>175.0</ele><time>2026-05-06T12:53:39.565Z</time></trkpt><trkpt lat="37.682645" lon="12.8188717"><ele>175.0</ele><time>2026-05-06T12:53:40.565Z</time></trkpt><trkpt lat="37.6824217" lon="12.81891"><ele>174.0</ele><time>2026-05-06T12:53:41.564Z</time></trkpt><trkpt lat="37.6821967" lon="12.81895"><ele>173.0</ele><time>2026-05-06T12:53:42.564Z</time></trkpt><trkpt lat="37.68197" lon="12.8189883"><ele>172.0</ele><time>2026-05-06T12:53:43.565Z</time></trkpt><trkpt lat="37.6817417" lon="12.819025"><ele>171.0</ele><time>2026-05-06T12:53:44.566Z</time></trkpt><trkpt lat="37.6815133" lon="12.8190667"><ele>171.0</ele><time>2026-05-06T12:53:45.565Z</time></trkpt><trkpt lat="37.6812817" lon="12.8191083"><ele>171.0</ele><time>2026-05-06T12:53:46.566Z</time></trkpt><trkpt lat="37.6810533" lon="12.8191483"><ele>170.5</ele><time>2026-05-06T12:53:47.564Z</time></trkpt><trkpt lat="37.6808217" lon="12.81919"><ele>170.0</ele><time>2026-05-06T12:53:48.565Z</time></trkpt><trkpt lat="37.6805917" lon="12.8192333"><ele>170.0</ele><time>2026-05-06T12:53:49.566Z</time></trkpt><trkpt lat="37.6803617" lon="12.819275"><ele>170.0</ele><time>2026-05-06T12:53:50.564Z</time></trkpt><trkpt lat="37.6801317" lon="12.819315"><ele>168.0</ele><time>2026-05-06T12:53:51.566Z</time></trkpt><trkpt lat="37.6798983" lon="12.819355"><ele>166.0</ele><time>2026-05-06T12:53:52.565Z</time></trkpt><trkpt lat="37.6796667" lon="12.8193933"><ele>166.0</ele><time>2026-05-06T12:53:53.565Z</time></trkpt><trkpt lat="37.679435" lon="12.8194333"><ele>166.0</ele><time>2026-05-06T12:53:54.564Z</time></trkpt><trkpt lat="37.6792033" lon="12.8194733"><ele>164.5</ele><time>2026-05-06T12:53:55.565Z</time></trkpt><trkpt lat="37.6789717" lon="12.8195167"><ele>163.0</ele><time>2026-05-06T12:53:56.565Z</time></trkpt><trkpt lat="37.67874" lon="12.8195583"><ele>163.0</ele><time>2026-05-06T12:53:57.565Z</time></trkpt><trkpt lat="37.678505" lon="12.8196"><ele>163.0</ele><time>2026-05-06T12:53:58.564Z</time></trkpt><trkpt lat="37.67827" lon="12.81964"><ele>163.0</ele><time>2026-05-06T12:53:59.563Z</time></trkpt><trkpt lat="37.6780383" lon="12.8196783"><ele>163.0</ele><time>2026-05-06T12:54:00.563Z</time></trkpt><trkpt lat="37.677805" lon="12.8197167"><ele>163.0</ele><time>2026-05-06T12:54:01.566Z</time></trkpt><trkpt lat="37.677575" lon="12.8197533"><ele>163.0</ele><time>2026-05-06T12:54:02.565Z</time></trkpt><trkpt lat="37.6773433" lon="12.81979"><ele>163.0</ele><time>2026-05-06T12:54:03.564Z</time></trkpt><trkpt lat="37.6771117" lon="12.8198233"><ele>163.0</ele><time>2026-05-06T12:54:04.565Z</time></trkpt><trkpt lat="37.67688" lon="12.819855"><ele>163.0</ele><time>2026-05-06T12:54:05.564Z</time></trkpt><trkpt lat="37.6766467" lon="12.8198867"><ele>163.0</ele><time>2026-05-06T12:54:06.564Z</time></trkpt><trkpt lat="37.676415" lon="12.8199167"><ele>163.0</ele><time>2026-05-06T12:54:07.565Z</time></trkpt><trkpt lat="37.6761817" lon="12.8199433"><ele>163.0</ele><time>2026-05-06T12:54:08.565Z</time></trkpt><trkpt lat="37.6759483" lon="12.8199667"><ele>161.0</ele><time>2026-05-06T12:54:09.565Z</time></trkpt><trkpt lat="37.675715" lon="12.8199883"><ele>159.0</ele><time>2026-05-06T12:54:10.565Z</time></trkpt><trkpt lat="37.6754817" lon="12.820005"><ele>158.5</ele><time>2026-05-06T12:54:11.564Z</time></trkpt><trkpt lat="37.6752483" lon="12.82002"><ele>158.0</ele><time>2026-05-06T12:54:12.566Z</time></trkpt><trkpt lat="37.6750167" lon="12.8200333"><ele>158.0</ele><time>2026-05-06T12:54:13.564Z</time></trkpt><trkpt lat="37.67478" lon="12.8200417"><ele>158.0</ele><time>2026-05-06T12:54:14.565Z</time></trkpt><trkpt lat="37.6745433" lon="12.8200483"><ele>157.0</ele><time>2026-05-06T12:54:15.564Z</time></trkpt><trkpt lat="37.674305" lon="12.82005"><ele>156.0</ele><time>2026-05-06T12:54:16.565Z</time></trkpt><trkpt lat="37.6740633" lon="12.8200467"><ele>156.0</ele><time>2026-05-06T12:54:17.566Z</time></trkpt><trkpt lat="37.6738217" lon="12.8200367"><ele>156.0</ele><time>2026-05-06T12:54:18.564Z</time></trkpt><trkpt lat="37.67358" lon="12.8200217"><ele>154.0</ele><time>2026-05-06T12:54:19.658Z</time></trkpt><trkpt lat="37.6733367" lon="12.8200017"><ele>152.0</ele><time>2026-05-06T12:54:20.565Z</time></trkpt><trkpt lat="37.6730917" lon="12.8199733"><ele>152.0</ele><time>2026-05-06T12:54:21.564Z</time></trkpt><trkpt lat="37.6728483" lon="12.8199417"><ele>152.0</ele><time>2026-05-06T12:54:22.565Z</time></trkpt><trkpt lat="37.672605" lon="12.8199033"><ele>151.5</ele><time>2026-05-06T12:54:23.565Z</time></trkpt><trkpt lat="37.6723617" lon="12.819855"><ele>151.0</ele><time>2026-05-06T12:54:24.564Z</time></trkpt><trkpt lat="37.6721183" lon="12.8198017"><ele>149.5</ele><time>2026-05-06T12:54:25.563Z</time></trkpt><trkpt lat="37.6718767" lon="12.8197467"><ele>148.0</ele><time>2026-05-06T12:54:26.565Z</time></trkpt><trkpt lat="37.671635" lon="12.8196867"><ele>148.0</ele><time>2026-05-06T12:54:27.563Z</time></trkpt><trkpt lat="37.6713933" lon="12.819625"><ele>148.0</ele><time>2026-05-06T12:54:28.564Z</time></trkpt><trkpt lat="37.6711533" lon="12.8195617"><ele>148.0</ele><time>2026-05-06T12:54:29.563Z</time></trkpt><trkpt lat="37.6709133" lon="12.8194917"><ele>148.0</ele><time>2026-05-06T12:54:30.565Z</time></trkpt><trkpt lat="37.6706767" lon="12.8194167"><ele>148.0</ele><time>2026-05-06T12:54:31.565Z</time></trkpt><trkpt lat="37.67044" lon="12.819335"><ele>148.0</ele><time>2026-05-06T12:54:32.564Z</time></trkpt><trkpt lat="37.6702017" lon="12.819255"><ele>146.0</ele><time>2026-05-06T12:54:33.564Z</time></trkpt><trkpt lat="37.6699633" lon="12.8191667"><ele>144.0</ele><time>2026-05-06T12:54:34.564Z</time></trkpt><trkpt lat="37.6697267" lon="12.8190717"><ele>144.0</ele><time>2026-05-06T12:54:35.564Z</time></trkpt><trkpt lat="37.6694933" lon="12.8189733"><ele>144.0</ele><time>2026-05-06T12:54:36.563Z</time></trkpt><trkpt lat="37.6692617" lon="12.8188717"><ele>143.5</ele><time>2026-05-06T12:54:37.565Z</time></trkpt><trkpt lat="37.6690283" lon="12.8187683"><ele>143.0</ele><time>2026-05-06T12:54:38.564Z</time></trkpt><trkpt lat="37.6687967" lon="12.8186583"><ele>141.5</ele><time>2026-05-06T12:54:39.565Z</time></trkpt><trkpt lat="37.66857" lon="12.818545"><ele>140.0</ele><time>2026-05-06T12:54:40.564Z</time></trkpt><trkpt lat="37.668345" lon="12.8184317"><ele>139.0</ele><time>2026-05-06T12:54:41.564Z</time></trkpt><trkpt lat="37.668125" lon="12.8183167"><ele>138.0</ele><time>2026-05-06T12:54:42.564Z</time></trkpt><trkpt lat="37.6679183" lon="12.8182017"><ele>137.66666666666666</ele><time>2026-05-06T12:54:43.565Z</time></trkpt><trkpt lat="37.667725" lon="12.8180867"><ele>137.33333333333331</ele><time>2026-05-06T12:54:44.565Z</time></trkpt><trkpt lat="37.6675433" lon="12.817975"><ele>137.0</ele><time>2026-05-06T12:54:45.564Z</time></trkpt><trkpt lat="37.6673683" lon="12.8178633"><ele>137.0</ele><time>2026-05-06T12:54:46.565Z</time></trkpt><trkpt lat="37.6671983" lon="12.8177583"><ele>137.0</ele><time>2026-05-06T12:54:47.565Z</time></trkpt><trkpt lat="37.66704" lon="12.8176583"><ele>137.0</ele><time>2026-05-06T12:54:48.564Z</time></trkpt><trkpt lat="37.6668867" lon="12.8175617"><ele>137.66666666666666</ele><time>2026-05-06T12:54:49.565Z</time></trkpt><trkpt lat="37.6667433" lon="12.817465"><ele>138.33333333333334</ele><time>2026-05-06T12:54:50.565Z</time></trkpt><trkpt lat="37.6666083" lon="12.8173667"><ele>139.0</ele><time>2026-05-06T12:54:51.563Z</time></trkpt><trkpt lat="37.66648" lon="12.81727"><ele>139.0</ele><time>2026-05-06T12:54:52.564Z</time></trkpt><trkpt lat="37.66635" lon="12.8171683"><ele>139.0</ele><time>2026-05-06T12:54:53.564Z</time></trkpt><trkpt lat="37.6662183" lon="12.8170583"><ele>139.0</ele><time>2026-05-06T12:54:54.564Z</time></trkpt><trkpt lat="37.66609" lon="12.8169383"><ele>137.33333333333334</ele><time>2026-05-06T12:54:55.564Z</time></trkpt><trkpt lat="37.6659633" lon="12.816815"><ele>135.66666666666666</ele><time>2026-05-06T12:54:56.565Z</time></trkpt><trkpt lat="37.6658367" lon="12.8166783"><ele>134.0</ele><time>2026-05-06T12:54:57.565Z</time></trkpt><trkpt lat="37.6657083" lon="12.81654"><ele>134.0</ele><time>2026-05-06T12:54:58.564Z</time></trkpt><trkpt lat="37.6655833" lon="12.816395"><ele>134.0</ele><time>2026-05-06T12:54:59.564Z</time></trkpt><trkpt lat="37.6654617" lon="12.8162433"><ele>134.0</ele><time>2026-05-06T12:55:00.563Z</time></trkpt><trkpt lat="37.665345" lon="12.816085"><ele>132.66666666666666</ele><time>2026-05-06T12:55:01.563Z</time></trkpt><trkpt lat="37.6652333" lon="12.8159183"><ele>131.33333333333334</ele><time>2026-05-06T12:55:02.564Z</time></trkpt><trkpt lat="37.6651267" lon="12.815745"><ele>130.0</ele><time>2026-05-06T12:55:03.563Z</time></trkpt><trkpt lat="37.6650267" lon="12.8155633"><ele>130.0</ele><time>2026-05-06T12:55:04.566Z</time></trkpt><trkpt lat="37.6649333" lon="12.815375"><ele>130.0</ele><time>2026-05-06T12:55:05.564Z</time></trkpt><trkpt lat="37.6648517" lon="12.8151817"><ele>130.0</ele><time>2026-05-06T12:55:06.563Z</time></trkpt><trkpt lat="37.6647817" lon="12.81499"><ele>129.66666666666669</ele><time>2026-05-06T12:55:07.565Z</time></trkpt><trkpt lat="37.66473" lon="12.8147933"><ele>129.33333333333334</ele><time>2026-05-06T12:55:08.564Z</time></trkpt><trkpt lat="37.664705" lon="12.8145983"><ele>129.0</ele><time>2026-05-06T12:55:09.564Z</time></trkpt><trkpt lat="37.6647067" lon="12.8144083"><ele>129.25</ele><time>2026-05-06T12:55:10.563Z</time></trkpt><trkpt lat="37.664725" lon="12.8142283"><ele>129.5</ele><time>2026-05-06T12:55:11.563Z</time></trkpt><trkpt lat="37.6647567" lon="12.8140717"><ele>129.75</ele><time>2026-05-06T12:55:12.563Z</time></trkpt><trkpt lat="37.6647967" lon="12.8139433"><ele>130.0</ele><time>2026-05-06T12:55:13.565Z</time></trkpt><trkpt lat="37.6648367" lon="12.8138383"><ele>130.0</ele><time>2026-05-06T12:55:14.565Z</time></trkpt><trkpt lat="37.6648833" lon="12.8137433"><ele>130.0</ele><time>2026-05-06T12:55:15.564Z</time></trkpt><trkpt lat="37.6649367" lon="12.8136617"><ele>130.0</ele><time>2026-05-06T12:55:16.565Z</time></trkpt><trkpt lat="37.6649917" lon="12.8135833"><ele>130.0</ele><time>2026-05-06T12:55:17.564Z</time></trkpt><trkpt lat="37.6650483" lon="12.8135133"><ele>130.0</ele><time>2026-05-06T12:55:18.564Z</time></trkpt><trkpt lat="37.665105" lon="12.8134533"><ele>130.0</ele><time>2026-05-06T12:55:19.566Z</time></trkpt><trkpt lat="37.66516" lon="12.8134017"><ele>130.4</ele><time>2026-05-06T12:55:20.564Z</time></trkpt><trkpt lat="37.66524" lon="12.8133017"><ele>130.8</ele><time>2026-05-06T12:55:22.563Z</time></trkpt><trkpt lat="37.6652717" lon="12.8131867"><ele>131.2</ele><time>2026-05-06T12:55:24.563Z</time></trkpt><trkpt lat="37.6652283" lon="12.813035"><ele>131.6</ele><time>2026-05-06T12:55:26.565Z</time></trkpt><trkpt lat="37.6651617" lon="12.8129433"><ele>132.0</ele><time>2026-05-06T12:55:27.563Z</time></trkpt><trkpt lat="37.6650683" lon="12.81286"><ele>132.0</ele><time>2026-05-06T12:55:28.564Z</time></trkpt><trkpt lat="37.6649717" lon="12.8127783"><ele>132.0</ele><time>2026-05-06T12:55:29.564Z</time></trkpt><trkpt lat="37.6648683" lon="12.81269"><ele>132.0</ele><time>2026-05-06T12:55:30.564Z</time></trkpt><trkpt lat="37.66476" lon="12.8125967"><ele>132.0</ele><time>2026-05-06T12:55:31.564Z</time></trkpt><trkpt lat="37.6646467" lon="12.8125017"><ele>131.25</ele><time>2026-05-06T12:55:32.565Z</time></trkpt><trkpt lat="37.66453" lon="12.812405"><ele>130.5</ele><time>2026-05-06T12:55:33.563Z</time></trkpt><trkpt lat="37.6644117" lon="12.8123"><ele>129.75</ele><time>2026-05-06T12:55:34.563Z</time></trkpt><trkpt lat="37.6642983" lon="12.812185"><ele>129.0</ele><time>2026-05-06T12:55:35.564Z</time></trkpt><trkpt lat="37.6641883" lon="12.8120733"><ele>129.0</ele><time>2026-05-06T12:55:36.565Z</time></trkpt><trkpt lat="37.6640817" lon="12.81197"><ele>129.0</ele><time>2026-05-06T12:55:37.565Z</time></trkpt><trkpt lat="37.6639767" lon="12.811875"><ele>129.0</ele><time>2026-05-06T12:55:38.563Z</time></trkpt><trkpt lat="37.66387" lon="12.8117817"><ele>129.0</ele><time>2026-05-06T12:55:39.564Z</time></trkpt><trkpt lat="37.6637583" lon="12.8116833"><ele>128.75</ele><time>2026-05-06T12:55:40.564Z</time></trkpt><trkpt lat="37.6636433" lon="12.8115833"><ele>128.5</ele><time>2026-05-06T12:55:41.564Z</time></trkpt><trkpt lat="37.6635283" lon="12.8114817"><ele>128.25</ele><time>2026-05-06T12:55:42.564Z</time></trkpt><trkpt lat="37.6634117" lon="12.8113767"><ele>128.0</ele><time>2026-05-06T12:55:43.563Z</time></trkpt><trkpt lat="37.6632933" lon="12.81127"><ele>128.0</ele><time>2026-05-06T12:55:44.565Z</time></trkpt><trkpt lat="37.6631717" lon="12.8111617"><ele>128.0</ele><time>2026-05-06T12:55:45.564Z</time></trkpt><trkpt lat="37.663055" lon="12.8110583"><ele>128.0</ele><time>2026-05-06T12:55:46.564Z</time></trkpt><trkpt lat="37.662945" lon="12.8109583"><ele>128.0</ele><time>2026-05-06T12:55:47.564Z</time></trkpt><trkpt lat="37.662835" lon="12.8108633"><ele>127.5</ele><time>2026-05-06T12:55:48.564Z</time></trkpt><trkpt lat="37.6627267" lon="12.8107633"><ele>127.0</ele><time>2026-05-06T12:55:49.564Z</time></trkpt><trkpt lat="37.6626233" lon="12.81066"><ele>126.5</ele><time>2026-05-06T12:55:50.566Z</time></trkpt><trkpt lat="37.6625283" lon="12.8105733"><ele>126.0</ele><time>2026-05-06T12:55:51.563Z</time></trkpt><trkpt lat="37.6624417" lon="12.8105033"><ele>126.0</ele><time>2026-05-06T12:55:52.563Z</time></trkpt><trkpt lat="37.6623633" lon="12.8104433"><ele>126.0</ele><time>2026-05-06T12:55:53.565Z</time></trkpt><trkpt lat="37.6622933" lon="12.81039"><ele>126.0</ele><time>2026-05-06T12:55:54.564Z</time></trkpt><trkpt lat="37.662235" lon="12.8103417"><ele>126.0</ele><time>2026-05-06T12:55:55.564Z</time></trkpt><trkpt lat="37.66215" lon="12.8102533"><ele>126.0</ele><time>2026-05-06T12:55:57.564Z</time></trkpt><trkpt lat="37.662095" lon="12.81013"><ele>126.0</ele><time>2026-05-06T12:55:59.564Z</time></trkpt><trkpt lat="37.6620467" lon="12.8100083"><ele>126.0</ele><time>2026-05-06T12:56:01.564Z</time></trkpt><trkpt lat="37.6619783" lon="12.809935"><ele>126.0</ele><time>2026-05-06T12:56:03.563Z</time></trkpt><trkpt lat="37.6618917" lon="12.8099017"><ele>126.0</ele><time>2026-05-06T12:56:05.565Z</time></trkpt><trkpt lat="37.6618" lon="12.8099217"><ele>126.0</ele><time>2026-05-06T12:56:07.564Z</time></trkpt><trkpt lat="37.6617283" lon="12.8099933"><ele>126.0</ele><time>2026-05-06T12:56:09.564Z</time></trkpt><trkpt lat="37.6616817" lon="12.810085"><ele>126.0</ele><time>2026-05-06T12:56:11.565Z</time></trkpt><trkpt lat="37.661635" lon="12.8101933"><ele>126.0</ele><time>2026-05-06T12:56:13.564Z</time></trkpt><trkpt lat="37.6615967" lon="12.8102583"><ele>126.0</ele><time>2026-05-06T12:56:14.565Z</time></trkpt><trkpt lat="37.6615383" lon="12.8103217"><ele>126.0</ele><time>2026-05-06T12:56:15.563Z</time></trkpt><trkpt lat="37.661465" lon="12.81039"><ele>126.0</ele><time>2026-05-06T12:56:16.566Z</time></trkpt><trkpt lat="37.6613833" lon="12.810465"><ele>126.0</ele><time>2026-05-06T12:56:17.564Z</time></trkpt><trkpt lat="37.6612867" lon="12.8105467"><ele>126.0</ele><time>2026-05-06T12:56:18.564Z</time></trkpt><trkpt lat="37.6611833" lon="12.8106333"><ele>126.0</ele><time>2026-05-06T12:56:19.564Z</time></trkpt><trkpt lat="37.6610783" lon="12.8107267"><ele>126.0</ele><time>2026-05-06T12:56:20.564Z</time></trkpt><trkpt lat="37.6609717" lon="12.8108267"><ele>126.0</ele><time>2026-05-06T12:56:21.564Z</time></trkpt><trkpt lat="37.6608633" lon="12.81093"><ele>126.0</ele><time>2026-05-06T12:56:22.564Z</time></trkpt><trkpt lat="37.660755" lon="12.8110317"><ele>126.0</ele><time>2026-05-06T12:56:23.565Z</time></trkpt><trkpt lat="37.6606433" lon="12.8111367"><ele>126.0</ele><time>2026-05-06T12:56:24.563Z</time></trkpt><trkpt lat="37.6605317" lon="12.81124"><ele>126.33333333333334</ele><time>2026-05-06T12:56:25.564Z</time></trkpt><trkpt lat="37.6603867" lon="12.8113867"><ele>126.66666666666667</ele><time>2026-05-06T12:56:26.565Z</time></trkpt><trkpt lat="37.66025" lon="12.8115017"><ele>127.0</ele><time>2026-05-06T12:56:27.564Z</time></trkpt><trkpt lat="37.66013" lon="12.81161"><ele>126.5</ele><time>2026-05-06T12:56:28.565Z</time></trkpt><trkpt lat="37.6600133" lon="12.81171"><ele>126.0</ele><time>2026-05-06T12:56:29.564Z</time></trkpt><trkpt lat="37.6599033" lon="12.8118083"><ele>125.5</ele><time>2026-05-06T12:56:30.564Z</time></trkpt><trkpt lat="37.6597817" lon="12.8119033"><ele>125.0</ele><time>2026-05-06T12:56:31.564Z</time></trkpt><trkpt lat="37.659665" lon="12.8120017"><ele>125.0</ele><time>2026-05-06T12:56:32.564Z</time></trkpt><trkpt lat="37.659545" lon="12.8121083"><ele>125.0</ele><time>2026-05-06T12:56:33.563Z</time></trkpt><trkpt lat="37.6594267" lon="12.81223"><ele>125.0</ele><time>2026-05-06T12:56:34.564Z</time></trkpt><trkpt lat="37.6593167" lon="12.8123633"><ele>125.0</ele><time>2026-05-06T12:56:35.564Z</time></trkpt><trkpt lat="37.6592183" lon="12.8125183"><ele>125.0</ele><time>2026-05-06T12:56:36.564Z</time></trkpt><trkpt lat="37.6591317" lon="12.812685"><ele>125.0</ele><time>2026-05-06T12:56:37.564Z</time></trkpt><trkpt lat="37.65905" lon="12.8128683"><ele>125.0</ele><time>2026-05-06T12:56:38.564Z</time></trkpt><trkpt lat="37.6589683" lon="12.81306"><ele>125.0</ele><time>2026-05-06T12:56:39.564Z</time></trkpt><trkpt lat="37.65889" lon="12.81326"><ele>125.0</ele><time>2026-05-06T12:56:40.563Z</time></trkpt><trkpt lat="37.6588117" lon="12.81347"><ele>124.66666666666666</ele><time>2026-05-06T12:56:41.564Z</time></trkpt><trkpt lat="37.6587267" lon="12.8136917"><ele>124.33333333333334</ele><time>2026-05-06T12:56:42.563Z</time></trkpt><trkpt lat="37.658635" lon="12.813925"><ele>124.0</ele><time>2026-05-06T12:56:43.564Z</time></trkpt><trkpt lat="37.658545" lon="12.8141667"><ele>124.0</ele><time>2026-05-06T12:56:44.565Z</time></trkpt><trkpt lat="37.65846" lon="12.8144017"><ele>124.0</ele><time>2026-05-06T12:56:45.563Z</time></trkpt><trkpt lat="37.6583817" lon="12.8146217"><ele>124.0</ele><time>2026-05-06T12:56:46.563Z</time></trkpt><trkpt lat="37.658305" lon="12.8148317"><ele>124.0</ele><time>2026-05-06T12:56:47.563Z</time></trkpt><trkpt lat="37.65823" lon="12.8150333"><ele>124.0</ele><time>2026-05-06T12:56:48.564Z</time></trkpt><trkpt lat="37.658155" lon="12.815235"><ele>124.0</ele><time>2026-05-06T12:56:49.563Z</time></trkpt><trkpt lat="37.6580783" lon="12.8154383"><ele>123.0</ele><time>2026-05-06T12:56:50.566Z</time></trkpt><trkpt lat="37.658" lon="12.8156467"><ele>122.0</ele><time>2026-05-06T12:56:51.564Z</time></trkpt><trkpt lat="37.65792" lon="12.8158567"><ele>121.0</ele><time>2026-05-06T12:56:52.565Z</time></trkpt><trkpt lat="37.6578367" lon="12.81607"><ele>119.33333333333334</ele><time>2026-05-06T12:56:53.564Z</time></trkpt><trkpt lat="37.6577567" lon="12.8162833"><ele>117.66666666666666</ele><time>2026-05-06T12:56:54.563Z</time></trkpt><trkpt lat="37.65768" lon="12.8164883"><ele>116.0</ele><time>2026-05-06T12:56:55.564Z</time></trkpt><trkpt lat="37.657605" lon="12.8166917"><ele>115.66666666666666</ele><time>2026-05-06T12:56:56.565Z</time></trkpt><trkpt lat="37.6575283" lon="12.816895"><ele>115.33333333333334</ele><time>2026-05-06T12:56:57.564Z</time></trkpt><trkpt lat="37.65745" lon="12.8171033"><ele>115.0</ele><time>2026-05-06T12:56:58.565Z</time></trkpt><trkpt lat="37.6573717" lon="12.817315"><ele>115.0</ele><time>2026-05-06T12:56:59.564Z</time></trkpt><trkpt lat="37.65729" lon="12.8175267"><ele>115.0</ele><time>2026-05-06T12:57:00.564Z</time></trkpt><trkpt lat="37.6572067" lon="12.817745"><ele>115.0</ele><time>2026-05-06T12:57:01.564Z</time></trkpt><trkpt lat="37.6571233" lon="12.817965"><ele>114.33333333333334</ele><time>2026-05-06T12:57:02.564Z</time></trkpt><trkpt lat="37.65704" lon="12.818185"><ele>113.66666666666666</ele><time>2026-05-06T12:57:03.564Z</time></trkpt><trkpt lat="37.656955" lon="12.818405"><ele>113.0</ele><time>2026-05-06T12:57:04.564Z</time></trkpt><trkpt lat="37.6568717" lon="12.818625"><ele>113.0</ele><time>2026-05-06T12:57:05.564Z</time></trkpt><trkpt lat="37.6567883" lon="12.8188433"><ele>113.0</ele><time>2026-05-06T12:57:06.564Z</time></trkpt><trkpt lat="37.6567067" lon="12.819065"><ele>113.0</ele><time>2026-05-06T12:57:07.565Z</time></trkpt><trkpt lat="37.6566267" lon="12.8192867"><ele>111.33333333333333</ele><time>2026-05-06T12:57:08.564Z</time></trkpt><trkpt lat="37.6565483" lon="12.819505"><ele>109.66666666666666</ele><time>2026-05-06T12:57:09.564Z</time></trkpt><trkpt lat="37.6564717" lon="12.819715"><ele>108.0</ele><time>2026-05-06T12:57:10.563Z</time></trkpt><trkpt lat="37.6563983" lon="12.8199133"><ele>108.0</ele><time>2026-05-06T12:57:11.565Z</time></trkpt><trkpt lat="37.65633" lon="12.820105"><ele>108.0</ele><time>2026-05-06T12:57:12.564Z</time></trkpt><trkpt lat="37.65626" lon="12.8202983"><ele>108.0</ele><time>2026-05-06T12:57:13.564Z</time></trkpt><trkpt lat="37.6561867" lon="12.8204917"><ele>109.33333333333334</ele><time>2026-05-06T12:57:14.565Z</time></trkpt><trkpt lat="37.6561133" lon="12.8206817"><ele>110.66666666666667</ele><time>2026-05-06T12:57:15.563Z</time></trkpt><trkpt lat="37.6560433" lon="12.820865"><ele>112.0</ele><time>2026-05-06T12:57:16.563Z</time></trkpt><trkpt lat="37.6559717" lon="12.8210467"><ele>112.66666666666667</ele><time>2026-05-06T12:57:17.563Z</time></trkpt><trkpt lat="37.6558983" lon="12.82123"><ele>113.33333333333334</ele><time>2026-05-06T12:57:18.564Z</time></trkpt><trkpt lat="37.6558117" lon="12.82141"><ele>114.0</ele><time>2026-05-06T12:57:19.563Z</time></trkpt><trkpt lat="37.6557183" lon="12.8215933"><ele>114.0</ele><time>2026-05-06T12:57:20.565Z</time></trkpt><trkpt lat="37.6556233" lon="12.8217783"><ele>114.0</ele><time>2026-05-06T12:57:21.565Z</time></trkpt><trkpt lat="37.6555217" lon="12.821965"><ele>114.0</ele><time>2026-05-06T12:57:22.564Z</time></trkpt><trkpt lat="37.6554083" lon="12.82215"><ele>113.33333333333334</ele><time>2026-05-06T12:57:23.563Z</time></trkpt><trkpt lat="37.6552883" lon="12.8223333"><ele>112.66666666666667</ele><time>2026-05-06T12:57:24.564Z</time></trkpt><trkpt lat="37.65516" lon="12.822515"><ele>112.0</ele><time>2026-05-06T12:57:25.563Z</time></trkpt><trkpt lat="37.6550217" lon="12.8226917"><ele>113.33333333333334</ele><time>2026-05-06T12:57:26.565Z</time></trkpt><trkpt lat="37.6548717" lon="12.8228667"><ele>114.66666666666666</ele><time>2026-05-06T12:57:27.564Z</time></trkpt><trkpt lat="37.6547133" lon="12.8230367"><ele>116.0</ele><time>2026-05-06T12:57:28.564Z</time></trkpt><trkpt lat="37.654555" lon="12.82319"><ele>116.0</ele><time>2026-05-06T12:57:29.564Z</time></trkpt><trkpt lat="37.6544033" lon="12.8233283"><ele>116.0</ele><time>2026-05-06T12:57:30.565Z</time></trkpt><trkpt lat="37.6542517" lon="12.8234533"><ele>116.0</ele><time>2026-05-06T12:57:31.563Z</time></trkpt><trkpt lat="37.6540967" lon="12.8235667"><ele>116.0</ele><time>2026-05-06T12:57:32.564Z</time></trkpt><trkpt lat="37.653935" lon="12.8236733"><ele>116.0</ele><time>2026-05-06T12:57:33.563Z</time></trkpt><trkpt lat="37.6537717" lon="12.823775"><ele>116.0</ele><time>2026-05-06T12:57:34.563Z</time></trkpt><trkpt lat="37.6536133" lon="12.8238633"><ele>114.66666666666666</ele><time>2026-05-06T12:57:35.563Z</time></trkpt><trkpt lat="37.6534633" lon="12.8239417"><ele>113.33333333333334</ele><time>2026-05-06T12:57:36.564Z</time></trkpt><trkpt lat="37.6533217" lon="12.8240133"><ele>112.0</ele><time>2026-05-06T12:57:37.564Z</time></trkpt><trkpt lat="37.653185" lon="12.8240767"><ele>112.0</ele><time>2026-05-06T12:57:38.564Z</time></trkpt><trkpt lat="37.6530467" lon="12.8241367"><ele>112.0</ele><time>2026-05-06T12:57:39.564Z</time></trkpt><trkpt lat="37.6529067" lon="12.8241933"><ele>112.0</ele><time>2026-05-06T12:57:40.565Z</time></trkpt><trkpt lat="37.6527617" lon="12.8242433"><ele>112.0</ele><time>2026-05-06T12:57:41.564Z</time></trkpt><trkpt lat="37.65261" lon="12.8242883"><ele>112.66666666666667</ele><time>2026-05-06T12:57:42.564Z</time></trkpt><trkpt lat="37.6524583" lon="12.8243367"><ele>113.33333333333334</ele><time>2026-05-06T12:57:43.564Z</time></trkpt><trkpt lat="37.652305" lon="12.8243933"><ele>114.0</ele><time>2026-05-06T12:57:44.564Z</time></trkpt><trkpt lat="37.65215" lon="12.824455"><ele>114.0</ele><time>2026-05-06T12:57:45.564Z</time></trkpt><trkpt lat="37.65199" lon="12.8245183"><ele>114.0</ele><time>2026-05-06T12:57:46.563Z</time></trkpt><trkpt lat="37.6518317" lon="12.8245833"><ele>114.0</ele><time>2026-05-06T12:57:47.564Z</time></trkpt><trkpt lat="37.6516767" lon="12.824645"><ele>113.33333333333334</ele><time>2026-05-06T12:57:48.565Z</time></trkpt><trkpt lat="37.651525" lon="12.8247033"><ele>112.66666666666667</ele><time>2026-05-06T12:57:49.564Z</time></trkpt><trkpt lat="37.6513733" lon="12.8247617"><ele>112.0</ele><time>2026-05-06T12:57:50.565Z</time></trkpt><trkpt lat="37.6512217" lon="12.8248217"><ele>112.0</ele><time>2026-05-06T12:57:51.564Z</time></trkpt><trkpt lat="37.6510733" lon="12.8248733"><ele>112.0</ele><time>2026-05-06T12:57:52.565Z</time></trkpt><trkpt lat="37.65093" lon="12.8249117"><ele>112.0</ele><time>2026-05-06T12:57:53.565Z</time></trkpt><trkpt lat="37.65079" lon="12.824935"><ele>112.0</ele><time>2026-05-06T12:57:54.563Z</time></trkpt><trkpt lat="37.6506483" lon="12.8249383"><ele>112.0</ele><time>2026-05-06T12:57:55.564Z</time></trkpt><trkpt lat="37.6505017" lon="12.8249233"><ele>112.0</ele><time>2026-05-06T12:57:56.564Z</time></trkpt><trkpt lat="37.6503483" lon="12.8249017"><ele>112.0</ele><time>2026-05-06T12:57:57.565Z</time></trkpt><trkpt lat="37.6501883" lon="12.8248783"><ele>113.0</ele><time>2026-05-06T12:57:58.565Z</time></trkpt><trkpt lat="37.6500267" lon="12.8248533"><ele>114.0</ele><time>2026-05-06T12:57:59.564Z</time></trkpt><trkpt lat="37.6498617" lon="12.8248283"><ele>115.0</ele><time>2026-05-06T12:58:00.564Z</time></trkpt><trkpt lat="37.6496967" lon="12.8248083"><ele>115.0</ele><time>2026-05-06T12:58:01.564Z</time></trkpt><trkpt lat="37.6495283" lon="12.8248"><ele>115.0</ele><time>2026-05-06T12:58:02.564Z</time></trkpt><trkpt lat="37.649365" lon="12.8248233"><ele>115.0</ele><time>2026-05-06T12:58:03.563Z</time></trkpt><trkpt lat="37.6492133" lon="12.824885"><ele>113.66666666666667</ele><time>2026-05-06T12:58:04.564Z</time></trkpt><trkpt lat="37.6490817" lon="12.8249767"><ele>112.33333333333334</ele><time>2026-05-06T12:58:05.564Z</time></trkpt><trkpt lat="37.648965" lon="12.825095"><ele>111.0</ele><time>2026-05-06T12:58:06.564Z</time></trkpt><trkpt lat="37.6488617" lon="12.8252317"><ele>111.0</ele><time>2026-05-06T12:58:07.563Z</time></trkpt><trkpt lat="37.64877" lon="12.825385"><ele>111.0</ele><time>2026-05-06T12:58:08.564Z</time></trkpt><trkpt lat="37.6486833" lon="12.825555"><ele>111.0</ele><time>2026-05-06T12:58:09.564Z</time></trkpt><trkpt lat="37.648605" lon="12.8257333"><ele>111.0</ele><time>2026-05-06T12:58:10.564Z</time></trkpt><trkpt lat="37.6485267" lon="12.8259217"><ele>111.0</ele><time>2026-05-06T12:58:11.564Z</time></trkpt><trkpt lat="37.648445" lon="12.8261183"><ele>111.0</ele><time>2026-05-06T12:58:12.563Z</time></trkpt><trkpt lat="37.6483567" lon="12.82632"><ele>111.0</ele><time>2026-05-06T12:58:13.564Z</time></trkpt><trkpt lat="37.6482667" lon="12.82653"><ele>111.0</ele><time>2026-05-06T12:58:14.564Z</time></trkpt><trkpt lat="37.6481717" lon="12.82675"><ele>111.0</ele><time>2026-05-06T12:58:15.564Z</time></trkpt><trkpt lat="37.6480717" lon="12.82698"><ele>111.0</ele><time>2026-05-06T12:58:16.564Z</time></trkpt><trkpt lat="37.6479733" lon="12.82722"><ele>111.0</ele><time>2026-05-06T12:58:17.565Z</time></trkpt><trkpt lat="37.647875" lon="12.8274533"><ele>111.0</ele><time>2026-05-06T12:58:18.565Z</time></trkpt><trkpt lat="37.647775" lon="12.8276833"><ele>111.0</ele><time>2026-05-06T12:58:19.564Z</time></trkpt><trkpt lat="37.6476767" lon="12.8279167"><ele>111.0</ele><time>2026-05-06T12:58:20.564Z</time></trkpt><trkpt lat="37.6475767" lon="12.8281533"><ele>111.0</ele><time>2026-05-06T12:58:21.563Z</time></trkpt><trkpt lat="37.6474767" lon="12.8283917"><ele>110.66666666666666</ele><time>2026-05-06T12:58:22.563Z</time></trkpt><trkpt lat="37.6473733" lon="12.8286333"><ele>110.33333333333333</ele><time>2026-05-06T12:58:23.566Z</time></trkpt><trkpt lat="37.6472717" lon="12.8288783"><ele>110.0</ele><time>2026-05-06T12:58:24.564Z</time></trkpt><trkpt lat="37.6471683" lon="12.829125"><ele>111.0</ele><time>2026-05-06T12:58:25.563Z</time></trkpt><trkpt lat="37.6470617" lon="12.8293733"><ele>112.0</ele><time>2026-05-06T12:58:26.564Z</time></trkpt><trkpt lat="37.6469567" lon="12.8296267"><ele>112.33333333333334</ele><time>2026-05-06T12:58:27.564Z</time></trkpt><trkpt lat="37.6468517" lon="12.8298767"><ele>112.66666666666666</ele><time>2026-05-06T12:58:28.563Z</time></trkpt><trkpt lat="37.64675" lon="12.830115"><ele>113.0</ele><time>2026-05-06T12:58:29.564Z</time></trkpt><trkpt lat="37.64665" lon="12.8303483"><ele>113.0</ele><time>2026-05-06T12:58:30.564Z</time></trkpt><trkpt lat="37.6465533" lon="12.8305783"><ele>113.0</ele><time>2026-05-06T12:58:31.565Z</time></trkpt><trkpt lat="37.6464567" lon="12.8308083"><ele>113.0</ele><time>2026-05-06T12:58:32.564Z</time></trkpt><trkpt lat="37.64636" lon="12.8310333"><ele>113.0</ele><time>2026-05-06T12:58:33.563Z</time></trkpt><trkpt lat="37.6462633" lon="12.8312583"><ele>113.0</ele><time>2026-05-06T12:58:34.564Z</time></trkpt><trkpt lat="37.64617" lon="12.831485"><ele>113.0</ele><time>2026-05-06T12:58:35.564Z</time></trkpt><trkpt lat="37.6460767" lon="12.8317117"><ele>112.66666666666666</ele><time>2026-05-06T12:58:36.564Z</time></trkpt><trkpt lat="37.6459817" lon="12.8319417"><ele>112.33333333333334</ele><time>2026-05-06T12:58:37.563Z</time></trkpt><trkpt lat="37.6458867" lon="12.8321717"><ele>112.0</ele><time>2026-05-06T12:58:38.564Z</time></trkpt><trkpt lat="37.64579" lon="12.8323983"><ele>112.0</ele><time>2026-05-06T12:58:39.564Z</time></trkpt><trkpt lat="37.6456933" lon="12.832625"><ele>112.0</ele><time>2026-05-06T12:58:40.565Z</time></trkpt><trkpt lat="37.6455983" lon="12.8328517"><ele>112.0</ele><time>2026-05-06T12:58:41.564Z</time></trkpt><trkpt lat="37.645505" lon="12.83308"><ele>112.33333333333334</ele><time>2026-05-06T12:58:42.564Z</time></trkpt><trkpt lat="37.6454133" lon="12.8333083"><ele>112.66666666666666</ele><time>2026-05-06T12:58:43.564Z</time></trkpt><trkpt lat="37.6453217" lon="12.833535"><ele>113.0</ele><time>2026-05-06T12:58:44.564Z</time></trkpt><trkpt lat="37.64523" lon="12.8337583"><ele>113.66666666666666</ele><time>2026-05-06T12:58:45.564Z</time></trkpt><trkpt lat="37.64514" lon="12.8339817"><ele>114.33333333333334</ele><time>2026-05-06T12:58:46.563Z</time></trkpt><trkpt lat="37.6450533" lon="12.8342067"><ele>115.0</ele><time>2026-05-06T12:58:47.565Z</time></trkpt><trkpt lat="37.6449667" lon="12.8344333"><ele>115.0</ele><time>2026-05-06T12:58:48.565Z</time></trkpt><trkpt lat="37.644885" lon="12.8346617"><ele>115.0</ele><time>2026-05-06T12:58:49.564Z</time></trkpt><trkpt lat="37.6448067" lon="12.834895"><ele>115.0</ele><time>2026-05-06T12:58:50.565Z</time></trkpt><trkpt lat="37.6447267" lon="12.83513"><ele>115.0</ele><time>2026-05-06T12:58:51.564Z</time></trkpt><trkpt lat="37.6446483" lon="12.8353617"><ele>115.0</ele><time>2026-05-06T12:58:52.564Z</time></trkpt><trkpt lat="37.6445733" lon="12.83558"><ele>115.0</ele><time>2026-05-06T12:58:53.564Z</time></trkpt><trkpt lat="37.6445033" lon="12.8357967"><ele>116.0</ele><time>2026-05-06T12:58:54.564Z</time></trkpt><trkpt lat="37.6444367" lon="12.836015"><ele>117.0</ele><time>2026-05-06T12:58:55.565Z</time></trkpt><trkpt lat="37.64437" lon="12.8362333"><ele>118.0</ele><time>2026-05-06T12:58:56.565Z</time></trkpt><trkpt lat="37.6443033" lon="12.8364533"><ele>118.0</ele><time>2026-05-06T12:58:57.563Z</time></trkpt><trkpt lat="37.6442383" lon="12.8366783"><ele>118.0</ele><time>2026-05-06T12:58:58.564Z</time></trkpt><trkpt lat="37.6441733" lon="12.8369067"><ele>118.0</ele><time>2026-05-06T12:58:59.563Z</time></trkpt><trkpt lat="37.64411" lon="12.83714"><ele>118.0</ele><time>2026-05-06T12:59:00.564Z</time></trkpt><trkpt lat="37.6440467" lon="12.8373767"><ele>118.0</ele><time>2026-05-06T12:59:01.564Z</time></trkpt><trkpt lat="37.6439833" lon="12.8376167"><ele>118.0</ele><time>2026-05-06T12:59:02.565Z</time></trkpt><trkpt lat="37.6439183" lon="12.83786"><ele>118.0</ele><time>2026-05-06T12:59:03.564Z</time></trkpt><trkpt lat="37.64385" lon="12.838105"><ele>118.0</ele><time>2026-05-06T12:59:04.565Z</time></trkpt><trkpt lat="37.6437833" lon="12.83834"><ele>118.0</ele><time>2026-05-06T12:59:05.562Z</time></trkpt><trkpt lat="37.64372" lon="12.8385633"><ele>117.66666666666667</ele><time>2026-05-06T12:59:06.564Z</time></trkpt><trkpt lat="37.6436583" lon="12.838785"><ele>117.33333333333334</ele><time>2026-05-06T12:59:07.564Z</time></trkpt><trkpt lat="37.6436" lon="12.8390083"><ele>117.0</ele><time>2026-05-06T12:59:08.565Z</time></trkpt><trkpt lat="37.6435367" lon="12.839235"><ele>118.0</ele><time>2026-05-06T12:59:09.564Z</time></trkpt><trkpt lat="37.643475" lon="12.8394667"><ele>119.0</ele><time>2026-05-06T12:59:10.565Z</time></trkpt><trkpt lat="37.64341" lon="12.8397"><ele>120.0</ele><time>2026-05-06T12:59:11.564Z</time></trkpt><trkpt lat="37.6433433" lon="12.8399367"><ele>119.66666666666666</ele><time>2026-05-06T12:59:12.564Z</time></trkpt><trkpt lat="37.643275" lon="12.840175"><ele>119.33333333333333</ele><time>2026-05-06T12:59:13.564Z</time></trkpt><trkpt lat="37.64321" lon="12.8404133"><ele>119.0</ele><time>2026-05-06T12:59:14.564Z</time></trkpt><trkpt lat="37.6431467" lon="12.8406533"><ele>119.0</ele><time>2026-05-06T12:59:15.564Z</time></trkpt><trkpt lat="37.64308" lon="12.8408917"><ele>119.0</ele><time>2026-05-06T12:59:16.563Z</time></trkpt><trkpt lat="37.6430133" lon="12.84113"><ele>119.0</ele><time>2026-05-06T12:59:17.565Z</time></trkpt><trkpt lat="37.6429483" lon="12.84137"><ele>118.33333333333333</ele><time>2026-05-06T12:59:18.564Z</time></trkpt><trkpt lat="37.6428817" lon="12.8416133"><ele>117.66666666666666</ele><time>2026-05-06T12:59:19.563Z</time></trkpt><trkpt lat="37.6428167" lon="12.841855"><ele>117.0</ele><time>2026-05-06T12:59:20.565Z</time></trkpt><trkpt lat="37.6427483" lon="12.8420983"><ele>117.0</ele><time>2026-05-06T12:59:21.563Z</time></trkpt><trkpt lat="37.6426833" lon="12.8423433"><ele>117.0</ele><time>2026-05-06T12:59:22.565Z</time></trkpt><trkpt lat="37.6426167" lon="12.84259"><ele>117.0</ele><time>2026-05-06T12:59:23.565Z</time></trkpt><trkpt lat="37.64255" lon="12.8428367"><ele>117.33333333333334</ele><time>2026-05-06T12:59:24.565Z</time></trkpt><trkpt lat="37.6424817" lon="12.8430817"><ele>117.66666666666667</ele><time>2026-05-06T12:59:25.564Z</time></trkpt><trkpt lat="37.642415" lon="12.8433317"><ele>118.0</ele><time>2026-05-06T12:59:26.564Z</time></trkpt><trkpt lat="37.6423433" lon="12.8435833"><ele>118.0</ele><time>2026-05-06T12:59:27.564Z</time></trkpt><trkpt lat="37.642275" lon="12.8438317"><ele>118.0</ele><time>2026-05-06T12:59:28.565Z</time></trkpt><trkpt lat="37.6422083" lon="12.84407"><ele>118.0</ele><time>2026-05-06T12:59:29.564Z</time></trkpt><trkpt lat="37.642145" lon="12.8443033"><ele>117.66666666666667</ele><time>2026-05-06T12:59:30.564Z</time></trkpt><trkpt lat="37.6420833" lon="12.8445367"><ele>117.33333333333334</ele><time>2026-05-06T12:59:31.564Z</time></trkpt><trkpt lat="37.6420183" lon="12.8447717"><ele>117.0</ele><time>2026-05-06T12:59:32.564Z</time></trkpt><trkpt lat="37.64195" lon="12.84501"><ele>117.0</ele><time>2026-05-06T12:59:33.564Z</time></trkpt><trkpt lat="37.641885" lon="12.8452517"><ele>117.0</ele><time>2026-05-06T12:59:34.565Z</time></trkpt><trkpt lat="37.64182" lon="12.8454983"><ele>117.0</ele><time>2026-05-06T12:59:35.565Z</time></trkpt><trkpt lat="37.6417517" lon="12.8457467"><ele>117.0</ele><time>2026-05-06T12:59:36.564Z</time></trkpt><trkpt lat="37.6416833" lon="12.845995"><ele>117.0</ele><time>2026-05-06T12:59:37.564Z</time></trkpt><trkpt lat="37.6416133" lon="12.8462483"><ele>117.0</ele><time>2026-05-06T12:59:38.564Z</time></trkpt><trkpt lat="37.6415417" lon="12.8465"><ele>117.0</ele><time>2026-05-06T12:59:39.563Z</time></trkpt><trkpt lat="37.6414717" lon="12.8467533"><ele>117.0</ele><time>2026-05-06T12:59:40.563Z</time></trkpt><trkpt lat="37.6414" lon="12.84701"><ele>117.0</ele><time>2026-05-06T12:59:41.565Z</time></trkpt><trkpt lat="37.6413283" lon="12.8472667"><ele>117.0</ele><time>2026-05-06T12:59:42.564Z</time></trkpt><trkpt lat="37.6412567" lon="12.847525"><ele>117.0</ele><time>2026-05-06T12:59:43.565Z</time></trkpt><trkpt lat="37.641185" lon="12.8477817"><ele>117.0</ele><time>2026-05-06T12:59:44.565Z</time></trkpt><trkpt lat="37.641115" lon="12.8480417"><ele>117.0</ele><time>2026-05-06T12:59:45.564Z</time></trkpt><trkpt lat="37.6410433" lon="12.8483"><ele>117.0</ele><time>2026-05-06T12:59:46.564Z</time></trkpt><trkpt lat="37.6409717" lon="12.84856"><ele>117.0</ele><time>2026-05-06T12:59:47.566Z</time></trkpt><trkpt lat="37.6409" lon="12.8488217"><ele>117.0</ele><time>2026-05-06T12:59:48.564Z</time></trkpt><trkpt lat="37.64083" lon="12.849085"><ele>117.0</ele><time>2026-05-06T12:59:49.566Z</time></trkpt><trkpt lat="37.6407583" lon="12.8493467"><ele>117.0</ele><time>2026-05-06T12:59:50.567Z</time></trkpt><trkpt lat="37.640685" lon="12.8496067"><ele>117.0</ele><time>2026-05-06T12:59:51.565Z</time></trkpt><trkpt lat="37.640615" lon="12.849865"><ele>117.0</ele><time>2026-05-06T12:59:52.565Z</time></trkpt><trkpt lat="37.6405467" lon="12.8501133"><ele>117.0</ele><time>2026-05-06T12:59:53.566Z</time></trkpt><trkpt lat="37.6404833" lon="12.8503517"><ele>117.0</ele><time>2026-05-06T12:59:54.564Z</time></trkpt><trkpt lat="37.6404183" lon="12.85058"><ele>117.0</ele><time>2026-05-06T12:59:55.565Z</time></trkpt><trkpt lat="37.640355" lon="12.85081"><ele>117.0</ele><time>2026-05-06T12:59:56.565Z</time></trkpt><trkpt lat="37.6402883" lon="12.8510433"><ele>116.33333333333334</ele><time>2026-05-06T12:59:57.565Z</time></trkpt><trkpt lat="37.640225" lon="12.85128"><ele>115.66666666666667</ele><time>2026-05-06T12:59:58.565Z</time></trkpt><trkpt lat="37.64016" lon="12.8515233"><ele>115.0</ele><time>2026-05-06T12:59:59.565Z</time></trkpt><trkpt lat="37.6400917" lon="12.8517683"><ele>115.33333333333334</ele><time>2026-05-06T13:00:00.565Z</time></trkpt><trkpt lat="37.6400217" lon="12.85202"><ele>115.66666666666666</ele><time>2026-05-06T13:00:01.564Z</time></trkpt><trkpt lat="37.63995" lon="12.8522717"><ele>116.0</ele><time>2026-05-06T13:00:02.564Z</time></trkpt><trkpt lat="37.63988" lon="12.8525283"><ele>116.0</ele><time>2026-05-06T13:00:03.564Z</time></trkpt><trkpt lat="37.6398083" lon="12.852785"><ele>116.0</ele><time>2026-05-06T13:00:04.565Z</time></trkpt><trkpt lat="37.63974" lon="12.8530417"><ele>116.0</ele><time>2026-05-06T13:00:05.565Z</time></trkpt><trkpt lat="37.63967" lon="12.8532983"><ele>116.33333333333333</ele><time>2026-05-06T13:00:06.565Z</time></trkpt><trkpt lat="37.6396" lon="12.8535533"><ele>116.66666666666666</ele><time>2026-05-06T13:00:07.565Z</time></trkpt><trkpt lat="37.63953" lon="12.853805"><ele>117.0</ele><time>2026-05-06T13:00:08.565Z</time></trkpt><trkpt lat="37.63946" lon="12.8540567"><ele>116.66666666666666</ele><time>2026-05-06T13:00:09.565Z</time></trkpt><trkpt lat="37.63939" lon="12.8543083"><ele>116.33333333333333</ele><time>2026-05-06T13:00:10.566Z</time></trkpt><trkpt lat="37.63932" lon="12.8545583"><ele>116.0</ele><time>2026-05-06T13:00:11.565Z</time></trkpt><trkpt lat="37.63925" lon="12.8548083"><ele>116.0</ele><time>2026-05-06T13:00:12.565Z</time></trkpt><trkpt lat="37.6391817" lon="12.8550567"><ele>116.0</ele><time>2026-05-06T13:00:13.565Z</time></trkpt><trkpt lat="37.6391133" lon="12.8553083"><ele>116.0</ele><time>2026-05-06T13:00:14.566Z</time></trkpt><trkpt lat="37.6390433" lon="12.8555583"><ele>116.0</ele><time>2026-05-06T13:00:15.565Z</time></trkpt><trkpt lat="37.6389733" lon="12.8558"><ele>116.0</ele><time>2026-05-06T13:00:16.565Z</time></trkpt><trkpt lat="37.63891" lon="12.8560317"><ele>116.0</ele><time>2026-05-06T13:00:17.566Z</time></trkpt><trkpt lat="37.6388467" lon="12.8562617"><ele>116.0</ele><time>2026-05-06T13:00:18.565Z</time></trkpt><trkpt lat="37.6387867" lon="12.8564917"><ele>116.0</ele><time>2026-05-06T13:00:19.566Z</time></trkpt><trkpt lat="37.638725" lon="12.8567233"><ele>116.0</ele><time>2026-05-06T13:00:20.565Z</time></trkpt><trkpt lat="37.6386617" lon="12.8569567"><ele>116.33333333333333</ele><time>2026-05-06T13:00:21.567Z</time></trkpt><trkpt lat="37.638595" lon="12.8571917"><ele>116.66666666666666</ele><time>2026-05-06T13:00:22.566Z</time></trkpt><trkpt lat="37.6385283" lon="12.85743"><ele>117.0</ele><time>2026-05-06T13:00:23.565Z</time></trkpt><trkpt lat="37.63846" lon="12.85767"><ele>117.33333333333334</ele><time>2026-05-06T13:00:24.565Z</time></trkpt><trkpt lat="37.6383933" lon="12.8579117"><ele>117.66666666666667</ele><time>2026-05-06T13:00:25.565Z</time></trkpt><trkpt lat="37.6383267" lon="12.858155"><ele>118.0</ele><time>2026-05-06T13:00:26.566Z</time></trkpt><trkpt lat="37.63826" lon="12.8584"><ele>117.66666666666667</ele><time>2026-05-06T13:00:27.565Z</time></trkpt><trkpt lat="37.6381933" lon="12.8586483"><ele>117.33333333333334</ele><time>2026-05-06T13:00:28.565Z</time></trkpt><trkpt lat="37.638125" lon="12.8588967"><ele>117.0</ele><time>2026-05-06T13:00:29.565Z</time></trkpt><trkpt lat="37.6380567" lon="12.8591467"><ele>117.33333333333334</ele><time>2026-05-06T13:00:30.565Z</time></trkpt><trkpt lat="37.6379883" lon="12.8593983"><ele>117.66666666666667</ele><time>2026-05-06T13:00:31.566Z</time></trkpt><trkpt lat="37.6379167" lon="12.85965"><ele>118.0</ele><time>2026-05-06T13:00:32.565Z</time></trkpt><trkpt lat="37.637845" lon="12.8599033"><ele>118.0</ele><time>2026-05-06T13:00:33.564Z</time></trkpt><trkpt lat="37.637775" lon="12.8601583"><ele>118.0</ele><time>2026-05-06T13:00:34.564Z</time></trkpt><trkpt lat="37.637705" lon="12.860415"><ele>118.0</ele><time>2026-05-06T13:00:35.566Z</time></trkpt><trkpt lat="37.637635" lon="12.8606733"><ele>118.0</ele><time>2026-05-06T13:00:36.564Z</time></trkpt><trkpt lat="37.637565" lon="12.8609317"><ele>118.0</ele><time>2026-05-06T13:00:37.565Z</time></trkpt><trkpt lat="37.6374917" lon="12.8611917"><ele>118.0</ele><time>2026-05-06T13:00:38.565Z</time></trkpt><trkpt lat="37.6374217" lon="12.86145"><ele>118.33333333333334</ele><time>2026-05-06T13:00:39.565Z</time></trkpt><trkpt lat="37.6373517" lon="12.86171"><ele>118.66666666666666</ele><time>2026-05-06T13:00:40.564Z</time></trkpt><trkpt lat="37.63728" lon="12.8619683"><ele>119.0</ele><time>2026-05-06T13:00:41.565Z</time></trkpt><trkpt lat="37.637205" lon="12.8622283"><ele>119.0</ele><time>2026-05-06T13:00:42.564Z</time></trkpt><trkpt lat="37.63713" lon="12.8624883"><ele>119.0</ele><time>2026-05-06T13:00:43.564Z</time></trkpt><trkpt lat="37.6370567" lon="12.86275"><ele>119.0</ele><time>2026-05-06T13:00:44.565Z</time></trkpt><trkpt lat="37.6369833" lon="12.8630117"><ele>119.0</ele><time>2026-05-06T13:00:45.564Z</time></trkpt><trkpt lat="37.6369117" lon="12.863275"><ele>119.0</ele><time>2026-05-06T13:00:46.565Z</time></trkpt><trkpt lat="37.6368383" lon="12.8635383"><ele>119.0</ele><time>2026-05-06T13:00:47.565Z</time></trkpt><trkpt lat="37.6367683" lon="12.863805"><ele>119.0</ele><time>2026-05-06T13:00:48.564Z</time></trkpt><trkpt lat="37.6366967" lon="12.8640717"><ele>119.0</ele><time>2026-05-06T13:00:49.566Z</time></trkpt><trkpt lat="37.6366233" lon="12.8643367"><ele>119.0</ele><time>2026-05-06T13:00:50.566Z</time></trkpt><trkpt lat="37.63655" lon="12.8646033"><ele>119.0</ele><time>2026-05-06T13:00:51.566Z</time></trkpt><trkpt lat="37.6364767" lon="12.86487"><ele>119.0</ele><time>2026-05-06T13:00:52.566Z</time></trkpt><trkpt lat="37.6364033" lon="12.8651383"><ele>119.0</ele><time>2026-05-06T13:00:53.567Z</time></trkpt><trkpt lat="37.6363283" lon="12.865405"><ele>119.0</ele><time>2026-05-06T13:00:54.564Z</time></trkpt><trkpt lat="37.636255" lon="12.8656733"><ele>119.0</ele><time>2026-05-06T13:00:55.565Z</time></trkpt><trkpt lat="37.6361833" lon="12.8659433"><ele>118.5</ele><time>2026-05-06T13:00:56.566Z</time></trkpt><trkpt lat="37.6361083" lon="12.866215"><ele>118.0</ele><time>2026-05-06T13:00:57.565Z</time></trkpt><trkpt lat="37.6360333" lon="12.866485"><ele>118.0</ele><time>2026-05-06T13:00:58.565Z</time></trkpt><trkpt lat="37.6359567" lon="12.866755"><ele>118.0</ele><time>2026-05-06T13:00:59.564Z</time></trkpt><trkpt lat="37.6358833" lon="12.8670267"><ele>117.5</ele><time>2026-05-06T13:01:00.565Z</time></trkpt><trkpt lat="37.63581" lon="12.8672983"><ele>117.0</ele><time>2026-05-06T13:01:01.566Z</time></trkpt><trkpt lat="37.635735" lon="12.86757"><ele>115.5</ele><time>2026-05-06T13:01:02.564Z</time></trkpt><trkpt lat="37.63566" lon="12.8678417"><ele>114.0</ele><time>2026-05-06T13:01:03.565Z</time></trkpt><trkpt lat="37.635585" lon="12.868115"><ele>114.0</ele><time>2026-05-06T13:01:04.565Z</time></trkpt><trkpt lat="37.6355083" lon="12.8683867"><ele>114.0</ele><time>2026-05-06T13:01:05.564Z</time></trkpt><trkpt lat="37.6354333" lon="12.8686583"><ele>114.5</ele><time>2026-05-06T13:01:06.565Z</time></trkpt><trkpt lat="37.6353583" lon="12.86893"><ele>115.0</ele><time>2026-05-06T13:01:07.564Z</time></trkpt><trkpt lat="37.6352867" lon="12.8692033"><ele>114.5</ele><time>2026-05-06T13:01:08.565Z</time></trkpt><trkpt lat="37.6352117" lon="12.869475"><ele>114.0</ele><time>2026-05-06T13:01:09.564Z</time></trkpt><trkpt lat="37.635135" lon="12.8697467"><ele>114.0</ele><time>2026-05-06T13:01:10.564Z</time></trkpt><trkpt lat="37.63506" lon="12.87002"><ele>114.0</ele><time>2026-05-06T13:01:11.566Z</time></trkpt><trkpt lat="37.6349833" lon="12.8702933"><ele>114.0</ele><time>2026-05-06T13:01:12.565Z</time></trkpt><trkpt lat="37.6349083" lon="12.8705683"><ele>114.0</ele><time>2026-05-06T13:01:13.565Z</time></trkpt><trkpt lat="37.634835" lon="12.8708417"><ele>114.33333333333334</ele><time>2026-05-06T13:01:14.565Z</time></trkpt><trkpt lat="37.6347617" lon="12.8711067"><ele>114.66666666666667</ele><time>2026-05-06T13:01:15.564Z</time></trkpt><trkpt lat="37.6346933" lon="12.8713583"><ele>115.0</ele><time>2026-05-06T13:01:16.564Z</time></trkpt><trkpt lat="37.634625" lon="12.8716"><ele>115.0</ele><time>2026-05-06T13:01:17.565Z</time></trkpt><trkpt lat="37.634555" lon="12.8718433"><ele>115.0</ele><time>2026-05-06T13:01:18.565Z</time></trkpt><trkpt lat="37.6344867" lon="12.8720867"><ele>115.0</ele><time>2026-05-06T13:01:19.564Z</time></trkpt><trkpt lat="37.6344183" lon="12.872335"><ele>114.66666666666667</ele><time>2026-05-06T13:01:20.565Z</time></trkpt><trkpt lat="37.6343483" lon="12.8725883"><ele>114.33333333333334</ele><time>2026-05-06T13:01:21.565Z</time></trkpt><trkpt lat="37.6342783" lon="12.8728433"><ele>114.0</ele><time>2026-05-06T13:01:22.565Z</time></trkpt><trkpt lat="37.6342083" lon="12.8730983"><ele>113.66666666666666</ele><time>2026-05-06T13:01:23.565Z</time></trkpt><trkpt lat="37.6341367" lon="12.8733567"><ele>113.33333333333333</ele><time>2026-05-06T13:01:24.565Z</time></trkpt><trkpt lat="37.6340633" lon="12.8736167"><ele>113.0</ele><time>2026-05-06T13:01:25.565Z</time></trkpt><trkpt lat="37.6339917" lon="12.8738783"><ele>113.0</ele><time>2026-05-06T13:01:26.565Z</time></trkpt><trkpt lat="37.6339167" lon="12.8741433"><ele>113.0</ele><time>2026-05-06T13:01:27.565Z</time></trkpt><trkpt lat="37.633845" lon="12.87441"><ele>113.0</ele><time>2026-05-06T13:01:28.564Z</time></trkpt><trkpt lat="37.6337733" lon="12.8746767"><ele>113.0</ele><time>2026-05-06T13:01:29.565Z</time></trkpt><trkpt lat="37.6337" lon="12.874945"><ele>113.0</ele><time>2026-05-06T13:01:30.565Z</time></trkpt><trkpt lat="37.63363" lon="12.8752117"><ele>113.0</ele><time>2026-05-06T13:01:31.565Z</time></trkpt><trkpt lat="37.6335617" lon="12.8754817"><ele>109.0</ele><time>2026-05-06T13:01:32.565Z</time></trkpt><trkpt lat="37.6334933" lon="12.8757517"><ele>105.0</ele><time>2026-05-06T13:01:33.565Z</time></trkpt><trkpt lat="37.6334233" lon="12.87602"><ele>101.0</ele><time>2026-05-06T13:01:34.565Z</time></trkpt><trkpt lat="37.6333533" lon="12.8762883"><ele>97.0</ele><time>2026-05-06T13:01:35.564Z</time></trkpt><trkpt lat="37.633285" lon="12.8765583"><ele>93.0</ele><time>2026-05-06T13:01:36.565Z</time></trkpt><trkpt lat="37.6332183" lon="12.87683"><ele>90.33333333333333</ele><time>2026-05-06T13:01:37.564Z</time></trkpt><trkpt lat="37.633155" lon="12.8771017"><ele>87.66666666666666</ele><time>2026-05-06T13:01:38.566Z</time></trkpt><trkpt lat="37.6330917" lon="12.8773717"><ele>85.0</ele><time>2026-05-06T13:01:39.564Z</time></trkpt><trkpt lat="37.6330317" lon="12.87764"><ele>85.0</ele><time>2026-05-06T13:01:40.564Z</time></trkpt><trkpt lat="37.632975" lon="12.87791"><ele>85.0</ele><time>2026-05-06T13:01:41.564Z</time></trkpt><trkpt lat="37.63292" lon="12.8781783"><ele>85.0</ele><time>2026-05-06T13:01:42.563Z</time></trkpt><trkpt lat="37.6328667" lon="12.8784467"><ele>82.66666666666666</ele><time>2026-05-06T13:01:43.563Z</time></trkpt><trkpt lat="37.6328167" lon="12.87871"><ele>80.33333333333333</ele><time>2026-05-06T13:01:44.565Z</time></trkpt><trkpt lat="37.6327667" lon="12.8789733"><ele>78.0</ele><time>2026-05-06T13:01:45.565Z</time></trkpt><trkpt lat="37.63272" lon="12.8792383"><ele>73.0</ele><time>2026-05-06T13:01:46.564Z</time></trkpt><trkpt lat="37.6326783" lon="12.8795"><ele>68.0</ele><time>2026-05-06T13:01:47.566Z</time></trkpt><trkpt lat="37.6326383" lon="12.8797633"><ele>63.0</ele><time>2026-05-06T13:01:48.565Z</time></trkpt><trkpt lat="37.6325983" lon="12.88003"><ele>60.0</ele><time>2026-05-06T13:01:49.564Z</time></trkpt><trkpt lat="37.6325617" lon="12.8802983"><ele>57.0</ele><time>2026-05-06T13:01:50.564Z</time></trkpt><trkpt lat="37.6325233" lon="12.8805667"><ele>54.0</ele><time>2026-05-06T13:01:51.565Z</time></trkpt><trkpt lat="37.6324883" lon="12.8808367"><ele>54.0</ele><time>2026-05-06T13:01:52.566Z</time></trkpt><trkpt lat="37.632455" lon="12.8811083"><ele>54.0</ele><time>2026-05-06T13:01:53.565Z</time></trkpt><trkpt lat="37.6324233" lon="12.8813783"><ele>54.0</ele><time>2026-05-06T13:01:54.565Z</time></trkpt><trkpt lat="37.6323933" lon="12.8816483"><ele>51.0</ele><time>2026-05-06T13:01:55.565Z</time></trkpt><trkpt lat="37.632365" lon="12.8819233"><ele>48.0</ele><time>2026-05-06T13:01:56.565Z</time></trkpt><trkpt lat="37.6323383" lon="12.8821983"><ele>45.0</ele><time>2026-05-06T13:01:57.565Z</time></trkpt><trkpt lat="37.6323133" lon="12.8824733"><ele>43.333333333333336</ele><time>2026-05-06T13:01:58.565Z</time></trkpt><trkpt lat="37.63229" lon="12.88275"><ele>41.66666666666667</ele><time>2026-05-06T13:01:59.566Z</time></trkpt><trkpt lat="37.6322683" lon="12.883025"><ele>40.0</ele><time>2026-05-06T13:02:00.565Z</time></trkpt><trkpt lat="37.6322483" lon="12.8832983"><ele>37.0</ele><time>2026-05-06T13:02:01.564Z</time></trkpt><trkpt lat="37.6322283" lon="12.8835733"><ele>34.0</ele><time>2026-05-06T13:02:02.564Z</time></trkpt><trkpt lat="37.6322133" lon="12.883845"><ele>31.0</ele><time>2026-05-06T13:02:03.565Z</time></trkpt><trkpt lat="37.6321983" lon="12.8841117"><ele>27.666666666666668</ele><time>2026-05-06T13:02:04.564Z</time></trkpt><trkpt lat="37.632185" lon="12.8843683"><ele>24.333333333333336</ele><time>2026-05-06T13:02:05.566Z</time></trkpt><trkpt lat="37.632175" lon="12.8846217"><ele>21.0</ele><time>2026-05-06T13:02:06.566Z</time></trkpt><trkpt lat="37.632165" lon="12.884875"><ele>20.0</ele><time>2026-05-06T13:02:07.566Z</time></trkpt><trkpt lat="37.6321583" lon="12.8851317"><ele>19.0</ele><time>2026-05-06T13:02:08.566Z</time></trkpt><trkpt lat="37.6321517" lon="12.88539"><ele>18.0</ele><time>2026-05-06T13:02:09.565Z</time></trkpt><trkpt lat="37.6321483" lon="12.8856533"><ele>18.0</ele><time>2026-05-06T13:02:10.565Z</time></trkpt><trkpt lat="37.6321483" lon="12.8859183"><ele>18.0</ele><time>2026-05-06T13:02:11.565Z</time></trkpt><trkpt lat="37.63215" lon="12.886185"><ele>18.0</ele><time>2026-05-06T13:02:12.564Z</time></trkpt><trkpt lat="37.632155" lon="12.8864533"><ele>18.0</ele><time>2026-05-06T13:02:13.564Z</time></trkpt><trkpt lat="37.63216" lon="12.8867217"><ele>18.0</ele><time>2026-05-06T13:02:14.564Z</time></trkpt><trkpt lat="37.6321683" lon="12.8869883"><ele>18.0</ele><time>2026-05-06T13:02:15.565Z</time></trkpt><trkpt lat="37.6321767" lon="12.8872567"><ele>18.333333333333332</ele><time>2026-05-06T13:02:16.563Z</time></trkpt><trkpt lat="37.632185" lon="12.8875183"><ele>18.666666666666664</ele><time>2026-05-06T13:02:17.565Z</time></trkpt><trkpt lat="37.6321933" lon="12.8877733"><ele>19.0</ele><time>2026-05-06T13:02:18.565Z</time></trkpt><trkpt lat="37.6322033" lon="12.888025"><ele>19.0</ele><time>2026-05-06T13:02:19.565Z</time></trkpt><trkpt lat="37.632215" lon="12.888275"><ele>19.0</ele><time>2026-05-06T13:02:20.565Z</time></trkpt><trkpt lat="37.6322267" lon="12.8885267"><ele>19.0</ele><time>2026-05-06T13:02:21.564Z</time></trkpt><trkpt lat="37.63224" lon="12.88878"><ele>19.0</ele><time>2026-05-06T13:02:22.565Z</time></trkpt><trkpt lat="37.6322567" lon="12.889035"><ele>19.0</ele><time>2026-05-06T13:02:23.563Z</time></trkpt><trkpt lat="37.6322717" lon="12.889295"><ele>19.0</ele><time>2026-05-06T13:02:24.564Z</time></trkpt><trkpt lat="37.63229" lon="12.8895567"><ele>20.666666666666664</ele><time>2026-05-06T13:02:25.563Z</time></trkpt><trkpt lat="37.6323067" lon="12.8898217"><ele>22.333333333333332</ele><time>2026-05-06T13:02:26.565Z</time></trkpt><trkpt lat="37.6323217" lon="12.8900883"><ele>24.0</ele><time>2026-05-06T13:02:27.564Z</time></trkpt><trkpt lat="37.6323367" lon="12.890355"><ele>25.0</ele><time>2026-05-06T13:02:28.564Z</time></trkpt><trkpt lat="37.632355" lon="12.8906233"><ele>26.0</ele><time>2026-05-06T13:02:29.565Z</time></trkpt><trkpt lat="37.6323717" lon="12.8908917"><ele>27.0</ele><time>2026-05-06T13:02:30.565Z</time></trkpt><trkpt lat="37.6323883" lon="12.89116"><ele>29.333333333333336</ele><time>2026-05-06T13:02:31.567Z</time></trkpt><trkpt lat="37.632405" lon="12.8914267"><ele>31.666666666666668</ele><time>2026-05-06T13:02:32.566Z</time></trkpt><trkpt lat="37.6324183" lon="12.891695"><ele>34.0</ele><time>2026-05-06T13:02:33.565Z</time></trkpt><trkpt lat="37.63243" lon="12.89196"><ele>37.333333333333336</ele><time>2026-05-06T13:02:34.566Z</time></trkpt><trkpt lat="37.6324383" lon="12.8922233"><ele>40.666666666666664</ele><time>2026-05-06T13:02:35.566Z</time></trkpt><trkpt lat="37.6324467" lon="12.8924833"><ele>44.0</ele><time>2026-05-06T13:02:36.566Z</time></trkpt><trkpt lat="37.632455" lon="12.8927417"><ele>49.666666666666664</ele><time>2026-05-06T13:02:37.566Z</time></trkpt><trkpt lat="37.63246" lon="12.8929983"><ele>55.33333333333333</ele><time>2026-05-06T13:02:38.565Z</time></trkpt><trkpt lat="37.6324617" lon="12.8932483"><ele>61.0</ele><time>2026-05-06T13:02:39.565Z</time></trkpt><trkpt lat="37.6324633" lon="12.8935"><ele>63.666666666666664</ele><time>2026-05-06T13:02:40.564Z</time></trkpt><trkpt lat="37.6324633" lon="12.8937483"><ele>66.33333333333333</ele><time>2026-05-06T13:02:41.563Z</time></trkpt><trkpt lat="37.6324617" lon="12.893995"><ele>69.0</ele><time>2026-05-06T13:02:42.565Z</time></trkpt><trkpt lat="37.6324583" lon="12.8942383"><ele>69.0</ele><time>2026-05-06T13:02:43.565Z</time></trkpt><trkpt lat="37.6324533" lon="12.8944833"><ele>69.0</ele><time>2026-05-06T13:02:44.565Z</time></trkpt><trkpt lat="37.632445" lon="12.89473"><ele>69.0</ele><time>2026-05-06T13:02:45.565Z</time></trkpt><trkpt lat="37.6324367" lon="12.8949767"><ele>69.0</ele><time>2026-05-06T13:02:46.565Z</time></trkpt><trkpt lat="37.63243" lon="12.8952217"><ele>69.0</ele><time>2026-05-06T13:02:47.565Z</time></trkpt><trkpt lat="37.6324217" lon="12.8954617"><ele>69.0</ele><time>2026-05-06T13:02:48.565Z</time></trkpt><trkpt lat="37.6324133" lon="12.8957033"><ele>72.0</ele><time>2026-05-06T13:02:49.565Z</time></trkpt><trkpt lat="37.6324017" lon="12.8959483"><ele>75.0</ele><time>2026-05-06T13:02:50.565Z</time></trkpt><trkpt lat="37.6323867" lon="12.896195"><ele>78.0</ele><time>2026-05-06T13:02:51.564Z</time></trkpt><trkpt lat="37.6323717" lon="12.8964433"><ele>78.0</ele><time>2026-05-06T13:02:52.564Z</time></trkpt><trkpt lat="37.6323533" lon="12.8966933"><ele>78.0</ele><time>2026-05-06T13:02:53.565Z</time></trkpt><trkpt lat="37.632335" lon="12.8969467"><ele>78.0</ele><time>2026-05-06T13:02:54.565Z</time></trkpt><trkpt lat="37.632315" lon="12.8971983"><ele>81.66666666666667</ele><time>2026-05-06T13:02:55.564Z</time></trkpt><trkpt lat="37.6322917" lon="12.8974483"><ele>85.33333333333334</ele><time>2026-05-06T13:02:56.564Z</time></trkpt><trkpt lat="37.63227" lon="12.8977"><ele>89.0</ele><time>2026-05-06T13:02:57.563Z</time></trkpt><trkpt lat="37.6322467" lon="12.89795"><ele>94.66666666666667</ele><time>2026-05-06T13:02:58.565Z</time></trkpt><trkpt lat="37.6322217" lon="12.8982017"><ele>100.33333333333334</ele><time>2026-05-06T13:02:59.565Z</time></trkpt><trkpt lat="37.6321933" lon="12.898455"><ele>106.0</ele><time>2026-05-06T13:03:00.565Z</time></trkpt><trkpt lat="37.6321633" lon="12.8987083"><ele>110.66666666666667</ele><time>2026-05-06T13:03:01.565Z</time></trkpt><trkpt lat="37.63213" lon="12.898965"><ele>115.33333333333334</ele><time>2026-05-06T13:03:02.565Z</time></trkpt><trkpt lat="37.632095" lon="12.8992233"><ele>120.0</ele><time>2026-05-06T13:03:03.564Z</time></trkpt><trkpt lat="37.63206" lon="12.8994817"><ele>122.0</ele><time>2026-05-06T13:03:04.566Z</time></trkpt><trkpt lat="37.63202" lon="12.89974"><ele>124.0</ele><time>2026-05-06T13:03:05.565Z</time></trkpt><trkpt lat="37.6319817" lon="12.8999983"><ele>126.0</ele><time>2026-05-06T13:03:06.565Z</time></trkpt><trkpt lat="37.6319417" lon="12.9002583"><ele>126.0</ele><time>2026-05-06T13:03:07.563Z</time></trkpt><trkpt lat="37.6319" lon="12.9005183"><ele>126.0</ele><time>2026-05-06T13:03:08.564Z</time></trkpt><trkpt lat="37.63186" lon="12.90078"><ele>126.0</ele><time>2026-05-06T13:03:09.564Z</time></trkpt><trkpt lat="37.6318183" lon="12.9010417"><ele>127.33333333333334</ele><time>2026-05-06T13:03:10.565Z</time></trkpt><trkpt lat="37.6317683" lon="12.901305"><ele>128.66666666666669</ele><time>2026-05-06T13:03:11.564Z</time></trkpt><trkpt lat="37.6317167" lon="12.90157"><ele>130.0</ele><time>2026-05-06T13:03:12.565Z</time></trkpt><trkpt lat="37.6316633" lon="12.9018317"><ele>130.0</ele><time>2026-05-06T13:03:13.565Z</time></trkpt><trkpt lat="37.63161" lon="12.902095"><ele>130.0</ele><time>2026-05-06T13:03:14.565Z</time></trkpt><trkpt lat="37.631555" lon="12.9023567"><ele>130.0</ele><time>2026-05-06T13:03:15.564Z</time></trkpt><trkpt lat="37.6315017" lon="12.9026183"><ele>130.0</ele><time>2026-05-06T13:03:16.564Z</time></trkpt><trkpt lat="37.631445" lon="12.90288"><ele>130.0</ele><time>2026-05-06T13:03:17.565Z</time></trkpt><trkpt lat="37.63139" lon="12.90314"><ele>130.0</ele><time>2026-05-06T13:03:18.565Z</time></trkpt><trkpt lat="37.6313317" lon="12.9034033"><ele>131.0</ele><time>2026-05-06T13:03:19.566Z</time></trkpt><trkpt lat="37.631275" lon="12.9036667"><ele>132.0</ele><time>2026-05-06T13:03:20.565Z</time></trkpt><trkpt lat="37.6312183" lon="12.9039317"><ele>133.0</ele><time>2026-05-06T13:03:21.565Z</time></trkpt><trkpt lat="37.63116" lon="12.9041983"><ele>132.33333333333334</ele><time>2026-05-06T13:03:22.566Z</time></trkpt><trkpt lat="37.6311017" lon="12.9044633"><ele>131.66666666666666</ele><time>2026-05-06T13:03:23.567Z</time></trkpt><trkpt lat="37.6310417" lon="12.9047317"><ele>131.0</ele><time>2026-05-06T13:03:24.565Z</time></trkpt><trkpt lat="37.63098" lon="12.9049983"><ele>131.66666666666666</ele><time>2026-05-06T13:03:25.564Z</time></trkpt><trkpt lat="37.6309183" lon="12.905265"><ele>132.33333333333334</ele><time>2026-05-06T13:03:26.565Z</time></trkpt><trkpt lat="37.6308583" lon="12.9055317"><ele>133.0</ele><time>2026-05-06T13:03:27.565Z</time></trkpt><trkpt lat="37.6308" lon="12.9057967"><ele>133.33333333333334</ele><time>2026-05-06T13:03:28.565Z</time></trkpt><trkpt lat="37.6307417" lon="12.90606"><ele>133.66666666666666</ele><time>2026-05-06T13:03:29.566Z</time></trkpt><trkpt lat="37.6306833" lon="12.906325"><ele>134.0</ele><time>2026-05-06T13:03:30.565Z</time></trkpt><trkpt lat="37.6306233" lon="12.9065917"><ele>134.33333333333331</ele><time>2026-05-06T13:03:31.564Z</time></trkpt><trkpt lat="37.6305667" lon="12.90686"><ele>134.66666666666666</ele><time>2026-05-06T13:03:32.565Z</time></trkpt><trkpt lat="37.6305067" lon="12.9071267"><ele>135.0</ele><time>2026-05-06T13:03:33.564Z</time></trkpt><trkpt lat="37.63045" lon="12.907395"><ele>135.0</ele><time>2026-05-06T13:03:34.564Z</time></trkpt><trkpt lat="37.6303883" lon="12.90766"><ele>135.0</ele><time>2026-05-06T13:03:35.564Z</time></trkpt><trkpt lat="37.63033" lon="12.907915"><ele>135.0</ele><time>2026-05-06T13:03:36.564Z</time></trkpt><trkpt lat="37.630275" lon="12.9081583"><ele>130.66666666666666</ele><time>2026-05-06T13:03:37.565Z</time></trkpt><trkpt lat="37.6302217" lon="12.9083967"><ele>126.33333333333333</ele><time>2026-05-06T13:03:38.566Z</time></trkpt><trkpt lat="37.63017" lon="12.9086383"><ele>122.0</ele><time>2026-05-06T13:03:39.565Z</time></trkpt><trkpt lat="37.6301183" lon="12.90888"><ele>121.0</ele><time>2026-05-06T13:03:40.565Z</time></trkpt><trkpt lat="37.6300667" lon="12.9091217"><ele>120.0</ele><time>2026-05-06T13:03:41.563Z</time></trkpt><trkpt lat="37.6300133" lon="12.909365"><ele>119.0</ele><time>2026-05-06T13:03:42.565Z</time></trkpt><trkpt lat="37.6299583" lon="12.9096133"><ele>121.66666666666666</ele><time>2026-05-06T13:03:43.564Z</time></trkpt><trkpt lat="37.6299033" lon="12.9098617"><ele>124.33333333333334</ele><time>2026-05-06T13:03:44.564Z</time></trkpt><trkpt lat="37.6298483" lon="12.9101117"><ele>127.0</ele><time>2026-05-06T13:03:45.563Z</time></trkpt><trkpt lat="37.6297917" lon="12.9103633"><ele>129.66666666666669</ele><time>2026-05-06T13:03:46.565Z</time></trkpt><trkpt lat="37.6297367" lon="12.9106167"><ele>132.33333333333334</ele><time>2026-05-06T13:03:47.565Z</time></trkpt><trkpt lat="37.6296767" lon="12.9108767"><ele>135.0</ele><time>2026-05-06T13:03:48.564Z</time></trkpt><trkpt lat="37.62962" lon="12.9111383"><ele>136.0</ele><time>2026-05-06T13:03:49.566Z</time></trkpt><trkpt lat="37.6295617" lon="12.9114017"><ele>137.0</ele><time>2026-05-06T13:03:50.564Z</time></trkpt><trkpt lat="37.629505" lon="12.911665"><ele>138.0</ele><time>2026-05-06T13:03:51.565Z</time></trkpt><trkpt lat="37.6294483" lon="12.91193"><ele>138.0</ele><time>2026-05-06T13:03:52.565Z</time></trkpt><trkpt lat="37.6293867" lon="12.9121967"><ele>138.0</ele><time>2026-05-06T13:03:53.567Z</time></trkpt><trkpt lat="37.629325" lon="12.912465"><ele>138.0</ele><time>2026-05-06T13:03:54.566Z</time></trkpt><trkpt lat="37.629265" lon="12.9127333"><ele>138.0</ele><time>2026-05-06T13:03:55.566Z</time></trkpt><trkpt lat="37.6292083" lon="12.913"><ele>138.0</ele><time>2026-05-06T13:03:56.566Z</time></trkpt><trkpt lat="37.62915" lon="12.9132667"><ele>138.0</ele><time>2026-05-06T13:03:57.565Z</time></trkpt><trkpt lat="37.62909" lon="12.9135367"><ele>138.0</ele><time>2026-05-06T13:03:58.566Z</time></trkpt><trkpt lat="37.6290317" lon="12.913805"><ele>138.0</ele><time>2026-05-06T13:03:59.564Z</time></trkpt><trkpt lat="37.6289717" lon="12.914075"><ele>138.0</ele><time>2026-05-06T13:04:00.564Z</time></trkpt><trkpt lat="37.62891" lon="12.914345"><ele>138.33333333333334</ele><time>2026-05-06T13:04:01.566Z</time></trkpt><trkpt lat="37.62885" lon="12.914615"><ele>138.66666666666669</ele><time>2026-05-06T13:04:02.566Z</time></trkpt><trkpt lat="37.6287917" lon="12.9148867"><ele>139.0</ele><time>2026-05-06T13:04:03.565Z</time></trkpt><trkpt lat="37.6287333" lon="12.9151583"><ele>139.33333333333334</ele><time>2026-05-06T13:04:04.564Z</time></trkpt><trkpt lat="37.6286717" lon="12.91543"><ele>139.66666666666666</ele><time>2026-05-06T13:04:05.565Z</time></trkpt><trkpt lat="37.6286117" lon="12.9157"><ele>140.0</ele><time>2026-05-06T13:04:06.564Z</time></trkpt><trkpt lat="37.6285517" lon="12.9159717"><ele>140.0</ele><time>2026-05-06T13:04:07.564Z</time></trkpt><trkpt lat="37.6284917" lon="12.91624"><ele>140.0</ele><time>2026-05-06T13:04:08.565Z</time></trkpt><trkpt lat="37.628435" lon="12.9165117"><ele>140.0</ele><time>2026-05-06T13:04:09.564Z</time></trkpt><trkpt lat="37.6283783" lon="12.9167817"><ele>140.33333333333331</ele><time>2026-05-06T13:04:10.564Z</time></trkpt><trkpt lat="37.62832" lon="12.91705"><ele>140.66666666666666</ele><time>2026-05-06T13:04:11.565Z</time></trkpt><trkpt lat="37.6282617" lon="12.9173183"><ele>141.0</ele><time>2026-05-06T13:04:12.565Z</time></trkpt><trkpt lat="37.6282033" lon="12.9175867"><ele>141.0</ele><time>2026-05-06T13:04:13.565Z</time></trkpt><trkpt lat="37.628145" lon="12.917855"><ele>141.0</ele><time>2026-05-06T13:04:14.565Z</time></trkpt><trkpt lat="37.6280883" lon="12.918125"><ele>141.0</ele><time>2026-05-06T13:04:15.565Z</time></trkpt><trkpt lat="37.62803" lon="12.9183967"><ele>141.0</ele><time>2026-05-06T13:04:16.565Z</time></trkpt><trkpt lat="37.62797" lon="12.9186667"><ele>141.0</ele><time>2026-05-06T13:04:17.565Z</time></trkpt><trkpt lat="37.62791" lon="12.9189367"><ele>141.0</ele><time>2026-05-06T13:04:18.564Z</time></trkpt><trkpt lat="37.6278517" lon="12.9192083"><ele>141.33333333333334</ele><time>2026-05-06T13:04:19.565Z</time></trkpt><trkpt lat="37.6277933" lon="12.9194817"><ele>141.66666666666669</ele><time>2026-05-06T13:04:20.564Z</time></trkpt><trkpt lat="37.62774" lon="12.919755"><ele>142.0</ele><time>2026-05-06T13:04:21.564Z</time></trkpt><trkpt lat="37.627685" lon="12.92003"><ele>143.0</ele><time>2026-05-06T13:04:22.566Z</time></trkpt><trkpt lat="37.627635" lon="12.9203067"><ele>144.0</ele><time>2026-05-06T13:04:23.565Z</time></trkpt><trkpt lat="37.62758" lon="12.9205833"><ele>144.0</ele><time>2026-05-06T13:04:24.566Z</time></trkpt><trkpt lat="37.6275267" lon="12.92086"><ele>144.0</ele><time>2026-05-06T13:04:25.566Z</time></trkpt><trkpt lat="37.6274717" lon="12.921135"><ele>144.0</ele><time>2026-05-06T13:04:26.565Z</time></trkpt><trkpt lat="37.6274183" lon="12.92141"><ele>144.0</ele><time>2026-05-06T13:04:27.566Z</time></trkpt><trkpt lat="37.6273683" lon="12.921685"><ele>144.0</ele><time>2026-05-06T13:04:28.566Z</time></trkpt><trkpt lat="37.6273183" lon="12.92196"><ele>144.0</ele><time>2026-05-06T13:04:29.564Z</time></trkpt><trkpt lat="37.6272733" lon="12.922235"><ele>144.0</ele><time>2026-05-06T13:04:30.564Z</time></trkpt><trkpt lat="37.6272283" lon="12.9225133"><ele>144.0</ele><time>2026-05-06T13:04:31.565Z</time></trkpt><trkpt lat="37.6271833" lon="12.9227917"><ele>144.66666666666666</ele><time>2026-05-06T13:04:32.566Z</time></trkpt><trkpt lat="37.62714" lon="12.9230667"><ele>145.33333333333331</ele><time>2026-05-06T13:04:33.565Z</time></trkpt><trkpt lat="37.6270967" lon="12.9233417"><ele>146.0</ele><time>2026-05-06T13:04:34.565Z</time></trkpt><trkpt lat="37.6270533" lon="12.92362"><ele>146.0</ele><time>2026-05-06T13:04:35.564Z</time></trkpt><trkpt lat="37.6270167" lon="12.9239"><ele>146.0</ele><time>2026-05-06T13:04:36.564Z</time></trkpt><trkpt lat="37.6269817" lon="12.9241783"><ele>146.0</ele><time>2026-05-06T13:04:37.564Z</time></trkpt><trkpt lat="37.626945" lon="12.9244533"><ele>138.33333333333331</ele><time>2026-05-06T13:04:38.565Z</time></trkpt><trkpt lat="37.62691" lon="12.92473"><ele>130.66666666666666</ele><time>2026-05-06T13:04:39.564Z</time></trkpt><trkpt lat="37.6268767" lon="12.9250067"><ele>123.0</ele><time>2026-05-06T13:04:40.563Z</time></trkpt><trkpt lat="37.6268467" lon="12.925285"><ele>119.66666666666666</ele><time>2026-05-06T13:04:41.565Z</time></trkpt><trkpt lat="37.6268183" lon="12.9255617"><ele>116.33333333333333</ele><time>2026-05-06T13:04:42.564Z</time></trkpt><trkpt lat="37.62679" lon="12.9258383"><ele>113.0</ele><time>2026-05-06T13:04:43.566Z</time></trkpt><trkpt lat="37.626765" lon="12.9261117"><ele>113.0</ele><time>2026-05-06T13:04:44.565Z</time></trkpt><trkpt lat="37.6267383" lon="12.926385"><ele>113.0</ele><time>2026-05-06T13:04:45.564Z</time></trkpt><trkpt lat="37.6267117" lon="12.92666"><ele>113.0</ele><time>2026-05-06T13:04:46.565Z</time></trkpt><trkpt lat="37.6266883" lon="12.9269333"><ele>113.0</ele><time>2026-05-06T13:04:47.566Z</time></trkpt><trkpt lat="37.626665" lon="12.9272067"><ele>113.0</ele><time>2026-05-06T13:04:48.564Z</time></trkpt><trkpt lat="37.626645" lon="12.9274817"><ele>113.0</ele><time>2026-05-06T13:04:49.565Z</time></trkpt><trkpt lat="37.6266233" lon="12.9277533"><ele>117.0</ele><time>2026-05-06T13:04:50.564Z</time></trkpt><trkpt lat="37.626605" lon="12.9280267"><ele>121.0</ele><time>2026-05-06T13:04:51.565Z</time></trkpt><trkpt lat="37.6265867" lon="12.9282983"><ele>125.0</ele><time>2026-05-06T13:04:52.565Z</time></trkpt><trkpt lat="37.62657" lon="12.9285717"><ele>128.66666666666666</ele><time>2026-05-06T13:04:53.565Z</time></trkpt><trkpt lat="37.6265567" lon="12.9288433"><ele>132.33333333333334</ele><time>2026-05-06T13:04:54.566Z</time></trkpt><trkpt lat="37.626545" lon="12.9291183"><ele>136.0</ele><time>2026-05-06T13:04:55.566Z</time></trkpt><trkpt lat="37.626535" lon="12.929395"><ele>139.33333333333334</ele><time>2026-05-06T13:04:56.566Z</time></trkpt><trkpt lat="37.626525" lon="12.9296733"><ele>142.66666666666666</ele><time>2026-05-06T13:04:57.566Z</time></trkpt><trkpt lat="37.6265133" lon="12.9299567"><ele>146.0</ele><time>2026-05-06T13:04:58.566Z</time></trkpt><trkpt lat="37.6265067" lon="12.9302417"><ele>149.0</ele><time>2026-05-06T13:04:59.564Z</time></trkpt><trkpt lat="37.6265017" lon="12.9305283"><ele>152.0</ele><time>2026-05-06T13:05:00.565Z</time></trkpt><trkpt lat="37.6264983" lon="12.9308133"><ele>152.66666666666666</ele><time>2026-05-06T13:05:01.565Z</time></trkpt><trkpt lat="37.6264933" lon="12.9310967"><ele>153.33333333333334</ele><time>2026-05-06T13:05:02.565Z</time></trkpt><trkpt lat="37.6264917" lon="12.9313783"><ele>154.0</ele><time>2026-05-06T13:05:03.565Z</time></trkpt><trkpt lat="37.6264917" lon="12.9316617"><ele>154.33333333333334</ele><time>2026-05-06T13:05:04.564Z</time></trkpt><trkpt lat="37.6264933" lon="12.9319383"><ele>154.66666666666666</ele><time>2026-05-06T13:05:05.564Z</time></trkpt><trkpt lat="37.6264983" lon="12.932215"><ele>155.0</ele><time>2026-05-06T13:05:06.564Z</time></trkpt><trkpt lat="37.6265033" lon="12.932495"><ele>154.33333333333331</ele><time>2026-05-06T13:05:07.565Z</time></trkpt><trkpt lat="37.6265033" lon="12.9327767"><ele>153.66666666666666</ele><time>2026-05-06T13:05:08.565Z</time></trkpt><trkpt lat="37.6265033" lon="12.9330567"><ele>153.0</ele><time>2026-05-06T13:05:09.565Z</time></trkpt><trkpt lat="37.6265067" lon="12.9333367"><ele>152.33333333333334</ele><time>2026-05-06T13:05:10.564Z</time></trkpt><trkpt lat="37.6265133" lon="12.9336183"><ele>151.66666666666669</ele><time>2026-05-06T13:05:11.564Z</time></trkpt><trkpt lat="37.6265233" lon="12.933895"><ele>151.0</ele><time>2026-05-06T13:05:12.565Z</time></trkpt><trkpt lat="37.6265317" lon="12.9341767"><ele>151.66666666666669</ele><time>2026-05-06T13:05:13.565Z</time></trkpt><trkpt lat="37.6265383" lon="12.9344583"><ele>152.33333333333334</ele><time>2026-05-06T13:05:14.564Z</time></trkpt><trkpt lat="37.62655" lon="12.93474"><ele>153.0</ele><time>2026-05-06T13:05:15.564Z</time></trkpt><trkpt lat="37.6265633" lon="12.9350233"><ele>154.0</ele><time>2026-05-06T13:05:16.564Z</time></trkpt><trkpt lat="37.6265783" lon="12.9353083"><ele>155.0</ele><time>2026-05-06T13:05:17.565Z</time></trkpt><trkpt lat="37.6265917" lon="12.9355917"><ele>155.0</ele><time>2026-05-06T13:05:18.564Z</time></trkpt><trkpt lat="37.6266017" lon="12.9358767"><ele>155.0</ele><time>2026-05-06T13:05:19.564Z</time></trkpt><trkpt lat="37.626615" lon="12.9361617"><ele>155.0</ele><time>2026-05-06T13:05:20.564Z</time></trkpt><trkpt lat="37.6266267" lon="12.9364467"><ele>155.0</ele><time>2026-05-06T13:05:21.565Z</time></trkpt><trkpt lat="37.62664" lon="12.9367317"><ele>155.0</ele><time>2026-05-06T13:05:22.565Z</time></trkpt><trkpt lat="37.6266533" lon="12.937015"><ele>155.0</ele><time>2026-05-06T13:05:23.565Z</time></trkpt><trkpt lat="37.6266683" lon="12.9372967"><ele>155.0</ele><time>2026-05-06T13:05:24.565Z</time></trkpt><trkpt lat="37.6266783" lon="12.9375783"><ele>155.66666666666666</ele><time>2026-05-06T13:05:25.565Z</time></trkpt><trkpt lat="37.6266917" lon="12.9378583"><ele>156.33333333333334</ele><time>2026-05-06T13:05:26.564Z</time></trkpt><trkpt lat="37.6267017" lon="12.9381367"><ele>157.0</ele><time>2026-05-06T13:05:27.565Z</time></trkpt><trkpt lat="37.6267117" lon="12.9384133"><ele>157.0</ele><time>2026-05-06T13:05:28.564Z</time></trkpt><trkpt lat="37.6267267" lon="12.9386783"><ele>157.0</ele><time>2026-05-06T13:05:29.563Z</time></trkpt><trkpt lat="37.62674" lon="12.9389283"><ele>157.0</ele><time>2026-05-06T13:05:30.565Z</time></trkpt><trkpt lat="37.6267483" lon="12.9391633"><ele>154.66666666666669</ele><time>2026-05-06T13:05:31.564Z</time></trkpt><trkpt lat="37.6267533" lon="12.9393917"><ele>152.33333333333334</ele><time>2026-05-06T13:05:32.565Z</time></trkpt><trkpt lat="37.6267617" lon="12.93962"><ele>150.0</ele><time>2026-05-06T13:05:33.565Z</time></trkpt><trkpt lat="37.62677" lon="12.9398517"><ele>146.66666666666666</ele><time>2026-05-06T13:05:34.565Z</time></trkpt><trkpt lat="37.62678" lon="12.9400867"><ele>143.33333333333331</ele><time>2026-05-06T13:05:35.564Z</time></trkpt><trkpt lat="37.6267867" lon="12.940325"><ele>140.0</ele><time>2026-05-06T13:05:36.565Z</time></trkpt><trkpt lat="37.6267917" lon="12.9405683"><ele>140.0</ele><time>2026-05-06T13:05:37.563Z</time></trkpt><trkpt lat="37.6267933" lon="12.9408183"><ele>140.0</ele><time>2026-05-06T13:05:38.564Z</time></trkpt><trkpt lat="37.6267967" lon="12.9410717"><ele>140.0</ele><time>2026-05-06T13:05:39.563Z</time></trkpt><trkpt lat="37.6268" lon="12.9413283"><ele>140.66666666666666</ele><time>2026-05-06T13:05:40.564Z</time></trkpt><trkpt lat="37.6268" lon="12.941585"><ele>141.33333333333334</ele><time>2026-05-06T13:05:41.564Z</time></trkpt><trkpt lat="37.6268" lon="12.9418433"><ele>142.0</ele><time>2026-05-06T13:05:42.565Z</time></trkpt><trkpt lat="37.6267967" lon="12.9421083"><ele>142.0</ele><time>2026-05-06T13:05:43.563Z</time></trkpt><trkpt lat="37.6267933" lon="12.942375"><ele>142.0</ele><time>2026-05-06T13:05:44.565Z</time></trkpt><trkpt lat="37.6267917" lon="12.9426433"><ele>142.0</ele><time>2026-05-06T13:05:45.565Z</time></trkpt><trkpt lat="37.6267867" lon="12.9429117"><ele>146.0</ele><time>2026-05-06T13:05:46.565Z</time></trkpt><trkpt lat="37.6267783" lon="12.94318"><ele>150.0</ele><time>2026-05-06T13:05:47.566Z</time></trkpt><trkpt lat="37.62677" lon="12.94345"><ele>154.0</ele><time>2026-05-06T13:05:48.565Z</time></trkpt><trkpt lat="37.6267617" lon="12.9437217"><ele>156.0</ele><time>2026-05-06T13:05:49.564Z</time></trkpt><trkpt lat="37.62675" lon="12.9439933"><ele>158.0</ele><time>2026-05-06T13:05:50.566Z</time></trkpt><trkpt lat="37.626735" lon="12.9442683"><ele>160.0</ele><time>2026-05-06T13:05:51.565Z</time></trkpt><trkpt lat="37.6267217" lon="12.9445467"><ele>161.0</ele><time>2026-05-06T13:05:52.565Z</time></trkpt><trkpt lat="37.6267067" lon="12.9448283"><ele>162.0</ele><time>2026-05-06T13:05:53.566Z</time></trkpt><trkpt lat="37.62669" lon="12.94511"><ele>163.0</ele><time>2026-05-06T13:05:54.564Z</time></trkpt><trkpt lat="37.6266733" lon="12.945395"><ele>163.5</ele><time>2026-05-06T13:05:55.565Z</time></trkpt><trkpt lat="37.626655" lon="12.94568"><ele>164.0</ele><time>2026-05-06T13:05:56.565Z</time></trkpt><trkpt lat="37.626635" lon="12.9459633"><ele>165.5</ele><time>2026-05-06T13:05:57.565Z</time></trkpt><trkpt lat="37.6266117" lon="12.9462483"><ele>167.0</ele><time>2026-05-06T13:05:58.564Z</time></trkpt><trkpt lat="37.6265917" lon="12.9465283"><ele>167.5</ele><time>2026-05-06T13:05:59.565Z</time></trkpt><trkpt lat="37.626565" lon="12.94681"><ele>168.0</ele><time>2026-05-06T13:06:00.564Z</time></trkpt><trkpt lat="37.6265367" lon="12.9470917"><ele>168.0</ele><time>2026-05-06T13:06:01.565Z</time></trkpt><trkpt lat="37.6265067" lon="12.9473733"><ele>168.0</ele><time>2026-05-06T13:06:02.566Z</time></trkpt><trkpt lat="37.6264783" lon="12.947655"><ele>167.5</ele><time>2026-05-06T13:06:03.564Z</time></trkpt><trkpt lat="37.6264483" lon="12.9479367"><ele>167.0</ele><time>2026-05-06T13:06:04.564Z</time></trkpt><trkpt lat="37.6264117" lon="12.9482167"><ele>167.33333333333331</ele><time>2026-05-06T13:06:05.564Z</time></trkpt><trkpt lat="37.62637" lon="12.948495"><ele>167.66666666666666</ele><time>2026-05-06T13:06:06.564Z</time></trkpt><trkpt lat="37.62633" lon="12.9487733"><ele>168.0</ele><time>2026-05-06T13:06:07.563Z</time></trkpt><trkpt lat="37.6262933" lon="12.94905"><ele>167.66666666666666</ele><time>2026-05-06T13:06:08.564Z</time></trkpt><trkpt lat="37.6262567" lon="12.949325"><ele>167.33333333333331</ele><time>2026-05-06T13:06:09.564Z</time></trkpt><trkpt lat="37.6262183" lon="12.9496"><ele>167.0</ele><time>2026-05-06T13:06:10.565Z</time></trkpt><trkpt lat="37.6261817" lon="12.9498733"><ele>167.0</ele><time>2026-05-06T13:06:11.565Z</time></trkpt><trkpt lat="37.6261433" lon="12.9501433"><ele>167.0</ele><time>2026-05-06T13:06:12.564Z</time></trkpt><trkpt lat="37.6261033" lon="12.950415"><ele>167.0</ele><time>2026-05-06T13:06:13.564Z</time></trkpt><trkpt lat="37.62606" lon="12.9506867"><ele>168.0</ele><time>2026-05-06T13:06:14.565Z</time></trkpt><trkpt lat="37.6260133" lon="12.9509583"><ele>169.0</ele><time>2026-05-06T13:06:15.564Z</time></trkpt><trkpt lat="37.625965" lon="12.9512317"><ele>170.0</ele><time>2026-05-06T13:06:16.563Z</time></trkpt><trkpt lat="37.6259167" lon="12.951505"><ele>171.0</ele><time>2026-05-06T13:06:17.565Z</time></trkpt><trkpt lat="37.6258683" lon="12.9517833"><ele>172.0</ele><time>2026-05-06T13:06:18.564Z</time></trkpt><trkpt lat="37.6258183" lon="12.9520617"><ele>172.0</ele><time>2026-05-06T13:06:19.565Z</time></trkpt><trkpt lat="37.6257633" lon="12.95234"><ele>172.0</ele><time>2026-05-06T13:06:20.564Z</time></trkpt><trkpt lat="37.6257067" lon="12.9526183"><ele>171.0</ele><time>2026-05-06T13:06:21.564Z</time></trkpt><trkpt lat="37.6256517" lon="12.952895"><ele>170.0</ele><time>2026-05-06T13:06:22.564Z</time></trkpt><trkpt lat="37.625595" lon="12.9531733"><ele>169.5</ele><time>2026-05-06T13:06:23.564Z</time></trkpt><trkpt lat="37.6255367" lon="12.95345"><ele>169.0</ele><time>2026-05-06T13:06:24.563Z</time></trkpt><trkpt lat="37.6254783" lon="12.9537267"><ele>169.0</ele><time>2026-05-06T13:06:25.564Z</time></trkpt><trkpt lat="37.6254183" lon="12.954"><ele>169.0</ele><time>2026-05-06T13:06:26.564Z</time></trkpt><trkpt lat="37.6253567" lon="12.9542733"><ele>169.5</ele><time>2026-05-06T13:06:27.563Z</time></trkpt><trkpt lat="37.6252933" lon="12.9545467"><ele>170.0</ele><time>2026-05-06T13:06:28.564Z</time></trkpt><trkpt lat="37.6252283" lon="12.9548183"><ele>170.33333333333331</ele><time>2026-05-06T13:06:29.564Z</time></trkpt><trkpt lat="37.6251633" lon="12.95509"><ele>170.66666666666666</ele><time>2026-05-06T13:06:30.564Z</time></trkpt><trkpt lat="37.6250983" lon="12.9553583"><ele>171.0</ele><time>2026-05-06T13:06:31.564Z</time></trkpt><trkpt lat="37.62503" lon="12.9556267"><ele>170.66666666666666</ele><time>2026-05-06T13:06:32.566Z</time></trkpt><trkpt lat="37.62496" lon="12.9558933"><ele>170.33333333333331</ele><time>2026-05-06T13:06:33.566Z</time></trkpt><trkpt lat="37.6248867" lon="12.95616"><ele>170.0</ele><time>2026-05-06T13:06:34.565Z</time></trkpt><trkpt lat="37.6248133" lon="12.9564267"><ele>170.0</ele><time>2026-05-06T13:06:35.566Z</time></trkpt><trkpt lat="37.6247383" lon="12.9566933"><ele>170.0</ele><time>2026-05-06T13:06:36.566Z</time></trkpt><trkpt lat="37.624665" lon="12.95696"><ele>170.0</ele><time>2026-05-06T13:06:37.566Z</time></trkpt><trkpt lat="37.6245883" lon="12.957225"><ele>170.0</ele><time>2026-05-06T13:06:38.565Z</time></trkpt><trkpt lat="37.62451" lon="12.9574883"><ele>170.0</ele><time>2026-05-06T13:06:39.564Z</time></trkpt><trkpt lat="37.6244283" lon="12.95775"><ele>170.0</ele><time>2026-05-06T13:06:40.564Z</time></trkpt><trkpt lat="37.6243467" lon="12.9580117"><ele>170.0</ele><time>2026-05-06T13:06:41.564Z</time></trkpt><trkpt lat="37.624265" lon="12.9582717"><ele>170.0</ele><time>2026-05-06T13:06:42.564Z</time></trkpt><trkpt lat="37.6241833" lon="12.95853"><ele>170.0</ele><time>2026-05-06T13:06:43.565Z</time></trkpt><trkpt lat="37.6241017" lon="12.958785"><ele>170.66666666666666</ele><time>2026-05-06T13:06:44.566Z</time></trkpt><trkpt lat="37.6240217" lon="12.9590317"><ele>171.33333333333334</ele><time>2026-05-06T13:06:45.564Z</time></trkpt><trkpt lat="37.623945" lon="12.9592683"><ele>172.0</ele><time>2026-05-06T13:06:46.564Z</time></trkpt><trkpt lat="37.623865" lon="12.9595"><ele>173.0</ele><time>2026-05-06T13:06:47.564Z</time></trkpt><trkpt lat="37.6237833" lon="12.9597333"><ele>174.0</ele><time>2026-05-06T13:06:48.565Z</time></trkpt><trkpt lat="37.6237" lon="12.9599733"><ele>175.0</ele><time>2026-05-06T13:06:49.564Z</time></trkpt><trkpt lat="37.623615" lon="12.9602117"><ele>173.33333333333334</ele><time>2026-05-06T13:06:50.565Z</time></trkpt><trkpt lat="37.6235267" lon="12.9604467"><ele>171.66666666666666</ele><time>2026-05-06T13:06:51.564Z</time></trkpt><trkpt lat="37.6234383" lon="12.9606867"><ele>170.0</ele><time>2026-05-06T13:06:52.567Z</time></trkpt><trkpt lat="37.62335" lon="12.9609283"><ele>170.0</ele><time>2026-05-06T13:06:53.564Z</time></trkpt><trkpt lat="37.6232583" lon="12.96117"><ele>170.0</ele><time>2026-05-06T13:06:54.565Z</time></trkpt><trkpt lat="37.623165" lon="12.96141"><ele>170.0</ele><time>2026-05-06T13:06:55.564Z</time></trkpt><trkpt lat="37.6230683" lon="12.9616467"><ele>168.66666666666666</ele><time>2026-05-06T13:06:56.565Z</time></trkpt><trkpt lat="37.6229733" lon="12.961885"><ele>167.33333333333334</ele><time>2026-05-06T13:06:57.564Z</time></trkpt><trkpt lat="37.6228783" lon="12.96212"><ele>166.0</ele><time>2026-05-06T13:06:58.566Z</time></trkpt><trkpt lat="37.6227817" lon="12.9623583"><ele>168.0</ele><time>2026-05-06T13:06:59.569Z</time></trkpt><trkpt lat="37.622685" lon="12.962595"><ele>170.0</ele><time>2026-05-06T13:07:00.566Z</time></trkpt><trkpt lat="37.622585" lon="12.9628317"><ele>172.0</ele><time>2026-05-06T13:07:01.566Z</time></trkpt><trkpt lat="37.6224833" lon="12.9630683"><ele>172.0</ele><time>2026-05-06T13:07:02.566Z</time></trkpt><trkpt lat="37.6223783" lon="12.963305"><ele>172.0</ele><time>2026-05-06T13:07:03.566Z</time></trkpt><trkpt lat="37.6222733" lon="12.9635433"><ele>172.0</ele><time>2026-05-06T13:07:04.566Z</time></trkpt><trkpt lat="37.622165" lon="12.963785"><ele>171.33333333333334</ele><time>2026-05-06T13:07:05.567Z</time></trkpt><trkpt lat="37.622055" lon="12.9640283"><ele>170.66666666666666</ele><time>2026-05-06T13:07:06.566Z</time></trkpt><trkpt lat="37.621945" lon="12.9642733"><ele>170.0</ele><time>2026-05-06T13:07:07.565Z</time></trkpt><trkpt lat="37.6218333" lon="12.96452"><ele>170.0</ele><time>2026-05-06T13:07:08.566Z</time></trkpt><trkpt lat="37.6217183" lon="12.9647667"><ele>170.0</ele><time>2026-05-06T13:07:09.566Z</time></trkpt><trkpt lat="37.6216" lon="12.9650083"><ele>170.5</ele><time>2026-05-06T13:07:10.563Z</time></trkpt><trkpt lat="37.62148" lon="12.9652483"><ele>171.0</ele><time>2026-05-06T13:07:11.564Z</time></trkpt><trkpt lat="37.6213617" lon="12.96549"><ele>171.0</ele><time>2026-05-06T13:07:12.565Z</time></trkpt><trkpt lat="37.6212417" lon="12.9657333"><ele>171.0</ele><time>2026-05-06T13:07:13.567Z</time></trkpt><trkpt lat="37.6211233" lon="12.965975"><ele>169.5</ele><time>2026-05-06T13:07:14.565Z</time></trkpt><trkpt lat="37.6210033" lon="12.966215"><ele>168.0</ele><time>2026-05-06T13:07:15.563Z</time></trkpt><trkpt lat="37.6208817" lon="12.9664567"><ele>168.0</ele><time>2026-05-06T13:07:16.564Z</time></trkpt><trkpt lat="37.6207567" lon="12.9666967"><ele>168.0</ele><time>2026-05-06T13:07:17.565Z</time></trkpt><trkpt lat="37.62063" lon="12.9669333"><ele>168.0</ele><time>2026-05-06T13:07:18.563Z</time></trkpt><trkpt lat="37.6205067" lon="12.96717"><ele>168.0</ele><time>2026-05-06T13:07:19.564Z</time></trkpt><trkpt lat="37.6203817" lon="12.96741"><ele>166.5</ele><time>2026-05-06T13:07:20.564Z</time></trkpt><trkpt lat="37.6202567" lon="12.9676467"><ele>165.0</ele><time>2026-05-06T13:07:21.563Z</time></trkpt><trkpt lat="37.6201317" lon="12.967885"><ele>165.0</ele><time>2026-05-06T13:07:22.565Z</time></trkpt><trkpt lat="37.6200083" lon="12.968125"><ele>165.0</ele><time>2026-05-06T13:07:23.564Z</time></trkpt><trkpt lat="37.619885" lon="12.968365"><ele>167.0</ele><time>2026-05-06T13:07:24.564Z</time></trkpt><trkpt lat="37.61976" lon="12.9686067"><ele>169.0</ele><time>2026-05-06T13:07:25.566Z</time></trkpt><trkpt lat="37.6196333" lon="12.9688467"><ele>169.0</ele><time>2026-05-06T13:07:26.566Z</time></trkpt><trkpt lat="37.619505" lon="12.9690867"><ele>169.0</ele><time>2026-05-06T13:07:27.564Z</time></trkpt><trkpt lat="37.6193783" lon="12.9693283"><ele>167.5</ele><time>2026-05-06T13:07:28.565Z</time></trkpt><trkpt lat="37.6192517" lon="12.96957"><ele>166.0</ele><time>2026-05-06T13:07:29.564Z</time></trkpt><trkpt lat="37.619125" lon="12.9698117"><ele>166.5</ele><time>2026-05-06T13:07:30.565Z</time></trkpt><trkpt lat="37.6189983" lon="12.970055"><ele>167.0</ele><time>2026-05-06T13:07:31.565Z</time></trkpt><trkpt lat="37.6188717" lon="12.9702983"><ele>167.0</ele><time>2026-05-06T13:07:32.567Z</time></trkpt><trkpt lat="37.6187433" lon="12.9705433"><ele>167.0</ele><time>2026-05-06T13:07:33.564Z</time></trkpt><trkpt lat="37.618615" lon="12.9707883"><ele>168.0</ele><time>2026-05-06T13:07:34.565Z</time></trkpt><trkpt lat="37.618485" lon="12.97103"><ele>169.0</ele><time>2026-05-06T13:07:35.564Z</time></trkpt><trkpt lat="37.6183583" lon="12.971275"><ele>169.0</ele><time>2026-05-06T13:07:36.564Z</time></trkpt><trkpt lat="37.6182317" lon="12.971515"><ele>169.0</ele><time>2026-05-06T13:07:37.565Z</time></trkpt><trkpt lat="37.61811" lon="12.9717483"><ele>169.33333333333334</ele><time>2026-05-06T13:07:38.564Z</time></trkpt><trkpt lat="37.6179933" lon="12.97197"><ele>169.66666666666666</ele><time>2026-05-06T13:07:39.564Z</time></trkpt><trkpt lat="37.6178783" lon="12.9721867"><ele>170.0</ele><time>2026-05-06T13:07:40.563Z</time></trkpt><trkpt lat="37.6177617" lon="12.9724033"><ele>169.66666666666666</ele><time>2026-05-06T13:07:41.565Z</time></trkpt><trkpt lat="37.6176467" lon="12.9726233"><ele>169.33333333333334</ele><time>2026-05-06T13:07:42.563Z</time></trkpt><trkpt lat="37.61753" lon="12.9728417"><ele>169.0</ele><time>2026-05-06T13:07:43.565Z</time></trkpt><trkpt lat="37.6174133" lon="12.973065"><ele>169.0</ele><time>2026-05-06T13:07:44.565Z</time></trkpt><trkpt lat="37.6172967" lon="12.9732917"><ele>169.0</ele><time>2026-05-06T13:07:45.564Z</time></trkpt><trkpt lat="37.61718" lon="12.97352"><ele>169.0</ele><time>2026-05-06T13:07:46.564Z</time></trkpt><trkpt lat="37.6170617" lon="12.9737467"><ele>169.0</ele><time>2026-05-06T13:07:47.564Z</time></trkpt><trkpt lat="37.6169417" lon="12.9739717"><ele>169.0</ele><time>2026-05-06T13:07:48.564Z</time></trkpt><trkpt lat="37.6168217" lon="12.9741983"><ele>169.0</ele><time>2026-05-06T13:07:49.564Z</time></trkpt><trkpt lat="37.6167017" lon="12.97443"><ele>170.33333333333334</ele><time>2026-05-06T13:07:50.565Z</time></trkpt><trkpt lat="37.61658" lon="12.97466"><ele>171.66666666666666</ele><time>2026-05-06T13:07:51.563Z</time></trkpt><trkpt lat="37.6164567" lon="12.974895"><ele>173.0</ele><time>2026-05-06T13:07:52.567Z</time></trkpt><trkpt lat="37.6163317" lon="12.9751283"><ele>174.33333333333331</ele><time>2026-05-06T13:07:53.565Z</time></trkpt><trkpt lat="37.61621" lon="12.9753617"><ele>175.66666666666666</ele><time>2026-05-06T13:07:54.564Z</time></trkpt><trkpt lat="37.6160883" lon="12.975595"><ele>177.0</ele><time>2026-05-06T13:07:55.565Z</time></trkpt><trkpt lat="37.6159667" lon="12.975825"><ele>173.33333333333334</ele><time>2026-05-06T13:07:56.565Z</time></trkpt><trkpt lat="37.615845" lon="12.976055"><ele>169.66666666666669</ele><time>2026-05-06T13:07:57.564Z</time></trkpt><trkpt lat="37.615725" lon="12.9762833"><ele>166.0</ele><time>2026-05-06T13:07:58.565Z</time></trkpt><trkpt lat="37.6156117" lon="12.9765033"><ele>164.33333333333334</ele><time>2026-05-06T13:07:59.566Z</time></trkpt><trkpt lat="37.6155017" lon="12.976715"><ele>162.66666666666666</ele><time>2026-05-06T13:08:00.565Z</time></trkpt><trkpt lat="37.6153917" lon="12.9769217"><ele>161.0</ele><time>2026-05-06T13:08:01.565Z</time></trkpt><trkpt lat="37.6152817" lon="12.9771283"><ele>159.66666666666666</ele><time>2026-05-06T13:08:02.569Z</time></trkpt><trkpt lat="37.6151683" lon="12.97734"><ele>158.33333333333334</ele><time>2026-05-06T13:08:03.566Z</time></trkpt><trkpt lat="37.6150533" lon="12.977555"><ele>157.0</ele><time>2026-05-06T13:08:04.566Z</time></trkpt><trkpt lat="37.61494" lon="12.9777717"><ele>157.0</ele><time>2026-05-06T13:08:05.566Z</time></trkpt><trkpt lat="37.6148267" lon="12.9779883"><ele>157.0</ele><time>2026-05-06T13:08:06.566Z</time></trkpt><trkpt lat="37.614715" lon="12.9781967"><ele>157.0</ele><time>2026-05-06T13:08:07.566Z</time></trkpt><trkpt lat="37.6146067" lon="12.9783967"><ele>158.0</ele><time>2026-05-06T13:08:08.566Z</time></trkpt><trkpt lat="37.6144983" lon="12.9785967"><ele>159.0</ele><time>2026-05-06T13:08:09.566Z</time></trkpt><trkpt lat="37.61439" lon="12.9787983"><ele>160.0</ele><time>2026-05-06T13:08:10.565Z</time></trkpt><trkpt lat="37.6142783" lon="12.9790067"><ele>163.0</ele><time>2026-05-06T13:08:11.567Z</time></trkpt><trkpt lat="37.6141633" lon="12.979215"><ele>166.0</ele><time>2026-05-06T13:08:12.566Z</time></trkpt><trkpt lat="37.6140467" lon="12.9794283"><ele>169.0</ele><time>2026-05-06T13:08:13.567Z</time></trkpt><trkpt lat="37.6139267" lon="12.9796433"><ele>169.0</ele><time>2026-05-06T13:08:14.566Z</time></trkpt><trkpt lat="37.6138017" lon="12.9798583"><ele>169.0</ele><time>2026-05-06T13:08:15.564Z</time></trkpt><trkpt lat="37.6136733" lon="12.9800767"><ele>169.0</ele><time>2026-05-06T13:08:16.564Z</time></trkpt><trkpt lat="37.6135417" lon="12.9803"><ele>167.0</ele><time>2026-05-06T13:08:17.564Z</time></trkpt><trkpt lat="37.6134067" lon="12.98054"><ele>165.0</ele><time>2026-05-06T13:08:18.563Z</time></trkpt><trkpt lat="37.6132633" lon="12.9807883"><ele>167.0</ele><time>2026-05-06T13:08:19.564Z</time></trkpt><trkpt lat="37.6131133" lon="12.981035"><ele>169.0</ele><time>2026-05-06T13:08:20.565Z</time></trkpt><trkpt lat="37.6129667" lon="12.9812683"><ele>169.0</ele><time>2026-05-06T13:08:21.563Z</time></trkpt><trkpt lat="37.6128267" lon="12.9814867"><ele>169.0</ele><time>2026-05-06T13:08:22.564Z</time></trkpt><trkpt lat="37.6126933" lon="12.98169"><ele>169.0</ele><time>2026-05-06T13:08:23.565Z</time></trkpt><trkpt lat="37.61256" lon="12.9818833"><ele>167.66666666666669</ele><time>2026-05-06T13:08:24.564Z</time></trkpt><trkpt lat="37.6124217" lon="12.9820767"><ele>166.33333333333334</ele><time>2026-05-06T13:08:25.563Z</time></trkpt><trkpt lat="37.6122783" lon="12.98227"><ele>165.0</ele><time>2026-05-06T13:08:26.564Z</time></trkpt><trkpt lat="37.6121317" lon="12.9824683"><ele>164.66666666666666</ele><time>2026-05-06T13:08:27.565Z</time></trkpt><trkpt lat="37.6119867" lon="12.9826733"><ele>164.33333333333331</ele><time>2026-05-06T13:08:28.563Z</time></trkpt><trkpt lat="37.61184" lon="12.9828817"><ele>164.0</ele><time>2026-05-06T13:08:29.563Z</time></trkpt><trkpt lat="37.61169" lon="12.9830883"><ele>164.0</ele><time>2026-05-06T13:08:30.564Z</time></trkpt><trkpt lat="37.61154" lon="12.983295"><ele>164.0</ele><time>2026-05-06T13:08:31.565Z</time></trkpt><trkpt lat="37.611385" lon="12.9835033"><ele>164.0</ele><time>2026-05-06T13:08:32.565Z</time></trkpt><trkpt lat="37.6112267" lon="12.9837167"><ele>163.5</ele><time>2026-05-06T13:08:33.564Z</time></trkpt><trkpt lat="37.6110683" lon="12.98393"><ele>163.0</ele><time>2026-05-06T13:08:34.565Z</time></trkpt><trkpt lat="37.61091" lon="12.9841417"><ele>163.0</ele><time>2026-05-06T13:08:35.563Z</time></trkpt><trkpt lat="37.6107533" lon="12.9843567"><ele>163.0</ele><time>2026-05-06T13:08:36.563Z</time></trkpt><trkpt lat="37.6105933" lon="12.9845767"><ele>163.0</ele><time>2026-05-06T13:08:37.565Z</time></trkpt><trkpt lat="37.6104333" lon="12.9848"><ele>163.0</ele><time>2026-05-06T13:08:38.564Z</time></trkpt><trkpt lat="37.610275" lon="12.985025"><ele>162.5</ele><time>2026-05-06T13:08:39.565Z</time></trkpt><trkpt lat="37.6101183" lon="12.9852533"><ele>162.0</ele><time>2026-05-06T13:08:40.564Z</time></trkpt><trkpt lat="37.6099633" lon="12.9854867"><ele>162.0</ele><time>2026-05-06T13:08:41.564Z</time></trkpt><trkpt lat="37.609815" lon="12.9857217"><ele>162.0</ele><time>2026-05-06T13:08:42.564Z</time></trkpt><trkpt lat="37.60967" lon="12.9859617"><ele>161.5</ele><time>2026-05-06T13:08:43.564Z</time></trkpt><trkpt lat="37.6095233" lon="12.9862033"><ele>161.0</ele><time>2026-05-06T13:08:44.564Z</time></trkpt><trkpt lat="37.6093817" lon="12.9864517"><ele>163.0</ele><time>2026-05-06T13:08:45.563Z</time></trkpt><trkpt lat="37.60924" lon="12.9867033"><ele>165.0</ele><time>2026-05-06T13:08:46.564Z</time></trkpt><trkpt lat="37.6091" lon="12.9869617"><ele>165.0</ele><time>2026-05-06T13:08:47.564Z</time></trkpt><trkpt lat="37.60896" lon="12.9872283"><ele>165.0</ele><time>2026-05-06T13:08:48.564Z</time></trkpt><trkpt lat="37.6088217" lon="12.9875"><ele>165.0</ele><time>2026-05-06T13:08:49.563Z</time></trkpt><trkpt lat="37.6086867" lon="12.9877783"><ele>165.0</ele><time>2026-05-06T13:08:50.564Z</time></trkpt><trkpt lat="37.6085533" lon="12.9880633"><ele>162.5</ele><time>2026-05-06T13:08:51.563Z</time></trkpt><trkpt lat="37.6084217" lon="12.9883517"><ele>160.0</ele><time>2026-05-06T13:08:52.565Z</time></trkpt><trkpt lat="37.6082933" lon="12.9886433"><ele>160.0</ele><time>2026-05-06T13:08:53.563Z</time></trkpt><trkpt lat="37.6081683" lon="12.98894"><ele>160.0</ele><time>2026-05-06T13:08:54.564Z</time></trkpt><trkpt lat="37.608045" lon="12.98924"><ele>159.5</ele><time>2026-05-06T13:08:55.565Z</time></trkpt><trkpt lat="37.6079267" lon="12.9895417"><ele>159.0</ele><time>2026-05-06T13:08:56.563Z</time></trkpt><trkpt lat="37.6078133" lon="12.9898483"><ele>159.0</ele><time>2026-05-06T13:08:57.564Z</time></trkpt><trkpt lat="37.6077033" lon="12.9901583"><ele>159.0</ele><time>2026-05-06T13:08:58.565Z</time></trkpt><trkpt lat="37.6075983" lon="12.9904733"><ele>159.0</ele><time>2026-05-06T13:08:59.564Z</time></trkpt><trkpt lat="37.607495" lon="12.9907883"><ele>159.0</ele><time>2026-05-06T13:09:00.563Z</time></trkpt><trkpt lat="37.6073983" lon="12.9911083"><ele>159.0</ele><time>2026-05-06T13:09:01.566Z</time></trkpt><trkpt lat="37.6073067" lon="12.9914317"><ele>159.0</ele><time>2026-05-06T13:09:02.566Z</time></trkpt><trkpt lat="37.60722" lon="12.991755"><ele>160.0</ele><time>2026-05-06T13:09:03.564Z</time></trkpt><trkpt lat="37.60714" lon="12.9920767"><ele>161.0</ele><time>2026-05-06T13:09:04.563Z</time></trkpt><trkpt lat="37.6070617" lon="12.9924"><ele>160.5</ele><time>2026-05-06T13:09:05.564Z</time></trkpt><trkpt lat="37.6069867" lon="12.9927233"><ele>160.0</ele><time>2026-05-06T13:09:06.564Z</time></trkpt><trkpt lat="37.606915" lon="12.993045"><ele>160.0</ele><time>2026-05-06T13:09:07.565Z</time></trkpt><trkpt lat="37.6068467" lon="12.9933567"><ele>160.0</ele><time>2026-05-06T13:09:08.565Z</time></trkpt><trkpt lat="37.6067867" lon="12.9936533"><ele>160.0</ele><time>2026-05-06T13:09:09.565Z</time></trkpt><trkpt lat="37.6067283" lon="12.9939417"><ele>160.0</ele><time>2026-05-06T13:09:10.564Z</time></trkpt><trkpt lat="37.6066683" lon="12.9942283"><ele>161.0</ele><time>2026-05-06T13:09:11.564Z</time></trkpt><trkpt lat="37.6066067" lon="12.9945117"><ele>162.0</ele><time>2026-05-06T13:09:12.565Z</time></trkpt><trkpt lat="37.6065483" lon="12.9947867"><ele>162.66666666666666</ele><time>2026-05-06T13:09:13.564Z</time></trkpt><trkpt lat="37.6064933" lon="12.9950467"><ele>163.33333333333331</ele><time>2026-05-06T13:09:14.564Z</time></trkpt><trkpt lat="37.606445" lon="12.9952933"><ele>164.0</ele><time>2026-05-06T13:09:15.564Z</time></trkpt><trkpt lat="37.6063967" lon="12.9955333"><ele>164.0</ele><time>2026-05-06T13:09:16.563Z</time></trkpt><trkpt lat="37.606345" lon="12.995775"><ele>164.0</ele><time>2026-05-06T13:09:17.564Z</time></trkpt><trkpt lat="37.6062967" lon="12.9960167"><ele>164.0</ele><time>2026-05-06T13:09:18.564Z</time></trkpt><trkpt lat="37.6062483" lon="12.99626"><ele>165.0</ele><time>2026-05-06T13:09:19.564Z</time></trkpt><trkpt lat="37.6061983" lon="12.996505"><ele>166.0</ele><time>2026-05-06T13:09:20.564Z</time></trkpt><trkpt lat="37.6061467" lon="12.996755"><ele>167.0</ele><time>2026-05-06T13:09:21.564Z</time></trkpt><trkpt lat="37.6060967" lon="12.9970067"><ele>164.0</ele><time>2026-05-06T13:09:22.564Z</time></trkpt><trkpt lat="37.606045" lon="12.9972617"><ele>161.0</ele><time>2026-05-06T13:09:23.564Z</time></trkpt><trkpt lat="37.60599" lon="12.9975167"><ele>158.0</ele><time>2026-05-06T13:09:24.564Z</time></trkpt><trkpt lat="37.6059333" lon="12.997775"><ele>155.33333333333331</ele><time>2026-05-06T13:09:25.563Z</time></trkpt><trkpt lat="37.605875" lon="12.9980333"><ele>152.66666666666666</ele><time>2026-05-06T13:09:26.564Z</time></trkpt><trkpt lat="37.6058183" lon="12.9982933"><ele>150.0</ele><time>2026-05-06T13:09:27.565Z</time></trkpt><trkpt lat="37.6057633" lon="12.9985567"><ele>146.66666666666666</ele><time>2026-05-06T13:09:28.566Z</time></trkpt><trkpt lat="37.6057083" lon="12.9988217"><ele>143.33333333333331</ele><time>2026-05-06T13:09:29.564Z</time></trkpt><trkpt lat="37.6056483" lon="12.9990883"><ele>140.0</ele><time>2026-05-06T13:09:30.564Z</time></trkpt><trkpt lat="37.6055867" lon="12.9993517"><ele>139.33333333333331</ele><time>2026-05-06T13:09:31.564Z</time></trkpt><trkpt lat="37.605525" lon="12.999615"><ele>138.66666666666666</ele><time>2026-05-06T13:09:32.567Z</time></trkpt><trkpt lat="37.60546" lon="12.9998833"><ele>138.0</ele><time>2026-05-06T13:09:33.563Z</time></trkpt><trkpt lat="37.605395" lon="13.00015"><ele>138.0</ele><time>2026-05-06T13:09:34.565Z</time></trkpt><trkpt lat="37.60533" lon="13.0004183"><ele>138.0</ele><time>2026-05-06T13:09:35.564Z</time></trkpt><trkpt lat="37.605265" lon="13.0006867"><ele>138.0</ele><time>2026-05-06T13:09:36.563Z</time></trkpt><trkpt lat="37.6051983" lon="13.0009533"><ele>137.66666666666666</ele><time>2026-05-06T13:09:37.565Z</time></trkpt><trkpt lat="37.60513" lon="13.00122"><ele>137.33333333333331</ele><time>2026-05-06T13:09:38.565Z</time></trkpt><trkpt lat="37.6050583" lon="13.0014867"><ele>137.0</ele><time>2026-05-06T13:09:39.565Z</time></trkpt><trkpt lat="37.604985" lon="13.0017533"><ele>140.0</ele><time>2026-05-06T13:09:40.564Z</time></trkpt><trkpt lat="37.60491" lon="13.0020217"><ele>143.0</ele><time>2026-05-06T13:09:41.564Z</time></trkpt><trkpt lat="37.6048317" lon="13.0022917"><ele>149.0</ele><time>2026-05-06T13:09:42.564Z</time></trkpt><trkpt lat="37.6047533" lon="13.0025633"><ele>155.0</ele><time>2026-05-06T13:09:43.564Z</time></trkpt><trkpt lat="37.60467" lon="13.0028333"><ele>155.0</ele><time>2026-05-06T13:09:44.564Z</time></trkpt><trkpt lat="37.6045833" lon="13.0031033"><ele>155.0</ele><time>2026-05-06T13:09:45.565Z</time></trkpt><trkpt lat="37.604495" lon="13.0033717"><ele>158.0</ele><time>2026-05-06T13:09:46.564Z</time></trkpt><trkpt lat="37.604405" lon="13.0036417"><ele>161.0</ele><time>2026-05-06T13:09:47.565Z</time></trkpt><trkpt lat="37.6043117" lon="13.0039133"><ele>161.5</ele><time>2026-05-06T13:09:48.566Z</time></trkpt><trkpt lat="37.6042167" lon="13.0041817"><ele>162.0</ele><time>2026-05-06T13:09:49.565Z</time></trkpt><trkpt lat="37.6041183" lon="13.0044483"><ele>162.0</ele><time>2026-05-06T13:09:50.565Z</time></trkpt><trkpt lat="37.6040167" lon="13.00471"><ele>162.0</ele><time>2026-05-06T13:09:51.564Z</time></trkpt><trkpt lat="37.6039133" lon="13.0049683"><ele>159.5</ele><time>2026-05-06T13:09:52.564Z</time></trkpt><trkpt lat="37.603805" lon="13.0052233"><ele>157.0</ele><time>2026-05-06T13:09:53.565Z</time></trkpt><trkpt lat="37.603695" lon="13.0054767"><ele>156.5</ele><time>2026-05-06T13:09:54.565Z</time></trkpt><trkpt lat="37.603585" lon="13.0057267"><ele>156.0</ele><time>2026-05-06T13:09:55.563Z</time></trkpt><trkpt lat="37.603475" lon="13.005975"><ele>156.0</ele><time>2026-05-06T13:09:56.565Z</time></trkpt><trkpt lat="37.6033617" lon="13.0062183"><ele>156.0</ele><time>2026-05-06T13:09:57.564Z</time></trkpt><trkpt lat="37.6032433" lon="13.0064633"><ele>158.0</ele><time>2026-05-06T13:09:58.566Z</time></trkpt><trkpt lat="37.6031217" lon="13.0067033"><ele>160.0</ele><time>2026-05-06T13:09:59.565Z</time></trkpt><trkpt lat="37.6029983" lon="13.0069417"><ele>160.0</ele><time>2026-05-06T13:10:00.564Z</time></trkpt><trkpt lat="37.60287" lon="13.0071783"><ele>160.0</ele><time>2026-05-06T13:10:01.565Z</time></trkpt><trkpt lat="37.6027367" lon="13.0074083"><ele>161.0</ele><time>2026-05-06T13:10:02.565Z</time></trkpt><trkpt lat="37.6026" lon="13.0076367"><ele>162.0</ele><time>2026-05-06T13:10:03.564Z</time></trkpt><trkpt lat="37.6024617" lon="13.007865"><ele>162.0</ele><time>2026-05-06T13:10:04.564Z</time></trkpt><trkpt lat="37.6023167" lon="13.0080883"><ele>162.0</ele><time>2026-05-06T13:10:05.565Z</time></trkpt><trkpt lat="37.60217" lon="13.0083083"><ele>163.5</ele><time>2026-05-06T13:10:06.565Z</time></trkpt><trkpt lat="37.6020167" lon="13.0085267"><ele>165.0</ele><time>2026-05-06T13:10:07.565Z</time></trkpt><trkpt lat="37.6018583" lon="13.0087417"><ele>163.0</ele><time>2026-05-06T13:10:08.565Z</time></trkpt><trkpt lat="37.601695" lon="13.0089533"><ele>161.0</ele><time>2026-05-06T13:10:09.565Z</time></trkpt><trkpt lat="37.60153" lon="13.009165"><ele>161.0</ele><time>2026-05-06T13:10:10.563Z</time></trkpt><trkpt lat="37.6013633" lon="13.0093733"><ele>161.0</ele><time>2026-05-06T13:10:11.57Z</time></trkpt><trkpt lat="37.6011933" lon="13.009575"><ele>161.0</ele><time>2026-05-06T13:10:12.564Z</time></trkpt><trkpt lat="37.6010217" lon="13.0097667"><ele>161.0</ele><time>2026-05-06T13:10:13.563Z</time></trkpt><trkpt lat="37.60086" lon="13.009945"><ele>161.0</ele><time>2026-05-06T13:10:14.564Z</time></trkpt><trkpt lat="37.6007017" lon="13.010115"><ele>161.0</ele><time>2026-05-06T13:10:15.565Z</time></trkpt><trkpt lat="37.6005533" lon="13.0102767"><ele>161.0</ele><time>2026-05-06T13:10:16.564Z</time></trkpt><trkpt lat="37.6004083" lon="13.0104283"><ele>161.0</ele><time>2026-05-06T13:10:17.565Z</time></trkpt><trkpt lat="37.6002633" lon="13.0105733"><ele>161.33333333333331</ele><time>2026-05-06T13:10:18.565Z</time></trkpt><trkpt lat="37.6001133" lon="13.0107183"><ele>161.66666666666666</ele><time>2026-05-06T13:10:19.566Z</time></trkpt><trkpt lat="37.59996" lon="13.0108633"><ele>162.0</ele><time>2026-05-06T13:10:20.566Z</time></trkpt><trkpt lat="37.5998017" lon="13.01101"><ele>162.0</ele><time>2026-05-06T13:10:21.564Z</time></trkpt><trkpt lat="37.59964" lon="13.0111617"><ele>162.0</ele><time>2026-05-06T13:10:22.564Z</time></trkpt><trkpt lat="37.5994733" lon="13.0113133"><ele>162.0</ele><time>2026-05-06T13:10:23.564Z</time></trkpt><trkpt lat="37.599305" lon="13.011465"><ele>160.66666666666666</ele><time>2026-05-06T13:10:24.565Z</time></trkpt><trkpt lat="37.599135" lon="13.0116133"><ele>159.33333333333331</ele><time>2026-05-06T13:10:25.563Z</time></trkpt><trkpt lat="37.5989617" lon="13.01176"><ele>158.0</ele><time>2026-05-06T13:10:26.564Z</time></trkpt><trkpt lat="37.5987833" lon="13.0119083"><ele>156.0</ele><time>2026-05-06T13:10:27.564Z</time></trkpt><trkpt lat="37.598605" lon="13.0120533"><ele>154.0</ele><time>2026-05-06T13:10:28.564Z</time></trkpt><trkpt lat="37.598425" lon="13.0121967"><ele>152.0</ele><time>2026-05-06T13:10:29.564Z</time></trkpt><trkpt lat="37.5982433" lon="13.0123383"><ele>152.0</ele><time>2026-05-06T13:10:30.564Z</time></trkpt><trkpt lat="37.5980633" lon="13.0124767"><ele>152.0</ele><time>2026-05-06T13:10:31.565Z</time></trkpt><trkpt lat="37.59788" lon="13.0126133"><ele>152.0</ele><time>2026-05-06T13:10:32.565Z</time></trkpt><trkpt lat="37.597695" lon="13.0127483"><ele>152.0</ele><time>2026-05-06T13:10:33.564Z</time></trkpt><trkpt lat="37.59751" lon="13.012885"><ele>152.0</ele><time>2026-05-06T13:10:34.563Z</time></trkpt><trkpt lat="37.59732" lon="13.0130183"><ele>152.0</ele><time>2026-05-06T13:10:35.564Z</time></trkpt><trkpt lat="37.59713" lon="13.01315"><ele>151.66666666666666</ele><time>2026-05-06T13:10:36.564Z</time></trkpt><trkpt lat="37.5969383" lon="13.01328"><ele>151.33333333333334</ele><time>2026-05-06T13:10:37.564Z</time></trkpt><trkpt lat="37.5967433" lon="13.01341"><ele>151.0</ele><time>2026-05-06T13:10:38.564Z</time></trkpt><trkpt lat="37.59655" lon="13.01354"><ele>152.0</ele><time>2026-05-06T13:10:39.564Z</time></trkpt><trkpt lat="37.596355" lon="13.0136683"><ele>153.0</ele><time>2026-05-06T13:10:40.563Z</time></trkpt><trkpt lat="37.596155" lon="13.0138"><ele>154.0</ele><time>2026-05-06T13:10:41.564Z</time></trkpt><trkpt lat="37.5959533" lon="13.01393"><ele>154.0</ele><time>2026-05-06T13:10:42.563Z</time></trkpt><trkpt lat="37.5957517" lon="13.0140583"><ele>154.0</ele><time>2026-05-06T13:10:43.565Z</time></trkpt><trkpt lat="37.5955517" lon="13.014185"><ele>154.33333333333334</ele><time>2026-05-06T13:10:44.563Z</time></trkpt><trkpt lat="37.5953533" lon="13.0143117"><ele>154.66666666666666</ele><time>2026-05-06T13:10:45.565Z</time></trkpt><trkpt lat="37.5951533" lon="13.0144367"><ele>155.0</ele><time>2026-05-06T13:10:46.566Z</time></trkpt><trkpt lat="37.5949533" lon="13.0145617"><ele>153.33333333333331</ele><time>2026-05-06T13:10:47.565Z</time></trkpt><trkpt lat="37.594755" lon="13.0146867"><ele>151.66666666666666</ele><time>2026-05-06T13:10:48.565Z</time></trkpt><trkpt lat="37.5945583" lon="13.0148117"><ele>150.0</ele><time>2026-05-06T13:10:49.565Z</time></trkpt><trkpt lat="37.594365" lon="13.0149317"><ele>149.33333333333334</ele><time>2026-05-06T13:10:50.565Z</time></trkpt><trkpt lat="37.5941783" lon="13.01505"><ele>148.66666666666669</ele><time>2026-05-06T13:10:51.565Z</time></trkpt><trkpt lat="37.59399" lon="13.015165"><ele>148.0</ele><time>2026-05-06T13:10:52.565Z</time></trkpt><trkpt lat="37.5938017" lon="13.0152817"><ele>147.0</ele><time>2026-05-06T13:10:53.564Z</time></trkpt><trkpt lat="37.59361" lon="13.0153983"><ele>146.0</ele><time>2026-05-06T13:10:54.563Z</time></trkpt><trkpt lat="37.593415" lon="13.0155183"><ele>145.0</ele><time>2026-05-06T13:10:55.564Z</time></trkpt><trkpt lat="37.5932167" lon="13.01564"><ele>145.0</ele><time>2026-05-06T13:10:56.564Z</time></trkpt><trkpt lat="37.5930167" lon="13.0157617"><ele>145.0</ele><time>2026-05-06T13:10:57.563Z</time></trkpt><trkpt lat="37.59281" lon="13.0158867"><ele>142.5</ele><time>2026-05-06T13:10:58.564Z</time></trkpt><trkpt lat="37.5926067" lon="13.0160117"><ele>140.0</ele><time>2026-05-06T13:10:59.564Z</time></trkpt><trkpt lat="37.5923983" lon="13.0161383"><ele>140.0</ele><time>2026-05-06T13:11:00.564Z</time></trkpt><trkpt lat="37.59219" lon="13.016265"><ele>140.0</ele><time>2026-05-06T13:11:01.564Z</time></trkpt><trkpt lat="37.5919833" lon="13.0163917"><ele>137.33333333333331</ele><time>2026-05-06T13:11:02.565Z</time></trkpt><trkpt lat="37.5917833" lon="13.016515"><ele>134.66666666666666</ele><time>2026-05-06T13:11:03.564Z</time></trkpt><trkpt lat="37.59159" lon="13.016635"><ele>132.0</ele><time>2026-05-06T13:11:04.565Z</time></trkpt><trkpt lat="37.5913967" lon="13.016755"><ele>130.66666666666666</ele><time>2026-05-06T13:11:05.564Z</time></trkpt><trkpt lat="37.5911983" lon="13.0168783"><ele>129.33333333333331</ele><time>2026-05-06T13:11:06.567Z</time></trkpt><trkpt lat="37.5909967" lon="13.017005"><ele>128.0</ele><time>2026-05-06T13:11:07.563Z</time></trkpt><trkpt lat="37.59079" lon="13.01713"><ele>124.0</ele><time>2026-05-06T13:11:08.572Z</time></trkpt><trkpt lat="37.5905817" lon="13.0172567"><ele>120.0</ele><time>2026-05-06T13:11:09.564Z</time></trkpt><trkpt lat="37.59037" lon="13.017385"><ele>110.0</ele><time>2026-05-06T13:11:10.567Z</time></trkpt><trkpt lat="37.59016" lon="13.0175117"><ele>100.0</ele><time>2026-05-06T13:11:11.563Z</time></trkpt><trkpt lat="37.589955" lon="13.0176383"><ele>100.0</ele><time>2026-05-06T13:11:12.564Z</time></trkpt><trkpt lat="37.58975" lon="13.0177633"><ele>100.0</ele><time>2026-05-06T13:11:13.564Z</time></trkpt><trkpt lat="37.589545" lon="13.0178883"><ele>97.0</ele><time>2026-05-06T13:11:14.565Z</time></trkpt><trkpt lat="37.5893383" lon="13.018015"><ele>94.0</ele><time>2026-05-06T13:11:15.564Z</time></trkpt><trkpt lat="37.5891317" lon="13.0181433"><ele>94.0</ele><time>2026-05-06T13:11:16.565Z</time></trkpt><trkpt lat="37.5889233" lon="13.01827"><ele>94.0</ele><time>2026-05-06T13:11:17.565Z</time></trkpt><trkpt lat="37.5887117" lon="13.0184"><ele>91.5</ele><time>2026-05-06T13:11:18.565Z</time></trkpt><trkpt lat="37.5884983" lon="13.01853"><ele>89.0</ele><time>2026-05-06T13:11:19.564Z</time></trkpt><trkpt lat="37.588285" lon="13.0186617"><ele>89.0</ele><time>2026-05-06T13:11:20.565Z</time></trkpt><trkpt lat="37.58807" lon="13.0187933"><ele>89.0</ele><time>2026-05-06T13:11:21.564Z</time></trkpt><trkpt lat="37.587855" lon="13.0189233"><ele>84.0</ele><time>2026-05-06T13:11:22.564Z</time></trkpt><trkpt lat="37.5876383" lon="13.0190583"><ele>79.0</ele><time>2026-05-06T13:11:23.565Z</time></trkpt><trkpt lat="37.58742" lon="13.0191933"><ele>79.0</ele><time>2026-05-06T13:11:24.565Z</time></trkpt><trkpt lat="37.5872033" lon="13.01933"><ele>79.0</ele><time>2026-05-06T13:11:25.564Z</time></trkpt><trkpt lat="37.5869883" lon="13.0194633"><ele>72.0</ele><time>2026-05-06T13:11:26.564Z</time></trkpt><trkpt lat="37.5867733" lon="13.0195967"><ele>65.0</ele><time>2026-05-06T13:11:27.564Z</time></trkpt><trkpt lat="37.5865583" lon="13.0197283"><ele>65.0</ele><time>2026-05-06T13:11:28.563Z</time></trkpt><trkpt lat="37.586345" lon="13.01986"><ele>65.0</ele><time>2026-05-06T13:11:29.565Z</time></trkpt><trkpt lat="37.5861333" lon="13.0199917"><ele>59.5</ele><time>2026-05-06T13:11:30.564Z</time></trkpt><trkpt lat="37.5859233" lon="13.0201217"><ele>54.0</ele><time>2026-05-06T13:11:31.565Z</time></trkpt><trkpt lat="37.585715" lon="13.0202517"><ele>54.0</ele><time>2026-05-06T13:11:32.564Z</time></trkpt><trkpt lat="37.5855067" lon="13.0203817"><ele>54.0</ele><time>2026-05-06T13:11:33.563Z</time></trkpt><trkpt lat="37.5853" lon="13.0205133"><ele>51.5</ele><time>2026-05-06T13:11:34.564Z</time></trkpt><trkpt lat="37.5850933" lon="13.020645"><ele>49.0</ele><time>2026-05-06T13:11:35.564Z</time></trkpt><trkpt lat="37.584885" lon="13.0207783"><ele>49.0</ele><time>2026-05-06T13:11:36.565Z</time></trkpt><trkpt lat="37.5846817" lon="13.0209133"><ele>49.0</ele><time>2026-05-06T13:11:37.563Z</time></trkpt><trkpt lat="37.5844783" lon="13.0210483"><ele>49.0</ele><time>2026-05-06T13:11:38.564Z</time></trkpt><trkpt lat="37.5842717" lon="13.0211867"><ele>49.0</ele><time>2026-05-06T13:11:39.564Z</time></trkpt><trkpt lat="37.5840667" lon="13.0213283"><ele>49.0</ele><time>2026-05-06T13:11:40.563Z</time></trkpt><trkpt lat="37.5838633" lon="13.0214717"><ele>49.0</ele><time>2026-05-06T13:11:41.564Z</time></trkpt><trkpt lat="37.58366" lon="13.0216167"><ele>51.0</ele><time>2026-05-06T13:11:42.565Z</time></trkpt><trkpt lat="37.5834567" lon="13.021765"><ele>53.0</ele><time>2026-05-06T13:11:43.564Z</time></trkpt><trkpt lat="37.5832533" lon="13.0219167"><ele>53.0</ele><time>2026-05-06T13:11:44.564Z</time></trkpt><trkpt lat="37.5830483" lon="13.0220683"><ele>53.0</ele><time>2026-05-06T13:11:45.563Z</time></trkpt><trkpt lat="37.582845" lon="13.0222217"><ele>52.5</ele><time>2026-05-06T13:11:46.564Z</time></trkpt><trkpt lat="37.5826417" lon="13.0223767"><ele>52.0</ele><time>2026-05-06T13:11:47.564Z</time></trkpt><trkpt lat="37.5824383" lon="13.0225333"><ele>51.5</ele><time>2026-05-06T13:11:48.564Z</time></trkpt><trkpt lat="37.5822383" lon="13.0226933"><ele>51.0</ele><time>2026-05-06T13:11:49.565Z</time></trkpt><trkpt lat="37.5820367" lon="13.0228533"><ele>51.5</ele><time>2026-05-06T13:11:50.565Z</time></trkpt><trkpt lat="37.58184" lon="13.0230133"><ele>52.0</ele><time>2026-05-06T13:11:51.566Z</time></trkpt><trkpt lat="37.5816417" lon="13.023175"><ele>52.5</ele><time>2026-05-06T13:11:52.566Z</time></trkpt><trkpt lat="37.581445" lon="13.0233383"><ele>53.0</ele><time>2026-05-06T13:11:53.566Z</time></trkpt><trkpt lat="37.5812517" lon="13.0235017"><ele>54.5</ele><time>2026-05-06T13:11:54.564Z</time></trkpt><trkpt lat="37.58106" lon="13.0236667"><ele>56.0</ele><time>2026-05-06T13:11:55.658Z</time></trkpt><trkpt lat="37.5808667" lon="13.023835"><ele>56.0</ele><time>2026-05-06T13:11:56.564Z</time></trkpt><trkpt lat="37.5806733" lon="13.0240017"><ele>56.0</ele><time>2026-05-06T13:11:57.564Z</time></trkpt><trkpt lat="37.5804833" lon="13.02417"><ele>58.66666666666667</ele><time>2026-05-06T13:11:58.564Z</time></trkpt><trkpt lat="37.5802967" lon="13.0243383"><ele>61.33333333333333</ele><time>2026-05-06T13:11:59.57Z</time></trkpt><trkpt lat="37.5801217" lon="13.0244983"><ele>64.0</ele><time>2026-05-06T13:12:00.563Z</time></trkpt><trkpt lat="37.579955" lon="13.0246517"><ele>64.0</ele><time>2026-05-06T13:12:01.565Z</time></trkpt><trkpt lat="37.5797917" lon="13.0247983"><ele>64.0</ele><time>2026-05-06T13:12:02.566Z</time></trkpt><trkpt lat="37.57963" lon="13.02495"><ele>64.0</ele><time>2026-05-06T13:12:03.565Z</time></trkpt><trkpt lat="37.57947" lon="13.025105"><ele>67.0</ele><time>2026-05-06T13:12:04.566Z</time></trkpt><trkpt lat="37.57931" lon="13.0252617"><ele>70.0</ele><time>2026-05-06T13:12:05.565Z</time></trkpt><trkpt lat="37.5791483" lon="13.025415"><ele>73.0</ele><time>2026-05-06T13:12:06.565Z</time></trkpt><trkpt lat="37.5789883" lon="13.02557"><ele>73.0</ele><time>2026-05-06T13:12:07.565Z</time></trkpt><trkpt lat="37.5788267" lon="13.02573"><ele>73.0</ele><time>2026-05-06T13:12:08.565Z</time></trkpt><trkpt lat="37.578665" lon="13.0258917"><ele>73.0</ele><time>2026-05-06T13:12:09.565Z</time></trkpt><trkpt lat="37.578505" lon="13.0260567"><ele>79.66666666666666</ele><time>2026-05-06T13:12:10.564Z</time></trkpt><trkpt lat="37.578345" lon="13.0262217"><ele>86.33333333333333</ele><time>2026-05-06T13:12:11.565Z</time></trkpt><trkpt lat="37.5781867" lon="13.0263883"><ele>93.0</ele><time>2026-05-06T13:12:12.565Z</time></trkpt><trkpt lat="37.578025" lon="13.0265533"><ele>95.0</ele><time>2026-05-06T13:12:13.565Z</time></trkpt><trkpt lat="37.577865" lon="13.02672"><ele>97.0</ele><time>2026-05-06T13:12:14.565Z</time></trkpt><trkpt lat="37.577705" lon="13.0268883"><ele>99.0</ele><time>2026-05-06T13:12:15.565Z</time></trkpt><trkpt lat="37.5775467" lon="13.027055"><ele>104.33333333333334</ele><time>2026-05-06T13:12:16.564Z</time></trkpt><trkpt lat="37.5773883" lon="13.0272233"><ele>109.66666666666667</ele><time>2026-05-06T13:12:17.563Z</time></trkpt><trkpt lat="37.57723" lon="13.02739"><ele>115.0</ele><time>2026-05-06T13:12:18.563Z</time></trkpt><trkpt lat="37.5770717" lon="13.0275567"><ele>120.66666666666667</ele><time>2026-05-06T13:12:19.565Z</time></trkpt><trkpt lat="37.5769167" lon="13.0277217"><ele>126.33333333333334</ele><time>2026-05-06T13:12:20.564Z</time></trkpt><trkpt lat="37.5767617" lon="13.027885"><ele>132.0</ele><time>2026-05-06T13:12:21.566Z</time></trkpt><trkpt lat="37.5766083" lon="13.02805"><ele>132.0</ele><time>2026-05-06T13:12:22.567Z</time></trkpt><trkpt lat="37.576455" lon="13.028215"><ele>132.0</ele><time>2026-05-06T13:12:23.564Z</time></trkpt><trkpt lat="37.5763" lon="13.02838"><ele>132.0</ele><time>2026-05-06T13:12:24.566Z</time></trkpt><trkpt lat="37.5761433" lon="13.028545"><ele>132.33333333333334</ele><time>2026-05-06T13:12:25.564Z</time></trkpt><trkpt lat="37.5759867" lon="13.0287133"><ele>132.66666666666669</ele><time>2026-05-06T13:12:26.564Z</time></trkpt><trkpt lat="37.57583" lon="13.028885"><ele>133.0</ele><time>2026-05-06T13:12:27.564Z</time></trkpt><trkpt lat="37.5756717" lon="13.0290617"><ele>133.66666666666669</ele><time>2026-05-06T13:12:28.563Z</time></trkpt><trkpt lat="37.5755117" lon="13.0292433"><ele>134.33333333333334</ele><time>2026-05-06T13:12:29.564Z</time></trkpt><trkpt lat="37.575355" lon="13.0294267"><ele>135.0</ele><time>2026-05-06T13:12:30.565Z</time></trkpt><trkpt lat="37.5752" lon="13.0296133"><ele>135.0</ele><time>2026-05-06T13:12:31.564Z</time></trkpt><trkpt lat="37.5750433" lon="13.0298067"><ele>135.0</ele><time>2026-05-06T13:12:32.565Z</time></trkpt><trkpt lat="37.5748883" lon="13.03"><ele>135.0</ele><time>2026-05-06T13:12:33.563Z</time></trkpt><trkpt lat="37.5747317" lon="13.0302"><ele>135.66666666666666</ele><time>2026-05-06T13:12:34.564Z</time></trkpt><trkpt lat="37.5745733" lon="13.0304"><ele>136.33333333333331</ele><time>2026-05-06T13:12:35.564Z</time></trkpt><trkpt lat="37.57442" lon="13.030605"><ele>137.0</ele><time>2026-05-06T13:12:36.564Z</time></trkpt><trkpt lat="37.5742683" lon="13.0308167"><ele>140.0</ele><time>2026-05-06T13:12:37.563Z</time></trkpt><trkpt lat="37.57412" lon="13.03103"><ele>143.0</ele><time>2026-05-06T13:12:38.565Z</time></trkpt><trkpt lat="37.573975" lon="13.0312467"><ele>143.0</ele><time>2026-05-06T13:12:39.563Z</time></trkpt><trkpt lat="37.5738317" lon="13.031465"><ele>143.0</ele><time>2026-05-06T13:12:40.563Z</time></trkpt><trkpt lat="37.5736867" lon="13.0316817"><ele>143.0</ele><time>2026-05-06T13:12:41.564Z</time></trkpt><trkpt lat="37.5735433" lon="13.0318983"><ele>144.33333333333331</ele><time>2026-05-06T13:12:42.564Z</time></trkpt><trkpt lat="37.5734017" lon="13.0321117"><ele>145.66666666666666</ele><time>2026-05-06T13:12:43.564Z</time></trkpt><trkpt lat="37.5732533" lon="13.0323183"><ele>147.0</ele><time>2026-05-06T13:12:44.563Z</time></trkpt><trkpt lat="37.5731" lon="13.0325167"><ele>147.33333333333334</ele><time>2026-05-06T13:12:45.564Z</time></trkpt><trkpt lat="37.5729417" lon="13.0327083"><ele>147.66666666666669</ele><time>2026-05-06T13:12:46.564Z</time></trkpt><trkpt lat="37.5727833" lon="13.0328967"><ele>148.0</ele><time>2026-05-06T13:12:47.564Z</time></trkpt><trkpt lat="37.5726183" lon="13.03308"><ele>148.0</ele><time>2026-05-06T13:12:48.565Z</time></trkpt><trkpt lat="37.57245" lon="13.03326"><ele>148.0</ele><time>2026-05-06T13:12:49.565Z</time></trkpt><trkpt lat="37.5722783" lon="13.0334333"><ele>148.0</ele><time>2026-05-06T13:12:50.566Z</time></trkpt><trkpt lat="37.5721017" lon="13.0336017"><ele>148.33333333333334</ele><time>2026-05-06T13:12:51.565Z</time></trkpt><trkpt lat="37.5719233" lon="13.033765"><ele>148.66666666666666</ele><time>2026-05-06T13:12:52.563Z</time></trkpt><trkpt lat="37.5717433" lon="13.03392"><ele>149.0</ele><time>2026-05-06T13:12:53.565Z</time></trkpt><trkpt lat="37.5715567" lon="13.0340667"><ele>149.33333333333331</ele><time>2026-05-06T13:12:54.564Z</time></trkpt><trkpt lat="37.5713667" lon="13.0342033"><ele>149.66666666666666</ele><time>2026-05-06T13:12:55.564Z</time></trkpt><trkpt lat="37.5711683" lon="13.034335"><ele>150.0</ele><time>2026-05-06T13:12:56.565Z</time></trkpt><trkpt lat="37.570965" lon="13.034465"><ele>148.5</ele><time>2026-05-06T13:12:57.564Z</time></trkpt><trkpt lat="37.5707567" lon="13.03459"><ele>147.0</ele><time>2026-05-06T13:12:58.564Z</time></trkpt><trkpt lat="37.5705417" lon="13.0347067"><ele>146.5</ele><time>2026-05-06T13:12:59.564Z</time></trkpt><trkpt lat="37.5703233" lon="13.0348167"><ele>146.0</ele><time>2026-05-06T13:13:00.564Z</time></trkpt><trkpt lat="37.570105" lon="13.0349183"><ele>147.0</ele><time>2026-05-06T13:13:01.563Z</time></trkpt><trkpt lat="37.5698833" lon="13.0350133"><ele>148.0</ele><time>2026-05-06T13:13:02.564Z</time></trkpt><trkpt lat="37.5696567" lon="13.0351067"><ele>148.0</ele><time>2026-05-06T13:13:03.563Z</time></trkpt><trkpt lat="37.5694283" lon="13.0352"><ele>148.0</ele><time>2026-05-06T13:13:04.564Z</time></trkpt><trkpt lat="37.5691983" lon="13.0352933"><ele>148.0</ele><time>2026-05-06T13:13:05.563Z</time></trkpt><trkpt lat="37.56897" lon="13.0353883"><ele>148.0</ele><time>2026-05-06T13:13:06.564Z</time></trkpt><trkpt lat="37.56874" lon="13.0354817"><ele>148.0</ele><time>2026-05-06T13:13:07.563Z</time></trkpt><trkpt lat="37.5685117" lon="13.035575"><ele>148.0</ele><time>2026-05-06T13:13:08.565Z</time></trkpt><trkpt lat="37.5682833" lon="13.0356683"><ele>148.0</ele><time>2026-05-06T13:13:09.564Z</time></trkpt><trkpt lat="37.568055" lon="13.03576"><ele>148.0</ele><time>2026-05-06T13:13:10.563Z</time></trkpt><trkpt lat="37.5678283" lon="13.0358517"><ele>148.5</ele><time>2026-05-06T13:13:11.564Z</time></trkpt><trkpt lat="37.567605" lon="13.035945"><ele>149.0</ele><time>2026-05-06T13:13:12.564Z</time></trkpt><trkpt lat="37.5673817" lon="13.0360367"><ele>149.0</ele><time>2026-05-06T13:13:13.565Z</time></trkpt><trkpt lat="37.5671583" lon="13.03613"><ele>149.0</ele><time>2026-05-06T13:13:14.564Z</time></trkpt><trkpt lat="37.566935" lon="13.036225"><ele>147.5</ele><time>2026-05-06T13:13:15.564Z</time></trkpt><trkpt lat="37.5667133" lon="13.0363183"><ele>146.0</ele><time>2026-05-06T13:13:16.564Z</time></trkpt><trkpt lat="37.5664917" lon="13.0364117"><ele>146.0</ele><time>2026-05-06T13:13:17.564Z</time></trkpt><trkpt lat="37.5662717" lon="13.0365033"><ele>146.0</ele><time>2026-05-06T13:13:18.564Z</time></trkpt><trkpt lat="37.56605" lon="13.036595"><ele>144.5</ele><time>2026-05-06T13:13:19.565Z</time></trkpt><trkpt lat="37.56583" lon="13.036685"><ele>143.0</ele><time>2026-05-06T13:13:20.565Z</time></trkpt><trkpt lat="37.5656117" lon="13.0367733"><ele>143.0</ele><time>2026-05-06T13:13:21.564Z</time></trkpt><trkpt lat="37.5653917" lon="13.03686"><ele>143.0</ele><time>2026-05-06T13:13:22.564Z</time></trkpt><trkpt lat="37.56517" lon="13.03695"><ele>143.0</ele><time>2026-05-06T13:13:23.566Z</time></trkpt><trkpt lat="37.56495" lon="13.0370417"><ele>143.0</ele><time>2026-05-06T13:13:24.565Z</time></trkpt><trkpt lat="37.56473" lon="13.0371317"><ele>143.0</ele><time>2026-05-06T13:13:25.564Z</time></trkpt><trkpt lat="37.56451" lon="13.0372217"><ele>143.0</ele><time>2026-05-06T13:13:26.564Z</time></trkpt><trkpt lat="37.56429" lon="13.0373133"><ele>143.0</ele><time>2026-05-06T13:13:27.565Z</time></trkpt><trkpt lat="37.5640683" lon="13.037405"><ele>143.0</ele><time>2026-05-06T13:13:28.564Z</time></trkpt><trkpt lat="37.5638467" lon="13.0374967"><ele>144.0</ele><time>2026-05-06T13:13:29.563Z</time></trkpt><trkpt lat="37.5636233" lon="13.0375883"><ele>145.0</ele><time>2026-05-06T13:13:30.563Z</time></trkpt><trkpt lat="37.5634" lon="13.03768"><ele>145.0</ele><time>2026-05-06T13:13:31.565Z</time></trkpt><trkpt lat="37.5631767" lon="13.0377717"><ele>145.0</ele><time>2026-05-06T13:13:32.564Z</time></trkpt><trkpt lat="37.5629533" lon="13.0378633"><ele>144.5</ele><time>2026-05-06T13:13:33.564Z</time></trkpt><trkpt lat="37.56273" lon="13.0379517"><ele>144.0</ele><time>2026-05-06T13:13:34.563Z</time></trkpt><trkpt lat="37.56251" lon="13.0380417"><ele>144.0</ele><time>2026-05-06T13:13:35.564Z</time></trkpt><trkpt lat="37.5622883" lon="13.0381333"><ele>144.0</ele><time>2026-05-06T13:13:36.564Z</time></trkpt><trkpt lat="37.5620683" lon="13.0382233"><ele>144.0</ele><time>2026-05-06T13:13:37.564Z</time></trkpt><trkpt lat="37.56185" lon="13.0383133"><ele>144.0</ele><time>2026-05-06T13:13:38.565Z</time></trkpt><trkpt lat="37.5616317" lon="13.0384033"><ele>144.0</ele><time>2026-05-06T13:13:39.564Z</time></trkpt><trkpt lat="37.5614133" lon="13.0384917"><ele>144.0</ele><time>2026-05-06T13:13:40.564Z</time></trkpt><trkpt lat="37.561195" lon="13.0385817"><ele>145.0</ele><time>2026-05-06T13:13:41.563Z</time></trkpt><trkpt lat="37.5609767" lon="13.0386733"><ele>146.0</ele><time>2026-05-06T13:13:42.564Z</time></trkpt><trkpt lat="37.5607583" lon="13.0387633"><ele>146.0</ele><time>2026-05-06T13:13:43.564Z</time></trkpt><trkpt lat="37.5605417" lon="13.0388517"><ele>146.0</ele><time>2026-05-06T13:13:44.565Z</time></trkpt><trkpt lat="37.560325" lon="13.0389433"><ele>145.0</ele><time>2026-05-06T13:13:45.564Z</time></trkpt><trkpt lat="37.5601083" lon="13.039035"><ele>144.0</ele><time>2026-05-06T13:13:46.564Z</time></trkpt><trkpt lat="37.5598917" lon="13.0391267"><ele>144.5</ele><time>2026-05-06T13:13:47.564Z</time></trkpt><trkpt lat="37.5596767" lon="13.03922"><ele>145.0</ele><time>2026-05-06T13:13:48.565Z</time></trkpt><trkpt lat="37.5594633" lon="13.0393167"><ele>145.0</ele><time>2026-05-06T13:13:49.564Z</time></trkpt><trkpt lat="37.5592517" lon="13.0394167"><ele>145.0</ele><time>2026-05-06T13:13:50.565Z</time></trkpt><trkpt lat="37.55904" lon="13.0395183"><ele>145.0</ele><time>2026-05-06T13:13:51.564Z</time></trkpt><trkpt lat="37.5588283" lon="13.0396217"><ele>145.0</ele><time>2026-05-06T13:13:52.564Z</time></trkpt><trkpt lat="37.5586183" lon="13.03973"><ele>142.5</ele><time>2026-05-06T13:13:53.564Z</time></trkpt><trkpt lat="37.5584083" lon="13.03984"><ele>140.0</ele><time>2026-05-06T13:13:54.564Z</time></trkpt><trkpt lat="37.5581983" lon="13.03995"><ele>140.5</ele><time>2026-05-06T13:13:55.563Z</time></trkpt><trkpt lat="37.5579883" lon="13.0400617"><ele>141.0</ele><time>2026-05-06T13:13:56.565Z</time></trkpt><trkpt lat="37.557775" lon="13.040175"><ele>141.0</ele><time>2026-05-06T13:13:57.564Z</time></trkpt><trkpt lat="37.557565" lon="13.0402917"><ele>141.0</ele><time>2026-05-06T13:13:58.563Z</time></trkpt><trkpt lat="37.557355" lon="13.04041"><ele>141.0</ele><time>2026-05-06T13:13:59.563Z</time></trkpt><trkpt lat="37.5571467" lon="13.04053"><ele>141.0</ele><time>2026-05-06T13:14:00.564Z</time></trkpt><trkpt lat="37.5569367" lon="13.0406533"><ele>141.5</ele><time>2026-05-06T13:14:01.563Z</time></trkpt><trkpt lat="37.5567283" lon="13.0407783"><ele>142.0</ele><time>2026-05-06T13:14:02.564Z</time></trkpt><trkpt lat="37.5565217" lon="13.0409067"><ele>142.0</ele><time>2026-05-06T13:14:03.565Z</time></trkpt><trkpt lat="37.556315" lon="13.0410383"><ele>142.0</ele><time>2026-05-06T13:14:04.564Z</time></trkpt><trkpt lat="37.5561083" lon="13.04117"><ele>140.0</ele><time>2026-05-06T13:14:05.564Z</time></trkpt><trkpt lat="37.5559017" lon="13.041305"><ele>138.0</ele><time>2026-05-06T13:14:06.564Z</time></trkpt><trkpt lat="37.555695" lon="13.0414433"><ele>138.0</ele><time>2026-05-06T13:14:07.564Z</time></trkpt><trkpt lat="37.5554883" lon="13.0415833"><ele>138.0</ele><time>2026-05-06T13:14:08.564Z</time></trkpt><trkpt lat="37.5552767" lon="13.041725"><ele>138.5</ele><time>2026-05-06T13:14:09.563Z</time></trkpt><trkpt lat="37.555065" lon="13.0418683"><ele>139.0</ele><time>2026-05-06T13:14:10.564Z</time></trkpt><trkpt lat="37.5548517" lon="13.0420133"><ele>139.0</ele><time>2026-05-06T13:14:11.564Z</time></trkpt><trkpt lat="37.5546383" lon="13.0421583"><ele>139.0</ele><time>2026-05-06T13:14:12.564Z</time></trkpt><trkpt lat="37.554425" lon="13.042305"><ele>139.0</ele><time>2026-05-06T13:14:13.565Z</time></trkpt><trkpt lat="37.5542133" lon="13.04245"><ele>139.0</ele><time>2026-05-06T13:14:14.564Z</time></trkpt><trkpt lat="37.5540017" lon="13.0425933"><ele>139.0</ele><time>2026-05-06T13:14:15.564Z</time></trkpt><trkpt lat="37.5537933" lon="13.0427367"><ele>139.0</ele><time>2026-05-06T13:14:16.565Z</time></trkpt><trkpt lat="37.5535867" lon="13.0428783"><ele>139.0</ele><time>2026-05-06T13:14:17.564Z</time></trkpt><trkpt lat="37.553385" lon="13.0430183"><ele>139.0</ele><time>2026-05-06T13:14:18.563Z</time></trkpt><trkpt lat="37.5531833" lon="13.0431583"><ele>139.0</ele><time>2026-05-06T13:14:19.564Z</time></trkpt><trkpt lat="37.5529833" lon="13.0432967"><ele>139.0</ele><time>2026-05-06T13:14:20.565Z</time></trkpt><trkpt lat="37.552785" lon="13.0434333"><ele>138.0</ele><time>2026-05-06T13:14:21.564Z</time></trkpt><trkpt lat="37.5525867" lon="13.0435683"><ele>137.0</ele><time>2026-05-06T13:14:22.564Z</time></trkpt><trkpt lat="37.55239" lon="13.0437067"><ele>137.0</ele><time>2026-05-06T13:14:23.564Z</time></trkpt><trkpt lat="37.5521917" lon="13.0438433"><ele>137.0</ele><time>2026-05-06T13:14:24.563Z</time></trkpt><trkpt lat="37.5519883" lon="13.04398"><ele>137.0</ele><time>2026-05-06T13:14:25.564Z</time></trkpt><trkpt lat="37.5517867" lon="13.0441183"><ele>137.0</ele><time>2026-05-06T13:14:26.563Z</time></trkpt><trkpt lat="37.5515833" lon="13.0442583"><ele>137.5</ele><time>2026-05-06T13:14:27.564Z</time></trkpt><trkpt lat="37.55138" lon="13.0443967"><ele>138.0</ele><time>2026-05-06T13:14:28.563Z</time></trkpt><trkpt lat="37.551175" lon="13.0445383"><ele>138.0</ele><time>2026-05-06T13:14:29.564Z</time></trkpt><trkpt lat="37.5509683" lon="13.0446817"><ele>138.0</ele><time>2026-05-06T13:14:30.565Z</time></trkpt><trkpt lat="37.5507633" lon="13.044825"><ele>137.5</ele><time>2026-05-06T13:14:31.564Z</time></trkpt><trkpt lat="37.5505567" lon="13.04497"><ele>137.0</ele><time>2026-05-06T13:14:32.564Z</time></trkpt><trkpt lat="37.5503517" lon="13.0451133"><ele>137.0</ele><time>2026-05-06T13:14:33.564Z</time></trkpt><trkpt lat="37.550145" lon="13.045255"><ele>137.0</ele><time>2026-05-06T13:14:34.563Z</time></trkpt><trkpt lat="37.54994" lon="13.0453967"><ele>137.0</ele><time>2026-05-06T13:14:35.564Z</time></trkpt><trkpt lat="37.5497333" lon="13.045535"><ele>137.0</ele><time>2026-05-06T13:14:36.564Z</time></trkpt><trkpt lat="37.54953" lon="13.0456733"><ele>136.0</ele><time>2026-05-06T13:14:37.566Z</time></trkpt><trkpt lat="37.54933" lon="13.04581"><ele>135.0</ele><time>2026-05-06T13:14:38.564Z</time></trkpt><trkpt lat="37.5491333" lon="13.0459433"><ele>135.0</ele><time>2026-05-06T13:14:39.566Z</time></trkpt><trkpt lat="37.5489383" lon="13.0460767"><ele>135.0</ele><time>2026-05-06T13:14:40.564Z</time></trkpt><trkpt lat="37.548745" lon="13.04621"><ele>135.0</ele><time>2026-05-06T13:14:41.563Z</time></trkpt><trkpt lat="37.5485517" lon="13.0463433"><ele>135.0</ele><time>2026-05-06T13:14:42.564Z</time></trkpt><trkpt lat="37.5483583" lon="13.0464767"><ele>135.0</ele><time>2026-05-06T13:14:43.564Z</time></trkpt><trkpt lat="37.5481667" lon="13.0466083"><ele>135.0</ele><time>2026-05-06T13:14:44.565Z</time></trkpt><trkpt lat="37.5479767" lon="13.04674"><ele>135.0</ele><time>2026-05-06T13:14:45.564Z</time></trkpt><trkpt lat="37.547785" lon="13.0468733"><ele>135.0</ele><time>2026-05-06T13:14:46.563Z</time></trkpt><trkpt lat="37.5475917" lon="13.0470067"><ele>135.0</ele><time>2026-05-06T13:14:47.563Z</time></trkpt><trkpt lat="37.5474017" lon="13.0471367"><ele>135.0</ele><time>2026-05-06T13:14:48.564Z</time></trkpt><trkpt lat="37.54721" lon="13.0472683"><ele>135.0</ele><time>2026-05-06T13:14:49.564Z</time></trkpt><trkpt lat="37.5470167" lon="13.0474"><ele>135.0</ele><time>2026-05-06T13:14:50.563Z</time></trkpt><trkpt lat="37.546825" lon="13.0475317"><ele>134.0</ele><time>2026-05-06T13:14:51.564Z</time></trkpt><trkpt lat="37.54663" lon="13.047665"><ele>133.0</ele><time>2026-05-06T13:14:52.563Z</time></trkpt><trkpt lat="37.5464333" lon="13.0477983"><ele>132.0</ele><time>2026-05-06T13:14:53.564Z</time></trkpt><trkpt lat="37.54624" lon="13.0479333"><ele>132.0</ele><time>2026-05-06T13:14:54.564Z</time></trkpt><trkpt lat="37.5460433" lon="13.0480717"><ele>132.0</ele><time>2026-05-06T13:14:55.565Z</time></trkpt><trkpt lat="37.5458483" lon="13.0482067"><ele>132.0</ele><time>2026-05-06T13:14:56.564Z</time></trkpt><trkpt lat="37.5456533" lon="13.0483433"><ele>132.0</ele><time>2026-05-06T13:14:57.564Z</time></trkpt><trkpt lat="37.545455" lon="13.0484767"><ele>132.0</ele><time>2026-05-06T13:14:58.563Z</time></trkpt><trkpt lat="37.5452583" lon="13.04861"><ele>132.0</ele><time>2026-05-06T13:14:59.563Z</time></trkpt><trkpt lat="37.5450617" lon="13.0487417"><ele>131.66666666666666</ele><time>2026-05-06T13:15:00.564Z</time></trkpt><trkpt lat="37.5448633" lon="13.0488733"><ele>131.33333333333331</ele><time>2026-05-06T13:15:01.564Z</time></trkpt><trkpt lat="37.544665" lon="13.049"><ele>131.0</ele><time>2026-05-06T13:15:02.563Z</time></trkpt><trkpt lat="37.5444633" lon="13.0491217"><ele>131.33333333333331</ele><time>2026-05-06T13:15:03.563Z</time></trkpt><trkpt lat="37.5442683" lon="13.04924"><ele>131.66666666666666</ele><time>2026-05-06T13:15:04.563Z</time></trkpt><trkpt lat="37.5440767" lon="13.049355"><ele>132.0</ele><time>2026-05-06T13:15:05.564Z</time></trkpt><trkpt lat="37.543885" lon="13.0494683"><ele>131.66666666666666</ele><time>2026-05-06T13:15:06.564Z</time></trkpt><trkpt lat="37.5436933" lon="13.0495817"><ele>131.33333333333331</ele><time>2026-05-06T13:15:07.564Z</time></trkpt><trkpt lat="37.5434967" lon="13.0496967"><ele>131.0</ele><time>2026-05-06T13:15:08.563Z</time></trkpt><trkpt lat="37.5433" lon="13.04981"><ele>131.0</ele><time>2026-05-06T13:15:09.563Z</time></trkpt><trkpt lat="37.5430983" lon="13.0499233"><ele>131.0</ele><time>2026-05-06T13:15:10.563Z</time></trkpt><trkpt lat="37.5428967" lon="13.050035"><ele>131.0</ele><time>2026-05-06T13:15:11.565Z</time></trkpt><trkpt lat="37.5427033" lon="13.0501433"><ele>130.33333333333331</ele><time>2026-05-06T13:15:12.564Z</time></trkpt><trkpt lat="37.5425167" lon="13.0502483"><ele>129.66666666666666</ele><time>2026-05-06T13:15:13.564Z</time></trkpt><trkpt lat="37.5423383" lon="13.0503483"><ele>129.0</ele><time>2026-05-06T13:15:14.564Z</time></trkpt><trkpt lat="37.5421617" lon="13.0504433"><ele>128.33333333333334</ele><time>2026-05-06T13:15:15.564Z</time></trkpt><trkpt lat="37.5419867" lon="13.0505417"><ele>127.66666666666667</ele><time>2026-05-06T13:15:16.563Z</time></trkpt><trkpt lat="37.5418133" lon="13.0506417"><ele>127.0</ele><time>2026-05-06T13:15:17.564Z</time></trkpt><trkpt lat="37.5416367" lon="13.0507383"><ele>127.0</ele><time>2026-05-06T13:15:18.565Z</time></trkpt><trkpt lat="37.5414533" lon="13.0508417"><ele>127.0</ele><time>2026-05-06T13:15:19.564Z</time></trkpt><trkpt lat="37.5412667" lon="13.05095"><ele>127.0</ele><time>2026-05-06T13:15:20.563Z</time></trkpt><trkpt lat="37.5410767" lon="13.0510617"><ele>127.0</ele><time>2026-05-06T13:15:21.563Z</time></trkpt><trkpt lat="37.540885" lon="13.05118"><ele>127.0</ele><time>2026-05-06T13:15:22.563Z</time></trkpt><trkpt lat="37.5406883" lon="13.051295"><ele>127.0</ele><time>2026-05-06T13:15:23.565Z</time></trkpt><trkpt lat="37.5404917" lon="13.0514117"><ele>126.33333333333334</ele><time>2026-05-06T13:15:24.564Z</time></trkpt><trkpt lat="37.5402933" lon="13.05153"><ele>125.66666666666666</ele><time>2026-05-06T13:15:25.564Z</time></trkpt><trkpt lat="37.5400933" lon="13.0516483"><ele>125.0</ele><time>2026-05-06T13:15:26.565Z</time></trkpt><trkpt lat="37.5398933" lon="13.0517683"><ele>123.66666666666666</ele><time>2026-05-06T13:15:27.564Z</time></trkpt><trkpt lat="37.53969" lon="13.0518867"><ele>122.33333333333334</ele><time>2026-05-06T13:15:28.569Z</time></trkpt><trkpt lat="37.53949" lon="13.0520033"><ele>121.0</ele><time>2026-05-06T13:15:29.563Z</time></trkpt><trkpt lat="37.5392967" lon="13.0521133"><ele>121.0</ele><time>2026-05-06T13:15:30.563Z</time></trkpt><trkpt lat="37.5391133" lon="13.0522183"><ele>121.0</ele><time>2026-05-06T13:15:31.564Z</time></trkpt><trkpt lat="37.538935" lon="13.0523217"><ele>121.0</ele><time>2026-05-06T13:15:32.563Z</time></trkpt><trkpt lat="37.53876" lon="13.0524217"><ele>118.0</ele><time>2026-05-06T13:15:33.563Z</time></trkpt><trkpt lat="37.5385817" lon="13.0525233"><ele>115.0</ele><time>2026-05-06T13:15:34.564Z</time></trkpt><trkpt lat="37.538405" lon="13.052625"><ele>112.0</ele><time>2026-05-06T13:15:35.564Z</time></trkpt><trkpt lat="37.5382317" lon="13.052725"><ele>112.0</ele><time>2026-05-06T13:15:36.564Z</time></trkpt><trkpt lat="37.5380583" lon="13.0528233"><ele>112.0</ele><time>2026-05-06T13:15:37.563Z</time></trkpt><trkpt lat="37.5378817" lon="13.0529167"><ele>112.0</ele><time>2026-05-06T13:15:38.563Z</time></trkpt><trkpt lat="37.5377" lon="13.0530083"><ele>110.33333333333334</ele><time>2026-05-06T13:15:39.564Z</time></trkpt><trkpt lat="37.537515" lon="13.053095"><ele>108.66666666666666</ele><time>2026-05-06T13:15:40.564Z</time></trkpt><trkpt lat="37.5373283" lon="13.05318"><ele>107.0</ele><time>2026-05-06T13:15:41.564Z</time></trkpt><trkpt lat="37.53714" lon="13.0532633"><ele>100.0</ele><time>2026-05-06T13:15:42.563Z</time></trkpt><trkpt lat="37.5369467" lon="13.05334"><ele>93.0</ele><time>2026-05-06T13:15:43.564Z</time></trkpt><trkpt lat="37.5367517" lon="13.0534133"><ele>86.0</ele><time>2026-05-06T13:15:44.564Z</time></trkpt><trkpt lat="37.5365567" lon="13.0534833"><ele>86.0</ele><time>2026-05-06T13:15:45.564Z</time></trkpt><trkpt lat="37.5363617" lon="13.05355"><ele>86.0</ele><time>2026-05-06T13:15:46.564Z</time></trkpt><trkpt lat="37.536165" lon="13.0536183"><ele>86.0</ele><time>2026-05-06T13:15:47.564Z</time></trkpt><trkpt lat="37.5359667" lon="13.0536867"><ele>86.33333333333334</ele><time>2026-05-06T13:15:48.564Z</time></trkpt><trkpt lat="37.53577" lon="13.0537567"><ele>86.66666666666667</ele><time>2026-05-06T13:15:49.565Z</time></trkpt><trkpt lat="37.5355733" lon="13.0538267"><ele>87.0</ele><time>2026-05-06T13:15:50.563Z</time></trkpt><trkpt lat="37.535375" lon="13.0538967"><ele>86.33333333333333</ele><time>2026-05-06T13:15:51.564Z</time></trkpt><trkpt lat="37.535175" lon="13.0539667"><ele>85.66666666666666</ele><time>2026-05-06T13:15:52.563Z</time></trkpt><trkpt lat="37.5349767" lon="13.0540433"><ele>85.0</ele><time>2026-05-06T13:15:53.565Z</time></trkpt><trkpt lat="37.5347817" lon="13.0541317"><ele>85.0</ele><time>2026-05-06T13:15:54.565Z</time></trkpt><trkpt lat="37.5346017" lon="13.0542383"><ele>85.0</ele><time>2026-05-06T13:15:55.565Z</time></trkpt><trkpt lat="37.534435" lon="13.0543583"><ele>85.0</ele><time>2026-05-06T13:15:56.565Z</time></trkpt><trkpt lat="37.534285" lon="13.0544883"><ele>86.66666666666666</ele><time>2026-05-06T13:15:57.564Z</time></trkpt><trkpt lat="37.5341467" lon="13.0546283"><ele>88.33333333333333</ele><time>2026-05-06T13:15:58.564Z</time></trkpt><trkpt lat="37.5340183" lon="13.054775"><ele>90.0</ele><time>2026-05-06T13:15:59.564Z</time></trkpt><trkpt lat="37.5339" lon="13.0549317"><ele>86.33333333333333</ele><time>2026-05-06T13:16:00.564Z</time></trkpt><trkpt lat="37.5337933" lon="13.0551"><ele>82.66666666666666</ele><time>2026-05-06T13:16:01.564Z</time></trkpt><trkpt lat="37.533695" lon="13.0552817"><ele>79.0</ele><time>2026-05-06T13:16:02.565Z</time></trkpt><trkpt lat="37.5336083" lon="13.0554833"><ele>77.66666666666666</ele><time>2026-05-06T13:16:03.564Z</time></trkpt><trkpt lat="37.5335283" lon="13.0556967"><ele>76.33333333333333</ele><time>2026-05-06T13:16:04.564Z</time></trkpt><trkpt lat="37.5334517" lon="13.0559183"><ele>75.0</ele><time>2026-05-06T13:16:05.564Z</time></trkpt><trkpt lat="37.5333717" lon="13.0561467"><ele>73.0</ele><time>2026-05-06T13:16:06.563Z</time></trkpt><trkpt lat="37.53329" lon="13.05638"><ele>71.0</ele><time>2026-05-06T13:16:07.563Z</time></trkpt><trkpt lat="37.5332033" lon="13.0566167"><ele>69.0</ele><time>2026-05-06T13:16:08.565Z</time></trkpt><trkpt lat="37.5331167" lon="13.0568567"><ele>66.0</ele><time>2026-05-06T13:16:09.565Z</time></trkpt><trkpt lat="37.5330317" lon="13.0571"><ele>63.0</ele><time>2026-05-06T13:16:10.564Z</time></trkpt><trkpt lat="37.5329467" lon="13.0573417"><ele>60.0</ele><time>2026-05-06T13:16:11.564Z</time></trkpt><trkpt lat="37.5328617" lon="13.0575867"><ele>59.66666666666667</ele><time>2026-05-06T13:16:12.563Z</time></trkpt><trkpt lat="37.532775" lon="13.0578333"><ele>59.333333333333336</ele><time>2026-05-06T13:16:13.564Z</time></trkpt><trkpt lat="37.5326867" lon="13.05808"><ele>59.0</ele><time>2026-05-06T13:16:14.564Z</time></trkpt><trkpt lat="37.5326" lon="13.058325"><ele>59.0</ele><time>2026-05-06T13:16:15.564Z</time></trkpt><trkpt lat="37.5325133" lon="13.058565"><ele>59.0</ele><time>2026-05-06T13:16:16.564Z</time></trkpt><trkpt lat="37.53243" lon="13.0587967"><ele>59.0</ele><time>2026-05-06T13:16:17.563Z</time></trkpt><trkpt lat="37.5323517" lon="13.0590217"><ele>61.0</ele><time>2026-05-06T13:16:18.564Z</time></trkpt><trkpt lat="37.5322733" lon="13.0592467"><ele>63.0</ele><time>2026-05-06T13:16:19.564Z</time></trkpt><trkpt lat="37.5321933" lon="13.0594733"><ele>65.0</ele><time>2026-05-06T13:16:20.565Z</time></trkpt><trkpt lat="37.5321133" lon="13.0597"><ele>65.0</ele><time>2026-05-06T13:16:21.565Z</time></trkpt><trkpt lat="37.5320333" lon="13.059925"><ele>65.0</ele><time>2026-05-06T13:16:22.565Z</time></trkpt><trkpt lat="37.5319517" lon="13.0601567"><ele>65.0</ele><time>2026-05-06T13:16:23.564Z</time></trkpt><trkpt lat="37.5318717" lon="13.060395"><ele>65.0</ele><time>2026-05-06T13:16:24.564Z</time></trkpt><trkpt lat="37.5317883" lon="13.060635"><ele>65.0</ele><time>2026-05-06T13:16:25.566Z</time></trkpt><trkpt lat="37.5317033" lon="13.0608783"><ele>65.0</ele><time>2026-05-06T13:16:26.565Z</time></trkpt><trkpt lat="37.5316183" lon="13.0611217"><ele>65.66666666666667</ele><time>2026-05-06T13:16:27.566Z</time></trkpt><trkpt lat="37.53153" lon="13.0613633"><ele>66.33333333333333</ele><time>2026-05-06T13:16:28.563Z</time></trkpt><trkpt lat="37.5314433" lon="13.0616067"><ele>67.0</ele><time>2026-05-06T13:16:29.564Z</time></trkpt><trkpt lat="37.53136" lon="13.06185"><ele>66.33333333333333</ele><time>2026-05-06T13:16:30.564Z</time></trkpt><trkpt lat="37.531275" lon="13.062095"><ele>65.66666666666667</ele><time>2026-05-06T13:16:31.564Z</time></trkpt><trkpt lat="37.53119" lon="13.0623417"><ele>65.0</ele><time>2026-05-06T13:16:32.565Z</time></trkpt><trkpt lat="37.5311033" lon="13.0625883"><ele>65.0</ele><time>2026-05-06T13:16:33.564Z</time></trkpt><trkpt lat="37.5310183" lon="13.0628317"><ele>65.0</ele><time>2026-05-06T13:16:34.564Z</time></trkpt><trkpt lat="37.5309333" lon="13.0630767"><ele>65.0</ele><time>2026-05-06T13:16:35.563Z</time></trkpt><trkpt lat="37.530845" lon="13.06332"><ele>64.66666666666667</ele><time>2026-05-06T13:16:36.564Z</time></trkpt><trkpt lat="37.5307583" lon="13.063565"><ele>64.33333333333333</ele><time>2026-05-06T13:16:37.564Z</time></trkpt><trkpt lat="37.53067" lon="13.0638117"><ele>64.0</ele><time>2026-05-06T13:16:38.564Z</time></trkpt><trkpt lat="37.5305817" lon="13.0640567"><ele>63.0</ele><time>2026-05-06T13:16:39.564Z</time></trkpt><trkpt lat="37.530495" lon="13.064305"><ele>62.0</ele><time>2026-05-06T13:16:40.564Z</time></trkpt><trkpt lat="37.5304083" lon="13.0645533"><ele>61.0</ele><time>2026-05-06T13:16:41.564Z</time></trkpt><trkpt lat="37.530325" lon="13.064805"><ele>63.0</ele><time>2026-05-06T13:16:42.564Z</time></trkpt><trkpt lat="37.53024" lon="13.0650567"><ele>65.0</ele><time>2026-05-06T13:16:43.564Z</time></trkpt><trkpt lat="37.5301583" lon="13.065305"><ele>67.0</ele><time>2026-05-06T13:16:44.563Z</time></trkpt><trkpt lat="37.53007" lon="13.0655533"><ele>66.0</ele><time>2026-05-06T13:16:45.564Z</time></trkpt><trkpt lat="37.5299817" lon="13.0657983"><ele>65.0</ele><time>2026-05-06T13:16:46.563Z</time></trkpt><trkpt lat="37.529895" lon="13.0660417"><ele>64.0</ele><time>2026-05-06T13:16:47.563Z</time></trkpt><trkpt lat="37.52981" lon="13.066285"><ele>64.0</ele><time>2026-05-06T13:16:48.563Z</time></trkpt><trkpt lat="37.529725" lon="13.066525"><ele>64.0</ele><time>2026-05-06T13:16:49.564Z</time></trkpt><trkpt lat="37.5296417" lon="13.0667583"><ele>64.0</ele><time>2026-05-06T13:16:50.564Z</time></trkpt><trkpt lat="37.5295633" lon="13.0669833"><ele>61.666666666666664</ele><time>2026-05-06T13:16:51.563Z</time></trkpt><trkpt lat="37.5294833" lon="13.0672083"><ele>59.33333333333333</ele><time>2026-05-06T13:16:52.565Z</time></trkpt><trkpt lat="37.5294033" lon="13.067435"><ele>57.0</ele><time>2026-05-06T13:16:53.565Z</time></trkpt><trkpt lat="37.5293167" lon="13.0676567"><ele>57.33333333333333</ele><time>2026-05-06T13:16:54.564Z</time></trkpt><trkpt lat="37.5292183" lon="13.067875"><ele>57.666666666666664</ele><time>2026-05-06T13:16:55.565Z</time></trkpt><trkpt lat="37.529105" lon="13.0680817"><ele>58.0</ele><time>2026-05-06T13:16:56.565Z</time></trkpt><trkpt lat="37.5289783" lon="13.06828"><ele>58.0</ele><time>2026-05-06T13:16:57.565Z</time></trkpt><trkpt lat="37.52884" lon="13.068465"><ele>58.0</ele><time>2026-05-06T13:16:58.566Z</time></trkpt><trkpt lat="37.5286917" lon="13.0686383"><ele>58.0</ele><time>2026-05-06T13:16:59.563Z</time></trkpt><trkpt lat="37.5285383" lon="13.0687967"><ele>58.33333333333333</ele><time>2026-05-06T13:17:00.564Z</time></trkpt><trkpt lat="37.528385" lon="13.0689367"><ele>58.66666666666667</ele><time>2026-05-06T13:17:01.564Z</time></trkpt><trkpt lat="37.5282383" lon="13.0690633"><ele>59.0</ele><time>2026-05-06T13:17:02.564Z</time></trkpt><trkpt lat="37.5280967" lon="13.0691833"><ele>59.333333333333336</ele><time>2026-05-06T13:17:03.564Z</time></trkpt><trkpt lat="37.527955" lon="13.0693033"><ele>59.66666666666667</ele><time>2026-05-06T13:17:04.564Z</time></trkpt><trkpt lat="37.5278133" lon="13.0694283"><ele>60.0</ele><time>2026-05-06T13:17:05.564Z</time></trkpt><trkpt lat="37.5276683" lon="13.069555"><ele>60.0</ele><time>2026-05-06T13:17:06.564Z</time></trkpt><trkpt lat="37.5275233" lon="13.069685"><ele>60.0</ele><time>2026-05-06T13:17:07.564Z</time></trkpt><trkpt lat="37.5273783" lon="13.0698133"><ele>60.0</ele><time>2026-05-06T13:17:08.565Z</time></trkpt><trkpt lat="37.52724" lon="13.0699333"><ele>60.33333333333333</ele><time>2026-05-06T13:17:09.564Z</time></trkpt><trkpt lat="37.5271067" lon="13.07005"><ele>60.666666666666664</ele><time>2026-05-06T13:17:10.564Z</time></trkpt><trkpt lat="37.5269733" lon="13.07017"><ele>61.0</ele><time>2026-05-06T13:17:11.563Z</time></trkpt><trkpt lat="37.52684" lon="13.07029"><ele>61.0</ele><time>2026-05-06T13:17:12.564Z</time></trkpt><trkpt lat="37.5267017" lon="13.07041"><ele>61.0</ele><time>2026-05-06T13:17:13.564Z</time></trkpt><trkpt lat="37.5265617" lon="13.0705317"><ele>61.0</ele><time>2026-05-06T13:17:14.564Z</time></trkpt><trkpt lat="37.52642" lon="13.0706567"><ele>63.0</ele><time>2026-05-06T13:17:15.564Z</time></trkpt><trkpt lat="37.526275" lon="13.070785"><ele>65.0</ele><time>2026-05-06T13:17:16.564Z</time></trkpt><trkpt lat="37.5261267" lon="13.070915"><ele>67.0</ele><time>2026-05-06T13:17:17.565Z</time></trkpt><trkpt lat="37.5259767" lon="13.07105"><ele>67.0</ele><time>2026-05-06T13:17:18.564Z</time></trkpt><trkpt lat="37.525825" lon="13.0711883"><ele>67.0</ele><time>2026-05-06T13:17:19.564Z</time></trkpt><trkpt lat="37.5256683" lon="13.0713283"><ele>67.0</ele><time>2026-05-06T13:17:20.566Z</time></trkpt><trkpt lat="37.52551" lon="13.0714717"><ele>67.0</ele><time>2026-05-06T13:17:21.566Z</time></trkpt><trkpt lat="37.5253467" lon="13.0716167"><ele>67.0</ele><time>2026-05-06T13:17:22.566Z</time></trkpt><trkpt lat="37.52518" lon="13.071765"><ele>67.0</ele><time>2026-05-06T13:17:23.565Z</time></trkpt><trkpt lat="37.5250083" lon="13.0719167"><ele>67.0</ele><time>2026-05-06T13:17:24.564Z</time></trkpt><trkpt lat="37.5248333" lon="13.0720717"><ele>67.0</ele><time>2026-05-06T13:17:25.564Z</time></trkpt><trkpt lat="37.5246583" lon="13.07223"><ele>67.0</ele><time>2026-05-06T13:17:26.564Z</time></trkpt><trkpt lat="37.52448" lon="13.0723883"><ele>66.0</ele><time>2026-05-06T13:17:27.562Z</time></trkpt><trkpt lat="37.5242983" lon="13.0725483"><ele>65.0</ele><time>2026-05-06T13:17:28.564Z</time></trkpt><trkpt lat="37.52412" lon="13.0727033"><ele>64.0</ele><time>2026-05-06T13:17:29.564Z</time></trkpt><trkpt lat="37.5239367" lon="13.07286"><ele>64.0</ele><time>2026-05-06T13:17:30.564Z</time></trkpt><trkpt lat="37.5237667" lon="13.0730183"><ele>64.0</ele><time>2026-05-06T13:17:31.563Z</time></trkpt><trkpt lat="37.523595" lon="13.0731717"><ele>64.0</ele><time>2026-05-06T13:17:32.564Z</time></trkpt><trkpt lat="37.5234267" lon="13.0733267"><ele>63.33333333333333</ele><time>2026-05-06T13:17:33.564Z</time></trkpt><trkpt lat="37.5232617" lon="13.073475"><ele>62.66666666666667</ele><time>2026-05-06T13:17:34.564Z</time></trkpt><trkpt lat="37.5230983" lon="13.073625"><ele>62.0</ele><time>2026-05-06T13:17:35.563Z</time></trkpt><trkpt lat="37.52293" lon="13.0737683"><ele>60.66666666666667</ele><time>2026-05-06T13:17:36.564Z</time></trkpt><trkpt lat="37.52276" lon="13.0739117"><ele>59.33333333333333</ele><time>2026-05-06T13:17:37.563Z</time></trkpt><trkpt lat="37.5225917" lon="13.0740583"><ele>58.0</ele><time>2026-05-06T13:17:38.564Z</time></trkpt><trkpt lat="37.5224217" lon="13.0742067"><ele>56.666666666666664</ele><time>2026-05-06T13:17:39.563Z</time></trkpt><trkpt lat="37.5222517" lon="13.074355"><ele>55.33333333333333</ele><time>2026-05-06T13:17:40.563Z</time></trkpt><trkpt lat="37.5220817" lon="13.0745033"><ele>54.0</ele><time>2026-05-06T13:17:41.565Z</time></trkpt><trkpt lat="37.5219133" lon="13.0746567"><ele>53.33333333333333</ele><time>2026-05-06T13:17:42.564Z</time></trkpt><trkpt lat="37.521745" lon="13.07481"><ele>52.666666666666664</ele><time>2026-05-06T13:17:43.564Z</time></trkpt><trkpt lat="37.5215717" lon="13.0749617"><ele>52.0</ele><time>2026-05-06T13:17:44.564Z</time></trkpt><trkpt lat="37.5214083" lon="13.0751067"><ele>53.33333333333333</ele><time>2026-05-06T13:17:45.564Z</time></trkpt><trkpt lat="37.521255" lon="13.0752433"><ele>54.66666666666667</ele><time>2026-05-06T13:17:46.564Z</time></trkpt><trkpt lat="37.5211083" lon="13.0753733"><ele>56.0</ele><time>2026-05-06T13:17:47.565Z</time></trkpt><trkpt lat="37.52096" lon="13.0755017"><ele>56.0</ele><time>2026-05-06T13:17:48.563Z</time></trkpt><trkpt lat="37.5208117" lon="13.0756317"><ele>56.0</ele><time>2026-05-06T13:17:49.564Z</time></trkpt><trkpt lat="37.5206633" lon="13.0757617"><ele>56.0</ele><time>2026-05-06T13:17:50.564Z</time></trkpt><trkpt lat="37.5205217" lon="13.075885"><ele>58.5</ele><time>2026-05-06T13:17:51.565Z</time></trkpt><trkpt lat="37.520395" lon="13.075995"><ele>61.0</ele><time>2026-05-06T13:17:52.564Z</time></trkpt><trkpt lat="37.5202783" lon="13.0760933"><ele>63.5</ele><time>2026-05-06T13:17:53.563Z</time></trkpt><trkpt lat="37.5201683" lon="13.0761767"><ele>66.0</ele><time>2026-05-06T13:17:54.564Z</time></trkpt><trkpt lat="37.520055" lon="13.0762417"><ele>66.0</ele><time>2026-05-06T13:17:55.563Z</time></trkpt><trkpt lat="37.519935" lon="13.07629"><ele>66.0</ele><time>2026-05-06T13:17:56.565Z</time></trkpt><trkpt lat="37.5198117" lon="13.0763217"><ele>66.0</ele><time>2026-05-06T13:17:57.563Z</time></trkpt><trkpt lat="37.5197" lon="13.0763317"><ele>66.0</ele><time>2026-05-06T13:17:58.564Z</time></trkpt><trkpt lat="37.5195967" lon="13.0763267"><ele>66.39999999999999</ele><time>2026-05-06T13:17:59.564Z</time></trkpt><trkpt lat="37.519495" lon="13.0763133"><ele>66.8</ele><time>2026-05-06T13:18:00.563Z</time></trkpt><trkpt lat="37.51939" lon="13.076295"><ele>67.19999999999999</ele><time>2026-05-06T13:18:01.564Z</time></trkpt><trkpt lat="37.5192833" lon="13.07627"><ele>67.6</ele><time>2026-05-06T13:18:02.564Z</time></trkpt><trkpt lat="37.5191783" lon="13.0762383"><ele>68.0</ele><time>2026-05-06T13:18:03.564Z</time></trkpt><trkpt lat="37.5190717" lon="13.0762067"><ele>68.0</ele><time>2026-05-06T13:18:04.562Z</time></trkpt><trkpt lat="37.51897" lon="13.0761683"><ele>68.0</ele><time>2026-05-06T13:18:05.563Z</time></trkpt><trkpt lat="37.5188717" lon="13.0761283"><ele>68.0</ele><time>2026-05-06T13:18:06.564Z</time></trkpt><trkpt lat="37.5187783" lon="13.0760983"><ele>68.0</ele><time>2026-05-06T13:18:07.563Z</time></trkpt><trkpt lat="37.5186883" lon="13.07609"><ele>68.0</ele><time>2026-05-06T13:18:08.564Z</time></trkpt><trkpt lat="37.518595" lon="13.0761167"><ele>68.6</ele><time>2026-05-06T13:18:09.564Z</time></trkpt><trkpt lat="37.5184983" lon="13.076175"><ele>69.19999999999999</ele><time>2026-05-06T13:18:10.563Z</time></trkpt><trkpt lat="37.518415" lon="13.0762533"><ele>69.8</ele><time>2026-05-06T13:18:11.564Z</time></trkpt><trkpt lat="37.518345" lon="13.0763433"><ele>70.39999999999999</ele><time>2026-05-06T13:18:12.564Z</time></trkpt><trkpt lat="37.51828" lon="13.076425"><ele>71.0</ele><time>2026-05-06T13:18:13.564Z</time></trkpt><trkpt lat="37.5182183" lon="13.0765"><ele>71.0</ele><time>2026-05-06T13:18:14.564Z</time></trkpt><trkpt lat="37.5181583" lon="13.07656"><ele>71.0</ele><time>2026-05-06T13:18:15.563Z</time></trkpt><trkpt lat="37.518105" lon="13.07661"><ele>71.0</ele><time>2026-05-06T13:18:16.563Z</time></trkpt><trkpt lat="37.5180083" lon="13.076685"><ele>71.0</ele><time>2026-05-06T13:18:18.563Z</time></trkpt><trkpt lat="37.5179" lon="13.076725"><ele>71.0</ele><time>2026-05-06T13:18:20.564Z</time></trkpt><trkpt lat="37.5178" lon="13.0767483"><ele>70.83333333333334</ele><time>2026-05-06T13:18:22.564Z</time></trkpt><trkpt lat="37.5177183" lon="13.076775"><ele>70.66666666666667</ele><time>2026-05-06T13:18:24.564Z</time></trkpt><trkpt lat="37.5176483" lon="13.0767917"><ele>70.5</ele><time>2026-05-06T13:18:26.563Z</time></trkpt><trkpt lat="37.5175933" lon="13.0767467"><ele>70.33333333333333</ele><time>2026-05-06T13:18:28.563Z</time></trkpt><trkpt lat="37.517575" lon="13.0766133"><ele>70.16666666666666</ele><time>2026-05-06T13:18:30.564Z</time></trkpt><trkpt lat="37.51756" lon="13.07652"><ele>70.0</ele><time>2026-05-06T13:18:31.564Z</time></trkpt><trkpt lat="37.51754" lon="13.0764117"><ele>70.0</ele><time>2026-05-06T13:18:32.564Z</time></trkpt><trkpt lat="37.51752" lon="13.0762917"><ele>70.0</ele><time>2026-05-06T13:18:33.563Z</time></trkpt><trkpt lat="37.5174983" lon="13.0761667"><ele>70.0</ele><time>2026-05-06T13:18:34.564Z</time></trkpt><trkpt lat="37.517475" lon="13.076035"><ele>70.0</ele><time>2026-05-06T13:18:35.563Z</time></trkpt><trkpt lat="37.5174517" lon="13.0758917"><ele>70.0</ele><time>2026-05-06T13:18:36.563Z</time></trkpt><trkpt lat="37.5174283" lon="13.075745"><ele>70.0</ele><time>2026-05-06T13:18:37.563Z</time></trkpt><trkpt lat="37.517405" lon="13.0756067"><ele>70.0</ele><time>2026-05-06T13:18:38.565Z</time></trkpt><trkpt lat="37.517385" lon="13.0754817"><ele>70.0</ele><time>2026-05-06T13:18:39.563Z</time></trkpt><trkpt lat="37.517365" lon="13.0753567"><ele>70.0</ele><time>2026-05-06T13:18:40.566Z</time></trkpt><trkpt lat="37.51735" lon="13.0752367"><ele>70.0</ele><time>2026-05-06T13:18:41.564Z</time></trkpt><trkpt lat="37.5173367" lon="13.0751317"><ele>70.0</ele><time>2026-05-06T13:18:42.564Z</time></trkpt><trkpt lat="37.51732" lon="13.0750333"><ele>70.0</ele><time>2026-05-06T13:18:43.564Z</time></trkpt><trkpt lat="37.5173067" lon="13.074935"><ele>70.0</ele><time>2026-05-06T13:18:44.564Z</time></trkpt><trkpt lat="37.5172917" lon="13.07483"><ele>70.0</ele><time>2026-05-06T13:18:45.564Z</time></trkpt><trkpt lat="37.517275" lon="13.0747217"><ele>70.0</ele><time>2026-05-06T13:18:46.563Z</time></trkpt><trkpt lat="37.5172583" lon="13.0746233"><ele>70.0</ele><time>2026-05-06T13:18:47.564Z</time></trkpt><trkpt lat="37.51724" lon="13.0745333"><ele>69.6</ele><time>2026-05-06T13:18:48.564Z</time></trkpt><trkpt lat="37.51722" lon="13.0744533"><ele>69.2</ele><time>2026-05-06T13:18:49.563Z</time></trkpt><trkpt lat="37.5171933" lon="13.07438"><ele>68.8</ele><time>2026-05-06T13:18:50.565Z</time></trkpt><trkpt lat="37.517095" lon="13.0743067"><ele>68.4</ele><time>2026-05-06T13:18:52.563Z</time></trkpt><trkpt lat="37.5169733" lon="13.0743217"><ele>68.0</ele><time>2026-05-06T13:18:54.564Z</time></trkpt><trkpt lat="37.5168667" lon="13.0743733"><ele>67.5</ele><time>2026-05-06T13:18:56.563Z</time></trkpt><trkpt lat="37.5167633" lon="13.0744383"><ele>67.0</ele><time>2026-05-06T13:18:58.563Z</time></trkpt><trkpt lat="37.5166517" lon="13.0745117"><ele>66.5</ele><time>2026-05-06T13:19:00.564Z</time></trkpt><trkpt lat="37.5165983" lon="13.0745567"><ele>66.0</ele><time>2026-05-06T13:19:01.564Z</time></trkpt><trkpt lat="37.516545" lon="13.074605"><ele>65.5</ele><time>2026-05-06T13:19:02.564Z</time></trkpt><trkpt lat="37.5164867" lon="13.0746467"><ele>65.0</ele><time>2026-05-06T13:19:03.564Z</time></trkpt><trkpt lat="37.5164217" lon="13.074685"><ele>65.0</ele><time>2026-05-06T13:19:04.563Z</time></trkpt><trkpt lat="37.51636" lon="13.07473"><ele>65.0</ele><time>2026-05-06T13:19:05.563Z</time></trkpt><trkpt lat="37.5162983" lon="13.0747767"><ele>65.0</ele><time>2026-05-06T13:19:06.563Z</time></trkpt><trkpt lat="37.5162433" lon="13.0748217"><ele>65.0</ele><time>2026-05-06T13:19:07.564Z</time></trkpt><trkpt lat="37.5161883" lon="13.0748633"><ele>65.0</ele><time>2026-05-06T13:19:08.564Z</time></trkpt><trkpt lat="37.51612" lon="13.0749167"><ele>65.0</ele><time>2026-05-06T13:19:09.564Z</time></trkpt><trkpt lat="37.51603" lon="13.0749833"><ele>62.0</ele><time>2026-05-06T13:19:10.564Z</time></trkpt><trkpt lat="37.5158983" lon="13.075075"><ele>59.0</ele><time>2026-05-06T13:19:11.563Z</time></trkpt><trkpt lat="37.5157633" lon="13.07518"><ele>56.0</ele><time>2026-05-06T13:19:12.563Z</time></trkpt><trkpt lat="37.5156333" lon="13.0752833"><ele>56.0</ele><time>2026-05-06T13:19:13.564Z</time></trkpt><trkpt lat="37.5155133" lon="13.075385"><ele>56.0</ele><time>2026-05-06T13:19:14.564Z</time></trkpt><trkpt lat="37.5153983" lon="13.0754783"><ele>56.0</ele><time>2026-05-06T13:19:15.563Z</time></trkpt><trkpt lat="37.5152917" lon="13.0755517"><ele>56.0</ele><time>2026-05-06T13:19:16.564Z</time></trkpt><trkpt lat="37.51519" lon="13.0756033"><ele>56.0</ele><time>2026-05-06T13:19:17.564Z</time></trkpt><trkpt lat="37.51509" lon="13.0756433"><ele>55.99999999999999</ele><time>2026-05-06T13:19:18.564Z</time></trkpt><trkpt lat="37.514995" lon="13.0756783"><ele>55.99999999999999</ele><time>2026-05-06T13:19:19.563Z</time></trkpt><trkpt lat="37.5149083" lon="13.075715"><ele>56.0</ele><time>2026-05-06T13:19:20.563Z</time></trkpt><trkpt lat="37.5148267" lon="13.0757533"><ele>56.0</ele><time>2026-05-06T13:19:21.564Z</time></trkpt><trkpt lat="37.5147483" lon="13.075785"><ele>56.00000000000001</ele><time>2026-05-06T13:19:22.564Z</time></trkpt><trkpt lat="37.5146683" lon="13.0758133"><ele>56.0</ele><time>2026-05-06T13:19:23.562Z</time></trkpt><trkpt lat="37.51459" lon="13.0758433"><ele>56.0</ele><time>2026-05-06T13:19:24.563Z</time></trkpt><trkpt lat="37.5145133" lon="13.0758733"><ele>56.0</ele><time>2026-05-06T13:19:25.563Z</time></trkpt><trkpt lat="37.5144317" lon="13.0759033"><ele>56.00000000000001</ele><time>2026-05-06T13:19:26.564Z</time></trkpt><trkpt lat="37.514345" lon="13.075935"><ele>56.0</ele><time>2026-05-06T13:19:27.564Z</time></trkpt><trkpt lat="37.5142533" lon="13.0759633"><ele>54.66666666666667</ele><time>2026-05-06T13:19:28.564Z</time></trkpt><trkpt lat="37.5141683" lon="13.075985"><ele>53.333333333333336</ele><time>2026-05-06T13:19:29.564Z</time></trkpt><trkpt lat="37.51409" lon="13.0759983"><ele>52.0</ele><time>2026-05-06T13:19:30.563Z</time></trkpt><trkpt lat="37.51402" lon="13.0759983"><ele>50.66666666666667</ele><time>2026-05-06T13:19:31.564Z</time></trkpt><trkpt lat="37.513915" lon="13.07594"><ele>49.333333333333336</ele><time>2026-05-06T13:19:33.563Z</time></trkpt><trkpt lat="37.513835" lon="13.0759367"><ele>48.0</ele><time>2026-05-06T13:19:35.564Z</time></trkpt><trkpt lat="37.5137683" lon="13.0760333"><ele>48.0</ele><time>2026-05-06T13:19:37.563Z</time></trkpt><trkpt lat="37.5137533" lon="13.076115"><ele>48.0</ele><time>2026-05-06T13:19:38.564Z</time></trkpt><trkpt lat="37.5137433" lon="13.0762133"><ele>48.0</ele><time>2026-05-06T13:19:39.563Z</time></trkpt><trkpt lat="37.51373" lon="13.076315"><ele>48.0</ele><time>2026-05-06T13:19:40.562Z</time></trkpt><trkpt lat="37.5137117" lon="13.0764183"><ele>48.0</ele><time>2026-05-06T13:19:41.564Z</time></trkpt><trkpt lat="37.5136917" lon="13.076525"><ele>48.0</ele><time>2026-05-06T13:19:42.564Z</time></trkpt><trkpt lat="37.5136633" lon="13.0766333"><ele>47.0</ele><time>2026-05-06T13:19:43.563Z</time></trkpt><trkpt lat="37.5136333" lon="13.0767433"><ele>46.0</ele><time>2026-05-06T13:19:44.563Z</time></trkpt><trkpt lat="37.5135967" lon="13.0768517"><ele>45.0</ele><time>2026-05-06T13:19:45.562Z</time></trkpt><trkpt lat="37.5135517" lon="13.0769683"><ele>44.0</ele><time>2026-05-06T13:19:46.564Z</time></trkpt><trkpt lat="37.513495" lon="13.0770833"><ele>43.0</ele><time>2026-05-06T13:19:47.563Z</time></trkpt><trkpt lat="37.5134333" lon="13.0772033"><ele>43.0</ele><time>2026-05-06T13:19:48.563Z</time></trkpt><trkpt lat="37.5133567" lon="13.0773133"><ele>43.0</ele><time>2026-05-06T13:19:49.564Z</time></trkpt><trkpt lat="37.51328" lon="13.07742"><ele>43.0</ele><time>2026-05-06T13:19:50.564Z</time></trkpt><trkpt lat="37.5132083" lon="13.077515"><ele>43.0</ele><time>2026-05-06T13:19:51.563Z</time></trkpt><trkpt lat="37.5131283" lon="13.0775917"><ele>43.0</ele><time>2026-05-06T13:19:52.564Z</time></trkpt><trkpt lat="37.5130583" lon="13.0776683"><ele>45.0</ele><time>2026-05-06T13:19:53.562Z</time></trkpt><trkpt lat="37.5129817" lon="13.0777367"><ele>47.0</ele><time>2026-05-06T13:19:54.562Z</time></trkpt><trkpt lat="37.5128983" lon="13.0777967"><ele>49.0</ele><time>2026-05-06T13:19:55.563Z</time></trkpt><trkpt lat="37.512815" lon="13.0778383"><ele>51.0</ele><time>2026-05-06T13:19:56.564Z</time></trkpt><trkpt lat="37.5127383" lon="13.077885"><ele>53.0</ele><time>2026-05-06T13:19:57.564Z</time></trkpt><trkpt lat="37.51265" lon="13.0779367"><ele>53.0</ele><time>2026-05-06T13:19:58.564Z</time></trkpt><trkpt lat="37.5125583" lon="13.0779867"><ele>53.0</ele><time>2026-05-06T13:19:59.563Z</time></trkpt><trkpt lat="37.51246" lon="13.0780367"><ele>53.0</ele><time>2026-05-06T13:20:00.563Z</time></trkpt><trkpt lat="37.5123717" lon="13.0780783"><ele>53.0</ele><time>2026-05-06T13:20:01.564Z</time></trkpt><trkpt lat="37.512285" lon="13.078115"><ele>53.0</ele><time>2026-05-06T13:20:02.564Z</time></trkpt><trkpt lat="37.5122067" lon="13.078155"><ele>53.0</ele><time>2026-05-06T13:20:03.564Z</time></trkpt><trkpt lat="37.51214" lon="13.0781983"><ele>53.0</ele><time>2026-05-06T13:20:04.565Z</time></trkpt><trkpt lat="37.512075" lon="13.0782367"><ele>53.0</ele><time>2026-05-06T13:20:05.563Z</time></trkpt><trkpt lat="37.5119633" lon="13.078295"><ele>53.0</ele><time>2026-05-06T13:20:07.564Z</time></trkpt><trkpt lat="37.511845" lon="13.07826"><ele>53.0</ele><time>2026-05-06T13:20:09.564Z</time></trkpt><trkpt lat="37.511775" lon="13.0782083"><ele>52.4</ele><time>2026-05-06T13:20:10.564Z</time></trkpt><trkpt lat="37.5117" lon="13.0781667"><ele>51.8</ele><time>2026-05-06T13:20:11.563Z</time></trkpt><trkpt lat="37.51162" lon="13.0781217"><ele>51.2</ele><time>2026-05-06T13:20:12.564Z</time></trkpt><trkpt lat="37.5115317" lon="13.078065"><ele>50.6</ele><time>2026-05-06T13:20:13.563Z</time></trkpt><trkpt lat="37.5114417" lon="13.0780083"><ele>50.0</ele><time>2026-05-06T13:20:14.564Z</time></trkpt><trkpt lat="37.5113483" lon="13.0779467"><ele>50.0</ele><time>2026-05-06T13:20:15.563Z</time></trkpt><trkpt lat="37.5112533" lon="13.0778917"><ele>50.0</ele><time>2026-05-06T13:20:16.565Z</time></trkpt><trkpt lat="37.5111617" lon="13.0778383"><ele>50.0</ele><time>2026-05-06T13:20:17.564Z</time></trkpt><trkpt lat="37.5110717" lon="13.077795"><ele>50.0</ele><time>2026-05-06T13:20:18.563Z</time></trkpt><trkpt lat="37.5109883" lon="13.07775"><ele>50.0</ele><time>2026-05-06T13:20:19.564Z</time></trkpt><trkpt lat="37.5109083" lon="13.0777"><ele>50.4</ele><time>2026-05-06T13:20:20.564Z</time></trkpt><trkpt lat="37.510825" lon="13.07766"><ele>50.8</ele><time>2026-05-06T13:20:21.564Z</time></trkpt><trkpt lat="37.5107467" lon="13.0776167"><ele>51.2</ele><time>2026-05-06T13:20:22.563Z</time></trkpt><trkpt lat="37.5106733" lon="13.0775733"><ele>51.6</ele><time>2026-05-06T13:20:23.563Z</time></trkpt><trkpt lat="37.5105633" lon="13.07752"><ele>52.0</ele><time>2026-05-06T13:20:25.564Z</time></trkpt><trkpt lat="37.5104617" lon="13.077475"><ele>52.33333333333333</ele><time>2026-05-06T13:20:27.563Z</time></trkpt><trkpt lat="37.510365" lon="13.07747"><ele>52.666666666666664</ele><time>2026-05-06T13:20:29.563Z</time></trkpt><trkpt lat="37.51031" lon="13.07751"><ele>53.0</ele><time>2026-05-06T13:20:30.564Z</time></trkpt><trkpt lat="37.510205" lon="13.0775617"><ele>53.33333333333333</ele><time>2026-05-06T13:20:32.563Z</time></trkpt><trkpt lat="37.5101367" lon="13.0775683"><ele>53.666666666666664</ele><time>2026-05-06T13:20:33.564Z</time></trkpt><trkpt lat="37.5100617" lon="13.0775683"><ele>54.0</ele><time>2026-05-06T13:20:34.564Z</time></trkpt><trkpt lat="37.5099817" lon="13.07756"><ele>54.0</ele><time>2026-05-06T13:20:35.563Z</time></trkpt><trkpt lat="37.5099" lon="13.0775683"><ele>54.00000000000001</ele><time>2026-05-06T13:20:36.564Z</time></trkpt><trkpt lat="37.5098083" lon="13.0775567"><ele>54.00000000000001</ele><time>2026-05-06T13:20:37.563Z</time></trkpt><trkpt lat="37.5097133" lon="13.0775483"><ele>54.0</ele><time>2026-05-06T13:20:38.564Z</time></trkpt><trkpt lat="37.5096167" lon="13.0775417"><ele>54.0</ele><time>2026-05-06T13:20:39.564Z</time></trkpt><trkpt lat="37.5095217" lon="13.077525"><ele>53.666666666666664</ele><time>2026-05-06T13:20:40.563Z</time></trkpt><trkpt lat="37.509435" lon="13.0775117"><ele>53.33333333333333</ele><time>2026-05-06T13:20:41.564Z</time></trkpt><trkpt lat="37.5093533" lon="13.0775067"><ele>53.0</ele><time>2026-05-06T13:20:42.564Z</time></trkpt><trkpt lat="37.5092633" lon="13.07749"><ele>52.666666666666664</ele><time>2026-05-06T13:20:43.564Z</time></trkpt><trkpt lat="37.50917" lon="13.0774717"><ele>52.33333333333333</ele><time>2026-05-06T13:20:44.564Z</time></trkpt><trkpt lat="37.509085" lon="13.0774733"><ele>52.0</ele><time>2026-05-06T13:20:45.564Z</time></trkpt><trkpt lat="37.5090067" lon="13.0775"><ele>51.99999999999999</ele><time>2026-05-06T13:20:46.564Z</time></trkpt><trkpt lat="37.5089217" lon="13.0775333"><ele>52.0</ele><time>2026-05-06T13:20:47.565Z</time></trkpt><trkpt lat="37.5088867" lon="13.0776017"><ele>52.0</ele><time>2026-05-06T13:20:48.562Z</time></trkpt><trkpt lat="37.5088533" lon="13.0776883"><ele>52.0</ele><time>2026-05-06T13:20:49.564Z</time></trkpt><trkpt lat="37.5088267" lon="13.0777867"><ele>51.99999999999999</ele><time>2026-05-06T13:20:50.563Z</time></trkpt><trkpt lat="37.508805" lon="13.0779"><ele>52.0</ele><time>2026-05-06T13:20:51.564Z</time></trkpt><trkpt lat="37.5087817" lon="13.0779983"><ele>51.99999999999999</ele><time>2026-05-06T13:20:52.563Z</time></trkpt><trkpt lat="37.5087567" lon="13.07808"><ele>52.0</ele><time>2026-05-06T13:20:53.564Z</time></trkpt><trkpt lat="37.5087217" lon="13.0781483"><ele>52.0</ele><time>2026-05-06T13:20:54.564Z</time></trkpt><trkpt lat="37.50868" lon="13.0782117"><ele>52.0</ele><time>2026-05-06T13:20:55.564Z</time></trkpt><trkpt lat="37.5086283" lon="13.078275"><ele>51.99999999999999</ele><time>2026-05-06T13:20:56.563Z</time></trkpt><trkpt lat="37.5085783" lon="13.0783367"><ele>52.0</ele><time>2026-05-06T13:20:57.563Z</time></trkpt><trkpt lat="37.5085083" lon="13.078455"><ele>52.6</ele><time>2026-05-06T13:20:59.563Z</time></trkpt><trkpt lat="37.508455" lon="13.0786033"><ele>53.2</ele><time>2026-05-06T13:21:01.564Z</time></trkpt><trkpt lat="37.508425" lon="13.0786917"><ele>53.8</ele><time>2026-05-06T13:21:02.565Z</time></trkpt><trkpt lat="37.5083983" lon="13.07879"><ele>54.4</ele><time>2026-05-06T13:21:03.563Z</time></trkpt><trkpt lat="37.50837" lon="13.07889"><ele>55.0</ele><time>2026-05-06T13:21:04.564Z</time></trkpt><trkpt lat="37.5083417" lon="13.07899"><ele>54.99999999999999</ele><time>2026-05-06T13:21:05.565Z</time></trkpt><trkpt lat="37.508315" lon="13.0790783"><ele>55.0</ele><time>2026-05-06T13:21:06.564Z</time></trkpt><trkpt lat="37.50829" lon="13.0791633"><ele>55.0</ele><time>2026-05-06T13:21:07.563Z</time></trkpt><trkpt lat="37.5082667" lon="13.07925"><ele>55.0</ele><time>2026-05-06T13:21:08.563Z</time></trkpt><trkpt lat="37.5082417" lon="13.07934"><ele>55.0</ele><time>2026-05-06T13:21:09.564Z</time></trkpt><trkpt lat="37.508215" lon="13.079425"><ele>54.99999999999999</ele><time>2026-05-06T13:21:10.563Z</time></trkpt><trkpt lat="37.5081917" lon="13.0795133"><ele>55.0</ele><time>2026-05-06T13:21:11.564Z</time></trkpt><trkpt lat="37.5081633" lon="13.0795967"><ele>54.99999999999999</ele><time>2026-05-06T13:21:12.564Z</time></trkpt><trkpt lat="37.508135" lon="13.0796817"><ele>55.0</ele><time>2026-05-06T13:21:13.564Z</time></trkpt><trkpt lat="37.5081067" lon="13.079765"><ele>55.0</ele><time>2026-05-06T13:21:14.564Z</time></trkpt><trkpt lat="37.508085" lon="13.07985"><ele>55.0</ele><time>2026-05-06T13:21:15.564Z</time></trkpt><trkpt lat="37.5080667" lon="13.079935"><ele>55.0</ele><time>2026-05-06T13:21:16.564Z</time></trkpt><trkpt lat="37.5080533" lon="13.080025"><ele>54.99999999999999</ele><time>2026-05-06T13:21:17.564Z</time></trkpt><trkpt lat="37.5080317" lon="13.080105"><ele>55.0</ele><time>2026-05-06T13:21:18.563Z</time></trkpt><trkpt lat="37.508" lon="13.08025"><ele>54.666666666666664</ele><time>2026-05-06T13:21:20.565Z</time></trkpt><trkpt lat="37.50797" lon="13.0803867"><ele>54.33333333333333</ele><time>2026-05-06T13:21:22.563Z</time></trkpt><trkpt lat="37.5079483" lon="13.0804617"><ele>54.0</ele><time>2026-05-06T13:21:23.563Z</time></trkpt><trkpt lat="37.50793" lon="13.08054"><ele>53.66666666666667</ele><time>2026-05-06T13:21:24.563Z</time></trkpt><trkpt lat="37.50791" lon="13.0806283"><ele>53.333333333333336</ele><time>2026-05-06T13:21:25.564Z</time></trkpt><trkpt lat="37.5078883" lon="13.080715"><ele>53.0</ele><time>2026-05-06T13:21:26.565Z</time></trkpt><trkpt lat="37.5078667" lon="13.0807933"><ele>54.16666666666667</ele><time>2026-05-06T13:21:27.565Z</time></trkpt><trkpt lat="37.5077967" lon="13.0809183"><ele>55.333333333333336</ele><time>2026-05-06T13:21:29.564Z</time></trkpt><trkpt lat="37.5077617" lon="13.080985"><ele>56.5</ele><time>2026-05-06T13:21:30.565Z</time></trkpt><trkpt lat="37.5077217" lon="13.0810567"><ele>57.66666666666667</ele><time>2026-05-06T13:21:31.564Z</time></trkpt><trkpt lat="37.5076833" lon="13.0811333"><ele>58.833333333333336</ele><time>2026-05-06T13:21:32.564Z</time></trkpt><trkpt lat="37.5076417" lon="13.08121"><ele>60.0</ele><time>2026-05-06T13:21:33.564Z</time></trkpt><trkpt lat="37.5075917" lon="13.081275"><ele>60.0</ele><time>2026-05-06T13:21:34.563Z</time></trkpt><trkpt lat="37.5075433" lon="13.0813467"><ele>60.0</ele><time>2026-05-06T13:21:35.563Z</time></trkpt><trkpt lat="37.5074833" lon="13.0814117"><ele>60.0</ele><time>2026-05-06T13:21:36.564Z</time></trkpt><trkpt lat="37.50742" lon="13.0814833"><ele>60.0</ele><time>2026-05-06T13:21:37.565Z</time></trkpt><trkpt lat="37.5073567" lon="13.0815567"><ele>60.0</ele><time>2026-05-06T13:21:38.564Z</time></trkpt><trkpt lat="37.50729" lon="13.0816317"><ele>60.0</ele><time>2026-05-06T13:21:39.565Z</time></trkpt><trkpt lat="37.5072233" lon="13.08171"><ele>60.333333333333336</ele><time>2026-05-06T13:21:40.565Z</time></trkpt><trkpt lat="37.5071633" lon="13.0817917"><ele>60.66666666666667</ele><time>2026-05-06T13:21:41.564Z</time></trkpt><trkpt lat="37.5071067" lon="13.08187"><ele>61.0</ele><time>2026-05-06T13:21:42.565Z</time></trkpt><trkpt lat="37.5070567" lon="13.0819467"><ele>61.333333333333336</ele><time>2026-05-06T13:21:43.565Z</time></trkpt><trkpt lat="37.5070033" lon="13.08202"><ele>61.66666666666667</ele><time>2026-05-06T13:21:44.564Z</time></trkpt><trkpt lat="37.5069467" lon="13.082085"><ele>62.0</ele><time>2026-05-06T13:21:45.565Z</time></trkpt><trkpt lat="37.5068933" lon="13.0821567"><ele>61.42857142857143</ele><time>2026-05-06T13:21:46.565Z</time></trkpt><trkpt lat="37.50684" lon="13.0822283"><ele>60.85714285714286</ele><time>2026-05-06T13:21:47.565Z</time></trkpt><trkpt lat="37.5067917" lon="13.0822917"><ele>60.28571428571429</ele><time>2026-05-06T13:21:48.565Z</time></trkpt><trkpt lat="37.50675" lon="13.0823567"><ele>59.71428571428572</ele><time>2026-05-06T13:21:49.565Z</time></trkpt><trkpt lat="37.50671" lon="13.0824233"><ele>59.142857142857146</ele><time>2026-05-06T13:21:50.565Z</time></trkpt><trkpt lat="37.50667" lon="13.0824917"><ele>58.571428571428584</ele><time>2026-05-06T13:21:51.563Z</time></trkpt><trkpt lat="37.5066233" lon="13.0825617"><ele>58.00000000000001</ele><time>2026-05-06T13:21:52.565Z</time></trkpt><trkpt lat="37.5065717" lon="13.0826367"><ele>57.99999999999999</ele><time>2026-05-06T13:21:53.565Z</time></trkpt><trkpt lat="37.50652" lon="13.0827183"><ele>58.0</ele><time>2026-05-06T13:21:54.565Z</time></trkpt><trkpt lat="37.5064683" lon="13.0828033"><ele>58.0</ele><time>2026-05-06T13:21:55.564Z</time></trkpt><trkpt lat="37.5064133" lon="13.08288"><ele>58.0</ele><time>2026-05-06T13:21:56.565Z</time></trkpt><trkpt lat="37.5063633" lon="13.0829633"><ele>57.99999999999999</ele><time>2026-05-06T13:21:57.565Z</time></trkpt><trkpt lat="37.5063183" lon="13.08305"><ele>58.0</ele><time>2026-05-06T13:21:58.564Z</time></trkpt><trkpt lat="37.506285" lon="13.08314"><ele>57.99999999999999</ele><time>2026-05-06T13:21:59.565Z</time></trkpt><trkpt lat="37.5062583" lon="13.08323"><ele>58.0</ele><time>2026-05-06T13:22:00.565Z</time></trkpt><trkpt lat="37.5062417" lon="13.0833233"><ele>58.0</ele><time>2026-05-06T13:22:01.566Z</time></trkpt><trkpt lat="37.5062333" lon="13.08341"><ele>58.0</ele><time>2026-05-06T13:22:02.565Z</time></trkpt><trkpt lat="37.5062317" lon="13.0835567"><ele>57.99999999999999</ele><time>2026-05-06T13:22:04.564Z</time></trkpt><trkpt lat="37.5062483" lon="13.0836483"><ele>58.0</ele><time>2026-05-06T13:22:06.565Z</time></trkpt><trkpt lat="37.5063283" lon="13.083645"><ele>58.83333333333333</ele><time>2026-05-06T13:22:09.565Z</time></trkpt><trkpt lat="37.50642" lon="13.0836667"><ele>59.666666666666664</ele><time>2026-05-06T13:22:11.564Z</time></trkpt><trkpt lat="37.50652" lon="13.08369"><ele>60.5</ele><time>2026-05-06T13:22:13.566Z</time></trkpt><trkpt lat="37.5066033" lon="13.0836983"><ele>61.33333333333333</ele><time>2026-05-06T13:22:15.566Z</time></trkpt><trkpt lat="37.50665" lon="13.0837667"><ele>62.166666666666664</ele><time>2026-05-06T13:22:17.565Z</time></trkpt><trkpt lat="37.5066483" lon="13.0838783"><ele>63.0</ele><time>2026-05-06T13:22:19.564Z</time></trkpt><trkpt lat="37.5066383" lon="13.0840033"><ele>64.0</ele><time>2026-05-06T13:22:21.566Z</time></trkpt><trkpt lat="37.50663" lon="13.0841183"><ele>65.0</ele><time>2026-05-06T13:22:23.566Z</time></trkpt><trkpt lat="37.506615" lon="13.0842"><ele>66.0</ele><time>2026-05-06T13:22:25.565Z</time></trkpt><trkpt lat="37.506595" lon="13.0842817"><ele>67.0</ele><time>2026-05-06T13:22:27.566Z</time></trkpt><trkpt lat="37.5065667" lon="13.0843683"><ele>68.0</ele><time>2026-05-06T13:22:29.565Z</time></trkpt><trkpt lat="37.5064867" lon="13.0844083"><ele>69.0</ele><time>2026-05-06T13:22:31.565Z</time></trkpt><trkpt lat="37.506455" lon="13.0844833"><ele>69.0</ele><time>2026-05-06T13:22:34.565Z</time></trkpt><trkpt lat="37.5064367" lon="13.0845667"><ele>69.0</ele><time>2026-05-06T13:23:04.564Z</time></trkpt></trkseg></trk></gpx>